<?xml version="1.0" encoding="UTF-8" standalone="no" ?>
<gpx xmlns="http://www.topografix.com/GPX/1/1" xmlns:xsi="http://www.w3.org/2001/XMLSchema-instance" xsi:schemaLocation="http://www.topografix.com/GPX/1/1 http://www.topografix.com/GPX/1/1/gpx.xsd" version="1.1" creator="VisuGPX - https://www.visugpx.com">
  <metadata>
    <name>La Courbaisse Massoin Villard le grand tour</name>
    <desc><![CDATA[Départ de la Courbaisse par la piste à l'entrée du village en face cimenterie.
Ce tour a bcp de potentiel mais il faut trouver les meilleures descentes combinées avec des montées qui restent roulantes.
Nous sommes encore en phase d'amélioration de ce tour. 
Une prochaine fois nous essayerons à partir de Massoin dans l'autre sens avec la descente directe du Lac sur Villars.
env 43km pour D+1770 à mon GPS


]]></desc>
  </metadata>
  <trk>
    <name><![CDATA[Tournefort Cyclisme]]></name>
    <trkseg>
      <trkpt lat="43.9256" lon="7.186">
        <ele>230</ele>
        <time>2020-05-27T07:14:20.000Z</time>
      </trkpt>
      <trkpt lat="43.92559" lon="7.18601">
        <ele>229.39999389648</ele>
        <time>2020-05-27T07:14:26.000Z</time>
      </trkpt>
      <trkpt lat="43.92558" lon="7.18598">
        <ele>229.80000305176</ele>
        <time>2020-05-27T07:14:31.000Z</time>
      </trkpt>
      <trkpt lat="43.92558" lon="7.18595">
        <ele>230</ele>
        <time>2020-05-27T07:14:34.000Z</time>
      </trkpt>
      <trkpt lat="43.92558" lon="7.18592">
        <ele>230</ele>
        <time>2020-05-27T07:14:37.000Z</time>
      </trkpt>
      <trkpt lat="43.92557" lon="7.18587">
        <ele>230.39999389648</ele>
        <time>2020-05-27T07:14:45.000Z</time>
      </trkpt>
      <trkpt lat="43.92556" lon="7.18587">
        <ele>230.39999389648</ele>
        <time>2020-05-27T07:14:56.000Z</time>
      </trkpt>
      <trkpt lat="43.92556" lon="7.18587">
        <ele>230.39999389648</ele>
        <time>2020-05-27T07:15:02.000Z</time>
      </trkpt>
      <trkpt lat="43.92555" lon="7.18586">
        <ele>230.60000610352</ele>
        <time>2020-05-27T07:15:12.000Z</time>
      </trkpt>
      <trkpt lat="43.92555" lon="7.18586">
        <ele>230.80000305176</ele>
        <time>2020-05-27T07:15:23.000Z</time>
      </trkpt>
      <trkpt lat="43.92555" lon="7.18585">
        <ele>230</ele>
        <time>2020-05-27T07:15:29.000Z</time>
      </trkpt>
      <trkpt lat="43.92555" lon="7.18586">
        <ele>229.80000305176</ele>
        <time>2020-05-27T07:15:37.000Z</time>
      </trkpt>
      <trkpt lat="43.92555" lon="7.18586">
        <ele>230</ele>
        <time>2020-05-27T07:15:43.000Z</time>
      </trkpt>
      <trkpt lat="43.92554" lon="7.18588">
        <ele>229.60000610352</ele>
        <time>2020-05-27T07:16:02.000Z</time>
      </trkpt>
      <trkpt lat="43.92555" lon="7.18595">
        <ele>229.60000610352</ele>
        <time>2020-05-27T07:16:08.000Z</time>
      </trkpt>
      <trkpt lat="43.92554" lon="7.18596">
        <ele>229.60000610352</ele>
        <time>2020-05-27T07:16:09.000Z</time>
      </trkpt>
      <trkpt lat="43.92554" lon="7.18598">
        <ele>229.60000610352</ele>
        <time>2020-05-27T07:16:11.000Z</time>
      </trkpt>
      <trkpt lat="43.92554" lon="7.18599">
        <ele>229.39999389648</ele>
        <time>2020-05-27T07:16:14.000Z</time>
      </trkpt>
      <trkpt lat="43.92555" lon="7.18597">
        <ele>229.80000305176</ele>
        <time>2020-05-27T07:16:20.000Z</time>
      </trkpt>
      <trkpt lat="43.92556" lon="7.18595">
        <ele>229.80000305176</ele>
        <time>2020-05-27T07:16:26.000Z</time>
      </trkpt>
      <trkpt lat="43.92554" lon="7.18593">
        <ele>230</ele>
        <time>2020-05-27T07:16:29.000Z</time>
      </trkpt>
      <trkpt lat="43.92554" lon="7.18592">
        <ele>230</ele>
        <time>2020-05-27T07:16:30.000Z</time>
      </trkpt>
      <trkpt lat="43.92555" lon="7.18586">
        <ele>229.60000610352</ele>
        <time>2020-05-27T07:16:36.000Z</time>
      </trkpt>
      <trkpt lat="43.92554" lon="7.18584">
        <ele>230</ele>
        <time>2020-05-27T07:16:43.000Z</time>
      </trkpt>
      <trkpt lat="43.92555" lon="7.18583">
        <ele>229.80000305176</ele>
        <time>2020-05-27T07:16:49.000Z</time>
      </trkpt>
      <trkpt lat="43.92555" lon="7.18583">
        <ele>229.60000610352</ele>
        <time>2020-05-27T07:16:56.000Z</time>
      </trkpt>
      <trkpt lat="43.92555" lon="7.18582">
        <ele>230.19999694824</ele>
        <time>2020-05-27T07:17:05.000Z</time>
      </trkpt>
      <trkpt lat="43.92556" lon="7.18582">
        <ele>229.80000305176</ele>
        <time>2020-05-27T07:17:12.000Z</time>
      </trkpt>
      <trkpt lat="43.92556" lon="7.18582">
        <ele>229.39999389648</ele>
        <time>2020-05-27T07:17:18.000Z</time>
      </trkpt>
      <trkpt lat="43.92556" lon="7.18583">
        <ele>230</ele>
        <time>2020-05-27T07:17:24.000Z</time>
      </trkpt>
      <trkpt lat="43.92556" lon="7.18583">
        <ele>229.60000610352</ele>
        <time>2020-05-27T07:17:34.000Z</time>
      </trkpt>
      <trkpt lat="43.92557" lon="7.18583">
        <ele>230.39999389648</ele>
        <time>2020-05-27T07:17:44.000Z</time>
      </trkpt>
      <trkpt lat="43.92557" lon="7.18583">
        <ele>229.60000610352</ele>
        <time>2020-05-27T07:17:50.000Z</time>
      </trkpt>
      <trkpt lat="43.92556" lon="7.18582">
        <ele>229.60000610352</ele>
        <time>2020-05-27T07:17:51.000Z</time>
      </trkpt>
      <trkpt lat="43.92557" lon="7.18582">
        <ele>229.60000610352</ele>
        <time>2020-05-27T07:17:54.000Z</time>
      </trkpt>
      <trkpt lat="43.92557" lon="7.18584">
        <ele>229.60000610352</ele>
        <time>2020-05-27T07:17:56.000Z</time>
      </trkpt>
      <trkpt lat="43.92556" lon="7.18587">
        <ele>229.60000610352</ele>
        <time>2020-05-27T07:17:59.000Z</time>
      </trkpt>
      <trkpt lat="43.92557" lon="7.18594">
        <ele>229.60000610352</ele>
        <time>2020-05-27T07:18:05.000Z</time>
      </trkpt>
      <trkpt lat="43.92556" lon="7.18597">
        <ele>229.39999389648</ele>
        <time>2020-05-27T07:18:10.000Z</time>
      </trkpt>
      <trkpt lat="43.92557" lon="7.18593">
        <ele>229.60000610352</ele>
        <time>2020-05-27T07:18:15.000Z</time>
      </trkpt>
      <trkpt lat="43.92558" lon="7.18592">
        <ele>229.80000305176</ele>
        <time>2020-05-27T07:18:21.000Z</time>
      </trkpt>
      <trkpt lat="43.92561" lon="7.18592">
        <ele>229.80000305176</ele>
        <time>2020-05-27T07:18:36.000Z</time>
      </trkpt>
      <trkpt lat="43.92561" lon="7.18592">
        <ele>229.60000610352</ele>
        <time>2020-05-27T07:18:55.000Z</time>
      </trkpt>
      <trkpt lat="43.9256" lon="7.18592">
        <ele>229.80000305176</ele>
        <time>2020-05-27T07:19:13.000Z</time>
      </trkpt>
      <trkpt lat="43.92558" lon="7.18592">
        <ele>229.60000610352</ele>
        <time>2020-05-27T07:19:34.000Z</time>
      </trkpt>
      <trkpt lat="43.92558" lon="7.18593">
        <ele>229.80000305176</ele>
        <time>2020-05-27T07:19:49.000Z</time>
      </trkpt>
      <trkpt lat="43.92558" lon="7.18593">
        <ele>229.60000610352</ele>
        <time>2020-05-27T07:19:59.000Z</time>
      </trkpt>
      <trkpt lat="43.92557" lon="7.18593">
        <ele>229.19999694824</ele>
        <time>2020-05-27T07:20:22.000Z</time>
      </trkpt>
      <trkpt lat="43.92559" lon="7.18588">
        <ele>229.60000610352</ele>
        <time>2020-05-27T07:20:35.000Z</time>
      </trkpt>
      <trkpt lat="43.92558" lon="7.18587">
        <ele>229.60000610352</ele>
        <time>2020-05-27T07:20:36.000Z</time>
      </trkpt>
      <trkpt lat="43.92554" lon="7.18582">
        <ele>229.39999389648</ele>
        <time>2020-05-27T07:20:39.000Z</time>
      </trkpt>
      <trkpt lat="43.92547" lon="7.18572">
        <ele>230</ele>
        <time>2020-05-27T07:20:44.000Z</time>
      </trkpt>
      <trkpt lat="43.92547" lon="7.1857">
        <ele>230</ele>
        <time>2020-05-27T07:20:45.000Z</time>
      </trkpt>
      <trkpt lat="43.92546" lon="7.18569">
        <ele>230</ele>
        <time>2020-05-27T07:20:46.000Z</time>
      </trkpt>
      <trkpt lat="43.92541" lon="7.18571">
        <ele>230.39999389648</ele>
        <time>2020-05-27T07:20:50.000Z</time>
      </trkpt>
      <trkpt lat="43.92538" lon="7.18575">
        <ele>230.39999389648</ele>
        <time>2020-05-27T07:20:52.000Z</time>
      </trkpt>
      <trkpt lat="43.92532" lon="7.18584">
        <ele>230.60000610352</ele>
        <time>2020-05-27T07:20:56.000Z</time>
      </trkpt>
      <trkpt lat="43.92522" lon="7.18592">
        <ele>230.39999389648</ele>
        <time>2020-05-27T07:21:00.000Z</time>
      </trkpt>
      <trkpt lat="43.9251" lon="7.1861">
        <ele>230.19999694824</ele>
        <time>2020-05-27T07:21:06.000Z</time>
      </trkpt>
      <trkpt lat="43.92494" lon="7.18632">
        <ele>229.60000610352</ele>
        <time>2020-05-27T07:21:13.000Z</time>
      </trkpt>
      <trkpt lat="43.92483" lon="7.18642">
        <ele>229.60000610352</ele>
        <time>2020-05-27T07:21:17.000Z</time>
      </trkpt>
      <trkpt lat="43.92458" lon="7.18648">
        <ele>229.60000610352</ele>
        <time>2020-05-27T07:21:23.000Z</time>
      </trkpt>
      <trkpt lat="43.92415" lon="7.18645">
        <ele>229.39999389648</ele>
        <time>2020-05-27T07:21:33.000Z</time>
      </trkpt>
      <trkpt lat="43.92388" lon="7.18641">
        <ele>229</ele>
        <time>2020-05-27T07:21:40.000Z</time>
      </trkpt>
      <trkpt lat="43.92384" lon="7.18639">
        <ele>228.80000305176</ele>
        <time>2020-05-27T07:21:41.000Z</time>
      </trkpt>
      <trkpt lat="43.92376" lon="7.18629">
        <ele>228.60000610352</ele>
        <time>2020-05-27T07:21:45.000Z</time>
      </trkpt>
      <trkpt lat="43.92368" lon="7.18622">
        <ele>230</ele>
        <time>2020-05-27T07:21:50.000Z</time>
      </trkpt>
      <trkpt lat="43.92363" lon="7.18621">
        <ele>230.80000305176</ele>
        <time>2020-05-27T07:21:53.000Z</time>
      </trkpt>
      <trkpt lat="43.9236" lon="7.1862">
        <ele>231.19999694824</ele>
        <time>2020-05-27T07:21:55.000Z</time>
      </trkpt>
      <trkpt lat="43.92354" lon="7.18618">
        <ele>232.19999694824</ele>
        <time>2020-05-27T07:21:59.000Z</time>
      </trkpt>
      <trkpt lat="43.92351" lon="7.18616">
        <ele>232.60000610352</ele>
        <time>2020-05-27T07:22:01.000Z</time>
      </trkpt>
      <trkpt lat="43.92346" lon="7.18613">
        <ele>233.39999389648</ele>
        <time>2020-05-27T07:22:04.000Z</time>
      </trkpt>
      <trkpt lat="43.92339" lon="7.18609">
        <ele>234.60000610352</ele>
        <time>2020-05-27T07:22:09.000Z</time>
      </trkpt>
      <trkpt lat="43.92329" lon="7.18601">
        <ele>235.60000610352</ele>
        <time>2020-05-27T07:22:16.000Z</time>
      </trkpt>
      <trkpt lat="43.92327" lon="7.18594">
        <ele>236.39999389648</ele>
        <time>2020-05-27T07:22:20.000Z</time>
      </trkpt>
      <trkpt lat="43.92328" lon="7.18592">
        <ele>236.60000610352</ele>
        <time>2020-05-27T07:22:21.000Z</time>
      </trkpt>
      <trkpt lat="43.92329" lon="7.18591">
        <ele>236.80000305176</ele>
        <time>2020-05-27T07:22:22.000Z</time>
      </trkpt>
      <trkpt lat="43.92334" lon="7.18591">
        <ele>237.60000610352</ele>
        <time>2020-05-27T07:22:26.000Z</time>
      </trkpt>
      <trkpt lat="43.92335" lon="7.18591">
        <ele>237.80000305176</ele>
        <time>2020-05-27T07:22:27.000Z</time>
      </trkpt>
      <trkpt lat="43.92345" lon="7.18593">
        <ele>238.60000610352</ele>
        <time>2020-05-27T07:22:34.000Z</time>
      </trkpt>
      <trkpt lat="43.92348" lon="7.18593">
        <ele>238.80000305176</ele>
        <time>2020-05-27T07:22:36.000Z</time>
      </trkpt>
      <trkpt lat="43.92355" lon="7.18592">
        <ele>239.60000610352</ele>
        <time>2020-05-27T07:22:41.000Z</time>
      </trkpt>
      <trkpt lat="43.92356" lon="7.18592">
        <ele>239.80000305176</ele>
        <time>2020-05-27T07:22:42.000Z</time>
      </trkpt>
      <trkpt lat="43.92365" lon="7.18589">
        <ele>241</ele>
        <time>2020-05-27T07:22:49.000Z</time>
      </trkpt>
      <trkpt lat="43.92372" lon="7.18585">
        <ele>242</ele>
        <time>2020-05-27T07:22:54.000Z</time>
      </trkpt>
      <trkpt lat="43.92376" lon="7.18583">
        <ele>243</ele>
        <time>2020-05-27T07:22:57.000Z</time>
      </trkpt>
      <trkpt lat="43.92377" lon="7.18583">
        <ele>243.19999694824</ele>
        <time>2020-05-27T07:22:58.000Z</time>
      </trkpt>
      <trkpt lat="43.92384" lon="7.1858">
        <ele>244.19999694824</ele>
        <time>2020-05-27T07:23:03.000Z</time>
      </trkpt>
      <trkpt lat="43.92386" lon="7.1858">
        <ele>244.80000305176</ele>
        <time>2020-05-27T07:23:05.000Z</time>
      </trkpt>
      <trkpt lat="43.92389" lon="7.18578">
        <ele>245.39999389648</ele>
        <time>2020-05-27T07:23:08.000Z</time>
      </trkpt>
      <trkpt lat="43.92393" lon="7.18577">
        <ele>246.19999694824</ele>
        <time>2020-05-27T07:23:12.000Z</time>
      </trkpt>
      <trkpt lat="43.92396" lon="7.18576">
        <ele>246.80000305176</ele>
        <time>2020-05-27T07:23:14.000Z</time>
      </trkpt>
      <trkpt lat="43.92402" lon="7.18574">
        <ele>247.39999389648</ele>
        <time>2020-05-27T07:23:19.000Z</time>
      </trkpt>
      <trkpt lat="43.92404" lon="7.18574">
        <ele>247.80000305176</ele>
        <time>2020-05-27T07:23:20.000Z</time>
      </trkpt>
      <trkpt lat="43.92413" lon="7.18572">
        <ele>248.80000305176</ele>
        <time>2020-05-27T07:23:26.000Z</time>
      </trkpt>
      <trkpt lat="43.92419" lon="7.18571">
        <ele>249.60000610352</ele>
        <time>2020-05-27T07:23:30.000Z</time>
      </trkpt>
      <trkpt lat="43.92422" lon="7.1857">
        <ele>250</ele>
        <time>2020-05-27T07:23:32.000Z</time>
      </trkpt>
      <trkpt lat="43.92431" lon="7.18567">
        <ele>251.19999694824</ele>
        <time>2020-05-27T07:23:38.000Z</time>
      </trkpt>
      <trkpt lat="43.92432" lon="7.18566">
        <ele>251.39999389648</ele>
        <time>2020-05-27T07:23:39.000Z</time>
      </trkpt>
      <trkpt lat="43.92438" lon="7.18559">
        <ele>252.39999389648</ele>
        <time>2020-05-27T07:23:44.000Z</time>
      </trkpt>
      <trkpt lat="43.9244" lon="7.18554">
        <ele>252.80000305176</ele>
        <time>2020-05-27T07:23:47.000Z</time>
      </trkpt>
      <trkpt lat="43.92441" lon="7.18544">
        <ele>253.39999389648</ele>
        <time>2020-05-27T07:23:52.000Z</time>
      </trkpt>
      <trkpt lat="43.92441" lon="7.18542">
        <ele>253.60000610352</ele>
        <time>2020-05-27T07:23:53.000Z</time>
      </trkpt>
      <trkpt lat="43.92439" lon="7.18529">
        <ele>254.39999389648</ele>
        <time>2020-05-27T07:24:00.000Z</time>
      </trkpt>
      <trkpt lat="43.92439" lon="7.18527">
        <ele>254.60000610352</ele>
        <time>2020-05-27T07:24:01.000Z</time>
      </trkpt>
      <trkpt lat="43.92439" lon="7.18517">
        <ele>255.60000610352</ele>
        <time>2020-05-27T07:24:06.000Z</time>
      </trkpt>
      <trkpt lat="43.92439" lon="7.18513">
        <ele>255.80000305176</ele>
        <time>2020-05-27T07:24:08.000Z</time>
      </trkpt>
      <trkpt lat="43.9244" lon="7.18501">
        <ele>256.60000610352</ele>
        <time>2020-05-27T07:24:14.000Z</time>
      </trkpt>
      <trkpt lat="43.92442" lon="7.18498">
        <ele>256.79998779297</ele>
        <time>2020-05-27T07:24:16.000Z</time>
      </trkpt>
      <trkpt lat="43.92446" lon="7.18488">
        <ele>257.60000610352</ele>
        <time>2020-05-27T07:24:21.000Z</time>
      </trkpt>
      <trkpt lat="43.92448" lon="7.18485">
        <ele>257.79998779297</ele>
        <time>2020-05-27T07:24:23.000Z</time>
      </trkpt>
      <trkpt lat="43.92452" lon="7.18479">
        <ele>258.79998779297</ele>
        <time>2020-05-27T07:24:27.000Z</time>
      </trkpt>
      <trkpt lat="43.92458" lon="7.18469">
        <ele>259.60000610352</ele>
        <time>2020-05-27T07:24:33.000Z</time>
      </trkpt>
      <trkpt lat="43.92459" lon="7.18467">
        <ele>259.79998779297</ele>
        <time>2020-05-27T07:24:34.000Z</time>
      </trkpt>
      <trkpt lat="43.92462" lon="7.18464">
        <ele>260.20001220703</ele>
        <time>2020-05-27T07:24:36.000Z</time>
      </trkpt>
      <trkpt lat="43.92464" lon="7.18459">
        <ele>260.60000610352</ele>
        <time>2020-05-27T07:24:39.000Z</time>
      </trkpt>
      <trkpt lat="43.92465" lon="7.18455">
        <ele>260.79998779297</ele>
        <time>2020-05-27T07:24:41.000Z</time>
      </trkpt>
      <trkpt lat="43.92467" lon="7.18447">
        <ele>261.39999389648</ele>
        <time>2020-05-27T07:24:45.000Z</time>
      </trkpt>
      <trkpt lat="43.92469" lon="7.18441">
        <ele>261.79998779297</ele>
        <time>2020-05-27T07:24:48.000Z</time>
      </trkpt>
      <trkpt lat="43.9247" lon="7.18432">
        <ele>262.60000610352</ele>
        <time>2020-05-27T07:24:52.000Z</time>
      </trkpt>
      <trkpt lat="43.92471" lon="7.18426">
        <ele>263</ele>
        <time>2020-05-27T07:24:55.000Z</time>
      </trkpt>
      <trkpt lat="43.92475" lon="7.18413">
        <ele>263.79998779297</ele>
        <time>2020-05-27T07:25:01.000Z</time>
      </trkpt>
      <trkpt lat="43.92476" lon="7.1841">
        <ele>264</ele>
        <time>2020-05-27T07:25:02.000Z</time>
      </trkpt>
      <trkpt lat="43.92479" lon="7.18394">
        <ele>264.79998779297</ele>
        <time>2020-05-27T07:25:09.000Z</time>
      </trkpt>
      <trkpt lat="43.9248" lon="7.18389">
        <ele>265.20001220703</ele>
        <time>2020-05-27T07:25:11.000Z</time>
      </trkpt>
      <trkpt lat="43.92483" lon="7.18378">
        <ele>266</ele>
        <time>2020-05-27T07:25:16.000Z</time>
      </trkpt>
      <trkpt lat="43.92484" lon="7.18371">
        <ele>266.39999389648</ele>
        <time>2020-05-27T07:25:19.000Z</time>
      </trkpt>
      <trkpt lat="43.92486" lon="7.18364">
        <ele>267</ele>
        <time>2020-05-27T07:25:22.000Z</time>
      </trkpt>
      <trkpt lat="43.92487" lon="7.18358">
        <ele>267.39999389648</ele>
        <time>2020-05-27T07:25:25.000Z</time>
      </trkpt>
      <trkpt lat="43.92489" lon="7.18348">
        <ele>268.20001220703</ele>
        <time>2020-05-27T07:25:29.000Z</time>
      </trkpt>
      <trkpt lat="43.92491" lon="7.18341">
        <ele>268.60000610352</ele>
        <time>2020-05-27T07:25:32.000Z</time>
      </trkpt>
      <trkpt lat="43.92493" lon="7.18332">
        <ele>269.39999389648</ele>
        <time>2020-05-27T07:25:36.000Z</time>
      </trkpt>
      <trkpt lat="43.92493" lon="7.1833">
        <ele>269.60000610352</ele>
        <time>2020-05-27T07:25:37.000Z</time>
      </trkpt>
      <trkpt lat="43.92494" lon="7.18317">
        <ele>270.60000610352</ele>
        <time>2020-05-27T07:25:42.000Z</time>
      </trkpt>
      <trkpt lat="43.92494" lon="7.18312">
        <ele>270.79998779297</ele>
        <time>2020-05-27T07:25:44.000Z</time>
      </trkpt>
      <trkpt lat="43.92495" lon="7.183">
        <ele>272</ele>
        <time>2020-05-27T07:25:49.000Z</time>
      </trkpt>
      <trkpt lat="43.92498" lon="7.1828">
        <ele>273.20001220703</ele>
        <time>2020-05-27T07:25:57.000Z</time>
      </trkpt>
      <trkpt lat="43.92498" lon="7.18275">
        <ele>273.39999389648</ele>
        <time>2020-05-27T07:25:59.000Z</time>
      </trkpt>
      <trkpt lat="43.92501" lon="7.18264">
        <ele>274.20001220703</ele>
        <time>2020-05-27T07:26:04.000Z</time>
      </trkpt>
      <trkpt lat="43.92501" lon="7.18262">
        <ele>274.39999389648</ele>
        <time>2020-05-27T07:26:05.000Z</time>
      </trkpt>
      <trkpt lat="43.92505" lon="7.1825">
        <ele>275.39999389648</ele>
        <time>2020-05-27T07:26:10.000Z</time>
      </trkpt>
      <trkpt lat="43.92508" lon="7.18244">
        <ele>275.60000610352</ele>
        <time>2020-05-27T07:26:13.000Z</time>
      </trkpt>
      <trkpt lat="43.92513" lon="7.18235">
        <ele>276.39999389648</ele>
        <time>2020-05-27T07:26:18.000Z</time>
      </trkpt>
      <trkpt lat="43.92516" lon="7.1823">
        <ele>277.20001220703</ele>
        <time>2020-05-27T07:26:21.000Z</time>
      </trkpt>
      <trkpt lat="43.92519" lon="7.18227">
        <ele>277.39999389648</ele>
        <time>2020-05-27T07:26:23.000Z</time>
      </trkpt>
      <trkpt lat="43.92523" lon="7.18217">
        <ele>278.60000610352</ele>
        <time>2020-05-27T07:26:28.000Z</time>
      </trkpt>
      <trkpt lat="43.92524" lon="7.18215">
        <ele>278.79998779297</ele>
        <time>2020-05-27T07:26:29.000Z</time>
      </trkpt>
      <trkpt lat="43.92527" lon="7.18204">
        <ele>279.79998779297</ele>
        <time>2020-05-27T07:26:34.000Z</time>
      </trkpt>
      <trkpt lat="43.92528" lon="7.18193">
        <ele>280.39999389648</ele>
        <time>2020-05-27T07:26:38.000Z</time>
      </trkpt>
      <trkpt lat="43.92529" lon="7.18185">
        <ele>280.79998779297</ele>
        <time>2020-05-27T07:26:41.000Z</time>
      </trkpt>
      <trkpt lat="43.92531" lon="7.18175">
        <ele>281.20001220703</ele>
        <time>2020-05-27T07:26:45.000Z</time>
      </trkpt>
      <trkpt lat="43.92532" lon="7.18167">
        <ele>281.79998779297</ele>
        <time>2020-05-27T07:26:48.000Z</time>
      </trkpt>
      <trkpt lat="43.92532" lon="7.18157">
        <ele>282.60000610352</ele>
        <time>2020-05-27T07:26:52.000Z</time>
      </trkpt>
      <trkpt lat="43.92532" lon="7.18155">
        <ele>283</ele>
        <time>2020-05-27T07:26:53.000Z</time>
      </trkpt>
      <trkpt lat="43.9253" lon="7.18144">
        <ele>284</ele>
        <time>2020-05-27T07:26:58.000Z</time>
      </trkpt>
      <trkpt lat="43.9253" lon="7.18142">
        <ele>284.20001220703</ele>
        <time>2020-05-27T07:26:59.000Z</time>
      </trkpt>
      <trkpt lat="43.9253" lon="7.18133">
        <ele>285</ele>
        <time>2020-05-27T07:27:03.000Z</time>
      </trkpt>
      <trkpt lat="43.9253" lon="7.18128">
        <ele>285.20001220703</ele>
        <time>2020-05-27T07:27:05.000Z</time>
      </trkpt>
      <trkpt lat="43.92534" lon="7.18117">
        <ele>286</ele>
        <time>2020-05-27T07:27:10.000Z</time>
      </trkpt>
      <trkpt lat="43.92539" lon="7.1811">
        <ele>286.79998779297</ele>
        <time>2020-05-27T07:27:14.000Z</time>
      </trkpt>
      <trkpt lat="43.92543" lon="7.18106">
        <ele>287.20001220703</ele>
        <time>2020-05-27T07:27:17.000Z</time>
      </trkpt>
      <trkpt lat="43.92551" lon="7.18096">
        <ele>288</ele>
        <time>2020-05-27T07:27:23.000Z</time>
      </trkpt>
      <trkpt lat="43.92556" lon="7.18092">
        <ele>288.39999389648</ele>
        <time>2020-05-27T07:27:26.000Z</time>
      </trkpt>
      <trkpt lat="43.92566" lon="7.18083">
        <ele>289.20001220703</ele>
        <time>2020-05-27T07:27:32.000Z</time>
      </trkpt>
      <trkpt lat="43.92569" lon="7.18081">
        <ele>289.60000610352</ele>
        <time>2020-05-27T07:27:34.000Z</time>
      </trkpt>
      <trkpt lat="43.92576" lon="7.18076">
        <ele>290.60000610352</ele>
        <time>2020-05-27T07:27:39.000Z</time>
      </trkpt>
      <trkpt lat="43.92587" lon="7.18071">
        <ele>291.60000610352</ele>
        <time>2020-05-27T07:27:46.000Z</time>
      </trkpt>
      <trkpt lat="43.9259" lon="7.1807">
        <ele>292</ele>
        <time>2020-05-27T07:27:48.000Z</time>
      </trkpt>
      <trkpt lat="43.92598" lon="7.18066">
        <ele>292.79998779297</ele>
        <time>2020-05-27T07:27:53.000Z</time>
      </trkpt>
      <trkpt lat="43.92604" lon="7.18062">
        <ele>293.39999389648</ele>
        <time>2020-05-27T07:27:56.000Z</time>
      </trkpt>
      <trkpt lat="43.9261" lon="7.18059">
        <ele>294</ele>
        <time>2020-05-27T07:28:00.000Z</time>
      </trkpt>
      <trkpt lat="43.92615" lon="7.18056">
        <ele>294.60000610352</ele>
        <time>2020-05-27T07:28:03.000Z</time>
      </trkpt>
      <trkpt lat="43.92617" lon="7.18053">
        <ele>295.20001220703</ele>
        <time>2020-05-27T07:28:05.000Z</time>
      </trkpt>
      <trkpt lat="43.92621" lon="7.18044">
        <ele>296.20001220703</ele>
        <time>2020-05-27T07:28:09.000Z</time>
      </trkpt>
      <trkpt lat="43.92622" lon="7.18041">
        <ele>296.39999389648</ele>
        <time>2020-05-27T07:28:10.000Z</time>
      </trkpt>
      <trkpt lat="43.92623" lon="7.18025">
        <ele>297.60000610352</ele>
        <time>2020-05-27T07:28:17.000Z</time>
      </trkpt>
      <trkpt lat="43.92627" lon="7.18009">
        <ele>298.60000610352</ele>
        <time>2020-05-27T07:28:24.000Z</time>
      </trkpt>
      <trkpt lat="43.9263" lon="7.18005">
        <ele>298.79998779297</ele>
        <time>2020-05-27T07:28:26.000Z</time>
      </trkpt>
      <trkpt lat="43.92638" lon="7.18">
        <ele>299.60000610352</ele>
        <time>2020-05-27T07:28:32.000Z</time>
      </trkpt>
      <trkpt lat="43.92649" lon="7.18">
        <ele>300.60000610352</ele>
        <time>2020-05-27T07:28:38.000Z</time>
      </trkpt>
      <trkpt lat="43.92655" lon="7.17997">
        <ele>301.20001220703</ele>
        <time>2020-05-27T07:28:42.000Z</time>
      </trkpt>
      <trkpt lat="43.9266" lon="7.17996">
        <ele>301.79998779297</ele>
        <time>2020-05-27T07:28:45.000Z</time>
      </trkpt>
      <trkpt lat="43.92669" lon="7.17992">
        <ele>302.79998779297</ele>
        <time>2020-05-27T07:28:51.000Z</time>
      </trkpt>
      <trkpt lat="43.92677" lon="7.17989">
        <ele>303.79998779297</ele>
        <time>2020-05-27T07:28:56.000Z</time>
      </trkpt>
      <trkpt lat="43.92681" lon="7.17988">
        <ele>304.20001220703</ele>
        <time>2020-05-27T07:28:58.000Z</time>
      </trkpt>
      <trkpt lat="43.92689" lon="7.17983">
        <ele>305</ele>
        <time>2020-05-27T07:29:03.000Z</time>
      </trkpt>
      <trkpt lat="43.92694" lon="7.17978">
        <ele>305.39999389648</ele>
        <time>2020-05-27T07:29:06.000Z</time>
      </trkpt>
      <trkpt lat="43.92697" lon="7.1797">
        <ele>306</ele>
        <time>2020-05-27T07:29:10.000Z</time>
      </trkpt>
      <trkpt lat="43.927" lon="7.17961">
        <ele>306.60000610352</ele>
        <time>2020-05-27T07:29:14.000Z</time>
      </trkpt>
      <trkpt lat="43.92702" lon="7.17955">
        <ele>307</ele>
        <time>2020-05-27T07:29:17.000Z</time>
      </trkpt>
      <trkpt lat="43.92703" lon="7.17943">
        <ele>307.79998779297</ele>
        <time>2020-05-27T07:29:22.000Z</time>
      </trkpt>
      <trkpt lat="43.92703" lon="7.17938">
        <ele>308.20001220703</ele>
        <time>2020-05-27T07:29:24.000Z</time>
      </trkpt>
      <trkpt lat="43.92702" lon="7.17927">
        <ele>308.79998779297</ele>
        <time>2020-05-27T07:29:29.000Z</time>
      </trkpt>
      <trkpt lat="43.92701" lon="7.17922">
        <ele>309.39999389648</ele>
        <time>2020-05-27T07:29:31.000Z</time>
      </trkpt>
      <trkpt lat="43.92699" lon="7.17907">
        <ele>310.39999389648</ele>
        <time>2020-05-27T07:29:37.000Z</time>
      </trkpt>
      <trkpt lat="43.92698" lon="7.17902">
        <ele>310.60000610352</ele>
        <time>2020-05-27T07:29:39.000Z</time>
      </trkpt>
      <trkpt lat="43.92696" lon="7.1789">
        <ele>311.39999389648</ele>
        <time>2020-05-27T07:29:44.000Z</time>
      </trkpt>
      <trkpt lat="43.92695" lon="7.17882">
        <ele>312.20001220703</ele>
        <time>2020-05-27T07:29:47.000Z</time>
      </trkpt>
      <trkpt lat="43.92694" lon="7.17875">
        <ele>312.60000610352</ele>
        <time>2020-05-27T07:29:50.000Z</time>
      </trkpt>
      <trkpt lat="43.92692" lon="7.17863">
        <ele>313.39999389648</ele>
        <time>2020-05-27T07:29:55.000Z</time>
      </trkpt>
      <trkpt lat="43.92692" lon="7.17861">
        <ele>313.60000610352</ele>
        <time>2020-05-27T07:29:56.000Z</time>
      </trkpt>
      <trkpt lat="43.92689" lon="7.17845">
        <ele>314.79998779297</ele>
        <time>2020-05-27T07:30:02.000Z</time>
      </trkpt>
      <trkpt lat="43.92688" lon="7.17839">
        <ele>315.20001220703</ele>
        <time>2020-05-27T07:30:04.000Z</time>
      </trkpt>
      <trkpt lat="43.92688" lon="7.1782">
        <ele>316</ele>
        <time>2020-05-27T07:30:11.000Z</time>
      </trkpt>
      <trkpt lat="43.92692" lon="7.17808">
        <ele>317</ele>
        <time>2020-05-27T07:30:16.000Z</time>
      </trkpt>
      <trkpt lat="43.92693" lon="7.17805">
        <ele>317.20001220703</ele>
        <time>2020-05-27T07:30:17.000Z</time>
      </trkpt>
      <trkpt lat="43.92701" lon="7.17795">
        <ele>317.60000610352</ele>
        <time>2020-05-27T07:30:23.000Z</time>
      </trkpt>
      <trkpt lat="43.92706" lon="7.17792">
        <ele>318</ele>
        <time>2020-05-27T07:30:26.000Z</time>
      </trkpt>
      <trkpt lat="43.92713" lon="7.17789">
        <ele>318.79998779297</ele>
        <time>2020-05-27T07:30:31.000Z</time>
      </trkpt>
      <trkpt lat="43.92717" lon="7.17788">
        <ele>319.20001220703</ele>
        <time>2020-05-27T07:30:34.000Z</time>
      </trkpt>
      <trkpt lat="43.92725" lon="7.17789">
        <ele>320.39999389648</ele>
        <time>2020-05-27T07:30:39.000Z</time>
      </trkpt>
      <trkpt lat="43.92734" lon="7.17792">
        <ele>321.60000610352</ele>
        <time>2020-05-27T07:30:45.000Z</time>
      </trkpt>
      <trkpt lat="43.92739" lon="7.17794">
        <ele>322</ele>
        <time>2020-05-27T07:30:48.000Z</time>
      </trkpt>
      <trkpt lat="43.92745" lon="7.17798">
        <ele>322.60000610352</ele>
        <time>2020-05-27T07:30:52.000Z</time>
      </trkpt>
      <trkpt lat="43.92752" lon="7.17804">
        <ele>323.39999389648</ele>
        <time>2020-05-27T07:30:57.000Z</time>
      </trkpt>
      <trkpt lat="43.92755" lon="7.17806">
        <ele>323.79998779297</ele>
        <time>2020-05-27T07:30:59.000Z</time>
      </trkpt>
      <trkpt lat="43.92765" lon="7.1781">
        <ele>324.79998779297</ele>
        <time>2020-05-27T07:31:04.000Z</time>
      </trkpt>
      <trkpt lat="43.92769" lon="7.17811">
        <ele>325</ele>
        <time>2020-05-27T07:31:06.000Z</time>
      </trkpt>
      <trkpt lat="43.92777" lon="7.17812">
        <ele>325.79998779297</ele>
        <time>2020-05-27T07:31:10.000Z</time>
      </trkpt>
      <trkpt lat="43.92785" lon="7.17811">
        <ele>326.60000610352</ele>
        <time>2020-05-27T07:31:14.000Z</time>
      </trkpt>
      <trkpt lat="43.92788" lon="7.17809">
        <ele>327</ele>
        <time>2020-05-27T07:31:16.000Z</time>
      </trkpt>
      <trkpt lat="43.928" lon="7.17804">
        <ele>327.79998779297</ele>
        <time>2020-05-27T07:31:23.000Z</time>
      </trkpt>
      <trkpt lat="43.92803" lon="7.17803">
        <ele>328.20001220703</ele>
        <time>2020-05-27T07:31:25.000Z</time>
      </trkpt>
      <trkpt lat="43.92814" lon="7.178">
        <ele>329.20001220703</ele>
        <time>2020-05-27T07:31:31.000Z</time>
      </trkpt>
      <trkpt lat="43.92826" lon="7.17801">
        <ele>330.39999389648</ele>
        <time>2020-05-27T07:31:38.000Z</time>
      </trkpt>
      <trkpt lat="43.92828" lon="7.17801">
        <ele>330.60000610352</ele>
        <time>2020-05-27T07:31:39.000Z</time>
      </trkpt>
      <trkpt lat="43.92837" lon="7.17802">
        <ele>331.60000610352</ele>
        <time>2020-05-27T07:31:45.000Z</time>
      </trkpt>
      <trkpt lat="43.92842" lon="7.17803">
        <ele>332</ele>
        <time>2020-05-27T07:31:48.000Z</time>
      </trkpt>
      <trkpt lat="43.92848" lon="7.17803">
        <ele>332.60000610352</ele>
        <time>2020-05-27T07:31:51.000Z</time>
      </trkpt>
      <trkpt lat="43.92858" lon="7.17804">
        <ele>333.60000610352</ele>
        <time>2020-05-27T07:31:57.000Z</time>
      </trkpt>
      <trkpt lat="43.92869" lon="7.17804">
        <ele>334.39999389648</ele>
        <time>2020-05-27T07:32:03.000Z</time>
      </trkpt>
      <trkpt lat="43.92872" lon="7.17805">
        <ele>334.79998779297</ele>
        <time>2020-05-27T07:32:05.000Z</time>
      </trkpt>
      <trkpt lat="43.92887" lon="7.1781">
        <ele>335.79998779297</ele>
        <time>2020-05-27T07:32:13.000Z</time>
      </trkpt>
      <trkpt lat="43.92902" lon="7.17817">
        <ele>336.79998779297</ele>
        <time>2020-05-27T07:32:21.000Z</time>
      </trkpt>
      <trkpt lat="43.92903" lon="7.17818">
        <ele>337</ele>
        <time>2020-05-27T07:32:22.000Z</time>
      </trkpt>
      <trkpt lat="43.9291" lon="7.17819">
        <ele>338</ele>
        <time>2020-05-27T07:32:27.000Z</time>
      </trkpt>
      <trkpt lat="43.92912" lon="7.17818">
        <ele>338</ele>
        <time>2020-05-27T07:32:28.000Z</time>
      </trkpt>
      <trkpt lat="43.92913" lon="7.17815">
        <ele>338.20001220703</ele>
        <time>2020-05-27T07:32:30.000Z</time>
      </trkpt>
      <trkpt lat="43.9291" lon="7.17809">
        <ele>338.79998779297</ele>
        <time>2020-05-27T07:32:34.000Z</time>
      </trkpt>
      <trkpt lat="43.92907" lon="7.17807">
        <ele>339</ele>
        <time>2020-05-27T07:32:36.000Z</time>
      </trkpt>
      <trkpt lat="43.92906" lon="7.17806">
        <ele>339.20001220703</ele>
        <time>2020-05-27T07:32:37.000Z</time>
      </trkpt>
      <trkpt lat="43.92898" lon="7.17802">
        <ele>339.79998779297</ele>
        <time>2020-05-27T07:32:42.000Z</time>
      </trkpt>
      <trkpt lat="43.92895" lon="7.178">
        <ele>340</ele>
        <time>2020-05-27T07:32:44.000Z</time>
      </trkpt>
      <trkpt lat="43.92885" lon="7.17792">
        <ele>340.60000610352</ele>
        <time>2020-05-27T07:32:51.000Z</time>
      </trkpt>
      <trkpt lat="43.92879" lon="7.17788">
        <ele>341</ele>
        <time>2020-05-27T07:32:55.000Z</time>
      </trkpt>
      <trkpt lat="43.92874" lon="7.17784">
        <ele>341.39999389648</ele>
        <time>2020-05-27T07:32:58.000Z</time>
      </trkpt>
      <trkpt lat="43.92865" lon="7.17777">
        <ele>342</ele>
        <time>2020-05-27T07:33:04.000Z</time>
      </trkpt>
      <trkpt lat="43.92864" lon="7.17777">
        <ele>342.20001220703</ele>
        <time>2020-05-27T07:33:05.000Z</time>
      </trkpt>
      <trkpt lat="43.92856" lon="7.17773">
        <ele>342.60000610352</ele>
        <time>2020-05-27T07:33:10.000Z</time>
      </trkpt>
      <trkpt lat="43.92851" lon="7.17771">
        <ele>343.20001220703</ele>
        <time>2020-05-27T07:33:14.000Z</time>
      </trkpt>
      <trkpt lat="43.92847" lon="7.17769">
        <ele>343.60000610352</ele>
        <time>2020-05-27T07:33:16.000Z</time>
      </trkpt>
      <trkpt lat="43.92843" lon="7.17767">
        <ele>344.39999389648</ele>
        <time>2020-05-27T07:33:19.000Z</time>
      </trkpt>
      <trkpt lat="43.92839" lon="7.17766">
        <ele>344.60000610352</ele>
        <time>2020-05-27T07:33:21.000Z</time>
      </trkpt>
      <trkpt lat="43.92832" lon="7.17763">
        <ele>345.39999389648</ele>
        <time>2020-05-27T07:33:26.000Z</time>
      </trkpt>
      <trkpt lat="43.92825" lon="7.17758">
        <ele>346.20001220703</ele>
        <time>2020-05-27T07:33:31.000Z</time>
      </trkpt>
      <trkpt lat="43.92822" lon="7.17757">
        <ele>346.60000610352</ele>
        <time>2020-05-27T07:33:33.000Z</time>
      </trkpt>
      <trkpt lat="43.92815" lon="7.17754">
        <ele>347.39999389648</ele>
        <time>2020-05-27T07:33:37.000Z</time>
      </trkpt>
      <trkpt lat="43.92813" lon="7.17754">
        <ele>347.60000610352</ele>
        <time>2020-05-27T07:33:38.000Z</time>
      </trkpt>
      <trkpt lat="43.92807" lon="7.17751">
        <ele>348.39999389648</ele>
        <time>2020-05-27T07:33:43.000Z</time>
      </trkpt>
      <trkpt lat="43.92803" lon="7.17749">
        <ele>348.79998779297</ele>
        <time>2020-05-27T07:33:45.000Z</time>
      </trkpt>
      <trkpt lat="43.92795" lon="7.17746">
        <ele>349.39999389648</ele>
        <time>2020-05-27T07:33:50.000Z</time>
      </trkpt>
      <trkpt lat="43.92792" lon="7.17744">
        <ele>349.79998779297</ele>
        <time>2020-05-27T07:33:52.000Z</time>
      </trkpt>
      <trkpt lat="43.9278" lon="7.1774">
        <ele>350.79998779297</ele>
        <time>2020-05-27T07:33:58.000Z</time>
      </trkpt>
      <trkpt lat="43.92769" lon="7.17739">
        <ele>351.79998779297</ele>
        <time>2020-05-27T07:34:05.000Z</time>
      </trkpt>
      <trkpt lat="43.92754" lon="7.17734">
        <ele>353</ele>
        <time>2020-05-27T07:34:13.000Z</time>
      </trkpt>
      <trkpt lat="43.92744" lon="7.17725">
        <ele>353.79998779297</ele>
        <time>2020-05-27T07:34:20.000Z</time>
      </trkpt>
      <trkpt lat="43.92741" lon="7.17721">
        <ele>354.20001220703</ele>
        <time>2020-05-27T07:34:22.000Z</time>
      </trkpt>
      <trkpt lat="43.92732" lon="7.17711">
        <ele>355.20001220703</ele>
        <time>2020-05-27T07:34:28.000Z</time>
      </trkpt>
      <trkpt lat="43.92731" lon="7.1771">
        <ele>355.20001220703</ele>
        <time>2020-05-27T07:34:29.000Z</time>
      </trkpt>
      <trkpt lat="43.92718" lon="7.17696">
        <ele>356.39999389648</ele>
        <time>2020-05-27T07:34:38.000Z</time>
      </trkpt>
      <trkpt lat="43.9271" lon="7.17687">
        <ele>357.60000610352</ele>
        <time>2020-05-27T07:34:44.000Z</time>
      </trkpt>
      <trkpt lat="43.92705" lon="7.17683">
        <ele>358</ele>
        <time>2020-05-27T07:34:47.000Z</time>
      </trkpt>
      <trkpt lat="43.92701" lon="7.17678">
        <ele>358.60000610352</ele>
        <time>2020-05-27T07:34:50.000Z</time>
      </trkpt>
      <trkpt lat="43.92691" lon="7.17671">
        <ele>359.39999389648</ele>
        <time>2020-05-27T07:34:56.000Z</time>
      </trkpt>
      <trkpt lat="43.92689" lon="7.1767">
        <ele>359.60000610352</ele>
        <time>2020-05-27T07:34:57.000Z</time>
      </trkpt>
      <trkpt lat="43.92678" lon="7.17661">
        <ele>360.79998779297</ele>
        <time>2020-05-27T07:35:04.000Z</time>
      </trkpt>
      <trkpt lat="43.92669" lon="7.17656">
        <ele>361.79998779297</ele>
        <time>2020-05-27T07:35:09.000Z</time>
      </trkpt>
      <trkpt lat="43.92662" lon="7.17653">
        <ele>362.60000610352</ele>
        <time>2020-05-27T07:35:13.000Z</time>
      </trkpt>
      <trkpt lat="43.92659" lon="7.17652">
        <ele>362.79998779297</ele>
        <time>2020-05-27T07:35:15.000Z</time>
      </trkpt>
      <trkpt lat="43.9265" lon="7.17651">
        <ele>363.79998779297</ele>
        <time>2020-05-27T07:35:20.000Z</time>
      </trkpt>
      <trkpt lat="43.92648" lon="7.17652">
        <ele>364</ele>
        <time>2020-05-27T07:35:21.000Z</time>
      </trkpt>
      <trkpt lat="43.92637" lon="7.17655">
        <ele>365</ele>
        <time>2020-05-27T07:35:27.000Z</time>
      </trkpt>
      <trkpt lat="43.92634" lon="7.17656">
        <ele>365</ele>
        <time>2020-05-27T07:35:29.000Z</time>
      </trkpt>
      <trkpt lat="43.92624" lon="7.17657">
        <ele>366</ele>
        <time>2020-05-27T07:35:34.000Z</time>
      </trkpt>
      <trkpt lat="43.92614" lon="7.17656">
        <ele>367</ele>
        <time>2020-05-27T07:35:39.000Z</time>
      </trkpt>
      <trkpt lat="43.92601" lon="7.17655">
        <ele>368.20001220703</ele>
        <time>2020-05-27T07:35:46.000Z</time>
      </trkpt>
      <trkpt lat="43.92594" lon="7.17655">
        <ele>368.79998779297</ele>
        <time>2020-05-27T07:35:50.000Z</time>
      </trkpt>
      <trkpt lat="43.9259" lon="7.17655">
        <ele>369.20001220703</ele>
        <time>2020-05-27T07:35:52.000Z</time>
      </trkpt>
      <trkpt lat="43.92579" lon="7.17656">
        <ele>370.20001220703</ele>
        <time>2020-05-27T07:35:58.000Z</time>
      </trkpt>
      <trkpt lat="43.92578" lon="7.17656">
        <ele>370.20001220703</ele>
        <time>2020-05-27T07:35:59.000Z</time>
      </trkpt>
      <trkpt lat="43.92565" lon="7.17659">
        <ele>371.39999389648</ele>
        <time>2020-05-27T07:36:06.000Z</time>
      </trkpt>
      <trkpt lat="43.92559" lon="7.17659">
        <ele>372</ele>
        <time>2020-05-27T07:36:09.000Z</time>
      </trkpt>
      <trkpt lat="43.92554" lon="7.17661">
        <ele>372.60000610352</ele>
        <time>2020-05-27T07:36:12.000Z</time>
      </trkpt>
      <trkpt lat="43.92549" lon="7.17662">
        <ele>373.20001220703</ele>
        <time>2020-05-27T07:36:15.000Z</time>
      </trkpt>
      <trkpt lat="43.92543" lon="7.17664">
        <ele>373.79998779297</ele>
        <time>2020-05-27T07:36:19.000Z</time>
      </trkpt>
      <trkpt lat="43.92532" lon="7.17671">
        <ele>374.60000610352</ele>
        <time>2020-05-27T07:36:26.000Z</time>
      </trkpt>
      <trkpt lat="43.92529" lon="7.17673">
        <ele>375</ele>
        <time>2020-05-27T07:36:28.000Z</time>
      </trkpt>
      <trkpt lat="43.9252" lon="7.17681">
        <ele>376</ele>
        <time>2020-05-27T07:36:34.000Z</time>
      </trkpt>
      <trkpt lat="43.92512" lon="7.1769">
        <ele>377</ele>
        <time>2020-05-27T07:36:40.000Z</time>
      </trkpt>
      <trkpt lat="43.92507" lon="7.17694">
        <ele>377.39999389648</ele>
        <time>2020-05-27T07:36:43.000Z</time>
      </trkpt>
      <trkpt lat="43.92502" lon="7.177">
        <ele>378</ele>
        <time>2020-05-27T07:36:47.000Z</time>
      </trkpt>
      <trkpt lat="43.92495" lon="7.17707">
        <ele>378.79998779297</ele>
        <time>2020-05-27T07:36:52.000Z</time>
      </trkpt>
      <trkpt lat="43.92493" lon="7.1771">
        <ele>379.20001220703</ele>
        <time>2020-05-27T07:36:54.000Z</time>
      </trkpt>
      <trkpt lat="43.92486" lon="7.17719">
        <ele>380.39999389648</ele>
        <time>2020-05-27T07:37:00.000Z</time>
      </trkpt>
      <trkpt lat="43.92476" lon="7.17732">
        <ele>381.39999389648</ele>
        <time>2020-05-27T07:37:08.000Z</time>
      </trkpt>
      <trkpt lat="43.92472" lon="7.17739">
        <ele>382.39999389648</ele>
        <time>2020-05-27T07:37:12.000Z</time>
      </trkpt>
      <trkpt lat="43.92467" lon="7.17745">
        <ele>383</ele>
        <time>2020-05-27T07:37:16.000Z</time>
      </trkpt>
      <trkpt lat="43.92465" lon="7.17748">
        <ele>383.60000610352</ele>
        <time>2020-05-27T07:37:18.000Z</time>
      </trkpt>
      <trkpt lat="43.92459" lon="7.17756">
        <ele>384.39999389648</ele>
        <time>2020-05-27T07:37:23.000Z</time>
      </trkpt>
      <trkpt lat="43.92458" lon="7.17757">
        <ele>384.60000610352</ele>
        <time>2020-05-27T07:37:24.000Z</time>
      </trkpt>
      <trkpt lat="43.92453" lon="7.17769">
        <ele>385</ele>
        <time>2020-05-27T07:37:29.000Z</time>
      </trkpt>
      <trkpt lat="43.92452" lon="7.17776">
        <ele>385.79998779297</ele>
        <time>2020-05-27T07:37:32.000Z</time>
      </trkpt>
      <trkpt lat="43.9245" lon="7.17789">
        <ele>387</ele>
        <time>2020-05-27T07:37:37.000Z</time>
      </trkpt>
      <trkpt lat="43.92448" lon="7.17806">
        <ele>388</ele>
        <time>2020-05-27T07:37:44.000Z</time>
      </trkpt>
      <trkpt lat="43.92447" lon="7.1781">
        <ele>388.39999389648</ele>
        <time>2020-05-27T07:37:46.000Z</time>
      </trkpt>
      <trkpt lat="43.92447" lon="7.17821">
        <ele>389</ele>
        <time>2020-05-27T07:37:50.000Z</time>
      </trkpt>
      <trkpt lat="43.92447" lon="7.1783">
        <ele>389.60000610352</ele>
        <time>2020-05-27T07:37:54.000Z</time>
      </trkpt>
      <trkpt lat="43.92446" lon="7.1784">
        <ele>390</ele>
        <time>2020-05-27T07:37:58.000Z</time>
      </trkpt>
      <trkpt lat="43.92446" lon="7.17844">
        <ele>390.39999389648</ele>
        <time>2020-05-27T07:38:00.000Z</time>
      </trkpt>
      <trkpt lat="43.92445" lon="7.17855">
        <ele>391.20001220703</ele>
        <time>2020-05-27T07:38:04.000Z</time>
      </trkpt>
      <trkpt lat="43.92444" lon="7.17865">
        <ele>391.79998779297</ele>
        <time>2020-05-27T07:38:08.000Z</time>
      </trkpt>
      <trkpt lat="43.92444" lon="7.17875">
        <ele>392.39999389648</ele>
        <time>2020-05-27T07:38:12.000Z</time>
      </trkpt>
      <trkpt lat="43.92446" lon="7.17889">
        <ele>393.60000610352</ele>
        <time>2020-05-27T07:38:18.000Z</time>
      </trkpt>
      <trkpt lat="43.92447" lon="7.17907">
        <ele>394.60000610352</ele>
        <time>2020-05-27T07:38:25.000Z</time>
      </trkpt>
      <trkpt lat="43.92448" lon="7.17916">
        <ele>395.20001220703</ele>
        <time>2020-05-27T07:38:29.000Z</time>
      </trkpt>
      <trkpt lat="43.92449" lon="7.17927">
        <ele>395.79998779297</ele>
        <time>2020-05-27T07:38:33.000Z</time>
      </trkpt>
      <trkpt lat="43.92446" lon="7.1794">
        <ele>396.39999389648</ele>
        <time>2020-05-27T07:38:38.000Z</time>
      </trkpt>
      <trkpt lat="43.92444" lon="7.17943">
        <ele>396.60000610352</ele>
        <time>2020-05-27T07:38:40.000Z</time>
      </trkpt>
      <trkpt lat="43.9244" lon="7.17941">
        <ele>396.79998779297</ele>
        <time>2020-05-27T07:38:42.000Z</time>
      </trkpt>
      <trkpt lat="43.92439" lon="7.1794">
        <ele>397.20001220703</ele>
        <time>2020-05-27T07:38:43.000Z</time>
      </trkpt>
      <trkpt lat="43.92438" lon="7.17931">
        <ele>397.79998779297</ele>
        <time>2020-05-27T07:38:47.000Z</time>
      </trkpt>
      <trkpt lat="43.92438" lon="7.17929">
        <ele>398</ele>
        <time>2020-05-27T07:38:48.000Z</time>
      </trkpt>
      <trkpt lat="43.92438" lon="7.17924">
        <ele>398.39999389648</ele>
        <time>2020-05-27T07:38:50.000Z</time>
      </trkpt>
      <trkpt lat="43.92439" lon="7.17917">
        <ele>399</ele>
        <time>2020-05-27T07:38:53.000Z</time>
      </trkpt>
      <trkpt lat="43.92439" lon="7.17915">
        <ele>399</ele>
        <time>2020-05-27T07:38:54.000Z</time>
      </trkpt>
      <trkpt lat="43.92437" lon="7.17904">
        <ele>400</ele>
        <time>2020-05-27T07:38:59.000Z</time>
      </trkpt>
      <trkpt lat="43.92437" lon="7.17902">
        <ele>400</ele>
        <time>2020-05-27T07:39:00.000Z</time>
      </trkpt>
      <trkpt lat="43.92431" lon="7.17887">
        <ele>400.79998779297</ele>
        <time>2020-05-27T07:39:07.000Z</time>
      </trkpt>
      <trkpt lat="43.92431" lon="7.17884">
        <ele>401</ele>
        <time>2020-05-27T07:39:08.000Z</time>
      </trkpt>
      <trkpt lat="43.92426" lon="7.17869">
        <ele>402</ele>
        <time>2020-05-27T07:39:15.000Z</time>
      </trkpt>
      <trkpt lat="43.92425" lon="7.17865">
        <ele>402.60000610352</ele>
        <time>2020-05-27T07:39:17.000Z</time>
      </trkpt>
      <trkpt lat="43.92424" lon="7.17858">
        <ele>403.20001220703</ele>
        <time>2020-05-27T07:39:20.000Z</time>
      </trkpt>
      <trkpt lat="43.92423" lon="7.17849">
        <ele>404</ele>
        <time>2020-05-27T07:39:24.000Z</time>
      </trkpt>
      <trkpt lat="43.92422" lon="7.17846">
        <ele>404.20001220703</ele>
        <time>2020-05-27T07:39:26.000Z</time>
      </trkpt>
      <trkpt lat="43.9242" lon="7.17835">
        <ele>405</ele>
        <time>2020-05-27T07:39:31.000Z</time>
      </trkpt>
      <trkpt lat="43.92419" lon="7.17831">
        <ele>405.39999389648</ele>
        <time>2020-05-27T07:39:33.000Z</time>
      </trkpt>
      <trkpt lat="43.92415" lon="7.17819">
        <ele>406.39999389648</ele>
        <time>2020-05-27T07:39:39.000Z</time>
      </trkpt>
      <trkpt lat="43.92414" lon="7.17816">
        <ele>406.60000610352</ele>
        <time>2020-05-27T07:39:40.000Z</time>
      </trkpt>
      <trkpt lat="43.92409" lon="7.17804">
        <ele>407.60000610352</ele>
        <time>2020-05-27T07:39:46.000Z</time>
      </trkpt>
      <trkpt lat="43.92408" lon="7.178">
        <ele>408</ele>
        <time>2020-05-27T07:39:48.000Z</time>
      </trkpt>
      <trkpt lat="43.92405" lon="7.17792">
        <ele>408.60000610352</ele>
        <time>2020-05-27T07:39:52.000Z</time>
      </trkpt>
      <trkpt lat="43.92403" lon="7.17786">
        <ele>409.20001220703</ele>
        <time>2020-05-27T07:39:55.000Z</time>
      </trkpt>
      <trkpt lat="43.924" lon="7.1778">
        <ele>409.79998779297</ele>
        <time>2020-05-27T07:39:58.000Z</time>
      </trkpt>
      <trkpt lat="43.92396" lon="7.17771">
        <ele>410.79998779297</ele>
        <time>2020-05-27T07:40:03.000Z</time>
      </trkpt>
      <trkpt lat="43.9239" lon="7.17757">
        <ele>412</ele>
        <time>2020-05-27T07:40:10.000Z</time>
      </trkpt>
      <trkpt lat="43.9239" lon="7.17754">
        <ele>412.20001220703</ele>
        <time>2020-05-27T07:40:11.000Z</time>
      </trkpt>
      <trkpt lat="43.92389" lon="7.17738">
        <ele>413</ele>
        <time>2020-05-27T07:40:18.000Z</time>
      </trkpt>
      <trkpt lat="43.92392" lon="7.17728">
        <ele>413.79998779297</ele>
        <time>2020-05-27T07:40:23.000Z</time>
      </trkpt>
      <trkpt lat="43.92392" lon="7.17726">
        <ele>414</ele>
        <time>2020-05-27T07:40:24.000Z</time>
      </trkpt>
      <trkpt lat="43.92397" lon="7.17717">
        <ele>414.79998779297</ele>
        <time>2020-05-27T07:40:29.000Z</time>
      </trkpt>
      <trkpt lat="43.92398" lon="7.17715">
        <ele>415.20001220703</ele>
        <time>2020-05-27T07:40:30.000Z</time>
      </trkpt>
      <trkpt lat="43.92404" lon="7.17708">
        <ele>416.20001220703</ele>
        <time>2020-05-27T07:40:35.000Z</time>
      </trkpt>
      <trkpt lat="43.9241" lon="7.177">
        <ele>417.20001220703</ele>
        <time>2020-05-27T07:40:40.000Z</time>
      </trkpt>
      <trkpt lat="43.92412" lon="7.17698">
        <ele>417.79998779297</ele>
        <time>2020-05-27T07:40:42.000Z</time>
      </trkpt>
      <trkpt lat="43.92415" lon="7.17693">
        <ele>418.39999389648</ele>
        <time>2020-05-27T07:40:45.000Z</time>
      </trkpt>
      <trkpt lat="43.92421" lon="7.17684">
        <ele>419.20001220703</ele>
        <time>2020-05-27T07:40:51.000Z</time>
      </trkpt>
      <trkpt lat="43.92423" lon="7.1768">
        <ele>419.39999389648</ele>
        <time>2020-05-27T07:40:53.000Z</time>
      </trkpt>
      <trkpt lat="43.9243" lon="7.1767">
        <ele>420.60000610352</ele>
        <time>2020-05-27T07:41:00.000Z</time>
      </trkpt>
      <trkpt lat="43.92431" lon="7.17667">
        <ele>420.79998779297</ele>
        <time>2020-05-27T07:41:02.000Z</time>
      </trkpt>
      <trkpt lat="43.92434" lon="7.17659">
        <ele>421.39999389648</ele>
        <time>2020-05-27T07:41:07.000Z</time>
      </trkpt>
      <trkpt lat="43.92432" lon="7.17656">
        <ele>421.60000610352</ele>
        <time>2020-05-27T07:41:09.000Z</time>
      </trkpt>
      <trkpt lat="43.92423" lon="7.17654">
        <ele>422</ele>
        <time>2020-05-27T07:41:15.000Z</time>
      </trkpt>
      <trkpt lat="43.92416" lon="7.17656">
        <ele>422.60000610352</ele>
        <time>2020-05-27T07:41:20.000Z</time>
      </trkpt>
      <trkpt lat="43.92414" lon="7.17658">
        <ele>422.79998779297</ele>
        <time>2020-05-27T07:41:21.000Z</time>
      </trkpt>
      <trkpt lat="43.92409" lon="7.17662">
        <ele>423</ele>
        <time>2020-05-27T07:41:24.000Z</time>
      </trkpt>
      <trkpt lat="43.92404" lon="7.17665">
        <ele>423.20001220703</ele>
        <time>2020-05-27T07:41:27.000Z</time>
      </trkpt>
      <trkpt lat="43.92394" lon="7.17663">
        <ele>423.20001220703</ele>
        <time>2020-05-27T07:41:32.000Z</time>
      </trkpt>
      <trkpt lat="43.9239" lon="7.17658">
        <ele>423.60000610352</ele>
        <time>2020-05-27T07:41:35.000Z</time>
      </trkpt>
      <trkpt lat="43.92388" lon="7.17652">
        <ele>424.39999389648</ele>
        <time>2020-05-27T07:41:38.000Z</time>
      </trkpt>
      <trkpt lat="43.92388" lon="7.17648">
        <ele>424.79998779297</ele>
        <time>2020-05-27T07:41:40.000Z</time>
      </trkpt>
      <trkpt lat="43.92385" lon="7.17637">
        <ele>425.60000610352</ele>
        <time>2020-05-27T07:41:45.000Z</time>
      </trkpt>
      <trkpt lat="43.92385" lon="7.17635">
        <ele>425.60000610352</ele>
        <time>2020-05-27T07:41:46.000Z</time>
      </trkpt>
      <trkpt lat="43.92384" lon="7.17633">
        <ele>425.79998779297</ele>
        <time>2020-05-27T07:41:47.000Z</time>
      </trkpt>
      <trkpt lat="43.92383" lon="7.17623">
        <ele>426.39999389648</ele>
        <time>2020-05-27T07:41:52.000Z</time>
      </trkpt>
      <trkpt lat="43.92381" lon="7.17616">
        <ele>427</ele>
        <time>2020-05-27T07:41:55.000Z</time>
      </trkpt>
      <trkpt lat="43.9238" lon="7.17606">
        <ele>427.60000610352</ele>
        <time>2020-05-27T07:41:59.000Z</time>
      </trkpt>
      <trkpt lat="43.92379" lon="7.17597">
        <ele>428.20001220703</ele>
        <time>2020-05-27T07:42:03.000Z</time>
      </trkpt>
      <trkpt lat="43.92378" lon="7.17593">
        <ele>428.20001220703</ele>
        <time>2020-05-27T07:42:05.000Z</time>
      </trkpt>
      <trkpt lat="43.92375" lon="7.17581">
        <ele>429.20001220703</ele>
        <time>2020-05-27T07:42:10.000Z</time>
      </trkpt>
      <trkpt lat="43.92375" lon="7.17578">
        <ele>429.20001220703</ele>
        <time>2020-05-27T07:42:11.000Z</time>
      </trkpt>
      <trkpt lat="43.92374" lon="7.17576">
        <ele>429.39999389648</ele>
        <time>2020-05-27T07:42:12.000Z</time>
      </trkpt>
      <trkpt lat="43.92371" lon="7.17569">
        <ele>429.79998779297</ele>
        <time>2020-05-27T07:42:15.000Z</time>
      </trkpt>
      <trkpt lat="43.92371" lon="7.17567">
        <ele>430</ele>
        <time>2020-05-27T07:42:16.000Z</time>
      </trkpt>
      <trkpt lat="43.9237" lon="7.17565">
        <ele>430.20001220703</ele>
        <time>2020-05-27T07:42:17.000Z</time>
      </trkpt>
      <trkpt lat="43.92367" lon="7.17547">
        <ele>431.20001220703</ele>
        <time>2020-05-27T07:42:24.000Z</time>
      </trkpt>
      <trkpt lat="43.92365" lon="7.17531">
        <ele>432.20001220703</ele>
        <time>2020-05-27T07:42:31.000Z</time>
      </trkpt>
      <trkpt lat="43.92365" lon="7.17528">
        <ele>432.39999389648</ele>
        <time>2020-05-27T07:42:32.000Z</time>
      </trkpt>
      <trkpt lat="43.92365" lon="7.17517">
        <ele>433</ele>
        <time>2020-05-27T07:42:37.000Z</time>
      </trkpt>
      <trkpt lat="43.92364" lon="7.17513">
        <ele>433.39999389648</ele>
        <time>2020-05-27T07:42:39.000Z</time>
      </trkpt>
      <trkpt lat="43.92365" lon="7.17499">
        <ele>434.60000610352</ele>
        <time>2020-05-27T07:42:45.000Z</time>
      </trkpt>
      <trkpt lat="43.9237" lon="7.17483">
        <ele>435.20001220703</ele>
        <time>2020-05-27T07:42:52.000Z</time>
      </trkpt>
      <trkpt lat="43.92374" lon="7.17477">
        <ele>435.60000610352</ele>
        <time>2020-05-27T07:42:55.000Z</time>
      </trkpt>
      <trkpt lat="43.9238" lon="7.17468">
        <ele>436.20001220703</ele>
        <time>2020-05-27T07:43:00.000Z</time>
      </trkpt>
      <trkpt lat="43.92386" lon="7.17462">
        <ele>436.60000610352</ele>
        <time>2020-05-27T07:43:04.000Z</time>
      </trkpt>
      <trkpt lat="43.92393" lon="7.17458">
        <ele>437.39999389648</ele>
        <time>2020-05-27T07:43:08.000Z</time>
      </trkpt>
      <trkpt lat="43.92395" lon="7.17457">
        <ele>437.79998779297</ele>
        <time>2020-05-27T07:43:09.000Z</time>
      </trkpt>
      <trkpt lat="43.92403" lon="7.17453">
        <ele>438.20001220703</ele>
        <time>2020-05-27T07:43:14.000Z</time>
      </trkpt>
      <trkpt lat="43.92407" lon="7.17452">
        <ele>438.79998779297</ele>
        <time>2020-05-27T07:43:16.000Z</time>
      </trkpt>
      <trkpt lat="43.92419" lon="7.17448">
        <ele>439.79998779297</ele>
        <time>2020-05-27T07:43:22.000Z</time>
      </trkpt>
      <trkpt lat="43.92421" lon="7.17447">
        <ele>440</ele>
        <time>2020-05-27T07:43:23.000Z</time>
      </trkpt>
      <trkpt lat="43.92433" lon="7.17443">
        <ele>441</ele>
        <time>2020-05-27T07:43:30.000Z</time>
      </trkpt>
      <trkpt lat="43.92439" lon="7.1744">
        <ele>441.60000610352</ele>
        <time>2020-05-27T07:43:33.000Z</time>
      </trkpt>
      <trkpt lat="43.92447" lon="7.17436">
        <ele>442.20001220703</ele>
        <time>2020-05-27T07:43:38.000Z</time>
      </trkpt>
      <trkpt lat="43.92453" lon="7.17433">
        <ele>442.60000610352</ele>
        <time>2020-05-27T07:43:41.000Z</time>
      </trkpt>
      <trkpt lat="43.92462" lon="7.17428">
        <ele>443.20001220703</ele>
        <time>2020-05-27T07:43:46.000Z</time>
      </trkpt>
      <trkpt lat="43.92465" lon="7.17427">
        <ele>443.60000610352</ele>
        <time>2020-05-27T07:43:48.000Z</time>
      </trkpt>
      <trkpt lat="43.92477" lon="7.17423">
        <ele>444.20001220703</ele>
        <time>2020-05-27T07:43:54.000Z</time>
      </trkpt>
      <trkpt lat="43.92482" lon="7.17423">
        <ele>444.60000610352</ele>
        <time>2020-05-27T07:43:57.000Z</time>
      </trkpt>
      <trkpt lat="43.92496" lon="7.17425">
        <ele>445.39999389648</ele>
        <time>2020-05-27T07:44:05.000Z</time>
      </trkpt>
      <trkpt lat="43.92502" lon="7.17425">
        <ele>445.79998779297</ele>
        <time>2020-05-27T07:44:08.000Z</time>
      </trkpt>
      <trkpt lat="43.92511" lon="7.17426">
        <ele>446.39999389648</ele>
        <time>2020-05-27T07:44:13.000Z</time>
      </trkpt>
      <trkpt lat="43.92518" lon="7.17427">
        <ele>447</ele>
        <time>2020-05-27T07:44:17.000Z</time>
      </trkpt>
      <trkpt lat="43.92526" lon="7.17428">
        <ele>447.60000610352</ele>
        <time>2020-05-27T07:44:21.000Z</time>
      </trkpt>
      <trkpt lat="43.92533" lon="7.17429">
        <ele>448</ele>
        <time>2020-05-27T07:44:25.000Z</time>
      </trkpt>
      <trkpt lat="43.92542" lon="7.17431">
        <ele>448.60000610352</ele>
        <time>2020-05-27T07:44:30.000Z</time>
      </trkpt>
      <trkpt lat="43.92546" lon="7.17431">
        <ele>448.79998779297</ele>
        <time>2020-05-27T07:44:32.000Z</time>
      </trkpt>
      <trkpt lat="43.92558" lon="7.17435">
        <ele>449.79998779297</ele>
        <time>2020-05-27T07:44:39.000Z</time>
      </trkpt>
      <trkpt lat="43.9256" lon="7.17436">
        <ele>449.79998779297</ele>
        <time>2020-05-27T07:44:40.000Z</time>
      </trkpt>
      <trkpt lat="43.92571" lon="7.17441">
        <ele>450.79998779297</ele>
        <time>2020-05-27T07:44:46.000Z</time>
      </trkpt>
      <trkpt lat="43.92575" lon="7.17443">
        <ele>451.20001220703</ele>
        <time>2020-05-27T07:44:49.000Z</time>
      </trkpt>
      <trkpt lat="43.92579" lon="7.17444">
        <ele>451.79998779297</ele>
        <time>2020-05-27T07:44:52.000Z</time>
      </trkpt>
      <trkpt lat="43.92584" lon="7.17442">
        <ele>452.39999389648</ele>
        <time>2020-05-27T07:44:56.000Z</time>
      </trkpt>
      <trkpt lat="43.92584" lon="7.1744">
        <ele>452.60000610352</ele>
        <time>2020-05-27T07:44:57.000Z</time>
      </trkpt>
      <trkpt lat="43.92584" lon="7.17437">
        <ele>452.79998779297</ele>
        <time>2020-05-27T07:44:59.000Z</time>
      </trkpt>
      <trkpt lat="43.9258" lon="7.17435">
        <ele>453.20001220703</ele>
        <time>2020-05-27T07:45:02.000Z</time>
      </trkpt>
      <trkpt lat="43.92578" lon="7.17434">
        <ele>453.39999389648</ele>
        <time>2020-05-27T07:45:03.000Z</time>
      </trkpt>
      <trkpt lat="43.92566" lon="7.1743">
        <ele>453.79998779297</ele>
        <time>2020-05-27T07:45:10.000Z</time>
      </trkpt>
      <trkpt lat="43.92564" lon="7.17429">
        <ele>454</ele>
        <time>2020-05-27T07:45:11.000Z</time>
      </trkpt>
      <trkpt lat="43.92553" lon="7.17422">
        <ele>454.39999389648</ele>
        <time>2020-05-27T07:45:17.000Z</time>
      </trkpt>
      <trkpt lat="43.92545" lon="7.17416">
        <ele>455</ele>
        <time>2020-05-27T07:45:22.000Z</time>
      </trkpt>
      <trkpt lat="43.92539" lon="7.17412">
        <ele>455.60000610352</ele>
        <time>2020-05-27T07:45:26.000Z</time>
      </trkpt>
      <trkpt lat="43.92531" lon="7.17407">
        <ele>456.20001220703</ele>
        <time>2020-05-27T07:45:31.000Z</time>
      </trkpt>
      <trkpt lat="43.92528" lon="7.17406">
        <ele>456.39999389648</ele>
        <time>2020-05-27T07:45:33.000Z</time>
      </trkpt>
      <trkpt lat="43.92519" lon="7.174">
        <ele>457.20001220703</ele>
        <time>2020-05-27T07:45:39.000Z</time>
      </trkpt>
      <trkpt lat="43.92515" lon="7.17397">
        <ele>458</ele>
        <time>2020-05-27T07:45:42.000Z</time>
      </trkpt>
      <trkpt lat="43.92511" lon="7.17394">
        <ele>458.39999389648</ele>
        <time>2020-05-27T07:45:45.000Z</time>
      </trkpt>
      <trkpt lat="43.92504" lon="7.17388">
        <ele>459.20001220703</ele>
        <time>2020-05-27T07:45:51.000Z</time>
      </trkpt>
      <trkpt lat="43.92502" lon="7.17387">
        <ele>459.39999389648</ele>
        <time>2020-05-27T07:45:52.000Z</time>
      </trkpt>
      <trkpt lat="43.92495" lon="7.17381">
        <ele>460.39999389648</ele>
        <time>2020-05-27T07:45:58.000Z</time>
      </trkpt>
      <trkpt lat="43.92494" lon="7.1738">
        <ele>460.39999389648</ele>
        <time>2020-05-27T07:45:59.000Z</time>
      </trkpt>
      <trkpt lat="43.92487" lon="7.17369">
        <ele>461.60000610352</ele>
        <time>2020-05-27T07:46:06.000Z</time>
      </trkpt>
      <trkpt lat="43.92486" lon="7.17368">
        <ele>461.79998779297</ele>
        <time>2020-05-27T07:46:07.000Z</time>
      </trkpt>
      <trkpt lat="43.92479" lon="7.17358">
        <ele>462.79998779297</ele>
        <time>2020-05-27T07:46:14.000Z</time>
      </trkpt>
      <trkpt lat="43.92473" lon="7.17353">
        <ele>463.39999389648</ele>
        <time>2020-05-27T07:46:18.000Z</time>
      </trkpt>
      <trkpt lat="43.92469" lon="7.1735">
        <ele>463.79998779297</ele>
        <time>2020-05-27T07:46:21.000Z</time>
      </trkpt>
      <trkpt lat="43.92461" lon="7.17348">
        <ele>464.60000610352</ele>
        <time>2020-05-27T07:46:26.000Z</time>
      </trkpt>
      <trkpt lat="43.92457" lon="7.17348">
        <ele>464.79998779297</ele>
        <time>2020-05-27T07:46:28.000Z</time>
      </trkpt>
      <trkpt lat="43.92447" lon="7.1735">
        <ele>465.79998779297</ele>
        <time>2020-05-27T07:46:34.000Z</time>
      </trkpt>
      <trkpt lat="43.92444" lon="7.17351">
        <ele>466</ele>
        <time>2020-05-27T07:46:36.000Z</time>
      </trkpt>
      <trkpt lat="43.9243" lon="7.17355">
        <ele>467.20001220703</ele>
        <time>2020-05-27T07:46:45.000Z</time>
      </trkpt>
      <trkpt lat="43.92414" lon="7.17355">
        <ele>468.20001220703</ele>
        <time>2020-05-27T07:46:54.000Z</time>
      </trkpt>
      <trkpt lat="43.92412" lon="7.17355">
        <ele>468.39999389648</ele>
        <time>2020-05-27T07:46:55.000Z</time>
      </trkpt>
      <trkpt lat="43.92403" lon="7.17353">
        <ele>469.20001220703</ele>
        <time>2020-05-27T07:47:01.000Z</time>
      </trkpt>
      <trkpt lat="43.924" lon="7.17353">
        <ele>469.39999389648</ele>
        <time>2020-05-27T07:47:03.000Z</time>
      </trkpt>
      <trkpt lat="43.92391" lon="7.17351">
        <ele>470.20001220703</ele>
        <time>2020-05-27T07:47:09.000Z</time>
      </trkpt>
      <trkpt lat="43.92388" lon="7.17351">
        <ele>470.60000610352</ele>
        <time>2020-05-27T07:47:11.000Z</time>
      </trkpt>
      <trkpt lat="43.9238" lon="7.1735">
        <ele>471.39999389648</ele>
        <time>2020-05-27T07:47:16.000Z</time>
      </trkpt>
      <trkpt lat="43.92371" lon="7.17351">
        <ele>472.39999389648</ele>
        <time>2020-05-27T07:47:22.000Z</time>
      </trkpt>
      <trkpt lat="43.92358" lon="7.17352">
        <ele>473.60000610352</ele>
        <time>2020-05-27T07:47:31.000Z</time>
      </trkpt>
      <trkpt lat="43.92357" lon="7.17352">
        <ele>473.79998779297</ele>
        <time>2020-05-27T07:47:32.000Z</time>
      </trkpt>
      <trkpt lat="43.92348" lon="7.17355">
        <ele>474.60000610352</ele>
        <time>2020-05-27T07:47:38.000Z</time>
      </trkpt>
      <trkpt lat="43.92346" lon="7.17355">
        <ele>474.79998779297</ele>
        <time>2020-05-27T07:47:39.000Z</time>
      </trkpt>
      <trkpt lat="43.92338" lon="7.17355">
        <ele>475.39999389648</ele>
        <time>2020-05-27T07:47:44.000Z</time>
      </trkpt>
      <trkpt lat="43.92334" lon="7.17345">
        <ele>475.79998779297</ele>
        <time>2020-05-27T07:47:49.000Z</time>
      </trkpt>
      <trkpt lat="43.92334" lon="7.17326">
        <ele>476.20001220703</ele>
        <time>2020-05-27T07:47:56.000Z</time>
      </trkpt>
      <trkpt lat="43.9233" lon="7.1731">
        <ele>477</ele>
        <time>2020-05-27T07:48:03.000Z</time>
      </trkpt>
      <trkpt lat="43.92322" lon="7.17291">
        <ele>477.39999389648</ele>
        <time>2020-05-27T07:48:11.000Z</time>
      </trkpt>
      <trkpt lat="43.92315" lon="7.1727">
        <ele>478</ele>
        <time>2020-05-27T07:48:19.000Z</time>
      </trkpt>
      <trkpt lat="43.92309" lon="7.17252">
        <ele>478</ele>
        <time>2020-05-27T07:48:27.000Z</time>
      </trkpt>
      <trkpt lat="43.92304" lon="7.17237">
        <ele>478.39999389648</ele>
        <time>2020-05-27T07:48:34.000Z</time>
      </trkpt>
      <trkpt lat="43.92303" lon="7.17229">
        <ele>478.60000610352</ele>
        <time>2020-05-27T07:48:40.000Z</time>
      </trkpt>
      <trkpt lat="43.92303" lon="7.17227">
        <ele>478.39999389648</ele>
        <time>2020-05-27T07:48:47.000Z</time>
      </trkpt>
      <trkpt lat="43.92304" lon="7.17227">
        <ele>478.39999389648</ele>
        <time>2020-05-27T07:48:52.000Z</time>
      </trkpt>
      <trkpt lat="43.92303" lon="7.17227">
        <ele>478.60000610352</ele>
        <time>2020-05-27T07:48:58.000Z</time>
      </trkpt>
      <trkpt lat="43.92303" lon="7.17226">
        <ele>478.60000610352</ele>
        <time>2020-05-27T07:49:16.000Z</time>
      </trkpt>
      <trkpt lat="43.92303" lon="7.17226">
        <ele>476.60000610352</ele>
        <time>2020-05-27T07:49:25.000Z</time>
      </trkpt>
      <trkpt lat="43.92303" lon="7.17226">
        <ele>474.39999389648</ele>
        <time>2020-05-27T07:49:26.000Z</time>
      </trkpt>
      <trkpt lat="43.92303" lon="7.17226">
        <ele>471.39999389648</ele>
        <time>2020-05-27T07:49:27.000Z</time>
      </trkpt>
      <trkpt lat="43.92303" lon="7.17226">
        <ele>468</ele>
        <time>2020-05-27T07:49:28.000Z</time>
      </trkpt>
      <trkpt lat="43.92303" lon="7.17226">
        <ele>465.39999389648</ele>
        <time>2020-05-27T07:49:29.000Z</time>
      </trkpt>
      <trkpt lat="43.92303" lon="7.17226">
        <ele>463.39999389648</ele>
        <time>2020-05-27T07:49:30.000Z</time>
      </trkpt>
      <trkpt lat="43.92303" lon="7.17226">
        <ele>462</ele>
        <time>2020-05-27T07:49:31.000Z</time>
      </trkpt>
      <trkpt lat="43.92303" lon="7.17226">
        <ele>461.60000610352</ele>
        <time>2020-05-27T07:49:37.000Z</time>
      </trkpt>
      <trkpt lat="43.92303" lon="7.17227">
        <ele>461.79998779297</ele>
        <time>2020-05-27T07:49:47.000Z</time>
      </trkpt>
      <trkpt lat="43.92304" lon="7.17226">
        <ele>461.79998779297</ele>
        <time>2020-05-27T07:50:04.000Z</time>
      </trkpt>
      <trkpt lat="43.92304" lon="7.17226">
        <ele>460.79998779297</ele>
        <time>2020-05-27T07:50:17.000Z</time>
      </trkpt>
      <trkpt lat="43.92304" lon="7.17226">
        <ele>461</ele>
        <time>2020-05-27T07:50:19.000Z</time>
      </trkpt>
      <trkpt lat="43.92304" lon="7.17226">
        <ele>462</ele>
        <time>2020-05-27T07:50:20.000Z</time>
      </trkpt>
      <trkpt lat="43.92304" lon="7.17227">
        <ele>463.60000610352</ele>
        <time>2020-05-27T07:50:23.000Z</time>
      </trkpt>
      <trkpt lat="43.92304" lon="7.17226">
        <ele>462</ele>
        <time>2020-05-27T07:50:26.000Z</time>
      </trkpt>
      <trkpt lat="43.92304" lon="7.17227">
        <ele>460.60000610352</ele>
        <time>2020-05-27T07:50:28.000Z</time>
      </trkpt>
      <trkpt lat="43.92304" lon="7.17226">
        <ele>459.60000610352</ele>
        <time>2020-05-27T07:50:32.000Z</time>
      </trkpt>
      <trkpt lat="43.92304" lon="7.17226">
        <ele>459.20001220703</ele>
        <time>2020-05-27T07:50:33.000Z</time>
      </trkpt>
      <trkpt lat="43.92304" lon="7.17226">
        <ele>458.60000610352</ele>
        <time>2020-05-27T07:50:34.000Z</time>
      </trkpt>
      <trkpt lat="43.92304" lon="7.17226">
        <ele>457.39999389648</ele>
        <time>2020-05-27T07:50:36.000Z</time>
      </trkpt>
      <trkpt lat="43.92304" lon="7.17227">
        <ele>456</ele>
        <time>2020-05-27T07:50:39.000Z</time>
      </trkpt>
      <trkpt lat="43.92304" lon="7.17227">
        <ele>454.79998779297</ele>
        <time>2020-05-27T07:50:40.000Z</time>
      </trkpt>
      <trkpt lat="43.92304" lon="7.17227">
        <ele>453.60000610352</ele>
        <time>2020-05-27T07:50:41.000Z</time>
      </trkpt>
      <trkpt lat="43.92304" lon="7.17227">
        <ele>452.39999389648</ele>
        <time>2020-05-27T07:50:42.000Z</time>
      </trkpt>
      <trkpt lat="43.92304" lon="7.17227">
        <ele>453.60000610352</ele>
        <time>2020-05-27T07:50:44.000Z</time>
      </trkpt>
      <trkpt lat="43.92304" lon="7.17227">
        <ele>453.60000610352</ele>
        <time>2020-05-27T07:50:46.000Z</time>
      </trkpt>
      <trkpt lat="43.92304" lon="7.17227">
        <ele>453.79998779297</ele>
        <time>2020-05-27T07:50:54.000Z</time>
      </trkpt>
      <trkpt lat="43.92304" lon="7.17227">
        <ele>453.79998779297</ele>
        <time>2020-05-27T07:51:07.000Z</time>
      </trkpt>
      <trkpt lat="43.92303" lon="7.17226">
        <ele>453</ele>
        <time>2020-05-27T07:51:27.000Z</time>
      </trkpt>
      <trkpt lat="43.92303" lon="7.17226">
        <ele>452.39999389648</ele>
        <time>2020-05-27T07:51:28.000Z</time>
      </trkpt>
      <trkpt lat="43.92303" lon="7.17227">
        <ele>452.60000610352</ele>
        <time>2020-05-27T07:51:40.000Z</time>
      </trkpt>
      <trkpt lat="43.92303" lon="7.17227">
        <ele>453.20001220703</ele>
        <time>2020-05-27T07:51:52.000Z</time>
      </trkpt>
      <trkpt lat="43.92303" lon="7.17227">
        <ele>453.60000610352</ele>
        <time>2020-05-27T07:51:58.000Z</time>
      </trkpt>
      <trkpt lat="43.92303" lon="7.17227">
        <ele>453.60000610352</ele>
        <time>2020-05-27T07:51:59.000Z</time>
      </trkpt>
      <trkpt lat="43.92303" lon="7.17227">
        <ele>453.60000610352</ele>
        <time>2020-05-27T07:52:10.000Z</time>
      </trkpt>
      <trkpt lat="43.92303" lon="7.17228">
        <ele>454.60000610352</ele>
        <time>2020-05-27T07:52:29.000Z</time>
      </trkpt>
      <trkpt lat="43.92303" lon="7.17228">
        <ele>454.60000610352</ele>
        <time>2020-05-27T07:52:31.000Z</time>
      </trkpt>
      <trkpt lat="43.92303" lon="7.17228">
        <ele>454.79998779297</ele>
        <time>2020-05-27T07:52:52.000Z</time>
      </trkpt>
      <trkpt lat="43.92303" lon="7.17229">
        <ele>455.79998779297</ele>
        <time>2020-05-27T07:52:59.000Z</time>
      </trkpt>
      <trkpt lat="43.92303" lon="7.17229">
        <ele>460.79998779297</ele>
        <time>2020-05-27T07:53:00.000Z</time>
      </trkpt>
      <trkpt lat="43.92303" lon="7.17229">
        <ele>465.39999389648</ele>
        <time>2020-05-27T07:53:01.000Z</time>
      </trkpt>
      <trkpt lat="43.92303" lon="7.17229">
        <ele>469.20001220703</ele>
        <time>2020-05-27T07:53:02.000Z</time>
      </trkpt>
      <trkpt lat="43.92303" lon="7.17228">
        <ele>471.20001220703</ele>
        <time>2020-05-27T07:53:03.000Z</time>
      </trkpt>
      <trkpt lat="43.92303" lon="7.17229">
        <ele>473.79998779297</ele>
        <time>2020-05-27T07:53:04.000Z</time>
      </trkpt>
      <trkpt lat="43.92303" lon="7.17229">
        <ele>475.60000610352</ele>
        <time>2020-05-27T07:53:05.000Z</time>
      </trkpt>
      <trkpt lat="43.92303" lon="7.17229">
        <ele>476.79998779297</ele>
        <time>2020-05-27T07:53:07.000Z</time>
      </trkpt>
      <trkpt lat="43.92303" lon="7.17228">
        <ele>478.60000610352</ele>
        <time>2020-05-27T07:53:08.000Z</time>
      </trkpt>
      <trkpt lat="43.92303" lon="7.17228">
        <ele>479.79998779297</ele>
        <time>2020-05-27T07:53:09.000Z</time>
      </trkpt>
      <trkpt lat="43.92303" lon="7.17228">
        <ele>478.20001220703</ele>
        <time>2020-05-27T07:53:10.000Z</time>
      </trkpt>
      <trkpt lat="43.92303" lon="7.17228">
        <ele>478.20001220703</ele>
        <time>2020-05-27T07:53:12.000Z</time>
      </trkpt>
      <trkpt lat="43.92302" lon="7.17229">
        <ele>478.20001220703</ele>
        <time>2020-05-27T07:53:24.000Z</time>
      </trkpt>
      <trkpt lat="43.92301" lon="7.17227">
        <ele>477.79998779297</ele>
        <time>2020-05-27T07:53:29.000Z</time>
      </trkpt>
      <trkpt lat="43.92304" lon="7.17217">
        <ele>478.20001220703</ele>
        <time>2020-05-27T07:53:35.000Z</time>
      </trkpt>
      <trkpt lat="43.92315" lon="7.17202">
        <ele>478.39999389648</ele>
        <time>2020-05-27T07:53:42.000Z</time>
      </trkpt>
      <trkpt lat="43.92331" lon="7.17177">
        <ele>478.39999389648</ele>
        <time>2020-05-27T07:53:51.000Z</time>
      </trkpt>
      <trkpt lat="43.92342" lon="7.17155">
        <ele>478</ele>
        <time>2020-05-27T07:53:57.000Z</time>
      </trkpt>
      <trkpt lat="43.92351" lon="7.17131">
        <ele>477</ele>
        <time>2020-05-27T07:54:02.000Z</time>
      </trkpt>
      <trkpt lat="43.92354" lon="7.1712">
        <ele>476.60000610352</ele>
        <time>2020-05-27T07:54:04.000Z</time>
      </trkpt>
      <trkpt lat="43.9236" lon="7.17078">
        <ele>476</ele>
        <time>2020-05-27T07:54:12.000Z</time>
      </trkpt>
      <trkpt lat="43.92361" lon="7.17069">
        <ele>476</ele>
        <time>2020-05-27T07:54:14.000Z</time>
      </trkpt>
      <trkpt lat="43.92358" lon="7.1705">
        <ele>476.39999389648</ele>
        <time>2020-05-27T07:54:19.000Z</time>
      </trkpt>
      <trkpt lat="43.92357" lon="7.17047">
        <ele>476.79998779297</ele>
        <time>2020-05-27T07:54:23.000Z</time>
      </trkpt>
      <trkpt lat="43.92358" lon="7.17043">
        <ele>477.20001220703</ele>
        <time>2020-05-27T07:54:29.000Z</time>
      </trkpt>
      <trkpt lat="43.92358" lon="7.17043">
        <ele>477.20001220703</ele>
        <time>2020-05-27T07:54:35.000Z</time>
      </trkpt>
      <trkpt lat="43.92358" lon="7.17043">
        <ele>477</ele>
        <time>2020-05-27T07:54:41.000Z</time>
      </trkpt>
      <trkpt lat="43.92358" lon="7.17043">
        <ele>477.20001220703</ele>
        <time>2020-05-27T07:54:47.000Z</time>
      </trkpt>
      <trkpt lat="43.92358" lon="7.17042">
        <ele>477.20001220703</ele>
        <time>2020-05-27T07:54:53.000Z</time>
      </trkpt>
      <trkpt lat="43.92358" lon="7.17042">
        <ele>477.20001220703</ele>
        <time>2020-05-27T07:55:04.000Z</time>
      </trkpt>
      <trkpt lat="43.92359" lon="7.17041">
        <ele>477.20001220703</ele>
        <time>2020-05-27T07:55:13.000Z</time>
      </trkpt>
      <trkpt lat="43.92359" lon="7.17042">
        <ele>477</ele>
        <time>2020-05-27T07:55:18.000Z</time>
      </trkpt>
      <trkpt lat="43.92359" lon="7.17042">
        <ele>476.20001220703</ele>
        <time>2020-05-27T07:55:24.000Z</time>
      </trkpt>
      <trkpt lat="43.9236" lon="7.17042">
        <ele>476</ele>
        <time>2020-05-27T07:55:31.000Z</time>
      </trkpt>
      <trkpt lat="43.9236" lon="7.17042">
        <ele>476.20001220703</ele>
        <time>2020-05-27T07:55:38.000Z</time>
      </trkpt>
      <trkpt lat="43.92359" lon="7.17042">
        <ele>476.39999389648</ele>
        <time>2020-05-27T07:55:50.000Z</time>
      </trkpt>
      <trkpt lat="43.9236" lon="7.17042">
        <ele>476.60000610352</ele>
        <time>2020-05-27T07:56:08.000Z</time>
      </trkpt>
      <trkpt lat="43.92361" lon="7.17042">
        <ele>476.39999389648</ele>
        <time>2020-05-27T07:56:26.000Z</time>
      </trkpt>
      <trkpt lat="43.9236" lon="7.17042">
        <ele>476.39999389648</ele>
        <time>2020-05-27T07:56:39.000Z</time>
      </trkpt>
      <trkpt lat="43.9236" lon="7.17042">
        <ele>476.39999389648</ele>
        <time>2020-05-27T07:56:57.000Z</time>
      </trkpt>
      <trkpt lat="43.9236" lon="7.17042">
        <ele>476.79998779297</ele>
        <time>2020-05-27T07:57:07.000Z</time>
      </trkpt>
      <trkpt lat="43.9236" lon="7.17042">
        <ele>476.79998779297</ele>
        <time>2020-05-27T07:57:17.000Z</time>
      </trkpt>
      <trkpt lat="43.92359" lon="7.17039">
        <ele>476.79998779297</ele>
        <time>2020-05-27T07:57:25.000Z</time>
      </trkpt>
      <trkpt lat="43.92359" lon="7.17039">
        <ele>476.79998779297</ele>
        <time>2020-05-27T07:57:30.000Z</time>
      </trkpt>
      <trkpt lat="43.92359" lon="7.1704">
        <ele>476.79998779297</ele>
        <time>2020-05-27T07:57:39.000Z</time>
      </trkpt>
      <trkpt lat="43.92359" lon="7.1704">
        <ele>477.20001220703</ele>
        <time>2020-05-27T07:57:43.000Z</time>
      </trkpt>
      <trkpt lat="43.92359" lon="7.1704">
        <ele>477.39999389648</ele>
        <time>2020-05-27T07:57:46.000Z</time>
      </trkpt>
      <trkpt lat="43.92358" lon="7.17037">
        <ele>477.20001220703</ele>
        <time>2020-05-27T07:57:50.000Z</time>
      </trkpt>
      <trkpt lat="43.9235" lon="7.17023">
        <ele>477.20001220703</ele>
        <time>2020-05-27T07:57:56.000Z</time>
      </trkpt>
      <trkpt lat="43.92343" lon="7.16998">
        <ele>476.79998779297</ele>
        <time>2020-05-27T07:58:02.000Z</time>
      </trkpt>
      <trkpt lat="43.92347" lon="7.16984">
        <ele>476.60000610352</ele>
        <time>2020-05-27T07:58:06.000Z</time>
      </trkpt>
      <trkpt lat="43.92351" lon="7.16977">
        <ele>476.79998779297</ele>
        <time>2020-05-27T07:58:11.000Z</time>
      </trkpt>
      <trkpt lat="43.92359" lon="7.16963">
        <ele>478</ele>
        <time>2020-05-27T07:58:18.000Z</time>
      </trkpt>
      <trkpt lat="43.92362" lon="7.16959">
        <ele>478.20001220703</ele>
        <time>2020-05-27T07:58:20.000Z</time>
      </trkpt>
      <trkpt lat="43.92375" lon="7.16948">
        <ele>479</ele>
        <time>2020-05-27T07:58:27.000Z</time>
      </trkpt>
      <trkpt lat="43.92378" lon="7.16945">
        <ele>479.39999389648</ele>
        <time>2020-05-27T07:58:29.000Z</time>
      </trkpt>
      <trkpt lat="43.92386" lon="7.16938">
        <ele>480.20001220703</ele>
        <time>2020-05-27T07:58:34.000Z</time>
      </trkpt>
      <trkpt lat="43.92388" lon="7.16935">
        <ele>480.39999389648</ele>
        <time>2020-05-27T07:58:36.000Z</time>
      </trkpt>
      <trkpt lat="43.92393" lon="7.16928">
        <ele>481</ele>
        <time>2020-05-27T07:58:40.000Z</time>
      </trkpt>
      <trkpt lat="43.92399" lon="7.16921">
        <ele>481.60000610352</ele>
        <time>2020-05-27T07:58:44.000Z</time>
      </trkpt>
      <trkpt lat="43.92407" lon="7.16913">
        <ele>482.39999389648</ele>
        <time>2020-05-27T07:58:49.000Z</time>
      </trkpt>
      <trkpt lat="43.92408" lon="7.16912">
        <ele>482.60000610352</ele>
        <time>2020-05-27T07:58:50.000Z</time>
      </trkpt>
      <trkpt lat="43.92416" lon="7.16903">
        <ele>483</ele>
        <time>2020-05-27T07:58:55.000Z</time>
      </trkpt>
      <trkpt lat="43.92423" lon="7.16894">
        <ele>483.60000610352</ele>
        <time>2020-05-27T07:59:00.000Z</time>
      </trkpt>
      <trkpt lat="43.92431" lon="7.16883">
        <ele>484.39999389648</ele>
        <time>2020-05-27T07:59:05.000Z</time>
      </trkpt>
      <trkpt lat="43.92434" lon="7.16878">
        <ele>484.79998779297</ele>
        <time>2020-05-27T07:59:07.000Z</time>
      </trkpt>
      <trkpt lat="43.92444" lon="7.16862">
        <ele>485.79998779297</ele>
        <time>2020-05-27T07:59:14.000Z</time>
      </trkpt>
      <trkpt lat="43.92447" lon="7.16857">
        <ele>486.20001220703</ele>
        <time>2020-05-27T07:59:16.000Z</time>
      </trkpt>
      <trkpt lat="43.92452" lon="7.1685">
        <ele>487</ele>
        <time>2020-05-27T07:59:19.000Z</time>
      </trkpt>
      <trkpt lat="43.92458" lon="7.16845">
        <ele>487.60000610352</ele>
        <time>2020-05-27T07:59:23.000Z</time>
      </trkpt>
      <trkpt lat="43.9246" lon="7.16847">
        <ele>487.79998779297</ele>
        <time>2020-05-27T07:59:24.000Z</time>
      </trkpt>
      <trkpt lat="43.9246" lon="7.16852">
        <ele>488.20001220703</ele>
        <time>2020-05-27T07:59:26.000Z</time>
      </trkpt>
      <trkpt lat="43.92459" lon="7.16855">
        <ele>488.20001220703</ele>
        <time>2020-05-27T07:59:27.000Z</time>
      </trkpt>
      <trkpt lat="43.92453" lon="7.16864">
        <ele>488.79998779297</ele>
        <time>2020-05-27T07:59:31.000Z</time>
      </trkpt>
      <trkpt lat="43.9245" lon="7.16868">
        <ele>489</ele>
        <time>2020-05-27T07:59:33.000Z</time>
      </trkpt>
      <trkpt lat="43.92445" lon="7.16875">
        <ele>489.20001220703</ele>
        <time>2020-05-27T07:59:36.000Z</time>
      </trkpt>
      <trkpt lat="43.92439" lon="7.16891">
        <ele>490.20001220703</ele>
        <time>2020-05-27T07:59:42.000Z</time>
      </trkpt>
      <trkpt lat="43.92438" lon="7.16893">
        <ele>490.39999389648</ele>
        <time>2020-05-27T07:59:43.000Z</time>
      </trkpt>
      <trkpt lat="43.92434" lon="7.16907">
        <ele>491.39999389648</ele>
        <time>2020-05-27T07:59:48.000Z</time>
      </trkpt>
      <trkpt lat="43.92432" lon="7.1691">
        <ele>491.60000610352</ele>
        <time>2020-05-27T07:59:49.000Z</time>
      </trkpt>
      <trkpt lat="43.92426" lon="7.16919">
        <ele>492.60000610352</ele>
        <time>2020-05-27T07:59:53.000Z</time>
      </trkpt>
      <trkpt lat="43.92422" lon="7.16924">
        <ele>493.20001220703</ele>
        <time>2020-05-27T07:59:56.000Z</time>
      </trkpt>
      <trkpt lat="43.92419" lon="7.16928">
        <ele>493.60000610352</ele>
        <time>2020-05-27T07:59:58.000Z</time>
      </trkpt>
      <trkpt lat="43.92411" lon="7.16938">
        <ele>494.39999389648</ele>
        <time>2020-05-27T08:00:03.000Z</time>
      </trkpt>
      <trkpt lat="43.92409" lon="7.16942">
        <ele>494.79998779297</ele>
        <time>2020-05-27T08:00:05.000Z</time>
      </trkpt>
      <trkpt lat="43.92401" lon="7.16952">
        <ele>495.79998779297</ele>
        <time>2020-05-27T08:00:10.000Z</time>
      </trkpt>
      <trkpt lat="43.92393" lon="7.16965">
        <ele>496.79998779297</ele>
        <time>2020-05-27T08:00:17.000Z</time>
      </trkpt>
      <trkpt lat="43.92384" lon="7.16982">
        <ele>498</ele>
        <time>2020-05-27T08:00:25.000Z</time>
      </trkpt>
      <trkpt lat="43.92379" lon="7.16997">
        <ele>499</ele>
        <time>2020-05-27T08:00:32.000Z</time>
      </trkpt>
      <trkpt lat="43.9238" lon="7.17">
        <ele>499.20001220703</ele>
        <time>2020-05-27T08:00:33.000Z</time>
      </trkpt>
      <trkpt lat="43.9238" lon="7.17014">
        <ele>500.20001220703</ele>
        <time>2020-05-27T08:00:39.000Z</time>
      </trkpt>
      <trkpt lat="43.92381" lon="7.17018">
        <ele>500.39999389648</ele>
        <time>2020-05-27T08:00:41.000Z</time>
      </trkpt>
      <trkpt lat="43.92382" lon="7.17033">
        <ele>501.20001220703</ele>
        <time>2020-05-27T08:00:47.000Z</time>
      </trkpt>
      <trkpt lat="43.92382" lon="7.17036">
        <ele>501.39999389648</ele>
        <time>2020-05-27T08:00:48.000Z</time>
      </trkpt>
      <trkpt lat="43.92384" lon="7.17053">
        <ele>502.20001220703</ele>
        <time>2020-05-27T08:00:54.000Z</time>
      </trkpt>
      <trkpt lat="43.92384" lon="7.17058">
        <ele>502.60000610352</ele>
        <time>2020-05-27T08:00:56.000Z</time>
      </trkpt>
      <trkpt lat="43.92385" lon="7.17072">
        <ele>503.20001220703</ele>
        <time>2020-05-27T08:01:01.000Z</time>
      </trkpt>
      <trkpt lat="43.92387" lon="7.17082">
        <ele>503.60000610352</ele>
        <time>2020-05-27T08:01:05.000Z</time>
      </trkpt>
      <trkpt lat="43.9239" lon="7.17086">
        <ele>503.79998779297</ele>
        <time>2020-05-27T08:01:08.000Z</time>
      </trkpt>
      <trkpt lat="43.92393" lon="7.17084">
        <ele>504</ele>
        <time>2020-05-27T08:01:10.000Z</time>
      </trkpt>
      <trkpt lat="43.92394" lon="7.17079">
        <ele>504.20001220703</ele>
        <time>2020-05-27T08:01:12.000Z</time>
      </trkpt>
      <trkpt lat="43.92394" lon="7.17071">
        <ele>504.60000610352</ele>
        <time>2020-05-27T08:01:15.000Z</time>
      </trkpt>
      <trkpt lat="43.92393" lon="7.17062">
        <ele>505.20001220703</ele>
        <time>2020-05-27T08:01:18.000Z</time>
      </trkpt>
      <trkpt lat="43.92391" lon="7.17042">
        <ele>506.20001220703</ele>
        <time>2020-05-27T08:01:25.000Z</time>
      </trkpt>
      <trkpt lat="43.92391" lon="7.17039">
        <ele>506.20001220703</ele>
        <time>2020-05-27T08:01:26.000Z</time>
      </trkpt>
      <trkpt lat="43.9239" lon="7.17025">
        <ele>507.39999389648</ele>
        <time>2020-05-27T08:01:31.000Z</time>
      </trkpt>
      <trkpt lat="43.9239" lon="7.1702">
        <ele>507.79998779297</ele>
        <time>2020-05-27T08:01:33.000Z</time>
      </trkpt>
      <trkpt lat="43.92391" lon="7.17015">
        <ele>508.39999389648</ele>
        <time>2020-05-27T08:01:35.000Z</time>
      </trkpt>
      <trkpt lat="43.92392" lon="7.17002">
        <ele>509.39999389648</ele>
        <time>2020-05-27T08:01:40.000Z</time>
      </trkpt>
      <trkpt lat="43.92394" lon="7.16997">
        <ele>509.79998779297</ele>
        <time>2020-05-27T08:01:42.000Z</time>
      </trkpt>
      <trkpt lat="43.924" lon="7.16989">
        <ele>510.60000610352</ele>
        <time>2020-05-27T08:01:47.000Z</time>
      </trkpt>
      <trkpt lat="43.92403" lon="7.16985">
        <ele>510.79998779297</ele>
        <time>2020-05-27T08:01:49.000Z</time>
      </trkpt>
      <trkpt lat="43.92411" lon="7.16979">
        <ele>511.79998779297</ele>
        <time>2020-05-27T08:01:54.000Z</time>
      </trkpt>
      <trkpt lat="43.92416" lon="7.16975">
        <ele>512.20001220703</ele>
        <time>2020-05-27T08:01:57.000Z</time>
      </trkpt>
      <trkpt lat="43.92422" lon="7.16972">
        <ele>512.79998779297</ele>
        <time>2020-05-27T08:02:00.000Z</time>
      </trkpt>
      <trkpt lat="43.92432" lon="7.16966">
        <ele>513.79998779297</ele>
        <time>2020-05-27T08:02:06.000Z</time>
      </trkpt>
      <trkpt lat="43.92433" lon="7.16966">
        <ele>514</ele>
        <time>2020-05-27T08:02:07.000Z</time>
      </trkpt>
      <trkpt lat="43.92444" lon="7.1696">
        <ele>515</ele>
        <time>2020-05-27T08:02:14.000Z</time>
      </trkpt>
      <trkpt lat="43.92455" lon="7.16956">
        <ele>516</ele>
        <time>2020-05-27T08:02:20.000Z</time>
      </trkpt>
      <trkpt lat="43.92457" lon="7.16955">
        <ele>516.20001220703</ele>
        <time>2020-05-27T08:02:21.000Z</time>
      </trkpt>
      <trkpt lat="43.92471" lon="7.1695">
        <ele>517.40002441406</ele>
        <time>2020-05-27T08:02:28.000Z</time>
      </trkpt>
      <trkpt lat="43.92473" lon="7.16949">
        <ele>517.59997558594</ele>
        <time>2020-05-27T08:02:29.000Z</time>
      </trkpt>
      <trkpt lat="43.9248" lon="7.16941">
        <ele>518.59997558594</ele>
        <time>2020-05-27T08:02:34.000Z</time>
      </trkpt>
      <trkpt lat="43.92487" lon="7.16935">
        <ele>519</ele>
        <time>2020-05-27T08:02:38.000Z</time>
      </trkpt>
      <trkpt lat="43.92493" lon="7.16926">
        <ele>519.79998779297</ele>
        <time>2020-05-27T08:02:44.000Z</time>
      </trkpt>
      <trkpt lat="43.92495" lon="7.16925">
        <ele>520</ele>
        <time>2020-05-27T08:02:45.000Z</time>
      </trkpt>
      <trkpt lat="43.92502" lon="7.16912">
        <ele>520.79998779297</ele>
        <time>2020-05-27T08:02:52.000Z</time>
      </trkpt>
      <trkpt lat="43.92503" lon="7.16911">
        <ele>521</ele>
        <time>2020-05-27T08:02:53.000Z</time>
      </trkpt>
      <trkpt lat="43.9251" lon="7.16894">
        <ele>521.79998779297</ele>
        <time>2020-05-27T08:03:00.000Z</time>
      </trkpt>
      <trkpt lat="43.92511" lon="7.16892">
        <ele>522</ele>
        <time>2020-05-27T08:03:01.000Z</time>
      </trkpt>
      <trkpt lat="43.92517" lon="7.16877">
        <ele>523</ele>
        <time>2020-05-27T08:03:08.000Z</time>
      </trkpt>
      <trkpt lat="43.92518" lon="7.16875">
        <ele>523.40002441406</ele>
        <time>2020-05-27T08:03:09.000Z</time>
      </trkpt>
      <trkpt lat="43.92527" lon="7.16867">
        <ele>524</ele>
        <time>2020-05-27T08:03:15.000Z</time>
      </trkpt>
      <trkpt lat="43.92528" lon="7.16866">
        <ele>524.40002441406</ele>
        <time>2020-05-27T08:03:16.000Z</time>
      </trkpt>
      <trkpt lat="43.92536" lon="7.16861">
        <ele>525</ele>
        <time>2020-05-27T08:03:21.000Z</time>
      </trkpt>
      <trkpt lat="43.92538" lon="7.1686">
        <ele>525.40002441406</ele>
        <time>2020-05-27T08:03:23.000Z</time>
      </trkpt>
      <trkpt lat="43.92544" lon="7.16857">
        <ele>526.20001220703</ele>
        <time>2020-05-27T08:03:27.000Z</time>
      </trkpt>
      <trkpt lat="43.92547" lon="7.16856">
        <ele>526.59997558594</ele>
        <time>2020-05-27T08:03:29.000Z</time>
      </trkpt>
      <trkpt lat="43.92557" lon="7.16853">
        <ele>527.59997558594</ele>
        <time>2020-05-27T08:03:36.000Z</time>
      </trkpt>
      <trkpt lat="43.9256" lon="7.16851">
        <ele>528</ele>
        <time>2020-05-27T08:03:38.000Z</time>
      </trkpt>
      <trkpt lat="43.9257" lon="7.16843">
        <ele>528.79998779297</ele>
        <time>2020-05-27T08:03:46.000Z</time>
      </trkpt>
      <trkpt lat="43.92571" lon="7.16841">
        <ele>528.79998779297</ele>
        <time>2020-05-27T08:03:47.000Z</time>
      </trkpt>
      <trkpt lat="43.92576" lon="7.16833">
        <ele>529.59997558594</ele>
        <time>2020-05-27T08:03:52.000Z</time>
      </trkpt>
      <trkpt lat="43.92578" lon="7.1683">
        <ele>529.79998779297</ele>
        <time>2020-05-27T08:03:54.000Z</time>
      </trkpt>
      <trkpt lat="43.92583" lon="7.1682">
        <ele>530.40002441406</ele>
        <time>2020-05-27T08:04:00.000Z</time>
      </trkpt>
      <trkpt lat="43.92585" lon="7.16815">
        <ele>531</ele>
        <time>2020-05-27T08:04:03.000Z</time>
      </trkpt>
      <trkpt lat="43.92589" lon="7.16803">
        <ele>531.59997558594</ele>
        <time>2020-05-27T08:04:09.000Z</time>
      </trkpt>
      <trkpt lat="43.9259" lon="7.16799">
        <ele>532</ele>
        <time>2020-05-27T08:04:11.000Z</time>
      </trkpt>
      <trkpt lat="43.92591" lon="7.16797">
        <ele>532</ele>
        <time>2020-05-27T08:04:12.000Z</time>
      </trkpt>
      <trkpt lat="43.92593" lon="7.16793">
        <ele>532.40002441406</ele>
        <time>2020-05-27T08:04:14.000Z</time>
      </trkpt>
      <trkpt lat="43.92597" lon="7.16786">
        <ele>533</ele>
        <time>2020-05-27T08:04:20.000Z</time>
      </trkpt>
      <trkpt lat="43.92597" lon="7.16785">
        <ele>533.20001220703</ele>
        <time>2020-05-27T08:04:21.000Z</time>
      </trkpt>
      <trkpt lat="43.92598" lon="7.16785">
        <ele>533.40002441406</ele>
        <time>2020-05-27T08:04:26.000Z</time>
      </trkpt>
      <trkpt lat="43.92598" lon="7.16784">
        <ele>534.20001220703</ele>
        <time>2020-05-27T08:04:32.000Z</time>
      </trkpt>
      <trkpt lat="43.92599" lon="7.16782">
        <ele>534.20001220703</ele>
        <time>2020-05-27T08:04:34.000Z</time>
      </trkpt>
      <trkpt lat="43.926" lon="7.16778">
        <ele>534.59997558594</ele>
        <time>2020-05-27T08:04:38.000Z</time>
      </trkpt>
      <trkpt lat="43.92602" lon="7.16771">
        <ele>534.40002441406</ele>
        <time>2020-05-27T08:04:44.000Z</time>
      </trkpt>
      <trkpt lat="43.92603" lon="7.16768">
        <ele>534.59997558594</ele>
        <time>2020-05-27T08:04:46.000Z</time>
      </trkpt>
      <trkpt lat="43.92604" lon="7.16767">
        <ele>534.79998779297</ele>
        <time>2020-05-27T08:04:49.000Z</time>
      </trkpt>
      <trkpt lat="43.92604" lon="7.16766">
        <ele>534.59997558594</ele>
        <time>2020-05-27T08:04:50.000Z</time>
      </trkpt>
      <trkpt lat="43.92606" lon="7.16759">
        <ele>534.79998779297</ele>
        <time>2020-05-27T08:04:55.000Z</time>
      </trkpt>
      <trkpt lat="43.92609" lon="7.16747">
        <ele>535.20001220703</ele>
        <time>2020-05-27T08:05:01.000Z</time>
      </trkpt>
      <trkpt lat="43.92611" lon="7.1674">
        <ele>535.79998779297</ele>
        <time>2020-05-27T08:05:05.000Z</time>
      </trkpt>
      <trkpt lat="43.92609" lon="7.16731">
        <ele>536.20001220703</ele>
        <time>2020-05-27T08:05:09.000Z</time>
      </trkpt>
      <trkpt lat="43.92608" lon="7.16727">
        <ele>536.40002441406</ele>
        <time>2020-05-27T08:05:11.000Z</time>
      </trkpt>
      <trkpt lat="43.92607" lon="7.16713">
        <ele>537.40002441406</ele>
        <time>2020-05-27T08:05:17.000Z</time>
      </trkpt>
      <trkpt lat="43.92612" lon="7.16701">
        <ele>538.20001220703</ele>
        <time>2020-05-27T08:05:23.000Z</time>
      </trkpt>
      <trkpt lat="43.92615" lon="7.16698">
        <ele>538.40002441406</ele>
        <time>2020-05-27T08:05:25.000Z</time>
      </trkpt>
      <trkpt lat="43.92622" lon="7.16684">
        <ele>539.40002441406</ele>
        <time>2020-05-27T08:05:32.000Z</time>
      </trkpt>
      <trkpt lat="43.92625" lon="7.1668">
        <ele>539.59997558594</ele>
        <time>2020-05-27T08:05:34.000Z</time>
      </trkpt>
      <trkpt lat="43.92633" lon="7.16669">
        <ele>540.40002441406</ele>
        <time>2020-05-27T08:05:41.000Z</time>
      </trkpt>
      <trkpt lat="43.92645" lon="7.16651">
        <ele>540.59997558594</ele>
        <time>2020-05-27T08:05:49.000Z</time>
      </trkpt>
      <trkpt lat="43.92651" lon="7.16637">
        <ele>541.59997558594</ele>
        <time>2020-05-27T08:05:55.000Z</time>
      </trkpt>
      <trkpt lat="43.92652" lon="7.16635">
        <ele>542</ele>
        <time>2020-05-27T08:05:56.000Z</time>
      </trkpt>
      <trkpt lat="43.92655" lon="7.16631">
        <ele>542.40002441406</ele>
        <time>2020-05-27T08:05:58.000Z</time>
      </trkpt>
      <trkpt lat="43.92656" lon="7.16625">
        <ele>542.79998779297</ele>
        <time>2020-05-27T08:06:00.000Z</time>
      </trkpt>
      <trkpt lat="43.92658" lon="7.16619">
        <ele>543.20001220703</ele>
        <time>2020-05-27T08:06:03.000Z</time>
      </trkpt>
      <trkpt lat="43.92658" lon="7.16615">
        <ele>543.59997558594</ele>
        <time>2020-05-27T08:06:05.000Z</time>
      </trkpt>
      <trkpt lat="43.92659" lon="7.1661">
        <ele>544</ele>
        <time>2020-05-27T08:06:07.000Z</time>
      </trkpt>
      <trkpt lat="43.92659" lon="7.16609">
        <ele>544.20001220703</ele>
        <time>2020-05-27T08:06:10.000Z</time>
      </trkpt>
      <trkpt lat="43.92659" lon="7.16608">
        <ele>544.59997558594</ele>
        <time>2020-05-27T08:06:22.000Z</time>
      </trkpt>
      <trkpt lat="43.92659" lon="7.16609">
        <ele>544.20001220703</ele>
        <time>2020-05-27T08:06:32.000Z</time>
      </trkpt>
      <trkpt lat="43.9266" lon="7.16607">
        <ele>544.40002441406</ele>
        <time>2020-05-27T08:06:42.000Z</time>
      </trkpt>
      <trkpt lat="43.92662" lon="7.16599">
        <ele>545</ele>
        <time>2020-05-27T08:06:49.000Z</time>
      </trkpt>
      <trkpt lat="43.92665" lon="7.16591">
        <ele>545.59997558594</ele>
        <time>2020-05-27T08:06:57.000Z</time>
      </trkpt>
      <trkpt lat="43.92667" lon="7.16585">
        <ele>546</ele>
        <time>2020-05-27T08:07:02.000Z</time>
      </trkpt>
      <trkpt lat="43.92669" lon="7.16582">
        <ele>546.20001220703</ele>
        <time>2020-05-27T08:07:04.000Z</time>
      </trkpt>
      <trkpt lat="43.92672" lon="7.16573">
        <ele>547</ele>
        <time>2020-05-27T08:07:11.000Z</time>
      </trkpt>
      <trkpt lat="43.92673" lon="7.16569">
        <ele>547.59997558594</ele>
        <time>2020-05-27T08:07:17.000Z</time>
      </trkpt>
      <trkpt lat="43.92674" lon="7.16568">
        <ele>548</ele>
        <time>2020-05-27T08:07:22.000Z</time>
      </trkpt>
      <trkpt lat="43.92675" lon="7.16565">
        <ele>548.20001220703</ele>
        <time>2020-05-27T08:07:24.000Z</time>
      </trkpt>
      <trkpt lat="43.92675" lon="7.16565">
        <ele>548.59997558594</ele>
        <time>2020-05-27T08:07:30.000Z</time>
      </trkpt>
      <trkpt lat="43.92675" lon="7.16562">
        <ele>548.79998779297</ele>
        <time>2020-05-27T08:07:36.000Z</time>
      </trkpt>
      <trkpt lat="43.92675" lon="7.1656">
        <ele>549.20001220703</ele>
        <time>2020-05-27T08:07:41.000Z</time>
      </trkpt>
      <trkpt lat="43.92675" lon="7.1656">
        <ele>549.40002441406</ele>
        <time>2020-05-27T08:07:43.000Z</time>
      </trkpt>
      <trkpt lat="43.92674" lon="7.16558">
        <ele>549</ele>
        <time>2020-05-27T08:07:49.000Z</time>
      </trkpt>
      <trkpt lat="43.92675" lon="7.16556">
        <ele>548.40002441406</ele>
        <time>2020-05-27T08:07:55.000Z</time>
      </trkpt>
      <trkpt lat="43.92675" lon="7.16554">
        <ele>548.79998779297</ele>
        <time>2020-05-27T08:08:00.000Z</time>
      </trkpt>
      <trkpt lat="43.92676" lon="7.1655">
        <ele>549.59997558594</ele>
        <time>2020-05-27T08:08:05.000Z</time>
      </trkpt>
      <trkpt lat="43.92676" lon="7.16548">
        <ele>549.40002441406</ele>
        <time>2020-05-27T08:08:11.000Z</time>
      </trkpt>
      <trkpt lat="43.92675" lon="7.16548">
        <ele>549.20001220703</ele>
        <time>2020-05-27T08:08:18.000Z</time>
      </trkpt>
      <trkpt lat="43.92677" lon="7.16547">
        <ele>549.40002441406</ele>
        <time>2020-05-27T08:08:24.000Z</time>
      </trkpt>
      <trkpt lat="43.92677" lon="7.16545">
        <ele>549.20001220703</ele>
        <time>2020-05-27T08:08:25.000Z</time>
      </trkpt>
      <trkpt lat="43.92677" lon="7.16545">
        <ele>549.40002441406</ele>
        <time>2020-05-27T08:08:28.000Z</time>
      </trkpt>
      <trkpt lat="43.92679" lon="7.16544">
        <ele>549.59997558594</ele>
        <time>2020-05-27T08:08:33.000Z</time>
      </trkpt>
      <trkpt lat="43.9268" lon="7.16544">
        <ele>550.20001220703</ele>
        <time>2020-05-27T08:08:36.000Z</time>
      </trkpt>
      <trkpt lat="43.92679" lon="7.16543">
        <ele>550.40002441406</ele>
        <time>2020-05-27T08:08:38.000Z</time>
      </trkpt>
      <trkpt lat="43.92679" lon="7.16541">
        <ele>550.79998779297</ele>
        <time>2020-05-27T08:08:43.000Z</time>
      </trkpt>
      <trkpt lat="43.9268" lon="7.16539">
        <ele>551.20001220703</ele>
        <time>2020-05-27T08:08:48.000Z</time>
      </trkpt>
      <trkpt lat="43.9268" lon="7.16536">
        <ele>551.20001220703</ele>
        <time>2020-05-27T08:08:50.000Z</time>
      </trkpt>
      <trkpt lat="43.9268" lon="7.16535">
        <ele>551.20001220703</ele>
        <time>2020-05-27T08:08:54.000Z</time>
      </trkpt>
      <trkpt lat="43.9268" lon="7.16535">
        <ele>551</ele>
        <time>2020-05-27T08:09:01.000Z</time>
      </trkpt>
      <trkpt lat="43.92677" lon="7.16532">
        <ele>550.79998779297</ele>
        <time>2020-05-27T08:09:09.000Z</time>
      </trkpt>
      <trkpt lat="43.92677" lon="7.1653">
        <ele>550.59997558594</ele>
        <time>2020-05-27T08:09:14.000Z</time>
      </trkpt>
      <trkpt lat="43.92678" lon="7.16528">
        <ele>550</ele>
        <time>2020-05-27T08:09:17.000Z</time>
      </trkpt>
      <trkpt lat="43.92679" lon="7.16524">
        <ele>550.20001220703</ele>
        <time>2020-05-27T08:09:20.000Z</time>
      </trkpt>
      <trkpt lat="43.92678" lon="7.16522">
        <ele>551</ele>
        <time>2020-05-27T08:09:25.000Z</time>
      </trkpt>
      <trkpt lat="43.92678" lon="7.16522">
        <ele>551.20001220703</ele>
        <time>2020-05-27T08:09:26.000Z</time>
      </trkpt>
      <trkpt lat="43.92678" lon="7.16522">
        <ele>551.20001220703</ele>
        <time>2020-05-27T08:09:32.000Z</time>
      </trkpt>
      <trkpt lat="43.92678" lon="7.16522">
        <ele>551</ele>
        <time>2020-05-27T08:09:37.000Z</time>
      </trkpt>
      <trkpt lat="43.92678" lon="7.16521">
        <ele>550.79998779297</ele>
        <time>2020-05-27T08:09:42.000Z</time>
      </trkpt>
      <trkpt lat="43.92678" lon="7.16521">
        <ele>550.40002441406</ele>
        <time>2020-05-27T08:09:58.000Z</time>
      </trkpt>
      <trkpt lat="43.92678" lon="7.16521">
        <ele>550</ele>
        <time>2020-05-27T08:10:01.000Z</time>
      </trkpt>
      <trkpt lat="43.92678" lon="7.16521">
        <ele>550</ele>
        <time>2020-05-27T08:10:08.000Z</time>
      </trkpt>
      <trkpt lat="43.92678" lon="7.16523">
        <ele>549.79998779297</ele>
        <time>2020-05-27T08:10:23.000Z</time>
      </trkpt>
      <trkpt lat="43.92678" lon="7.16524">
        <ele>549.79998779297</ele>
        <time>2020-05-27T08:10:40.000Z</time>
      </trkpt>
      <trkpt lat="43.92679" lon="7.16524">
        <ele>550</ele>
        <time>2020-05-27T08:10:57.000Z</time>
      </trkpt>
      <trkpt lat="43.92679" lon="7.16525">
        <ele>550</ele>
        <time>2020-05-27T08:10:58.000Z</time>
      </trkpt>
      <trkpt lat="43.92679" lon="7.16524">
        <ele>550.59997558594</ele>
        <time>2020-05-27T08:11:02.000Z</time>
      </trkpt>
      <trkpt lat="43.92679" lon="7.16524">
        <ele>550.79998779297</ele>
        <time>2020-05-27T08:11:14.000Z</time>
      </trkpt>
      <trkpt lat="43.92679" lon="7.16524">
        <ele>550.40002441406</ele>
        <time>2020-05-27T08:11:21.000Z</time>
      </trkpt>
      <trkpt lat="43.92679" lon="7.16523">
        <ele>550.59997558594</ele>
        <time>2020-05-27T08:11:28.000Z</time>
      </trkpt>
      <trkpt lat="43.92679" lon="7.16522">
        <ele>551</ele>
        <time>2020-05-27T08:11:37.000Z</time>
      </trkpt>
      <trkpt lat="43.92679" lon="7.16521">
        <ele>550.59997558594</ele>
        <time>2020-05-27T08:11:43.000Z</time>
      </trkpt>
      <trkpt lat="43.9268" lon="7.16515">
        <ele>550.79998779297</ele>
        <time>2020-05-27T08:11:48.000Z</time>
      </trkpt>
      <trkpt lat="43.92681" lon="7.16508">
        <ele>551</ele>
        <time>2020-05-27T08:11:51.000Z</time>
      </trkpt>
      <trkpt lat="43.92683" lon="7.165">
        <ele>551.59997558594</ele>
        <time>2020-05-27T08:11:54.000Z</time>
      </trkpt>
      <trkpt lat="43.92685" lon="7.16488">
        <ele>552.20001220703</ele>
        <time>2020-05-27T08:11:58.000Z</time>
      </trkpt>
      <trkpt lat="43.92689" lon="7.16471">
        <ele>553.20001220703</ele>
        <time>2020-05-27T08:12:04.000Z</time>
      </trkpt>
      <trkpt lat="43.92692" lon="7.16461">
        <ele>554.20001220703</ele>
        <time>2020-05-27T08:12:08.000Z</time>
      </trkpt>
      <trkpt lat="43.92694" lon="7.16454">
        <ele>554.79998779297</ele>
        <time>2020-05-27T08:12:11.000Z</time>
      </trkpt>
      <trkpt lat="43.92697" lon="7.16438">
        <ele>555.40002441406</ele>
        <time>2020-05-27T08:12:16.000Z</time>
      </trkpt>
      <trkpt lat="43.92699" lon="7.16431">
        <ele>555.79998779297</ele>
        <time>2020-05-27T08:12:19.000Z</time>
      </trkpt>
      <trkpt lat="43.92701" lon="7.16422">
        <ele>556.59997558594</ele>
        <time>2020-05-27T08:12:23.000Z</time>
      </trkpt>
      <trkpt lat="43.92703" lon="7.16417">
        <ele>556.79998779297</ele>
        <time>2020-05-27T08:12:25.000Z</time>
      </trkpt>
      <trkpt lat="43.92707" lon="7.16405">
        <ele>557.59997558594</ele>
        <time>2020-05-27T08:12:30.000Z</time>
      </trkpt>
      <trkpt lat="43.92711" lon="7.16395">
        <ele>558.79998779297</ele>
        <time>2020-05-27T08:12:34.000Z</time>
      </trkpt>
      <trkpt lat="43.92714" lon="7.16386">
        <ele>559.79998779297</ele>
        <time>2020-05-27T08:12:39.000Z</time>
      </trkpt>
      <trkpt lat="43.92715" lon="7.16385">
        <ele>560</ele>
        <time>2020-05-27T08:12:40.000Z</time>
      </trkpt>
      <trkpt lat="43.92719" lon="7.16375">
        <ele>560.79998779297</ele>
        <time>2020-05-27T08:12:45.000Z</time>
      </trkpt>
      <trkpt lat="43.92721" lon="7.16369">
        <ele>561.40002441406</ele>
        <time>2020-05-27T08:12:48.000Z</time>
      </trkpt>
      <trkpt lat="43.92722" lon="7.16366">
        <ele>562</ele>
        <time>2020-05-27T08:12:50.000Z</time>
      </trkpt>
      <trkpt lat="43.92724" lon="7.16354">
        <ele>563.20001220703</ele>
        <time>2020-05-27T08:12:55.000Z</time>
      </trkpt>
      <trkpt lat="43.92726" lon="7.16341">
        <ele>564.20001220703</ele>
        <time>2020-05-27T08:13:01.000Z</time>
      </trkpt>
      <trkpt lat="43.92726" lon="7.16336">
        <ele>564.79998779297</ele>
        <time>2020-05-27T08:13:03.000Z</time>
      </trkpt>
      <trkpt lat="43.92727" lon="7.16327">
        <ele>565.40002441406</ele>
        <time>2020-05-27T08:13:07.000Z</time>
      </trkpt>
      <trkpt lat="43.92726" lon="7.16319">
        <ele>566</ele>
        <time>2020-05-27T08:13:11.000Z</time>
      </trkpt>
      <trkpt lat="43.92725" lon="7.16309">
        <ele>566.40002441406</ele>
        <time>2020-05-27T08:13:15.000Z</time>
      </trkpt>
      <trkpt lat="43.92722" lon="7.16298">
        <ele>567.20001220703</ele>
        <time>2020-05-27T08:13:20.000Z</time>
      </trkpt>
      <trkpt lat="43.92721" lon="7.16291">
        <ele>567.79998779297</ele>
        <time>2020-05-27T08:13:23.000Z</time>
      </trkpt>
      <trkpt lat="43.92721" lon="7.16284">
        <ele>568.59997558594</ele>
        <time>2020-05-27T08:13:27.000Z</time>
      </trkpt>
      <trkpt lat="43.92721" lon="7.1628">
        <ele>568.79998779297</ele>
        <time>2020-05-27T08:13:29.000Z</time>
      </trkpt>
      <trkpt lat="43.92722" lon="7.16268">
        <ele>569.59997558594</ele>
        <time>2020-05-27T08:13:35.000Z</time>
      </trkpt>
      <trkpt lat="43.92723" lon="7.16265">
        <ele>569.79998779297</ele>
        <time>2020-05-27T08:13:37.000Z</time>
      </trkpt>
      <trkpt lat="43.92728" lon="7.16261">
        <ele>570.40002441406</ele>
        <time>2020-05-27T08:13:41.000Z</time>
      </trkpt>
      <trkpt lat="43.92728" lon="7.1626">
        <ele>570.79998779297</ele>
        <time>2020-05-27T08:13:42.000Z</time>
      </trkpt>
      <trkpt lat="43.92734" lon="7.16257">
        <ele>571.59997558594</ele>
        <time>2020-05-27T08:13:46.000Z</time>
      </trkpt>
      <trkpt lat="43.92737" lon="7.16255">
        <ele>571.79998779297</ele>
        <time>2020-05-27T08:13:48.000Z</time>
      </trkpt>
      <trkpt lat="43.92746" lon="7.16251">
        <ele>572.59997558594</ele>
        <time>2020-05-27T08:13:54.000Z</time>
      </trkpt>
      <trkpt lat="43.92749" lon="7.1625">
        <ele>572.79998779297</ele>
        <time>2020-05-27T08:13:56.000Z</time>
      </trkpt>
      <trkpt lat="43.92759" lon="7.16243">
        <ele>573.79998779297</ele>
        <time>2020-05-27T08:14:02.000Z</time>
      </trkpt>
      <trkpt lat="43.92762" lon="7.1624">
        <ele>574</ele>
        <time>2020-05-27T08:14:04.000Z</time>
      </trkpt>
      <trkpt lat="43.92771" lon="7.16231">
        <ele>574.79998779297</ele>
        <time>2020-05-27T08:14:10.000Z</time>
      </trkpt>
      <trkpt lat="43.92774" lon="7.16228">
        <ele>575</ele>
        <time>2020-05-27T08:14:12.000Z</time>
      </trkpt>
      <trkpt lat="43.92781" lon="7.16218">
        <ele>576.20001220703</ele>
        <time>2020-05-27T08:14:18.000Z</time>
      </trkpt>
      <trkpt lat="43.92784" lon="7.16214">
        <ele>576.40002441406</ele>
        <time>2020-05-27T08:14:20.000Z</time>
      </trkpt>
      <trkpt lat="43.92791" lon="7.16205">
        <ele>577.40002441406</ele>
        <time>2020-05-27T08:14:25.000Z</time>
      </trkpt>
      <trkpt lat="43.92797" lon="7.16193">
        <ele>578</ele>
        <time>2020-05-27T08:14:30.000Z</time>
      </trkpt>
      <trkpt lat="43.92801" lon="7.16187">
        <ele>578.40002441406</ele>
        <time>2020-05-27T08:14:33.000Z</time>
      </trkpt>
      <trkpt lat="43.92809" lon="7.1618">
        <ele>579.59997558594</ele>
        <time>2020-05-27T08:14:38.000Z</time>
      </trkpt>
      <trkpt lat="43.92817" lon="7.16176">
        <ele>580.40002441406</ele>
        <time>2020-05-27T08:14:43.000Z</time>
      </trkpt>
      <trkpt lat="43.92822" lon="7.16175">
        <ele>580.59997558594</ele>
        <time>2020-05-27T08:14:46.000Z</time>
      </trkpt>
      <trkpt lat="43.92823" lon="7.16175">
        <ele>580.59997558594</ele>
        <time>2020-05-27T08:14:47.000Z</time>
      </trkpt>
      <trkpt lat="43.92834" lon="7.16176">
        <ele>582</ele>
        <time>2020-05-27T08:14:53.000Z</time>
      </trkpt>
      <trkpt lat="43.92836" lon="7.16177">
        <ele>582</ele>
        <time>2020-05-27T08:14:54.000Z</time>
      </trkpt>
      <trkpt lat="43.92847" lon="7.16182">
        <ele>583</ele>
        <time>2020-05-27T08:15:00.000Z</time>
      </trkpt>
      <trkpt lat="43.92849" lon="7.16182">
        <ele>583.20001220703</ele>
        <time>2020-05-27T08:15:01.000Z</time>
      </trkpt>
      <trkpt lat="43.92861" lon="7.16186">
        <ele>584.20001220703</ele>
        <time>2020-05-27T08:15:08.000Z</time>
      </trkpt>
      <trkpt lat="43.9287" lon="7.16189">
        <ele>584.79998779297</ele>
        <time>2020-05-27T08:15:13.000Z</time>
      </trkpt>
      <trkpt lat="43.92874" lon="7.16191">
        <ele>585.20001220703</ele>
        <time>2020-05-27T08:15:15.000Z</time>
      </trkpt>
      <trkpt lat="43.92883" lon="7.16193">
        <ele>585.79998779297</ele>
        <time>2020-05-27T08:15:20.000Z</time>
      </trkpt>
      <trkpt lat="43.92889" lon="7.16193">
        <ele>586.40002441406</ele>
        <time>2020-05-27T08:15:23.000Z</time>
      </trkpt>
      <trkpt lat="43.92898" lon="7.16191">
        <ele>587</ele>
        <time>2020-05-27T08:15:28.000Z</time>
      </trkpt>
      <trkpt lat="43.92904" lon="7.1619">
        <ele>587.59997558594</ele>
        <time>2020-05-27T08:15:31.000Z</time>
      </trkpt>
      <trkpt lat="43.92914" lon="7.16186">
        <ele>588.59997558594</ele>
        <time>2020-05-27T08:15:37.000Z</time>
      </trkpt>
      <trkpt lat="43.92916" lon="7.16185">
        <ele>588.79998779297</ele>
        <time>2020-05-27T08:15:38.000Z</time>
      </trkpt>
      <trkpt lat="43.92927" lon="7.16181">
        <ele>589.79998779297</ele>
        <time>2020-05-27T08:15:44.000Z</time>
      </trkpt>
      <trkpt lat="43.92932" lon="7.16179">
        <ele>590</ele>
        <time>2020-05-27T08:15:47.000Z</time>
      </trkpt>
      <trkpt lat="43.9294" lon="7.16174">
        <ele>590.79998779297</ele>
        <time>2020-05-27T08:15:52.000Z</time>
      </trkpt>
      <trkpt lat="43.92945" lon="7.16172">
        <ele>591.59997558594</ele>
        <time>2020-05-27T08:15:55.000Z</time>
      </trkpt>
      <trkpt lat="43.92948" lon="7.16171">
        <ele>592</ele>
        <time>2020-05-27T08:15:57.000Z</time>
      </trkpt>
      <trkpt lat="43.92955" lon="7.1617">
        <ele>592.59997558594</ele>
        <time>2020-05-27T08:16:01.000Z</time>
      </trkpt>
      <trkpt lat="43.92962" lon="7.16169">
        <ele>593.20001220703</ele>
        <time>2020-05-27T08:16:05.000Z</time>
      </trkpt>
      <trkpt lat="43.92967" lon="7.16168">
        <ele>593.20001220703</ele>
        <time>2020-05-27T08:16:08.000Z</time>
      </trkpt>
      <trkpt lat="43.9297" lon="7.1617">
        <ele>593.40002441406</ele>
        <time>2020-05-27T08:16:10.000Z</time>
      </trkpt>
      <trkpt lat="43.92972" lon="7.16174">
        <ele>593.59997558594</ele>
        <time>2020-05-27T08:16:12.000Z</time>
      </trkpt>
      <trkpt lat="43.92968" lon="7.16181">
        <ele>594.20001220703</ele>
        <time>2020-05-27T08:16:16.000Z</time>
      </trkpt>
      <trkpt lat="43.92966" lon="7.16181">
        <ele>594.20001220703</ele>
        <time>2020-05-27T08:16:17.000Z</time>
      </trkpt>
      <trkpt lat="43.92964" lon="7.16181">
        <ele>594.40002441406</ele>
        <time>2020-05-27T08:16:18.000Z</time>
      </trkpt>
      <trkpt lat="43.92956" lon="7.16184">
        <ele>595.20001220703</ele>
        <time>2020-05-27T08:16:23.000Z</time>
      </trkpt>
      <trkpt lat="43.92953" lon="7.16184">
        <ele>595.40002441406</ele>
        <time>2020-05-27T08:16:25.000Z</time>
      </trkpt>
      <trkpt lat="43.92945" lon="7.16185">
        <ele>596.20001220703</ele>
        <time>2020-05-27T08:16:30.000Z</time>
      </trkpt>
      <trkpt lat="43.92942" lon="7.16186">
        <ele>596.59997558594</ele>
        <time>2020-05-27T08:16:32.000Z</time>
      </trkpt>
      <trkpt lat="43.92933" lon="7.16188">
        <ele>597.40002441406</ele>
        <time>2020-05-27T08:16:37.000Z</time>
      </trkpt>
      <trkpt lat="43.92932" lon="7.16189">
        <ele>597.59997558594</ele>
        <time>2020-05-27T08:16:38.000Z</time>
      </trkpt>
      <trkpt lat="43.9292" lon="7.16195">
        <ele>598.79998779297</ele>
        <time>2020-05-27T08:16:45.000Z</time>
      </trkpt>
      <trkpt lat="43.92911" lon="7.16204">
        <ele>599.40002441406</ele>
        <time>2020-05-27T08:16:51.000Z</time>
      </trkpt>
      <trkpt lat="43.92908" lon="7.16206">
        <ele>599.79998779297</ele>
        <time>2020-05-27T08:16:53.000Z</time>
      </trkpt>
      <trkpt lat="43.92898" lon="7.16212">
        <ele>600.79998779297</ele>
        <time>2020-05-27T08:16:59.000Z</time>
      </trkpt>
      <trkpt lat="43.92897" lon="7.16212">
        <ele>601</ele>
        <time>2020-05-27T08:17:00.000Z</time>
      </trkpt>
      <trkpt lat="43.92888" lon="7.16216">
        <ele>601.79998779297</ele>
        <time>2020-05-27T08:17:06.000Z</time>
      </trkpt>
      <trkpt lat="43.92886" lon="7.16217">
        <ele>602</ele>
        <time>2020-05-27T08:17:07.000Z</time>
      </trkpt>
      <trkpt lat="43.92877" lon="7.16222">
        <ele>603</ele>
        <time>2020-05-27T08:17:12.000Z</time>
      </trkpt>
      <trkpt lat="43.92876" lon="7.16222">
        <ele>603.20001220703</ele>
        <time>2020-05-27T08:17:13.000Z</time>
      </trkpt>
      <trkpt lat="43.92865" lon="7.16225">
        <ele>604</ele>
        <time>2020-05-27T08:17:19.000Z</time>
      </trkpt>
      <trkpt lat="43.92863" lon="7.16224">
        <ele>604.20001220703</ele>
        <time>2020-05-27T08:17:20.000Z</time>
      </trkpt>
      <trkpt lat="43.92854" lon="7.16224">
        <ele>605.20001220703</ele>
        <time>2020-05-27T08:17:25.000Z</time>
      </trkpt>
      <trkpt lat="43.92847" lon="7.16225">
        <ele>606</ele>
        <time>2020-05-27T08:17:29.000Z</time>
      </trkpt>
      <trkpt lat="43.92843" lon="7.16226">
        <ele>606.40002441406</ele>
        <time>2020-05-27T08:17:31.000Z</time>
      </trkpt>
      <trkpt lat="43.92835" lon="7.16229">
        <ele>607</ele>
        <time>2020-05-27T08:17:36.000Z</time>
      </trkpt>
      <trkpt lat="43.92832" lon="7.16231">
        <ele>607.40002441406</ele>
        <time>2020-05-27T08:17:38.000Z</time>
      </trkpt>
      <trkpt lat="43.92826" lon="7.1624">
        <ele>608.40002441406</ele>
        <time>2020-05-27T08:17:43.000Z</time>
      </trkpt>
      <trkpt lat="43.92825" lon="7.16242">
        <ele>608.59997558594</ele>
        <time>2020-05-27T08:17:44.000Z</time>
      </trkpt>
      <trkpt lat="43.9282" lon="7.16253">
        <ele>609.20001220703</ele>
        <time>2020-05-27T08:17:49.000Z</time>
      </trkpt>
      <trkpt lat="43.92819" lon="7.16257">
        <ele>609.59997558594</ele>
        <time>2020-05-27T08:17:51.000Z</time>
      </trkpt>
      <trkpt lat="43.92815" lon="7.16267">
        <ele>610.40002441406</ele>
        <time>2020-05-27T08:17:56.000Z</time>
      </trkpt>
      <trkpt lat="43.92813" lon="7.16272">
        <ele>610.79998779297</ele>
        <time>2020-05-27T08:17:58.000Z</time>
      </trkpt>
      <trkpt lat="43.9281" lon="7.1628">
        <ele>611.20001220703</ele>
        <time>2020-05-27T08:18:02.000Z</time>
      </trkpt>
      <trkpt lat="43.92807" lon="7.16287">
        <ele>611.79998779297</ele>
        <time>2020-05-27T08:18:05.000Z</time>
      </trkpt>
      <trkpt lat="43.92805" lon="7.16293">
        <ele>612.20001220703</ele>
        <time>2020-05-27T08:18:08.000Z</time>
      </trkpt>
      <trkpt lat="43.92802" lon="7.163">
        <ele>612.79998779297</ele>
        <time>2020-05-27T08:18:11.000Z</time>
      </trkpt>
      <trkpt lat="43.92798" lon="7.16312">
        <ele>613.40002441406</ele>
        <time>2020-05-27T08:18:16.000Z</time>
      </trkpt>
      <trkpt lat="43.92796" lon="7.16319">
        <ele>614.20001220703</ele>
        <time>2020-05-27T08:18:19.000Z</time>
      </trkpt>
      <trkpt lat="43.92792" lon="7.16332">
        <ele>614.59997558594</ele>
        <time>2020-05-27T08:18:24.000Z</time>
      </trkpt>
      <trkpt lat="43.92791" lon="7.16346">
        <ele>615.20001220703</ele>
        <time>2020-05-27T08:18:29.000Z</time>
      </trkpt>
      <trkpt lat="43.92791" lon="7.1635">
        <ele>615.79998779297</ele>
        <time>2020-05-27T08:18:31.000Z</time>
      </trkpt>
      <trkpt lat="43.92792" lon="7.16362">
        <ele>616.40002441406</ele>
        <time>2020-05-27T08:18:36.000Z</time>
      </trkpt>
      <trkpt lat="43.92793" lon="7.16364">
        <ele>616.59997558594</ele>
        <time>2020-05-27T08:18:37.000Z</time>
      </trkpt>
      <trkpt lat="43.92802" lon="7.16378">
        <ele>617.40002441406</ele>
        <time>2020-05-27T08:18:44.000Z</time>
      </trkpt>
      <trkpt lat="43.92803" lon="7.1638">
        <ele>617.59997558594</ele>
        <time>2020-05-27T08:18:45.000Z</time>
      </trkpt>
      <trkpt lat="43.92807" lon="7.16384">
        <ele>618.59997558594</ele>
        <time>2020-05-27T08:18:48.000Z</time>
      </trkpt>
      <trkpt lat="43.92812" lon="7.16394">
        <ele>619.59997558594</ele>
        <time>2020-05-27T08:18:53.000Z</time>
      </trkpt>
      <trkpt lat="43.92817" lon="7.1641">
        <ele>620.79998779297</ele>
        <time>2020-05-27T08:19:00.000Z</time>
      </trkpt>
      <trkpt lat="43.92816" lon="7.16429">
        <ele>621.79998779297</ele>
        <time>2020-05-27T08:19:07.000Z</time>
      </trkpt>
      <trkpt lat="43.92812" lon="7.16442">
        <ele>623</ele>
        <time>2020-05-27T08:19:12.000Z</time>
      </trkpt>
      <trkpt lat="43.9281" lon="7.16447">
        <ele>623.20001220703</ele>
        <time>2020-05-27T08:19:14.000Z</time>
      </trkpt>
      <trkpt lat="43.92809" lon="7.16454">
        <ele>624</ele>
        <time>2020-05-27T08:19:17.000Z</time>
      </trkpt>
      <trkpt lat="43.92807" lon="7.16466">
        <ele>624.59997558594</ele>
        <time>2020-05-27T08:19:22.000Z</time>
      </trkpt>
      <trkpt lat="43.92807" lon="7.1647">
        <ele>625</ele>
        <time>2020-05-27T08:19:24.000Z</time>
      </trkpt>
      <trkpt lat="43.92807" lon="7.16481">
        <ele>625.20001220703</ele>
        <time>2020-05-27T08:19:28.000Z</time>
      </trkpt>
      <trkpt lat="43.92807" lon="7.16491">
        <ele>626.20001220703</ele>
        <time>2020-05-27T08:19:32.000Z</time>
      </trkpt>
      <trkpt lat="43.92806" lon="7.16496">
        <ele>626.40002441406</ele>
        <time>2020-05-27T08:19:34.000Z</time>
      </trkpt>
      <trkpt lat="43.92804" lon="7.16507">
        <ele>627.20001220703</ele>
        <time>2020-05-27T08:19:39.000Z</time>
      </trkpt>
      <trkpt lat="43.92803" lon="7.16513">
        <ele>627.59997558594</ele>
        <time>2020-05-27T08:19:42.000Z</time>
      </trkpt>
      <trkpt lat="43.92801" lon="7.16521">
        <ele>628.40002441406</ele>
        <time>2020-05-27T08:19:46.000Z</time>
      </trkpt>
      <trkpt lat="43.92801" lon="7.16522">
        <ele>629.40002441406</ele>
        <time>2020-05-27T08:19:49.000Z</time>
      </trkpt>
      <trkpt lat="43.92801" lon="7.16521">
        <ele>629.59997558594</ele>
        <time>2020-05-27T08:19:50.000Z</time>
      </trkpt>
      <trkpt lat="43.92801" lon="7.1652">
        <ele>629.79998779297</ele>
        <time>2020-05-27T08:19:52.000Z</time>
      </trkpt>
      <trkpt lat="43.92801" lon="7.16523">
        <ele>629</ele>
        <time>2020-05-27T08:19:56.000Z</time>
      </trkpt>
      <trkpt lat="43.92801" lon="7.16523">
        <ele>629.20001220703</ele>
        <time>2020-05-27T08:19:57.000Z</time>
      </trkpt>
      <trkpt lat="43.92801" lon="7.16525">
        <ele>630.59997558594</ele>
        <time>2020-05-27T08:20:04.000Z</time>
      </trkpt>
      <trkpt lat="43.92802" lon="7.16525">
        <ele>631</ele>
        <time>2020-05-27T08:20:11.000Z</time>
      </trkpt>
      <trkpt lat="43.92803" lon="7.16528">
        <ele>631.40002441406</ele>
        <time>2020-05-27T08:20:19.000Z</time>
      </trkpt>
      <trkpt lat="43.92802" lon="7.1653">
        <ele>631.59997558594</ele>
        <time>2020-05-27T08:20:22.000Z</time>
      </trkpt>
      <trkpt lat="43.92802" lon="7.1653">
        <ele>632.20001220703</ele>
        <time>2020-05-27T08:20:26.000Z</time>
      </trkpt>
      <trkpt lat="43.92803" lon="7.16532">
        <ele>632.20001220703</ele>
        <time>2020-05-27T08:20:44.000Z</time>
      </trkpt>
      <trkpt lat="43.92803" lon="7.16532">
        <ele>632.20001220703</ele>
        <time>2020-05-27T08:20:54.000Z</time>
      </trkpt>
      <trkpt lat="43.92803" lon="7.16533">
        <ele>632.20001220703</ele>
        <time>2020-05-27T08:21:07.000Z</time>
      </trkpt>
      <trkpt lat="43.92803" lon="7.16538">
        <ele>632.59997558594</ele>
        <time>2020-05-27T08:21:13.000Z</time>
      </trkpt>
      <trkpt lat="43.92803" lon="7.16538">
        <ele>632.59997558594</ele>
        <time>2020-05-27T08:21:14.000Z</time>
      </trkpt>
      <trkpt lat="43.92806" lon="7.16536">
        <ele>633</ele>
        <time>2020-05-27T08:21:18.000Z</time>
      </trkpt>
      <trkpt lat="43.92809" lon="7.1653">
        <ele>633.59997558594</ele>
        <time>2020-05-27T08:21:24.000Z</time>
      </trkpt>
      <trkpt lat="43.92809" lon="7.16528">
        <ele>633.79998779297</ele>
        <time>2020-05-27T08:21:26.000Z</time>
      </trkpt>
      <trkpt lat="43.92814" lon="7.16519">
        <ele>634.79998779297</ele>
        <time>2020-05-27T08:21:35.000Z</time>
      </trkpt>
      <trkpt lat="43.92814" lon="7.16519">
        <ele>634.79998779297</ele>
        <time>2020-05-27T08:21:36.000Z</time>
      </trkpt>
      <trkpt lat="43.92815" lon="7.16516">
        <ele>635</ele>
        <time>2020-05-27T08:21:44.000Z</time>
      </trkpt>
      <trkpt lat="43.92818" lon="7.16511">
        <ele>635</ele>
        <time>2020-05-27T08:21:48.000Z</time>
      </trkpt>
      <trkpt lat="43.92824" lon="7.16494">
        <ele>634</ele>
        <time>2020-05-27T08:21:52.000Z</time>
      </trkpt>
      <trkpt lat="43.92825" lon="7.16492">
        <ele>633.59997558594</ele>
        <time>2020-05-27T08:21:53.000Z</time>
      </trkpt>
      <trkpt lat="43.92828" lon="7.16483">
        <ele>633.40002441406</ele>
        <time>2020-05-27T08:21:57.000Z</time>
      </trkpt>
      <trkpt lat="43.92832" lon="7.16469">
        <ele>634.59997558594</ele>
        <time>2020-05-27T08:22:03.000Z</time>
      </trkpt>
      <trkpt lat="43.92834" lon="7.16465">
        <ele>635</ele>
        <time>2020-05-27T08:22:05.000Z</time>
      </trkpt>
      <trkpt lat="43.92836" lon="7.16458">
        <ele>635.59997558594</ele>
        <time>2020-05-27T08:22:08.000Z</time>
      </trkpt>
      <trkpt lat="43.92839" lon="7.16448">
        <ele>636.20001220703</ele>
        <time>2020-05-27T08:22:13.000Z</time>
      </trkpt>
      <trkpt lat="43.92842" lon="7.16442">
        <ele>636.79998779297</ele>
        <time>2020-05-27T08:22:16.000Z</time>
      </trkpt>
      <trkpt lat="43.92845" lon="7.16432">
        <ele>637.40002441406</ele>
        <time>2020-05-27T08:22:21.000Z</time>
      </trkpt>
      <trkpt lat="43.92846" lon="7.16428">
        <ele>637.79998779297</ele>
        <time>2020-05-27T08:22:23.000Z</time>
      </trkpt>
      <trkpt lat="43.9285" lon="7.16416">
        <ele>638.79998779297</ele>
        <time>2020-05-27T08:22:29.000Z</time>
      </trkpt>
      <trkpt lat="43.92851" lon="7.16415">
        <ele>639</ele>
        <time>2020-05-27T08:22:30.000Z</time>
      </trkpt>
      <trkpt lat="43.92858" lon="7.16401">
        <ele>640</ele>
        <time>2020-05-27T08:22:38.000Z</time>
      </trkpt>
      <trkpt lat="43.92859" lon="7.16399">
        <ele>640</ele>
        <time>2020-05-27T08:22:39.000Z</time>
      </trkpt>
      <trkpt lat="43.92868" lon="7.16386">
        <ele>641.20001220703</ele>
        <time>2020-05-27T08:22:47.000Z</time>
      </trkpt>
      <trkpt lat="43.92876" lon="7.16372">
        <ele>642.20001220703</ele>
        <time>2020-05-27T08:22:54.000Z</time>
      </trkpt>
      <trkpt lat="43.92887" lon="7.1636">
        <ele>643.40002441406</ele>
        <time>2020-05-27T08:23:01.000Z</time>
      </trkpt>
      <trkpt lat="43.92891" lon="7.16355">
        <ele>643.59997558594</ele>
        <time>2020-05-27T08:23:04.000Z</time>
      </trkpt>
      <trkpt lat="43.929" lon="7.16345">
        <ele>644.40002441406</ele>
        <time>2020-05-27T08:23:11.000Z</time>
      </trkpt>
      <trkpt lat="43.92908" lon="7.16336">
        <ele>645.20001220703</ele>
        <time>2020-05-27T08:23:17.000Z</time>
      </trkpt>
      <trkpt lat="43.9291" lon="7.16334">
        <ele>645.40002441406</ele>
        <time>2020-05-27T08:23:18.000Z</time>
      </trkpt>
      <trkpt lat="43.92918" lon="7.16327">
        <ele>646.40002441406</ele>
        <time>2020-05-27T08:23:24.000Z</time>
      </trkpt>
      <trkpt lat="43.9292" lon="7.16326">
        <ele>646.59997558594</ele>
        <time>2020-05-27T08:23:25.000Z</time>
      </trkpt>
      <trkpt lat="43.92933" lon="7.16317">
        <ele>647.59997558594</ele>
        <time>2020-05-27T08:23:32.000Z</time>
      </trkpt>
      <trkpt lat="43.92942" lon="7.1631">
        <ele>648.79998779297</ele>
        <time>2020-05-27T08:23:37.000Z</time>
      </trkpt>
      <trkpt lat="43.92946" lon="7.16306">
        <ele>649.20001220703</ele>
        <time>2020-05-27T08:23:40.000Z</time>
      </trkpt>
      <trkpt lat="43.92951" lon="7.163">
        <ele>649.79998779297</ele>
        <time>2020-05-27T08:23:43.000Z</time>
      </trkpt>
      <trkpt lat="43.92958" lon="7.16291">
        <ele>650.59997558594</ele>
        <time>2020-05-27T08:23:48.000Z</time>
      </trkpt>
      <trkpt lat="43.92959" lon="7.1629">
        <ele>650.79998779297</ele>
        <time>2020-05-27T08:23:49.000Z</time>
      </trkpt>
      <trkpt lat="43.92968" lon="7.16284">
        <ele>651.40002441406</ele>
        <time>2020-05-27T08:23:55.000Z</time>
      </trkpt>
      <trkpt lat="43.92968" lon="7.16285">
        <ele>651.40002441406</ele>
        <time>2020-05-27T08:23:56.000Z</time>
      </trkpt>
      <trkpt lat="43.92969" lon="7.16285">
        <ele>651.79998779297</ele>
        <time>2020-05-27T08:24:00.000Z</time>
      </trkpt>
      <trkpt lat="43.9297" lon="7.16285">
        <ele>652</ele>
        <time>2020-05-27T08:24:01.000Z</time>
      </trkpt>
      <trkpt lat="43.92971" lon="7.1629">
        <ele>652.79998779297</ele>
        <time>2020-05-27T08:24:07.000Z</time>
      </trkpt>
      <trkpt lat="43.92971" lon="7.16293">
        <ele>653</ele>
        <time>2020-05-27T08:24:09.000Z</time>
      </trkpt>
      <trkpt lat="43.9297" lon="7.16294">
        <ele>653.40002441406</ele>
        <time>2020-05-27T08:24:13.000Z</time>
      </trkpt>
      <trkpt lat="43.92968" lon="7.16298">
        <ele>654.20001220703</ele>
        <time>2020-05-27T08:24:19.000Z</time>
      </trkpt>
      <trkpt lat="43.92968" lon="7.16298">
        <ele>654.40002441406</ele>
        <time>2020-05-27T08:24:20.000Z</time>
      </trkpt>
      <trkpt lat="43.92964" lon="7.16302">
        <ele>654.40002441406</ele>
        <time>2020-05-27T08:24:23.000Z</time>
      </trkpt>
      <trkpt lat="43.92962" lon="7.16305">
        <ele>654.59997558594</ele>
        <time>2020-05-27T08:24:25.000Z</time>
      </trkpt>
      <trkpt lat="43.92955" lon="7.16312">
        <ele>654.59997558594</ele>
        <time>2020-05-27T08:24:30.000Z</time>
      </trkpt>
      <trkpt lat="43.92952" lon="7.16316">
        <ele>654.79998779297</ele>
        <time>2020-05-27T08:24:32.000Z</time>
      </trkpt>
      <trkpt lat="43.92949" lon="7.16321">
        <ele>655.40002441406</ele>
        <time>2020-05-27T08:24:35.000Z</time>
      </trkpt>
      <trkpt lat="43.92948" lon="7.16323">
        <ele>655.79998779297</ele>
        <time>2020-05-27T08:24:38.000Z</time>
      </trkpt>
      <trkpt lat="43.92947" lon="7.16324">
        <ele>655.79998779297</ele>
        <time>2020-05-27T08:24:40.000Z</time>
      </trkpt>
      <trkpt lat="43.92944" lon="7.16328">
        <ele>656.20001220703</ele>
        <time>2020-05-27T08:24:44.000Z</time>
      </trkpt>
      <trkpt lat="43.92943" lon="7.16329">
        <ele>656.59997558594</ele>
        <time>2020-05-27T08:24:45.000Z</time>
      </trkpt>
      <trkpt lat="43.92941" lon="7.16333">
        <ele>657</ele>
        <time>2020-05-27T08:24:48.000Z</time>
      </trkpt>
      <trkpt lat="43.92939" lon="7.16337">
        <ele>657.20001220703</ele>
        <time>2020-05-27T08:24:52.000Z</time>
      </trkpt>
      <trkpt lat="43.92936" lon="7.16343">
        <ele>657.59997558594</ele>
        <time>2020-05-27T08:24:57.000Z</time>
      </trkpt>
      <trkpt lat="43.92936" lon="7.16344">
        <ele>657.79998779297</ele>
        <time>2020-05-27T08:25:00.000Z</time>
      </trkpt>
      <trkpt lat="43.92934" lon="7.16345">
        <ele>658</ele>
        <time>2020-05-27T08:25:09.000Z</time>
      </trkpt>
      <trkpt lat="43.92934" lon="7.16344">
        <ele>658</ele>
        <time>2020-05-27T08:25:16.000Z</time>
      </trkpt>
      <trkpt lat="43.92934" lon="7.16344">
        <ele>657.40002441406</ele>
        <time>2020-05-27T08:25:28.000Z</time>
      </trkpt>
      <trkpt lat="43.92934" lon="7.16345">
        <ele>657.59997558594</ele>
        <time>2020-05-27T08:25:43.000Z</time>
      </trkpt>
      <trkpt lat="43.92933" lon="7.16345">
        <ele>657.79998779297</ele>
        <time>2020-05-27T08:25:53.000Z</time>
      </trkpt>
      <trkpt lat="43.92934" lon="7.16345">
        <ele>657.40002441406</ele>
        <time>2020-05-27T08:26:01.000Z</time>
      </trkpt>
      <trkpt lat="43.92935" lon="7.16345">
        <ele>657.40002441406</ele>
        <time>2020-05-27T08:26:12.000Z</time>
      </trkpt>
      <trkpt lat="43.92935" lon="7.16345">
        <ele>657.40002441406</ele>
        <time>2020-05-27T08:26:22.000Z</time>
      </trkpt>
      <trkpt lat="43.92935" lon="7.16345">
        <ele>657.20001220703</ele>
        <time>2020-05-27T08:26:29.000Z</time>
      </trkpt>
      <trkpt lat="43.92935" lon="7.16344">
        <ele>657.40002441406</ele>
        <time>2020-05-27T08:26:42.000Z</time>
      </trkpt>
      <trkpt lat="43.92935" lon="7.16344">
        <ele>657.40002441406</ele>
        <time>2020-05-27T08:26:55.000Z</time>
      </trkpt>
      <trkpt lat="43.92935" lon="7.16344">
        <ele>657</ele>
        <time>2020-05-27T08:27:06.000Z</time>
      </trkpt>
      <trkpt lat="43.92936" lon="7.16344">
        <ele>657.59997558594</ele>
        <time>2020-05-27T08:27:19.000Z</time>
      </trkpt>
      <trkpt lat="43.92934" lon="7.16343">
        <ele>657.79998779297</ele>
        <time>2020-05-27T08:27:31.000Z</time>
      </trkpt>
      <trkpt lat="43.92934" lon="7.16343">
        <ele>657.79998779297</ele>
        <time>2020-05-27T08:27:42.000Z</time>
      </trkpt>
      <trkpt lat="43.92933" lon="7.16342">
        <ele>657.59997558594</ele>
        <time>2020-05-27T08:27:51.000Z</time>
      </trkpt>
      <trkpt lat="43.92933" lon="7.16342">
        <ele>657</ele>
        <time>2020-05-27T08:28:03.000Z</time>
      </trkpt>
      <trkpt lat="43.92933" lon="7.16341">
        <ele>657.20001220703</ele>
        <time>2020-05-27T08:28:11.000Z</time>
      </trkpt>
      <trkpt lat="43.92933" lon="7.16341">
        <ele>657.40002441406</ele>
        <time>2020-05-27T08:28:26.000Z</time>
      </trkpt>
      <trkpt lat="43.92932" lon="7.16342">
        <ele>657.59997558594</ele>
        <time>2020-05-27T08:28:38.000Z</time>
      </trkpt>
      <trkpt lat="43.92932" lon="7.16342">
        <ele>657.40002441406</ele>
        <time>2020-05-27T08:28:46.000Z</time>
      </trkpt>
      <trkpt lat="43.92932" lon="7.16342">
        <ele>656.79998779297</ele>
        <time>2020-05-27T08:29:01.000Z</time>
      </trkpt>
      <trkpt lat="43.92932" lon="7.16342">
        <ele>656.79998779297</ele>
        <time>2020-05-27T08:29:17.000Z</time>
      </trkpt>
      <trkpt lat="43.92933" lon="7.16341">
        <ele>657.20001220703</ele>
        <time>2020-05-27T08:29:31.000Z</time>
      </trkpt>
      <trkpt lat="43.92933" lon="7.16341">
        <ele>657.40002441406</ele>
        <time>2020-05-27T08:29:46.000Z</time>
      </trkpt>
      <trkpt lat="43.92933" lon="7.1634">
        <ele>657.40002441406</ele>
        <time>2020-05-27T08:30:05.000Z</time>
      </trkpt>
      <trkpt lat="43.92933" lon="7.1634">
        <ele>657.40002441406</ele>
        <time>2020-05-27T08:30:24.000Z</time>
      </trkpt>
      <trkpt lat="43.92934" lon="7.1634">
        <ele>657.20001220703</ele>
        <time>2020-05-27T08:30:48.000Z</time>
      </trkpt>
      <trkpt lat="43.92933" lon="7.1634">
        <ele>656.59997558594</ele>
        <time>2020-05-27T08:31:04.000Z</time>
      </trkpt>
      <trkpt lat="43.92933" lon="7.1634">
        <ele>656.79998779297</ele>
        <time>2020-05-27T08:31:22.000Z</time>
      </trkpt>
      <trkpt lat="43.92932" lon="7.1634">
        <ele>656.59997558594</ele>
        <time>2020-05-27T08:31:34.000Z</time>
      </trkpt>
      <trkpt lat="43.92932" lon="7.1634">
        <ele>656.79998779297</ele>
        <time>2020-05-27T08:31:49.000Z</time>
      </trkpt>
      <trkpt lat="43.92933" lon="7.1634">
        <ele>657</ele>
        <time>2020-05-27T08:32:12.000Z</time>
      </trkpt>
      <trkpt lat="43.92933" lon="7.16341">
        <ele>656.79998779297</ele>
        <time>2020-05-27T08:32:35.000Z</time>
      </trkpt>
      <trkpt lat="43.92933" lon="7.16341">
        <ele>657.20001220703</ele>
        <time>2020-05-27T08:32:55.000Z</time>
      </trkpt>
      <trkpt lat="43.92932" lon="7.1634">
        <ele>656.59997558594</ele>
        <time>2020-05-27T08:33:09.000Z</time>
      </trkpt>
      <trkpt lat="43.92932" lon="7.16339">
        <ele>657</ele>
        <time>2020-05-27T08:33:26.000Z</time>
      </trkpt>
      <trkpt lat="43.92931" lon="7.16339">
        <ele>657.20001220703</ele>
        <time>2020-05-27T08:33:44.000Z</time>
      </trkpt>
      <trkpt lat="43.92931" lon="7.16338">
        <ele>657</ele>
        <time>2020-05-27T08:33:58.000Z</time>
      </trkpt>
      <trkpt lat="43.92931" lon="7.16338">
        <ele>656.40002441406</ele>
        <time>2020-05-27T08:34:20.000Z</time>
      </trkpt>
      <trkpt lat="43.92932" lon="7.16339">
        <ele>657.20001220703</ele>
        <time>2020-05-27T08:34:34.000Z</time>
      </trkpt>
      <trkpt lat="43.92932" lon="7.16341">
        <ele>657.20001220703</ele>
        <time>2020-05-27T08:34:58.000Z</time>
      </trkpt>
      <trkpt lat="43.92932" lon="7.16342">
        <ele>657.20001220703</ele>
        <time>2020-05-27T08:35:06.000Z</time>
      </trkpt>
      <trkpt lat="43.92932" lon="7.16343">
        <ele>656.79998779297</ele>
        <time>2020-05-27T08:35:16.000Z</time>
      </trkpt>
      <trkpt lat="43.92933" lon="7.16343">
        <ele>656.40002441406</ele>
        <time>2020-05-27T08:35:29.000Z</time>
      </trkpt>
      <trkpt lat="43.92932" lon="7.16343">
        <ele>656.40002441406</ele>
        <time>2020-05-27T08:35:42.000Z</time>
      </trkpt>
      <trkpt lat="43.92934" lon="7.16343">
        <ele>656.40002441406</ele>
        <time>2020-05-27T08:35:58.000Z</time>
      </trkpt>
      <trkpt lat="43.92935" lon="7.16344">
        <ele>656.59997558594</ele>
        <time>2020-05-27T08:36:08.000Z</time>
      </trkpt>
      <trkpt lat="43.92935" lon="7.16344">
        <ele>656.79998779297</ele>
        <time>2020-05-27T08:36:17.000Z</time>
      </trkpt>
      <trkpt lat="43.92934" lon="7.16343">
        <ele>657</ele>
        <time>2020-05-27T08:36:28.000Z</time>
      </trkpt>
      <trkpt lat="43.92934" lon="7.16343">
        <ele>657</ele>
        <time>2020-05-27T08:36:41.000Z</time>
      </trkpt>
      <trkpt lat="43.92933" lon="7.16343">
        <ele>657</ele>
        <time>2020-05-27T08:36:52.000Z</time>
      </trkpt>
      <trkpt lat="43.92933" lon="7.16344">
        <ele>657</ele>
        <time>2020-05-27T08:37:05.000Z</time>
      </trkpt>
      <trkpt lat="43.92934" lon="7.16343">
        <ele>656.59997558594</ele>
        <time>2020-05-27T08:37:14.000Z</time>
      </trkpt>
      <trkpt lat="43.92933" lon="7.16342">
        <ele>656.59997558594</ele>
        <time>2020-05-27T08:37:29.000Z</time>
      </trkpt>
      <trkpt lat="43.92932" lon="7.16342">
        <ele>656.79998779297</ele>
        <time>2020-05-27T08:37:39.000Z</time>
      </trkpt>
      <trkpt lat="43.92931" lon="7.16341">
        <ele>656.59997558594</ele>
        <time>2020-05-27T08:37:54.000Z</time>
      </trkpt>
      <trkpt lat="43.92931" lon="7.16341">
        <ele>656.59997558594</ele>
        <time>2020-05-27T08:38:06.000Z</time>
      </trkpt>
      <trkpt lat="43.92932" lon="7.16341">
        <ele>656.40002441406</ele>
        <time>2020-05-27T08:38:20.000Z</time>
      </trkpt>
      <trkpt lat="43.92932" lon="7.16341">
        <ele>656.20001220703</ele>
        <time>2020-05-27T08:38:29.000Z</time>
      </trkpt>
      <trkpt lat="43.92931" lon="7.16342">
        <ele>655.79998779297</ele>
        <time>2020-05-27T08:38:39.000Z</time>
      </trkpt>
      <trkpt lat="43.92933" lon="7.16344">
        <ele>655.79998779297</ele>
        <time>2020-05-27T08:38:51.000Z</time>
      </trkpt>
      <trkpt lat="43.92933" lon="7.16343">
        <ele>656.20001220703</ele>
        <time>2020-05-27T08:38:58.000Z</time>
      </trkpt>
      <trkpt lat="43.92934" lon="7.16342">
        <ele>655.79998779297</ele>
        <time>2020-05-27T08:39:14.000Z</time>
      </trkpt>
      <trkpt lat="43.92933" lon="7.16342">
        <ele>655.79998779297</ele>
        <time>2020-05-27T08:39:23.000Z</time>
      </trkpt>
      <trkpt lat="43.92933" lon="7.16343">
        <ele>655.59997558594</ele>
        <time>2020-05-27T08:39:32.000Z</time>
      </trkpt>
      <trkpt lat="43.92933" lon="7.16343">
        <ele>655.40002441406</ele>
        <time>2020-05-27T08:39:34.000Z</time>
      </trkpt>
      <trkpt lat="43.92932" lon="7.16343">
        <ele>655.20001220703</ele>
        <time>2020-05-27T08:39:42.000Z</time>
      </trkpt>
      <trkpt lat="43.92931" lon="7.16343">
        <ele>655.20001220703</ele>
        <time>2020-05-27T08:39:49.000Z</time>
      </trkpt>
      <trkpt lat="43.92932" lon="7.16344">
        <ele>655.59997558594</ele>
        <time>2020-05-27T08:40:00.000Z</time>
      </trkpt>
      <trkpt lat="43.92931" lon="7.16344">
        <ele>655.59997558594</ele>
        <time>2020-05-27T08:40:12.000Z</time>
      </trkpt>
      <trkpt lat="43.9293" lon="7.16344">
        <ele>655.20001220703</ele>
        <time>2020-05-27T08:40:27.000Z</time>
      </trkpt>
      <trkpt lat="43.9293" lon="7.16343">
        <ele>655.59997558594</ele>
        <time>2020-05-27T08:40:44.000Z</time>
      </trkpt>
      <trkpt lat="43.92931" lon="7.16344">
        <ele>655.20001220703</ele>
        <time>2020-05-27T08:40:57.000Z</time>
      </trkpt>
      <trkpt lat="43.92931" lon="7.16344">
        <ele>656.20001220703</ele>
        <time>2020-05-27T08:41:04.000Z</time>
      </trkpt>
      <trkpt lat="43.92931" lon="7.16345">
        <ele>656.40002441406</ele>
        <time>2020-05-27T08:41:14.000Z</time>
      </trkpt>
      <trkpt lat="43.92931" lon="7.16346">
        <ele>656</ele>
        <time>2020-05-27T08:41:26.000Z</time>
      </trkpt>
      <trkpt lat="43.92931" lon="7.16346">
        <ele>656</ele>
        <time>2020-05-27T08:41:33.000Z</time>
      </trkpt>
      <trkpt lat="43.9293" lon="7.16346">
        <ele>656.40002441406</ele>
        <time>2020-05-27T08:41:44.000Z</time>
      </trkpt>
      <trkpt lat="43.9293" lon="7.16345">
        <ele>655.59997558594</ele>
        <time>2020-05-27T08:41:57.000Z</time>
      </trkpt>
      <trkpt lat="43.9293" lon="7.16347">
        <ele>656</ele>
        <time>2020-05-27T08:42:17.000Z</time>
      </trkpt>
      <trkpt lat="43.92929" lon="7.16346">
        <ele>656.20001220703</ele>
        <time>2020-05-27T08:42:29.000Z</time>
      </trkpt>
      <trkpt lat="43.92929" lon="7.16345">
        <ele>655.79998779297</ele>
        <time>2020-05-27T08:42:33.000Z</time>
      </trkpt>
      <trkpt lat="43.92929" lon="7.16345">
        <ele>655.79998779297</ele>
        <time>2020-05-27T08:42:43.000Z</time>
      </trkpt>
      <trkpt lat="43.92929" lon="7.16345">
        <ele>656</ele>
        <time>2020-05-27T08:42:51.000Z</time>
      </trkpt>
      <trkpt lat="43.92929" lon="7.16346">
        <ele>655.79998779297</ele>
        <time>2020-05-27T08:43:03.000Z</time>
      </trkpt>
      <trkpt lat="43.92929" lon="7.16346">
        <ele>655.79998779297</ele>
        <time>2020-05-27T08:43:15.000Z</time>
      </trkpt>
      <trkpt lat="43.9293" lon="7.16347">
        <ele>656</ele>
        <time>2020-05-27T08:43:25.000Z</time>
      </trkpt>
      <trkpt lat="43.92931" lon="7.16347">
        <ele>656.40002441406</ele>
        <time>2020-05-27T08:43:32.000Z</time>
      </trkpt>
      <trkpt lat="43.9293" lon="7.16348">
        <ele>655.59997558594</ele>
        <time>2020-05-27T08:43:37.000Z</time>
      </trkpt>
      <trkpt lat="43.92931" lon="7.16349">
        <ele>656</ele>
        <time>2020-05-27T08:43:46.000Z</time>
      </trkpt>
      <trkpt lat="43.92931" lon="7.1635">
        <ele>656</ele>
        <time>2020-05-27T08:43:53.000Z</time>
      </trkpt>
      <trkpt lat="43.92929" lon="7.16354">
        <ele>656.20001220703</ele>
        <time>2020-05-27T08:44:03.000Z</time>
      </trkpt>
      <trkpt lat="43.92928" lon="7.16356">
        <ele>656.40002441406</ele>
        <time>2020-05-27T08:44:05.000Z</time>
      </trkpt>
      <trkpt lat="43.92924" lon="7.16364">
        <ele>656.79998779297</ele>
        <time>2020-05-27T08:44:09.000Z</time>
      </trkpt>
      <trkpt lat="43.92924" lon="7.16366">
        <ele>657</ele>
        <time>2020-05-27T08:44:10.000Z</time>
      </trkpt>
      <trkpt lat="43.92922" lon="7.16371">
        <ele>657.40002441406</ele>
        <time>2020-05-27T08:44:13.000Z</time>
      </trkpt>
      <trkpt lat="43.9292" lon="7.16374">
        <ele>657.59997558594</ele>
        <time>2020-05-27T08:44:15.000Z</time>
      </trkpt>
      <trkpt lat="43.92916" lon="7.16382">
        <ele>658.40002441406</ele>
        <time>2020-05-27T08:44:20.000Z</time>
      </trkpt>
      <trkpt lat="43.92914" lon="7.16387">
        <ele>658.79998779297</ele>
        <time>2020-05-27T08:44:23.000Z</time>
      </trkpt>
      <trkpt lat="43.92912" lon="7.16393">
        <ele>659.40002441406</ele>
        <time>2020-05-27T08:44:26.000Z</time>
      </trkpt>
      <trkpt lat="43.92908" lon="7.16399">
        <ele>659.79998779297</ele>
        <time>2020-05-27T08:44:30.000Z</time>
      </trkpt>
      <trkpt lat="43.92906" lon="7.16404">
        <ele>660</ele>
        <time>2020-05-27T08:44:33.000Z</time>
      </trkpt>
      <trkpt lat="43.92903" lon="7.16415">
        <ele>661</ele>
        <time>2020-05-27T08:44:38.000Z</time>
      </trkpt>
      <trkpt lat="43.92901" lon="7.16419">
        <ele>661.40002441406</ele>
        <time>2020-05-27T08:44:40.000Z</time>
      </trkpt>
      <trkpt lat="43.92899" lon="7.16429">
        <ele>662</ele>
        <time>2020-05-27T08:44:44.000Z</time>
      </trkpt>
      <trkpt lat="43.92896" lon="7.16439">
        <ele>662.59997558594</ele>
        <time>2020-05-27T08:44:48.000Z</time>
      </trkpt>
      <trkpt lat="43.92894" lon="7.16447">
        <ele>663.20001220703</ele>
        <time>2020-05-27T08:44:52.000Z</time>
      </trkpt>
      <trkpt lat="43.92892" lon="7.16451">
        <ele>663.79998779297</ele>
        <time>2020-05-27T08:44:54.000Z</time>
      </trkpt>
      <trkpt lat="43.9289" lon="7.16456">
        <ele>664.20001220703</ele>
        <time>2020-05-27T08:44:57.000Z</time>
      </trkpt>
      <trkpt lat="43.92888" lon="7.16463">
        <ele>664.59997558594</ele>
        <time>2020-05-27T08:45:01.000Z</time>
      </trkpt>
      <trkpt lat="43.92886" lon="7.16469">
        <ele>665.20001220703</ele>
        <time>2020-05-27T08:45:04.000Z</time>
      </trkpt>
      <trkpt lat="43.92885" lon="7.16472">
        <ele>666</ele>
        <time>2020-05-27T08:45:07.000Z</time>
      </trkpt>
      <trkpt lat="43.92884" lon="7.16473">
        <ele>666.40002441406</ele>
        <time>2020-05-27T08:45:09.000Z</time>
      </trkpt>
      <trkpt lat="43.92883" lon="7.16477">
        <ele>667</ele>
        <time>2020-05-27T08:45:14.000Z</time>
      </trkpt>
      <trkpt lat="43.92883" lon="7.16478">
        <ele>667.40002441406</ele>
        <time>2020-05-27T08:45:15.000Z</time>
      </trkpt>
      <trkpt lat="43.92881" lon="7.16483">
        <ele>668.59997558594</ele>
        <time>2020-05-27T08:45:20.000Z</time>
      </trkpt>
      <trkpt lat="43.92881" lon="7.16485">
        <ele>668.79998779297</ele>
        <time>2020-05-27T08:45:22.000Z</time>
      </trkpt>
      <trkpt lat="43.9288" lon="7.16486">
        <ele>669.40002441406</ele>
        <time>2020-05-27T08:45:28.000Z</time>
      </trkpt>
      <trkpt lat="43.92877" lon="7.16492">
        <ele>669.40002441406</ele>
        <time>2020-05-27T08:45:35.000Z</time>
      </trkpt>
      <trkpt lat="43.92875" lon="7.16495">
        <ele>669.59997558594</ele>
        <time>2020-05-27T08:45:37.000Z</time>
      </trkpt>
      <trkpt lat="43.92871" lon="7.16502">
        <ele>669.79998779297</ele>
        <time>2020-05-27T08:45:41.000Z</time>
      </trkpt>
      <trkpt lat="43.92866" lon="7.16511">
        <ele>670.79998779297</ele>
        <time>2020-05-27T08:45:46.000Z</time>
      </trkpt>
      <trkpt lat="43.92864" lon="7.16514">
        <ele>671.20001220703</ele>
        <time>2020-05-27T08:45:48.000Z</time>
      </trkpt>
      <trkpt lat="43.92859" lon="7.16519">
        <ele>671.79998779297</ele>
        <time>2020-05-27T08:45:51.000Z</time>
      </trkpt>
      <trkpt lat="43.92854" lon="7.16525">
        <ele>672.59997558594</ele>
        <time>2020-05-27T08:45:55.000Z</time>
      </trkpt>
      <trkpt lat="43.92849" lon="7.16534">
        <ele>672.79998779297</ele>
        <time>2020-05-27T08:45:59.000Z</time>
      </trkpt>
      <trkpt lat="43.92848" lon="7.16544">
        <ele>673.40002441406</ele>
        <time>2020-05-27T08:46:03.000Z</time>
      </trkpt>
      <trkpt lat="43.92848" lon="7.16549">
        <ele>674</ele>
        <time>2020-05-27T08:46:05.000Z</time>
      </trkpt>
      <trkpt lat="43.92846" lon="7.16567">
        <ele>675</ele>
        <time>2020-05-27T08:46:12.000Z</time>
      </trkpt>
      <trkpt lat="43.92845" lon="7.16585">
        <ele>676.20001220703</ele>
        <time>2020-05-27T08:46:19.000Z</time>
      </trkpt>
      <trkpt lat="43.92844" lon="7.16587">
        <ele>676.40002441406</ele>
        <time>2020-05-27T08:46:20.000Z</time>
      </trkpt>
      <trkpt lat="43.92843" lon="7.16597">
        <ele>677.20001220703</ele>
        <time>2020-05-27T08:46:24.000Z</time>
      </trkpt>
      <trkpt lat="43.92842" lon="7.16607">
        <ele>678</ele>
        <time>2020-05-27T08:46:28.000Z</time>
      </trkpt>
      <trkpt lat="43.92841" lon="7.16613">
        <ele>678.59997558594</ele>
        <time>2020-05-27T08:46:31.000Z</time>
      </trkpt>
      <trkpt lat="43.9284" lon="7.16618">
        <ele>678.79998779297</ele>
        <time>2020-05-27T08:46:33.000Z</time>
      </trkpt>
      <trkpt lat="43.92839" lon="7.16632">
        <ele>679.59997558594</ele>
        <time>2020-05-27T08:46:39.000Z</time>
      </trkpt>
      <trkpt lat="43.92839" lon="7.16635">
        <ele>679.59997558594</ele>
        <time>2020-05-27T08:46:40.000Z</time>
      </trkpt>
      <trkpt lat="43.92839" lon="7.16647">
        <ele>680.59997558594</ele>
        <time>2020-05-27T08:46:45.000Z</time>
      </trkpt>
      <trkpt lat="43.92839" lon="7.16654">
        <ele>681.20001220703</ele>
        <time>2020-05-27T08:46:48.000Z</time>
      </trkpt>
      <trkpt lat="43.92841" lon="7.16665">
        <ele>681.79998779297</ele>
        <time>2020-05-27T08:46:52.000Z</time>
      </trkpt>
      <trkpt lat="43.92844" lon="7.16677">
        <ele>682.40002441406</ele>
        <time>2020-05-27T08:46:57.000Z</time>
      </trkpt>
      <trkpt lat="43.92845" lon="7.16685">
        <ele>682.79998779297</ele>
        <time>2020-05-27T08:47:00.000Z</time>
      </trkpt>
      <trkpt lat="43.92845" lon="7.16695">
        <ele>683.79998779297</ele>
        <time>2020-05-27T08:47:04.000Z</time>
      </trkpt>
      <trkpt lat="43.92845" lon="7.16698">
        <ele>684</ele>
        <time>2020-05-27T08:47:05.000Z</time>
      </trkpt>
      <trkpt lat="43.92846" lon="7.16715">
        <ele>685</ele>
        <time>2020-05-27T08:47:11.000Z</time>
      </trkpt>
      <trkpt lat="43.92846" lon="7.16717">
        <ele>685</ele>
        <time>2020-05-27T08:47:12.000Z</time>
      </trkpt>
      <trkpt lat="43.92845" lon="7.16731">
        <ele>686</ele>
        <time>2020-05-27T08:47:17.000Z</time>
      </trkpt>
      <trkpt lat="43.92844" lon="7.16741">
        <ele>686.59997558594</ele>
        <time>2020-05-27T08:47:21.000Z</time>
      </trkpt>
      <trkpt lat="43.92848" lon="7.16742">
        <ele>687</ele>
        <time>2020-05-27T08:47:23.000Z</time>
      </trkpt>
      <trkpt lat="43.9285" lon="7.16741">
        <ele>687.20001220703</ele>
        <time>2020-05-27T08:47:24.000Z</time>
      </trkpt>
      <trkpt lat="43.92852" lon="7.16734">
        <ele>687.79998779297</ele>
        <time>2020-05-27T08:47:27.000Z</time>
      </trkpt>
      <trkpt lat="43.92852" lon="7.16729">
        <ele>688.20001220703</ele>
        <time>2020-05-27T08:47:29.000Z</time>
      </trkpt>
      <trkpt lat="43.92853" lon="7.16713">
        <ele>688.79998779297</ele>
        <time>2020-05-27T08:47:34.000Z</time>
      </trkpt>
      <trkpt lat="43.92853" lon="7.16707">
        <ele>689.20001220703</ele>
        <time>2020-05-27T08:47:36.000Z</time>
      </trkpt>
      <trkpt lat="43.92855" lon="7.16692">
        <ele>690.40002441406</ele>
        <time>2020-05-27T08:47:41.000Z</time>
      </trkpt>
      <trkpt lat="43.92855" lon="7.1669">
        <ele>690.59997558594</ele>
        <time>2020-05-27T08:47:42.000Z</time>
      </trkpt>
      <trkpt lat="43.92855" lon="7.16679">
        <ele>691.59997558594</ele>
        <time>2020-05-27T08:47:46.000Z</time>
      </trkpt>
      <trkpt lat="43.92856" lon="7.16676">
        <ele>692.40002441406</ele>
        <time>2020-05-27T08:47:49.000Z</time>
      </trkpt>
      <trkpt lat="43.92856" lon="7.16676">
        <ele>692.59997558594</ele>
        <time>2020-05-27T08:47:52.000Z</time>
      </trkpt>
      <trkpt lat="43.92856" lon="7.16676">
        <ele>693</ele>
        <time>2020-05-27T08:47:55.000Z</time>
      </trkpt>
      <trkpt lat="43.92856" lon="7.16673">
        <ele>693.20001220703</ele>
        <time>2020-05-27T08:47:58.000Z</time>
      </trkpt>
      <trkpt lat="43.92856" lon="7.16671">
        <ele>693.20001220703</ele>
        <time>2020-05-27T08:47:59.000Z</time>
      </trkpt>
      <trkpt lat="43.92857" lon="7.16657">
        <ele>693.79998779297</ele>
        <time>2020-05-27T08:48:06.000Z</time>
      </trkpt>
      <trkpt lat="43.92857" lon="7.16655">
        <ele>694</ele>
        <time>2020-05-27T08:48:07.000Z</time>
      </trkpt>
      <trkpt lat="43.92859" lon="7.16644">
        <ele>694.79998779297</ele>
        <time>2020-05-27T08:48:12.000Z</time>
      </trkpt>
      <trkpt lat="43.92862" lon="7.16638">
        <ele>695.40002441406</ele>
        <time>2020-05-27T08:48:15.000Z</time>
      </trkpt>
      <trkpt lat="43.92867" lon="7.16631">
        <ele>695.79998779297</ele>
        <time>2020-05-27T08:48:19.000Z</time>
      </trkpt>
      <trkpt lat="43.92872" lon="7.16624">
        <ele>696.79998779297</ele>
        <time>2020-05-27T08:48:23.000Z</time>
      </trkpt>
      <trkpt lat="43.92873" lon="7.16622">
        <ele>697</ele>
        <time>2020-05-27T08:48:24.000Z</time>
      </trkpt>
      <trkpt lat="43.92879" lon="7.16614">
        <ele>698</ele>
        <time>2020-05-27T08:48:29.000Z</time>
      </trkpt>
      <trkpt lat="43.92887" lon="7.16603">
        <ele>699</ele>
        <time>2020-05-27T08:48:35.000Z</time>
      </trkpt>
      <trkpt lat="43.92895" lon="7.1659">
        <ele>700</ele>
        <time>2020-05-27T08:48:42.000Z</time>
      </trkpt>
      <trkpt lat="43.92901" lon="7.16577">
        <ele>701.20001220703</ele>
        <time>2020-05-27T08:48:48.000Z</time>
      </trkpt>
      <trkpt lat="43.92902" lon="7.16572">
        <ele>701.59997558594</ele>
        <time>2020-05-27T08:48:50.000Z</time>
      </trkpt>
      <trkpt lat="43.92906" lon="7.16558">
        <ele>702.40002441406</ele>
        <time>2020-05-27T08:48:56.000Z</time>
      </trkpt>
      <trkpt lat="43.92907" lon="7.16556">
        <ele>702.59997558594</ele>
        <time>2020-05-27T08:48:57.000Z</time>
      </trkpt>
      <trkpt lat="43.9291" lon="7.16542">
        <ele>703.59997558594</ele>
        <time>2020-05-27T08:49:03.000Z</time>
      </trkpt>
      <trkpt lat="43.92911" lon="7.16539">
        <ele>703.79998779297</ele>
        <time>2020-05-27T08:49:04.000Z</time>
      </trkpt>
      <trkpt lat="43.92913" lon="7.16527">
        <ele>704.59997558594</ele>
        <time>2020-05-27T08:49:09.000Z</time>
      </trkpt>
      <trkpt lat="43.92915" lon="7.16521">
        <ele>705</ele>
        <time>2020-05-27T08:49:12.000Z</time>
      </trkpt>
      <trkpt lat="43.92916" lon="7.16513">
        <ele>705.59997558594</ele>
        <time>2020-05-27T08:49:15.000Z</time>
      </trkpt>
      <trkpt lat="43.92919" lon="7.16504">
        <ele>706.20001220703</ele>
        <time>2020-05-27T08:49:19.000Z</time>
      </trkpt>
      <trkpt lat="43.92923" lon="7.16497">
        <ele>706.79998779297</ele>
        <time>2020-05-27T08:49:22.000Z</time>
      </trkpt>
      <trkpt lat="43.92928" lon="7.1649">
        <ele>707.40002441406</ele>
        <time>2020-05-27T08:49:26.000Z</time>
      </trkpt>
      <trkpt lat="43.9293" lon="7.16486">
        <ele>708</ele>
        <time>2020-05-27T08:49:28.000Z</time>
      </trkpt>
      <trkpt lat="43.92938" lon="7.16475">
        <ele>708.79998779297</ele>
        <time>2020-05-27T08:49:34.000Z</time>
      </trkpt>
      <trkpt lat="43.9294" lon="7.16474">
        <ele>709</ele>
        <time>2020-05-27T08:49:35.000Z</time>
      </trkpt>
      <trkpt lat="43.92947" lon="7.16467">
        <ele>710.20001220703</ele>
        <time>2020-05-27T08:49:40.000Z</time>
      </trkpt>
      <trkpt lat="43.92948" lon="7.16465">
        <ele>710.20001220703</ele>
        <time>2020-05-27T08:49:41.000Z</time>
      </trkpt>
      <trkpt lat="43.92957" lon="7.16455">
        <ele>711.20001220703</ele>
        <time>2020-05-27T08:49:47.000Z</time>
      </trkpt>
      <trkpt lat="43.92958" lon="7.16453">
        <ele>711.40002441406</ele>
        <time>2020-05-27T08:49:48.000Z</time>
      </trkpt>
      <trkpt lat="43.92967" lon="7.16443">
        <ele>712.40002441406</ele>
        <time>2020-05-27T08:49:54.000Z</time>
      </trkpt>
      <trkpt lat="43.92968" lon="7.16442">
        <ele>712.59997558594</ele>
        <time>2020-05-27T08:49:55.000Z</time>
      </trkpt>
      <trkpt lat="43.92976" lon="7.16434">
        <ele>713.40002441406</ele>
        <time>2020-05-27T08:50:00.000Z</time>
      </trkpt>
      <trkpt lat="43.92982" lon="7.1643">
        <ele>714</ele>
        <time>2020-05-27T08:50:04.000Z</time>
      </trkpt>
      <trkpt lat="43.92984" lon="7.16428">
        <ele>714.40002441406</ele>
        <time>2020-05-27T08:50:06.000Z</time>
      </trkpt>
      <trkpt lat="43.92987" lon="7.16425">
        <ele>714.59997558594</ele>
        <time>2020-05-27T08:50:10.000Z</time>
      </trkpt>
      <trkpt lat="43.92988" lon="7.16425">
        <ele>715.40002441406</ele>
        <time>2020-05-27T08:50:16.000Z</time>
      </trkpt>
      <trkpt lat="43.92987" lon="7.16424">
        <ele>715.20001220703</ele>
        <time>2020-05-27T08:50:21.000Z</time>
      </trkpt>
      <trkpt lat="43.92986" lon="7.16422">
        <ele>715</ele>
        <time>2020-05-27T08:50:25.000Z</time>
      </trkpt>
      <trkpt lat="43.92985" lon="7.16419">
        <ele>715</ele>
        <time>2020-05-27T08:50:31.000Z</time>
      </trkpt>
      <trkpt lat="43.92985" lon="7.16418">
        <ele>714.79998779297</ele>
        <time>2020-05-27T08:50:33.000Z</time>
      </trkpt>
      <trkpt lat="43.92983" lon="7.16416">
        <ele>714.79998779297</ele>
        <time>2020-05-27T08:50:36.000Z</time>
      </trkpt>
      <trkpt lat="43.92983" lon="7.16416">
        <ele>714.79998779297</ele>
        <time>2020-05-27T08:50:40.000Z</time>
      </trkpt>
      <trkpt lat="43.92983" lon="7.16415">
        <ele>714.79998779297</ele>
        <time>2020-05-27T08:50:41.000Z</time>
      </trkpt>
      <trkpt lat="43.92985" lon="7.16418">
        <ele>715</ele>
        <time>2020-05-27T08:50:45.000Z</time>
      </trkpt>
      <trkpt lat="43.92986" lon="7.16419">
        <ele>715</ele>
        <time>2020-05-27T08:50:47.000Z</time>
      </trkpt>
      <trkpt lat="43.92987" lon="7.1642">
        <ele>715</ele>
        <time>2020-05-27T08:50:48.000Z</time>
      </trkpt>
      <trkpt lat="43.92989" lon="7.16421">
        <ele>715.20001220703</ele>
        <time>2020-05-27T08:50:53.000Z</time>
      </trkpt>
      <trkpt lat="43.92989" lon="7.1642">
        <ele>715.20001220703</ele>
        <time>2020-05-27T08:50:59.000Z</time>
      </trkpt>
      <trkpt lat="43.9299" lon="7.1642">
        <ele>715.20001220703</ele>
        <time>2020-05-27T08:51:13.000Z</time>
      </trkpt>
      <trkpt lat="43.9299" lon="7.16419">
        <ele>715.20001220703</ele>
        <time>2020-05-27T08:51:21.000Z</time>
      </trkpt>
      <trkpt lat="43.9299" lon="7.1642">
        <ele>715.40002441406</ele>
        <time>2020-05-27T08:51:23.000Z</time>
      </trkpt>
      <trkpt lat="43.9299" lon="7.1642">
        <ele>715.79998779297</ele>
        <time>2020-05-27T08:51:27.000Z</time>
      </trkpt>
      <trkpt lat="43.9299" lon="7.16422">
        <ele>715</ele>
        <time>2020-05-27T08:51:35.000Z</time>
      </trkpt>
      <trkpt lat="43.9299" lon="7.16421">
        <ele>715</ele>
        <time>2020-05-27T08:51:39.000Z</time>
      </trkpt>
      <trkpt lat="43.92991" lon="7.16421">
        <ele>715</ele>
        <time>2020-05-27T08:51:40.000Z</time>
      </trkpt>
      <trkpt lat="43.92997" lon="7.1642">
        <ele>715.79998779297</ele>
        <time>2020-05-27T08:51:46.000Z</time>
      </trkpt>
      <trkpt lat="43.93003" lon="7.16419">
        <ele>716.20001220703</ele>
        <time>2020-05-27T08:51:53.000Z</time>
      </trkpt>
      <trkpt lat="43.93003" lon="7.16419">
        <ele>716.40002441406</ele>
        <time>2020-05-27T08:52:01.000Z</time>
      </trkpt>
      <trkpt lat="43.93004" lon="7.16419">
        <ele>716.20001220703</ele>
        <time>2020-05-27T08:52:18.000Z</time>
      </trkpt>
      <trkpt lat="43.93004" lon="7.16419">
        <ele>716.20001220703</ele>
        <time>2020-05-27T08:52:30.000Z</time>
      </trkpt>
      <trkpt lat="43.93006" lon="7.1642">
        <ele>716</ele>
        <time>2020-05-27T08:52:40.000Z</time>
      </trkpt>
      <trkpt lat="43.93006" lon="7.16419">
        <ele>716.59997558594</ele>
        <time>2020-05-27T08:52:57.000Z</time>
      </trkpt>
      <trkpt lat="43.93006" lon="7.16419">
        <ele>716.59997558594</ele>
        <time>2020-05-27T08:52:59.000Z</time>
      </trkpt>
      <trkpt lat="43.93006" lon="7.1642">
        <ele>716.59997558594</ele>
        <time>2020-05-27T08:53:12.000Z</time>
      </trkpt>
      <trkpt lat="43.93006" lon="7.1642">
        <ele>716</ele>
        <time>2020-05-27T08:53:26.000Z</time>
      </trkpt>
      <trkpt lat="43.93006" lon="7.1642">
        <ele>715.79998779297</ele>
        <time>2020-05-27T08:53:35.000Z</time>
      </trkpt>
      <trkpt lat="43.93006" lon="7.1642">
        <ele>716</ele>
        <time>2020-05-27T08:53:58.000Z</time>
      </trkpt>
      <trkpt lat="43.93006" lon="7.1642">
        <ele>715.79998779297</ele>
        <time>2020-05-27T08:54:25.000Z</time>
      </trkpt>
      <trkpt lat="43.93006" lon="7.1642">
        <ele>715.79998779297</ele>
        <time>2020-05-27T08:54:56.000Z</time>
      </trkpt>
      <trkpt lat="43.93007" lon="7.16419">
        <ele>715.79998779297</ele>
        <time>2020-05-27T08:55:32.000Z</time>
      </trkpt>
      <trkpt lat="43.93007" lon="7.16419">
        <ele>715.59997558594</ele>
        <time>2020-05-27T08:56:00.000Z</time>
      </trkpt>
      <trkpt lat="43.93007" lon="7.16419">
        <ele>715.40002441406</ele>
        <time>2020-05-27T08:56:01.000Z</time>
      </trkpt>
      <trkpt lat="43.93007" lon="7.16419">
        <ele>715.59997558594</ele>
        <time>2020-05-27T08:56:13.000Z</time>
      </trkpt>
      <trkpt lat="43.93008" lon="7.16419">
        <ele>715.79998779297</ele>
        <time>2020-05-27T08:56:33.000Z</time>
      </trkpt>
      <trkpt lat="43.93011" lon="7.16419">
        <ele>715.59997558594</ele>
        <time>2020-05-27T08:56:36.000Z</time>
      </trkpt>
      <trkpt lat="43.93013" lon="7.16418">
        <ele>715.59997558594</ele>
        <time>2020-05-27T08:56:38.000Z</time>
      </trkpt>
      <trkpt lat="43.93015" lon="7.16417">
        <ele>715.59997558594</ele>
        <time>2020-05-27T08:56:40.000Z</time>
      </trkpt>
      <trkpt lat="43.93017" lon="7.16417">
        <ele>715.59997558594</ele>
        <time>2020-05-27T08:56:44.000Z</time>
      </trkpt>
      <trkpt lat="43.93023" lon="7.16419">
        <ele>715.20001220703</ele>
        <time>2020-05-27T08:56:52.000Z</time>
      </trkpt>
      <trkpt lat="43.93028" lon="7.16427">
        <ele>715</ele>
        <time>2020-05-27T08:56:54.000Z</time>
      </trkpt>
      <trkpt lat="43.9303" lon="7.16432">
        <ele>714.59997558594</ele>
        <time>2020-05-27T08:56:55.000Z</time>
      </trkpt>
      <trkpt lat="43.93033" lon="7.16437">
        <ele>714.20001220703</ele>
        <time>2020-05-27T08:56:56.000Z</time>
      </trkpt>
      <trkpt lat="43.93035" lon="7.16443">
        <ele>713.20001220703</ele>
        <time>2020-05-27T08:56:58.000Z</time>
      </trkpt>
      <trkpt lat="43.93035" lon="7.16447">
        <ele>712.79998779297</ele>
        <time>2020-05-27T08:56:59.000Z</time>
      </trkpt>
      <trkpt lat="43.93037" lon="7.16449">
        <ele>712.79998779297</ele>
        <time>2020-05-27T08:57:00.000Z</time>
      </trkpt>
      <trkpt lat="43.93038" lon="7.16456">
        <ele>712</ele>
        <time>2020-05-27T08:57:02.000Z</time>
      </trkpt>
      <trkpt lat="43.93038" lon="7.16461">
        <ele>710.20001220703</ele>
        <time>2020-05-27T08:57:05.000Z</time>
      </trkpt>
      <trkpt lat="43.93038" lon="7.16462">
        <ele>709.59997558594</ele>
        <time>2020-05-27T08:57:06.000Z</time>
      </trkpt>
      <trkpt lat="43.93038" lon="7.16461">
        <ele>708.79998779297</ele>
        <time>2020-05-27T08:57:07.000Z</time>
      </trkpt>
      <trkpt lat="43.93039" lon="7.16461">
        <ele>707.59997558594</ele>
        <time>2020-05-27T08:57:09.000Z</time>
      </trkpt>
      <trkpt lat="43.93039" lon="7.16461">
        <ele>706.79998779297</ele>
        <time>2020-05-27T08:57:12.000Z</time>
      </trkpt>
      <trkpt lat="43.9304" lon="7.16461">
        <ele>706.59997558594</ele>
        <time>2020-05-27T08:57:13.000Z</time>
      </trkpt>
      <trkpt lat="43.93041" lon="7.16459">
        <ele>706.40002441406</ele>
        <time>2020-05-27T08:57:15.000Z</time>
      </trkpt>
      <trkpt lat="43.93047" lon="7.16455">
        <ele>706.20001220703</ele>
        <time>2020-05-27T08:57:17.000Z</time>
      </trkpt>
      <trkpt lat="43.93051" lon="7.16453">
        <ele>705.59997558594</ele>
        <time>2020-05-27T08:57:18.000Z</time>
      </trkpt>
      <trkpt lat="43.93054" lon="7.16451">
        <ele>705.59997558594</ele>
        <time>2020-05-27T08:57:19.000Z</time>
      </trkpt>
      <trkpt lat="43.9306" lon="7.16441">
        <ele>704.79998779297</ele>
        <time>2020-05-27T08:57:21.000Z</time>
      </trkpt>
      <trkpt lat="43.93064" lon="7.16435">
        <ele>704.20001220703</ele>
        <time>2020-05-27T08:57:22.000Z</time>
      </trkpt>
      <trkpt lat="43.93075" lon="7.16418">
        <ele>702.79998779297</ele>
        <time>2020-05-27T08:57:25.000Z</time>
      </trkpt>
      <trkpt lat="43.93079" lon="7.16411">
        <ele>702.20001220703</ele>
        <time>2020-05-27T08:57:26.000Z</time>
      </trkpt>
      <trkpt lat="43.93082" lon="7.16406">
        <ele>701.40002441406</ele>
        <time>2020-05-27T08:57:27.000Z</time>
      </trkpt>
      <trkpt lat="43.93085" lon="7.16399">
        <ele>699.79998779297</ele>
        <time>2020-05-27T08:57:29.000Z</time>
      </trkpt>
      <trkpt lat="43.93086" lon="7.16388">
        <ele>698</ele>
        <time>2020-05-27T08:57:31.000Z</time>
      </trkpt>
      <trkpt lat="43.93082" lon="7.16378">
        <ele>696.59997558594</ele>
        <time>2020-05-27T08:57:33.000Z</time>
      </trkpt>
      <trkpt lat="43.9308" lon="7.16372">
        <ele>695.79998779297</ele>
        <time>2020-05-27T08:57:34.000Z</time>
      </trkpt>
      <trkpt lat="43.93078" lon="7.16365">
        <ele>695.40002441406</ele>
        <time>2020-05-27T08:57:35.000Z</time>
      </trkpt>
      <trkpt lat="43.93079" lon="7.16351">
        <ele>694.79998779297</ele>
        <time>2020-05-27T08:57:37.000Z</time>
      </trkpt>
      <trkpt lat="43.9308" lon="7.16344">
        <ele>694.40002441406</ele>
        <time>2020-05-27T08:57:38.000Z</time>
      </trkpt>
      <trkpt lat="43.93081" lon="7.16336">
        <ele>694</ele>
        <time>2020-05-27T08:57:39.000Z</time>
      </trkpt>
      <trkpt lat="43.9308" lon="7.16327">
        <ele>693.40002441406</ele>
        <time>2020-05-27T08:57:40.000Z</time>
      </trkpt>
      <trkpt lat="43.93079" lon="7.16317">
        <ele>693.20001220703</ele>
        <time>2020-05-27T08:57:41.000Z</time>
      </trkpt>
      <trkpt lat="43.9308" lon="7.16299">
        <ele>691.59997558594</ele>
        <time>2020-05-27T08:57:43.000Z</time>
      </trkpt>
      <trkpt lat="43.93081" lon="7.16293">
        <ele>690</ele>
        <time>2020-05-27T08:57:44.000Z</time>
      </trkpt>
      <trkpt lat="43.93081" lon="7.16285">
        <ele>688</ele>
        <time>2020-05-27T08:57:45.000Z</time>
      </trkpt>
      <trkpt lat="43.93083" lon="7.16275">
        <ele>686.20001220703</ele>
        <time>2020-05-27T08:57:46.000Z</time>
      </trkpt>
      <trkpt lat="43.93084" lon="7.16265">
        <ele>685.79998779297</ele>
        <time>2020-05-27T08:57:47.000Z</time>
      </trkpt>
      <trkpt lat="43.93089" lon="7.16257">
        <ele>683.79998779297</ele>
        <time>2020-05-27T08:57:48.000Z</time>
      </trkpt>
      <trkpt lat="43.93091" lon="7.16253">
        <ele>682</ele>
        <time>2020-05-27T08:57:49.000Z</time>
      </trkpt>
      <trkpt lat="43.93103" lon="7.16234">
        <ele>677.59997558594</ele>
        <time>2020-05-27T08:57:51.000Z</time>
      </trkpt>
      <trkpt lat="43.93109" lon="7.16232">
        <ele>677</ele>
        <time>2020-05-27T08:57:52.000Z</time>
      </trkpt>
      <trkpt lat="43.93115" lon="7.1623">
        <ele>675.20001220703</ele>
        <time>2020-05-27T08:57:53.000Z</time>
      </trkpt>
      <trkpt lat="43.9312" lon="7.16226">
        <ele>673</ele>
        <time>2020-05-27T08:57:54.000Z</time>
      </trkpt>
      <trkpt lat="43.93125" lon="7.16221">
        <ele>671.40002441406</ele>
        <time>2020-05-27T08:57:55.000Z</time>
      </trkpt>
      <trkpt lat="43.93131" lon="7.16214">
        <ele>670.20001220703</ele>
        <time>2020-05-27T08:57:56.000Z</time>
      </trkpt>
      <trkpt lat="43.93137" lon="7.16207">
        <ele>669.40002441406</ele>
        <time>2020-05-27T08:57:57.000Z</time>
      </trkpt>
      <trkpt lat="43.93144" lon="7.16201">
        <ele>668.59997558594</ele>
        <time>2020-05-27T08:57:58.000Z</time>
      </trkpt>
      <trkpt lat="43.93155" lon="7.1619">
        <ele>667</ele>
        <time>2020-05-27T08:58:00.000Z</time>
      </trkpt>
      <trkpt lat="43.9316" lon="7.16183">
        <ele>666.40002441406</ele>
        <time>2020-05-27T08:58:01.000Z</time>
      </trkpt>
      <trkpt lat="43.93163" lon="7.16176">
        <ele>665.79998779297</ele>
        <time>2020-05-27T08:58:02.000Z</time>
      </trkpt>
      <trkpt lat="43.93174" lon="7.16157">
        <ele>664.79998779297</ele>
        <time>2020-05-27T08:58:05.000Z</time>
      </trkpt>
      <trkpt lat="43.9318" lon="7.1615">
        <ele>664.40002441406</ele>
        <time>2020-05-27T08:58:06.000Z</time>
      </trkpt>
      <trkpt lat="43.93191" lon="7.16142">
        <ele>662.59997558594</ele>
        <time>2020-05-27T08:58:08.000Z</time>
      </trkpt>
      <trkpt lat="43.93195" lon="7.16135">
        <ele>661.40002441406</ele>
        <time>2020-05-27T08:58:09.000Z</time>
      </trkpt>
      <trkpt lat="43.932" lon="7.1612">
        <ele>659.79998779297</ele>
        <time>2020-05-27T08:58:11.000Z</time>
      </trkpt>
      <trkpt lat="43.93206" lon="7.16106">
        <ele>658</ele>
        <time>2020-05-27T08:58:13.000Z</time>
      </trkpt>
      <trkpt lat="43.93209" lon="7.16099">
        <ele>656.79998779297</ele>
        <time>2020-05-27T08:58:14.000Z</time>
      </trkpt>
      <trkpt lat="43.93212" lon="7.16092">
        <ele>655.79998779297</ele>
        <time>2020-05-27T08:58:15.000Z</time>
      </trkpt>
      <trkpt lat="43.93215" lon="7.16084">
        <ele>654.59997558594</ele>
        <time>2020-05-27T08:58:16.000Z</time>
      </trkpt>
      <trkpt lat="43.93215" lon="7.16078">
        <ele>653.40002441406</ele>
        <time>2020-05-27T08:58:17.000Z</time>
      </trkpt>
      <trkpt lat="43.9322" lon="7.16066">
        <ele>651.59997558594</ele>
        <time>2020-05-27T08:58:19.000Z</time>
      </trkpt>
      <trkpt lat="43.93222" lon="7.1606">
        <ele>650.59997558594</ele>
        <time>2020-05-27T08:58:20.000Z</time>
      </trkpt>
      <trkpt lat="43.9323" lon="7.16045">
        <ele>648.40002441406</ele>
        <time>2020-05-27T08:58:22.000Z</time>
      </trkpt>
      <trkpt lat="43.93235" lon="7.16038">
        <ele>647</ele>
        <time>2020-05-27T08:58:23.000Z</time>
      </trkpt>
      <trkpt lat="43.93241" lon="7.16031">
        <ele>645.40002441406</ele>
        <time>2020-05-27T08:58:24.000Z</time>
      </trkpt>
      <trkpt lat="43.93244" lon="7.16025">
        <ele>643.79998779297</ele>
        <time>2020-05-27T08:58:25.000Z</time>
      </trkpt>
      <trkpt lat="43.93247" lon="7.16019">
        <ele>642.20001220703</ele>
        <time>2020-05-27T08:58:26.000Z</time>
      </trkpt>
      <trkpt lat="43.9325" lon="7.16015">
        <ele>641</ele>
        <time>2020-05-27T08:58:27.000Z</time>
      </trkpt>
      <trkpt lat="43.93254" lon="7.16009">
        <ele>639.79998779297</ele>
        <time>2020-05-27T08:58:28.000Z</time>
      </trkpt>
      <trkpt lat="43.93259" lon="7.16002">
        <ele>638.79998779297</ele>
        <time>2020-05-27T08:58:29.000Z</time>
      </trkpt>
      <trkpt lat="43.93263" lon="7.15996">
        <ele>637.40002441406</ele>
        <time>2020-05-27T08:58:30.000Z</time>
      </trkpt>
      <trkpt lat="43.93274" lon="7.15982">
        <ele>636</ele>
        <time>2020-05-27T08:58:32.000Z</time>
      </trkpt>
      <trkpt lat="43.93282" lon="7.15969">
        <ele>635</ele>
        <time>2020-05-27T08:58:34.000Z</time>
      </trkpt>
      <trkpt lat="43.93285" lon="7.15966">
        <ele>635</ele>
        <time>2020-05-27T08:58:35.000Z</time>
      </trkpt>
      <trkpt lat="43.93288" lon="7.15964">
        <ele>634.59997558594</ele>
        <time>2020-05-27T08:58:38.000Z</time>
      </trkpt>
      <trkpt lat="43.93289" lon="7.15965">
        <ele>634.40002441406</ele>
        <time>2020-05-27T08:58:45.000Z</time>
      </trkpt>
      <trkpt lat="43.93288" lon="7.15964">
        <ele>634.20001220703</ele>
        <time>2020-05-27T08:58:49.000Z</time>
      </trkpt>
      <trkpt lat="43.93288" lon="7.15964">
        <ele>634</ele>
        <time>2020-05-27T08:58:54.000Z</time>
      </trkpt>
      <trkpt lat="43.93288" lon="7.15964">
        <ele>634</ele>
        <time>2020-05-27T08:58:55.000Z</time>
      </trkpt>
      <trkpt lat="43.93288" lon="7.15965">
        <ele>633.59997558594</ele>
        <time>2020-05-27T08:59:03.000Z</time>
      </trkpt>
      <trkpt lat="43.93288" lon="7.15964">
        <ele>633.20001220703</ele>
        <time>2020-05-27T08:59:07.000Z</time>
      </trkpt>
      <trkpt lat="43.93288" lon="7.15964">
        <ele>633</ele>
        <time>2020-05-27T08:59:08.000Z</time>
      </trkpt>
      <trkpt lat="43.93288" lon="7.15963">
        <ele>631.79998779297</ele>
        <time>2020-05-27T08:59:13.000Z</time>
      </trkpt>
      <trkpt lat="43.9329" lon="7.15962">
        <ele>631.59997558594</ele>
        <time>2020-05-27T08:59:15.000Z</time>
      </trkpt>
      <trkpt lat="43.93299" lon="7.15952">
        <ele>630.79998779297</ele>
        <time>2020-05-27T08:59:20.000Z</time>
      </trkpt>
      <trkpt lat="43.93309" lon="7.15934">
        <ele>630.40002441406</ele>
        <time>2020-05-27T08:59:25.000Z</time>
      </trkpt>
      <trkpt lat="43.93318" lon="7.15917">
        <ele>632</ele>
        <time>2020-05-27T08:59:32.000Z</time>
      </trkpt>
      <trkpt lat="43.93323" lon="7.15912">
        <ele>633.20001220703</ele>
        <time>2020-05-27T08:59:35.000Z</time>
      </trkpt>
      <trkpt lat="43.93327" lon="7.15907">
        <ele>634.20001220703</ele>
        <time>2020-05-27T08:59:38.000Z</time>
      </trkpt>
      <trkpt lat="43.93331" lon="7.15901">
        <ele>635.40002441406</ele>
        <time>2020-05-27T08:59:41.000Z</time>
      </trkpt>
      <trkpt lat="43.93336" lon="7.15893">
        <ele>636.59997558594</ele>
        <time>2020-05-27T08:59:46.000Z</time>
      </trkpt>
      <trkpt lat="43.93337" lon="7.15891">
        <ele>636.79998779297</ele>
        <time>2020-05-27T08:59:47.000Z</time>
      </trkpt>
      <trkpt lat="43.93339" lon="7.15884">
        <ele>637.79998779297</ele>
        <time>2020-05-27T08:59:50.000Z</time>
      </trkpt>
      <trkpt lat="43.93342" lon="7.15874">
        <ele>638.40002441406</ele>
        <time>2020-05-27T08:59:54.000Z</time>
      </trkpt>
      <trkpt lat="43.93346" lon="7.15862">
        <ele>638.79998779297</ele>
        <time>2020-05-27T08:59:59.000Z</time>
      </trkpt>
      <trkpt lat="43.93348" lon="7.15859">
        <ele>639</ele>
        <time>2020-05-27T09:00:00.000Z</time>
      </trkpt>
      <trkpt lat="43.93359" lon="7.15841">
        <ele>638.59997558594</ele>
        <time>2020-05-27T09:00:06.000Z</time>
      </trkpt>
      <trkpt lat="43.93373" lon="7.1583">
        <ele>639</ele>
        <time>2020-05-27T09:00:11.000Z</time>
      </trkpt>
      <trkpt lat="43.93402" lon="7.15815">
        <ele>638</ele>
        <time>2020-05-27T09:00:19.000Z</time>
      </trkpt>
      <trkpt lat="43.93406" lon="7.15813">
        <ele>637.79998779297</ele>
        <time>2020-05-27T09:00:20.000Z</time>
      </trkpt>
      <trkpt lat="43.93427" lon="7.15797">
        <ele>637.79998779297</ele>
        <time>2020-05-27T09:00:26.000Z</time>
      </trkpt>
      <trkpt lat="43.9343" lon="7.15792">
        <ele>637.79998779297</ele>
        <time>2020-05-27T09:00:27.000Z</time>
      </trkpt>
      <trkpt lat="43.93437" lon="7.1578">
        <ele>636.59997558594</ele>
        <time>2020-05-27T09:00:29.000Z</time>
      </trkpt>
      <trkpt lat="43.93454" lon="7.15772">
        <ele>635.20001220703</ele>
        <time>2020-05-27T09:00:32.000Z</time>
      </trkpt>
      <trkpt lat="43.9348" lon="7.15754">
        <ele>634.40002441406</ele>
        <time>2020-05-27T09:00:37.000Z</time>
      </trkpt>
      <trkpt lat="43.93486" lon="7.1575">
        <ele>634.20001220703</ele>
        <time>2020-05-27T09:00:38.000Z</time>
      </trkpt>
      <trkpt lat="43.9349" lon="7.15746">
        <ele>633.59997558594</ele>
        <time>2020-05-27T09:00:39.000Z</time>
      </trkpt>
      <trkpt lat="43.93501" lon="7.15738">
        <ele>633</ele>
        <time>2020-05-27T09:00:41.000Z</time>
      </trkpt>
      <trkpt lat="43.93514" lon="7.1573">
        <ele>631.79998779297</ele>
        <time>2020-05-27T09:00:43.000Z</time>
      </trkpt>
      <trkpt lat="43.93527" lon="7.15721">
        <ele>630</ele>
        <time>2020-05-27T09:00:45.000Z</time>
      </trkpt>
      <trkpt lat="43.93534" lon="7.15715">
        <ele>628.59997558594</ele>
        <time>2020-05-27T09:00:46.000Z</time>
      </trkpt>
      <trkpt lat="43.93539" lon="7.15709">
        <ele>627.59997558594</ele>
        <time>2020-05-27T09:00:47.000Z</time>
      </trkpt>
      <trkpt lat="43.93548" lon="7.15693">
        <ele>626.40002441406</ele>
        <time>2020-05-27T09:00:49.000Z</time>
      </trkpt>
      <trkpt lat="43.9355" lon="7.15667">
        <ele>625.20001220703</ele>
        <time>2020-05-27T09:00:52.000Z</time>
      </trkpt>
      <trkpt lat="43.93555" lon="7.1563">
        <ele>624.59997558594</ele>
        <time>2020-05-27T09:00:57.000Z</time>
      </trkpt>
      <trkpt lat="43.93558" lon="7.15613">
        <ele>625.59997558594</ele>
        <time>2020-05-27T09:01:01.000Z</time>
      </trkpt>
      <trkpt lat="43.93559" lon="7.15604">
        <ele>626.59997558594</ele>
        <time>2020-05-27T09:01:04.000Z</time>
      </trkpt>
      <trkpt lat="43.9356" lon="7.1559">
        <ele>628.20001220703</ele>
        <time>2020-05-27T09:01:07.000Z</time>
      </trkpt>
      <trkpt lat="43.9356" lon="7.15585">
        <ele>628.59997558594</ele>
        <time>2020-05-27T09:01:08.000Z</time>
      </trkpt>
      <trkpt lat="43.9356" lon="7.15571">
        <ele>629.79998779297</ele>
        <time>2020-05-27T09:01:11.000Z</time>
      </trkpt>
      <trkpt lat="43.93557" lon="7.15552">
        <ele>630.79998779297</ele>
        <time>2020-05-27T09:01:15.000Z</time>
      </trkpt>
      <trkpt lat="43.93555" lon="7.15547">
        <ele>631</ele>
        <time>2020-05-27T09:01:16.000Z</time>
      </trkpt>
      <trkpt lat="43.93553" lon="7.15526">
        <ele>631.20001220703</ele>
        <time>2020-05-27T09:01:21.000Z</time>
      </trkpt>
      <trkpt lat="43.93564" lon="7.15511">
        <ele>631.79998779297</ele>
        <time>2020-05-27T09:01:25.000Z</time>
      </trkpt>
      <trkpt lat="43.93569" lon="7.15499">
        <ele>631.20001220703</ele>
        <time>2020-05-27T09:01:27.000Z</time>
      </trkpt>
      <trkpt lat="43.93572" lon="7.15492">
        <ele>630.40002441406</ele>
        <time>2020-05-27T09:01:28.000Z</time>
      </trkpt>
      <trkpt lat="43.93574" lon="7.15484">
        <ele>629.59997558594</ele>
        <time>2020-05-27T09:01:29.000Z</time>
      </trkpt>
      <trkpt lat="43.93576" lon="7.15468">
        <ele>627.79998779297</ele>
        <time>2020-05-27T09:01:31.000Z</time>
      </trkpt>
      <trkpt lat="43.93577" lon="7.1546">
        <ele>627.40002441406</ele>
        <time>2020-05-27T09:01:32.000Z</time>
      </trkpt>
      <trkpt lat="43.93578" lon="7.15445">
        <ele>627.20001220703</ele>
        <time>2020-05-27T09:01:34.000Z</time>
      </trkpt>
      <trkpt lat="43.93583" lon="7.15434">
        <ele>627.40002441406</ele>
        <time>2020-05-27T09:01:36.000Z</time>
      </trkpt>
      <trkpt lat="43.93595" lon="7.15411">
        <ele>627</ele>
        <time>2020-05-27T09:01:40.000Z</time>
      </trkpt>
      <trkpt lat="43.93597" lon="7.15404">
        <ele>626.79998779297</ele>
        <time>2020-05-27T09:01:41.000Z</time>
      </trkpt>
      <trkpt lat="43.936" lon="7.15388">
        <ele>626.59997558594</ele>
        <time>2020-05-27T09:01:43.000Z</time>
      </trkpt>
      <trkpt lat="43.93599" lon="7.15375">
        <ele>626.20001220703</ele>
        <time>2020-05-27T09:01:45.000Z</time>
      </trkpt>
      <trkpt lat="43.93594" lon="7.15365">
        <ele>625.79998779297</ele>
        <time>2020-05-27T09:01:47.000Z</time>
      </trkpt>
      <trkpt lat="43.93587" lon="7.15355">
        <ele>625.79998779297</ele>
        <time>2020-05-27T09:01:49.000Z</time>
      </trkpt>
      <trkpt lat="43.93576" lon="7.15338">
        <ele>624.79998779297</ele>
        <time>2020-05-27T09:01:53.000Z</time>
      </trkpt>
      <trkpt lat="43.93573" lon="7.15332">
        <ele>624.59997558594</ele>
        <time>2020-05-27T09:01:54.000Z</time>
      </trkpt>
      <trkpt lat="43.93572" lon="7.15314">
        <ele>623.79998779297</ele>
        <time>2020-05-27T09:01:57.000Z</time>
      </trkpt>
      <trkpt lat="43.93571" lon="7.15308">
        <ele>623</ele>
        <time>2020-05-27T09:01:58.000Z</time>
      </trkpt>
      <trkpt lat="43.93572" lon="7.15298">
        <ele>621.59997558594</ele>
        <time>2020-05-27T09:02:00.000Z</time>
      </trkpt>
      <trkpt lat="43.93572" lon="7.15287">
        <ele>620.40002441406</ele>
        <time>2020-05-27T09:02:02.000Z</time>
      </trkpt>
      <trkpt lat="43.93573" lon="7.15274">
        <ele>619.20001220703</ele>
        <time>2020-05-27T09:02:04.000Z</time>
      </trkpt>
      <trkpt lat="43.93573" lon="7.15268">
        <ele>618</ele>
        <time>2020-05-27T09:02:05.000Z</time>
      </trkpt>
      <trkpt lat="43.93571" lon="7.15255">
        <ele>616</ele>
        <time>2020-05-27T09:02:07.000Z</time>
      </trkpt>
      <trkpt lat="43.93569" lon="7.15229">
        <ele>616.20001220703</ele>
        <time>2020-05-27T09:02:11.000Z</time>
      </trkpt>
      <trkpt lat="43.93569" lon="7.15222">
        <ele>616.40002441406</ele>
        <time>2020-05-27T09:02:12.000Z</time>
      </trkpt>
      <trkpt lat="43.93568" lon="7.15216">
        <ele>616.40002441406</ele>
        <time>2020-05-27T09:02:13.000Z</time>
      </trkpt>
      <trkpt lat="43.93565" lon="7.15199">
        <ele>616.40002441406</ele>
        <time>2020-05-27T09:02:16.000Z</time>
      </trkpt>
      <trkpt lat="43.93563" lon="7.15183">
        <ele>615.79998779297</ele>
        <time>2020-05-27T09:02:20.000Z</time>
      </trkpt>
      <trkpt lat="43.93566" lon="7.15182">
        <ele>614.59997558594</ele>
        <time>2020-05-27T09:02:22.000Z</time>
      </trkpt>
      <trkpt lat="43.93568" lon="7.15183">
        <ele>614.20001220703</ele>
        <time>2020-05-27T09:02:23.000Z</time>
      </trkpt>
      <trkpt lat="43.93572" lon="7.15185">
        <ele>613.79998779297</ele>
        <time>2020-05-27T09:02:24.000Z</time>
      </trkpt>
      <trkpt lat="43.93576" lon="7.15186">
        <ele>613.20001220703</ele>
        <time>2020-05-27T09:02:25.000Z</time>
      </trkpt>
      <trkpt lat="43.93583" lon="7.15188">
        <ele>610.79998779297</ele>
        <time>2020-05-27T09:02:27.000Z</time>
      </trkpt>
      <trkpt lat="43.93586" lon="7.15189">
        <ele>609.59997558594</ele>
        <time>2020-05-27T09:02:28.000Z</time>
      </trkpt>
      <trkpt lat="43.93593" lon="7.15191">
        <ele>608.40002441406</ele>
        <time>2020-05-27T09:02:30.000Z</time>
      </trkpt>
      <trkpt lat="43.936" lon="7.15195">
        <ele>607.59997558594</ele>
        <time>2020-05-27T09:02:32.000Z</time>
      </trkpt>
      <trkpt lat="43.93604" lon="7.15197">
        <ele>607.59997558594</ele>
        <time>2020-05-27T09:02:33.000Z</time>
      </trkpt>
      <trkpt lat="43.93609" lon="7.15199">
        <ele>607.20001220703</ele>
        <time>2020-05-27T09:02:34.000Z</time>
      </trkpt>
      <trkpt lat="43.93618" lon="7.15201">
        <ele>605.79998779297</ele>
        <time>2020-05-27T09:02:36.000Z</time>
      </trkpt>
      <trkpt lat="43.93628" lon="7.152">
        <ele>604.20001220703</ele>
        <time>2020-05-27T09:02:38.000Z</time>
      </trkpt>
      <trkpt lat="43.93637" lon="7.15201">
        <ele>602.40002441406</ele>
        <time>2020-05-27T09:02:40.000Z</time>
      </trkpt>
      <trkpt lat="43.93646" lon="7.15204">
        <ele>600.59997558594</ele>
        <time>2020-05-27T09:02:42.000Z</time>
      </trkpt>
      <trkpt lat="43.93651" lon="7.15205">
        <ele>599.40002441406</ele>
        <time>2020-05-27T09:02:43.000Z</time>
      </trkpt>
      <trkpt lat="43.93656" lon="7.15207">
        <ele>598.40002441406</ele>
        <time>2020-05-27T09:02:44.000Z</time>
      </trkpt>
      <trkpt lat="43.93661" lon="7.15209">
        <ele>597.59997558594</ele>
        <time>2020-05-27T09:02:45.000Z</time>
      </trkpt>
      <trkpt lat="43.93665" lon="7.1521">
        <ele>596.40002441406</ele>
        <time>2020-05-27T09:02:46.000Z</time>
      </trkpt>
      <trkpt lat="43.93672" lon="7.15208">
        <ele>594.20001220703</ele>
        <time>2020-05-27T09:02:48.000Z</time>
      </trkpt>
      <trkpt lat="43.93675" lon="7.15204">
        <ele>593.20001220703</ele>
        <time>2020-05-27T09:02:49.000Z</time>
      </trkpt>
      <trkpt lat="43.93682" lon="7.15192">
        <ele>592</ele>
        <time>2020-05-27T09:02:51.000Z</time>
      </trkpt>
      <trkpt lat="43.9369" lon="7.15183">
        <ele>590.59997558594</ele>
        <time>2020-05-27T09:02:53.000Z</time>
      </trkpt>
      <trkpt lat="43.93695" lon="7.15178">
        <ele>589.20001220703</ele>
        <time>2020-05-27T09:02:55.000Z</time>
      </trkpt>
      <trkpt lat="43.93699" lon="7.15174">
        <ele>588.59997558594</ele>
        <time>2020-05-27T09:02:56.000Z</time>
      </trkpt>
      <trkpt lat="43.93703" lon="7.1517">
        <ele>588</ele>
        <time>2020-05-27T09:02:57.000Z</time>
      </trkpt>
      <trkpt lat="43.93707" lon="7.15166">
        <ele>587.40002441406</ele>
        <time>2020-05-27T09:02:58.000Z</time>
      </trkpt>
      <trkpt lat="43.93712" lon="7.15162">
        <ele>587</ele>
        <time>2020-05-27T09:02:59.000Z</time>
      </trkpt>
      <trkpt lat="43.93722" lon="7.15152">
        <ele>585.40002441406</ele>
        <time>2020-05-27T09:03:02.000Z</time>
      </trkpt>
      <trkpt lat="43.93725" lon="7.1515">
        <ele>585</ele>
        <time>2020-05-27T09:03:03.000Z</time>
      </trkpt>
      <trkpt lat="43.93729" lon="7.15149">
        <ele>584.40002441406</ele>
        <time>2020-05-27T09:03:04.000Z</time>
      </trkpt>
      <trkpt lat="43.93733" lon="7.1515">
        <ele>584.20001220703</ele>
        <time>2020-05-27T09:03:05.000Z</time>
      </trkpt>
      <trkpt lat="43.93737" lon="7.15154">
        <ele>582.79998779297</ele>
        <time>2020-05-27T09:03:06.000Z</time>
      </trkpt>
      <trkpt lat="43.93744" lon="7.1516">
        <ele>582.40002441406</ele>
        <time>2020-05-27T09:03:08.000Z</time>
      </trkpt>
      <trkpt lat="43.93748" lon="7.15163">
        <ele>581.40002441406</ele>
        <time>2020-05-27T09:03:09.000Z</time>
      </trkpt>
      <trkpt lat="43.93752" lon="7.15167">
        <ele>580.20001220703</ele>
        <time>2020-05-27T09:03:10.000Z</time>
      </trkpt>
      <trkpt lat="43.93755" lon="7.15171">
        <ele>579.20001220703</ele>
        <time>2020-05-27T09:03:11.000Z</time>
      </trkpt>
      <trkpt lat="43.93759" lon="7.15174">
        <ele>577.20001220703</ele>
        <time>2020-05-27T09:03:12.000Z</time>
      </trkpt>
      <trkpt lat="43.93763" lon="7.15176">
        <ele>575.20001220703</ele>
        <time>2020-05-27T09:03:13.000Z</time>
      </trkpt>
      <trkpt lat="43.93767" lon="7.1518">
        <ele>573.40002441406</ele>
        <time>2020-05-27T09:03:14.000Z</time>
      </trkpt>
      <trkpt lat="43.9377" lon="7.15183">
        <ele>571.20001220703</ele>
        <time>2020-05-27T09:03:15.000Z</time>
      </trkpt>
      <trkpt lat="43.93773" lon="7.15186">
        <ele>569</ele>
        <time>2020-05-27T09:03:16.000Z</time>
      </trkpt>
      <trkpt lat="43.93775" lon="7.15189">
        <ele>568</ele>
        <time>2020-05-27T09:03:17.000Z</time>
      </trkpt>
      <trkpt lat="43.93777" lon="7.15191">
        <ele>566.40002441406</ele>
        <time>2020-05-27T09:03:18.000Z</time>
      </trkpt>
      <trkpt lat="43.93779" lon="7.15194">
        <ele>565.40002441406</ele>
        <time>2020-05-27T09:03:19.000Z</time>
      </trkpt>
      <trkpt lat="43.9378" lon="7.15197">
        <ele>563.59997558594</ele>
        <time>2020-05-27T09:03:20.000Z</time>
      </trkpt>
      <trkpt lat="43.93782" lon="7.15198">
        <ele>562.40002441406</ele>
        <time>2020-05-27T09:03:21.000Z</time>
      </trkpt>
      <trkpt lat="43.93782" lon="7.15196">
        <ele>561.40002441406</ele>
        <time>2020-05-27T09:03:22.000Z</time>
      </trkpt>
      <trkpt lat="43.93782" lon="7.1519">
        <ele>559.59997558594</ele>
        <time>2020-05-27T09:03:24.000Z</time>
      </trkpt>
      <trkpt lat="43.9378" lon="7.15181">
        <ele>558.20001220703</ele>
        <time>2020-05-27T09:03:26.000Z</time>
      </trkpt>
      <trkpt lat="43.93781" lon="7.15177">
        <ele>556.79998779297</ele>
        <time>2020-05-27T09:03:28.000Z</time>
      </trkpt>
      <trkpt lat="43.93783" lon="7.15179">
        <ele>555.40002441406</ele>
        <time>2020-05-27T09:03:30.000Z</time>
      </trkpt>
      <trkpt lat="43.93785" lon="7.15182">
        <ele>555</ele>
        <time>2020-05-27T09:03:31.000Z</time>
      </trkpt>
      <trkpt lat="43.9379" lon="7.15189">
        <ele>554.20001220703</ele>
        <time>2020-05-27T09:03:33.000Z</time>
      </trkpt>
      <trkpt lat="43.93794" lon="7.15196">
        <ele>553.40002441406</ele>
        <time>2020-05-27T09:03:35.000Z</time>
      </trkpt>
      <trkpt lat="43.93797" lon="7.15201">
        <ele>552.40002441406</ele>
        <time>2020-05-27T09:03:36.000Z</time>
      </trkpt>
      <trkpt lat="43.938" lon="7.15206">
        <ele>551.79998779297</ele>
        <time>2020-05-27T09:03:37.000Z</time>
      </trkpt>
      <trkpt lat="43.93802" lon="7.15212">
        <ele>550.40002441406</ele>
        <time>2020-05-27T09:03:38.000Z</time>
      </trkpt>
      <trkpt lat="43.93804" lon="7.15218">
        <ele>549.59997558594</ele>
        <time>2020-05-27T09:03:39.000Z</time>
      </trkpt>
      <trkpt lat="43.93805" lon="7.15223">
        <ele>548.79998779297</ele>
        <time>2020-05-27T09:03:40.000Z</time>
      </trkpt>
      <trkpt lat="43.93811" lon="7.15231">
        <ele>546.59997558594</ele>
        <time>2020-05-27T09:03:42.000Z</time>
      </trkpt>
      <trkpt lat="43.93815" lon="7.15232">
        <ele>545.20001220703</ele>
        <time>2020-05-27T09:03:43.000Z</time>
      </trkpt>
      <trkpt lat="43.93822" lon="7.15236">
        <ele>542.59997558594</ele>
        <time>2020-05-27T09:03:45.000Z</time>
      </trkpt>
      <trkpt lat="43.93826" lon="7.15239">
        <ele>541.59997558594</ele>
        <time>2020-05-27T09:03:46.000Z</time>
      </trkpt>
      <trkpt lat="43.93829" lon="7.15241">
        <ele>541</ele>
        <time>2020-05-27T09:03:47.000Z</time>
      </trkpt>
      <trkpt lat="43.93836" lon="7.15246">
        <ele>539.79998779297</ele>
        <time>2020-05-27T09:03:49.000Z</time>
      </trkpt>
      <trkpt lat="43.93844" lon="7.1525">
        <ele>538.79998779297</ele>
        <time>2020-05-27T09:03:51.000Z</time>
      </trkpt>
      <trkpt lat="43.93848" lon="7.15253">
        <ele>538.20001220703</ele>
        <time>2020-05-27T09:03:52.000Z</time>
      </trkpt>
      <trkpt lat="43.93852" lon="7.15255">
        <ele>537.40002441406</ele>
        <time>2020-05-27T09:03:53.000Z</time>
      </trkpt>
      <trkpt lat="43.93856" lon="7.15258">
        <ele>536.20001220703</ele>
        <time>2020-05-27T09:03:54.000Z</time>
      </trkpt>
      <trkpt lat="43.93859" lon="7.1526">
        <ele>535.20001220703</ele>
        <time>2020-05-27T09:03:55.000Z</time>
      </trkpt>
      <trkpt lat="43.93863" lon="7.15262">
        <ele>534.79998779297</ele>
        <time>2020-05-27T09:03:56.000Z</time>
      </trkpt>
      <trkpt lat="43.93866" lon="7.15263">
        <ele>533.79998779297</ele>
        <time>2020-05-27T09:03:57.000Z</time>
      </trkpt>
      <trkpt lat="43.9387" lon="7.15264">
        <ele>533.20001220703</ele>
        <time>2020-05-27T09:03:58.000Z</time>
      </trkpt>
      <trkpt lat="43.93882" lon="7.1527">
        <ele>531.20001220703</ele>
        <time>2020-05-27T09:04:01.000Z</time>
      </trkpt>
      <trkpt lat="43.93886" lon="7.15271">
        <ele>530.20001220703</ele>
        <time>2020-05-27T09:04:02.000Z</time>
      </trkpt>
      <trkpt lat="43.9389" lon="7.15273">
        <ele>529</ele>
        <time>2020-05-27T09:04:03.000Z</time>
      </trkpt>
      <trkpt lat="43.93898" lon="7.15274">
        <ele>527.40002441406</ele>
        <time>2020-05-27T09:04:05.000Z</time>
      </trkpt>
      <trkpt lat="43.93903" lon="7.15277">
        <ele>526.79998779297</ele>
        <time>2020-05-27T09:04:06.000Z</time>
      </trkpt>
      <trkpt lat="43.93906" lon="7.15278">
        <ele>525.20001220703</ele>
        <time>2020-05-27T09:04:07.000Z</time>
      </trkpt>
      <trkpt lat="43.93911" lon="7.15279">
        <ele>523</ele>
        <time>2020-05-27T09:04:09.000Z</time>
      </trkpt>
      <trkpt lat="43.93912" lon="7.1528">
        <ele>521.59997558594</ele>
        <time>2020-05-27T09:04:10.000Z</time>
      </trkpt>
      <trkpt lat="43.93912" lon="7.1528">
        <ele>520</ele>
        <time>2020-05-27T09:04:11.000Z</time>
      </trkpt>
      <trkpt lat="43.93912" lon="7.1528">
        <ele>519</ele>
        <time>2020-05-27T09:04:13.000Z</time>
      </trkpt>
      <trkpt lat="43.93912" lon="7.1528">
        <ele>518.59997558594</ele>
        <time>2020-05-27T09:04:14.000Z</time>
      </trkpt>
      <trkpt lat="43.93912" lon="7.15281">
        <ele>518.59997558594</ele>
        <time>2020-05-27T09:04:23.000Z</time>
      </trkpt>
      <trkpt lat="43.93912" lon="7.15282">
        <ele>519</ele>
        <time>2020-05-27T09:04:30.000Z</time>
      </trkpt>
      <trkpt lat="43.93913" lon="7.15284">
        <ele>518.59997558594</ele>
        <time>2020-05-27T09:04:39.000Z</time>
      </trkpt>
      <trkpt lat="43.93919" lon="7.15291">
        <ele>518.79998779297</ele>
        <time>2020-05-27T09:04:44.000Z</time>
      </trkpt>
      <trkpt lat="43.93928" lon="7.153">
        <ele>519</ele>
        <time>2020-05-27T09:04:49.000Z</time>
      </trkpt>
      <trkpt lat="43.93941" lon="7.15304">
        <ele>519.40002441406</ele>
        <time>2020-05-27T09:04:54.000Z</time>
      </trkpt>
      <trkpt lat="43.93956" lon="7.15299">
        <ele>518.79998779297</ele>
        <time>2020-05-27T09:04:58.000Z</time>
      </trkpt>
      <trkpt lat="43.93971" lon="7.15295">
        <ele>517.40002441406</ele>
        <time>2020-05-27T09:05:02.000Z</time>
      </trkpt>
      <trkpt lat="43.93974" lon="7.15294">
        <ele>517.20001220703</ele>
        <time>2020-05-27T09:05:03.000Z</time>
      </trkpt>
      <trkpt lat="43.93995" lon="7.15284">
        <ele>516.20001220703</ele>
        <time>2020-05-27T09:05:09.000Z</time>
      </trkpt>
      <trkpt lat="43.9401" lon="7.1528">
        <ele>516</ele>
        <time>2020-05-27T09:05:13.000Z</time>
      </trkpt>
      <trkpt lat="43.94026" lon="7.15276">
        <ele>515.20001220703</ele>
        <time>2020-05-27T09:05:17.000Z</time>
      </trkpt>
      <trkpt lat="43.94031" lon="7.15274">
        <ele>515</ele>
        <time>2020-05-27T09:05:18.000Z</time>
      </trkpt>
      <trkpt lat="43.94039" lon="7.15266">
        <ele>515.20001220703</ele>
        <time>2020-05-27T09:05:22.000Z</time>
      </trkpt>
      <trkpt lat="43.94046" lon="7.1526">
        <ele>515.59997558594</ele>
        <time>2020-05-27T09:05:27.000Z</time>
      </trkpt>
      <trkpt lat="43.94051" lon="7.15254">
        <ele>516</ele>
        <time>2020-05-27T09:05:31.000Z</time>
      </trkpt>
      <trkpt lat="43.94053" lon="7.15251">
        <ele>516.59997558594</ele>
        <time>2020-05-27T09:05:33.000Z</time>
      </trkpt>
      <trkpt lat="43.94058" lon="7.15246">
        <ele>517.59997558594</ele>
        <time>2020-05-27T09:05:37.000Z</time>
      </trkpt>
      <trkpt lat="43.9406" lon="7.15245">
        <ele>517.59997558594</ele>
        <time>2020-05-27T09:05:38.000Z</time>
      </trkpt>
      <trkpt lat="43.94063" lon="7.15242">
        <ele>518.59997558594</ele>
        <time>2020-05-27T09:05:41.000Z</time>
      </trkpt>
      <trkpt lat="43.94064" lon="7.1524">
        <ele>519.59997558594</ele>
        <time>2020-05-27T09:05:44.000Z</time>
      </trkpt>
      <trkpt lat="43.94065" lon="7.15239">
        <ele>519.59997558594</ele>
        <time>2020-05-27T09:05:45.000Z</time>
      </trkpt>
      <trkpt lat="43.94065" lon="7.15238">
        <ele>519.79998779297</ele>
        <time>2020-05-27T09:05:46.000Z</time>
      </trkpt>
      <trkpt lat="43.94069" lon="7.15234">
        <ele>520</ele>
        <time>2020-05-27T09:05:50.000Z</time>
      </trkpt>
      <trkpt lat="43.94075" lon="7.15228">
        <ele>521</ele>
        <time>2020-05-27T09:05:55.000Z</time>
      </trkpt>
      <trkpt lat="43.94076" lon="7.15226">
        <ele>521.40002441406</ele>
        <time>2020-05-27T09:05:56.000Z</time>
      </trkpt>
      <trkpt lat="43.94078" lon="7.15224">
        <ele>522.20001220703</ele>
        <time>2020-05-27T09:05:58.000Z</time>
      </trkpt>
      <trkpt lat="43.94079" lon="7.15223">
        <ele>522.59997558594</ele>
        <time>2020-05-27T09:05:59.000Z</time>
      </trkpt>
      <trkpt lat="43.94082" lon="7.1522">
        <ele>523.20001220703</ele>
        <time>2020-05-27T09:06:02.000Z</time>
      </trkpt>
      <trkpt lat="43.94083" lon="7.1522">
        <ele>523.40002441406</ele>
        <time>2020-05-27T09:06:03.000Z</time>
      </trkpt>
      <trkpt lat="43.94089" lon="7.15219">
        <ele>524.20001220703</ele>
        <time>2020-05-27T09:06:08.000Z</time>
      </trkpt>
      <trkpt lat="43.94091" lon="7.1522">
        <ele>524.40002441406</ele>
        <time>2020-05-27T09:06:09.000Z</time>
      </trkpt>
      <trkpt lat="43.94096" lon="7.15222">
        <ele>525.59997558594</ele>
        <time>2020-05-27T09:06:13.000Z</time>
      </trkpt>
      <trkpt lat="43.94097" lon="7.15222">
        <ele>525.79998779297</ele>
        <time>2020-05-27T09:06:14.000Z</time>
      </trkpt>
      <trkpt lat="43.94101" lon="7.15223">
        <ele>526.79998779297</ele>
        <time>2020-05-27T09:06:17.000Z</time>
      </trkpt>
      <trkpt lat="43.94106" lon="7.15225">
        <ele>527.59997558594</ele>
        <time>2020-05-27T09:06:21.000Z</time>
      </trkpt>
      <trkpt lat="43.94107" lon="7.15225">
        <ele>527.59997558594</ele>
        <time>2020-05-27T09:06:22.000Z</time>
      </trkpt>
      <trkpt lat="43.94108" lon="7.15225">
        <ele>527.79998779297</ele>
        <time>2020-05-27T09:06:23.000Z</time>
      </trkpt>
      <trkpt lat="43.94113" lon="7.15227">
        <ele>528.79998779297</ele>
        <time>2020-05-27T09:06:27.000Z</time>
      </trkpt>
      <trkpt lat="43.94115" lon="7.15227">
        <ele>529.20001220703</ele>
        <time>2020-05-27T09:06:28.000Z</time>
      </trkpt>
      <trkpt lat="43.94116" lon="7.15228">
        <ele>529.59997558594</ele>
        <time>2020-05-27T09:06:29.000Z</time>
      </trkpt>
      <trkpt lat="43.9412" lon="7.1523">
        <ele>530.40002441406</ele>
        <time>2020-05-27T09:06:32.000Z</time>
      </trkpt>
      <trkpt lat="43.94122" lon="7.15232">
        <ele>530.59997558594</ele>
        <time>2020-05-27T09:06:34.000Z</time>
      </trkpt>
      <trkpt lat="43.9413" lon="7.15234">
        <ele>531.40002441406</ele>
        <time>2020-05-27T09:06:40.000Z</time>
      </trkpt>
      <trkpt lat="43.94133" lon="7.15235">
        <ele>531.79998779297</ele>
        <time>2020-05-27T09:06:42.000Z</time>
      </trkpt>
      <trkpt lat="43.94137" lon="7.15235">
        <ele>532.59997558594</ele>
        <time>2020-05-27T09:06:45.000Z</time>
      </trkpt>
      <trkpt lat="43.94144" lon="7.15237">
        <ele>533.40002441406</ele>
        <time>2020-05-27T09:06:49.000Z</time>
      </trkpt>
      <trkpt lat="43.94147" lon="7.15238">
        <ele>533.59997558594</ele>
        <time>2020-05-27T09:06:51.000Z</time>
      </trkpt>
      <trkpt lat="43.94154" lon="7.15243">
        <ele>534.20001220703</ele>
        <time>2020-05-27T09:06:56.000Z</time>
      </trkpt>
      <trkpt lat="43.94163" lon="7.1525">
        <ele>534.59997558594</ele>
        <time>2020-05-27T09:07:02.000Z</time>
      </trkpt>
      <trkpt lat="43.94165" lon="7.15252">
        <ele>534.79998779297</ele>
        <time>2020-05-27T09:07:03.000Z</time>
      </trkpt>
      <trkpt lat="43.9417" lon="7.15257">
        <ele>535</ele>
        <time>2020-05-27T09:07:06.000Z</time>
      </trkpt>
      <trkpt lat="43.94179" lon="7.15262">
        <ele>534.79998779297</ele>
        <time>2020-05-27T09:07:09.000Z</time>
      </trkpt>
      <trkpt lat="43.94199" lon="7.15268">
        <ele>533.59997558594</ele>
        <time>2020-05-27T09:07:14.000Z</time>
      </trkpt>
      <trkpt lat="43.94204" lon="7.15267">
        <ele>533.59997558594</ele>
        <time>2020-05-27T09:07:15.000Z</time>
      </trkpt>
      <trkpt lat="43.9422" lon="7.15264">
        <ele>533</ele>
        <time>2020-05-27T09:07:18.000Z</time>
      </trkpt>
      <trkpt lat="43.94226" lon="7.15266">
        <ele>533</ele>
        <time>2020-05-27T09:07:19.000Z</time>
      </trkpt>
      <trkpt lat="43.94231" lon="7.15267">
        <ele>532.40002441406</ele>
        <time>2020-05-27T09:07:20.000Z</time>
      </trkpt>
      <trkpt lat="43.94254" lon="7.15271">
        <ele>530.79998779297</ele>
        <time>2020-05-27T09:07:24.000Z</time>
      </trkpt>
      <trkpt lat="43.9426" lon="7.15271">
        <ele>531</ele>
        <time>2020-05-27T09:07:25.000Z</time>
      </trkpt>
      <trkpt lat="43.94271" lon="7.1527">
        <ele>530.40002441406</ele>
        <time>2020-05-27T09:07:27.000Z</time>
      </trkpt>
      <trkpt lat="43.9428" lon="7.15267">
        <ele>529.79998779297</ele>
        <time>2020-05-27T09:07:29.000Z</time>
      </trkpt>
      <trkpt lat="43.94288" lon="7.15261">
        <ele>530</ele>
        <time>2020-05-27T09:07:31.000Z</time>
      </trkpt>
      <trkpt lat="43.94293" lon="7.15258">
        <ele>530</ele>
        <time>2020-05-27T09:07:33.000Z</time>
      </trkpt>
      <trkpt lat="43.94299" lon="7.15253">
        <ele>531</ele>
        <time>2020-05-27T09:07:37.000Z</time>
      </trkpt>
      <trkpt lat="43.94301" lon="7.1525">
        <ele>531.59997558594</ele>
        <time>2020-05-27T09:07:39.000Z</time>
      </trkpt>
      <trkpt lat="43.94302" lon="7.15249">
        <ele>532.20001220703</ele>
        <time>2020-05-27T09:07:40.000Z</time>
      </trkpt>
      <trkpt lat="43.94307" lon="7.15244">
        <ele>533.20001220703</ele>
        <time>2020-05-27T09:07:44.000Z</time>
      </trkpt>
      <trkpt lat="43.94309" lon="7.15242">
        <ele>533.59997558594</ele>
        <time>2020-05-27T09:07:46.000Z</time>
      </trkpt>
      <trkpt lat="43.94315" lon="7.15233">
        <ele>534.40002441406</ele>
        <time>2020-05-27T09:07:51.000Z</time>
      </trkpt>
      <trkpt lat="43.94315" lon="7.15231">
        <ele>534.79998779297</ele>
        <time>2020-05-27T09:07:52.000Z</time>
      </trkpt>
      <trkpt lat="43.94316" lon="7.15227">
        <ele>535.79998779297</ele>
        <time>2020-05-27T09:07:54.000Z</time>
      </trkpt>
      <trkpt lat="43.94321" lon="7.15219">
        <ele>536.79998779297</ele>
        <time>2020-05-27T09:07:59.000Z</time>
      </trkpt>
      <trkpt lat="43.94322" lon="7.15218">
        <ele>536.79998779297</ele>
        <time>2020-05-27T09:08:00.000Z</time>
      </trkpt>
      <trkpt lat="43.94326" lon="7.15211">
        <ele>537.59997558594</ele>
        <time>2020-05-27T09:08:03.000Z</time>
      </trkpt>
      <trkpt lat="43.94327" lon="7.15208">
        <ele>537.59997558594</ele>
        <time>2020-05-27T09:08:04.000Z</time>
      </trkpt>
      <trkpt lat="43.94334" lon="7.152">
        <ele>537.59997558594</ele>
        <time>2020-05-27T09:08:06.000Z</time>
      </trkpt>
      <trkpt lat="43.94337" lon="7.15197">
        <ele>537.40002441406</ele>
        <time>2020-05-27T09:08:07.000Z</time>
      </trkpt>
      <trkpt lat="43.94354" lon="7.15188">
        <ele>537</ele>
        <time>2020-05-27T09:08:13.000Z</time>
      </trkpt>
      <trkpt lat="43.94364" lon="7.15185">
        <ele>538</ele>
        <time>2020-05-27T09:08:18.000Z</time>
      </trkpt>
      <trkpt lat="43.94369" lon="7.15182">
        <ele>538.20001220703</ele>
        <time>2020-05-27T09:08:21.000Z</time>
      </trkpt>
      <trkpt lat="43.94378" lon="7.15182">
        <ele>539</ele>
        <time>2020-05-27T09:08:26.000Z</time>
      </trkpt>
      <trkpt lat="43.9438" lon="7.15181">
        <ele>539.20001220703</ele>
        <time>2020-05-27T09:08:27.000Z</time>
      </trkpt>
      <trkpt lat="43.9439" lon="7.15173">
        <ele>539.40002441406</ele>
        <time>2020-05-27T09:08:32.000Z</time>
      </trkpt>
      <trkpt lat="43.94396" lon="7.15152">
        <ele>540</ele>
        <time>2020-05-27T09:08:39.000Z</time>
      </trkpt>
      <trkpt lat="43.94397" lon="7.1515">
        <ele>540</ele>
        <time>2020-05-27T09:08:40.000Z</time>
      </trkpt>
      <trkpt lat="43.94399" lon="7.15146">
        <ele>540.40002441406</ele>
        <time>2020-05-27T09:08:42.000Z</time>
      </trkpt>
      <trkpt lat="43.94404" lon="7.15142">
        <ele>541</ele>
        <time>2020-05-27T09:08:45.000Z</time>
      </trkpt>
      <trkpt lat="43.94406" lon="7.15139">
        <ele>541.20001220703</ele>
        <time>2020-05-27T09:08:47.000Z</time>
      </trkpt>
      <trkpt lat="43.94408" lon="7.15134">
        <ele>541.79998779297</ele>
        <time>2020-05-27T09:08:50.000Z</time>
      </trkpt>
      <trkpt lat="43.94409" lon="7.15131">
        <ele>542.40002441406</ele>
        <time>2020-05-27T09:08:52.000Z</time>
      </trkpt>
      <trkpt lat="43.9441" lon="7.15125">
        <ele>543.40002441406</ele>
        <time>2020-05-27T09:08:57.000Z</time>
      </trkpt>
      <trkpt lat="43.9441" lon="7.15115">
        <ele>544</ele>
        <time>2020-05-27T09:09:03.000Z</time>
      </trkpt>
      <trkpt lat="43.94415" lon="7.15097">
        <ele>544.20001220703</ele>
        <time>2020-05-27T09:09:11.000Z</time>
      </trkpt>
      <trkpt lat="43.94416" lon="7.15092">
        <ele>544.40002441406</ele>
        <time>2020-05-27T09:09:14.000Z</time>
      </trkpt>
      <trkpt lat="43.94419" lon="7.15087">
        <ele>545</ele>
        <time>2020-05-27T09:09:17.000Z</time>
      </trkpt>
      <trkpt lat="43.94421" lon="7.15085">
        <ele>545.59997558594</ele>
        <time>2020-05-27T09:09:19.000Z</time>
      </trkpt>
      <trkpt lat="43.94428" lon="7.15084">
        <ele>546.59997558594</ele>
        <time>2020-05-27T09:09:23.000Z</time>
      </trkpt>
      <trkpt lat="43.94436" lon="7.15083">
        <ele>547</ele>
        <time>2020-05-27T09:09:28.000Z</time>
      </trkpt>
      <trkpt lat="43.94451" lon="7.15078">
        <ele>547</ele>
        <time>2020-05-27T09:09:33.000Z</time>
      </trkpt>
      <trkpt lat="43.94469" lon="7.15078">
        <ele>546.40002441406</ele>
        <time>2020-05-27T09:09:38.000Z</time>
      </trkpt>
      <trkpt lat="43.94484" lon="7.1507">
        <ele>546.40002441406</ele>
        <time>2020-05-27T09:09:43.000Z</time>
      </trkpt>
      <trkpt lat="43.94493" lon="7.15054">
        <ele>545.79998779297</ele>
        <time>2020-05-27T09:09:47.000Z</time>
      </trkpt>
      <trkpt lat="43.94496" lon="7.15047">
        <ele>545.40002441406</ele>
        <time>2020-05-27T09:09:48.000Z</time>
      </trkpt>
      <trkpt lat="43.94505" lon="7.15023">
        <ele>544.20001220703</ele>
        <time>2020-05-27T09:09:52.000Z</time>
      </trkpt>
      <trkpt lat="43.9451" lon="7.15011">
        <ele>542.79998779297</ele>
        <time>2020-05-27T09:09:54.000Z</time>
      </trkpt>
      <trkpt lat="43.94512" lon="7.15007">
        <ele>542.59997558594</ele>
        <time>2020-05-27T09:09:55.000Z</time>
      </trkpt>
      <trkpt lat="43.94519" lon="7.14998">
        <ele>542.40002441406</ele>
        <time>2020-05-27T09:09:58.000Z</time>
      </trkpt>
      <trkpt lat="43.94524" lon="7.14993">
        <ele>543.40002441406</ele>
        <time>2020-05-27T09:10:01.000Z</time>
      </trkpt>
      <trkpt lat="43.9453" lon="7.14992">
        <ele>544</ele>
        <time>2020-05-27T09:10:04.000Z</time>
      </trkpt>
      <trkpt lat="43.94544" lon="7.14997">
        <ele>543.20001220703</ele>
        <time>2020-05-27T09:10:09.000Z</time>
      </trkpt>
      <trkpt lat="43.94547" lon="7.14999">
        <ele>542.79998779297</ele>
        <time>2020-05-27T09:10:10.000Z</time>
      </trkpt>
      <trkpt lat="43.94552" lon="7.15002">
        <ele>541.79998779297</ele>
        <time>2020-05-27T09:10:12.000Z</time>
      </trkpt>
      <trkpt lat="43.94554" lon="7.15004">
        <ele>541.20001220703</ele>
        <time>2020-05-27T09:10:13.000Z</time>
      </trkpt>
      <trkpt lat="43.94555" lon="7.15005">
        <ele>540.59997558594</ele>
        <time>2020-05-27T09:10:14.000Z</time>
      </trkpt>
      <trkpt lat="43.94558" lon="7.15008">
        <ele>539.40002441406</ele>
        <time>2020-05-27T09:10:16.000Z</time>
      </trkpt>
      <trkpt lat="43.94559" lon="7.15009">
        <ele>538.79998779297</ele>
        <time>2020-05-27T09:10:17.000Z</time>
      </trkpt>
      <trkpt lat="43.94563" lon="7.15012">
        <ele>538.20001220703</ele>
        <time>2020-05-27T09:10:19.000Z</time>
      </trkpt>
      <trkpt lat="43.94567" lon="7.15017">
        <ele>537</ele>
        <time>2020-05-27T09:10:22.000Z</time>
      </trkpt>
      <trkpt lat="43.94568" lon="7.15019">
        <ele>536.79998779297</ele>
        <time>2020-05-27T09:10:23.000Z</time>
      </trkpt>
      <trkpt lat="43.94574" lon="7.15024">
        <ele>536</ele>
        <time>2020-05-27T09:10:26.000Z</time>
      </trkpt>
      <trkpt lat="43.94579" lon="7.15025">
        <ele>535.40002441406</ele>
        <time>2020-05-27T09:10:28.000Z</time>
      </trkpt>
      <trkpt lat="43.94585" lon="7.15028">
        <ele>534.79998779297</ele>
        <time>2020-05-27T09:10:30.000Z</time>
      </trkpt>
      <trkpt lat="43.94588" lon="7.15033">
        <ele>534.40002441406</ele>
        <time>2020-05-27T09:10:31.000Z</time>
      </trkpt>
      <trkpt lat="43.9459" lon="7.15039">
        <ele>534</ele>
        <time>2020-05-27T09:10:32.000Z</time>
      </trkpt>
      <trkpt lat="43.94592" lon="7.15046">
        <ele>533.59997558594</ele>
        <time>2020-05-27T09:10:33.000Z</time>
      </trkpt>
      <trkpt lat="43.94597" lon="7.1506">
        <ele>532.20001220703</ele>
        <time>2020-05-27T09:10:35.000Z</time>
      </trkpt>
      <trkpt lat="43.94603" lon="7.15076">
        <ele>530.59997558594</ele>
        <time>2020-05-27T09:10:37.000Z</time>
      </trkpt>
      <trkpt lat="43.94606" lon="7.15082">
        <ele>529.40002441406</ele>
        <time>2020-05-27T09:10:38.000Z</time>
      </trkpt>
      <trkpt lat="43.94608" lon="7.15087">
        <ele>528.20001220703</ele>
        <time>2020-05-27T09:10:39.000Z</time>
      </trkpt>
      <trkpt lat="43.94613" lon="7.15097">
        <ele>526.79998779297</ele>
        <time>2020-05-27T09:10:41.000Z</time>
      </trkpt>
      <trkpt lat="43.94622" lon="7.15113">
        <ele>525.59997558594</ele>
        <time>2020-05-27T09:10:44.000Z</time>
      </trkpt>
      <trkpt lat="43.9463" lon="7.15123">
        <ele>524.40002441406</ele>
        <time>2020-05-27T09:10:46.000Z</time>
      </trkpt>
      <trkpt lat="43.94637" lon="7.1513">
        <ele>523.20001220703</ele>
        <time>2020-05-27T09:10:48.000Z</time>
      </trkpt>
      <trkpt lat="43.94641" lon="7.15129">
        <ele>522.40002441406</ele>
        <time>2020-05-27T09:10:49.000Z</time>
      </trkpt>
      <trkpt lat="43.94645" lon="7.15128">
        <ele>521.59997558594</ele>
        <time>2020-05-27T09:10:50.000Z</time>
      </trkpt>
      <trkpt lat="43.9465" lon="7.15126">
        <ele>521</ele>
        <time>2020-05-27T09:10:51.000Z</time>
      </trkpt>
      <trkpt lat="43.94654" lon="7.15125">
        <ele>520.40002441406</ele>
        <time>2020-05-27T09:10:52.000Z</time>
      </trkpt>
      <trkpt lat="43.94659" lon="7.15126">
        <ele>519.79998779297</ele>
        <time>2020-05-27T09:10:53.000Z</time>
      </trkpt>
      <trkpt lat="43.94668" lon="7.15131">
        <ele>519.20001220703</ele>
        <time>2020-05-27T09:10:55.000Z</time>
      </trkpt>
      <trkpt lat="43.94672" lon="7.15132">
        <ele>519</ele>
        <time>2020-05-27T09:10:56.000Z</time>
      </trkpt>
      <trkpt lat="43.94676" lon="7.15131">
        <ele>518.79998779297</ele>
        <time>2020-05-27T09:10:57.000Z</time>
      </trkpt>
      <trkpt lat="43.94692" lon="7.15116">
        <ele>518.40002441406</ele>
        <time>2020-05-27T09:11:01.000Z</time>
      </trkpt>
      <trkpt lat="43.94701" lon="7.15111">
        <ele>518</ele>
        <time>2020-05-27T09:11:03.000Z</time>
      </trkpt>
      <trkpt lat="43.94712" lon="7.15105">
        <ele>517.59997558594</ele>
        <time>2020-05-27T09:11:06.000Z</time>
      </trkpt>
      <trkpt lat="43.94727" lon="7.151">
        <ele>519.20001220703</ele>
        <time>2020-05-27T09:11:11.000Z</time>
      </trkpt>
      <trkpt lat="43.94738" lon="7.15098">
        <ele>520.20001220703</ele>
        <time>2020-05-27T09:11:15.000Z</time>
      </trkpt>
      <trkpt lat="43.94745" lon="7.15093">
        <ele>520.59997558594</ele>
        <time>2020-05-27T09:11:18.000Z</time>
      </trkpt>
      <trkpt lat="43.9476" lon="7.15077">
        <ele>521.20001220703</ele>
        <time>2020-05-27T09:11:25.000Z</time>
      </trkpt>
      <trkpt lat="43.94762" lon="7.15075">
        <ele>521.40002441406</ele>
        <time>2020-05-27T09:11:26.000Z</time>
      </trkpt>
      <trkpt lat="43.9477" lon="7.15065">
        <ele>522</ele>
        <time>2020-05-27T09:11:31.000Z</time>
      </trkpt>
      <trkpt lat="43.94773" lon="7.15058">
        <ele>522.59997558594</ele>
        <time>2020-05-27T09:11:34.000Z</time>
      </trkpt>
      <trkpt lat="43.94776" lon="7.1505">
        <ele>523.20001220703</ele>
        <time>2020-05-27T09:11:37.000Z</time>
      </trkpt>
      <trkpt lat="43.9478" lon="7.15043">
        <ele>523.59997558594</ele>
        <time>2020-05-27T09:11:40.000Z</time>
      </trkpt>
      <trkpt lat="43.94784" lon="7.15038">
        <ele>523.79998779297</ele>
        <time>2020-05-27T09:11:43.000Z</time>
      </trkpt>
      <trkpt lat="43.9479" lon="7.15034">
        <ele>524.79998779297</ele>
        <time>2020-05-27T09:11:47.000Z</time>
      </trkpt>
      <trkpt lat="43.94796" lon="7.15031">
        <ele>525.59997558594</ele>
        <time>2020-05-27T09:11:50.000Z</time>
      </trkpt>
      <trkpt lat="43.94798" lon="7.1503">
        <ele>526</ele>
        <time>2020-05-27T09:11:51.000Z</time>
      </trkpt>
      <trkpt lat="43.94806" lon="7.15029">
        <ele>527.20001220703</ele>
        <time>2020-05-27T09:11:55.000Z</time>
      </trkpt>
      <trkpt lat="43.94812" lon="7.1503">
        <ele>528.40002441406</ele>
        <time>2020-05-27T09:11:58.000Z</time>
      </trkpt>
      <trkpt lat="43.94817" lon="7.15033">
        <ele>529.59997558594</ele>
        <time>2020-05-27T09:12:01.000Z</time>
      </trkpt>
      <trkpt lat="43.9482" lon="7.15034">
        <ele>530.59997558594</ele>
        <time>2020-05-27T09:12:03.000Z</time>
      </trkpt>
      <trkpt lat="43.94821" lon="7.15034">
        <ele>531</ele>
        <time>2020-05-27T09:12:04.000Z</time>
      </trkpt>
      <trkpt lat="43.94827" lon="7.15033">
        <ele>532</ele>
        <time>2020-05-27T09:12:08.000Z</time>
      </trkpt>
      <trkpt lat="43.94828" lon="7.15032">
        <ele>532.40002441406</ele>
        <time>2020-05-27T09:12:09.000Z</time>
      </trkpt>
      <trkpt lat="43.94835" lon="7.15027">
        <ele>533.20001220703</ele>
        <time>2020-05-27T09:12:14.000Z</time>
      </trkpt>
      <trkpt lat="43.94839" lon="7.15023">
        <ele>533.79998779297</ele>
        <time>2020-05-27T09:12:17.000Z</time>
      </trkpt>
      <trkpt lat="43.94843" lon="7.15018">
        <ele>534.40002441406</ele>
        <time>2020-05-27T09:12:20.000Z</time>
      </trkpt>
      <trkpt lat="43.9485" lon="7.15011">
        <ele>535.20001220703</ele>
        <time>2020-05-27T09:12:25.000Z</time>
      </trkpt>
      <trkpt lat="43.94851" lon="7.1501">
        <ele>535.40002441406</ele>
        <time>2020-05-27T09:12:26.000Z</time>
      </trkpt>
      <trkpt lat="43.94858" lon="7.15">
        <ele>536.40002441406</ele>
        <time>2020-05-27T09:12:32.000Z</time>
      </trkpt>
      <trkpt lat="43.94861" lon="7.14995">
        <ele>537</ele>
        <time>2020-05-27T09:12:35.000Z</time>
      </trkpt>
      <trkpt lat="43.94864" lon="7.14989">
        <ele>537.59997558594</ele>
        <time>2020-05-27T09:12:38.000Z</time>
      </trkpt>
      <trkpt lat="43.94868" lon="7.14978">
        <ele>538.40002441406</ele>
        <time>2020-05-27T09:12:43.000Z</time>
      </trkpt>
      <trkpt lat="43.94869" lon="7.14973">
        <ele>538.59997558594</ele>
        <time>2020-05-27T09:12:45.000Z</time>
      </trkpt>
      <trkpt lat="43.94875" lon="7.14958">
        <ele>539.59997558594</ele>
        <time>2020-05-27T09:12:51.000Z</time>
      </trkpt>
      <trkpt lat="43.94876" lon="7.14956">
        <ele>539.59997558594</ele>
        <time>2020-05-27T09:12:52.000Z</time>
      </trkpt>
      <trkpt lat="43.94885" lon="7.14931">
        <ele>540.59997558594</ele>
        <time>2020-05-27T09:13:01.000Z</time>
      </trkpt>
      <trkpt lat="43.94886" lon="7.14928">
        <ele>540.79998779297</ele>
        <time>2020-05-27T09:13:02.000Z</time>
      </trkpt>
      <trkpt lat="43.94891" lon="7.14903">
        <ele>540.79998779297</ele>
        <time>2020-05-27T09:13:09.000Z</time>
      </trkpt>
      <trkpt lat="43.94898" lon="7.14882">
        <ele>541</ele>
        <time>2020-05-27T09:13:15.000Z</time>
      </trkpt>
      <trkpt lat="43.949" lon="7.14878">
        <ele>541</ele>
        <time>2020-05-27T09:13:16.000Z</time>
      </trkpt>
      <trkpt lat="43.94913" lon="7.14851">
        <ele>541.40002441406</ele>
        <time>2020-05-27T09:13:25.000Z</time>
      </trkpt>
      <trkpt lat="43.94925" lon="7.1484">
        <ele>541.79998779297</ele>
        <time>2020-05-27T09:13:31.000Z</time>
      </trkpt>
      <trkpt lat="43.94929" lon="7.14836">
        <ele>541.79998779297</ele>
        <time>2020-05-27T09:13:33.000Z</time>
      </trkpt>
      <trkpt lat="43.94936" lon="7.1483">
        <ele>542.79998779297</ele>
        <time>2020-05-27T09:13:38.000Z</time>
      </trkpt>
      <trkpt lat="43.94938" lon="7.14829">
        <ele>543</ele>
        <time>2020-05-27T09:13:39.000Z</time>
      </trkpt>
      <trkpt lat="43.94944" lon="7.14822">
        <ele>543.40002441406</ele>
        <time>2020-05-27T09:13:44.000Z</time>
      </trkpt>
      <trkpt lat="43.94949" lon="7.14817">
        <ele>544.20001220703</ele>
        <time>2020-05-27T09:13:48.000Z</time>
      </trkpt>
      <trkpt lat="43.94953" lon="7.14813">
        <ele>544.59997558594</ele>
        <time>2020-05-27T09:13:51.000Z</time>
      </trkpt>
      <trkpt lat="43.94956" lon="7.14809">
        <ele>545.20001220703</ele>
        <time>2020-05-27T09:13:54.000Z</time>
      </trkpt>
      <trkpt lat="43.94963" lon="7.14803">
        <ele>546.20001220703</ele>
        <time>2020-05-27T09:14:00.000Z</time>
      </trkpt>
      <trkpt lat="43.94965" lon="7.14802">
        <ele>546.20001220703</ele>
        <time>2020-05-27T09:14:01.000Z</time>
      </trkpt>
      <trkpt lat="43.94966" lon="7.148">
        <ele>546.59997558594</ele>
        <time>2020-05-27T09:14:03.000Z</time>
      </trkpt>
      <trkpt lat="43.94966" lon="7.148">
        <ele>546.79998779297</ele>
        <time>2020-05-27T09:14:05.000Z</time>
      </trkpt>
      <trkpt lat="43.94967" lon="7.14802">
        <ele>546.79998779297</ele>
        <time>2020-05-27T09:14:09.000Z</time>
      </trkpt>
      <trkpt lat="43.94967" lon="7.14801">
        <ele>547.40002441406</ele>
        <time>2020-05-27T09:14:12.000Z</time>
      </trkpt>
      <trkpt lat="43.94967" lon="7.14802">
        <ele>547</ele>
        <time>2020-05-27T09:14:15.000Z</time>
      </trkpt>
      <trkpt lat="43.94967" lon="7.14802">
        <ele>547.20001220703</ele>
        <time>2020-05-27T09:14:25.000Z</time>
      </trkpt>
      <trkpt lat="43.94968" lon="7.14802">
        <ele>547.20001220703</ele>
        <time>2020-05-27T09:14:30.000Z</time>
      </trkpt>
      <trkpt lat="43.94967" lon="7.14801">
        <ele>547</ele>
        <time>2020-05-27T09:14:37.000Z</time>
      </trkpt>
      <trkpt lat="43.94967" lon="7.14801">
        <ele>547</ele>
        <time>2020-05-27T09:14:44.000Z</time>
      </trkpt>
      <trkpt lat="43.94967" lon="7.148">
        <ele>547.20001220703</ele>
        <time>2020-05-27T09:14:50.000Z</time>
      </trkpt>
      <trkpt lat="43.94968" lon="7.14799">
        <ele>546.79998779297</ele>
        <time>2020-05-27T09:14:55.000Z</time>
      </trkpt>
      <trkpt lat="43.94969" lon="7.14798">
        <ele>546.59997558594</ele>
        <time>2020-05-27T09:14:56.000Z</time>
      </trkpt>
      <trkpt lat="43.94977" lon="7.14793">
        <ele>547.40002441406</ele>
        <time>2020-05-27T09:15:03.000Z</time>
      </trkpt>
      <trkpt lat="43.94978" lon="7.14793">
        <ele>547.40002441406</ele>
        <time>2020-05-27T09:15:04.000Z</time>
      </trkpt>
      <trkpt lat="43.94981" lon="7.14792">
        <ele>547.79998779297</ele>
        <time>2020-05-27T09:15:07.000Z</time>
      </trkpt>
      <trkpt lat="43.94982" lon="7.14792">
        <ele>547.79998779297</ele>
        <time>2020-05-27T09:15:08.000Z</time>
      </trkpt>
      <trkpt lat="43.94989" lon="7.14788">
        <ele>548.40002441406</ele>
        <time>2020-05-27T09:15:13.000Z</time>
      </trkpt>
      <trkpt lat="43.94995" lon="7.14784">
        <ele>549.20001220703</ele>
        <time>2020-05-27T09:15:17.000Z</time>
      </trkpt>
      <trkpt lat="43.94998" lon="7.14782">
        <ele>549.40002441406</ele>
        <time>2020-05-27T09:15:19.000Z</time>
      </trkpt>
      <trkpt lat="43.95006" lon="7.14775">
        <ele>550.59997558594</ele>
        <time>2020-05-27T09:15:25.000Z</time>
      </trkpt>
      <trkpt lat="43.95008" lon="7.14774">
        <ele>550.79998779297</ele>
        <time>2020-05-27T09:15:26.000Z</time>
      </trkpt>
      <trkpt lat="43.95014" lon="7.14767">
        <ele>551.79998779297</ele>
        <time>2020-05-27T09:15:32.000Z</time>
      </trkpt>
      <trkpt lat="43.95018" lon="7.14762">
        <ele>552.59997558594</ele>
        <time>2020-05-27T09:15:38.000Z</time>
      </trkpt>
      <trkpt lat="43.9502" lon="7.1476">
        <ele>552.20001220703</ele>
        <time>2020-05-27T09:15:50.000Z</time>
      </trkpt>
      <trkpt lat="43.95022" lon="7.14755">
        <ele>552.79998779297</ele>
        <time>2020-05-27T09:15:53.000Z</time>
      </trkpt>
      <trkpt lat="43.95027" lon="7.14748">
        <ele>553.59997558594</ele>
        <time>2020-05-27T09:15:57.000Z</time>
      </trkpt>
      <trkpt lat="43.95028" lon="7.14747">
        <ele>554</ele>
        <time>2020-05-27T09:15:58.000Z</time>
      </trkpt>
      <trkpt lat="43.95034" lon="7.14741">
        <ele>555.20001220703</ele>
        <time>2020-05-27T09:16:02.000Z</time>
      </trkpt>
      <trkpt lat="43.95037" lon="7.14738">
        <ele>555.40002441406</ele>
        <time>2020-05-27T09:16:04.000Z</time>
      </trkpt>
      <trkpt lat="43.95045" lon="7.14728">
        <ele>556</ele>
        <time>2020-05-27T09:16:11.000Z</time>
      </trkpt>
      <trkpt lat="43.95049" lon="7.14722">
        <ele>556.20001220703</ele>
        <time>2020-05-27T09:16:16.000Z</time>
      </trkpt>
      <trkpt lat="43.9505" lon="7.14721">
        <ele>556.20001220703</ele>
        <time>2020-05-27T09:16:17.000Z</time>
      </trkpt>
      <trkpt lat="43.95051" lon="7.1472">
        <ele>556.40002441406</ele>
        <time>2020-05-27T09:16:22.000Z</time>
      </trkpt>
      <trkpt lat="43.95051" lon="7.1472">
        <ele>556.59997558594</ele>
        <time>2020-05-27T09:16:34.000Z</time>
      </trkpt>
      <trkpt lat="43.95051" lon="7.14719">
        <ele>556.40002441406</ele>
        <time>2020-05-27T09:16:41.000Z</time>
      </trkpt>
      <trkpt lat="43.95051" lon="7.14719">
        <ele>556.20001220703</ele>
        <time>2020-05-27T09:17:00.000Z</time>
      </trkpt>
      <trkpt lat="43.95051" lon="7.1472">
        <ele>556.20001220703</ele>
        <time>2020-05-27T09:17:02.000Z</time>
      </trkpt>
      <trkpt lat="43.95051" lon="7.1472">
        <ele>556.20001220703</ele>
        <time>2020-05-27T09:17:03.000Z</time>
      </trkpt>
      <trkpt lat="43.95048" lon="7.14727">
        <ele>555.79998779297</ele>
        <time>2020-05-27T09:17:08.000Z</time>
      </trkpt>
      <trkpt lat="43.95045" lon="7.14733">
        <ele>555.59997558594</ele>
        <time>2020-05-27T09:17:14.000Z</time>
      </trkpt>
      <trkpt lat="43.95045" lon="7.14733">
        <ele>556</ele>
        <time>2020-05-27T09:17:23.000Z</time>
      </trkpt>
      <trkpt lat="43.95045" lon="7.14734">
        <ele>555.59997558594</ele>
        <time>2020-05-27T09:17:30.000Z</time>
      </trkpt>
      <trkpt lat="43.95046" lon="7.14734">
        <ele>555.40002441406</ele>
        <time>2020-05-27T09:17:40.000Z</time>
      </trkpt>
      <trkpt lat="43.9505" lon="7.14725">
        <ele>555.79998779297</ele>
        <time>2020-05-27T09:17:47.000Z</time>
      </trkpt>
      <trkpt lat="43.95051" lon="7.14722">
        <ele>556</ele>
        <time>2020-05-27T09:17:49.000Z</time>
      </trkpt>
      <trkpt lat="43.95052" lon="7.14721">
        <ele>556.20001220703</ele>
        <time>2020-05-27T09:17:53.000Z</time>
      </trkpt>
      <trkpt lat="43.95056" lon="7.14715">
        <ele>556</ele>
        <time>2020-05-27T09:18:00.000Z</time>
      </trkpt>
      <trkpt lat="43.95061" lon="7.14706">
        <ele>556</ele>
        <time>2020-05-27T09:18:04.000Z</time>
      </trkpt>
      <trkpt lat="43.95065" lon="7.14703">
        <ele>556</ele>
        <time>2020-05-27T09:18:06.000Z</time>
      </trkpt>
      <trkpt lat="43.9507" lon="7.147">
        <ele>556</ele>
        <time>2020-05-27T09:18:08.000Z</time>
      </trkpt>
      <trkpt lat="43.95079" lon="7.14691">
        <ele>555.79998779297</ele>
        <time>2020-05-27T09:18:12.000Z</time>
      </trkpt>
      <trkpt lat="43.95092" lon="7.14682">
        <ele>556</ele>
        <time>2020-05-27T09:18:17.000Z</time>
      </trkpt>
      <trkpt lat="43.95111" lon="7.14677">
        <ele>556.40002441406</ele>
        <time>2020-05-27T09:18:23.000Z</time>
      </trkpt>
      <trkpt lat="43.95125" lon="7.14665">
        <ele>556.40002441406</ele>
        <time>2020-05-27T09:18:28.000Z</time>
      </trkpt>
      <trkpt lat="43.95137" lon="7.14659">
        <ele>556.20001220703</ele>
        <time>2020-05-27T09:18:32.000Z</time>
      </trkpt>
      <trkpt lat="43.9515" lon="7.1466">
        <ele>556.40002441406</ele>
        <time>2020-05-27T09:18:36.000Z</time>
      </trkpt>
      <trkpt lat="43.95165" lon="7.14655">
        <ele>556.20001220703</ele>
        <time>2020-05-27T09:18:41.000Z</time>
      </trkpt>
      <trkpt lat="43.95175" lon="7.14648">
        <ele>556.79998779297</ele>
        <time>2020-05-27T09:18:46.000Z</time>
      </trkpt>
      <trkpt lat="43.95177" lon="7.14645">
        <ele>557.20001220703</ele>
        <time>2020-05-27T09:18:48.000Z</time>
      </trkpt>
      <trkpt lat="43.95178" lon="7.14642">
        <ele>557.20001220703</ele>
        <time>2020-05-27T09:18:50.000Z</time>
      </trkpt>
      <trkpt lat="43.95186" lon="7.14637">
        <ele>558</ele>
        <time>2020-05-27T09:18:54.000Z</time>
      </trkpt>
      <trkpt lat="43.9519" lon="7.14635">
        <ele>558.20001220703</ele>
        <time>2020-05-27T09:18:56.000Z</time>
      </trkpt>
      <trkpt lat="43.95197" lon="7.1463">
        <ele>558.40002441406</ele>
        <time>2020-05-27T09:19:00.000Z</time>
      </trkpt>
      <trkpt lat="43.95203" lon="7.14625">
        <ele>559.59997558594</ele>
        <time>2020-05-27T09:19:04.000Z</time>
      </trkpt>
      <trkpt lat="43.95209" lon="7.1462">
        <ele>560.59997558594</ele>
        <time>2020-05-27T09:19:08.000Z</time>
      </trkpt>
      <trkpt lat="43.95217" lon="7.14613">
        <ele>561.59997558594</ele>
        <time>2020-05-27T09:19:13.000Z</time>
      </trkpt>
      <trkpt lat="43.95221" lon="7.14609">
        <ele>562.20001220703</ele>
        <time>2020-05-27T09:19:16.000Z</time>
      </trkpt>
      <trkpt lat="43.95226" lon="7.14599">
        <ele>562.79998779297</ele>
        <time>2020-05-27T09:19:20.000Z</time>
      </trkpt>
      <trkpt lat="43.95227" lon="7.14592">
        <ele>563</ele>
        <time>2020-05-27T09:19:22.000Z</time>
      </trkpt>
      <trkpt lat="43.9523" lon="7.14584">
        <ele>563.40002441406</ele>
        <time>2020-05-27T09:19:25.000Z</time>
      </trkpt>
      <trkpt lat="43.95233" lon="7.14582">
        <ele>563.40002441406</ele>
        <time>2020-05-27T09:19:27.000Z</time>
      </trkpt>
      <trkpt lat="43.95239" lon="7.14573">
        <ele>563.79998779297</ele>
        <time>2020-05-27T09:19:31.000Z</time>
      </trkpt>
      <trkpt lat="43.95242" lon="7.14568">
        <ele>564</ele>
        <time>2020-05-27T09:19:33.000Z</time>
      </trkpt>
      <trkpt lat="43.9525" lon="7.14546">
        <ele>564.40002441406</ele>
        <time>2020-05-27T09:19:41.000Z</time>
      </trkpt>
      <trkpt lat="43.95251" lon="7.14534">
        <ele>564.79998779297</ele>
        <time>2020-05-27T09:19:45.000Z</time>
      </trkpt>
      <trkpt lat="43.95252" lon="7.14526">
        <ele>564.79998779297</ele>
        <time>2020-05-27T09:19:48.000Z</time>
      </trkpt>
      <trkpt lat="43.95257" lon="7.14505">
        <ele>565.20001220703</ele>
        <time>2020-05-27T09:19:55.000Z</time>
      </trkpt>
      <trkpt lat="43.95263" lon="7.14491">
        <ele>565.40002441406</ele>
        <time>2020-05-27T09:20:01.000Z</time>
      </trkpt>
      <trkpt lat="43.95276" lon="7.14481">
        <ele>565.20001220703</ele>
        <time>2020-05-27T09:20:07.000Z</time>
      </trkpt>
      <trkpt lat="43.95281" lon="7.14477">
        <ele>565.20001220703</ele>
        <time>2020-05-27T09:20:12.000Z</time>
      </trkpt>
      <trkpt lat="43.9528" lon="7.14476">
        <ele>565.40002441406</ele>
        <time>2020-05-27T09:20:14.000Z</time>
      </trkpt>
      <trkpt lat="43.95278" lon="7.14478">
        <ele>565.40002441406</ele>
        <time>2020-05-27T09:20:16.000Z</time>
      </trkpt>
      <trkpt lat="43.95272" lon="7.14483">
        <ele>565</ele>
        <time>2020-05-27T09:20:20.000Z</time>
      </trkpt>
      <trkpt lat="43.9527" lon="7.14485">
        <ele>565</ele>
        <time>2020-05-27T09:20:21.000Z</time>
      </trkpt>
      <trkpt lat="43.95265" lon="7.14487">
        <ele>565.20001220703</ele>
        <time>2020-05-27T09:20:26.000Z</time>
      </trkpt>
      <trkpt lat="43.95267" lon="7.14483">
        <ele>565.20001220703</ele>
        <time>2020-05-27T09:20:29.000Z</time>
      </trkpt>
      <trkpt lat="43.95269" lon="7.14483">
        <ele>565.20001220703</ele>
        <time>2020-05-27T09:20:30.000Z</time>
      </trkpt>
      <trkpt lat="43.95279" lon="7.14476">
        <ele>565.20001220703</ele>
        <time>2020-05-27T09:20:35.000Z</time>
      </trkpt>
      <trkpt lat="43.95293" lon="7.14472">
        <ele>565.40002441406</ele>
        <time>2020-05-27T09:20:41.000Z</time>
      </trkpt>
      <trkpt lat="43.953" lon="7.14465">
        <ele>565.20001220703</ele>
        <time>2020-05-27T09:20:46.000Z</time>
      </trkpt>
      <trkpt lat="43.95302" lon="7.14463">
        <ele>565.20001220703</ele>
        <time>2020-05-27T09:20:49.000Z</time>
      </trkpt>
      <trkpt lat="43.95303" lon="7.14457">
        <ele>565</ele>
        <time>2020-05-27T09:20:51.000Z</time>
      </trkpt>
      <trkpt lat="43.95307" lon="7.14448">
        <ele>564.20001220703</ele>
        <time>2020-05-27T09:20:55.000Z</time>
      </trkpt>
      <trkpt lat="43.95312" lon="7.14444">
        <ele>563.59997558594</ele>
        <time>2020-05-27T09:20:57.000Z</time>
      </trkpt>
      <trkpt lat="43.95315" lon="7.14442">
        <ele>563</ele>
        <time>2020-05-27T09:20:58.000Z</time>
      </trkpt>
      <trkpt lat="43.95319" lon="7.14441">
        <ele>562.59997558594</ele>
        <time>2020-05-27T09:20:59.000Z</time>
      </trkpt>
      <trkpt lat="43.95322" lon="7.1444">
        <ele>562.20001220703</ele>
        <time>2020-05-27T09:21:00.000Z</time>
      </trkpt>
      <trkpt lat="43.95328" lon="7.14437">
        <ele>561</ele>
        <time>2020-05-27T09:21:02.000Z</time>
      </trkpt>
      <trkpt lat="43.95335" lon="7.14435">
        <ele>559.59997558594</ele>
        <time>2020-05-27T09:21:04.000Z</time>
      </trkpt>
      <trkpt lat="43.95342" lon="7.1443">
        <ele>557.79998779297</ele>
        <time>2020-05-27T09:21:06.000Z</time>
      </trkpt>
      <trkpt lat="43.95345" lon="7.14422">
        <ele>556.20001220703</ele>
        <time>2020-05-27T09:21:08.000Z</time>
      </trkpt>
      <trkpt lat="43.95344" lon="7.14418">
        <ele>555.79998779297</ele>
        <time>2020-05-27T09:21:09.000Z</time>
      </trkpt>
      <trkpt lat="43.95345" lon="7.14407">
        <ele>555.20001220703</ele>
        <time>2020-05-27T09:21:11.000Z</time>
      </trkpt>
      <trkpt lat="43.95346" lon="7.14402">
        <ele>555</ele>
        <time>2020-05-27T09:21:12.000Z</time>
      </trkpt>
      <trkpt lat="43.95347" lon="7.14397">
        <ele>555</ele>
        <time>2020-05-27T09:21:13.000Z</time>
      </trkpt>
      <trkpt lat="43.95347" lon="7.14388">
        <ele>554.59997558594</ele>
        <time>2020-05-27T09:21:15.000Z</time>
      </trkpt>
      <trkpt lat="43.95346" lon="7.14384">
        <ele>554.40002441406</ele>
        <time>2020-05-27T09:21:16.000Z</time>
      </trkpt>
      <trkpt lat="43.95352" lon="7.1437">
        <ele>554.40002441406</ele>
        <time>2020-05-27T09:21:19.000Z</time>
      </trkpt>
      <trkpt lat="43.9536" lon="7.14358">
        <ele>553.79998779297</ele>
        <time>2020-05-27T09:21:22.000Z</time>
      </trkpt>
      <trkpt lat="43.95363" lon="7.1435">
        <ele>552.79998779297</ele>
        <time>2020-05-27T09:21:24.000Z</time>
      </trkpt>
      <trkpt lat="43.95365" lon="7.14344">
        <ele>552.20001220703</ele>
        <time>2020-05-27T09:21:25.000Z</time>
      </trkpt>
      <trkpt lat="43.95367" lon="7.14339">
        <ele>552</ele>
        <time>2020-05-27T09:21:26.000Z</time>
      </trkpt>
      <trkpt lat="43.9537" lon="7.14333">
        <ele>551.40002441406</ele>
        <time>2020-05-27T09:21:27.000Z</time>
      </trkpt>
      <trkpt lat="43.95373" lon="7.14319">
        <ele>549.79998779297</ele>
        <time>2020-05-27T09:21:30.000Z</time>
      </trkpt>
      <trkpt lat="43.95382" lon="7.14309">
        <ele>549.20001220703</ele>
        <time>2020-05-27T09:21:34.000Z</time>
      </trkpt>
      <trkpt lat="43.95385" lon="7.14303">
        <ele>549.40002441406</ele>
        <time>2020-05-27T09:21:37.000Z</time>
      </trkpt>
      <trkpt lat="43.95384" lon="7.14301">
        <ele>549.20001220703</ele>
        <time>2020-05-27T09:21:38.000Z</time>
      </trkpt>
      <trkpt lat="43.95377" lon="7.14295">
        <ele>550</ele>
        <time>2020-05-27T09:21:43.000Z</time>
      </trkpt>
      <trkpt lat="43.95376" lon="7.14294">
        <ele>550.20001220703</ele>
        <time>2020-05-27T09:21:44.000Z</time>
      </trkpt>
      <trkpt lat="43.95374" lon="7.14292">
        <ele>551</ele>
        <time>2020-05-27T09:21:46.000Z</time>
      </trkpt>
      <trkpt lat="43.95371" lon="7.1429">
        <ele>551.79998779297</ele>
        <time>2020-05-27T09:21:49.000Z</time>
      </trkpt>
      <trkpt lat="43.95371" lon="7.14289">
        <ele>552.20001220703</ele>
        <time>2020-05-27T09:21:50.000Z</time>
      </trkpt>
      <trkpt lat="43.95367" lon="7.14287">
        <ele>553.20001220703</ele>
        <time>2020-05-27T09:21:53.000Z</time>
      </trkpt>
      <trkpt lat="43.95363" lon="7.14285">
        <ele>553.59997558594</ele>
        <time>2020-05-27T09:21:56.000Z</time>
      </trkpt>
      <trkpt lat="43.95354" lon="7.14282">
        <ele>554.20001220703</ele>
        <time>2020-05-27T09:22:00.000Z</time>
      </trkpt>
      <trkpt lat="43.95351" lon="7.1428">
        <ele>554.40002441406</ele>
        <time>2020-05-27T09:22:01.000Z</time>
      </trkpt>
      <trkpt lat="43.9534" lon="7.14269">
        <ele>554.40002441406</ele>
        <time>2020-05-27T09:22:05.000Z</time>
      </trkpt>
      <trkpt lat="43.95334" lon="7.14255">
        <ele>554</ele>
        <time>2020-05-27T09:22:08.000Z</time>
      </trkpt>
      <trkpt lat="43.95335" lon="7.14251">
        <ele>553.79998779297</ele>
        <time>2020-05-27T09:22:09.000Z</time>
      </trkpt>
      <trkpt lat="43.95341" lon="7.14245">
        <ele>552.79998779297</ele>
        <time>2020-05-27T09:22:11.000Z</time>
      </trkpt>
      <trkpt lat="43.95344" lon="7.14243">
        <ele>552.20001220703</ele>
        <time>2020-05-27T09:22:12.000Z</time>
      </trkpt>
      <trkpt lat="43.95347" lon="7.1424">
        <ele>551.20001220703</ele>
        <time>2020-05-27T09:22:13.000Z</time>
      </trkpt>
      <trkpt lat="43.95348" lon="7.14233">
        <ele>550.20001220703</ele>
        <time>2020-05-27T09:22:15.000Z</time>
      </trkpt>
      <trkpt lat="43.95345" lon="7.14231">
        <ele>549.79998779297</ele>
        <time>2020-05-27T09:22:16.000Z</time>
      </trkpt>
      <trkpt lat="43.9534" lon="7.14229">
        <ele>549.59997558594</ele>
        <time>2020-05-27T09:22:18.000Z</time>
      </trkpt>
      <trkpt lat="43.95332" lon="7.14228">
        <ele>549.59997558594</ele>
        <time>2020-05-27T09:22:20.000Z</time>
      </trkpt>
      <trkpt lat="43.95328" lon="7.14227">
        <ele>549.79998779297</ele>
        <time>2020-05-27T09:22:21.000Z</time>
      </trkpt>
      <trkpt lat="43.95325" lon="7.14224">
        <ele>549.79998779297</ele>
        <time>2020-05-27T09:22:22.000Z</time>
      </trkpt>
      <trkpt lat="43.95323" lon="7.14205">
        <ele>549.79998779297</ele>
        <time>2020-05-27T09:22:26.000Z</time>
      </trkpt>
      <trkpt lat="43.95326" lon="7.14186">
        <ele>549.59997558594</ele>
        <time>2020-05-27T09:22:29.000Z</time>
      </trkpt>
      <trkpt lat="43.95328" lon="7.1418">
        <ele>549.59997558594</ele>
        <time>2020-05-27T09:22:30.000Z</time>
      </trkpt>
      <trkpt lat="43.9533" lon="7.14172">
        <ele>549</ele>
        <time>2020-05-27T09:22:32.000Z</time>
      </trkpt>
      <trkpt lat="43.95328" lon="7.14169">
        <ele>548.20001220703</ele>
        <time>2020-05-27T09:22:33.000Z</time>
      </trkpt>
      <trkpt lat="43.95324" lon="7.14169">
        <ele>547</ele>
        <time>2020-05-27T09:22:35.000Z</time>
      </trkpt>
      <trkpt lat="43.9532" lon="7.14168">
        <ele>546.79998779297</ele>
        <time>2020-05-27T09:22:36.000Z</time>
      </trkpt>
      <trkpt lat="43.95313" lon="7.14157">
        <ele>547.79998779297</ele>
        <time>2020-05-27T09:22:40.000Z</time>
      </trkpt>
      <trkpt lat="43.95309" lon="7.14151">
        <ele>548.20001220703</ele>
        <time>2020-05-27T09:22:42.000Z</time>
      </trkpt>
      <trkpt lat="43.95304" lon="7.14141">
        <ele>548.79998779297</ele>
        <time>2020-05-27T09:22:45.000Z</time>
      </trkpt>
      <trkpt lat="43.95301" lon="7.14133">
        <ele>549.40002441406</ele>
        <time>2020-05-27T09:22:47.000Z</time>
      </trkpt>
      <trkpt lat="43.95296" lon="7.14113">
        <ele>550.40002441406</ele>
        <time>2020-05-27T09:22:52.000Z</time>
      </trkpt>
      <trkpt lat="43.95296" lon="7.1411">
        <ele>550.40002441406</ele>
        <time>2020-05-27T09:22:53.000Z</time>
      </trkpt>
      <trkpt lat="43.95296" lon="7.14104">
        <ele>550.59997558594</ele>
        <time>2020-05-27T09:22:55.000Z</time>
      </trkpt>
      <trkpt lat="43.95294" lon="7.141">
        <ele>550.59997558594</ele>
        <time>2020-05-27T09:22:56.000Z</time>
      </trkpt>
      <trkpt lat="43.95286" lon="7.14087">
        <ele>550.40002441406</ele>
        <time>2020-05-27T09:23:00.000Z</time>
      </trkpt>
      <trkpt lat="43.95274" lon="7.14066">
        <ele>550.79998779297</ele>
        <time>2020-05-27T09:23:06.000Z</time>
      </trkpt>
      <trkpt lat="43.95271" lon="7.14057">
        <ele>551</ele>
        <time>2020-05-27T09:23:08.000Z</time>
      </trkpt>
      <trkpt lat="43.95272" lon="7.14053">
        <ele>551</ele>
        <time>2020-05-27T09:23:09.000Z</time>
      </trkpt>
      <trkpt lat="43.95279" lon="7.14044">
        <ele>550.59997558594</ele>
        <time>2020-05-27T09:23:13.000Z</time>
      </trkpt>
      <trkpt lat="43.95283" lon="7.14029">
        <ele>551</ele>
        <time>2020-05-27T09:23:16.000Z</time>
      </trkpt>
      <trkpt lat="43.95276" lon="7.14013">
        <ele>549.40002441406</ele>
        <time>2020-05-27T09:23:19.000Z</time>
      </trkpt>
      <trkpt lat="43.95266" lon="7.14011">
        <ele>548.40002441406</ele>
        <time>2020-05-27T09:23:22.000Z</time>
      </trkpt>
      <trkpt lat="43.95246" lon="7.14013">
        <ele>548.79998779297</ele>
        <time>2020-05-27T09:23:26.000Z</time>
      </trkpt>
      <trkpt lat="43.95237" lon="7.14016">
        <ele>548</ele>
        <time>2020-05-27T09:23:28.000Z</time>
      </trkpt>
      <trkpt lat="43.95228" lon="7.14017">
        <ele>546.79998779297</ele>
        <time>2020-05-27T09:23:29.000Z</time>
      </trkpt>
      <trkpt lat="43.95223" lon="7.14018">
        <ele>545.40002441406</ele>
        <time>2020-05-27T09:23:30.000Z</time>
      </trkpt>
      <trkpt lat="43.95219" lon="7.14016">
        <ele>543.79998779297</ele>
        <time>2020-05-27T09:23:31.000Z</time>
      </trkpt>
      <trkpt lat="43.95216" lon="7.14012">
        <ele>542.59997558594</ele>
        <time>2020-05-27T09:23:32.000Z</time>
      </trkpt>
      <trkpt lat="43.95213" lon="7.14006">
        <ele>541.59997558594</ele>
        <time>2020-05-27T09:23:33.000Z</time>
      </trkpt>
      <trkpt lat="43.95212" lon="7.14">
        <ele>540.79998779297</ele>
        <time>2020-05-27T09:23:34.000Z</time>
      </trkpt>
      <trkpt lat="43.9521" lon="7.13995">
        <ele>540.20001220703</ele>
        <time>2020-05-27T09:23:35.000Z</time>
      </trkpt>
      <trkpt lat="43.95208" lon="7.13983">
        <ele>539.40002441406</ele>
        <time>2020-05-27T09:23:37.000Z</time>
      </trkpt>
      <trkpt lat="43.95209" lon="7.13981">
        <ele>538.79998779297</ele>
        <time>2020-05-27T09:23:38.000Z</time>
      </trkpt>
      <trkpt lat="43.95213" lon="7.13975">
        <ele>538.40002441406</ele>
        <time>2020-05-27T09:23:41.000Z</time>
      </trkpt>
      <trkpt lat="43.95214" lon="7.13971">
        <ele>538.79998779297</ele>
        <time>2020-05-27T09:23:44.000Z</time>
      </trkpt>
      <trkpt lat="43.95214" lon="7.13964">
        <ele>539.20001220703</ele>
        <time>2020-05-27T09:23:51.000Z</time>
      </trkpt>
      <trkpt lat="43.95213" lon="7.13958">
        <ele>539</ele>
        <time>2020-05-27T09:23:55.000Z</time>
      </trkpt>
      <trkpt lat="43.95213" lon="7.13953">
        <ele>538.40002441406</ele>
        <time>2020-05-27T09:23:58.000Z</time>
      </trkpt>
      <trkpt lat="43.95213" lon="7.13952">
        <ele>537.79998779297</ele>
        <time>2020-05-27T09:23:59.000Z</time>
      </trkpt>
      <trkpt lat="43.95214" lon="7.1395">
        <ele>537.40002441406</ele>
        <time>2020-05-27T09:24:01.000Z</time>
      </trkpt>
      <trkpt lat="43.95216" lon="7.13943">
        <ele>537</ele>
        <time>2020-05-27T09:24:04.000Z</time>
      </trkpt>
      <trkpt lat="43.95218" lon="7.13929">
        <ele>536.59997558594</ele>
        <time>2020-05-27T09:24:07.000Z</time>
      </trkpt>
      <trkpt lat="43.95219" lon="7.13926">
        <ele>536.40002441406</ele>
        <time>2020-05-27T09:24:08.000Z</time>
      </trkpt>
      <trkpt lat="43.95225" lon="7.13919">
        <ele>535.79998779297</ele>
        <time>2020-05-27T09:24:11.000Z</time>
      </trkpt>
      <trkpt lat="43.95227" lon="7.13917">
        <ele>535.59997558594</ele>
        <time>2020-05-27T09:24:12.000Z</time>
      </trkpt>
      <trkpt lat="43.95226" lon="7.13914">
        <ele>535.59997558594</ele>
        <time>2020-05-27T09:24:13.000Z</time>
      </trkpt>
      <trkpt lat="43.95224" lon="7.13909">
        <ele>535.20001220703</ele>
        <time>2020-05-27T09:24:15.000Z</time>
      </trkpt>
      <trkpt lat="43.9522" lon="7.13904">
        <ele>534.40002441406</ele>
        <time>2020-05-27T09:24:18.000Z</time>
      </trkpt>
      <trkpt lat="43.95219" lon="7.13905">
        <ele>534.59997558594</ele>
        <time>2020-05-27T09:24:19.000Z</time>
      </trkpt>
      <trkpt lat="43.95215" lon="7.13907">
        <ele>535.40002441406</ele>
        <time>2020-05-27T09:24:22.000Z</time>
      </trkpt>
      <trkpt lat="43.95213" lon="7.1391">
        <ele>536.40002441406</ele>
        <time>2020-05-27T09:24:24.000Z</time>
      </trkpt>
      <trkpt lat="43.95212" lon="7.13911">
        <ele>536.79998779297</ele>
        <time>2020-05-27T09:24:25.000Z</time>
      </trkpt>
      <trkpt lat="43.95207" lon="7.13915">
        <ele>538</ele>
        <time>2020-05-27T09:24:28.000Z</time>
      </trkpt>
      <trkpt lat="43.95206" lon="7.13917">
        <ele>538.40002441406</ele>
        <time>2020-05-27T09:24:29.000Z</time>
      </trkpt>
      <trkpt lat="43.95204" lon="7.13919">
        <ele>539.40002441406</ele>
        <time>2020-05-27T09:24:31.000Z</time>
      </trkpt>
      <trkpt lat="43.95201" lon="7.13925">
        <ele>540.59997558594</ele>
        <time>2020-05-27T09:24:34.000Z</time>
      </trkpt>
      <trkpt lat="43.95199" lon="7.13928">
        <ele>540.59997558594</ele>
        <time>2020-05-27T09:24:35.000Z</time>
      </trkpt>
      <trkpt lat="43.95189" lon="7.13935">
        <ele>540</ele>
        <time>2020-05-27T09:24:39.000Z</time>
      </trkpt>
      <trkpt lat="43.95177" lon="7.13943">
        <ele>541.20001220703</ele>
        <time>2020-05-27T09:24:45.000Z</time>
      </trkpt>
      <trkpt lat="43.95166" lon="7.13949">
        <ele>540.59997558594</ele>
        <time>2020-05-27T09:24:50.000Z</time>
      </trkpt>
      <trkpt lat="43.95161" lon="7.1395">
        <ele>541.59997558594</ele>
        <time>2020-05-27T09:24:53.000Z</time>
      </trkpt>
      <trkpt lat="43.95158" lon="7.13949">
        <ele>542.59997558594</ele>
        <time>2020-05-27T09:24:55.000Z</time>
      </trkpt>
      <trkpt lat="43.95156" lon="7.13949">
        <ele>542.79998779297</ele>
        <time>2020-05-27T09:24:56.000Z</time>
      </trkpt>
      <trkpt lat="43.9515" lon="7.13946">
        <ele>544</ele>
        <time>2020-05-27T09:25:00.000Z</time>
      </trkpt>
      <trkpt lat="43.95149" lon="7.13944">
        <ele>544.20001220703</ele>
        <time>2020-05-27T09:25:01.000Z</time>
      </trkpt>
      <trkpt lat="43.95146" lon="7.1394">
        <ele>545</ele>
        <time>2020-05-27T09:25:04.000Z</time>
      </trkpt>
      <trkpt lat="43.95139" lon="7.1393">
        <ele>546</ele>
        <time>2020-05-27T09:25:09.000Z</time>
      </trkpt>
      <trkpt lat="43.95138" lon="7.13927">
        <ele>546</ele>
        <time>2020-05-27T09:25:10.000Z</time>
      </trkpt>
      <trkpt lat="43.95135" lon="7.13909">
        <ele>546.79998779297</ele>
        <time>2020-05-27T09:25:16.000Z</time>
      </trkpt>
      <trkpt lat="43.95135" lon="7.13901">
        <ele>547.20001220703</ele>
        <time>2020-05-27T09:25:19.000Z</time>
      </trkpt>
      <trkpt lat="43.95134" lon="7.13894">
        <ele>547.79998779297</ele>
        <time>2020-05-27T09:25:21.000Z</time>
      </trkpt>
      <trkpt lat="43.95135" lon="7.1388">
        <ele>547.79998779297</ele>
        <time>2020-05-27T09:25:25.000Z</time>
      </trkpt>
      <trkpt lat="43.95137" lon="7.13873">
        <ele>548.20001220703</ele>
        <time>2020-05-27T09:25:27.000Z</time>
      </trkpt>
      <trkpt lat="43.95139" lon="7.13855">
        <ele>548.40002441406</ele>
        <time>2020-05-27T09:25:32.000Z</time>
      </trkpt>
      <trkpt lat="43.95141" lon="7.13852">
        <ele>548.59997558594</ele>
        <time>2020-05-27T09:25:33.000Z</time>
      </trkpt>
      <trkpt lat="43.95144" lon="7.13847">
        <ele>549</ele>
        <time>2020-05-27T09:25:35.000Z</time>
      </trkpt>
      <trkpt lat="43.95151" lon="7.13834">
        <ele>549.20001220703</ele>
        <time>2020-05-27T09:25:39.000Z</time>
      </trkpt>
      <trkpt lat="43.95152" lon="7.13827">
        <ele>549.59997558594</ele>
        <time>2020-05-27T09:25:41.000Z</time>
      </trkpt>
      <trkpt lat="43.95152" lon="7.13814">
        <ele>549.79998779297</ele>
        <time>2020-05-27T09:25:44.000Z</time>
      </trkpt>
      <trkpt lat="43.95149" lon="7.13786">
        <ele>549.59997558594</ele>
        <time>2020-05-27T09:25:50.000Z</time>
      </trkpt>
      <trkpt lat="43.9515" lon="7.13777">
        <ele>549.40002441406</ele>
        <time>2020-05-27T09:25:52.000Z</time>
      </trkpt>
      <trkpt lat="43.95148" lon="7.13768">
        <ele>549.40002441406</ele>
        <time>2020-05-27T09:25:54.000Z</time>
      </trkpt>
      <trkpt lat="43.95146" lon="7.13747">
        <ele>549.40002441406</ele>
        <time>2020-05-27T09:25:59.000Z</time>
      </trkpt>
      <trkpt lat="43.95146" lon="7.13735">
        <ele>549.79998779297</ele>
        <time>2020-05-27T09:26:03.000Z</time>
      </trkpt>
      <trkpt lat="43.95145" lon="7.13735">
        <ele>549.59997558594</ele>
        <time>2020-05-27T09:26:04.000Z</time>
      </trkpt>
      <trkpt lat="43.95137" lon="7.13734">
        <ele>549.40002441406</ele>
        <time>2020-05-27T09:26:08.000Z</time>
      </trkpt>
      <trkpt lat="43.95131" lon="7.13734">
        <ele>550.40002441406</ele>
        <time>2020-05-27T09:26:11.000Z</time>
      </trkpt>
      <trkpt lat="43.95129" lon="7.13735">
        <ele>550.40002441406</ele>
        <time>2020-05-27T09:26:12.000Z</time>
      </trkpt>
      <trkpt lat="43.95125" lon="7.13738">
        <ele>550.59997558594</ele>
        <time>2020-05-27T09:26:14.000Z</time>
      </trkpt>
      <trkpt lat="43.9512" lon="7.13748">
        <ele>551.40002441406</ele>
        <time>2020-05-27T09:26:17.000Z</time>
      </trkpt>
      <trkpt lat="43.95109" lon="7.1376">
        <ele>551.40002441406</ele>
        <time>2020-05-27T09:26:22.000Z</time>
      </trkpt>
      <trkpt lat="43.95107" lon="7.1376">
        <ele>551.79998779297</ele>
        <time>2020-05-27T09:26:23.000Z</time>
      </trkpt>
      <trkpt lat="43.951" lon="7.13757">
        <ele>553</ele>
        <time>2020-05-27T09:26:27.000Z</time>
      </trkpt>
      <trkpt lat="43.95091" lon="7.13747">
        <ele>554.40002441406</ele>
        <time>2020-05-27T09:26:32.000Z</time>
      </trkpt>
      <trkpt lat="43.9509" lon="7.13745">
        <ele>554.59997558594</ele>
        <time>2020-05-27T09:26:33.000Z</time>
      </trkpt>
      <trkpt lat="43.95085" lon="7.13734">
        <ele>555.40002441406</ele>
        <time>2020-05-27T09:26:37.000Z</time>
      </trkpt>
      <trkpt lat="43.95084" lon="7.13733">
        <ele>555.59997558594</ele>
        <time>2020-05-27T09:26:38.000Z</time>
      </trkpt>
      <trkpt lat="43.95082" lon="7.13733">
        <ele>555.79998779297</ele>
        <time>2020-05-27T09:26:39.000Z</time>
      </trkpt>
      <trkpt lat="43.95076" lon="7.13733">
        <ele>556.40002441406</ele>
        <time>2020-05-27T09:26:42.000Z</time>
      </trkpt>
      <trkpt lat="43.95065" lon="7.13735">
        <ele>556.79998779297</ele>
        <time>2020-05-27T09:26:48.000Z</time>
      </trkpt>
      <trkpt lat="43.9506" lon="7.13737">
        <ele>557.59997558594</ele>
        <time>2020-05-27T09:26:51.000Z</time>
      </trkpt>
      <trkpt lat="43.95051" lon="7.13738">
        <ele>558.20001220703</ele>
        <time>2020-05-27T09:26:55.000Z</time>
      </trkpt>
      <trkpt lat="43.95042" lon="7.13736">
        <ele>558.79998779297</ele>
        <time>2020-05-27T09:26:59.000Z</time>
      </trkpt>
      <trkpt lat="43.95041" lon="7.13736">
        <ele>559.20001220703</ele>
        <time>2020-05-27T09:27:00.000Z</time>
      </trkpt>
      <trkpt lat="43.95034" lon="7.13734">
        <ele>560.20001220703</ele>
        <time>2020-05-27T09:27:03.000Z</time>
      </trkpt>
      <trkpt lat="43.95028" lon="7.13731">
        <ele>560.79998779297</ele>
        <time>2020-05-27T09:27:06.000Z</time>
      </trkpt>
      <trkpt lat="43.95022" lon="7.13723">
        <ele>561.40002441406</ele>
        <time>2020-05-27T09:27:10.000Z</time>
      </trkpt>
      <trkpt lat="43.9502" lon="7.13719">
        <ele>562.20001220703</ele>
        <time>2020-05-27T09:27:12.000Z</time>
      </trkpt>
      <trkpt lat="43.95017" lon="7.13714">
        <ele>562.59997558594</ele>
        <time>2020-05-27T09:27:14.000Z</time>
      </trkpt>
      <trkpt lat="43.95009" lon="7.13702">
        <ele>563.20001220703</ele>
        <time>2020-05-27T09:27:19.000Z</time>
      </trkpt>
      <trkpt lat="43.94994" lon="7.13692">
        <ele>563.59997558594</ele>
        <time>2020-05-27T09:27:25.000Z</time>
      </trkpt>
      <trkpt lat="43.9498" lon="7.13684">
        <ele>564</ele>
        <time>2020-05-27T09:27:31.000Z</time>
      </trkpt>
      <trkpt lat="43.94973" lon="7.13679">
        <ele>564.59997558594</ele>
        <time>2020-05-27T09:27:35.000Z</time>
      </trkpt>
      <trkpt lat="43.94967" lon="7.13677">
        <ele>565.59997558594</ele>
        <time>2020-05-27T09:27:38.000Z</time>
      </trkpt>
      <trkpt lat="43.94965" lon="7.13676">
        <ele>565.79998779297</ele>
        <time>2020-05-27T09:27:39.000Z</time>
      </trkpt>
      <trkpt lat="43.9496" lon="7.13671">
        <ele>566.59997558594</ele>
        <time>2020-05-27T09:27:43.000Z</time>
      </trkpt>
      <trkpt lat="43.94958" lon="7.1367">
        <ele>566.79998779297</ele>
        <time>2020-05-27T09:27:45.000Z</time>
      </trkpt>
      <trkpt lat="43.94957" lon="7.13669">
        <ele>567</ele>
        <time>2020-05-27T09:27:46.000Z</time>
      </trkpt>
      <trkpt lat="43.94955" lon="7.13668">
        <ele>567.40002441406</ele>
        <time>2020-05-27T09:27:48.000Z</time>
      </trkpt>
      <trkpt lat="43.94954" lon="7.13668">
        <ele>567.59997558594</ele>
        <time>2020-05-27T09:27:49.000Z</time>
      </trkpt>
      <trkpt lat="43.94951" lon="7.13667">
        <ele>568</ele>
        <time>2020-05-27T09:27:51.000Z</time>
      </trkpt>
      <trkpt lat="43.94946" lon="7.13665">
        <ele>568.79998779297</ele>
        <time>2020-05-27T09:27:56.000Z</time>
      </trkpt>
      <trkpt lat="43.94946" lon="7.13663">
        <ele>569</ele>
        <time>2020-05-27T09:27:57.000Z</time>
      </trkpt>
      <trkpt lat="43.94947" lon="7.13662">
        <ele>569.20001220703</ele>
        <time>2020-05-27T09:27:58.000Z</time>
      </trkpt>
      <trkpt lat="43.94946" lon="7.13662">
        <ele>569.40002441406</ele>
        <time>2020-05-27T09:27:59.000Z</time>
      </trkpt>
      <trkpt lat="43.94949" lon="7.1366">
        <ele>570.20001220703</ele>
        <time>2020-05-27T09:28:03.000Z</time>
      </trkpt>
      <trkpt lat="43.9495" lon="7.1366">
        <ele>570.20001220703</ele>
        <time>2020-05-27T09:28:04.000Z</time>
      </trkpt>
      <trkpt lat="43.94954" lon="7.13659">
        <ele>571.40002441406</ele>
        <time>2020-05-27T09:28:10.000Z</time>
      </trkpt>
      <trkpt lat="43.94957" lon="7.13658">
        <ele>572.20001220703</ele>
        <time>2020-05-27T09:28:12.000Z</time>
      </trkpt>
      <trkpt lat="43.94959" lon="7.13657">
        <ele>572.59997558594</ele>
        <time>2020-05-27T09:28:14.000Z</time>
      </trkpt>
      <trkpt lat="43.94963" lon="7.13655">
        <ele>573.40002441406</ele>
        <time>2020-05-27T09:28:19.000Z</time>
      </trkpt>
      <trkpt lat="43.94965" lon="7.13654">
        <ele>573.79998779297</ele>
        <time>2020-05-27T09:28:21.000Z</time>
      </trkpt>
      <trkpt lat="43.94967" lon="7.13652">
        <ele>575</ele>
        <time>2020-05-27T09:28:24.000Z</time>
      </trkpt>
      <trkpt lat="43.94967" lon="7.1365">
        <ele>575.20001220703</ele>
        <time>2020-05-27T09:28:25.000Z</time>
      </trkpt>
      <trkpt lat="43.94966" lon="7.13649">
        <ele>575.79998779297</ele>
        <time>2020-05-27T09:28:27.000Z</time>
      </trkpt>
      <trkpt lat="43.94967" lon="7.13645">
        <ele>576</ele>
        <time>2020-05-27T09:28:29.000Z</time>
      </trkpt>
      <trkpt lat="43.94968" lon="7.13637">
        <ele>576.40002441406</ele>
        <time>2020-05-27T09:28:34.000Z</time>
      </trkpt>
      <trkpt lat="43.94969" lon="7.13635">
        <ele>577</ele>
        <time>2020-05-27T09:28:38.000Z</time>
      </trkpt>
      <trkpt lat="43.94969" lon="7.13634">
        <ele>577.20001220703</ele>
        <time>2020-05-27T09:28:40.000Z</time>
      </trkpt>
      <trkpt lat="43.94969" lon="7.13633">
        <ele>577.40002441406</ele>
        <time>2020-05-27T09:29:07.000Z</time>
      </trkpt>
      <trkpt lat="43.94971" lon="7.13626">
        <ele>577.40002441406</ele>
        <time>2020-05-27T09:29:21.000Z</time>
      </trkpt>
      <trkpt lat="43.9497" lon="7.13623">
        <ele>577.40002441406</ele>
        <time>2020-05-27T09:29:22.000Z</time>
      </trkpt>
      <trkpt lat="43.94963" lon="7.13614">
        <ele>576.79998779297</ele>
        <time>2020-05-27T09:29:25.000Z</time>
      </trkpt>
      <trkpt lat="43.94957" lon="7.13598">
        <ele>575.79998779297</ele>
        <time>2020-05-27T09:29:28.000Z</time>
      </trkpt>
      <trkpt lat="43.94947" lon="7.13583">
        <ele>574.40002441406</ele>
        <time>2020-05-27T09:29:31.000Z</time>
      </trkpt>
      <trkpt lat="43.94942" lon="7.13574">
        <ele>572.79998779297</ele>
        <time>2020-05-27T09:29:33.000Z</time>
      </trkpt>
      <trkpt lat="43.94939" lon="7.13569">
        <ele>571</ele>
        <time>2020-05-27T09:29:34.000Z</time>
      </trkpt>
      <trkpt lat="43.94936" lon="7.13565">
        <ele>570</ele>
        <time>2020-05-27T09:29:35.000Z</time>
      </trkpt>
      <trkpt lat="43.94932" lon="7.13561">
        <ele>569.40002441406</ele>
        <time>2020-05-27T09:29:36.000Z</time>
      </trkpt>
      <trkpt lat="43.94926" lon="7.13557">
        <ele>567</ele>
        <time>2020-05-27T09:29:38.000Z</time>
      </trkpt>
      <trkpt lat="43.94928" lon="7.13554">
        <ele>565.79998779297</ele>
        <time>2020-05-27T09:29:39.000Z</time>
      </trkpt>
      <trkpt lat="43.94929" lon="7.1355">
        <ele>564.79998779297</ele>
        <time>2020-05-27T09:29:40.000Z</time>
      </trkpt>
      <trkpt lat="43.94933" lon="7.13548">
        <ele>563.59997558594</ele>
        <time>2020-05-27T09:29:41.000Z</time>
      </trkpt>
      <trkpt lat="43.94937" lon="7.13548">
        <ele>562.40002441406</ele>
        <time>2020-05-27T09:29:42.000Z</time>
      </trkpt>
      <trkpt lat="43.94942" lon="7.13548">
        <ele>562.40002441406</ele>
        <time>2020-05-27T09:29:43.000Z</time>
      </trkpt>
      <trkpt lat="43.94947" lon="7.13547">
        <ele>562</ele>
        <time>2020-05-27T09:29:44.000Z</time>
      </trkpt>
      <trkpt lat="43.94958" lon="7.13544">
        <ele>561.20001220703</ele>
        <time>2020-05-27T09:29:46.000Z</time>
      </trkpt>
      <trkpt lat="43.94962" lon="7.13543">
        <ele>561.59997558594</ele>
        <time>2020-05-27T09:29:47.000Z</time>
      </trkpt>
      <trkpt lat="43.94964" lon="7.13539">
        <ele>559.79998779297</ele>
        <time>2020-05-27T09:29:49.000Z</time>
      </trkpt>
      <trkpt lat="43.94962" lon="7.13536">
        <ele>558</ele>
        <time>2020-05-27T09:29:50.000Z</time>
      </trkpt>
      <trkpt lat="43.94953" lon="7.13528">
        <ele>557.20001220703</ele>
        <time>2020-05-27T09:29:52.000Z</time>
      </trkpt>
      <trkpt lat="43.94952" lon="7.13523">
        <ele>556.79998779297</ele>
        <time>2020-05-27T09:29:53.000Z</time>
      </trkpt>
      <trkpt lat="43.94954" lon="7.13517">
        <ele>556.20001220703</ele>
        <time>2020-05-27T09:29:54.000Z</time>
      </trkpt>
      <trkpt lat="43.94957" lon="7.13515">
        <ele>555.40002441406</ele>
        <time>2020-05-27T09:29:56.000Z</time>
      </trkpt>
      <trkpt lat="43.94953" lon="7.13514">
        <ele>553.59997558594</ele>
        <time>2020-05-27T09:29:58.000Z</time>
      </trkpt>
      <trkpt lat="43.9495" lon="7.13511">
        <ele>552.59997558594</ele>
        <time>2020-05-27T09:29:59.000Z</time>
      </trkpt>
      <trkpt lat="43.94949" lon="7.13508">
        <ele>551.79998779297</ele>
        <time>2020-05-27T09:30:00.000Z</time>
      </trkpt>
      <trkpt lat="43.94946" lon="7.13505">
        <ele>550.59997558594</ele>
        <time>2020-05-27T09:30:01.000Z</time>
      </trkpt>
      <trkpt lat="43.94945" lon="7.13501">
        <ele>549.59997558594</ele>
        <time>2020-05-27T09:30:02.000Z</time>
      </trkpt>
      <trkpt lat="43.94943" lon="7.13498">
        <ele>548.20001220703</ele>
        <time>2020-05-27T09:30:03.000Z</time>
      </trkpt>
      <trkpt lat="43.94941" lon="7.13498">
        <ele>546.79998779297</ele>
        <time>2020-05-27T09:30:04.000Z</time>
      </trkpt>
      <trkpt lat="43.94941" lon="7.13496">
        <ele>546.20001220703</ele>
        <time>2020-05-27T09:30:05.000Z</time>
      </trkpt>
      <trkpt lat="43.94942" lon="7.13495">
        <ele>545.20001220703</ele>
        <time>2020-05-27T09:30:06.000Z</time>
      </trkpt>
      <trkpt lat="43.94946" lon="7.13494">
        <ele>543.59997558594</ele>
        <time>2020-05-27T09:30:08.000Z</time>
      </trkpt>
      <trkpt lat="43.94946" lon="7.13491">
        <ele>542.79998779297</ele>
        <time>2020-05-27T09:30:11.000Z</time>
      </trkpt>
      <trkpt lat="43.94943" lon="7.1349">
        <ele>542.40002441406</ele>
        <time>2020-05-27T09:30:12.000Z</time>
      </trkpt>
      <trkpt lat="43.94943" lon="7.13482">
        <ele>541.79998779297</ele>
        <time>2020-05-27T09:30:16.000Z</time>
      </trkpt>
      <trkpt lat="43.9494" lon="7.13474">
        <ele>541.20001220703</ele>
        <time>2020-05-27T09:30:19.000Z</time>
      </trkpt>
      <trkpt lat="43.9494" lon="7.13471">
        <ele>541</ele>
        <time>2020-05-27T09:30:20.000Z</time>
      </trkpt>
      <trkpt lat="43.94937" lon="7.13466">
        <ele>539.79998779297</ele>
        <time>2020-05-27T09:30:22.000Z</time>
      </trkpt>
      <trkpt lat="43.94936" lon="7.13461">
        <ele>539.59997558594</ele>
        <time>2020-05-27T09:30:23.000Z</time>
      </trkpt>
      <trkpt lat="43.94934" lon="7.13455">
        <ele>539.59997558594</ele>
        <time>2020-05-27T09:30:24.000Z</time>
      </trkpt>
      <trkpt lat="43.94931" lon="7.1345">
        <ele>539.20001220703</ele>
        <time>2020-05-27T09:30:25.000Z</time>
      </trkpt>
      <trkpt lat="43.94928" lon="7.13445">
        <ele>538.79998779297</ele>
        <time>2020-05-27T09:30:26.000Z</time>
      </trkpt>
      <trkpt lat="43.94926" lon="7.13438">
        <ele>538.20001220703</ele>
        <time>2020-05-27T09:30:27.000Z</time>
      </trkpt>
      <trkpt lat="43.94923" lon="7.13433">
        <ele>537.59997558594</ele>
        <time>2020-05-27T09:30:28.000Z</time>
      </trkpt>
      <trkpt lat="43.9492" lon="7.1343">
        <ele>536.59997558594</ele>
        <time>2020-05-27T09:30:29.000Z</time>
      </trkpt>
      <trkpt lat="43.94917" lon="7.1343">
        <ele>535.79998779297</ele>
        <time>2020-05-27T09:30:30.000Z</time>
      </trkpt>
      <trkpt lat="43.94905" lon="7.13433">
        <ele>535.59997558594</ele>
        <time>2020-05-27T09:30:33.000Z</time>
      </trkpt>
      <trkpt lat="43.94902" lon="7.13429">
        <ele>535.40002441406</ele>
        <time>2020-05-27T09:30:34.000Z</time>
      </trkpt>
      <trkpt lat="43.94897" lon="7.13425">
        <ele>535</ele>
        <time>2020-05-27T09:30:36.000Z</time>
      </trkpt>
      <trkpt lat="43.94897" lon="7.13427">
        <ele>534.20001220703</ele>
        <time>2020-05-27T09:30:37.000Z</time>
      </trkpt>
      <trkpt lat="43.94891" lon="7.13429">
        <ele>532.59997558594</ele>
        <time>2020-05-27T09:30:39.000Z</time>
      </trkpt>
      <trkpt lat="43.94886" lon="7.13425">
        <ele>530.79998779297</ele>
        <time>2020-05-27T09:30:41.000Z</time>
      </trkpt>
      <trkpt lat="43.94885" lon="7.13424">
        <ele>529.79998779297</ele>
        <time>2020-05-27T09:30:42.000Z</time>
      </trkpt>
      <trkpt lat="43.94884" lon="7.13422">
        <ele>527.79998779297</ele>
        <time>2020-05-27T09:30:44.000Z</time>
      </trkpt>
      <trkpt lat="43.94885" lon="7.13421">
        <ele>526.59997558594</ele>
        <time>2020-05-27T09:30:45.000Z</time>
      </trkpt>
      <trkpt lat="43.94885" lon="7.1342">
        <ele>526</ele>
        <time>2020-05-27T09:30:46.000Z</time>
      </trkpt>
      <trkpt lat="43.94884" lon="7.13419">
        <ele>525.40002441406</ele>
        <time>2020-05-27T09:30:47.000Z</time>
      </trkpt>
      <trkpt lat="43.94882" lon="7.13418">
        <ele>524.40002441406</ele>
        <time>2020-05-27T09:30:49.000Z</time>
      </trkpt>
      <trkpt lat="43.94883" lon="7.13419">
        <ele>523.79998779297</ele>
        <time>2020-05-27T09:30:50.000Z</time>
      </trkpt>
      <trkpt lat="43.94882" lon="7.13418">
        <ele>523.20001220703</ele>
        <time>2020-05-27T09:30:51.000Z</time>
      </trkpt>
      <trkpt lat="43.9488" lon="7.13416">
        <ele>522</ele>
        <time>2020-05-27T09:30:55.000Z</time>
      </trkpt>
      <trkpt lat="43.94879" lon="7.13416">
        <ele>522</ele>
        <time>2020-05-27T09:30:56.000Z</time>
      </trkpt>
      <trkpt lat="43.94878" lon="7.13415">
        <ele>521</ele>
        <time>2020-05-27T09:31:00.000Z</time>
      </trkpt>
      <trkpt lat="43.94877" lon="7.13415">
        <ele>520.20001220703</ele>
        <time>2020-05-27T09:31:04.000Z</time>
      </trkpt>
      <trkpt lat="43.94872" lon="7.13412">
        <ele>520.20001220703</ele>
        <time>2020-05-27T09:31:11.000Z</time>
      </trkpt>
      <trkpt lat="43.94871" lon="7.13407">
        <ele>520.59997558594</ele>
        <time>2020-05-27T09:31:15.000Z</time>
      </trkpt>
      <trkpt lat="43.94871" lon="7.13403">
        <ele>520.59997558594</ele>
        <time>2020-05-27T09:31:16.000Z</time>
      </trkpt>
      <trkpt lat="43.94871" lon="7.13388">
        <ele>520</ele>
        <time>2020-05-27T09:31:19.000Z</time>
      </trkpt>
      <trkpt lat="43.94871" lon="7.13378">
        <ele>519</ele>
        <time>2020-05-27T09:31:21.000Z</time>
      </trkpt>
      <trkpt lat="43.94872" lon="7.13375">
        <ele>518</ele>
        <time>2020-05-27T09:31:22.000Z</time>
      </trkpt>
      <trkpt lat="43.94871" lon="7.1337">
        <ele>516.79998779297</ele>
        <time>2020-05-27T09:31:23.000Z</time>
      </trkpt>
      <trkpt lat="43.94868" lon="7.13366">
        <ele>516</ele>
        <time>2020-05-27T09:31:24.000Z</time>
      </trkpt>
      <trkpt lat="43.94869" lon="7.13362">
        <ele>514.79998779297</ele>
        <time>2020-05-27T09:31:25.000Z</time>
      </trkpt>
      <trkpt lat="43.9487" lon="7.13357">
        <ele>513.59997558594</ele>
        <time>2020-05-27T09:31:26.000Z</time>
      </trkpt>
      <trkpt lat="43.94869" lon="7.1335">
        <ele>512.79998779297</ele>
        <time>2020-05-27T09:31:27.000Z</time>
      </trkpt>
      <trkpt lat="43.94869" lon="7.13344">
        <ele>512</ele>
        <time>2020-05-27T09:31:28.000Z</time>
      </trkpt>
      <trkpt lat="43.94868" lon="7.13339">
        <ele>510.39999389648</ele>
        <time>2020-05-27T09:31:29.000Z</time>
      </trkpt>
      <trkpt lat="43.94868" lon="7.13335">
        <ele>508.79998779297</ele>
        <time>2020-05-27T09:31:30.000Z</time>
      </trkpt>
      <trkpt lat="43.94867" lon="7.13332">
        <ele>507.79998779297</ele>
        <time>2020-05-27T09:31:31.000Z</time>
      </trkpt>
      <trkpt lat="43.94866" lon="7.1333">
        <ele>506.39999389648</ele>
        <time>2020-05-27T09:31:32.000Z</time>
      </trkpt>
      <trkpt lat="43.94865" lon="7.13327">
        <ele>505.20001220703</ele>
        <time>2020-05-27T09:31:33.000Z</time>
      </trkpt>
      <trkpt lat="43.94864" lon="7.13327">
        <ele>504.79998779297</ele>
        <time>2020-05-27T09:31:34.000Z</time>
      </trkpt>
      <trkpt lat="43.94863" lon="7.13328">
        <ele>504.20001220703</ele>
        <time>2020-05-27T09:31:35.000Z</time>
      </trkpt>
      <trkpt lat="43.94859" lon="7.13329">
        <ele>503.39999389648</ele>
        <time>2020-05-27T09:31:36.000Z</time>
      </trkpt>
      <trkpt lat="43.94858" lon="7.13323">
        <ele>501.39999389648</ele>
        <time>2020-05-27T09:31:38.000Z</time>
      </trkpt>
      <trkpt lat="43.94861" lon="7.13317">
        <ele>500</ele>
        <time>2020-05-27T09:31:40.000Z</time>
      </trkpt>
      <trkpt lat="43.94862" lon="7.13303">
        <ele>498.60000610352</ele>
        <time>2020-05-27T09:31:42.000Z</time>
      </trkpt>
      <trkpt lat="43.94864" lon="7.13296">
        <ele>498</ele>
        <time>2020-05-27T09:31:43.000Z</time>
      </trkpt>
      <trkpt lat="43.94866" lon="7.13292">
        <ele>497.20001220703</ele>
        <time>2020-05-27T09:31:44.000Z</time>
      </trkpt>
      <trkpt lat="43.94865" lon="7.13289">
        <ele>496.20001220703</ele>
        <time>2020-05-27T09:31:45.000Z</time>
      </trkpt>
      <trkpt lat="43.94864" lon="7.13287">
        <ele>495.20001220703</ele>
        <time>2020-05-27T09:31:46.000Z</time>
      </trkpt>
      <trkpt lat="43.94862" lon="7.13276">
        <ele>494.20001220703</ele>
        <time>2020-05-27T09:31:48.000Z</time>
      </trkpt>
      <trkpt lat="43.9486" lon="7.13265">
        <ele>493</ele>
        <time>2020-05-27T09:31:50.000Z</time>
      </trkpt>
      <trkpt lat="43.94861" lon="7.13256">
        <ele>492</ele>
        <time>2020-05-27T09:31:52.000Z</time>
      </trkpt>
      <trkpt lat="43.94861" lon="7.13252">
        <ele>491.39999389648</ele>
        <time>2020-05-27T09:31:53.000Z</time>
      </trkpt>
      <trkpt lat="43.94862" lon="7.13246">
        <ele>491</ele>
        <time>2020-05-27T09:31:55.000Z</time>
      </trkpt>
      <trkpt lat="43.94863" lon="7.13244">
        <ele>490.39999389648</ele>
        <time>2020-05-27T09:31:56.000Z</time>
      </trkpt>
      <trkpt lat="43.94864" lon="7.13234">
        <ele>489.20001220703</ele>
        <time>2020-05-27T09:31:58.000Z</time>
      </trkpt>
      <trkpt lat="43.94862" lon="7.13223">
        <ele>487.60000610352</ele>
        <time>2020-05-27T09:32:00.000Z</time>
      </trkpt>
      <trkpt lat="43.94862" lon="7.13214">
        <ele>485.60000610352</ele>
        <time>2020-05-27T09:32:02.000Z</time>
      </trkpt>
      <trkpt lat="43.9486" lon="7.13211">
        <ele>485</ele>
        <time>2020-05-27T09:32:03.000Z</time>
      </trkpt>
      <trkpt lat="43.94859" lon="7.13207">
        <ele>484</ele>
        <time>2020-05-27T09:32:04.000Z</time>
      </trkpt>
      <trkpt lat="43.94852" lon="7.13197">
        <ele>482.20001220703</ele>
        <time>2020-05-27T09:32:06.000Z</time>
      </trkpt>
      <trkpt lat="43.94848" lon="7.13194">
        <ele>481.60000610352</ele>
        <time>2020-05-27T09:32:07.000Z</time>
      </trkpt>
      <trkpt lat="43.94844" lon="7.13191">
        <ele>481</ele>
        <time>2020-05-27T09:32:08.000Z</time>
      </trkpt>
      <trkpt lat="43.9484" lon="7.13188">
        <ele>480</ele>
        <time>2020-05-27T09:32:09.000Z</time>
      </trkpt>
      <trkpt lat="43.94832" lon="7.1318">
        <ele>479</ele>
        <time>2020-05-27T09:32:11.000Z</time>
      </trkpt>
      <trkpt lat="43.94821" lon="7.13162">
        <ele>477.79998779297</ele>
        <time>2020-05-27T09:32:14.000Z</time>
      </trkpt>
      <trkpt lat="43.94817" lon="7.13158">
        <ele>477.20001220703</ele>
        <time>2020-05-27T09:32:15.000Z</time>
      </trkpt>
      <trkpt lat="43.94814" lon="7.13153">
        <ele>476.60000610352</ele>
        <time>2020-05-27T09:32:16.000Z</time>
      </trkpt>
      <trkpt lat="43.94811" lon="7.13148">
        <ele>475.79998779297</ele>
        <time>2020-05-27T09:32:17.000Z</time>
      </trkpt>
      <trkpt lat="43.94807" lon="7.13142">
        <ele>474.79998779297</ele>
        <time>2020-05-27T09:32:18.000Z</time>
      </trkpt>
      <trkpt lat="43.94805" lon="7.13137">
        <ele>473.79998779297</ele>
        <time>2020-05-27T09:32:19.000Z</time>
      </trkpt>
      <trkpt lat="43.94803" lon="7.13133">
        <ele>473</ele>
        <time>2020-05-27T09:32:20.000Z</time>
      </trkpt>
      <trkpt lat="43.94799" lon="7.13128">
        <ele>471.39999389648</ele>
        <time>2020-05-27T09:32:22.000Z</time>
      </trkpt>
      <trkpt lat="43.94797" lon="7.13127">
        <ele>471.20001220703</ele>
        <time>2020-05-27T09:32:23.000Z</time>
      </trkpt>
      <trkpt lat="43.94792" lon="7.13123">
        <ele>469.60000610352</ele>
        <time>2020-05-27T09:32:25.000Z</time>
      </trkpt>
      <trkpt lat="43.94787" lon="7.13114">
        <ele>468</ele>
        <time>2020-05-27T09:32:27.000Z</time>
      </trkpt>
      <trkpt lat="43.94783" lon="7.1311">
        <ele>466.60000610352</ele>
        <time>2020-05-27T09:32:29.000Z</time>
      </trkpt>
      <trkpt lat="43.94781" lon="7.13107">
        <ele>466.20001220703</ele>
        <time>2020-05-27T09:32:30.000Z</time>
      </trkpt>
      <trkpt lat="43.94779" lon="7.13102">
        <ele>465.39999389648</ele>
        <time>2020-05-27T09:32:31.000Z</time>
      </trkpt>
      <trkpt lat="43.94778" lon="7.13099">
        <ele>463.60000610352</ele>
        <time>2020-05-27T09:32:32.000Z</time>
      </trkpt>
      <trkpt lat="43.94776" lon="7.13096">
        <ele>462.39999389648</ele>
        <time>2020-05-27T09:32:33.000Z</time>
      </trkpt>
      <trkpt lat="43.94776" lon="7.13094">
        <ele>461</ele>
        <time>2020-05-27T09:32:34.000Z</time>
      </trkpt>
      <trkpt lat="43.94776" lon="7.13091">
        <ele>460</ele>
        <time>2020-05-27T09:32:35.000Z</time>
      </trkpt>
      <trkpt lat="43.94775" lon="7.13089">
        <ele>458.79998779297</ele>
        <time>2020-05-27T09:32:36.000Z</time>
      </trkpt>
      <trkpt lat="43.94771" lon="7.13082">
        <ele>457.60000610352</ele>
        <time>2020-05-27T09:32:38.000Z</time>
      </trkpt>
      <trkpt lat="43.94766" lon="7.13078">
        <ele>456</ele>
        <time>2020-05-27T09:32:40.000Z</time>
      </trkpt>
      <trkpt lat="43.94763" lon="7.13074">
        <ele>454.79998779297</ele>
        <time>2020-05-27T09:32:42.000Z</time>
      </trkpt>
      <trkpt lat="43.94761" lon="7.13073">
        <ele>454</ele>
        <time>2020-05-27T09:32:43.000Z</time>
      </trkpt>
      <trkpt lat="43.94759" lon="7.13073">
        <ele>453.39999389648</ele>
        <time>2020-05-27T09:32:44.000Z</time>
      </trkpt>
      <trkpt lat="43.94756" lon="7.13073">
        <ele>451.79998779297</ele>
        <time>2020-05-27T09:32:46.000Z</time>
      </trkpt>
      <trkpt lat="43.94755" lon="7.13072">
        <ele>450.60000610352</ele>
        <time>2020-05-27T09:32:48.000Z</time>
      </trkpt>
      <trkpt lat="43.94751" lon="7.13071">
        <ele>449.60000610352</ele>
        <time>2020-05-27T09:32:51.000Z</time>
      </trkpt>
      <trkpt lat="43.94749" lon="7.1307">
        <ele>449.39999389648</ele>
        <time>2020-05-27T09:32:52.000Z</time>
      </trkpt>
      <trkpt lat="43.94746" lon="7.13071">
        <ele>449</ele>
        <time>2020-05-27T09:32:53.000Z</time>
      </trkpt>
      <trkpt lat="43.94743" lon="7.1307">
        <ele>448.39999389648</ele>
        <time>2020-05-27T09:32:54.000Z</time>
      </trkpt>
      <trkpt lat="43.94737" lon="7.1307">
        <ele>447.60000610352</ele>
        <time>2020-05-27T09:32:56.000Z</time>
      </trkpt>
      <trkpt lat="43.94734" lon="7.13071">
        <ele>447</ele>
        <time>2020-05-27T09:32:57.000Z</time>
      </trkpt>
      <trkpt lat="43.94725" lon="7.13068">
        <ele>446</ele>
        <time>2020-05-27T09:33:00.000Z</time>
      </trkpt>
      <trkpt lat="43.94723" lon="7.13068">
        <ele>445.60000610352</ele>
        <time>2020-05-27T09:33:01.000Z</time>
      </trkpt>
      <trkpt lat="43.94721" lon="7.13067">
        <ele>445.39999389648</ele>
        <time>2020-05-27T09:33:02.000Z</time>
      </trkpt>
      <trkpt lat="43.9472" lon="7.13065">
        <ele>445</ele>
        <time>2020-05-27T09:33:03.000Z</time>
      </trkpt>
      <trkpt lat="43.94716" lon="7.13059">
        <ele>443.79998779297</ele>
        <time>2020-05-27T09:33:05.000Z</time>
      </trkpt>
      <trkpt lat="43.94711" lon="7.13053">
        <ele>442.20001220703</ele>
        <time>2020-05-27T09:33:07.000Z</time>
      </trkpt>
      <trkpt lat="43.94709" lon="7.13052">
        <ele>440.60000610352</ele>
        <time>2020-05-27T09:33:09.000Z</time>
      </trkpt>
      <trkpt lat="43.94707" lon="7.1305">
        <ele>439.60000610352</ele>
        <time>2020-05-27T09:33:11.000Z</time>
      </trkpt>
      <trkpt lat="43.94705" lon="7.13047">
        <ele>439.60000610352</ele>
        <time>2020-05-27T09:33:13.000Z</time>
      </trkpt>
      <trkpt lat="43.94699" lon="7.1304">
        <ele>439.79998779297</ele>
        <time>2020-05-27T09:33:16.000Z</time>
      </trkpt>
      <trkpt lat="43.94697" lon="7.13039">
        <ele>439.20001220703</ele>
        <time>2020-05-27T09:33:17.000Z</time>
      </trkpt>
      <trkpt lat="43.94691" lon="7.13039">
        <ele>438</ele>
        <time>2020-05-27T09:33:19.000Z</time>
      </trkpt>
      <trkpt lat="43.94689" lon="7.13039">
        <ele>437.60000610352</ele>
        <time>2020-05-27T09:33:20.000Z</time>
      </trkpt>
      <trkpt lat="43.94682" lon="7.13035">
        <ele>437.20001220703</ele>
        <time>2020-05-27T09:33:22.000Z</time>
      </trkpt>
      <trkpt lat="43.94676" lon="7.13032">
        <ele>436.79998779297</ele>
        <time>2020-05-27T09:33:24.000Z</time>
      </trkpt>
      <trkpt lat="43.94666" lon="7.13028">
        <ele>435.60000610352</ele>
        <time>2020-05-27T09:33:27.000Z</time>
      </trkpt>
      <trkpt lat="43.94658" lon="7.13028">
        <ele>434.39999389648</ele>
        <time>2020-05-27T09:33:29.000Z</time>
      </trkpt>
      <trkpt lat="43.94651" lon="7.13031">
        <ele>433.39999389648</ele>
        <time>2020-05-27T09:33:31.000Z</time>
      </trkpt>
      <trkpt lat="43.94648" lon="7.13032">
        <ele>433</ele>
        <time>2020-05-27T09:33:32.000Z</time>
      </trkpt>
      <trkpt lat="43.94637" lon="7.13037">
        <ele>431.39999389648</ele>
        <time>2020-05-27T09:33:34.000Z</time>
      </trkpt>
      <trkpt lat="43.94633" lon="7.13038">
        <ele>430.39999389648</ele>
        <time>2020-05-27T09:33:35.000Z</time>
      </trkpt>
      <trkpt lat="43.94629" lon="7.1304">
        <ele>429.39999389648</ele>
        <time>2020-05-27T09:33:36.000Z</time>
      </trkpt>
      <trkpt lat="43.94618" lon="7.13044">
        <ele>428</ele>
        <time>2020-05-27T09:33:38.000Z</time>
      </trkpt>
      <trkpt lat="43.94612" lon="7.13047">
        <ele>427</ele>
        <time>2020-05-27T09:33:39.000Z</time>
      </trkpt>
      <trkpt lat="43.94603" lon="7.13053">
        <ele>424.79998779297</ele>
        <time>2020-05-27T09:33:41.000Z</time>
      </trkpt>
      <trkpt lat="43.94601" lon="7.13057">
        <ele>423.79998779297</ele>
        <time>2020-05-27T09:33:42.000Z</time>
      </trkpt>
      <trkpt lat="43.94597" lon="7.13058">
        <ele>422.39999389648</ele>
        <time>2020-05-27T09:33:43.000Z</time>
      </trkpt>
      <trkpt lat="43.94591" lon="7.13057">
        <ele>421.79998779297</ele>
        <time>2020-05-27T09:33:45.000Z</time>
      </trkpt>
      <trkpt lat="43.94584" lon="7.13053">
        <ele>421.79998779297</ele>
        <time>2020-05-27T09:33:49.000Z</time>
      </trkpt>
      <trkpt lat="43.9458" lon="7.13051">
        <ele>421</ele>
        <time>2020-05-27T09:33:52.000Z</time>
      </trkpt>
      <trkpt lat="43.94576" lon="7.13049">
        <ele>420.20001220703</ele>
        <time>2020-05-27T09:33:54.000Z</time>
      </trkpt>
      <trkpt lat="43.94573" lon="7.1305">
        <ele>420</ele>
        <time>2020-05-27T09:33:55.000Z</time>
      </trkpt>
      <trkpt lat="43.94564" lon="7.13046">
        <ele>418.39999389648</ele>
        <time>2020-05-27T09:33:58.000Z</time>
      </trkpt>
      <trkpt lat="43.94562" lon="7.13043">
        <ele>418</ele>
        <time>2020-05-27T09:33:59.000Z</time>
      </trkpt>
      <trkpt lat="43.94559" lon="7.1304">
        <ele>416.79998779297</ele>
        <time>2020-05-27T09:34:00.000Z</time>
      </trkpt>
      <trkpt lat="43.94556" lon="7.13038">
        <ele>415.39999389648</ele>
        <time>2020-05-27T09:34:01.000Z</time>
      </trkpt>
      <trkpt lat="43.94556" lon="7.13035">
        <ele>414.79998779297</ele>
        <time>2020-05-27T09:34:02.000Z</time>
      </trkpt>
      <trkpt lat="43.94555" lon="7.13034">
        <ele>413.79998779297</ele>
        <time>2020-05-27T09:34:03.000Z</time>
      </trkpt>
      <trkpt lat="43.94553" lon="7.13031">
        <ele>412.39999389648</ele>
        <time>2020-05-27T09:34:05.000Z</time>
      </trkpt>
      <trkpt lat="43.94554" lon="7.13029">
        <ele>412.39999389648</ele>
        <time>2020-05-27T09:34:06.000Z</time>
      </trkpt>
      <trkpt lat="43.94554" lon="7.13027">
        <ele>411.79998779297</ele>
        <time>2020-05-27T09:34:07.000Z</time>
      </trkpt>
      <trkpt lat="43.94554" lon="7.13022">
        <ele>411.20001220703</ele>
        <time>2020-05-27T09:34:09.000Z</time>
      </trkpt>
      <trkpt lat="43.94553" lon="7.13021">
        <ele>410.60000610352</ele>
        <time>2020-05-27T09:34:10.000Z</time>
      </trkpt>
      <trkpt lat="43.94551" lon="7.13018">
        <ele>410.20001220703</ele>
        <time>2020-05-27T09:34:11.000Z</time>
      </trkpt>
      <trkpt lat="43.94548" lon="7.1301">
        <ele>409</ele>
        <time>2020-05-27T09:34:13.000Z</time>
      </trkpt>
      <trkpt lat="43.94547" lon="7.13003">
        <ele>407</ele>
        <time>2020-05-27T09:34:15.000Z</time>
      </trkpt>
      <trkpt lat="43.94545" lon="7.12999">
        <ele>406</ele>
        <time>2020-05-27T09:34:16.000Z</time>
      </trkpt>
      <trkpt lat="43.94542" lon="7.12997">
        <ele>405</ele>
        <time>2020-05-27T09:34:17.000Z</time>
      </trkpt>
      <trkpt lat="43.94538" lon="7.12995">
        <ele>403.79998779297</ele>
        <time>2020-05-27T09:34:18.000Z</time>
      </trkpt>
      <trkpt lat="43.94533" lon="7.12993">
        <ele>402.20001220703</ele>
        <time>2020-05-27T09:34:19.000Z</time>
      </trkpt>
      <trkpt lat="43.94521" lon="7.12988">
        <ele>400.39999389648</ele>
        <time>2020-05-27T09:34:21.000Z</time>
      </trkpt>
      <trkpt lat="43.94517" lon="7.12988">
        <ele>399.39999389648</ele>
        <time>2020-05-27T09:34:22.000Z</time>
      </trkpt>
      <trkpt lat="43.94512" lon="7.12989">
        <ele>398.39999389648</ele>
        <time>2020-05-27T09:34:23.000Z</time>
      </trkpt>
      <trkpt lat="43.94507" lon="7.12991">
        <ele>397</ele>
        <time>2020-05-27T09:34:24.000Z</time>
      </trkpt>
      <trkpt lat="43.94503" lon="7.12991">
        <ele>396</ele>
        <time>2020-05-27T09:34:25.000Z</time>
      </trkpt>
      <trkpt lat="43.94495" lon="7.12984">
        <ele>394.60000610352</ele>
        <time>2020-05-27T09:34:27.000Z</time>
      </trkpt>
      <trkpt lat="43.94491" lon="7.1298">
        <ele>393.60000610352</ele>
        <time>2020-05-27T09:34:28.000Z</time>
      </trkpt>
      <trkpt lat="43.94484" lon="7.12976">
        <ele>391.60000610352</ele>
        <time>2020-05-27T09:34:30.000Z</time>
      </trkpt>
      <trkpt lat="43.94479" lon="7.12974">
        <ele>390.39999389648</ele>
        <time>2020-05-27T09:34:31.000Z</time>
      </trkpt>
      <trkpt lat="43.94475" lon="7.12972">
        <ele>389.20001220703</ele>
        <time>2020-05-27T09:34:32.000Z</time>
      </trkpt>
      <trkpt lat="43.94472" lon="7.12968">
        <ele>388</ele>
        <time>2020-05-27T09:34:34.000Z</time>
      </trkpt>
      <trkpt lat="43.94471" lon="7.12969">
        <ele>388</ele>
        <time>2020-05-27T09:34:38.000Z</time>
      </trkpt>
      <trkpt lat="43.9447" lon="7.12969">
        <ele>388.20001220703</ele>
        <time>2020-05-27T09:34:43.000Z</time>
      </trkpt>
      <trkpt lat="43.94471" lon="7.12967">
        <ele>387.60000610352</ele>
        <time>2020-05-27T09:34:49.000Z</time>
      </trkpt>
      <trkpt lat="43.94472" lon="7.12968">
        <ele>387.79998779297</ele>
        <time>2020-05-27T09:35:00.000Z</time>
      </trkpt>
      <trkpt lat="43.94473" lon="7.12969">
        <ele>387.79998779297</ele>
        <time>2020-05-27T09:35:08.000Z</time>
      </trkpt>
      <trkpt lat="43.94473" lon="7.1297">
        <ele>387.79998779297</ele>
        <time>2020-05-27T09:35:15.000Z</time>
      </trkpt>
      <trkpt lat="43.94472" lon="7.12971">
        <ele>388</ele>
        <time>2020-05-27T09:35:29.000Z</time>
      </trkpt>
      <trkpt lat="43.94472" lon="7.12971">
        <ele>387.79998779297</ele>
        <time>2020-05-27T09:35:39.000Z</time>
      </trkpt>
      <trkpt lat="43.94473" lon="7.12971">
        <ele>387.39999389648</ele>
        <time>2020-05-27T09:35:47.000Z</time>
      </trkpt>
      <trkpt lat="43.94472" lon="7.12972">
        <ele>387.39999389648</ele>
        <time>2020-05-27T09:36:04.000Z</time>
      </trkpt>
      <trkpt lat="43.94472" lon="7.12972">
        <ele>387.60000610352</ele>
        <time>2020-05-27T09:36:13.000Z</time>
      </trkpt>
      <trkpt lat="43.94472" lon="7.12973">
        <ele>387.79998779297</ele>
        <time>2020-05-27T09:36:27.000Z</time>
      </trkpt>
      <trkpt lat="43.94472" lon="7.12972">
        <ele>387.79998779297</ele>
        <time>2020-05-27T09:36:37.000Z</time>
      </trkpt>
      <trkpt lat="43.94471" lon="7.12972">
        <ele>387.79998779297</ele>
        <time>2020-05-27T09:36:44.000Z</time>
      </trkpt>
      <trkpt lat="43.94472" lon="7.12972">
        <ele>387.79998779297</ele>
        <time>2020-05-27T09:36:54.000Z</time>
      </trkpt>
      <trkpt lat="43.94471" lon="7.12972">
        <ele>387.60000610352</ele>
        <time>2020-05-27T09:37:05.000Z</time>
      </trkpt>
      <trkpt lat="43.94472" lon="7.12972">
        <ele>388</ele>
        <time>2020-05-27T09:37:09.000Z</time>
      </trkpt>
      <trkpt lat="43.94472" lon="7.12972">
        <ele>388</ele>
        <time>2020-05-27T09:37:11.000Z</time>
      </trkpt>
      <trkpt lat="43.9447" lon="7.12973">
        <ele>387.39999389648</ele>
        <time>2020-05-27T09:37:25.000Z</time>
      </trkpt>
      <trkpt lat="43.9447" lon="7.12972">
        <ele>387.79998779297</ele>
        <time>2020-05-27T09:37:37.000Z</time>
      </trkpt>
      <trkpt lat="43.94469" lon="7.12972">
        <ele>387.60000610352</ele>
        <time>2020-05-27T09:37:50.000Z</time>
      </trkpt>
      <trkpt lat="43.94469" lon="7.12971">
        <ele>387.79998779297</ele>
        <time>2020-05-27T09:38:03.000Z</time>
      </trkpt>
      <trkpt lat="43.94469" lon="7.12971">
        <ele>387.79998779297</ele>
        <time>2020-05-27T09:38:12.000Z</time>
      </trkpt>
      <trkpt lat="43.94469" lon="7.12971">
        <ele>387.79998779297</ele>
        <time>2020-05-27T09:38:21.000Z</time>
      </trkpt>
      <trkpt lat="43.94469" lon="7.12972">
        <ele>387.60000610352</ele>
        <time>2020-05-27T09:38:31.000Z</time>
      </trkpt>
      <trkpt lat="43.94469" lon="7.12972">
        <ele>387.60000610352</ele>
        <time>2020-05-27T09:38:39.000Z</time>
      </trkpt>
      <trkpt lat="43.94469" lon="7.12973">
        <ele>387.20001220703</ele>
        <time>2020-05-27T09:38:52.000Z</time>
      </trkpt>
      <trkpt lat="43.94469" lon="7.12974">
        <ele>387.20001220703</ele>
        <time>2020-05-27T09:39:00.000Z</time>
      </trkpt>
      <trkpt lat="43.94469" lon="7.12975">
        <ele>387.20001220703</ele>
        <time>2020-05-27T09:39:06.000Z</time>
      </trkpt>
      <trkpt lat="43.94469" lon="7.12974">
        <ele>387.39999389648</ele>
        <time>2020-05-27T09:39:12.000Z</time>
      </trkpt>
      <trkpt lat="43.9447" lon="7.12974">
        <ele>387.60000610352</ele>
        <time>2020-05-27T09:39:19.000Z</time>
      </trkpt>
      <trkpt lat="43.9447" lon="7.12973">
        <ele>387.79998779297</ele>
        <time>2020-05-27T09:39:29.000Z</time>
      </trkpt>
      <trkpt lat="43.94469" lon="7.12973">
        <ele>387.60000610352</ele>
        <time>2020-05-27T09:39:42.000Z</time>
      </trkpt>
      <trkpt lat="43.94469" lon="7.12972">
        <ele>387</ele>
        <time>2020-05-27T09:39:46.000Z</time>
      </trkpt>
      <trkpt lat="43.94469" lon="7.12972">
        <ele>387.60000610352</ele>
        <time>2020-05-27T09:39:53.000Z</time>
      </trkpt>
      <trkpt lat="43.9447" lon="7.12971">
        <ele>387.39999389648</ele>
        <time>2020-05-27T09:40:04.000Z</time>
      </trkpt>
      <trkpt lat="43.94471" lon="7.1297">
        <ele>387.39999389648</ele>
        <time>2020-05-27T09:40:23.000Z</time>
      </trkpt>
      <trkpt lat="43.94471" lon="7.1297">
        <ele>386.79998779297</ele>
        <time>2020-05-27T09:40:30.000Z</time>
      </trkpt>
      <trkpt lat="43.94472" lon="7.1297">
        <ele>387.20001220703</ele>
        <time>2020-05-27T09:40:41.000Z</time>
      </trkpt>
      <trkpt lat="43.94472" lon="7.1297">
        <ele>387</ele>
        <time>2020-05-27T09:40:49.000Z</time>
      </trkpt>
      <trkpt lat="43.94471" lon="7.12971">
        <ele>386.79998779297</ele>
        <time>2020-05-27T09:40:56.000Z</time>
      </trkpt>
      <trkpt lat="43.94471" lon="7.12971">
        <ele>386.60000610352</ele>
        <time>2020-05-27T09:41:02.000Z</time>
      </trkpt>
      <trkpt lat="43.94474" lon="7.12971">
        <ele>386.79998779297</ele>
        <time>2020-05-27T09:41:05.000Z</time>
      </trkpt>
      <trkpt lat="43.94477" lon="7.12972">
        <ele>387</ele>
        <time>2020-05-27T09:41:07.000Z</time>
      </trkpt>
      <trkpt lat="43.94486" lon="7.12975">
        <ele>386.60000610352</ele>
        <time>2020-05-27T09:41:11.000Z</time>
      </trkpt>
      <trkpt lat="43.94488" lon="7.12977">
        <ele>386.60000610352</ele>
        <time>2020-05-27T09:41:12.000Z</time>
      </trkpt>
      <trkpt lat="43.94502" lon="7.12983">
        <ele>386.60000610352</ele>
        <time>2020-05-27T09:41:17.000Z</time>
      </trkpt>
      <trkpt lat="43.94504" lon="7.12981">
        <ele>386.20001220703</ele>
        <time>2020-05-27T09:41:18.000Z</time>
      </trkpt>
      <trkpt lat="43.94512" lon="7.12977">
        <ele>385.79998779297</ele>
        <time>2020-05-27T09:41:21.000Z</time>
      </trkpt>
      <trkpt lat="43.94534" lon="7.12975">
        <ele>385</ele>
        <time>2020-05-27T09:41:27.000Z</time>
      </trkpt>
      <trkpt lat="43.94538" lon="7.12976">
        <ele>384.79998779297</ele>
        <time>2020-05-27T09:41:28.000Z</time>
      </trkpt>
      <trkpt lat="43.94555" lon="7.12984">
        <ele>384.20001220703</ele>
        <time>2020-05-27T09:41:32.000Z</time>
      </trkpt>
      <trkpt lat="43.94564" lon="7.1299">
        <ele>383.79998779297</ele>
        <time>2020-05-27T09:41:34.000Z</time>
      </trkpt>
      <trkpt lat="43.94579" lon="7.12997">
        <ele>382.79998779297</ele>
        <time>2020-05-27T09:41:37.000Z</time>
      </trkpt>
      <trkpt lat="43.94585" lon="7.12997">
        <ele>382.39999389648</ele>
        <time>2020-05-27T09:41:38.000Z</time>
      </trkpt>
      <trkpt lat="43.94595" lon="7.12991">
        <ele>381.39999389648</ele>
        <time>2020-05-27T09:41:40.000Z</time>
      </trkpt>
      <trkpt lat="43.94599" lon="7.12985">
        <ele>381</ele>
        <time>2020-05-27T09:41:41.000Z</time>
      </trkpt>
      <trkpt lat="43.94606" lon="7.12968">
        <ele>380.60000610352</ele>
        <time>2020-05-27T09:41:43.000Z</time>
      </trkpt>
      <trkpt lat="43.94608" lon="7.12948">
        <ele>379.79998779297</ele>
        <time>2020-05-27T09:41:45.000Z</time>
      </trkpt>
      <trkpt lat="43.94604" lon="7.12941">
        <ele>379.60000610352</ele>
        <time>2020-05-27T09:41:46.000Z</time>
      </trkpt>
      <trkpt lat="43.94592" lon="7.12933">
        <ele>378.60000610352</ele>
        <time>2020-05-27T09:41:48.000Z</time>
      </trkpt>
      <trkpt lat="43.94582" lon="7.12924">
        <ele>377.79998779297</ele>
        <time>2020-05-27T09:41:50.000Z</time>
      </trkpt>
      <trkpt lat="43.94578" lon="7.12919">
        <ele>377.60000610352</ele>
        <time>2020-05-27T09:41:51.000Z</time>
      </trkpt>
      <trkpt lat="43.94571" lon="7.12913">
        <ele>377.39999389648</ele>
        <time>2020-05-27T09:41:53.000Z</time>
      </trkpt>
      <trkpt lat="43.94559" lon="7.12907">
        <ele>378.79998779297</ele>
        <time>2020-05-27T09:41:57.000Z</time>
      </trkpt>
      <trkpt lat="43.94551" lon="7.12901">
        <ele>379.20001220703</ele>
        <time>2020-05-27T09:42:02.000Z</time>
      </trkpt>
      <trkpt lat="43.94542" lon="7.12898">
        <ele>379.79998779297</ele>
        <time>2020-05-27T09:42:07.000Z</time>
      </trkpt>
      <trkpt lat="43.94538" lon="7.12896">
        <ele>380</ele>
        <time>2020-05-27T09:42:09.000Z</time>
      </trkpt>
      <trkpt lat="43.9453" lon="7.12888">
        <ele>381</ele>
        <time>2020-05-27T09:42:14.000Z</time>
      </trkpt>
      <trkpt lat="43.94529" lon="7.12887">
        <ele>381</ele>
        <time>2020-05-27T09:42:15.000Z</time>
      </trkpt>
      <trkpt lat="43.9452" lon="7.12882">
        <ele>382</ele>
        <time>2020-05-27T09:42:20.000Z</time>
      </trkpt>
      <trkpt lat="43.94518" lon="7.1288">
        <ele>382</ele>
        <time>2020-05-27T09:42:21.000Z</time>
      </trkpt>
      <trkpt lat="43.9451" lon="7.12876">
        <ele>382.20001220703</ele>
        <time>2020-05-27T09:42:27.000Z</time>
      </trkpt>
      <trkpt lat="43.94503" lon="7.1287">
        <ele>383</ele>
        <time>2020-05-27T09:42:32.000Z</time>
      </trkpt>
      <trkpt lat="43.94502" lon="7.1287">
        <ele>383.20001220703</ele>
        <time>2020-05-27T09:42:33.000Z</time>
      </trkpt>
      <trkpt lat="43.94492" lon="7.12856">
        <ele>383.79998779297</ele>
        <time>2020-05-27T09:42:41.000Z</time>
      </trkpt>
      <trkpt lat="43.94488" lon="7.1285">
        <ele>384.20001220703</ele>
        <time>2020-05-27T09:42:44.000Z</time>
      </trkpt>
      <trkpt lat="43.94482" lon="7.12839">
        <ele>384.79998779297</ele>
        <time>2020-05-27T09:42:49.000Z</time>
      </trkpt>
      <trkpt lat="43.94481" lon="7.12828">
        <ele>385.20001220703</ele>
        <time>2020-05-27T09:42:53.000Z</time>
      </trkpt>
      <trkpt lat="43.94481" lon="7.12825">
        <ele>385.20001220703</ele>
        <time>2020-05-27T09:42:54.000Z</time>
      </trkpt>
      <trkpt lat="43.9449" lon="7.12811">
        <ele>385.60000610352</ele>
        <time>2020-05-27T09:43:00.000Z</time>
      </trkpt>
      <trkpt lat="43.94498" lon="7.12807">
        <ele>386.20001220703</ele>
        <time>2020-05-27T09:43:04.000Z</time>
      </trkpt>
      <trkpt lat="43.945" lon="7.12805">
        <ele>386.39999389648</ele>
        <time>2020-05-27T09:43:05.000Z</time>
      </trkpt>
      <trkpt lat="43.94509" lon="7.128">
        <ele>387.39999389648</ele>
        <time>2020-05-27T09:43:09.000Z</time>
      </trkpt>
      <trkpt lat="43.9451" lon="7.12799">
        <ele>387.60000610352</ele>
        <time>2020-05-27T09:43:10.000Z</time>
      </trkpt>
      <trkpt lat="43.94522" lon="7.12794">
        <ele>388.39999389648</ele>
        <time>2020-05-27T09:43:16.000Z</time>
      </trkpt>
      <trkpt lat="43.94528" lon="7.1279">
        <ele>388.39999389648</ele>
        <time>2020-05-27T09:43:19.000Z</time>
      </trkpt>
      <trkpt lat="43.94535" lon="7.12782">
        <ele>388.79998779297</ele>
        <time>2020-05-27T09:43:23.000Z</time>
      </trkpt>
      <trkpt lat="43.94542" lon="7.12773">
        <ele>389.60000610352</ele>
        <time>2020-05-27T09:43:27.000Z</time>
      </trkpt>
      <trkpt lat="43.94545" lon="7.12767">
        <ele>390</ele>
        <time>2020-05-27T09:43:29.000Z</time>
      </trkpt>
      <trkpt lat="43.9455" lon="7.12752">
        <ele>390.60000610352</ele>
        <time>2020-05-27T09:43:34.000Z</time>
      </trkpt>
      <trkpt lat="43.94552" lon="7.12746">
        <ele>391</ele>
        <time>2020-05-27T09:43:36.000Z</time>
      </trkpt>
      <trkpt lat="43.94558" lon="7.12727">
        <ele>392</ele>
        <time>2020-05-27T09:43:42.000Z</time>
      </trkpt>
      <trkpt lat="43.94559" lon="7.12725">
        <ele>392.20001220703</ele>
        <time>2020-05-27T09:43:43.000Z</time>
      </trkpt>
      <trkpt lat="43.94567" lon="7.12712">
        <ele>393</ele>
        <time>2020-05-27T09:43:48.000Z</time>
      </trkpt>
      <trkpt lat="43.9457" lon="7.12706">
        <ele>393.39999389648</ele>
        <time>2020-05-27T09:43:50.000Z</time>
      </trkpt>
      <trkpt lat="43.9458" lon="7.12693">
        <ele>394.20001220703</ele>
        <time>2020-05-27T09:43:55.000Z</time>
      </trkpt>
      <trkpt lat="43.94584" lon="7.12688">
        <ele>394.60000610352</ele>
        <time>2020-05-27T09:43:57.000Z</time>
      </trkpt>
      <trkpt lat="43.9459" lon="7.12675">
        <ele>395.39999389648</ele>
        <time>2020-05-27T09:44:01.000Z</time>
      </trkpt>
      <trkpt lat="43.94592" lon="7.12665">
        <ele>396</ele>
        <time>2020-05-27T09:44:04.000Z</time>
      </trkpt>
      <trkpt lat="43.94592" lon="7.12654">
        <ele>396.60000610352</ele>
        <time>2020-05-27T09:44:07.000Z</time>
      </trkpt>
      <trkpt lat="43.94593" lon="7.1264">
        <ele>397.39999389648</ele>
        <time>2020-05-27T09:44:11.000Z</time>
      </trkpt>
      <trkpt lat="43.94593" lon="7.12637">
        <ele>397.60000610352</ele>
        <time>2020-05-27T09:44:12.000Z</time>
      </trkpt>
      <trkpt lat="43.94596" lon="7.12617">
        <ele>398.60000610352</ele>
        <time>2020-05-27T09:44:18.000Z</time>
      </trkpt>
      <trkpt lat="43.94596" lon="7.12613">
        <ele>398.79998779297</ele>
        <time>2020-05-27T09:44:19.000Z</time>
      </trkpt>
      <trkpt lat="43.94599" lon="7.12601">
        <ele>399.79998779297</ele>
        <time>2020-05-27T09:44:23.000Z</time>
      </trkpt>
      <trkpt lat="43.94601" lon="7.12595">
        <ele>400</ele>
        <time>2020-05-27T09:44:25.000Z</time>
      </trkpt>
      <trkpt lat="43.94602" lon="7.12581">
        <ele>400.79998779297</ele>
        <time>2020-05-27T09:44:29.000Z</time>
      </trkpt>
      <trkpt lat="43.946" lon="7.12575">
        <ele>401</ele>
        <time>2020-05-27T09:44:31.000Z</time>
      </trkpt>
      <trkpt lat="43.9459" lon="7.12545">
        <ele>401.60000610352</ele>
        <time>2020-05-27T09:44:40.000Z</time>
      </trkpt>
      <trkpt lat="43.94588" lon="7.12517">
        <ele>401.39999389648</ele>
        <time>2020-05-27T09:44:46.000Z</time>
      </trkpt>
      <trkpt lat="43.94579" lon="7.12499">
        <ele>401</ele>
        <time>2020-05-27T09:44:50.000Z</time>
      </trkpt>
      <trkpt lat="43.94574" lon="7.12483">
        <ele>400.60000610352</ele>
        <time>2020-05-27T09:44:53.000Z</time>
      </trkpt>
      <trkpt lat="43.9457" lon="7.12466">
        <ele>400.20001220703</ele>
        <time>2020-05-27T09:44:56.000Z</time>
      </trkpt>
      <trkpt lat="43.94568" lon="7.12449">
        <ele>400.20001220703</ele>
        <time>2020-05-27T09:44:59.000Z</time>
      </trkpt>
      <trkpt lat="43.94568" lon="7.12437">
        <ele>400</ele>
        <time>2020-05-27T09:45:01.000Z</time>
      </trkpt>
      <trkpt lat="43.94569" lon="7.1243">
        <ele>399.79998779297</ele>
        <time>2020-05-27T09:45:02.000Z</time>
      </trkpt>
      <trkpt lat="43.94571" lon="7.12425">
        <ele>399.60000610352</ele>
        <time>2020-05-27T09:45:03.000Z</time>
      </trkpt>
      <trkpt lat="43.94577" lon="7.12418">
        <ele>399.39999389648</ele>
        <time>2020-05-27T09:45:05.000Z</time>
      </trkpt>
      <trkpt lat="43.94586" lon="7.1241">
        <ele>399.20001220703</ele>
        <time>2020-05-27T09:45:09.000Z</time>
      </trkpt>
      <trkpt lat="43.94583" lon="7.12401">
        <ele>399.79998779297</ele>
        <time>2020-05-27T09:45:13.000Z</time>
      </trkpt>
      <trkpt lat="43.94581" lon="7.12395">
        <ele>400.20001220703</ele>
        <time>2020-05-27T09:45:15.000Z</time>
      </trkpt>
      <trkpt lat="43.94579" lon="7.12388">
        <ele>400.60000610352</ele>
        <time>2020-05-27T09:45:17.000Z</time>
      </trkpt>
      <trkpt lat="43.94577" lon="7.12386">
        <ele>400.79998779297</ele>
        <time>2020-05-27T09:45:18.000Z</time>
      </trkpt>
      <trkpt lat="43.94569" lon="7.12376">
        <ele>401.60000610352</ele>
        <time>2020-05-27T09:45:22.000Z</time>
      </trkpt>
      <trkpt lat="43.94562" lon="7.12377">
        <ele>402</ele>
        <time>2020-05-27T09:45:24.000Z</time>
      </trkpt>
      <trkpt lat="43.94557" lon="7.12379">
        <ele>402.20001220703</ele>
        <time>2020-05-27T09:45:26.000Z</time>
      </trkpt>
      <trkpt lat="43.94555" lon="7.1238">
        <ele>402.20001220703</ele>
        <time>2020-05-27T09:45:27.000Z</time>
      </trkpt>
      <trkpt lat="43.94541" lon="7.12386">
        <ele>402.79998779297</ele>
        <time>2020-05-27T09:45:32.000Z</time>
      </trkpt>
      <trkpt lat="43.94539" lon="7.12387">
        <ele>403</ele>
        <time>2020-05-27T09:45:33.000Z</time>
      </trkpt>
      <trkpt lat="43.94528" lon="7.12392">
        <ele>404</ele>
        <time>2020-05-27T09:45:38.000Z</time>
      </trkpt>
      <trkpt lat="43.94525" lon="7.12395">
        <ele>404.39999389648</ele>
        <time>2020-05-27T09:45:40.000Z</time>
      </trkpt>
      <trkpt lat="43.94518" lon="7.12404">
        <ele>405.20001220703</ele>
        <time>2020-05-27T09:45:44.000Z</time>
      </trkpt>
      <trkpt lat="43.94515" lon="7.12412">
        <ele>405.60000610352</ele>
        <time>2020-05-27T09:45:47.000Z</time>
      </trkpt>
      <trkpt lat="43.94513" lon="7.1242">
        <ele>406.20001220703</ele>
        <time>2020-05-27T09:45:50.000Z</time>
      </trkpt>
      <trkpt lat="43.94514" lon="7.12433">
        <ele>406.79998779297</ele>
        <time>2020-05-27T09:45:54.000Z</time>
      </trkpt>
      <trkpt lat="43.94514" lon="7.12443">
        <ele>407.20001220703</ele>
        <time>2020-05-27T09:45:57.000Z</time>
      </trkpt>
      <trkpt lat="43.94513" lon="7.1246">
        <ele>408.20001220703</ele>
        <time>2020-05-27T09:46:02.000Z</time>
      </trkpt>
      <trkpt lat="43.94512" lon="7.12463">
        <ele>408.39999389648</ele>
        <time>2020-05-27T09:46:03.000Z</time>
      </trkpt>
      <trkpt lat="43.94506" lon="7.1248">
        <ele>409.39999389648</ele>
        <time>2020-05-27T09:46:09.000Z</time>
      </trkpt>
      <trkpt lat="43.94505" lon="7.12483">
        <ele>409.60000610352</ele>
        <time>2020-05-27T09:46:10.000Z</time>
      </trkpt>
      <trkpt lat="43.94501" lon="7.12501">
        <ele>410.60000610352</ele>
        <time>2020-05-27T09:46:16.000Z</time>
      </trkpt>
      <trkpt lat="43.945" lon="7.12507">
        <ele>411</ele>
        <time>2020-05-27T09:46:18.000Z</time>
      </trkpt>
      <trkpt lat="43.94501" lon="7.12523">
        <ele>411.79998779297</ele>
        <time>2020-05-27T09:46:23.000Z</time>
      </trkpt>
      <trkpt lat="43.94502" lon="7.12532">
        <ele>412</ele>
        <time>2020-05-27T09:46:26.000Z</time>
      </trkpt>
      <trkpt lat="43.94505" lon="7.12548">
        <ele>412.79998779297</ele>
        <time>2020-05-27T09:46:31.000Z</time>
      </trkpt>
      <trkpt lat="43.94504" lon="7.12557">
        <ele>413.20001220703</ele>
        <time>2020-05-27T09:46:34.000Z</time>
      </trkpt>
      <trkpt lat="43.94499" lon="7.12567">
        <ele>413.79998779297</ele>
        <time>2020-05-27T09:46:38.000Z</time>
      </trkpt>
      <trkpt lat="43.94497" lon="7.12568">
        <ele>414</ele>
        <time>2020-05-27T09:46:39.000Z</time>
      </trkpt>
      <trkpt lat="43.94489" lon="7.12569">
        <ele>414.79998779297</ele>
        <time>2020-05-27T09:46:43.000Z</time>
      </trkpt>
      <trkpt lat="43.94482" lon="7.12569">
        <ele>415.60000610352</ele>
        <time>2020-05-27T09:46:46.000Z</time>
      </trkpt>
      <trkpt lat="43.94478" lon="7.12568">
        <ele>416</ele>
        <time>2020-05-27T09:46:48.000Z</time>
      </trkpt>
      <trkpt lat="43.94466" lon="7.12569">
        <ele>416.79998779297</ele>
        <time>2020-05-27T09:46:53.000Z</time>
      </trkpt>
      <trkpt lat="43.94463" lon="7.12569">
        <ele>417</ele>
        <time>2020-05-27T09:46:54.000Z</time>
      </trkpt>
      <trkpt lat="43.94449" lon="7.12574">
        <ele>418.20001220703</ele>
        <time>2020-05-27T09:47:01.000Z</time>
      </trkpt>
      <trkpt lat="43.94447" lon="7.12575">
        <ele>418.39999389648</ele>
        <time>2020-05-27T09:47:02.000Z</time>
      </trkpt>
      <trkpt lat="43.94436" lon="7.12578">
        <ele>419.39999389648</ele>
        <time>2020-05-27T09:47:08.000Z</time>
      </trkpt>
      <trkpt lat="43.94422" lon="7.12584">
        <ele>420.20001220703</ele>
        <time>2020-05-27T09:47:15.000Z</time>
      </trkpt>
      <trkpt lat="43.94419" lon="7.12585">
        <ele>420.60000610352</ele>
        <time>2020-05-27T09:47:16.000Z</time>
      </trkpt>
      <trkpt lat="43.94405" lon="7.12587">
        <ele>421.60000610352</ele>
        <time>2020-05-27T09:47:22.000Z</time>
      </trkpt>
      <trkpt lat="43.94396" lon="7.1258">
        <ele>422.60000610352</ele>
        <time>2020-05-27T09:47:27.000Z</time>
      </trkpt>
      <trkpt lat="43.94394" lon="7.12577">
        <ele>422.79998779297</ele>
        <time>2020-05-27T09:47:28.000Z</time>
      </trkpt>
      <trkpt lat="43.94384" lon="7.12566">
        <ele>423.79998779297</ele>
        <time>2020-05-27T09:47:34.000Z</time>
      </trkpt>
      <trkpt lat="43.94375" lon="7.12558">
        <ele>424.79998779297</ele>
        <time>2020-05-27T09:47:39.000Z</time>
      </trkpt>
      <trkpt lat="43.94368" lon="7.12556">
        <ele>425.39999389648</ele>
        <time>2020-05-27T09:47:42.000Z</time>
      </trkpt>
      <trkpt lat="43.94358" lon="7.12558">
        <ele>426</ele>
        <time>2020-05-27T09:47:46.000Z</time>
      </trkpt>
      <trkpt lat="43.94354" lon="7.1256">
        <ele>426.20001220703</ele>
        <time>2020-05-27T09:47:48.000Z</time>
      </trkpt>
      <trkpt lat="43.94343" lon="7.12567">
        <ele>427</ele>
        <time>2020-05-27T09:47:53.000Z</time>
      </trkpt>
      <trkpt lat="43.94337" lon="7.12572">
        <ele>427.39999389648</ele>
        <time>2020-05-27T09:47:56.000Z</time>
      </trkpt>
      <trkpt lat="43.9433" lon="7.12579">
        <ele>428</ele>
        <time>2020-05-27T09:48:00.000Z</time>
      </trkpt>
      <trkpt lat="43.94323" lon="7.12583">
        <ele>428.60000610352</ele>
        <time>2020-05-27T09:48:03.000Z</time>
      </trkpt>
      <trkpt lat="43.94314" lon="7.12585">
        <ele>429.20001220703</ele>
        <time>2020-05-27T09:48:07.000Z</time>
      </trkpt>
      <trkpt lat="43.94309" lon="7.12584">
        <ele>429.60000610352</ele>
        <time>2020-05-27T09:48:09.000Z</time>
      </trkpt>
      <trkpt lat="43.943" lon="7.1258">
        <ele>430.39999389648</ele>
        <time>2020-05-27T09:48:13.000Z</time>
      </trkpt>
      <trkpt lat="43.94293" lon="7.12577">
        <ele>430.79998779297</ele>
        <time>2020-05-27T09:48:16.000Z</time>
      </trkpt>
      <trkpt lat="43.94285" lon="7.12574">
        <ele>431.39999389648</ele>
        <time>2020-05-27T09:48:20.000Z</time>
      </trkpt>
      <trkpt lat="43.94276" lon="7.12571">
        <ele>431.79998779297</ele>
        <time>2020-05-27T09:48:24.000Z</time>
      </trkpt>
      <trkpt lat="43.9427" lon="7.1257">
        <ele>432.39999389648</ele>
        <time>2020-05-27T09:48:27.000Z</time>
      </trkpt>
      <trkpt lat="43.94262" lon="7.12569">
        <ele>433.20001220703</ele>
        <time>2020-05-27T09:48:31.000Z</time>
      </trkpt>
      <trkpt lat="43.94258" lon="7.12568">
        <ele>433.60000610352</ele>
        <time>2020-05-27T09:48:33.000Z</time>
      </trkpt>
      <trkpt lat="43.94252" lon="7.12566">
        <ele>434.20001220703</ele>
        <time>2020-05-27T09:48:37.000Z</time>
      </trkpt>
      <trkpt lat="43.94252" lon="7.12564">
        <ele>434.39999389648</ele>
        <time>2020-05-27T09:48:38.000Z</time>
      </trkpt>
      <trkpt lat="43.94253" lon="7.12562">
        <ele>434.60000610352</ele>
        <time>2020-05-27T09:48:40.000Z</time>
      </trkpt>
      <trkpt lat="43.94254" lon="7.12561">
        <ele>434.79998779297</ele>
        <time>2020-05-27T09:48:42.000Z</time>
      </trkpt>
      <trkpt lat="43.94255" lon="7.12561">
        <ele>434.79998779297</ele>
        <time>2020-05-27T09:48:44.000Z</time>
      </trkpt>
      <trkpt lat="43.94259" lon="7.12558">
        <ele>435</ele>
        <time>2020-05-27T09:48:48.000Z</time>
      </trkpt>
      <trkpt lat="43.94262" lon="7.12556">
        <ele>435</ele>
        <time>2020-05-27T09:48:54.000Z</time>
      </trkpt>
      <trkpt lat="43.94262" lon="7.12555">
        <ele>435.20001220703</ele>
        <time>2020-05-27T09:49:02.000Z</time>
      </trkpt>
      <trkpt lat="43.94262" lon="7.12554">
        <ele>435.20001220703</ele>
        <time>2020-05-27T09:49:16.000Z</time>
      </trkpt>
      <trkpt lat="43.94261" lon="7.12554">
        <ele>435</ele>
        <time>2020-05-27T09:49:32.000Z</time>
      </trkpt>
      <trkpt lat="43.94262" lon="7.12551">
        <ele>434.79998779297</ele>
        <time>2020-05-27T09:49:52.000Z</time>
      </trkpt>
      <trkpt lat="43.94262" lon="7.12551">
        <ele>434.79998779297</ele>
        <time>2020-05-27T09:50:05.000Z</time>
      </trkpt>
      <trkpt lat="43.94261" lon="7.12551">
        <ele>434.79998779297</ele>
        <time>2020-05-27T09:50:13.000Z</time>
      </trkpt>
      <trkpt lat="43.9426" lon="7.1255">
        <ele>434.79998779297</ele>
        <time>2020-05-27T09:50:25.000Z</time>
      </trkpt>
      <trkpt lat="43.9426" lon="7.12551">
        <ele>434.60000610352</ele>
        <time>2020-05-27T09:50:36.000Z</time>
      </trkpt>
      <trkpt lat="43.94261" lon="7.12556">
        <ele>434.79998779297</ele>
        <time>2020-05-27T09:50:42.000Z</time>
      </trkpt>
      <trkpt lat="43.94261" lon="7.12557">
        <ele>435.20001220703</ele>
        <time>2020-05-27T09:50:51.000Z</time>
      </trkpt>
      <trkpt lat="43.9426" lon="7.12559">
        <ele>434.39999389648</ele>
        <time>2020-05-27T09:50:57.000Z</time>
      </trkpt>
      <trkpt lat="43.94261" lon="7.12559">
        <ele>434.79998779297</ele>
        <time>2020-05-27T09:51:06.000Z</time>
      </trkpt>
      <trkpt lat="43.9426" lon="7.12561">
        <ele>434.60000610352</ele>
        <time>2020-05-27T09:51:14.000Z</time>
      </trkpt>
      <trkpt lat="43.9426" lon="7.12562">
        <ele>433.79998779297</ele>
        <time>2020-05-27T09:51:20.000Z</time>
      </trkpt>
      <trkpt lat="43.9426" lon="7.12561">
        <ele>434.20001220703</ele>
        <time>2020-05-27T09:51:25.000Z</time>
      </trkpt>
      <trkpt lat="43.9426" lon="7.12563">
        <ele>434.39999389648</ele>
        <time>2020-05-27T09:51:36.000Z</time>
      </trkpt>
      <trkpt lat="43.94261" lon="7.12564">
        <ele>434</ele>
        <time>2020-05-27T09:51:45.000Z</time>
      </trkpt>
      <trkpt lat="43.94262" lon="7.12563">
        <ele>433.60000610352</ele>
        <time>2020-05-27T09:51:50.000Z</time>
      </trkpt>
      <trkpt lat="43.94262" lon="7.12564">
        <ele>434</ele>
        <time>2020-05-27T09:51:56.000Z</time>
      </trkpt>
      <trkpt lat="43.94259" lon="7.12564">
        <ele>434</ele>
        <time>2020-05-27T09:52:10.000Z</time>
      </trkpt>
      <trkpt lat="43.94258" lon="7.12566">
        <ele>433.60000610352</ele>
        <time>2020-05-27T09:52:27.000Z</time>
      </trkpt>
      <trkpt lat="43.94258" lon="7.12567">
        <ele>433.79998779297</ele>
        <time>2020-05-27T09:52:40.000Z</time>
      </trkpt>
      <trkpt lat="43.94257" lon="7.12566">
        <ele>433.79998779297</ele>
        <time>2020-05-27T09:52:52.000Z</time>
      </trkpt>
      <trkpt lat="43.94257" lon="7.12565">
        <ele>433.79998779297</ele>
        <time>2020-05-27T09:52:59.000Z</time>
      </trkpt>
      <trkpt lat="43.94257" lon="7.12566">
        <ele>433.79998779297</ele>
        <time>2020-05-27T09:53:04.000Z</time>
      </trkpt>
      <trkpt lat="43.94258" lon="7.12565">
        <ele>433.79998779297</ele>
        <time>2020-05-27T09:53:14.000Z</time>
      </trkpt>
      <trkpt lat="43.94258" lon="7.12565">
        <ele>433.79998779297</ele>
        <time>2020-05-27T09:53:24.000Z</time>
      </trkpt>
      <trkpt lat="43.94259" lon="7.12565">
        <ele>433.60000610352</ele>
        <time>2020-05-27T09:53:29.000Z</time>
      </trkpt>
      <trkpt lat="43.94259" lon="7.12565">
        <ele>433.60000610352</ele>
        <time>2020-05-27T09:53:38.000Z</time>
      </trkpt>
      <trkpt lat="43.94259" lon="7.12564">
        <ele>433.60000610352</ele>
        <time>2020-05-27T09:53:57.000Z</time>
      </trkpt>
      <trkpt lat="43.94259" lon="7.12564">
        <ele>433.39999389648</ele>
        <time>2020-05-27T09:54:07.000Z</time>
      </trkpt>
      <trkpt lat="43.9426" lon="7.12564">
        <ele>433.39999389648</ele>
        <time>2020-05-27T09:54:26.000Z</time>
      </trkpt>
      <trkpt lat="43.94258" lon="7.12564">
        <ele>433.39999389648</ele>
        <time>2020-05-27T09:54:41.000Z</time>
      </trkpt>
      <trkpt lat="43.94257" lon="7.12563">
        <ele>433.20001220703</ele>
        <time>2020-05-27T09:54:55.000Z</time>
      </trkpt>
      <trkpt lat="43.94258" lon="7.12563">
        <ele>433.20001220703</ele>
        <time>2020-05-27T09:55:15.000Z</time>
      </trkpt>
      <trkpt lat="43.94258" lon="7.12563">
        <ele>433.39999389648</ele>
        <time>2020-05-27T09:55:28.000Z</time>
      </trkpt>
      <trkpt lat="43.94258" lon="7.12563">
        <ele>433</ele>
        <time>2020-05-27T09:55:42.000Z</time>
      </trkpt>
      <trkpt lat="43.94258" lon="7.12562">
        <ele>433.20001220703</ele>
        <time>2020-05-27T09:56:01.000Z</time>
      </trkpt>
      <trkpt lat="43.94259" lon="7.12562">
        <ele>433.20001220703</ele>
        <time>2020-05-27T09:56:24.000Z</time>
      </trkpt>
      <trkpt lat="43.9426" lon="7.12562">
        <ele>433.20001220703</ele>
        <time>2020-05-27T09:56:40.000Z</time>
      </trkpt>
      <trkpt lat="43.94262" lon="7.12562">
        <ele>433.20001220703</ele>
        <time>2020-05-27T09:56:55.000Z</time>
      </trkpt>
      <trkpt lat="43.94263" lon="7.12562">
        <ele>432.60000610352</ele>
        <time>2020-05-27T09:57:08.000Z</time>
      </trkpt>
      <trkpt lat="43.94264" lon="7.12563">
        <ele>432.60000610352</ele>
        <time>2020-05-27T09:57:19.000Z</time>
      </trkpt>
      <trkpt lat="43.94264" lon="7.12562">
        <ele>432.79998779297</ele>
        <time>2020-05-27T09:57:26.000Z</time>
      </trkpt>
      <trkpt lat="43.94264" lon="7.12562">
        <ele>433</ele>
        <time>2020-05-27T09:57:43.000Z</time>
      </trkpt>
      <trkpt lat="43.94264" lon="7.12561">
        <ele>432.60000610352</ele>
        <time>2020-05-27T09:57:55.000Z</time>
      </trkpt>
      <trkpt lat="43.94264" lon="7.12561">
        <ele>432.39999389648</ele>
        <time>2020-05-27T09:57:56.000Z</time>
      </trkpt>
      <trkpt lat="43.94263" lon="7.12561">
        <ele>433</ele>
        <time>2020-05-27T09:58:05.000Z</time>
      </trkpt>
      <trkpt lat="43.94264" lon="7.1256">
        <ele>433</ele>
        <time>2020-05-27T09:58:20.000Z</time>
      </trkpt>
      <trkpt lat="43.94265" lon="7.1256">
        <ele>432.39999389648</ele>
        <time>2020-05-27T09:58:35.000Z</time>
      </trkpt>
      <trkpt lat="43.94266" lon="7.12559">
        <ele>432.39999389648</ele>
        <time>2020-05-27T09:58:52.000Z</time>
      </trkpt>
      <trkpt lat="43.94266" lon="7.1256">
        <ele>432.60000610352</ele>
        <time>2020-05-27T09:59:12.000Z</time>
      </trkpt>
      <trkpt lat="43.94265" lon="7.12559">
        <ele>432.60000610352</ele>
        <time>2020-05-27T09:59:30.000Z</time>
      </trkpt>
      <trkpt lat="43.94264" lon="7.1256">
        <ele>432.39999389648</ele>
        <time>2020-05-27T09:59:40.000Z</time>
      </trkpt>
      <trkpt lat="43.94264" lon="7.12558">
        <ele>432.79998779297</ele>
        <time>2020-05-27T09:59:52.000Z</time>
      </trkpt>
      <trkpt lat="43.94264" lon="7.12559">
        <ele>432.60000610352</ele>
        <time>2020-05-27T10:00:18.000Z</time>
      </trkpt>
      <trkpt lat="43.94263" lon="7.1256">
        <ele>432.60000610352</ele>
        <time>2020-05-27T10:00:40.000Z</time>
      </trkpt>
      <trkpt lat="43.94265" lon="7.12562">
        <ele>432.39999389648</ele>
        <time>2020-05-27T10:01:03.000Z</time>
      </trkpt>
      <trkpt lat="43.94265" lon="7.12563">
        <ele>432.39999389648</ele>
        <time>2020-05-27T10:01:15.000Z</time>
      </trkpt>
      <trkpt lat="43.94264" lon="7.12564">
        <ele>432.60000610352</ele>
        <time>2020-05-27T10:01:29.000Z</time>
      </trkpt>
      <trkpt lat="43.94264" lon="7.12565">
        <ele>432.20001220703</ele>
        <time>2020-05-27T10:01:39.000Z</time>
      </trkpt>
      <trkpt lat="43.94263" lon="7.12565">
        <ele>432.39999389648</ele>
        <time>2020-05-27T10:01:54.000Z</time>
      </trkpt>
      <trkpt lat="43.94263" lon="7.12565">
        <ele>432.39999389648</ele>
        <time>2020-05-27T10:02:10.000Z</time>
      </trkpt>
      <trkpt lat="43.94262" lon="7.12565">
        <ele>432.39999389648</ele>
        <time>2020-05-27T10:02:22.000Z</time>
      </trkpt>
      <trkpt lat="43.94262" lon="7.12566">
        <ele>432.39999389648</ele>
        <time>2020-05-27T10:02:37.000Z</time>
      </trkpt>
      <trkpt lat="43.94263" lon="7.12566">
        <ele>432.20001220703</ele>
        <time>2020-05-27T10:02:53.000Z</time>
      </trkpt>
      <trkpt lat="43.94264" lon="7.12565">
        <ele>432.39999389648</ele>
        <time>2020-05-27T10:03:06.000Z</time>
      </trkpt>
      <trkpt lat="43.94263" lon="7.12565">
        <ele>432.39999389648</ele>
        <time>2020-05-27T10:03:17.000Z</time>
      </trkpt>
      <trkpt lat="43.94263" lon="7.12564">
        <ele>432.39999389648</ele>
        <time>2020-05-27T10:03:42.000Z</time>
      </trkpt>
      <trkpt lat="43.94264" lon="7.12563">
        <ele>432.60000610352</ele>
        <time>2020-05-27T10:04:06.000Z</time>
      </trkpt>
      <trkpt lat="43.94266" lon="7.12563">
        <ele>432.39999389648</ele>
        <time>2020-05-27T10:04:34.000Z</time>
      </trkpt>
      <trkpt lat="43.94267" lon="7.12564">
        <ele>432.39999389648</ele>
        <time>2020-05-27T10:05:06.000Z</time>
      </trkpt>
      <trkpt lat="43.94267" lon="7.12563">
        <ele>432.39999389648</ele>
        <time>2020-05-27T10:05:25.000Z</time>
      </trkpt>
      <trkpt lat="43.94268" lon="7.12563">
        <ele>432.39999389648</ele>
        <time>2020-05-27T10:05:40.000Z</time>
      </trkpt>
      <trkpt lat="43.94268" lon="7.12565">
        <ele>432.39999389648</ele>
        <time>2020-05-27T10:06:00.000Z</time>
      </trkpt>
      <trkpt lat="43.94268" lon="7.12565">
        <ele>432.39999389648</ele>
        <time>2020-05-27T10:06:17.000Z</time>
      </trkpt>
      <trkpt lat="43.94266" lon="7.12564">
        <ele>432.39999389648</ele>
        <time>2020-05-27T10:06:29.000Z</time>
      </trkpt>
      <trkpt lat="43.94265" lon="7.12564">
        <ele>432.39999389648</ele>
        <time>2020-05-27T10:06:41.000Z</time>
      </trkpt>
      <trkpt lat="43.94265" lon="7.12563">
        <ele>432.20001220703</ele>
        <time>2020-05-27T10:06:56.000Z</time>
      </trkpt>
      <trkpt lat="43.94264" lon="7.12563">
        <ele>432.39999389648</ele>
        <time>2020-05-27T10:07:07.000Z</time>
      </trkpt>
      <trkpt lat="43.94264" lon="7.12563">
        <ele>432.39999389648</ele>
        <time>2020-05-27T10:07:28.000Z</time>
      </trkpt>
      <trkpt lat="43.94264" lon="7.12564">
        <ele>432.39999389648</ele>
        <time>2020-05-27T10:07:55.000Z</time>
      </trkpt>
      <trkpt lat="43.94263" lon="7.12563">
        <ele>432.20001220703</ele>
        <time>2020-05-27T10:08:16.000Z</time>
      </trkpt>
      <trkpt lat="43.94263" lon="7.12562">
        <ele>432.60000610352</ele>
        <time>2020-05-27T10:08:25.000Z</time>
      </trkpt>
      <trkpt lat="43.94263" lon="7.12562">
        <ele>432.39999389648</ele>
        <time>2020-05-27T10:08:32.000Z</time>
      </trkpt>
      <trkpt lat="43.94262" lon="7.12559">
        <ele>432.39999389648</ele>
        <time>2020-05-27T10:08:41.000Z</time>
      </trkpt>
      <trkpt lat="43.94262" lon="7.12558">
        <ele>432.39999389648</ele>
        <time>2020-05-27T10:08:51.000Z</time>
      </trkpt>
      <trkpt lat="43.94262" lon="7.12555">
        <ele>432.39999389648</ele>
        <time>2020-05-27T10:08:57.000Z</time>
      </trkpt>
      <trkpt lat="43.94263" lon="7.12554">
        <ele>432.39999389648</ele>
        <time>2020-05-27T10:09:03.000Z</time>
      </trkpt>
      <trkpt lat="43.94264" lon="7.12552">
        <ele>432.39999389648</ele>
        <time>2020-05-27T10:09:07.000Z</time>
      </trkpt>
      <trkpt lat="43.94265" lon="7.12551">
        <ele>432.39999389648</ele>
        <time>2020-05-27T10:09:08.000Z</time>
      </trkpt>
      <trkpt lat="43.94267" lon="7.1255">
        <ele>432.39999389648</ele>
        <time>2020-05-27T10:09:13.000Z</time>
      </trkpt>
      <trkpt lat="43.94268" lon="7.12548">
        <ele>432.60000610352</ele>
        <time>2020-05-27T10:09:20.000Z</time>
      </trkpt>
      <trkpt lat="43.94269" lon="7.12544">
        <ele>432.60000610352</ele>
        <time>2020-05-27T10:09:26.000Z</time>
      </trkpt>
      <trkpt lat="43.9427" lon="7.12539">
        <ele>432.60000610352</ele>
        <time>2020-05-27T10:09:30.000Z</time>
      </trkpt>
      <trkpt lat="43.94271" lon="7.12537">
        <ele>432.60000610352</ele>
        <time>2020-05-27T10:09:32.000Z</time>
      </trkpt>
      <trkpt lat="43.94273" lon="7.12533">
        <ele>432.60000610352</ele>
        <time>2020-05-27T10:09:35.000Z</time>
      </trkpt>
      <trkpt lat="43.94273" lon="7.12532">
        <ele>432.60000610352</ele>
        <time>2020-05-27T10:09:37.000Z</time>
      </trkpt>
      <trkpt lat="43.94273" lon="7.12535">
        <ele>432.60000610352</ele>
        <time>2020-05-27T10:09:42.000Z</time>
      </trkpt>
      <trkpt lat="43.94271" lon="7.12539">
        <ele>432.39999389648</ele>
        <time>2020-05-27T10:09:47.000Z</time>
      </trkpt>
      <trkpt lat="43.94269" lon="7.12545">
        <ele>432.39999389648</ele>
        <time>2020-05-27T10:09:55.000Z</time>
      </trkpt>
      <trkpt lat="43.94268" lon="7.12549">
        <ele>432.60000610352</ele>
        <time>2020-05-27T10:09:59.000Z</time>
      </trkpt>
      <trkpt lat="43.94268" lon="7.12549">
        <ele>432.60000610352</ele>
        <time>2020-05-27T10:10:00.000Z</time>
      </trkpt>
      <trkpt lat="43.94265" lon="7.12553">
        <ele>432.60000610352</ele>
        <time>2020-05-27T10:10:07.000Z</time>
      </trkpt>
      <trkpt lat="43.94264" lon="7.12557">
        <ele>432.39999389648</ele>
        <time>2020-05-27T10:10:14.000Z</time>
      </trkpt>
      <trkpt lat="43.94263" lon="7.12561">
        <ele>432.20001220703</ele>
        <time>2020-05-27T10:10:22.000Z</time>
      </trkpt>
      <trkpt lat="43.94263" lon="7.12562">
        <ele>432.20001220703</ele>
        <time>2020-05-27T10:10:24.000Z</time>
      </trkpt>
      <trkpt lat="43.94262" lon="7.12563">
        <ele>432.20001220703</ele>
        <time>2020-05-27T10:10:27.000Z</time>
      </trkpt>
      <trkpt lat="43.94263" lon="7.12564">
        <ele>432.39999389648</ele>
        <time>2020-05-27T10:10:38.000Z</time>
      </trkpt>
      <trkpt lat="43.94264" lon="7.12564">
        <ele>433</ele>
        <time>2020-05-27T10:10:48.000Z</time>
      </trkpt>
      <trkpt lat="43.94264" lon="7.12564">
        <ele>433.20001220703</ele>
        <time>2020-05-27T10:10:57.000Z</time>
      </trkpt>
      <trkpt lat="43.94264" lon="7.12564">
        <ele>433.20001220703</ele>
        <time>2020-05-27T10:11:08.000Z</time>
      </trkpt>
      <trkpt lat="43.94264" lon="7.12564">
        <ele>433.39999389648</ele>
        <time>2020-05-27T10:11:16.000Z</time>
      </trkpt>
      <trkpt lat="43.94264" lon="7.12564">
        <ele>433.60000610352</ele>
        <time>2020-05-27T10:11:19.000Z</time>
      </trkpt>
      <trkpt lat="43.94265" lon="7.12564">
        <ele>433</ele>
        <time>2020-05-27T10:11:25.000Z</time>
      </trkpt>
      <trkpt lat="43.94265" lon="7.12564">
        <ele>432.79998779297</ele>
        <time>2020-05-27T10:11:33.000Z</time>
      </trkpt>
      <trkpt lat="43.94265" lon="7.12561">
        <ele>433</ele>
        <time>2020-05-27T10:11:40.000Z</time>
      </trkpt>
      <trkpt lat="43.94264" lon="7.12559">
        <ele>433.60000610352</ele>
        <time>2020-05-27T10:11:45.000Z</time>
      </trkpt>
      <trkpt lat="43.94265" lon="7.1256">
        <ele>433.39999389648</ele>
        <time>2020-05-27T10:11:52.000Z</time>
      </trkpt>
      <trkpt lat="43.94267" lon="7.12559">
        <ele>433.39999389648</ele>
        <time>2020-05-27T10:11:58.000Z</time>
      </trkpt>
      <trkpt lat="43.94268" lon="7.12557">
        <ele>433.60000610352</ele>
        <time>2020-05-27T10:12:13.000Z</time>
      </trkpt>
      <trkpt lat="43.94268" lon="7.12556">
        <ele>433.79998779297</ele>
        <time>2020-05-27T10:12:24.000Z</time>
      </trkpt>
      <trkpt lat="43.94269" lon="7.12554">
        <ele>433.79998779297</ele>
        <time>2020-05-27T10:12:35.000Z</time>
      </trkpt>
      <trkpt lat="43.94269" lon="7.12554">
        <ele>433.39999389648</ele>
        <time>2020-05-27T10:12:44.000Z</time>
      </trkpt>
      <trkpt lat="43.94271" lon="7.12555">
        <ele>434</ele>
        <time>2020-05-27T10:12:52.000Z</time>
      </trkpt>
      <trkpt lat="43.94271" lon="7.12556">
        <ele>434</ele>
        <time>2020-05-27T10:13:08.000Z</time>
      </trkpt>
      <trkpt lat="43.94271" lon="7.12556">
        <ele>433.79998779297</ele>
        <time>2020-05-27T10:13:16.000Z</time>
      </trkpt>
      <trkpt lat="43.9427" lon="7.12556">
        <ele>433.60000610352</ele>
        <time>2020-05-27T10:13:25.000Z</time>
      </trkpt>
      <trkpt lat="43.9427" lon="7.12555">
        <ele>433.60000610352</ele>
        <time>2020-05-27T10:13:36.000Z</time>
      </trkpt>
      <trkpt lat="43.9427" lon="7.12554">
        <ele>433.60000610352</ele>
        <time>2020-05-27T10:13:50.000Z</time>
      </trkpt>
      <trkpt lat="43.9427" lon="7.12553">
        <ele>433.60000610352</ele>
        <time>2020-05-27T10:13:57.000Z</time>
      </trkpt>
      <trkpt lat="43.94269" lon="7.12555">
        <ele>433.60000610352</ele>
        <time>2020-05-27T10:14:13.000Z</time>
      </trkpt>
      <trkpt lat="43.9427" lon="7.12555">
        <ele>433.79998779297</ele>
        <time>2020-05-27T10:14:20.000Z</time>
      </trkpt>
      <trkpt lat="43.94269" lon="7.12555">
        <ele>434.20001220703</ele>
        <time>2020-05-27T10:14:33.000Z</time>
      </trkpt>
      <trkpt lat="43.9427" lon="7.12555">
        <ele>433.60000610352</ele>
        <time>2020-05-27T10:14:49.000Z</time>
      </trkpt>
      <trkpt lat="43.94269" lon="7.12556">
        <ele>433.79998779297</ele>
        <time>2020-05-27T10:15:00.000Z</time>
      </trkpt>
      <trkpt lat="43.94268" lon="7.12556">
        <ele>433.79998779297</ele>
        <time>2020-05-27T10:15:13.000Z</time>
      </trkpt>
      <trkpt lat="43.94267" lon="7.12557">
        <ele>434</ele>
        <time>2020-05-27T10:15:26.000Z</time>
      </trkpt>
      <trkpt lat="43.94266" lon="7.12553">
        <ele>434</ele>
        <time>2020-05-27T10:15:43.000Z</time>
      </trkpt>
      <trkpt lat="43.94265" lon="7.12551">
        <ele>434.20001220703</ele>
        <time>2020-05-27T10:16:06.000Z</time>
      </trkpt>
      <trkpt lat="43.94264" lon="7.1255">
        <ele>433.79998779297</ele>
        <time>2020-05-27T10:16:11.000Z</time>
      </trkpt>
      <trkpt lat="43.94264" lon="7.1255">
        <ele>433.79998779297</ele>
        <time>2020-05-27T10:16:17.000Z</time>
      </trkpt>
      <trkpt lat="43.94264" lon="7.1255">
        <ele>433.79998779297</ele>
        <time>2020-05-27T10:16:25.000Z</time>
      </trkpt>
      <trkpt lat="43.94264" lon="7.12551">
        <ele>433.60000610352</ele>
        <time>2020-05-27T10:16:35.000Z</time>
      </trkpt>
      <trkpt lat="43.94264" lon="7.12551">
        <ele>433.79998779297</ele>
        <time>2020-05-27T10:16:52.000Z</time>
      </trkpt>
      <trkpt lat="43.94263" lon="7.12551">
        <ele>434.39999389648</ele>
        <time>2020-05-27T10:16:58.000Z</time>
      </trkpt>
      <trkpt lat="43.94263" lon="7.12551">
        <ele>434.39999389648</ele>
        <time>2020-05-27T10:17:03.000Z</time>
      </trkpt>
      <trkpt lat="43.94263" lon="7.12552">
        <ele>434.39999389648</ele>
        <time>2020-05-27T10:17:12.000Z</time>
      </trkpt>
      <trkpt lat="43.94262" lon="7.12552">
        <ele>434.39999389648</ele>
        <time>2020-05-27T10:17:22.000Z</time>
      </trkpt>
      <trkpt lat="43.94263" lon="7.12552">
        <ele>434</ele>
        <time>2020-05-27T10:17:31.000Z</time>
      </trkpt>
      <trkpt lat="43.94263" lon="7.12552">
        <ele>434</ele>
        <time>2020-05-27T10:17:40.000Z</time>
      </trkpt>
      <trkpt lat="43.94262" lon="7.12551">
        <ele>434</ele>
        <time>2020-05-27T10:18:00.000Z</time>
      </trkpt>
      <trkpt lat="43.94263" lon="7.12552">
        <ele>434</ele>
        <time>2020-05-27T10:18:09.000Z</time>
      </trkpt>
      <trkpt lat="43.94263" lon="7.12552">
        <ele>434.39999389648</ele>
        <time>2020-05-27T10:18:19.000Z</time>
      </trkpt>
      <trkpt lat="43.94264" lon="7.12552">
        <ele>434.39999389648</ele>
        <time>2020-05-27T10:18:26.000Z</time>
      </trkpt>
      <trkpt lat="43.94264" lon="7.12552">
        <ele>434.79998779297</ele>
        <time>2020-05-27T10:18:27.000Z</time>
      </trkpt>
      <trkpt lat="43.94264" lon="7.12553">
        <ele>435.20001220703</ele>
        <time>2020-05-27T10:18:37.000Z</time>
      </trkpt>
      <trkpt lat="43.94264" lon="7.12554">
        <ele>434.60000610352</ele>
        <time>2020-05-27T10:18:47.000Z</time>
      </trkpt>
      <trkpt lat="43.94264" lon="7.12555">
        <ele>434.60000610352</ele>
        <time>2020-05-27T10:18:58.000Z</time>
      </trkpt>
      <trkpt lat="43.94263" lon="7.12555">
        <ele>434.79998779297</ele>
        <time>2020-05-27T10:19:08.000Z</time>
      </trkpt>
      <trkpt lat="43.94258" lon="7.1255">
        <ele>434.39999389648</ele>
        <time>2020-05-27T10:19:14.000Z</time>
      </trkpt>
      <trkpt lat="43.94256" lon="7.12548">
        <ele>434.39999389648</ele>
        <time>2020-05-27T10:19:16.000Z</time>
      </trkpt>
      <trkpt lat="43.94256" lon="7.12544">
        <ele>434.39999389648</ele>
        <time>2020-05-27T10:19:18.000Z</time>
      </trkpt>
      <trkpt lat="43.94257" lon="7.12543">
        <ele>434.20001220703</ele>
        <time>2020-05-27T10:19:19.000Z</time>
      </trkpt>
      <trkpt lat="43.9426" lon="7.12539">
        <ele>434</ele>
        <time>2020-05-27T10:19:24.000Z</time>
      </trkpt>
      <trkpt lat="43.94261" lon="7.12537">
        <ele>434</ele>
        <time>2020-05-27T10:19:26.000Z</time>
      </trkpt>
      <trkpt lat="43.94265" lon="7.12532">
        <ele>434</ele>
        <time>2020-05-27T10:19:31.000Z</time>
      </trkpt>
      <trkpt lat="43.94266" lon="7.1253">
        <ele>434</ele>
        <time>2020-05-27T10:19:33.000Z</time>
      </trkpt>
      <trkpt lat="43.94268" lon="7.12527">
        <ele>434</ele>
        <time>2020-05-27T10:19:35.000Z</time>
      </trkpt>
      <trkpt lat="43.94269" lon="7.12523">
        <ele>434</ele>
        <time>2020-05-27T10:19:37.000Z</time>
      </trkpt>
      <trkpt lat="43.94271" lon="7.12522">
        <ele>434</ele>
        <time>2020-05-27T10:19:38.000Z</time>
      </trkpt>
      <trkpt lat="43.94277" lon="7.12508">
        <ele>434</ele>
        <time>2020-05-27T10:19:45.000Z</time>
      </trkpt>
      <trkpt lat="43.94284" lon="7.12495">
        <ele>433.79998779297</ele>
        <time>2020-05-27T10:19:51.000Z</time>
      </trkpt>
      <trkpt lat="43.94287" lon="7.12489">
        <ele>433.79998779297</ele>
        <time>2020-05-27T10:19:53.000Z</time>
      </trkpt>
      <trkpt lat="43.94288" lon="7.12478">
        <ele>433.39999389648</ele>
        <time>2020-05-27T10:19:56.000Z</time>
      </trkpt>
      <trkpt lat="43.94292" lon="7.12454">
        <ele>432.60000610352</ele>
        <time>2020-05-27T10:20:01.000Z</time>
      </trkpt>
      <trkpt lat="43.94292" lon="7.12449">
        <ele>432.39999389648</ele>
        <time>2020-05-27T10:20:02.000Z</time>
      </trkpt>
      <trkpt lat="43.9429" lon="7.12421">
        <ele>431.39999389648</ele>
        <time>2020-05-27T10:20:07.000Z</time>
      </trkpt>
      <trkpt lat="43.94289" lon="7.12408">
        <ele>431.20001220703</ele>
        <time>2020-05-27T10:20:09.000Z</time>
      </trkpt>
      <trkpt lat="43.94289" lon="7.12387">
        <ele>430.60000610352</ele>
        <time>2020-05-27T10:20:12.000Z</time>
      </trkpt>
      <trkpt lat="43.94289" lon="7.1238">
        <ele>430.39999389648</ele>
        <time>2020-05-27T10:20:13.000Z</time>
      </trkpt>
      <trkpt lat="43.94291" lon="7.12373">
        <ele>430.20001220703</ele>
        <time>2020-05-27T10:20:14.000Z</time>
      </trkpt>
      <trkpt lat="43.94295" lon="7.1236">
        <ele>429.60000610352</ele>
        <time>2020-05-27T10:20:16.000Z</time>
      </trkpt>
      <trkpt lat="43.94297" lon="7.1234">
        <ele>429.20001220703</ele>
        <time>2020-05-27T10:20:19.000Z</time>
      </trkpt>
      <trkpt lat="43.94295" lon="7.12332">
        <ele>429.20001220703</ele>
        <time>2020-05-27T10:20:20.000Z</time>
      </trkpt>
      <trkpt lat="43.9429" lon="7.12328">
        <ele>428.79998779297</ele>
        <time>2020-05-27T10:20:21.000Z</time>
      </trkpt>
      <trkpt lat="43.94284" lon="7.12326">
        <ele>428.60000610352</ele>
        <time>2020-05-27T10:20:22.000Z</time>
      </trkpt>
      <trkpt lat="43.94279" lon="7.12326">
        <ele>428</ele>
        <time>2020-05-27T10:20:23.000Z</time>
      </trkpt>
      <trkpt lat="43.94267" lon="7.12326">
        <ele>427.20001220703</ele>
        <time>2020-05-27T10:20:25.000Z</time>
      </trkpt>
      <trkpt lat="43.9426" lon="7.12325">
        <ele>426.79998779297</ele>
        <time>2020-05-27T10:20:26.000Z</time>
      </trkpt>
      <trkpt lat="43.94244" lon="7.12319">
        <ele>426</ele>
        <time>2020-05-27T10:20:29.000Z</time>
      </trkpt>
      <trkpt lat="43.94238" lon="7.12315">
        <ele>425.39999389648</ele>
        <time>2020-05-27T10:20:31.000Z</time>
      </trkpt>
      <trkpt lat="43.94236" lon="7.12314">
        <ele>424.60000610352</ele>
        <time>2020-05-27T10:20:34.000Z</time>
      </trkpt>
      <trkpt lat="43.94236" lon="7.12314">
        <ele>424.39999389648</ele>
        <time>2020-05-27T10:20:36.000Z</time>
      </trkpt>
      <trkpt lat="43.94237" lon="7.12314">
        <ele>424.39999389648</ele>
        <time>2020-05-27T10:20:39.000Z</time>
      </trkpt>
      <trkpt lat="43.94237" lon="7.12314">
        <ele>424.60000610352</ele>
        <time>2020-05-27T10:20:48.000Z</time>
      </trkpt>
      <trkpt lat="43.94237" lon="7.12314">
        <ele>424.20001220703</ele>
        <time>2020-05-27T10:21:00.000Z</time>
      </trkpt>
      <trkpt lat="43.94237" lon="7.12314">
        <ele>424.60000610352</ele>
        <time>2020-05-27T10:21:09.000Z</time>
      </trkpt>
      <trkpt lat="43.94237" lon="7.12315">
        <ele>424.20001220703</ele>
        <time>2020-05-27T10:21:14.000Z</time>
      </trkpt>
      <trkpt lat="43.94238" lon="7.12314">
        <ele>424</ele>
        <time>2020-05-27T10:21:24.000Z</time>
      </trkpt>
      <trkpt lat="43.94237" lon="7.12313">
        <ele>424.39999389648</ele>
        <time>2020-05-27T10:21:31.000Z</time>
      </trkpt>
      <trkpt lat="43.94228" lon="7.123">
        <ele>424</ele>
        <time>2020-05-27T10:21:36.000Z</time>
      </trkpt>
      <trkpt lat="43.94217" lon="7.12287">
        <ele>423.20001220703</ele>
        <time>2020-05-27T10:21:39.000Z</time>
      </trkpt>
      <trkpt lat="43.94209" lon="7.12276">
        <ele>422.60000610352</ele>
        <time>2020-05-27T10:21:41.000Z</time>
      </trkpt>
      <trkpt lat="43.94204" lon="7.12269">
        <ele>422.20001220703</ele>
        <time>2020-05-27T10:21:42.000Z</time>
      </trkpt>
      <trkpt lat="43.94194" lon="7.12255">
        <ele>420.79998779297</ele>
        <time>2020-05-27T10:21:44.000Z</time>
      </trkpt>
      <trkpt lat="43.94188" lon="7.12249">
        <ele>420.39999389648</ele>
        <time>2020-05-27T10:21:45.000Z</time>
      </trkpt>
      <trkpt lat="43.94177" lon="7.12236">
        <ele>419.39999389648</ele>
        <time>2020-05-27T10:21:47.000Z</time>
      </trkpt>
      <trkpt lat="43.94164" lon="7.12221">
        <ele>418.20001220703</ele>
        <time>2020-05-27T10:21:49.000Z</time>
      </trkpt>
      <trkpt lat="43.94159" lon="7.12214">
        <ele>417.79998779297</ele>
        <time>2020-05-27T10:21:50.000Z</time>
      </trkpt>
      <trkpt lat="43.94153" lon="7.12206">
        <ele>418</ele>
        <time>2020-05-27T10:21:51.000Z</time>
      </trkpt>
      <trkpt lat="43.94141" lon="7.1219">
        <ele>416.79998779297</ele>
        <time>2020-05-27T10:21:53.000Z</time>
      </trkpt>
      <trkpt lat="43.94133" lon="7.12186">
        <ele>416</ele>
        <time>2020-05-27T10:21:54.000Z</time>
      </trkpt>
      <trkpt lat="43.94125" lon="7.12183">
        <ele>415.39999389648</ele>
        <time>2020-05-27T10:21:55.000Z</time>
      </trkpt>
      <trkpt lat="43.94116" lon="7.12183">
        <ele>413.79998779297</ele>
        <time>2020-05-27T10:21:56.000Z</time>
      </trkpt>
      <trkpt lat="43.94107" lon="7.12179">
        <ele>412.79998779297</ele>
        <time>2020-05-27T10:21:57.000Z</time>
      </trkpt>
      <trkpt lat="43.94099" lon="7.12174">
        <ele>412.39999389648</ele>
        <time>2020-05-27T10:21:58.000Z</time>
      </trkpt>
      <trkpt lat="43.94092" lon="7.12168">
        <ele>411.79998779297</ele>
        <time>2020-05-27T10:21:59.000Z</time>
      </trkpt>
      <trkpt lat="43.94085" lon="7.1216">
        <ele>411.20001220703</ele>
        <time>2020-05-27T10:22:00.000Z</time>
      </trkpt>
      <trkpt lat="43.94069" lon="7.12148">
        <ele>410.20001220703</ele>
        <time>2020-05-27T10:22:02.000Z</time>
      </trkpt>
      <trkpt lat="43.94052" lon="7.1215">
        <ele>408.79998779297</ele>
        <time>2020-05-27T10:22:04.000Z</time>
      </trkpt>
      <trkpt lat="43.94043" lon="7.12153">
        <ele>408.20001220703</ele>
        <time>2020-05-27T10:22:05.000Z</time>
      </trkpt>
      <trkpt lat="43.94034" lon="7.12157">
        <ele>407.39999389648</ele>
        <time>2020-05-27T10:22:06.000Z</time>
      </trkpt>
      <trkpt lat="43.94017" lon="7.1216">
        <ele>406.39999389648</ele>
        <time>2020-05-27T10:22:08.000Z</time>
      </trkpt>
      <trkpt lat="43.94009" lon="7.12158">
        <ele>406</ele>
        <time>2020-05-27T10:22:09.000Z</time>
      </trkpt>
      <trkpt lat="43.93996" lon="7.12144">
        <ele>405.39999389648</ele>
        <time>2020-05-27T10:22:11.000Z</time>
      </trkpt>
      <trkpt lat="43.93994" lon="7.1213">
        <ele>404.79998779297</ele>
        <time>2020-05-27T10:22:12.000Z</time>
      </trkpt>
      <trkpt lat="43.93995" lon="7.12105">
        <ele>403.39999389648</ele>
        <time>2020-05-27T10:22:14.000Z</time>
      </trkpt>
      <trkpt lat="43.93996" lon="7.12093">
        <ele>402.79998779297</ele>
        <time>2020-05-27T10:22:15.000Z</time>
      </trkpt>
      <trkpt lat="43.93997" lon="7.12079">
        <ele>402</ele>
        <time>2020-05-27T10:22:16.000Z</time>
      </trkpt>
      <trkpt lat="43.94" lon="7.12052">
        <ele>400</ele>
        <time>2020-05-27T10:22:18.000Z</time>
      </trkpt>
      <trkpt lat="43.94006" lon="7.12024">
        <ele>398.60000610352</ele>
        <time>2020-05-27T10:22:20.000Z</time>
      </trkpt>
      <trkpt lat="43.9401" lon="7.12009">
        <ele>397.60000610352</ele>
        <time>2020-05-27T10:22:21.000Z</time>
      </trkpt>
      <trkpt lat="43.94014" lon="7.11998">
        <ele>396.60000610352</ele>
        <time>2020-05-27T10:22:22.000Z</time>
      </trkpt>
      <trkpt lat="43.94019" lon="7.1199">
        <ele>395.39999389648</ele>
        <time>2020-05-27T10:22:23.000Z</time>
      </trkpt>
      <trkpt lat="43.94031" lon="7.11977">
        <ele>393.60000610352</ele>
        <time>2020-05-27T10:22:25.000Z</time>
      </trkpt>
      <trkpt lat="43.94035" lon="7.11967">
        <ele>393</ele>
        <time>2020-05-27T10:22:26.000Z</time>
      </trkpt>
      <trkpt lat="43.94037" lon="7.11957">
        <ele>392.39999389648</ele>
        <time>2020-05-27T10:22:27.000Z</time>
      </trkpt>
      <trkpt lat="43.94037" lon="7.11936">
        <ele>391.79998779297</ele>
        <time>2020-05-27T10:22:29.000Z</time>
      </trkpt>
      <trkpt lat="43.94035" lon="7.11924">
        <ele>391</ele>
        <time>2020-05-27T10:22:30.000Z</time>
      </trkpt>
      <trkpt lat="43.94027" lon="7.11906">
        <ele>389.20001220703</ele>
        <time>2020-05-27T10:22:32.000Z</time>
      </trkpt>
      <trkpt lat="43.94016" lon="7.11902">
        <ele>387.79998779297</ele>
        <time>2020-05-27T10:22:34.000Z</time>
      </trkpt>
      <trkpt lat="43.9401" lon="7.11902">
        <ele>387.60000610352</ele>
        <time>2020-05-27T10:22:35.000Z</time>
      </trkpt>
      <trkpt lat="43.94005" lon="7.11903">
        <ele>387.79998779297</ele>
        <time>2020-05-27T10:22:36.000Z</time>
      </trkpt>
      <trkpt lat="43.93991" lon="7.11907">
        <ele>389</ele>
        <time>2020-05-27T10:22:39.000Z</time>
      </trkpt>
      <trkpt lat="43.93975" lon="7.11903">
        <ele>390.20001220703</ele>
        <time>2020-05-27T10:22:43.000Z</time>
      </trkpt>
      <trkpt lat="43.93968" lon="7.11895">
        <ele>391.20001220703</ele>
        <time>2020-05-27T10:22:46.000Z</time>
      </trkpt>
      <trkpt lat="43.93966" lon="7.11889">
        <ele>392</ele>
        <time>2020-05-27T10:22:48.000Z</time>
      </trkpt>
      <trkpt lat="43.93964" lon="7.11886">
        <ele>392.39999389648</ele>
        <time>2020-05-27T10:22:49.000Z</time>
      </trkpt>
      <trkpt lat="43.93959" lon="7.11873">
        <ele>393.60000610352</ele>
        <time>2020-05-27T10:22:54.000Z</time>
      </trkpt>
      <trkpt lat="43.93958" lon="7.1187">
        <ele>393.79998779297</ele>
        <time>2020-05-27T10:22:55.000Z</time>
      </trkpt>
      <trkpt lat="43.93952" lon="7.1186">
        <ele>394.39999389648</ele>
        <time>2020-05-27T10:23:00.000Z</time>
      </trkpt>
      <trkpt lat="43.93949" lon="7.11857">
        <ele>394.79998779297</ele>
        <time>2020-05-27T10:23:02.000Z</time>
      </trkpt>
      <trkpt lat="43.9394" lon="7.11853">
        <ele>395.39999389648</ele>
        <time>2020-05-27T10:23:07.000Z</time>
      </trkpt>
      <trkpt lat="43.93934" lon="7.11852">
        <ele>395.79998779297</ele>
        <time>2020-05-27T10:23:10.000Z</time>
      </trkpt>
      <trkpt lat="43.93928" lon="7.11852">
        <ele>396.20001220703</ele>
        <time>2020-05-27T10:23:13.000Z</time>
      </trkpt>
      <trkpt lat="43.93918" lon="7.11856">
        <ele>396.79998779297</ele>
        <time>2020-05-27T10:23:18.000Z</time>
      </trkpt>
      <trkpt lat="43.93914" lon="7.11856">
        <ele>397.20001220703</ele>
        <time>2020-05-27T10:23:20.000Z</time>
      </trkpt>
      <trkpt lat="43.93912" lon="7.11855">
        <ele>397.20001220703</ele>
        <time>2020-05-27T10:23:21.000Z</time>
      </trkpt>
      <trkpt lat="43.93907" lon="7.1185">
        <ele>397.79998779297</ele>
        <time>2020-05-27T10:23:24.000Z</time>
      </trkpt>
      <trkpt lat="43.93906" lon="7.11848">
        <ele>397.79998779297</ele>
        <time>2020-05-27T10:23:25.000Z</time>
      </trkpt>
      <trkpt lat="43.93902" lon="7.11833">
        <ele>399</ele>
        <time>2020-05-27T10:23:31.000Z</time>
      </trkpt>
      <trkpt lat="43.93898" lon="7.11813">
        <ele>400</ele>
        <time>2020-05-27T10:23:38.000Z</time>
      </trkpt>
      <trkpt lat="43.93897" lon="7.11811">
        <ele>400.20001220703</ele>
        <time>2020-05-27T10:23:39.000Z</time>
      </trkpt>
      <trkpt lat="43.93892" lon="7.11798">
        <ele>401</ele>
        <time>2020-05-27T10:23:45.000Z</time>
      </trkpt>
      <trkpt lat="43.93887" lon="7.11796">
        <ele>401.60000610352</ele>
        <time>2020-05-27T10:23:49.000Z</time>
      </trkpt>
      <trkpt lat="43.93886" lon="7.11792">
        <ele>401.79998779297</ele>
        <time>2020-05-27T10:23:51.000Z</time>
      </trkpt>
      <trkpt lat="43.93885" lon="7.11787">
        <ele>401.79998779297</ele>
        <time>2020-05-27T10:23:53.000Z</time>
      </trkpt>
      <trkpt lat="43.93883" lon="7.11773">
        <ele>402.20001220703</ele>
        <time>2020-05-27T10:23:57.000Z</time>
      </trkpt>
      <trkpt lat="43.93881" lon="7.11749">
        <ele>403.20001220703</ele>
        <time>2020-05-27T10:24:04.000Z</time>
      </trkpt>
      <trkpt lat="43.93881" lon="7.11746">
        <ele>403.20001220703</ele>
        <time>2020-05-27T10:24:05.000Z</time>
      </trkpt>
      <trkpt lat="43.93878" lon="7.11729">
        <ele>404.20001220703</ele>
        <time>2020-05-27T10:24:10.000Z</time>
      </trkpt>
      <trkpt lat="43.93874" lon="7.11719">
        <ele>404.79998779297</ele>
        <time>2020-05-27T10:24:13.000Z</time>
      </trkpt>
      <trkpt lat="43.93871" lon="7.1171">
        <ele>405.20001220703</ele>
        <time>2020-05-27T10:24:16.000Z</time>
      </trkpt>
      <trkpt lat="43.93864" lon="7.11691">
        <ele>406.39999389648</ele>
        <time>2020-05-27T10:24:22.000Z</time>
      </trkpt>
      <trkpt lat="43.93851" lon="7.11674">
        <ele>407.60000610352</ele>
        <time>2020-05-27T10:24:30.000Z</time>
      </trkpt>
      <trkpt lat="43.9384" lon="7.11668">
        <ele>408.39999389648</ele>
        <time>2020-05-27T10:24:36.000Z</time>
      </trkpt>
      <trkpt lat="43.93842" lon="7.11666">
        <ele>408.60000610352</ele>
        <time>2020-05-27T10:24:38.000Z</time>
      </trkpt>
      <trkpt lat="43.93842" lon="7.11668">
        <ele>408.79998779297</ele>
        <time>2020-05-27T10:24:39.000Z</time>
      </trkpt>
      <trkpt lat="43.93838" lon="7.1167">
        <ele>408.79998779297</ele>
        <time>2020-05-27T10:24:42.000Z</time>
      </trkpt>
      <trkpt lat="43.93834" lon="7.11669">
        <ele>408.79998779297</ele>
        <time>2020-05-27T10:24:44.000Z</time>
      </trkpt>
      <trkpt lat="43.93823" lon="7.11665">
        <ele>409</ele>
        <time>2020-05-27T10:24:49.000Z</time>
      </trkpt>
      <trkpt lat="43.93809" lon="7.11663">
        <ele>409.79998779297</ele>
        <time>2020-05-27T10:24:55.000Z</time>
      </trkpt>
      <trkpt lat="43.93802" lon="7.11662">
        <ele>410.20001220703</ele>
        <time>2020-05-27T10:24:58.000Z</time>
      </trkpt>
      <trkpt lat="43.93795" lon="7.11661">
        <ele>410.79998779297</ele>
        <time>2020-05-27T10:25:01.000Z</time>
      </trkpt>
      <trkpt lat="43.93785" lon="7.11659">
        <ele>411.79998779297</ele>
        <time>2020-05-27T10:25:06.000Z</time>
      </trkpt>
      <trkpt lat="43.93783" lon="7.11658">
        <ele>412</ele>
        <time>2020-05-27T10:25:07.000Z</time>
      </trkpt>
      <trkpt lat="43.93767" lon="7.1165">
        <ele>413</ele>
        <time>2020-05-27T10:25:15.000Z</time>
      </trkpt>
      <trkpt lat="43.9375" lon="7.11644">
        <ele>414.20001220703</ele>
        <time>2020-05-27T10:25:23.000Z</time>
      </trkpt>
      <trkpt lat="43.93747" lon="7.11644">
        <ele>414.39999389648</ele>
        <time>2020-05-27T10:25:24.000Z</time>
      </trkpt>
      <trkpt lat="43.93732" lon="7.11641">
        <ele>415.20001220703</ele>
        <time>2020-05-27T10:25:31.000Z</time>
      </trkpt>
      <trkpt lat="43.93726" lon="7.11641">
        <ele>415.60000610352</ele>
        <time>2020-05-27T10:25:34.000Z</time>
      </trkpt>
      <trkpt lat="43.93717" lon="7.11636">
        <ele>416.20001220703</ele>
        <time>2020-05-27T10:25:39.000Z</time>
      </trkpt>
      <trkpt lat="43.93713" lon="7.11634">
        <ele>416.39999389648</ele>
        <time>2020-05-27T10:25:41.000Z</time>
      </trkpt>
      <trkpt lat="43.93706" lon="7.11623">
        <ele>417.39999389648</ele>
        <time>2020-05-27T10:25:46.000Z</time>
      </trkpt>
      <trkpt lat="43.93706" lon="7.1162">
        <ele>417.60000610352</ele>
        <time>2020-05-27T10:25:47.000Z</time>
      </trkpt>
      <trkpt lat="43.93704" lon="7.11607">
        <ele>418.60000610352</ele>
        <time>2020-05-27T10:25:52.000Z</time>
      </trkpt>
      <trkpt lat="43.93704" lon="7.11602">
        <ele>418.79998779297</ele>
        <time>2020-05-27T10:25:54.000Z</time>
      </trkpt>
      <trkpt lat="43.93704" lon="7.11588">
        <ele>419.60000610352</ele>
        <time>2020-05-27T10:25:59.000Z</time>
      </trkpt>
      <trkpt lat="43.93704" lon="7.11571">
        <ele>420.39999389648</ele>
        <time>2020-05-27T10:26:05.000Z</time>
      </trkpt>
      <trkpt lat="43.93704" lon="7.11568">
        <ele>420.60000610352</ele>
        <time>2020-05-27T10:26:06.000Z</time>
      </trkpt>
      <trkpt lat="43.93705" lon="7.11545">
        <ele>421.60000610352</ele>
        <time>2020-05-27T10:26:14.000Z</time>
      </trkpt>
      <trkpt lat="43.93707" lon="7.11528">
        <ele>422.60000610352</ele>
        <time>2020-05-27T10:26:20.000Z</time>
      </trkpt>
      <trkpt lat="43.93709" lon="7.11519">
        <ele>423</ele>
        <time>2020-05-27T10:26:23.000Z</time>
      </trkpt>
      <trkpt lat="43.93714" lon="7.11506">
        <ele>423.79998779297</ele>
        <time>2020-05-27T10:26:28.000Z</time>
      </trkpt>
      <trkpt lat="43.93715" lon="7.11503">
        <ele>423.79998779297</ele>
        <time>2020-05-27T10:26:29.000Z</time>
      </trkpt>
      <trkpt lat="43.93721" lon="7.11485">
        <ele>424.79998779297</ele>
        <time>2020-05-27T10:26:36.000Z</time>
      </trkpt>
      <trkpt lat="43.93727" lon="7.11468">
        <ele>425.79998779297</ele>
        <time>2020-05-27T10:26:43.000Z</time>
      </trkpt>
      <trkpt lat="43.93729" lon="7.11466">
        <ele>426</ele>
        <time>2020-05-27T10:26:44.000Z</time>
      </trkpt>
      <trkpt lat="43.93737" lon="7.11454">
        <ele>427</ele>
        <time>2020-05-27T10:26:50.000Z</time>
      </trkpt>
      <trkpt lat="43.93742" lon="7.11449">
        <ele>427.39999389648</ele>
        <time>2020-05-27T10:26:53.000Z</time>
      </trkpt>
      <trkpt lat="43.9375" lon="7.11439">
        <ele>428</ele>
        <time>2020-05-27T10:26:58.000Z</time>
      </trkpt>
      <trkpt lat="43.93758" lon="7.11429">
        <ele>428.60000610352</ele>
        <time>2020-05-27T10:27:03.000Z</time>
      </trkpt>
      <trkpt lat="43.93761" lon="7.11423">
        <ele>429</ele>
        <time>2020-05-27T10:27:06.000Z</time>
      </trkpt>
      <trkpt lat="43.9377" lon="7.11404">
        <ele>430</ele>
        <time>2020-05-27T10:27:14.000Z</time>
      </trkpt>
      <trkpt lat="43.93778" lon="7.11387">
        <ele>431</ele>
        <time>2020-05-27T10:27:21.000Z</time>
      </trkpt>
      <trkpt lat="43.93788" lon="7.11369">
        <ele>432.20001220703</ele>
        <time>2020-05-27T10:27:29.000Z</time>
      </trkpt>
      <trkpt lat="43.93791" lon="7.11365">
        <ele>432.39999389648</ele>
        <time>2020-05-27T10:27:31.000Z</time>
      </trkpt>
      <trkpt lat="43.938" lon="7.11355">
        <ele>433.20001220703</ele>
        <time>2020-05-27T10:27:37.000Z</time>
      </trkpt>
      <trkpt lat="43.93805" lon="7.1135">
        <ele>433.79998779297</ele>
        <time>2020-05-27T10:27:40.000Z</time>
      </trkpt>
      <trkpt lat="43.93814" lon="7.11343">
        <ele>434.39999389648</ele>
        <time>2020-05-27T10:27:45.000Z</time>
      </trkpt>
      <trkpt lat="43.93822" lon="7.11335">
        <ele>435</ele>
        <time>2020-05-27T10:27:50.000Z</time>
      </trkpt>
      <trkpt lat="43.93827" lon="7.11331">
        <ele>435.39999389648</ele>
        <time>2020-05-27T10:27:53.000Z</time>
      </trkpt>
      <trkpt lat="43.93835" lon="7.11323">
        <ele>436.20001220703</ele>
        <time>2020-05-27T10:27:58.000Z</time>
      </trkpt>
      <trkpt lat="43.9384" lon="7.11319">
        <ele>436.39999389648</ele>
        <time>2020-05-27T10:28:01.000Z</time>
      </trkpt>
      <trkpt lat="43.93851" lon="7.1131">
        <ele>437.39999389648</ele>
        <time>2020-05-27T10:28:07.000Z</time>
      </trkpt>
      <trkpt lat="43.93855" lon="7.11307">
        <ele>437.60000610352</ele>
        <time>2020-05-27T10:28:09.000Z</time>
      </trkpt>
      <trkpt lat="43.93866" lon="7.11295">
        <ele>438.39999389648</ele>
        <time>2020-05-27T10:28:16.000Z</time>
      </trkpt>
      <trkpt lat="43.93871" lon="7.11289">
        <ele>438.60000610352</ele>
        <time>2020-05-27T10:28:19.000Z</time>
      </trkpt>
      <trkpt lat="43.93877" lon="7.11282">
        <ele>439.20001220703</ele>
        <time>2020-05-27T10:28:23.000Z</time>
      </trkpt>
      <trkpt lat="43.93883" lon="7.11275">
        <ele>439.79998779297</ele>
        <time>2020-05-27T10:28:27.000Z</time>
      </trkpt>
      <trkpt lat="43.93889" lon="7.11266">
        <ele>440.39999389648</ele>
        <time>2020-05-27T10:28:32.000Z</time>
      </trkpt>
      <trkpt lat="43.93892" lon="7.11263">
        <ele>440.79998779297</ele>
        <time>2020-05-27T10:28:34.000Z</time>
      </trkpt>
      <trkpt lat="43.93905" lon="7.11249">
        <ele>441.60000610352</ele>
        <time>2020-05-27T10:28:42.000Z</time>
      </trkpt>
      <trkpt lat="43.93906" lon="7.11248">
        <ele>441.79998779297</ele>
        <time>2020-05-27T10:28:43.000Z</time>
      </trkpt>
      <trkpt lat="43.93916" lon="7.11235">
        <ele>442.79998779297</ele>
        <time>2020-05-27T10:28:50.000Z</time>
      </trkpt>
      <trkpt lat="43.93923" lon="7.11219">
        <ele>443.79998779297</ele>
        <time>2020-05-27T10:28:57.000Z</time>
      </trkpt>
      <trkpt lat="43.93921" lon="7.11199">
        <ele>445</ele>
        <time>2020-05-27T10:29:04.000Z</time>
      </trkpt>
      <trkpt lat="43.93915" lon="7.11178">
        <ele>446</ele>
        <time>2020-05-27T10:29:12.000Z</time>
      </trkpt>
      <trkpt lat="43.93914" lon="7.11176">
        <ele>446.20001220703</ele>
        <time>2020-05-27T10:29:13.000Z</time>
      </trkpt>
      <trkpt lat="43.93912" lon="7.11163">
        <ele>446.79998779297</ele>
        <time>2020-05-27T10:29:18.000Z</time>
      </trkpt>
      <trkpt lat="43.93913" lon="7.11157">
        <ele>447</ele>
        <time>2020-05-27T10:29:20.000Z</time>
      </trkpt>
      <trkpt lat="43.93918" lon="7.11138">
        <ele>447.79998779297</ele>
        <time>2020-05-27T10:29:27.000Z</time>
      </trkpt>
      <trkpt lat="43.9392" lon="7.11129">
        <ele>448.20001220703</ele>
        <time>2020-05-27T10:29:30.000Z</time>
      </trkpt>
      <trkpt lat="43.93922" lon="7.11116">
        <ele>448.60000610352</ele>
        <time>2020-05-27T10:29:34.000Z</time>
      </trkpt>
      <trkpt lat="43.93917" lon="7.11099">
        <ele>449</ele>
        <time>2020-05-27T10:29:40.000Z</time>
      </trkpt>
      <trkpt lat="43.93914" lon="7.11095">
        <ele>449.20001220703</ele>
        <time>2020-05-27T10:29:42.000Z</time>
      </trkpt>
      <trkpt lat="43.93909" lon="7.11085">
        <ele>449.79998779297</ele>
        <time>2020-05-27T10:29:47.000Z</time>
      </trkpt>
      <trkpt lat="43.93909" lon="7.11079">
        <ele>450</ele>
        <time>2020-05-27T10:29:53.000Z</time>
      </trkpt>
      <trkpt lat="43.93909" lon="7.11079">
        <ele>450.20001220703</ele>
        <time>2020-05-27T10:29:57.000Z</time>
      </trkpt>
      <trkpt lat="43.93909" lon="7.11079">
        <ele>450.20001220703</ele>
        <time>2020-05-27T10:29:58.000Z</time>
      </trkpt>
      <trkpt lat="43.93907" lon="7.11078">
        <ele>450</ele>
        <time>2020-05-27T10:30:06.000Z</time>
      </trkpt>
      <trkpt lat="43.93907" lon="7.11078">
        <ele>449.79998779297</ele>
        <time>2020-05-27T10:30:07.000Z</time>
      </trkpt>
      <trkpt lat="43.93906" lon="7.11078">
        <ele>449</ele>
        <time>2020-05-27T10:30:10.000Z</time>
      </trkpt>
      <trkpt lat="43.93907" lon="7.11078">
        <ele>448.79998779297</ele>
        <time>2020-05-27T10:30:13.000Z</time>
      </trkpt>
      <trkpt lat="43.9391" lon="7.11079">
        <ele>448.79998779297</ele>
        <time>2020-05-27T10:30:22.000Z</time>
      </trkpt>
      <trkpt lat="43.93909" lon="7.11078">
        <ele>449</ele>
        <time>2020-05-27T10:30:34.000Z</time>
      </trkpt>
      <trkpt lat="43.93911" lon="7.11079">
        <ele>449</ele>
        <time>2020-05-27T10:30:43.000Z</time>
      </trkpt>
      <trkpt lat="43.93911" lon="7.11079">
        <ele>450</ele>
        <time>2020-05-27T10:30:52.000Z</time>
      </trkpt>
      <trkpt lat="43.93909" lon="7.11077">
        <ele>450</ele>
        <time>2020-05-27T10:31:00.000Z</time>
      </trkpt>
      <trkpt lat="43.9391" lon="7.11077">
        <ele>449.60000610352</ele>
        <time>2020-05-27T10:31:07.000Z</time>
      </trkpt>
      <trkpt lat="43.9391" lon="7.11076">
        <ele>449.39999389648</ele>
        <time>2020-05-27T10:31:15.000Z</time>
      </trkpt>
      <trkpt lat="43.9391" lon="7.11074">
        <ele>449.79998779297</ele>
        <time>2020-05-27T10:31:21.000Z</time>
      </trkpt>
      <trkpt lat="43.93909" lon="7.11073">
        <ele>449.79998779297</ele>
        <time>2020-05-27T10:31:40.000Z</time>
      </trkpt>
      <trkpt lat="43.93909" lon="7.11073">
        <ele>449.60000610352</ele>
        <time>2020-05-27T10:32:03.000Z</time>
      </trkpt>
      <trkpt lat="43.93908" lon="7.11073">
        <ele>449.60000610352</ele>
        <time>2020-05-27T10:32:29.000Z</time>
      </trkpt>
      <trkpt lat="43.93907" lon="7.11072">
        <ele>449.60000610352</ele>
        <time>2020-05-27T10:32:53.000Z</time>
      </trkpt>
      <trkpt lat="43.93908" lon="7.11073">
        <ele>449.60000610352</ele>
        <time>2020-05-27T10:32:56.000Z</time>
      </trkpt>
      <trkpt lat="43.93909" lon="7.11076">
        <ele>449.60000610352</ele>
        <time>2020-05-27T10:32:59.000Z</time>
      </trkpt>
      <trkpt lat="43.9391" lon="7.11079">
        <ele>449.39999389648</ele>
        <time>2020-05-27T10:33:01.000Z</time>
      </trkpt>
      <trkpt lat="43.93913" lon="7.11085">
        <ele>449.39999389648</ele>
        <time>2020-05-27T10:33:07.000Z</time>
      </trkpt>
      <trkpt lat="43.93918" lon="7.11087">
        <ele>449.39999389648</ele>
        <time>2020-05-27T10:33:15.000Z</time>
      </trkpt>
      <trkpt lat="43.93918" lon="7.11087">
        <ele>449.39999389648</ele>
        <time>2020-05-27T10:33:22.000Z</time>
      </trkpt>
      <trkpt lat="43.93918" lon="7.11087">
        <ele>449</ele>
        <time>2020-05-27T10:33:25.000Z</time>
      </trkpt>
      <trkpt lat="43.93918" lon="7.11088">
        <ele>449.20001220703</ele>
        <time>2020-05-27T10:33:29.000Z</time>
      </trkpt>
      <trkpt lat="43.93918" lon="7.11088">
        <ele>448.60000610352</ele>
        <time>2020-05-27T10:33:35.000Z</time>
      </trkpt>
      <trkpt lat="43.93918" lon="7.11087">
        <ele>448.79998779297</ele>
        <time>2020-05-27T10:33:40.000Z</time>
      </trkpt>
      <trkpt lat="43.93918" lon="7.11087">
        <ele>449.39999389648</ele>
        <time>2020-05-27T10:33:50.000Z</time>
      </trkpt>
      <trkpt lat="43.93918" lon="7.11088">
        <ele>449.20001220703</ele>
        <time>2020-05-27T10:33:54.000Z</time>
      </trkpt>
      <trkpt lat="43.93918" lon="7.11088">
        <ele>449.20001220703</ele>
        <time>2020-05-27T10:33:59.000Z</time>
      </trkpt>
      <trkpt lat="43.9392" lon="7.11089">
        <ele>448.39999389648</ele>
        <time>2020-05-27T10:34:07.000Z</time>
      </trkpt>
      <trkpt lat="43.93919" lon="7.1109">
        <ele>448.79998779297</ele>
        <time>2020-05-27T10:34:12.000Z</time>
      </trkpt>
      <trkpt lat="43.93919" lon="7.11091">
        <ele>449</ele>
        <time>2020-05-27T10:34:23.000Z</time>
      </trkpt>
      <trkpt lat="43.93918" lon="7.11091">
        <ele>449</ele>
        <time>2020-05-27T10:34:33.000Z</time>
      </trkpt>
      <trkpt lat="43.93917" lon="7.11092">
        <ele>449.20001220703</ele>
        <time>2020-05-27T10:34:45.000Z</time>
      </trkpt>
      <trkpt lat="43.93917" lon="7.11092">
        <ele>449.20001220703</ele>
        <time>2020-05-27T10:34:53.000Z</time>
      </trkpt>
      <trkpt lat="43.93917" lon="7.11092">
        <ele>449.20001220703</ele>
        <time>2020-05-27T10:35:03.000Z</time>
      </trkpt>
      <trkpt lat="43.93917" lon="7.11092">
        <ele>448.79998779297</ele>
        <time>2020-05-27T10:35:10.000Z</time>
      </trkpt>
      <trkpt lat="43.93917" lon="7.11092">
        <ele>448.20001220703</ele>
        <time>2020-05-27T10:35:18.000Z</time>
      </trkpt>
      <trkpt lat="43.93917" lon="7.11092">
        <ele>448.20001220703</ele>
        <time>2020-05-27T10:35:29.000Z</time>
      </trkpt>
      <trkpt lat="43.93917" lon="7.11091">
        <ele>448.60000610352</ele>
        <time>2020-05-27T10:35:31.000Z</time>
      </trkpt>
      <trkpt lat="43.93918" lon="7.11091">
        <ele>448.60000610352</ele>
        <time>2020-05-27T10:35:33.000Z</time>
      </trkpt>
      <trkpt lat="43.93917" lon="7.1109">
        <ele>449.20001220703</ele>
        <time>2020-05-27T10:35:40.000Z</time>
      </trkpt>
      <trkpt lat="43.93914" lon="7.11082">
        <ele>449</ele>
        <time>2020-05-27T10:35:45.000Z</time>
      </trkpt>
      <trkpt lat="43.93909" lon="7.11057">
        <ele>449.20001220703</ele>
        <time>2020-05-27T10:35:53.000Z</time>
      </trkpt>
      <trkpt lat="43.93905" lon="7.11038">
        <ele>449.39999389648</ele>
        <time>2020-05-27T10:35:58.000Z</time>
      </trkpt>
      <trkpt lat="43.93904" lon="7.11011">
        <ele>449.20001220703</ele>
        <time>2020-05-27T10:36:03.000Z</time>
      </trkpt>
      <trkpt lat="43.93906" lon="7.11004">
        <ele>449</ele>
        <time>2020-05-27T10:36:04.000Z</time>
      </trkpt>
      <trkpt lat="43.93918" lon="7.10986">
        <ele>448.20001220703</ele>
        <time>2020-05-27T10:36:07.000Z</time>
      </trkpt>
      <trkpt lat="43.93922" lon="7.1098">
        <ele>447.79998779297</ele>
        <time>2020-05-27T10:36:08.000Z</time>
      </trkpt>
      <trkpt lat="43.93927" lon="7.10973">
        <ele>447.39999389648</ele>
        <time>2020-05-27T10:36:09.000Z</time>
      </trkpt>
      <trkpt lat="43.93934" lon="7.10957">
        <ele>446.39999389648</ele>
        <time>2020-05-27T10:36:11.000Z</time>
      </trkpt>
      <trkpt lat="43.93939" lon="7.10948">
        <ele>446</ele>
        <time>2020-05-27T10:36:12.000Z</time>
      </trkpt>
      <trkpt lat="43.93949" lon="7.10934">
        <ele>445</ele>
        <time>2020-05-27T10:36:14.000Z</time>
      </trkpt>
      <trkpt lat="43.93962" lon="7.10922">
        <ele>444.20001220703</ele>
        <time>2020-05-27T10:36:16.000Z</time>
      </trkpt>
      <trkpt lat="43.93968" lon="7.10919">
        <ele>443.79998779297</ele>
        <time>2020-05-27T10:36:17.000Z</time>
      </trkpt>
      <trkpt lat="43.93992" lon="7.10912">
        <ele>442.39999389648</ele>
        <time>2020-05-27T10:36:20.000Z</time>
      </trkpt>
      <trkpt lat="43.94001" lon="7.10912">
        <ele>442</ele>
        <time>2020-05-27T10:36:21.000Z</time>
      </trkpt>
      <trkpt lat="43.94017" lon="7.10914">
        <ele>441</ele>
        <time>2020-05-27T10:36:23.000Z</time>
      </trkpt>
      <trkpt lat="43.94026" lon="7.10918">
        <ele>440.39999389648</ele>
        <time>2020-05-27T10:36:24.000Z</time>
      </trkpt>
      <trkpt lat="43.94032" lon="7.10921">
        <ele>440</ele>
        <time>2020-05-27T10:36:25.000Z</time>
      </trkpt>
      <trkpt lat="43.9404" lon="7.10921">
        <ele>439.60000610352</ele>
        <time>2020-05-27T10:36:26.000Z</time>
      </trkpt>
      <trkpt lat="43.94046" lon="7.10918">
        <ele>439</ele>
        <time>2020-05-27T10:36:27.000Z</time>
      </trkpt>
      <trkpt lat="43.94051" lon="7.10912">
        <ele>438.79998779297</ele>
        <time>2020-05-27T10:36:28.000Z</time>
      </trkpt>
      <trkpt lat="43.9406" lon="7.109">
        <ele>438.20001220703</ele>
        <time>2020-05-27T10:36:30.000Z</time>
      </trkpt>
      <trkpt lat="43.94071" lon="7.10883">
        <ele>438.20001220703</ele>
        <time>2020-05-27T10:36:33.000Z</time>
      </trkpt>
      <trkpt lat="43.94075" lon="7.10872">
        <ele>438.60000610352</ele>
        <time>2020-05-27T10:36:35.000Z</time>
      </trkpt>
      <trkpt lat="43.94074" lon="7.10853">
        <ele>439</ele>
        <time>2020-05-27T10:36:38.000Z</time>
      </trkpt>
      <trkpt lat="43.94072" lon="7.10847">
        <ele>439.20001220703</ele>
        <time>2020-05-27T10:36:39.000Z</time>
      </trkpt>
      <trkpt lat="43.94069" lon="7.1083">
        <ele>440</ele>
        <time>2020-05-27T10:36:42.000Z</time>
      </trkpt>
      <trkpt lat="43.94069" lon="7.10824">
        <ele>440.20001220703</ele>
        <time>2020-05-27T10:36:43.000Z</time>
      </trkpt>
      <trkpt lat="43.94069" lon="7.10819">
        <ele>440.39999389648</ele>
        <time>2020-05-27T10:36:44.000Z</time>
      </trkpt>
      <trkpt lat="43.9407" lon="7.10798">
        <ele>441.20001220703</ele>
        <time>2020-05-27T10:36:48.000Z</time>
      </trkpt>
      <trkpt lat="43.94072" lon="7.10783">
        <ele>441.60000610352</ele>
        <time>2020-05-27T10:36:51.000Z</time>
      </trkpt>
      <trkpt lat="43.94076" lon="7.10763">
        <ele>442.39999389648</ele>
        <time>2020-05-27T10:36:55.000Z</time>
      </trkpt>
      <trkpt lat="43.94078" lon="7.10754">
        <ele>443</ele>
        <time>2020-05-27T10:36:57.000Z</time>
      </trkpt>
      <trkpt lat="43.9408" lon="7.10745">
        <ele>443.60000610352</ele>
        <time>2020-05-27T10:36:59.000Z</time>
      </trkpt>
      <trkpt lat="43.94087" lon="7.10733">
        <ele>443.79998779297</ele>
        <time>2020-05-27T10:37:02.000Z</time>
      </trkpt>
      <trkpt lat="43.94101" lon="7.10727">
        <ele>443.60000610352</ele>
        <time>2020-05-27T10:37:05.000Z</time>
      </trkpt>
      <trkpt lat="43.94113" lon="7.10723">
        <ele>443.20001220703</ele>
        <time>2020-05-27T10:37:07.000Z</time>
      </trkpt>
      <trkpt lat="43.94124" lon="7.10717">
        <ele>442.39999389648</ele>
        <time>2020-05-27T10:37:09.000Z</time>
      </trkpt>
      <trkpt lat="43.9413" lon="7.10715">
        <ele>442.20001220703</ele>
        <time>2020-05-27T10:37:10.000Z</time>
      </trkpt>
      <trkpt lat="43.9415" lon="7.10719">
        <ele>441.20001220703</ele>
        <time>2020-05-27T10:37:13.000Z</time>
      </trkpt>
      <trkpt lat="43.94167" lon="7.1073">
        <ele>440</ele>
        <time>2020-05-27T10:37:16.000Z</time>
      </trkpt>
      <trkpt lat="43.94178" lon="7.10723">
        <ele>439.39999389648</ele>
        <time>2020-05-27T10:37:18.000Z</time>
      </trkpt>
      <trkpt lat="43.94179" lon="7.10715">
        <ele>439</ele>
        <time>2020-05-27T10:37:19.000Z</time>
      </trkpt>
      <trkpt lat="43.94179" lon="7.10706">
        <ele>438.60000610352</ele>
        <time>2020-05-27T10:37:20.000Z</time>
      </trkpt>
      <trkpt lat="43.94184" lon="7.10689">
        <ele>438</ele>
        <time>2020-05-27T10:37:22.000Z</time>
      </trkpt>
      <trkpt lat="43.9419" lon="7.10683">
        <ele>437.60000610352</ele>
        <time>2020-05-27T10:37:23.000Z</time>
      </trkpt>
      <trkpt lat="43.9421" lon="7.10676">
        <ele>437.20001220703</ele>
        <time>2020-05-27T10:37:26.000Z</time>
      </trkpt>
      <trkpt lat="43.94217" lon="7.10675">
        <ele>436.79998779297</ele>
        <time>2020-05-27T10:37:27.000Z</time>
      </trkpt>
      <trkpt lat="43.94231" lon="7.10679">
        <ele>436.39999389648</ele>
        <time>2020-05-27T10:37:29.000Z</time>
      </trkpt>
      <trkpt lat="43.94238" lon="7.10681">
        <ele>435.79998779297</ele>
        <time>2020-05-27T10:37:30.000Z</time>
      </trkpt>
      <trkpt lat="43.9425" lon="7.10674">
        <ele>435</ele>
        <time>2020-05-27T10:37:32.000Z</time>
      </trkpt>
      <trkpt lat="43.94255" lon="7.10665">
        <ele>434.60000610352</ele>
        <time>2020-05-27T10:37:33.000Z</time>
      </trkpt>
      <trkpt lat="43.94259" lon="7.10657">
        <ele>434.20001220703</ele>
        <time>2020-05-27T10:37:34.000Z</time>
      </trkpt>
      <trkpt lat="43.94263" lon="7.1065">
        <ele>433.79998779297</ele>
        <time>2020-05-27T10:37:35.000Z</time>
      </trkpt>
      <trkpt lat="43.94269" lon="7.10641">
        <ele>433.60000610352</ele>
        <time>2020-05-27T10:37:36.000Z</time>
      </trkpt>
      <trkpt lat="43.94273" lon="7.10632">
        <ele>433.20001220703</ele>
        <time>2020-05-27T10:37:37.000Z</time>
      </trkpt>
      <trkpt lat="43.94273" lon="7.10612">
        <ele>432.60000610352</ele>
        <time>2020-05-27T10:37:39.000Z</time>
      </trkpt>
      <trkpt lat="43.94272" lon="7.10602">
        <ele>432.20001220703</ele>
        <time>2020-05-27T10:37:40.000Z</time>
      </trkpt>
      <trkpt lat="43.94279" lon="7.10583">
        <ele>431.39999389648</ele>
        <time>2020-05-27T10:37:42.000Z</time>
      </trkpt>
      <trkpt lat="43.94289" lon="7.10568">
        <ele>431</ele>
        <time>2020-05-27T10:37:44.000Z</time>
      </trkpt>
      <trkpt lat="43.94302" lon="7.10557">
        <ele>430.79998779297</ele>
        <time>2020-05-27T10:37:46.000Z</time>
      </trkpt>
      <trkpt lat="43.94316" lon="7.10565">
        <ele>429.79998779297</ele>
        <time>2020-05-27T10:37:48.000Z</time>
      </trkpt>
      <trkpt lat="43.94322" lon="7.10584">
        <ele>428.79998779297</ele>
        <time>2020-05-27T10:37:50.000Z</time>
      </trkpt>
      <trkpt lat="43.94324" lon="7.10594">
        <ele>428.60000610352</ele>
        <time>2020-05-27T10:37:51.000Z</time>
      </trkpt>
      <trkpt lat="43.94327" lon="7.10601">
        <ele>428.20001220703</ele>
        <time>2020-05-27T10:37:52.000Z</time>
      </trkpt>
      <trkpt lat="43.94333" lon="7.10605">
        <ele>427.79998779297</ele>
        <time>2020-05-27T10:37:53.000Z</time>
      </trkpt>
      <trkpt lat="43.94346" lon="7.10602">
        <ele>427.20001220703</ele>
        <time>2020-05-27T10:37:55.000Z</time>
      </trkpt>
      <trkpt lat="43.94369" lon="7.1058">
        <ele>426.20001220703</ele>
        <time>2020-05-27T10:37:59.000Z</time>
      </trkpt>
      <trkpt lat="43.94383" lon="7.10557">
        <ele>425.20001220703</ele>
        <time>2020-05-27T10:38:02.000Z</time>
      </trkpt>
      <trkpt lat="43.9439" lon="7.10558">
        <ele>425</ele>
        <time>2020-05-27T10:38:03.000Z</time>
      </trkpt>
      <trkpt lat="43.94396" lon="7.10562">
        <ele>424.60000610352</ele>
        <time>2020-05-27T10:38:04.000Z</time>
      </trkpt>
      <trkpt lat="43.94417" lon="7.10566">
        <ele>423.60000610352</ele>
        <time>2020-05-27T10:38:07.000Z</time>
      </trkpt>
      <trkpt lat="43.94436" lon="7.10553">
        <ele>422.20001220703</ele>
        <time>2020-05-27T10:38:10.000Z</time>
      </trkpt>
      <trkpt lat="43.94469" lon="7.1053">
        <ele>421</ele>
        <time>2020-05-27T10:38:15.000Z</time>
      </trkpt>
      <trkpt lat="43.94483" lon="7.10523">
        <ele>420.79998779297</ele>
        <time>2020-05-27T10:38:17.000Z</time>
      </trkpt>
      <trkpt lat="43.94509" lon="7.10509">
        <ele>420.20001220703</ele>
        <time>2020-05-27T10:38:21.000Z</time>
      </trkpt>
      <trkpt lat="43.94514" lon="7.10503">
        <ele>420</ele>
        <time>2020-05-27T10:38:22.000Z</time>
      </trkpt>
      <trkpt lat="43.94518" lon="7.10486">
        <ele>419.79998779297</ele>
        <time>2020-05-27T10:38:24.000Z</time>
      </trkpt>
      <trkpt lat="43.94512" lon="7.1046">
        <ele>419.20001220703</ele>
        <time>2020-05-27T10:38:27.000Z</time>
      </trkpt>
      <trkpt lat="43.94511" lon="7.10452">
        <ele>419</ele>
        <time>2020-05-27T10:38:28.000Z</time>
      </trkpt>
      <trkpt lat="43.9451" lon="7.10444">
        <ele>418.79998779297</ele>
        <time>2020-05-27T10:38:29.000Z</time>
      </trkpt>
      <trkpt lat="43.94509" lon="7.10428">
        <ele>418.79998779297</ele>
        <time>2020-05-27T10:38:31.000Z</time>
      </trkpt>
      <trkpt lat="43.94514" lon="7.10408">
        <ele>419.20001220703</ele>
        <time>2020-05-27T10:38:34.000Z</time>
      </trkpt>
      <trkpt lat="43.94516" lon="7.10403">
        <ele>419.20001220703</ele>
        <time>2020-05-27T10:38:35.000Z</time>
      </trkpt>
      <trkpt lat="43.9453" lon="7.10361">
        <ele>420.20001220703</ele>
        <time>2020-05-27T10:38:42.000Z</time>
      </trkpt>
      <trkpt lat="43.94532" lon="7.10349">
        <ele>420.39999389648</ele>
        <time>2020-05-27T10:38:44.000Z</time>
      </trkpt>
      <trkpt lat="43.94532" lon="7.10343">
        <ele>420.39999389648</ele>
        <time>2020-05-27T10:38:45.000Z</time>
      </trkpt>
      <trkpt lat="43.94524" lon="7.10321">
        <ele>421</ele>
        <time>2020-05-27T10:38:49.000Z</time>
      </trkpt>
      <trkpt lat="43.94522" lon="7.10309">
        <ele>421.20001220703</ele>
        <time>2020-05-27T10:38:51.000Z</time>
      </trkpt>
      <trkpt lat="43.94523" lon="7.10297">
        <ele>421.39999389648</ele>
        <time>2020-05-27T10:38:53.000Z</time>
      </trkpt>
      <trkpt lat="43.94525" lon="7.10285">
        <ele>421.20001220703</ele>
        <time>2020-05-27T10:38:55.000Z</time>
      </trkpt>
      <trkpt lat="43.94534" lon="7.10258">
        <ele>421.79998779297</ele>
        <time>2020-05-27T10:39:00.000Z</time>
      </trkpt>
      <trkpt lat="43.94537" lon="7.10247">
        <ele>422</ele>
        <time>2020-05-27T10:39:02.000Z</time>
      </trkpt>
      <trkpt lat="43.94536" lon="7.1023">
        <ele>422.20001220703</ele>
        <time>2020-05-27T10:39:05.000Z</time>
      </trkpt>
      <trkpt lat="43.94533" lon="7.10219">
        <ele>422.20001220703</ele>
        <time>2020-05-27T10:39:07.000Z</time>
      </trkpt>
      <trkpt lat="43.94531" lon="7.10213">
        <ele>422.39999389648</ele>
        <time>2020-05-27T10:39:08.000Z</time>
      </trkpt>
      <trkpt lat="43.94525" lon="7.10191">
        <ele>422.60000610352</ele>
        <time>2020-05-27T10:39:12.000Z</time>
      </trkpt>
      <trkpt lat="43.94518" lon="7.10151">
        <ele>423.20001220703</ele>
        <time>2020-05-27T10:39:19.000Z</time>
      </trkpt>
      <trkpt lat="43.94518" lon="7.10145">
        <ele>423.20001220703</ele>
        <time>2020-05-27T10:39:20.000Z</time>
      </trkpt>
      <trkpt lat="43.94526" lon="7.10121">
        <ele>423</ele>
        <time>2020-05-27T10:39:24.000Z</time>
      </trkpt>
      <trkpt lat="43.94538" lon="7.10105">
        <ele>422.60000610352</ele>
        <time>2020-05-27T10:39:27.000Z</time>
      </trkpt>
      <trkpt lat="43.94545" lon="7.10094">
        <ele>422.39999389648</ele>
        <time>2020-05-27T10:39:29.000Z</time>
      </trkpt>
      <trkpt lat="43.9455" lon="7.10068">
        <ele>421.79998779297</ele>
        <time>2020-05-27T10:39:32.000Z</time>
      </trkpt>
      <trkpt lat="43.94546" lon="7.10048">
        <ele>421</ele>
        <time>2020-05-27T10:39:34.000Z</time>
      </trkpt>
      <trkpt lat="43.94542" lon="7.1004">
        <ele>420.20001220703</ele>
        <time>2020-05-27T10:39:35.000Z</time>
      </trkpt>
      <trkpt lat="43.94537" lon="7.10031">
        <ele>419.39999389648</ele>
        <time>2020-05-27T10:39:36.000Z</time>
      </trkpt>
      <trkpt lat="43.94531" lon="7.10022">
        <ele>418.60000610352</ele>
        <time>2020-05-27T10:39:37.000Z</time>
      </trkpt>
      <trkpt lat="43.94525" lon="7.10014">
        <ele>418</ele>
        <time>2020-05-27T10:39:38.000Z</time>
      </trkpt>
      <trkpt lat="43.94518" lon="7.10009">
        <ele>417.39999389648</ele>
        <time>2020-05-27T10:39:39.000Z</time>
      </trkpt>
      <trkpt lat="43.9451" lon="7.10007">
        <ele>416.79998779297</ele>
        <time>2020-05-27T10:39:40.000Z</time>
      </trkpt>
      <trkpt lat="43.94492" lon="7.10002">
        <ele>415.39999389648</ele>
        <time>2020-05-27T10:39:42.000Z</time>
      </trkpt>
      <trkpt lat="43.94478" lon="7.09988">
        <ele>414</ele>
        <time>2020-05-27T10:39:44.000Z</time>
      </trkpt>
      <trkpt lat="43.94471" lon="7.09983">
        <ele>413.39999389648</ele>
        <time>2020-05-27T10:39:45.000Z</time>
      </trkpt>
      <trkpt lat="43.94462" lon="7.0998">
        <ele>412.79998779297</ele>
        <time>2020-05-27T10:39:46.000Z</time>
      </trkpt>
      <trkpt lat="43.94454" lon="7.09979">
        <ele>412.39999389648</ele>
        <time>2020-05-27T10:39:47.000Z</time>
      </trkpt>
      <trkpt lat="43.94444" lon="7.09976">
        <ele>411.79998779297</ele>
        <time>2020-05-27T10:39:48.000Z</time>
      </trkpt>
      <trkpt lat="43.94433" lon="7.09962">
        <ele>410.60000610352</ele>
        <time>2020-05-27T10:39:50.000Z</time>
      </trkpt>
      <trkpt lat="43.94427" lon="7.09941">
        <ele>409.39999389648</ele>
        <time>2020-05-27T10:39:52.000Z</time>
      </trkpt>
      <trkpt lat="43.94424" lon="7.09931">
        <ele>409.39999389648</ele>
        <time>2020-05-27T10:39:53.000Z</time>
      </trkpt>
      <trkpt lat="43.94412" lon="7.09885">
        <ele>408.39999389648</ele>
        <time>2020-05-27T10:39:57.000Z</time>
      </trkpt>
      <trkpt lat="43.94411" lon="7.09859">
        <ele>406.20001220703</ele>
        <time>2020-05-27T10:39:59.000Z</time>
      </trkpt>
      <trkpt lat="43.94409" lon="7.09847">
        <ele>405.20001220703</ele>
        <time>2020-05-27T10:40:00.000Z</time>
      </trkpt>
      <trkpt lat="43.94406" lon="7.09835">
        <ele>404.39999389648</ele>
        <time>2020-05-27T10:40:01.000Z</time>
      </trkpt>
      <trkpt lat="43.944" lon="7.09825">
        <ele>403.60000610352</ele>
        <time>2020-05-27T10:40:02.000Z</time>
      </trkpt>
      <trkpt lat="43.94394" lon="7.09818">
        <ele>403</ele>
        <time>2020-05-27T10:40:03.000Z</time>
      </trkpt>
      <trkpt lat="43.94388" lon="7.09813">
        <ele>402.20001220703</ele>
        <time>2020-05-27T10:40:04.000Z</time>
      </trkpt>
      <trkpt lat="43.94383" lon="7.09808">
        <ele>401.60000610352</ele>
        <time>2020-05-27T10:40:05.000Z</time>
      </trkpt>
      <trkpt lat="43.9438" lon="7.09793">
        <ele>400.39999389648</ele>
        <time>2020-05-27T10:40:07.000Z</time>
      </trkpt>
      <trkpt lat="43.94388" lon="7.09787">
        <ele>400</ele>
        <time>2020-05-27T10:40:09.000Z</time>
      </trkpt>
      <trkpt lat="43.94412" lon="7.09784">
        <ele>399.60000610352</ele>
        <time>2020-05-27T10:40:13.000Z</time>
      </trkpt>
      <trkpt lat="43.94418" lon="7.09781">
        <ele>399.20001220703</ele>
        <time>2020-05-27T10:40:14.000Z</time>
      </trkpt>
      <trkpt lat="43.94425" lon="7.09778">
        <ele>398.60000610352</ele>
        <time>2020-05-27T10:40:15.000Z</time>
      </trkpt>
      <trkpt lat="43.94439" lon="7.09771">
        <ele>397.79998779297</ele>
        <time>2020-05-27T10:40:17.000Z</time>
      </trkpt>
      <trkpt lat="43.94447" lon="7.09767">
        <ele>397.39999389648</ele>
        <time>2020-05-27T10:40:18.000Z</time>
      </trkpt>
      <trkpt lat="43.94462" lon="7.09762">
        <ele>396.60000610352</ele>
        <time>2020-05-27T10:40:20.000Z</time>
      </trkpt>
      <trkpt lat="43.9447" lon="7.09759">
        <ele>396.20001220703</ele>
        <time>2020-05-27T10:40:21.000Z</time>
      </trkpt>
      <trkpt lat="43.94476" lon="7.09752">
        <ele>395.60000610352</ele>
        <time>2020-05-27T10:40:22.000Z</time>
      </trkpt>
      <trkpt lat="43.9448" lon="7.09743">
        <ele>395.20001220703</ele>
        <time>2020-05-27T10:40:23.000Z</time>
      </trkpt>
      <trkpt lat="43.94482" lon="7.09733">
        <ele>394.79998779297</ele>
        <time>2020-05-27T10:40:24.000Z</time>
      </trkpt>
      <trkpt lat="43.94483" lon="7.09723">
        <ele>394.20001220703</ele>
        <time>2020-05-27T10:40:25.000Z</time>
      </trkpt>
      <trkpt lat="43.94481" lon="7.09702">
        <ele>393.39999389648</ele>
        <time>2020-05-27T10:40:27.000Z</time>
      </trkpt>
      <trkpt lat="43.94477" lon="7.09693">
        <ele>392.79998779297</ele>
        <time>2020-05-27T10:40:28.000Z</time>
      </trkpt>
      <trkpt lat="43.94466" lon="7.09679">
        <ele>392.20001220703</ele>
        <time>2020-05-27T10:40:30.000Z</time>
      </trkpt>
      <trkpt lat="43.94453" lon="7.0967">
        <ele>391.79998779297</ele>
        <time>2020-05-27T10:40:32.000Z</time>
      </trkpt>
      <trkpt lat="43.94447" lon="7.09667">
        <ele>391.60000610352</ele>
        <time>2020-05-27T10:40:33.000Z</time>
      </trkpt>
      <trkpt lat="43.94441" lon="7.09666">
        <ele>391.39999389648</ele>
        <time>2020-05-27T10:40:34.000Z</time>
      </trkpt>
      <trkpt lat="43.94423" lon="7.09671">
        <ele>391.39999389648</ele>
        <time>2020-05-27T10:40:37.000Z</time>
      </trkpt>
      <trkpt lat="43.94417" lon="7.09673">
        <ele>391.39999389648</ele>
        <time>2020-05-27T10:40:38.000Z</time>
      </trkpt>
      <trkpt lat="43.94406" lon="7.09676">
        <ele>391.60000610352</ele>
        <time>2020-05-27T10:40:40.000Z</time>
      </trkpt>
      <trkpt lat="43.94389" lon="7.09676">
        <ele>392</ele>
        <time>2020-05-27T10:40:43.000Z</time>
      </trkpt>
      <trkpt lat="43.94348" lon="7.09673">
        <ele>392.20001220703</ele>
        <time>2020-05-27T10:40:51.000Z</time>
      </trkpt>
      <trkpt lat="43.94313" lon="7.09677">
        <ele>392.79998779297</ele>
        <time>2020-05-27T10:40:58.000Z</time>
      </trkpt>
      <trkpt lat="43.94304" lon="7.09679">
        <ele>393</ele>
        <time>2020-05-27T10:41:00.000Z</time>
      </trkpt>
      <trkpt lat="43.94287" lon="7.09687">
        <ele>393.60000610352</ele>
        <time>2020-05-27T10:41:04.000Z</time>
      </trkpt>
      <trkpt lat="43.94284" lon="7.09691">
        <ele>393.60000610352</ele>
        <time>2020-05-27T10:41:05.000Z</time>
      </trkpt>
      <trkpt lat="43.9428" lon="7.09695">
        <ele>393.79998779297</ele>
        <time>2020-05-27T10:41:06.000Z</time>
      </trkpt>
      <trkpt lat="43.94274" lon="7.09705">
        <ele>394</ele>
        <time>2020-05-27T10:41:08.000Z</time>
      </trkpt>
      <trkpt lat="43.94271" lon="7.0971">
        <ele>394</ele>
        <time>2020-05-27T10:41:09.000Z</time>
      </trkpt>
      <trkpt lat="43.94269" lon="7.09716">
        <ele>394</ele>
        <time>2020-05-27T10:41:10.000Z</time>
      </trkpt>
      <trkpt lat="43.94264" lon="7.09728">
        <ele>394</ele>
        <time>2020-05-27T10:41:12.000Z</time>
      </trkpt>
      <trkpt lat="43.94255" lon="7.09743">
        <ele>394</ele>
        <time>2020-05-27T10:41:15.000Z</time>
      </trkpt>
      <trkpt lat="43.94238" lon="7.09753">
        <ele>394.20001220703</ele>
        <time>2020-05-27T10:41:19.000Z</time>
      </trkpt>
      <trkpt lat="43.94214" lon="7.09749">
        <ele>394.39999389648</ele>
        <time>2020-05-27T10:41:24.000Z</time>
      </trkpt>
      <trkpt lat="43.94197" lon="7.09738">
        <ele>394.39999389648</ele>
        <time>2020-05-27T10:41:28.000Z</time>
      </trkpt>
      <trkpt lat="43.94185" lon="7.09728">
        <ele>394.60000610352</ele>
        <time>2020-05-27T10:41:31.000Z</time>
      </trkpt>
      <trkpt lat="43.94177" lon="7.09723">
        <ele>394.79998779297</ele>
        <time>2020-05-27T10:41:33.000Z</time>
      </trkpt>
      <trkpt lat="43.94165" lon="7.09716">
        <ele>395</ele>
        <time>2020-05-27T10:41:36.000Z</time>
      </trkpt>
      <trkpt lat="43.94156" lon="7.09714">
        <ele>395</ele>
        <time>2020-05-27T10:41:38.000Z</time>
      </trkpt>
      <trkpt lat="43.9412" lon="7.09702">
        <ele>395.60000610352</ele>
        <time>2020-05-27T10:41:47.000Z</time>
      </trkpt>
      <trkpt lat="43.94108" lon="7.09688">
        <ele>395.79998779297</ele>
        <time>2020-05-27T10:41:51.000Z</time>
      </trkpt>
      <trkpt lat="43.94105" lon="7.09685">
        <ele>396</ele>
        <time>2020-05-27T10:41:52.000Z</time>
      </trkpt>
      <trkpt lat="43.94088" lon="7.09675">
        <ele>396.79998779297</ele>
        <time>2020-05-27T10:41:57.000Z</time>
      </trkpt>
      <trkpt lat="43.94077" lon="7.09673">
        <ele>397</ele>
        <time>2020-05-27T10:42:00.000Z</time>
      </trkpt>
      <trkpt lat="43.94066" lon="7.09675">
        <ele>397.20001220703</ele>
        <time>2020-05-27T10:42:03.000Z</time>
      </trkpt>
      <trkpt lat="43.94046" lon="7.09686">
        <ele>397.79998779297</ele>
        <time>2020-05-27T10:42:09.000Z</time>
      </trkpt>
      <trkpt lat="43.94042" lon="7.09687">
        <ele>398</ele>
        <time>2020-05-27T10:42:10.000Z</time>
      </trkpt>
      <trkpt lat="43.94016" lon="7.09694">
        <ele>398.60000610352</ele>
        <time>2020-05-27T10:42:17.000Z</time>
      </trkpt>
      <trkpt lat="43.93985" lon="7.097">
        <ele>399</ele>
        <time>2020-05-27T10:42:25.000Z</time>
      </trkpt>
      <trkpt lat="43.93978" lon="7.09704">
        <ele>399.20001220703</ele>
        <time>2020-05-27T10:42:27.000Z</time>
      </trkpt>
      <trkpt lat="43.93959" lon="7.09725">
        <ele>399.60000610352</ele>
        <time>2020-05-27T10:42:33.000Z</time>
      </trkpt>
      <trkpt lat="43.93943" lon="7.09749">
        <ele>400</ele>
        <time>2020-05-27T10:42:39.000Z</time>
      </trkpt>
      <trkpt lat="43.93941" lon="7.09753">
        <ele>400.20001220703</ele>
        <time>2020-05-27T10:42:40.000Z</time>
      </trkpt>
      <trkpt lat="43.93921" lon="7.09782">
        <ele>400.20001220703</ele>
        <time>2020-05-27T10:42:47.000Z</time>
      </trkpt>
      <trkpt lat="43.93911" lon="7.09802">
        <ele>400.20001220703</ele>
        <time>2020-05-27T10:42:51.000Z</time>
      </trkpt>
      <trkpt lat="43.93904" lon="7.09808">
        <ele>400.20001220703</ele>
        <time>2020-05-27T10:42:53.000Z</time>
      </trkpt>
      <trkpt lat="43.93887" lon="7.09812">
        <ele>400.20001220703</ele>
        <time>2020-05-27T10:42:57.000Z</time>
      </trkpt>
      <trkpt lat="43.93883" lon="7.09811">
        <ele>400.39999389648</ele>
        <time>2020-05-27T10:42:58.000Z</time>
      </trkpt>
      <trkpt lat="43.93863" lon="7.09801">
        <ele>400.60000610352</ele>
        <time>2020-05-27T10:43:03.000Z</time>
      </trkpt>
      <trkpt lat="43.93844" lon="7.09799">
        <ele>401</ele>
        <time>2020-05-27T10:43:08.000Z</time>
      </trkpt>
      <trkpt lat="43.93841" lon="7.09801">
        <ele>401</ele>
        <time>2020-05-27T10:43:09.000Z</time>
      </trkpt>
      <trkpt lat="43.93828" lon="7.09813">
        <ele>401.39999389648</ele>
        <time>2020-05-27T10:43:13.000Z</time>
      </trkpt>
      <trkpt lat="43.93812" lon="7.09817">
        <ele>401.79998779297</ele>
        <time>2020-05-27T10:43:17.000Z</time>
      </trkpt>
      <trkpt lat="43.938" lon="7.09814">
        <ele>402.20001220703</ele>
        <time>2020-05-27T10:43:20.000Z</time>
      </trkpt>
      <trkpt lat="43.93791" lon="7.09815">
        <ele>402.39999389648</ele>
        <time>2020-05-27T10:43:22.000Z</time>
      </trkpt>
      <trkpt lat="43.93784" lon="7.09819">
        <ele>402.60000610352</ele>
        <time>2020-05-27T10:43:24.000Z</time>
      </trkpt>
      <trkpt lat="43.93777" lon="7.09827">
        <ele>402.60000610352</ele>
        <time>2020-05-27T10:43:26.000Z</time>
      </trkpt>
      <trkpt lat="43.93767" lon="7.09836">
        <ele>402.79998779297</ele>
        <time>2020-05-27T10:43:29.000Z</time>
      </trkpt>
      <trkpt lat="43.93758" lon="7.0984">
        <ele>403</ele>
        <time>2020-05-27T10:43:31.000Z</time>
      </trkpt>
      <trkpt lat="43.93738" lon="7.09838">
        <ele>403</ele>
        <time>2020-05-27T10:43:36.000Z</time>
      </trkpt>
      <trkpt lat="43.93734" lon="7.09836">
        <ele>403</ele>
        <time>2020-05-27T10:43:37.000Z</time>
      </trkpt>
      <trkpt lat="43.9373" lon="7.09835">
        <ele>403.20001220703</ele>
        <time>2020-05-27T10:43:38.000Z</time>
      </trkpt>
      <trkpt lat="43.93704" lon="7.09821">
        <ele>403.60000610352</ele>
        <time>2020-05-27T10:43:45.000Z</time>
      </trkpt>
      <trkpt lat="43.93684" lon="7.09806">
        <ele>404.20001220703</ele>
        <time>2020-05-27T10:43:51.000Z</time>
      </trkpt>
      <trkpt lat="43.93679" lon="7.09799">
        <ele>404.39999389648</ele>
        <time>2020-05-27T10:43:53.000Z</time>
      </trkpt>
      <trkpt lat="43.93671" lon="7.09781">
        <ele>405.39999389648</ele>
        <time>2020-05-27T10:43:58.000Z</time>
      </trkpt>
      <trkpt lat="43.9367" lon="7.09778">
        <ele>405.79998779297</ele>
        <time>2020-05-27T10:43:59.000Z</time>
      </trkpt>
      <trkpt lat="43.93667" lon="7.09769">
        <ele>406.20001220703</ele>
        <time>2020-05-27T10:44:02.000Z</time>
      </trkpt>
      <trkpt lat="43.93666" lon="7.09765">
        <ele>406.39999389648</ele>
        <time>2020-05-27T10:44:03.000Z</time>
      </trkpt>
      <trkpt lat="43.93666" lon="7.09762">
        <ele>406.79998779297</ele>
        <time>2020-05-27T10:44:04.000Z</time>
      </trkpt>
      <trkpt lat="43.93667" lon="7.09756">
        <ele>407.20001220703</ele>
        <time>2020-05-27T10:44:06.000Z</time>
      </trkpt>
      <trkpt lat="43.9367" lon="7.09749">
        <ele>407.60000610352</ele>
        <time>2020-05-27T10:44:09.000Z</time>
      </trkpt>
      <trkpt lat="43.93674" lon="7.09738">
        <ele>407.39999389648</ele>
        <time>2020-05-27T10:44:12.000Z</time>
      </trkpt>
      <trkpt lat="43.93683" lon="7.0972">
        <ele>407.20001220703</ele>
        <time>2020-05-27T10:44:18.000Z</time>
      </trkpt>
      <trkpt lat="43.93683" lon="7.09717">
        <ele>407.39999389648</ele>
        <time>2020-05-27T10:44:19.000Z</time>
      </trkpt>
      <trkpt lat="43.93686" lon="7.09706">
        <ele>407.60000610352</ele>
        <time>2020-05-27T10:44:23.000Z</time>
      </trkpt>
      <trkpt lat="43.93697" lon="7.09687">
        <ele>407.79998779297</ele>
        <time>2020-05-27T10:44:29.000Z</time>
      </trkpt>
      <trkpt lat="43.93708" lon="7.09663">
        <ele>408</ele>
        <time>2020-05-27T10:44:36.000Z</time>
      </trkpt>
      <trkpt lat="43.93719" lon="7.09646">
        <ele>408.39999389648</ele>
        <time>2020-05-27T10:44:42.000Z</time>
      </trkpt>
      <trkpt lat="43.93721" lon="7.09644">
        <ele>408.60000610352</ele>
        <time>2020-05-27T10:44:43.000Z</time>
      </trkpt>
      <trkpt lat="43.93733" lon="7.09622">
        <ele>408.79998779297</ele>
        <time>2020-05-27T10:44:50.000Z</time>
      </trkpt>
      <trkpt lat="43.93745" lon="7.09599">
        <ele>409.20001220703</ele>
        <time>2020-05-27T10:44:57.000Z</time>
      </trkpt>
      <trkpt lat="43.93748" lon="7.09588">
        <ele>409.60000610352</ele>
        <time>2020-05-27T10:45:00.000Z</time>
      </trkpt>
      <trkpt lat="43.93753" lon="7.09571">
        <ele>409.79998779297</ele>
        <time>2020-05-27T10:45:04.000Z</time>
      </trkpt>
      <trkpt lat="43.93758" lon="7.09543">
        <ele>410.39999389648</ele>
        <time>2020-05-27T10:45:11.000Z</time>
      </trkpt>
      <trkpt lat="43.93761" lon="7.09542">
        <ele>410.39999389648</ele>
        <time>2020-05-27T10:45:12.000Z</time>
      </trkpt>
      <trkpt lat="43.93764" lon="7.09545">
        <ele>410.60000610352</ele>
        <time>2020-05-27T10:45:14.000Z</time>
      </trkpt>
      <trkpt lat="43.93764" lon="7.09554">
        <ele>411</ele>
        <time>2020-05-27T10:45:17.000Z</time>
      </trkpt>
      <trkpt lat="43.93764" lon="7.09562">
        <ele>411.20001220703</ele>
        <time>2020-05-27T10:45:19.000Z</time>
      </trkpt>
      <trkpt lat="43.93764" lon="7.0957">
        <ele>411.79998779297</ele>
        <time>2020-05-27T10:45:21.000Z</time>
      </trkpt>
      <trkpt lat="43.93764" lon="7.09584">
        <ele>412.79998779297</ele>
        <time>2020-05-27T10:45:25.000Z</time>
      </trkpt>
      <trkpt lat="43.93765" lon="7.09592">
        <ele>413.20001220703</ele>
        <time>2020-05-27T10:45:27.000Z</time>
      </trkpt>
      <trkpt lat="43.93768" lon="7.09606">
        <ele>414</ele>
        <time>2020-05-27T10:45:31.000Z</time>
      </trkpt>
      <trkpt lat="43.9377" lon="7.09613">
        <ele>414.39999389648</ele>
        <time>2020-05-27T10:45:33.000Z</time>
      </trkpt>
      <trkpt lat="43.93773" lon="7.09628">
        <ele>415.20001220703</ele>
        <time>2020-05-27T10:45:37.000Z</time>
      </trkpt>
      <trkpt lat="43.93773" lon="7.0964">
        <ele>415.60000610352</ele>
        <time>2020-05-27T10:45:40.000Z</time>
      </trkpt>
      <trkpt lat="43.93768" lon="7.09667">
        <ele>416</ele>
        <time>2020-05-27T10:45:47.000Z</time>
      </trkpt>
      <trkpt lat="43.93766" lon="7.0967">
        <ele>416.20001220703</ele>
        <time>2020-05-27T10:45:48.000Z</time>
      </trkpt>
      <trkpt lat="43.93764" lon="7.09676">
        <ele>416.39999389648</ele>
        <time>2020-05-27T10:45:52.000Z</time>
      </trkpt>
      <trkpt lat="43.93765" lon="7.0968">
        <ele>416.60000610352</ele>
        <time>2020-05-27T10:45:59.000Z</time>
      </trkpt>
      <trkpt lat="43.93767" lon="7.09681">
        <ele>417.20001220703</ele>
        <time>2020-05-27T10:46:02.000Z</time>
      </trkpt>
      <trkpt lat="43.93768" lon="7.09682">
        <ele>418</ele>
        <time>2020-05-27T10:46:06.000Z</time>
      </trkpt>
      <trkpt lat="43.93768" lon="7.09683">
        <ele>418.20001220703</ele>
        <time>2020-05-27T10:46:07.000Z</time>
      </trkpt>
      <trkpt lat="43.93771" lon="7.09685">
        <ele>419.39999389648</ele>
        <time>2020-05-27T10:46:13.000Z</time>
      </trkpt>
      <trkpt lat="43.93773" lon="7.09686">
        <ele>419.60000610352</ele>
        <time>2020-05-27T10:46:14.000Z</time>
      </trkpt>
      <trkpt lat="43.93775" lon="7.09689">
        <ele>420.60000610352</ele>
        <time>2020-05-27T10:46:19.000Z</time>
      </trkpt>
      <trkpt lat="43.93777" lon="7.09691">
        <ele>421.20001220703</ele>
        <time>2020-05-27T10:46:23.000Z</time>
      </trkpt>
      <trkpt lat="43.93778" lon="7.09692">
        <ele>421.60000610352</ele>
        <time>2020-05-27T10:46:24.000Z</time>
      </trkpt>
      <trkpt lat="43.93779" lon="7.09693">
        <ele>422.60000610352</ele>
        <time>2020-05-27T10:46:29.000Z</time>
      </trkpt>
      <trkpt lat="43.9378" lon="7.09694">
        <ele>422.79998779297</ele>
        <time>2020-05-27T10:46:30.000Z</time>
      </trkpt>
      <trkpt lat="43.93782" lon="7.09695">
        <ele>423.60000610352</ele>
        <time>2020-05-27T10:46:35.000Z</time>
      </trkpt>
      <trkpt lat="43.93785" lon="7.09696">
        <ele>424.39999389648</ele>
        <time>2020-05-27T10:46:39.000Z</time>
      </trkpt>
      <trkpt lat="43.93786" lon="7.09697">
        <ele>424.60000610352</ele>
        <time>2020-05-27T10:46:41.000Z</time>
      </trkpt>
      <trkpt lat="43.93789" lon="7.097">
        <ele>425.79998779297</ele>
        <time>2020-05-27T10:46:47.000Z</time>
      </trkpt>
      <trkpt lat="43.93792" lon="7.09702">
        <ele>427</ele>
        <time>2020-05-27T10:46:54.000Z</time>
      </trkpt>
      <trkpt lat="43.93792" lon="7.09703">
        <ele>427.20001220703</ele>
        <time>2020-05-27T10:46:55.000Z</time>
      </trkpt>
      <trkpt lat="43.93794" lon="7.09706">
        <ele>428</ele>
        <time>2020-05-27T10:46:59.000Z</time>
      </trkpt>
      <trkpt lat="43.93795" lon="7.09706">
        <ele>428</ele>
        <time>2020-05-27T10:47:00.000Z</time>
      </trkpt>
      <trkpt lat="43.93797" lon="7.09709">
        <ele>429.20001220703</ele>
        <time>2020-05-27T10:47:05.000Z</time>
      </trkpt>
      <trkpt lat="43.93797" lon="7.0971">
        <ele>429.39999389648</ele>
        <time>2020-05-27T10:47:06.000Z</time>
      </trkpt>
      <trkpt lat="43.93799" lon="7.09709">
        <ele>429.60000610352</ele>
        <time>2020-05-27T10:47:08.000Z</time>
      </trkpt>
      <trkpt lat="43.938" lon="7.0971">
        <ele>430</ele>
        <time>2020-05-27T10:47:09.000Z</time>
      </trkpt>
      <trkpt lat="43.93801" lon="7.09712">
        <ele>430.20001220703</ele>
        <time>2020-05-27T10:47:11.000Z</time>
      </trkpt>
      <trkpt lat="43.93802" lon="7.09713">
        <ele>431</ele>
        <time>2020-05-27T10:47:14.000Z</time>
      </trkpt>
      <trkpt lat="43.93803" lon="7.09714">
        <ele>431.39999389648</ele>
        <time>2020-05-27T10:47:16.000Z</time>
      </trkpt>
      <trkpt lat="43.93806" lon="7.09713">
        <ele>432</ele>
        <time>2020-05-27T10:47:20.000Z</time>
      </trkpt>
      <trkpt lat="43.93807" lon="7.09713">
        <ele>432.39999389648</ele>
        <time>2020-05-27T10:47:22.000Z</time>
      </trkpt>
      <trkpt lat="43.93812" lon="7.09713">
        <ele>433.60000610352</ele>
        <time>2020-05-27T10:47:28.000Z</time>
      </trkpt>
      <trkpt lat="43.93812" lon="7.09713">
        <ele>433.79998779297</ele>
        <time>2020-05-27T10:47:29.000Z</time>
      </trkpt>
      <trkpt lat="43.93816" lon="7.09713">
        <ele>434.60000610352</ele>
        <time>2020-05-27T10:47:34.000Z</time>
      </trkpt>
      <trkpt lat="43.93816" lon="7.09713">
        <ele>434.79998779297</ele>
        <time>2020-05-27T10:47:35.000Z</time>
      </trkpt>
      <trkpt lat="43.93819" lon="7.09714">
        <ele>435.79998779297</ele>
        <time>2020-05-27T10:47:40.000Z</time>
      </trkpt>
      <trkpt lat="43.93823" lon="7.09716">
        <ele>436.60000610352</ele>
        <time>2020-05-27T10:47:45.000Z</time>
      </trkpt>
      <trkpt lat="43.93823" lon="7.09716">
        <ele>437</ele>
        <time>2020-05-27T10:47:47.000Z</time>
      </trkpt>
      <trkpt lat="43.93826" lon="7.09717">
        <ele>437.60000610352</ele>
        <time>2020-05-27T10:47:52.000Z</time>
      </trkpt>
      <trkpt lat="43.93828" lon="7.09718">
        <ele>438</ele>
        <time>2020-05-27T10:47:55.000Z</time>
      </trkpt>
      <trkpt lat="43.9383" lon="7.09719">
        <ele>438.60000610352</ele>
        <time>2020-05-27T10:47:58.000Z</time>
      </trkpt>
      <trkpt lat="43.93831" lon="7.09719">
        <ele>439.20001220703</ele>
        <time>2020-05-27T10:48:01.000Z</time>
      </trkpt>
      <trkpt lat="43.93833" lon="7.09723">
        <ele>440</ele>
        <time>2020-05-27T10:48:06.000Z</time>
      </trkpt>
      <trkpt lat="43.93833" lon="7.09723">
        <ele>440.39999389648</ele>
        <time>2020-05-27T10:48:07.000Z</time>
      </trkpt>
      <trkpt lat="43.93835" lon="7.09729">
        <ele>441.39999389648</ele>
        <time>2020-05-27T10:48:13.000Z</time>
      </trkpt>
      <trkpt lat="43.93835" lon="7.0973">
        <ele>441.60000610352</ele>
        <time>2020-05-27T10:48:14.000Z</time>
      </trkpt>
      <trkpt lat="43.93837" lon="7.09733">
        <ele>442.60000610352</ele>
        <time>2020-05-27T10:48:19.000Z</time>
      </trkpt>
      <trkpt lat="43.93838" lon="7.09733">
        <ele>443.20001220703</ele>
        <time>2020-05-27T10:48:22.000Z</time>
      </trkpt>
      <trkpt lat="43.93842" lon="7.09732">
        <ele>443.60000610352</ele>
        <time>2020-05-27T10:48:26.000Z</time>
      </trkpt>
      <trkpt lat="43.93845" lon="7.09731">
        <ele>444</ele>
        <time>2020-05-27T10:48:29.000Z</time>
      </trkpt>
      <trkpt lat="43.93848" lon="7.09731">
        <ele>444.60000610352</ele>
        <time>2020-05-27T10:48:33.000Z</time>
      </trkpt>
      <trkpt lat="43.93851" lon="7.09729">
        <ele>445.20001220703</ele>
        <time>2020-05-27T10:48:37.000Z</time>
      </trkpt>
      <trkpt lat="43.93855" lon="7.09729">
        <ele>445.79998779297</ele>
        <time>2020-05-27T10:48:41.000Z</time>
      </trkpt>
      <trkpt lat="43.93856" lon="7.09729">
        <ele>446.20001220703</ele>
        <time>2020-05-27T10:48:44.000Z</time>
      </trkpt>
      <trkpt lat="43.9386" lon="7.09727">
        <ele>446.60000610352</ele>
        <time>2020-05-27T10:48:48.000Z</time>
      </trkpt>
      <trkpt lat="43.9386" lon="7.09727">
        <ele>446.60000610352</ele>
        <time>2020-05-27T10:48:49.000Z</time>
      </trkpt>
      <trkpt lat="43.93864" lon="7.09725">
        <ele>446.60000610352</ele>
        <time>2020-05-27T10:48:52.000Z</time>
      </trkpt>
      <trkpt lat="43.93865" lon="7.09725">
        <ele>446.79998779297</ele>
        <time>2020-05-27T10:48:53.000Z</time>
      </trkpt>
      <trkpt lat="43.93869" lon="7.09722">
        <ele>447.20001220703</ele>
        <time>2020-05-27T10:48:56.000Z</time>
      </trkpt>
      <trkpt lat="43.93875" lon="7.09716">
        <ele>447.79998779297</ele>
        <time>2020-05-27T10:49:02.000Z</time>
      </trkpt>
      <trkpt lat="43.93876" lon="7.09713">
        <ele>448</ele>
        <time>2020-05-27T10:49:04.000Z</time>
      </trkpt>
      <trkpt lat="43.93883" lon="7.09703">
        <ele>448.79998779297</ele>
        <time>2020-05-27T10:49:11.000Z</time>
      </trkpt>
      <trkpt lat="43.93884" lon="7.09699">
        <ele>449.60000610352</ele>
        <time>2020-05-27T10:49:17.000Z</time>
      </trkpt>
      <trkpt lat="43.93886" lon="7.09693">
        <ele>450</ele>
        <time>2020-05-27T10:49:23.000Z</time>
      </trkpt>
      <trkpt lat="43.93888" lon="7.0969">
        <ele>451.20001220703</ele>
        <time>2020-05-27T10:49:27.000Z</time>
      </trkpt>
      <trkpt lat="43.93889" lon="7.09687">
        <ele>452.20001220703</ele>
        <time>2020-05-27T10:49:31.000Z</time>
      </trkpt>
      <trkpt lat="43.93889" lon="7.09686">
        <ele>452.39999389648</ele>
        <time>2020-05-27T10:49:32.000Z</time>
      </trkpt>
      <trkpt lat="43.93891" lon="7.0968">
        <ele>453.60000610352</ele>
        <time>2020-05-27T10:49:38.000Z</time>
      </trkpt>
      <trkpt lat="43.93891" lon="7.09678">
        <ele>454</ele>
        <time>2020-05-27T10:49:40.000Z</time>
      </trkpt>
      <trkpt lat="43.93891" lon="7.09674">
        <ele>454.60000610352</ele>
        <time>2020-05-27T10:49:44.000Z</time>
      </trkpt>
      <trkpt lat="43.9389" lon="7.09668">
        <ele>455.60000610352</ele>
        <time>2020-05-27T10:49:49.000Z</time>
      </trkpt>
      <trkpt lat="43.9389" lon="7.09667">
        <ele>455.79998779297</ele>
        <time>2020-05-27T10:49:50.000Z</time>
      </trkpt>
      <trkpt lat="43.9389" lon="7.09658">
        <ele>456.79998779297</ele>
        <time>2020-05-27T10:49:58.000Z</time>
      </trkpt>
      <trkpt lat="43.93889" lon="7.09652">
        <ele>458</ele>
        <time>2020-05-27T10:50:03.000Z</time>
      </trkpt>
      <trkpt lat="43.93889" lon="7.09649">
        <ele>458.39999389648</ele>
        <time>2020-05-27T10:50:06.000Z</time>
      </trkpt>
      <trkpt lat="43.93889" lon="7.09646">
        <ele>458.79998779297</ele>
        <time>2020-05-27T10:50:08.000Z</time>
      </trkpt>
      <trkpt lat="43.93889" lon="7.09645">
        <ele>459</ele>
        <time>2020-05-27T10:50:09.000Z</time>
      </trkpt>
      <trkpt lat="43.93889" lon="7.09641">
        <ele>459.39999389648</ele>
        <time>2020-05-27T10:50:13.000Z</time>
      </trkpt>
      <trkpt lat="43.93889" lon="7.09636">
        <ele>460.20001220703</ele>
        <time>2020-05-27T10:50:17.000Z</time>
      </trkpt>
      <trkpt lat="43.9389" lon="7.0963">
        <ele>461.20001220703</ele>
        <time>2020-05-27T10:50:22.000Z</time>
      </trkpt>
      <trkpt lat="43.9389" lon="7.09629">
        <ele>462.20001220703</ele>
        <time>2020-05-27T10:50:27.000Z</time>
      </trkpt>
      <trkpt lat="43.9389" lon="7.09627">
        <ele>462.39999389648</ele>
        <time>2020-05-27T10:50:29.000Z</time>
      </trkpt>
      <trkpt lat="43.9389" lon="7.09619">
        <ele>463.20001220703</ele>
        <time>2020-05-27T10:50:37.000Z</time>
      </trkpt>
      <trkpt lat="43.9389" lon="7.09617">
        <ele>463.39999389648</ele>
        <time>2020-05-27T10:50:38.000Z</time>
      </trkpt>
      <trkpt lat="43.93892" lon="7.09611">
        <ele>464.39999389648</ele>
        <time>2020-05-27T10:50:44.000Z</time>
      </trkpt>
      <trkpt lat="43.93892" lon="7.09609">
        <ele>464.79998779297</ele>
        <time>2020-05-27T10:50:46.000Z</time>
      </trkpt>
      <trkpt lat="43.93893" lon="7.09602">
        <ele>465.60000610352</ele>
        <time>2020-05-27T10:50:52.000Z</time>
      </trkpt>
      <trkpt lat="43.93893" lon="7.09599">
        <ele>466</ele>
        <time>2020-05-27T10:50:54.000Z</time>
      </trkpt>
      <trkpt lat="43.93893" lon="7.09596">
        <ele>466.60000610352</ele>
        <time>2020-05-27T10:50:57.000Z</time>
      </trkpt>
      <trkpt lat="43.93894" lon="7.0959">
        <ele>467.60000610352</ele>
        <time>2020-05-27T10:51:03.000Z</time>
      </trkpt>
      <trkpt lat="43.93895" lon="7.09585">
        <ele>468.79998779297</ele>
        <time>2020-05-27T10:51:09.000Z</time>
      </trkpt>
      <trkpt lat="43.93895" lon="7.09582">
        <ele>469.39999389648</ele>
        <time>2020-05-27T10:51:12.000Z</time>
      </trkpt>
      <trkpt lat="43.93895" lon="7.0958">
        <ele>470</ele>
        <time>2020-05-27T10:51:14.000Z</time>
      </trkpt>
      <trkpt lat="43.93896" lon="7.09575">
        <ele>471.20001220703</ele>
        <time>2020-05-27T10:51:20.000Z</time>
      </trkpt>
      <trkpt lat="43.93896" lon="7.09574">
        <ele>471.39999389648</ele>
        <time>2020-05-27T10:51:22.000Z</time>
      </trkpt>
      <trkpt lat="43.93897" lon="7.0957">
        <ele>472.20001220703</ele>
        <time>2020-05-27T10:51:27.000Z</time>
      </trkpt>
      <trkpt lat="43.93898" lon="7.09567">
        <ele>473.20001220703</ele>
        <time>2020-05-27T10:51:31.000Z</time>
      </trkpt>
      <trkpt lat="43.93898" lon="7.09566">
        <ele>473.39999389648</ele>
        <time>2020-05-27T10:51:32.000Z</time>
      </trkpt>
      <trkpt lat="43.93899" lon="7.09563">
        <ele>474.39999389648</ele>
        <time>2020-05-27T10:51:37.000Z</time>
      </trkpt>
      <trkpt lat="43.93899" lon="7.0956">
        <ele>474.79998779297</ele>
        <time>2020-05-27T10:51:40.000Z</time>
      </trkpt>
      <trkpt lat="43.939" lon="7.09557">
        <ele>475.39999389648</ele>
        <time>2020-05-27T10:51:44.000Z</time>
      </trkpt>
      <trkpt lat="43.93901" lon="7.09554">
        <ele>476</ele>
        <time>2020-05-27T10:51:48.000Z</time>
      </trkpt>
      <trkpt lat="43.93901" lon="7.09552">
        <ele>476.39999389648</ele>
        <time>2020-05-27T10:51:50.000Z</time>
      </trkpt>
      <trkpt lat="43.93903" lon="7.09549">
        <ele>477.60000610352</ele>
        <time>2020-05-27T10:51:55.000Z</time>
      </trkpt>
      <trkpt lat="43.93905" lon="7.09545">
        <ele>478</ele>
        <time>2020-05-27T10:51:59.000Z</time>
      </trkpt>
      <trkpt lat="43.93906" lon="7.09543">
        <ele>478.60000610352</ele>
        <time>2020-05-27T10:52:02.000Z</time>
      </trkpt>
      <trkpt lat="43.93907" lon="7.09539">
        <ele>479.60000610352</ele>
        <time>2020-05-27T10:52:07.000Z</time>
      </trkpt>
      <trkpt lat="43.93908" lon="7.09538">
        <ele>479.79998779297</ele>
        <time>2020-05-27T10:52:08.000Z</time>
      </trkpt>
      <trkpt lat="43.93909" lon="7.09534">
        <ele>480.79998779297</ele>
        <time>2020-05-27T10:52:13.000Z</time>
      </trkpt>
      <trkpt lat="43.93911" lon="7.0953">
        <ele>481.39999389648</ele>
        <time>2020-05-27T10:52:17.000Z</time>
      </trkpt>
      <trkpt lat="43.93911" lon="7.09528">
        <ele>481.79998779297</ele>
        <time>2020-05-27T10:52:19.000Z</time>
      </trkpt>
      <trkpt lat="43.93913" lon="7.09522">
        <ele>483</ele>
        <time>2020-05-27T10:52:25.000Z</time>
      </trkpt>
      <trkpt lat="43.93913" lon="7.09521">
        <ele>483</ele>
        <time>2020-05-27T10:52:26.000Z</time>
      </trkpt>
      <trkpt lat="43.93915" lon="7.09515">
        <ele>484</ele>
        <time>2020-05-27T10:52:31.000Z</time>
      </trkpt>
      <trkpt lat="43.93916" lon="7.09511">
        <ele>484.60000610352</ele>
        <time>2020-05-27T10:52:35.000Z</time>
      </trkpt>
      <trkpt lat="43.93917" lon="7.09508">
        <ele>485</ele>
        <time>2020-05-27T10:52:38.000Z</time>
      </trkpt>
      <trkpt lat="43.93919" lon="7.09503">
        <ele>486</ele>
        <time>2020-05-27T10:52:43.000Z</time>
      </trkpt>
      <trkpt lat="43.93918" lon="7.09503">
        <ele>486</ele>
        <time>2020-05-27T10:52:44.000Z</time>
      </trkpt>
      <trkpt lat="43.93918" lon="7.09499">
        <ele>486.20001220703</ele>
        <time>2020-05-27T10:52:48.000Z</time>
      </trkpt>
      <trkpt lat="43.93919" lon="7.09498">
        <ele>486.39999389648</ele>
        <time>2020-05-27T10:52:49.000Z</time>
      </trkpt>
      <trkpt lat="43.93921" lon="7.0949">
        <ele>486.60000610352</ele>
        <time>2020-05-27T10:52:53.000Z</time>
      </trkpt>
      <trkpt lat="43.93925" lon="7.09478">
        <ele>487.20001220703</ele>
        <time>2020-05-27T10:53:00.000Z</time>
      </trkpt>
      <trkpt lat="43.93926" lon="7.09476">
        <ele>487.39999389648</ele>
        <time>2020-05-27T10:53:01.000Z</time>
      </trkpt>
      <trkpt lat="43.9393" lon="7.09465">
        <ele>488.39999389648</ele>
        <time>2020-05-27T10:53:08.000Z</time>
      </trkpt>
      <trkpt lat="43.93931" lon="7.09463">
        <ele>488.39999389648</ele>
        <time>2020-05-27T10:53:10.000Z</time>
      </trkpt>
      <trkpt lat="43.93932" lon="7.09463">
        <ele>489</ele>
        <time>2020-05-27T10:53:15.000Z</time>
      </trkpt>
      <trkpt lat="43.93932" lon="7.09462">
        <ele>488.79998779297</ele>
        <time>2020-05-27T10:53:22.000Z</time>
      </trkpt>
      <trkpt lat="43.93931" lon="7.09461">
        <ele>488.79998779297</ele>
        <time>2020-05-27T10:53:33.000Z</time>
      </trkpt>
      <trkpt lat="43.9393" lon="7.09457">
        <ele>488.79998779297</ele>
        <time>2020-05-27T10:53:46.000Z</time>
      </trkpt>
      <trkpt lat="43.93929" lon="7.09457">
        <ele>488.79998779297</ele>
        <time>2020-05-27T10:54:00.000Z</time>
      </trkpt>
      <trkpt lat="43.93929" lon="7.09457">
        <ele>488.79998779297</ele>
        <time>2020-05-27T10:54:15.000Z</time>
      </trkpt>
      <trkpt lat="43.93929" lon="7.09457">
        <ele>488.79998779297</ele>
        <time>2020-05-27T10:54:28.000Z</time>
      </trkpt>
      <trkpt lat="43.93929" lon="7.09458">
        <ele>488.60000610352</ele>
        <time>2020-05-27T10:54:34.000Z</time>
      </trkpt>
      <trkpt lat="43.93929" lon="7.09457">
        <ele>488.79998779297</ele>
        <time>2020-05-27T10:54:41.000Z</time>
      </trkpt>
      <trkpt lat="43.93928" lon="7.09456">
        <ele>488.60000610352</ele>
        <time>2020-05-27T10:54:56.000Z</time>
      </trkpt>
      <trkpt lat="43.93928" lon="7.09455">
        <ele>488.60000610352</ele>
        <time>2020-05-27T10:55:09.000Z</time>
      </trkpt>
      <trkpt lat="43.93928" lon="7.09454">
        <ele>488.39999389648</ele>
        <time>2020-05-27T10:55:21.000Z</time>
      </trkpt>
      <trkpt lat="43.93928" lon="7.09454">
        <ele>488.79998779297</ele>
        <time>2020-05-27T10:55:31.000Z</time>
      </trkpt>
      <trkpt lat="43.93928" lon="7.09453">
        <ele>488.39999389648</ele>
        <time>2020-05-27T10:55:36.000Z</time>
      </trkpt>
      <trkpt lat="43.93928" lon="7.09454">
        <ele>489</ele>
        <time>2020-05-27T10:55:43.000Z</time>
      </trkpt>
      <trkpt lat="43.93929" lon="7.09454">
        <ele>488.79998779297</ele>
        <time>2020-05-27T10:55:51.000Z</time>
      </trkpt>
      <trkpt lat="43.93929" lon="7.09454">
        <ele>488.39999389648</ele>
        <time>2020-05-27T10:55:56.000Z</time>
      </trkpt>
      <trkpt lat="43.93929" lon="7.09454">
        <ele>488.39999389648</ele>
        <time>2020-05-27T10:56:00.000Z</time>
      </trkpt>
      <trkpt lat="43.9393" lon="7.09452">
        <ele>488.60000610352</ele>
        <time>2020-05-27T10:56:02.000Z</time>
      </trkpt>
      <trkpt lat="43.93931" lon="7.09448">
        <ele>488.60000610352</ele>
        <time>2020-05-27T10:56:05.000Z</time>
      </trkpt>
      <trkpt lat="43.93936" lon="7.09436">
        <ele>489.39999389648</ele>
        <time>2020-05-27T10:56:12.000Z</time>
      </trkpt>
      <trkpt lat="43.93936" lon="7.09434">
        <ele>489.60000610352</ele>
        <time>2020-05-27T10:56:13.000Z</time>
      </trkpt>
      <trkpt lat="43.93941" lon="7.09421">
        <ele>490.20001220703</ele>
        <time>2020-05-27T10:56:19.000Z</time>
      </trkpt>
      <trkpt lat="43.93944" lon="7.09415">
        <ele>490.39999389648</ele>
        <time>2020-05-27T10:56:22.000Z</time>
      </trkpt>
      <trkpt lat="43.93946" lon="7.0941">
        <ele>490.60000610352</ele>
        <time>2020-05-27T10:56:24.000Z</time>
      </trkpt>
      <trkpt lat="43.93952" lon="7.09398">
        <ele>491</ele>
        <time>2020-05-27T10:56:30.000Z</time>
      </trkpt>
      <trkpt lat="43.93958" lon="7.09384">
        <ele>491.39999389648</ele>
        <time>2020-05-27T10:56:36.000Z</time>
      </trkpt>
      <trkpt lat="43.93964" lon="7.09369">
        <ele>491.39999389648</ele>
        <time>2020-05-27T10:56:42.000Z</time>
      </trkpt>
      <trkpt lat="43.93966" lon="7.09364">
        <ele>491.60000610352</ele>
        <time>2020-05-27T10:56:44.000Z</time>
      </trkpt>
      <trkpt lat="43.93972" lon="7.0935">
        <ele>492.20001220703</ele>
        <time>2020-05-27T10:56:50.000Z</time>
      </trkpt>
      <trkpt lat="43.93977" lon="7.09336">
        <ele>492.39999389648</ele>
        <time>2020-05-27T10:56:55.000Z</time>
      </trkpt>
      <trkpt lat="43.93985" lon="7.09321">
        <ele>492.60000610352</ele>
        <time>2020-05-27T10:57:01.000Z</time>
      </trkpt>
      <trkpt lat="43.93995" lon="7.09303">
        <ele>493.39999389648</ele>
        <time>2020-05-27T10:57:08.000Z</time>
      </trkpt>
      <trkpt lat="43.94001" lon="7.09293">
        <ele>493.79998779297</ele>
        <time>2020-05-27T10:57:12.000Z</time>
      </trkpt>
      <trkpt lat="43.94009" lon="7.09277">
        <ele>494.20001220703</ele>
        <time>2020-05-27T10:57:18.000Z</time>
      </trkpt>
      <trkpt lat="43.94019" lon="7.09262">
        <ele>494.60000610352</ele>
        <time>2020-05-27T10:57:25.000Z</time>
      </trkpt>
      <trkpt lat="43.94021" lon="7.0926">
        <ele>494.79998779297</ele>
        <time>2020-05-27T10:57:26.000Z</time>
      </trkpt>
      <trkpt lat="43.94022" lon="7.09258">
        <ele>495.60000610352</ele>
        <time>2020-05-27T10:57:29.000Z</time>
      </trkpt>
      <trkpt lat="43.94023" lon="7.09257">
        <ele>495.60000610352</ele>
        <time>2020-05-27T10:57:31.000Z</time>
      </trkpt>
      <trkpt lat="43.94025" lon="7.09255">
        <ele>495.79998779297</ele>
        <time>2020-05-27T10:57:34.000Z</time>
      </trkpt>
      <trkpt lat="43.94025" lon="7.09255">
        <ele>495.79998779297</ele>
        <time>2020-05-27T10:57:35.000Z</time>
      </trkpt>
      <trkpt lat="43.94025" lon="7.09255">
        <ele>496.20001220703</ele>
        <time>2020-05-27T10:57:39.000Z</time>
      </trkpt>
      <trkpt lat="43.94026" lon="7.09252">
        <ele>496.20001220703</ele>
        <time>2020-05-27T10:57:42.000Z</time>
      </trkpt>
      <trkpt lat="43.94029" lon="7.0925">
        <ele>496.20001220703</ele>
        <time>2020-05-27T10:57:44.000Z</time>
      </trkpt>
      <trkpt lat="43.94033" lon="7.09245">
        <ele>496.60000610352</ele>
        <time>2020-05-27T10:57:48.000Z</time>
      </trkpt>
      <trkpt lat="43.94034" lon="7.09243">
        <ele>496.79998779297</ele>
        <time>2020-05-27T10:57:49.000Z</time>
      </trkpt>
      <trkpt lat="43.94036" lon="7.09241">
        <ele>496.79998779297</ele>
        <time>2020-05-27T10:57:50.000Z</time>
      </trkpt>
      <trkpt lat="43.9404" lon="7.09234">
        <ele>497.39999389648</ele>
        <time>2020-05-27T10:57:54.000Z</time>
      </trkpt>
      <trkpt lat="43.94048" lon="7.0922">
        <ele>497.79998779297</ele>
        <time>2020-05-27T10:58:00.000Z</time>
      </trkpt>
      <trkpt lat="43.94052" lon="7.09214">
        <ele>498.20001220703</ele>
        <time>2020-05-27T10:58:03.000Z</time>
      </trkpt>
      <trkpt lat="43.94058" lon="7.09207">
        <ele>498.60000610352</ele>
        <time>2020-05-27T10:58:07.000Z</time>
      </trkpt>
      <trkpt lat="43.9406" lon="7.09207">
        <ele>499</ele>
        <time>2020-05-27T10:58:08.000Z</time>
      </trkpt>
      <trkpt lat="43.94061" lon="7.09205">
        <ele>498.79998779297</ele>
        <time>2020-05-27T10:58:09.000Z</time>
      </trkpt>
      <trkpt lat="43.94065" lon="7.09202">
        <ele>499</ele>
        <time>2020-05-27T10:58:11.000Z</time>
      </trkpt>
      <trkpt lat="43.94073" lon="7.09198">
        <ele>499.60000610352</ele>
        <time>2020-05-27T10:58:16.000Z</time>
      </trkpt>
      <trkpt lat="43.94076" lon="7.09197">
        <ele>500</ele>
        <time>2020-05-27T10:58:19.000Z</time>
      </trkpt>
      <trkpt lat="43.94082" lon="7.09193">
        <ele>501</ele>
        <time>2020-05-27T10:58:23.000Z</time>
      </trkpt>
      <trkpt lat="43.94088" lon="7.09189">
        <ele>501.79998779297</ele>
        <time>2020-05-27T10:58:28.000Z</time>
      </trkpt>
      <trkpt lat="43.94089" lon="7.09188">
        <ele>502</ele>
        <time>2020-05-27T10:58:29.000Z</time>
      </trkpt>
      <trkpt lat="43.94094" lon="7.09183">
        <ele>503.20001220703</ele>
        <time>2020-05-27T10:58:34.000Z</time>
      </trkpt>
      <trkpt lat="43.94096" lon="7.09174">
        <ele>504.20001220703</ele>
        <time>2020-05-27T10:58:40.000Z</time>
      </trkpt>
      <trkpt lat="43.94097" lon="7.09172">
        <ele>504.39999389648</ele>
        <time>2020-05-27T10:58:41.000Z</time>
      </trkpt>
      <trkpt lat="43.94099" lon="7.09167">
        <ele>505.20001220703</ele>
        <time>2020-05-27T10:58:46.000Z</time>
      </trkpt>
      <trkpt lat="43.941" lon="7.09166">
        <ele>505.20001220703</ele>
        <time>2020-05-27T10:58:47.000Z</time>
      </trkpt>
      <trkpt lat="43.94102" lon="7.09165">
        <ele>505.39999389648</ele>
        <time>2020-05-27T10:58:49.000Z</time>
      </trkpt>
      <trkpt lat="43.94103" lon="7.09163">
        <ele>505.60000610352</ele>
        <time>2020-05-27T10:58:50.000Z</time>
      </trkpt>
      <trkpt lat="43.94104" lon="7.09162">
        <ele>505.79998779297</ele>
        <time>2020-05-27T10:58:51.000Z</time>
      </trkpt>
      <trkpt lat="43.94107" lon="7.09159">
        <ele>506.60000610352</ele>
        <time>2020-05-27T10:58:54.000Z</time>
      </trkpt>
      <trkpt lat="43.94109" lon="7.09157">
        <ele>507.20001220703</ele>
        <time>2020-05-27T10:58:57.000Z</time>
      </trkpt>
      <trkpt lat="43.94113" lon="7.09155">
        <ele>507.79998779297</ele>
        <time>2020-05-27T10:59:00.000Z</time>
      </trkpt>
      <trkpt lat="43.94117" lon="7.09152">
        <ele>508.39999389648</ele>
        <time>2020-05-27T10:59:04.000Z</time>
      </trkpt>
      <trkpt lat="43.94117" lon="7.09152">
        <ele>508.79998779297</ele>
        <time>2020-05-27T10:59:06.000Z</time>
      </trkpt>
      <trkpt lat="43.94117" lon="7.09152">
        <ele>509</ele>
        <time>2020-05-27T10:59:08.000Z</time>
      </trkpt>
      <trkpt lat="43.94122" lon="7.0915">
        <ele>509.39999389648</ele>
        <time>2020-05-27T10:59:14.000Z</time>
      </trkpt>
      <trkpt lat="43.94124" lon="7.09148">
        <ele>509.79998779297</ele>
        <time>2020-05-27T10:59:17.000Z</time>
      </trkpt>
      <trkpt lat="43.94129" lon="7.09147">
        <ele>510.60000610352</ele>
        <time>2020-05-27T10:59:23.000Z</time>
      </trkpt>
      <trkpt lat="43.9413" lon="7.09147">
        <ele>511</ele>
        <time>2020-05-27T10:59:24.000Z</time>
      </trkpt>
      <trkpt lat="43.94136" lon="7.09145">
        <ele>512</ele>
        <time>2020-05-27T10:59:30.000Z</time>
      </trkpt>
      <trkpt lat="43.94143" lon="7.09141">
        <ele>512.79998779297</ele>
        <time>2020-05-27T10:59:38.000Z</time>
      </trkpt>
      <trkpt lat="43.94144" lon="7.0914">
        <ele>513.20001220703</ele>
        <time>2020-05-27T10:59:40.000Z</time>
      </trkpt>
      <trkpt lat="43.94148" lon="7.09135">
        <ele>513.40002441406</ele>
        <time>2020-05-27T10:59:45.000Z</time>
      </trkpt>
      <trkpt lat="43.94149" lon="7.09131">
        <ele>514.20001220703</ele>
        <time>2020-05-27T10:59:49.000Z</time>
      </trkpt>
      <trkpt lat="43.9415" lon="7.09125">
        <ele>515.20001220703</ele>
        <time>2020-05-27T10:59:54.000Z</time>
      </trkpt>
      <trkpt lat="43.9415" lon="7.09118">
        <ele>516.59997558594</ele>
        <time>2020-05-27T11:00:00.000Z</time>
      </trkpt>
      <trkpt lat="43.94151" lon="7.09115">
        <ele>517</ele>
        <time>2020-05-27T11:00:03.000Z</time>
      </trkpt>
      <trkpt lat="43.9415" lon="7.09111">
        <ele>517.59997558594</ele>
        <time>2020-05-27T11:00:06.000Z</time>
      </trkpt>
      <trkpt lat="43.94151" lon="7.09105">
        <ele>518.59997558594</ele>
        <time>2020-05-27T11:00:11.000Z</time>
      </trkpt>
      <trkpt lat="43.94151" lon="7.09103">
        <ele>518.79998779297</ele>
        <time>2020-05-27T11:00:13.000Z</time>
      </trkpt>
      <trkpt lat="43.94153" lon="7.09095">
        <ele>519.59997558594</ele>
        <time>2020-05-27T11:00:20.000Z</time>
      </trkpt>
      <trkpt lat="43.94154" lon="7.09093">
        <ele>519.79998779297</ele>
        <time>2020-05-27T11:00:21.000Z</time>
      </trkpt>
      <trkpt lat="43.94155" lon="7.09086">
        <ele>520.79998779297</ele>
        <time>2020-05-27T11:00:27.000Z</time>
      </trkpt>
      <trkpt lat="43.94156" lon="7.09083">
        <ele>521</ele>
        <time>2020-05-27T11:00:29.000Z</time>
      </trkpt>
      <trkpt lat="43.94158" lon="7.09076">
        <ele>522.20001220703</ele>
        <time>2020-05-27T11:00:35.000Z</time>
      </trkpt>
      <trkpt lat="43.94158" lon="7.09076">
        <ele>522.59997558594</ele>
        <time>2020-05-27T11:00:38.000Z</time>
      </trkpt>
      <trkpt lat="43.9416" lon="7.0907">
        <ele>523</ele>
        <time>2020-05-27T11:00:43.000Z</time>
      </trkpt>
      <trkpt lat="43.94161" lon="7.09067">
        <ele>523.20001220703</ele>
        <time>2020-05-27T11:00:45.000Z</time>
      </trkpt>
      <trkpt lat="43.94165" lon="7.0906">
        <ele>524.20001220703</ele>
        <time>2020-05-27T11:00:50.000Z</time>
      </trkpt>
      <trkpt lat="43.94166" lon="7.09058">
        <ele>524.40002441406</ele>
        <time>2020-05-27T11:00:51.000Z</time>
      </trkpt>
      <trkpt lat="43.94169" lon="7.09051">
        <ele>525.20001220703</ele>
        <time>2020-05-27T11:00:56.000Z</time>
      </trkpt>
      <trkpt lat="43.94169" lon="7.0905">
        <ele>525.40002441406</ele>
        <time>2020-05-27T11:00:57.000Z</time>
      </trkpt>
      <trkpt lat="43.94174" lon="7.09041">
        <ele>526.40002441406</ele>
        <time>2020-05-27T11:01:02.000Z</time>
      </trkpt>
      <trkpt lat="43.94176" lon="7.09039">
        <ele>527.40002441406</ele>
        <time>2020-05-27T11:01:05.000Z</time>
      </trkpt>
      <trkpt lat="43.94176" lon="7.09036">
        <ele>528</ele>
        <time>2020-05-27T11:01:07.000Z</time>
      </trkpt>
      <trkpt lat="43.94177" lon="7.09033">
        <ele>528.40002441406</ele>
        <time>2020-05-27T11:01:10.000Z</time>
      </trkpt>
      <trkpt lat="43.9418" lon="7.09029">
        <ele>528.79998779297</ele>
        <time>2020-05-27T11:01:13.000Z</time>
      </trkpt>
      <trkpt lat="43.94183" lon="7.09024">
        <ele>529.59997558594</ele>
        <time>2020-05-27T11:01:18.000Z</time>
      </trkpt>
      <trkpt lat="43.94185" lon="7.09022">
        <ele>530</ele>
        <time>2020-05-27T11:01:20.000Z</time>
      </trkpt>
      <trkpt lat="43.94189" lon="7.09017">
        <ele>530.59997558594</ele>
        <time>2020-05-27T11:01:25.000Z</time>
      </trkpt>
      <trkpt lat="43.9419" lon="7.09015">
        <ele>531</ele>
        <time>2020-05-27T11:01:27.000Z</time>
      </trkpt>
      <trkpt lat="43.94194" lon="7.09009">
        <ele>531.79998779297</ele>
        <time>2020-05-27T11:01:32.000Z</time>
      </trkpt>
      <trkpt lat="43.94195" lon="7.09008">
        <ele>532.20001220703</ele>
        <time>2020-05-27T11:01:34.000Z</time>
      </trkpt>
      <trkpt lat="43.94198" lon="7.09004">
        <ele>532.79998779297</ele>
        <time>2020-05-27T11:01:38.000Z</time>
      </trkpt>
      <trkpt lat="43.94201" lon="7.08999">
        <ele>533.40002441406</ele>
        <time>2020-05-27T11:01:41.000Z</time>
      </trkpt>
      <trkpt lat="43.94202" lon="7.08997">
        <ele>534</ele>
        <time>2020-05-27T11:01:43.000Z</time>
      </trkpt>
      <trkpt lat="43.94202" lon="7.08992">
        <ele>534.79998779297</ele>
        <time>2020-05-27T11:01:46.000Z</time>
      </trkpt>
      <trkpt lat="43.94203" lon="7.08989">
        <ele>535.20001220703</ele>
        <time>2020-05-27T11:01:48.000Z</time>
      </trkpt>
      <trkpt lat="43.94204" lon="7.08982">
        <ele>536.40002441406</ele>
        <time>2020-05-27T11:01:53.000Z</time>
      </trkpt>
      <trkpt lat="43.94207" lon="7.08973">
        <ele>537.40002441406</ele>
        <time>2020-05-27T11:01:59.000Z</time>
      </trkpt>
      <trkpt lat="43.9421" lon="7.08963">
        <ele>538.59997558594</ele>
        <time>2020-05-27T11:02:06.000Z</time>
      </trkpt>
      <trkpt lat="43.9421" lon="7.0896">
        <ele>539.40002441406</ele>
        <time>2020-05-27T11:02:11.000Z</time>
      </trkpt>
      <trkpt lat="43.94212" lon="7.08957">
        <ele>539.59997558594</ele>
        <time>2020-05-27T11:02:15.000Z</time>
      </trkpt>
      <trkpt lat="43.94213" lon="7.08956">
        <ele>539.79998779297</ele>
        <time>2020-05-27T11:02:17.000Z</time>
      </trkpt>
      <trkpt lat="43.94216" lon="7.08952">
        <ele>540.59997558594</ele>
        <time>2020-05-27T11:02:21.000Z</time>
      </trkpt>
      <trkpt lat="43.94219" lon="7.08948">
        <ele>541.20001220703</ele>
        <time>2020-05-27T11:02:26.000Z</time>
      </trkpt>
      <trkpt lat="43.9422" lon="7.08946">
        <ele>541.59997558594</ele>
        <time>2020-05-27T11:02:28.000Z</time>
      </trkpt>
      <trkpt lat="43.9422" lon="7.08946">
        <ele>542.20001220703</ele>
        <time>2020-05-27T11:02:33.000Z</time>
      </trkpt>
      <trkpt lat="43.9422" lon="7.08944">
        <ele>542.20001220703</ele>
        <time>2020-05-27T11:02:47.000Z</time>
      </trkpt>
      <trkpt lat="43.94223" lon="7.08939">
        <ele>542.40002441406</ele>
        <time>2020-05-27T11:02:57.000Z</time>
      </trkpt>
      <trkpt lat="43.94227" lon="7.08933">
        <ele>542.79998779297</ele>
        <time>2020-05-27T11:03:01.000Z</time>
      </trkpt>
      <trkpt lat="43.94232" lon="7.08926">
        <ele>543.79998779297</ele>
        <time>2020-05-27T11:03:06.000Z</time>
      </trkpt>
      <trkpt lat="43.94235" lon="7.08916">
        <ele>545.20001220703</ele>
        <time>2020-05-27T11:03:11.000Z</time>
      </trkpt>
      <trkpt lat="43.94238" lon="7.08912">
        <ele>546</ele>
        <time>2020-05-27T11:03:14.000Z</time>
      </trkpt>
      <trkpt lat="43.9424" lon="7.0891">
        <ele>546.20001220703</ele>
        <time>2020-05-27T11:03:16.000Z</time>
      </trkpt>
      <trkpt lat="43.94243" lon="7.08905">
        <ele>547</ele>
        <time>2020-05-27T11:03:20.000Z</time>
      </trkpt>
      <trkpt lat="43.94246" lon="7.08903">
        <ele>547.40002441406</ele>
        <time>2020-05-27T11:03:22.000Z</time>
      </trkpt>
      <trkpt lat="43.94247" lon="7.08902">
        <ele>547.59997558594</ele>
        <time>2020-05-27T11:03:23.000Z</time>
      </trkpt>
      <trkpt lat="43.94249" lon="7.08901">
        <ele>548</ele>
        <time>2020-05-27T11:03:25.000Z</time>
      </trkpt>
      <trkpt lat="43.94251" lon="7.08899">
        <ele>548.59997558594</ele>
        <time>2020-05-27T11:03:27.000Z</time>
      </trkpt>
      <trkpt lat="43.94255" lon="7.08895">
        <ele>549.20001220703</ele>
        <time>2020-05-27T11:03:31.000Z</time>
      </trkpt>
      <trkpt lat="43.94257" lon="7.08893">
        <ele>549.59997558594</ele>
        <time>2020-05-27T11:03:33.000Z</time>
      </trkpt>
      <trkpt lat="43.94261" lon="7.0889">
        <ele>550.40002441406</ele>
        <time>2020-05-27T11:03:37.000Z</time>
      </trkpt>
      <trkpt lat="43.94262" lon="7.08889">
        <ele>550.79998779297</ele>
        <time>2020-05-27T11:03:38.000Z</time>
      </trkpt>
      <trkpt lat="43.94266" lon="7.08882">
        <ele>552</ele>
        <time>2020-05-27T11:03:44.000Z</time>
      </trkpt>
      <trkpt lat="43.94273" lon="7.08875">
        <ele>553.20001220703</ele>
        <time>2020-05-27T11:03:51.000Z</time>
      </trkpt>
      <trkpt lat="43.94275" lon="7.08872">
        <ele>554.20001220703</ele>
        <time>2020-05-27T11:03:56.000Z</time>
      </trkpt>
      <trkpt lat="43.94274" lon="7.08873">
        <ele>554.20001220703</ele>
        <time>2020-05-27T11:03:57.000Z</time>
      </trkpt>
      <trkpt lat="43.94278" lon="7.08867">
        <ele>555</ele>
        <time>2020-05-27T11:04:02.000Z</time>
      </trkpt>
      <trkpt lat="43.94279" lon="7.08865">
        <ele>555.20001220703</ele>
        <time>2020-05-27T11:04:04.000Z</time>
      </trkpt>
      <trkpt lat="43.94281" lon="7.08862">
        <ele>556</ele>
        <time>2020-05-27T11:04:10.000Z</time>
      </trkpt>
      <trkpt lat="43.94281" lon="7.08862">
        <ele>556.20001220703</ele>
        <time>2020-05-27T11:04:13.000Z</time>
      </trkpt>
      <trkpt lat="43.94281" lon="7.08861">
        <ele>556.20001220703</ele>
        <time>2020-05-27T11:04:21.000Z</time>
      </trkpt>
      <trkpt lat="43.94284" lon="7.08857">
        <ele>556.20001220703</ele>
        <time>2020-05-27T11:04:31.000Z</time>
      </trkpt>
      <trkpt lat="43.9429" lon="7.08849">
        <ele>557.40002441406</ele>
        <time>2020-05-27T11:04:38.000Z</time>
      </trkpt>
      <trkpt lat="43.94292" lon="7.08848">
        <ele>557.59997558594</ele>
        <time>2020-05-27T11:04:39.000Z</time>
      </trkpt>
      <trkpt lat="43.94295" lon="7.08843">
        <ele>558.40002441406</ele>
        <time>2020-05-27T11:04:43.000Z</time>
      </trkpt>
      <trkpt lat="43.94297" lon="7.0884">
        <ele>558.79998779297</ele>
        <time>2020-05-27T11:04:45.000Z</time>
      </trkpt>
      <trkpt lat="43.94299" lon="7.08837">
        <ele>559.40002441406</ele>
        <time>2020-05-27T11:04:48.000Z</time>
      </trkpt>
      <trkpt lat="43.943" lon="7.08836">
        <ele>559.59997558594</ele>
        <time>2020-05-27T11:04:49.000Z</time>
      </trkpt>
      <trkpt lat="43.94304" lon="7.0883">
        <ele>560.59997558594</ele>
        <time>2020-05-27T11:04:54.000Z</time>
      </trkpt>
      <trkpt lat="43.94306" lon="7.08827">
        <ele>561</ele>
        <time>2020-05-27T11:04:56.000Z</time>
      </trkpt>
      <trkpt lat="43.94307" lon="7.08825">
        <ele>561.59997558594</ele>
        <time>2020-05-27T11:04:59.000Z</time>
      </trkpt>
      <trkpt lat="43.94308" lon="7.08823">
        <ele>561.79998779297</ele>
        <time>2020-05-27T11:05:01.000Z</time>
      </trkpt>
      <trkpt lat="43.94311" lon="7.08818">
        <ele>562.59997558594</ele>
        <time>2020-05-27T11:05:07.000Z</time>
      </trkpt>
      <trkpt lat="43.94311" lon="7.08817">
        <ele>562.59997558594</ele>
        <time>2020-05-27T11:05:08.000Z</time>
      </trkpt>
      <trkpt lat="43.94315" lon="7.08811">
        <ele>563.59997558594</ele>
        <time>2020-05-27T11:05:14.000Z</time>
      </trkpt>
      <trkpt lat="43.94315" lon="7.0881">
        <ele>563.79998779297</ele>
        <time>2020-05-27T11:05:15.000Z</time>
      </trkpt>
      <trkpt lat="43.9432" lon="7.08804">
        <ele>565</ele>
        <time>2020-05-27T11:05:22.000Z</time>
      </trkpt>
      <trkpt lat="43.94326" lon="7.08796">
        <ele>566</ele>
        <time>2020-05-27T11:05:30.000Z</time>
      </trkpt>
      <trkpt lat="43.94327" lon="7.08795">
        <ele>566.20001220703</ele>
        <time>2020-05-27T11:05:31.000Z</time>
      </trkpt>
      <trkpt lat="43.94331" lon="7.08791">
        <ele>567</ele>
        <time>2020-05-27T11:05:36.000Z</time>
      </trkpt>
      <trkpt lat="43.94333" lon="7.08788">
        <ele>567.40002441406</ele>
        <time>2020-05-27T11:05:39.000Z</time>
      </trkpt>
      <trkpt lat="43.94336" lon="7.08785">
        <ele>568</ele>
        <time>2020-05-27T11:05:43.000Z</time>
      </trkpt>
      <trkpt lat="43.9434" lon="7.08781">
        <ele>568.59997558594</ele>
        <time>2020-05-27T11:05:48.000Z</time>
      </trkpt>
      <trkpt lat="43.94343" lon="7.08779">
        <ele>569.20001220703</ele>
        <time>2020-05-27T11:05:52.000Z</time>
      </trkpt>
      <trkpt lat="43.94344" lon="7.08778">
        <ele>569.59997558594</ele>
        <time>2020-05-27T11:05:54.000Z</time>
      </trkpt>
      <trkpt lat="43.94346" lon="7.08776">
        <ele>570.40002441406</ele>
        <time>2020-05-27T11:05:56.000Z</time>
      </trkpt>
      <trkpt lat="43.94349" lon="7.08772">
        <ele>571.20001220703</ele>
        <time>2020-05-27T11:06:02.000Z</time>
      </trkpt>
      <trkpt lat="43.9435" lon="7.08771">
        <ele>571.40002441406</ele>
        <time>2020-05-27T11:06:03.000Z</time>
      </trkpt>
      <trkpt lat="43.94354" lon="7.08767">
        <ele>572.59997558594</ele>
        <time>2020-05-27T11:06:09.000Z</time>
      </trkpt>
      <trkpt lat="43.94355" lon="7.08767">
        <ele>572.79998779297</ele>
        <time>2020-05-27T11:06:10.000Z</time>
      </trkpt>
      <trkpt lat="43.94361" lon="7.08764">
        <ele>573.59997558594</ele>
        <time>2020-05-27T11:06:17.000Z</time>
      </trkpt>
      <trkpt lat="43.9436" lon="7.08764">
        <ele>573.79998779297</ele>
        <time>2020-05-27T11:06:18.000Z</time>
      </trkpt>
      <trkpt lat="43.94362" lon="7.08763">
        <ele>574.20001220703</ele>
        <time>2020-05-27T11:06:23.000Z</time>
      </trkpt>
      <trkpt lat="43.94363" lon="7.08762">
        <ele>574.20001220703</ele>
        <time>2020-05-27T11:06:24.000Z</time>
      </trkpt>
      <trkpt lat="43.94372" lon="7.08756">
        <ele>574.59997558594</ele>
        <time>2020-05-27T11:06:31.000Z</time>
      </trkpt>
      <trkpt lat="43.94373" lon="7.08755">
        <ele>574.59997558594</ele>
        <time>2020-05-27T11:06:32.000Z</time>
      </trkpt>
      <trkpt lat="43.94378" lon="7.08751">
        <ele>575.79998779297</ele>
        <time>2020-05-27T11:06:36.000Z</time>
      </trkpt>
      <trkpt lat="43.9438" lon="7.08748">
        <ele>576.20001220703</ele>
        <time>2020-05-27T11:06:38.000Z</time>
      </trkpt>
      <trkpt lat="43.94385" lon="7.08742">
        <ele>577.20001220703</ele>
        <time>2020-05-27T11:06:43.000Z</time>
      </trkpt>
      <trkpt lat="43.94386" lon="7.08741">
        <ele>577.40002441406</ele>
        <time>2020-05-27T11:06:44.000Z</time>
      </trkpt>
      <trkpt lat="43.94388" lon="7.08736">
        <ele>578.20001220703</ele>
        <time>2020-05-27T11:06:47.000Z</time>
      </trkpt>
      <trkpt lat="43.9439" lon="7.08734">
        <ele>578.59997558594</ele>
        <time>2020-05-27T11:06:49.000Z</time>
      </trkpt>
      <trkpt lat="43.94392" lon="7.08725">
        <ele>579.40002441406</ele>
        <time>2020-05-27T11:06:55.000Z</time>
      </trkpt>
      <trkpt lat="43.94392" lon="7.08716">
        <ele>580.40002441406</ele>
        <time>2020-05-27T11:07:00.000Z</time>
      </trkpt>
      <trkpt lat="43.94392" lon="7.08714">
        <ele>580.79998779297</ele>
        <time>2020-05-27T11:07:01.000Z</time>
      </trkpt>
      <trkpt lat="43.94393" lon="7.08706">
        <ele>581.40002441406</ele>
        <time>2020-05-27T11:07:05.000Z</time>
      </trkpt>
      <trkpt lat="43.94393" lon="7.08704">
        <ele>581.79998779297</ele>
        <time>2020-05-27T11:07:07.000Z</time>
      </trkpt>
      <trkpt lat="43.94393" lon="7.08704">
        <ele>582.59997558594</ele>
        <time>2020-05-27T11:07:10.000Z</time>
      </trkpt>
      <trkpt lat="43.94393" lon="7.08703">
        <ele>582.79998779297</ele>
        <time>2020-05-27T11:07:12.000Z</time>
      </trkpt>
      <trkpt lat="43.94393" lon="7.08697">
        <ele>583.40002441406</ele>
        <time>2020-05-27T11:07:18.000Z</time>
      </trkpt>
      <trkpt lat="43.94393" lon="7.08696">
        <ele>583.59997558594</ele>
        <time>2020-05-27T11:07:19.000Z</time>
      </trkpt>
      <trkpt lat="43.94392" lon="7.08685">
        <ele>584.79998779297</ele>
        <time>2020-05-27T11:07:27.000Z</time>
      </trkpt>
      <trkpt lat="43.9439" lon="7.08672">
        <ele>585.79998779297</ele>
        <time>2020-05-27T11:07:37.000Z</time>
      </trkpt>
      <trkpt lat="43.94391" lon="7.08663">
        <ele>586.79998779297</ele>
        <time>2020-05-27T11:07:44.000Z</time>
      </trkpt>
      <trkpt lat="43.94392" lon="7.08662">
        <ele>587</ele>
        <time>2020-05-27T11:07:45.000Z</time>
      </trkpt>
      <trkpt lat="43.94393" lon="7.08658">
        <ele>587.79998779297</ele>
        <time>2020-05-27T11:07:49.000Z</time>
      </trkpt>
      <trkpt lat="43.94397" lon="7.08652">
        <ele>588.59997558594</ele>
        <time>2020-05-27T11:07:55.000Z</time>
      </trkpt>
      <trkpt lat="43.94398" lon="7.08651">
        <ele>589</ele>
        <time>2020-05-27T11:07:58.000Z</time>
      </trkpt>
      <trkpt lat="43.94399" lon="7.08649">
        <ele>589</ele>
        <time>2020-05-27T11:07:59.000Z</time>
      </trkpt>
      <trkpt lat="43.94399" lon="7.08649">
        <ele>589</ele>
        <time>2020-05-27T11:08:00.000Z</time>
      </trkpt>
      <trkpt lat="43.94401" lon="7.08643">
        <ele>589.79998779297</ele>
        <time>2020-05-27T11:08:06.000Z</time>
      </trkpt>
      <trkpt lat="43.94402" lon="7.08641">
        <ele>590.20001220703</ele>
        <time>2020-05-27T11:08:08.000Z</time>
      </trkpt>
      <trkpt lat="43.94403" lon="7.08635">
        <ele>591</ele>
        <time>2020-05-27T11:08:13.000Z</time>
      </trkpt>
      <trkpt lat="43.94404" lon="7.08634">
        <ele>591.20001220703</ele>
        <time>2020-05-27T11:08:14.000Z</time>
      </trkpt>
      <trkpt lat="43.94407" lon="7.08628">
        <ele>592.20001220703</ele>
        <time>2020-05-27T11:08:20.000Z</time>
      </trkpt>
      <trkpt lat="43.94409" lon="7.08626">
        <ele>592.59997558594</ele>
        <time>2020-05-27T11:08:22.000Z</time>
      </trkpt>
      <trkpt lat="43.94411" lon="7.0862">
        <ele>593.20001220703</ele>
        <time>2020-05-27T11:08:28.000Z</time>
      </trkpt>
      <trkpt lat="43.94412" lon="7.08618">
        <ele>593.59997558594</ele>
        <time>2020-05-27T11:08:30.000Z</time>
      </trkpt>
      <trkpt lat="43.94414" lon="7.0861">
        <ele>594.40002441406</ele>
        <time>2020-05-27T11:08:37.000Z</time>
      </trkpt>
      <trkpt lat="43.94415" lon="7.08602">
        <ele>595.40002441406</ele>
        <time>2020-05-27T11:08:44.000Z</time>
      </trkpt>
      <trkpt lat="43.94416" lon="7.086">
        <ele>595.79998779297</ele>
        <time>2020-05-27T11:08:46.000Z</time>
      </trkpt>
      <trkpt lat="43.94417" lon="7.08597">
        <ele>596.40002441406</ele>
        <time>2020-05-27T11:08:49.000Z</time>
      </trkpt>
      <trkpt lat="43.9442" lon="7.08593">
        <ele>597.20001220703</ele>
        <time>2020-05-27T11:08:54.000Z</time>
      </trkpt>
      <trkpt lat="43.94421" lon="7.08589">
        <ele>597.40002441406</ele>
        <time>2020-05-27T11:08:58.000Z</time>
      </trkpt>
      <trkpt lat="43.94423" lon="7.08583">
        <ele>598.20001220703</ele>
        <time>2020-05-27T11:09:03.000Z</time>
      </trkpt>
      <trkpt lat="43.94424" lon="7.08581">
        <ele>598.59997558594</ele>
        <time>2020-05-27T11:09:05.000Z</time>
      </trkpt>
      <trkpt lat="43.94427" lon="7.08574">
        <ele>599.59997558594</ele>
        <time>2020-05-27T11:09:12.000Z</time>
      </trkpt>
      <trkpt lat="43.9443" lon="7.08566">
        <ele>600.59997558594</ele>
        <time>2020-05-27T11:09:19.000Z</time>
      </trkpt>
      <trkpt lat="43.94431" lon="7.08564">
        <ele>601</ele>
        <time>2020-05-27T11:09:21.000Z</time>
      </trkpt>
      <trkpt lat="43.94434" lon="7.08558">
        <ele>601.79998779297</ele>
        <time>2020-05-27T11:09:27.000Z</time>
      </trkpt>
      <trkpt lat="43.94435" lon="7.08553">
        <ele>602.40002441406</ele>
        <time>2020-05-27T11:09:31.000Z</time>
      </trkpt>
      <trkpt lat="43.94436" lon="7.08552">
        <ele>602.79998779297</ele>
        <time>2020-05-27T11:09:33.000Z</time>
      </trkpt>
      <trkpt lat="43.94438" lon="7.08547">
        <ele>603.59997558594</ele>
        <time>2020-05-27T11:09:38.000Z</time>
      </trkpt>
      <trkpt lat="43.94439" lon="7.08546">
        <ele>603.79998779297</ele>
        <time>2020-05-27T11:09:39.000Z</time>
      </trkpt>
      <trkpt lat="43.94442" lon="7.08536">
        <ele>604.79998779297</ele>
        <time>2020-05-27T11:09:48.000Z</time>
      </trkpt>
      <trkpt lat="43.94444" lon="7.08535">
        <ele>605</ele>
        <time>2020-05-27T11:09:50.000Z</time>
      </trkpt>
      <trkpt lat="43.94445" lon="7.08536">
        <ele>605.40002441406</ele>
        <time>2020-05-27T11:09:52.000Z</time>
      </trkpt>
      <trkpt lat="43.94445" lon="7.08539">
        <ele>605.59997558594</ele>
        <time>2020-05-27T11:09:54.000Z</time>
      </trkpt>
      <trkpt lat="43.94444" lon="7.08541">
        <ele>606.40002441406</ele>
        <time>2020-05-27T11:09:56.000Z</time>
      </trkpt>
      <trkpt lat="43.94444" lon="7.08542">
        <ele>606.79998779297</ele>
        <time>2020-05-27T11:10:00.000Z</time>
      </trkpt>
      <trkpt lat="43.94441" lon="7.08551">
        <ele>606.20001220703</ele>
        <time>2020-05-27T11:10:05.000Z</time>
      </trkpt>
      <trkpt lat="43.9444" lon="7.08553">
        <ele>606.20001220703</ele>
        <time>2020-05-27T11:10:06.000Z</time>
      </trkpt>
      <trkpt lat="43.94437" lon="7.08568">
        <ele>606.40002441406</ele>
        <time>2020-05-27T11:10:13.000Z</time>
      </trkpt>
      <trkpt lat="43.94433" lon="7.08588">
        <ele>606.20001220703</ele>
        <time>2020-05-27T11:10:21.000Z</time>
      </trkpt>
      <trkpt lat="43.94428" lon="7.08608">
        <ele>606.79998779297</ele>
        <time>2020-05-27T11:10:29.000Z</time>
      </trkpt>
      <trkpt lat="43.94427" lon="7.08619">
        <ele>607.59997558594</ele>
        <time>2020-05-27T11:10:34.000Z</time>
      </trkpt>
      <trkpt lat="43.94425" lon="7.08626">
        <ele>607.59997558594</ele>
        <time>2020-05-27T11:10:37.000Z</time>
      </trkpt>
      <trkpt lat="43.94424" lon="7.08638">
        <ele>608.20001220703</ele>
        <time>2020-05-27T11:10:42.000Z</time>
      </trkpt>
      <trkpt lat="43.94424" lon="7.08656">
        <ele>608.59997558594</ele>
        <time>2020-05-27T11:10:49.000Z</time>
      </trkpt>
      <trkpt lat="43.94424" lon="7.08659">
        <ele>608.79998779297</ele>
        <time>2020-05-27T11:10:50.000Z</time>
      </trkpt>
      <trkpt lat="43.94423" lon="7.08678">
        <ele>609.59997558594</ele>
        <time>2020-05-27T11:10:57.000Z</time>
      </trkpt>
      <trkpt lat="43.94426" lon="7.08696">
        <ele>610.59997558594</ele>
        <time>2020-05-27T11:11:04.000Z</time>
      </trkpt>
      <trkpt lat="43.94427" lon="7.08702">
        <ele>610.79998779297</ele>
        <time>2020-05-27T11:11:06.000Z</time>
      </trkpt>
      <trkpt lat="43.94432" lon="7.08719">
        <ele>612</ele>
        <time>2020-05-27T11:11:13.000Z</time>
      </trkpt>
      <trkpt lat="43.94433" lon="7.08721">
        <ele>612</ele>
        <time>2020-05-27T11:11:14.000Z</time>
      </trkpt>
      <trkpt lat="43.94435" lon="7.08736">
        <ele>612.40002441406</ele>
        <time>2020-05-27T11:11:20.000Z</time>
      </trkpt>
      <trkpt lat="43.94435" lon="7.08748">
        <ele>613</ele>
        <time>2020-05-27T11:11:25.000Z</time>
      </trkpt>
      <trkpt lat="43.94435" lon="7.08752">
        <ele>613.20001220703</ele>
        <time>2020-05-27T11:11:27.000Z</time>
      </trkpt>
      <trkpt lat="43.94435" lon="7.08754">
        <ele>613.59997558594</ele>
        <time>2020-05-27T11:11:29.000Z</time>
      </trkpt>
      <trkpt lat="43.94437" lon="7.08753">
        <ele>614</ele>
        <time>2020-05-27T11:11:31.000Z</time>
      </trkpt>
      <trkpt lat="43.94438" lon="7.08751">
        <ele>614</ele>
        <time>2020-05-27T11:11:32.000Z</time>
      </trkpt>
      <trkpt lat="43.94438" lon="7.08745">
        <ele>615</ele>
        <time>2020-05-27T11:11:36.000Z</time>
      </trkpt>
      <trkpt lat="43.94438" lon="7.08743">
        <ele>615.20001220703</ele>
        <time>2020-05-27T11:11:37.000Z</time>
      </trkpt>
      <trkpt lat="43.9444" lon="7.08736">
        <ele>616.20001220703</ele>
        <time>2020-05-27T11:11:42.000Z</time>
      </trkpt>
      <trkpt lat="43.9444" lon="7.08735">
        <ele>616.40002441406</ele>
        <time>2020-05-27T11:11:43.000Z</time>
      </trkpt>
      <trkpt lat="43.94441" lon="7.08733">
        <ele>617.40002441406</ele>
        <time>2020-05-27T11:11:48.000Z</time>
      </trkpt>
      <trkpt lat="43.94441" lon="7.08733">
        <ele>617.40002441406</ele>
        <time>2020-05-27T11:11:49.000Z</time>
      </trkpt>
      <trkpt lat="43.94441" lon="7.08733">
        <ele>617.59997558594</ele>
        <time>2020-05-27T11:12:02.000Z</time>
      </trkpt>
      <trkpt lat="43.94441" lon="7.0873">
        <ele>617.40002441406</ele>
        <time>2020-05-27T11:12:05.000Z</time>
      </trkpt>
      <trkpt lat="43.94442" lon="7.08725">
        <ele>617.59997558594</ele>
        <time>2020-05-27T11:12:08.000Z</time>
      </trkpt>
      <trkpt lat="43.94441" lon="7.08714">
        <ele>618.59997558594</ele>
        <time>2020-05-27T11:12:14.000Z</time>
      </trkpt>
      <trkpt lat="43.94441" lon="7.08713">
        <ele>619.20001220703</ele>
        <time>2020-05-27T11:12:15.000Z</time>
      </trkpt>
      <trkpt lat="43.94441" lon="7.08707">
        <ele>619.59997558594</ele>
        <time>2020-05-27T11:12:18.000Z</time>
      </trkpt>
      <trkpt lat="43.94441" lon="7.08697">
        <ele>620.20001220703</ele>
        <time>2020-05-27T11:12:23.000Z</time>
      </trkpt>
      <trkpt lat="43.94441" lon="7.08692">
        <ele>620.79998779297</ele>
        <time>2020-05-27T11:12:25.000Z</time>
      </trkpt>
      <trkpt lat="43.9444" lon="7.08684">
        <ele>621.79998779297</ele>
        <time>2020-05-27T11:12:29.000Z</time>
      </trkpt>
      <trkpt lat="43.9444" lon="7.08684">
        <ele>622.20001220703</ele>
        <time>2020-05-27T11:12:31.000Z</time>
      </trkpt>
      <trkpt lat="43.94441" lon="7.0868">
        <ele>622.79998779297</ele>
        <time>2020-05-27T11:12:35.000Z</time>
      </trkpt>
      <trkpt lat="43.94442" lon="7.08676">
        <ele>623.20001220703</ele>
        <time>2020-05-27T11:12:38.000Z</time>
      </trkpt>
      <trkpt lat="43.94442" lon="7.08675">
        <ele>623.79998779297</ele>
        <time>2020-05-27T11:12:40.000Z</time>
      </trkpt>
      <trkpt lat="43.94443" lon="7.08668">
        <ele>624.59997558594</ele>
        <time>2020-05-27T11:12:45.000Z</time>
      </trkpt>
      <trkpt lat="43.94443" lon="7.08667">
        <ele>624.79998779297</ele>
        <time>2020-05-27T11:12:46.000Z</time>
      </trkpt>
      <trkpt lat="43.94446" lon="7.08659">
        <ele>625.79998779297</ele>
        <time>2020-05-27T11:12:53.000Z</time>
      </trkpt>
      <trkpt lat="43.94446" lon="7.08658">
        <ele>626</ele>
        <time>2020-05-27T11:12:54.000Z</time>
      </trkpt>
      <trkpt lat="43.94448" lon="7.0865">
        <ele>626.59997558594</ele>
        <time>2020-05-27T11:13:01.000Z</time>
      </trkpt>
      <trkpt lat="43.94448" lon="7.08648">
        <ele>627</ele>
        <time>2020-05-27T11:13:03.000Z</time>
      </trkpt>
      <trkpt lat="43.9445" lon="7.08641">
        <ele>627.79998779297</ele>
        <time>2020-05-27T11:13:09.000Z</time>
      </trkpt>
      <trkpt lat="43.9445" lon="7.0864">
        <ele>628</ele>
        <time>2020-05-27T11:13:10.000Z</time>
      </trkpt>
      <trkpt lat="43.94453" lon="7.08632">
        <ele>629</ele>
        <time>2020-05-27T11:13:17.000Z</time>
      </trkpt>
      <trkpt lat="43.94453" lon="7.08631">
        <ele>629.20001220703</ele>
        <time>2020-05-27T11:13:18.000Z</time>
      </trkpt>
      <trkpt lat="43.94454" lon="7.08629">
        <ele>630</ele>
        <time>2020-05-27T11:13:23.000Z</time>
      </trkpt>
      <trkpt lat="43.94454" lon="7.08628">
        <ele>630</ele>
        <time>2020-05-27T11:13:26.000Z</time>
      </trkpt>
      <trkpt lat="43.94456" lon="7.08623">
        <ele>629.79998779297</ele>
        <time>2020-05-27T11:13:29.000Z</time>
      </trkpt>
      <trkpt lat="43.94458" lon="7.08619">
        <ele>630.40002441406</ele>
        <time>2020-05-27T11:13:32.000Z</time>
      </trkpt>
      <trkpt lat="43.94461" lon="7.08612">
        <ele>631.20001220703</ele>
        <time>2020-05-27T11:13:37.000Z</time>
      </trkpt>
      <trkpt lat="43.94462" lon="7.08609">
        <ele>631.59997558594</ele>
        <time>2020-05-27T11:13:39.000Z</time>
      </trkpt>
      <trkpt lat="43.94462" lon="7.08608">
        <ele>631.59997558594</ele>
        <time>2020-05-27T11:13:40.000Z</time>
      </trkpt>
      <trkpt lat="43.94463" lon="7.08604">
        <ele>632.20001220703</ele>
        <time>2020-05-27T11:13:42.000Z</time>
      </trkpt>
      <trkpt lat="43.94464" lon="7.08603">
        <ele>632.40002441406</ele>
        <time>2020-05-27T11:13:43.000Z</time>
      </trkpt>
      <trkpt lat="43.94464" lon="7.086">
        <ele>632.79998779297</ele>
        <time>2020-05-27T11:13:45.000Z</time>
      </trkpt>
      <trkpt lat="43.94468" lon="7.0859">
        <ele>633.59997558594</ele>
        <time>2020-05-27T11:13:51.000Z</time>
      </trkpt>
      <trkpt lat="43.94468" lon="7.08589">
        <ele>634</ele>
        <time>2020-05-27T11:13:52.000Z</time>
      </trkpt>
      <trkpt lat="43.94472" lon="7.0858">
        <ele>635.20001220703</ele>
        <time>2020-05-27T11:13:58.000Z</time>
      </trkpt>
      <trkpt lat="43.94473" lon="7.08574">
        <ele>636</ele>
        <time>2020-05-27T11:14:02.000Z</time>
      </trkpt>
      <trkpt lat="43.94473" lon="7.08572">
        <ele>636.20001220703</ele>
        <time>2020-05-27T11:14:03.000Z</time>
      </trkpt>
      <trkpt lat="43.94474" lon="7.08571">
        <ele>636.59997558594</ele>
        <time>2020-05-27T11:14:04.000Z</time>
      </trkpt>
      <trkpt lat="43.94476" lon="7.08564">
        <ele>637.40002441406</ele>
        <time>2020-05-27T11:14:08.000Z</time>
      </trkpt>
      <trkpt lat="43.94478" lon="7.08558">
        <ele>638</ele>
        <time>2020-05-27T11:14:11.000Z</time>
      </trkpt>
      <trkpt lat="43.94478" lon="7.08556">
        <ele>638.40002441406</ele>
        <time>2020-05-27T11:14:13.000Z</time>
      </trkpt>
      <trkpt lat="43.94481" lon="7.0855">
        <ele>639.20001220703</ele>
        <time>2020-05-27T11:14:17.000Z</time>
      </trkpt>
      <trkpt lat="43.94482" lon="7.08547">
        <ele>639.40002441406</ele>
        <time>2020-05-27T11:14:19.000Z</time>
      </trkpt>
      <trkpt lat="43.94482" lon="7.08541">
        <ele>640</ele>
        <time>2020-05-27T11:14:23.000Z</time>
      </trkpt>
      <trkpt lat="43.94482" lon="7.08538">
        <ele>640.40002441406</ele>
        <time>2020-05-27T11:14:25.000Z</time>
      </trkpt>
      <trkpt lat="43.94483" lon="7.08536">
        <ele>640.79998779297</ele>
        <time>2020-05-27T11:14:26.000Z</time>
      </trkpt>
      <trkpt lat="43.94484" lon="7.08534">
        <ele>641.20001220703</ele>
        <time>2020-05-27T11:14:28.000Z</time>
      </trkpt>
      <trkpt lat="43.94485" lon="7.08532">
        <ele>641.59997558594</ele>
        <time>2020-05-27T11:14:30.000Z</time>
      </trkpt>
      <trkpt lat="43.94486" lon="7.0853">
        <ele>642.20001220703</ele>
        <time>2020-05-27T11:14:34.000Z</time>
      </trkpt>
      <trkpt lat="43.94487" lon="7.08523">
        <ele>642.79998779297</ele>
        <time>2020-05-27T11:14:41.000Z</time>
      </trkpt>
      <trkpt lat="43.94487" lon="7.08521">
        <ele>643.40002441406</ele>
        <time>2020-05-27T11:14:44.000Z</time>
      </trkpt>
      <trkpt lat="43.94488" lon="7.08518">
        <ele>643.79998779297</ele>
        <time>2020-05-27T11:14:46.000Z</time>
      </trkpt>
      <trkpt lat="43.94488" lon="7.08517">
        <ele>643.79998779297</ele>
        <time>2020-05-27T11:14:48.000Z</time>
      </trkpt>
      <trkpt lat="43.94489" lon="7.08511">
        <ele>644.59997558594</ele>
        <time>2020-05-27T11:14:54.000Z</time>
      </trkpt>
      <trkpt lat="43.9449" lon="7.08509">
        <ele>644.79998779297</ele>
        <time>2020-05-27T11:14:55.000Z</time>
      </trkpt>
      <trkpt lat="43.94491" lon="7.08503">
        <ele>645.59997558594</ele>
        <time>2020-05-27T11:15:01.000Z</time>
      </trkpt>
      <trkpt lat="43.94491" lon="7.085">
        <ele>646</ele>
        <time>2020-05-27T11:15:04.000Z</time>
      </trkpt>
      <trkpt lat="43.94492" lon="7.08493">
        <ele>646.79998779297</ele>
        <time>2020-05-27T11:15:10.000Z</time>
      </trkpt>
      <trkpt lat="43.94492" lon="7.08491">
        <ele>647</ele>
        <time>2020-05-27T11:15:11.000Z</time>
      </trkpt>
      <trkpt lat="43.94492" lon="7.0849">
        <ele>647</ele>
        <time>2020-05-27T11:15:12.000Z</time>
      </trkpt>
      <trkpt lat="43.94494" lon="7.08483">
        <ele>648.20001220703</ele>
        <time>2020-05-27T11:15:18.000Z</time>
      </trkpt>
      <trkpt lat="43.94496" lon="7.08473">
        <ele>649.40002441406</ele>
        <time>2020-05-27T11:15:26.000Z</time>
      </trkpt>
      <trkpt lat="43.94496" lon="7.0847">
        <ele>649.40002441406</ele>
        <time>2020-05-27T11:15:28.000Z</time>
      </trkpt>
      <trkpt lat="43.94497" lon="7.08464">
        <ele>650.40002441406</ele>
        <time>2020-05-27T11:15:33.000Z</time>
      </trkpt>
      <trkpt lat="43.94497" lon="7.08459">
        <ele>650.79998779297</ele>
        <time>2020-05-27T11:15:37.000Z</time>
      </trkpt>
      <trkpt lat="43.94497" lon="7.08453">
        <ele>651.40002441406</ele>
        <time>2020-05-27T11:15:42.000Z</time>
      </trkpt>
      <trkpt lat="43.94497" lon="7.08447">
        <ele>652.40002441406</ele>
        <time>2020-05-27T11:15:46.000Z</time>
      </trkpt>
      <trkpt lat="43.94497" lon="7.08446">
        <ele>652.59997558594</ele>
        <time>2020-05-27T11:15:47.000Z</time>
      </trkpt>
      <trkpt lat="43.945" lon="7.08439">
        <ele>653.40002441406</ele>
        <time>2020-05-27T11:15:53.000Z</time>
      </trkpt>
      <trkpt lat="43.94501" lon="7.08438">
        <ele>653.59997558594</ele>
        <time>2020-05-27T11:15:55.000Z</time>
      </trkpt>
      <trkpt lat="43.94505" lon="7.08435">
        <ele>654.59997558594</ele>
        <time>2020-05-27T11:16:01.000Z</time>
      </trkpt>
      <trkpt lat="43.94506" lon="7.08435">
        <ele>654.59997558594</ele>
        <time>2020-05-27T11:16:02.000Z</time>
      </trkpt>
      <trkpt lat="43.94506" lon="7.08435">
        <ele>655</ele>
        <time>2020-05-27T11:16:07.000Z</time>
      </trkpt>
      <trkpt lat="43.9451" lon="7.08436">
        <ele>655.20001220703</ele>
        <time>2020-05-27T11:16:14.000Z</time>
      </trkpt>
      <trkpt lat="43.94512" lon="7.08436">
        <ele>655.20001220703</ele>
        <time>2020-05-27T11:16:15.000Z</time>
      </trkpt>
      <trkpt lat="43.94519" lon="7.08437">
        <ele>655.59997558594</ele>
        <time>2020-05-27T11:16:20.000Z</time>
      </trkpt>
      <trkpt lat="43.9452" lon="7.08438">
        <ele>655.79998779297</ele>
        <time>2020-05-27T11:16:21.000Z</time>
      </trkpt>
      <trkpt lat="43.94525" lon="7.08438">
        <ele>656.79998779297</ele>
        <time>2020-05-27T11:16:25.000Z</time>
      </trkpt>
      <trkpt lat="43.94526" lon="7.08438">
        <ele>657</ele>
        <time>2020-05-27T11:16:26.000Z</time>
      </trkpt>
      <trkpt lat="43.94534" lon="7.08438">
        <ele>657.79998779297</ele>
        <time>2020-05-27T11:16:32.000Z</time>
      </trkpt>
      <trkpt lat="43.94535" lon="7.08438">
        <ele>657.79998779297</ele>
        <time>2020-05-27T11:16:33.000Z</time>
      </trkpt>
      <trkpt lat="43.94541" lon="7.08439">
        <ele>659</ele>
        <time>2020-05-27T11:16:38.000Z</time>
      </trkpt>
      <trkpt lat="43.94543" lon="7.08439">
        <ele>659</ele>
        <time>2020-05-27T11:16:39.000Z</time>
      </trkpt>
      <trkpt lat="43.94549" lon="7.08437">
        <ele>659.79998779297</ele>
        <time>2020-05-27T11:16:44.000Z</time>
      </trkpt>
      <trkpt lat="43.9455" lon="7.08437">
        <ele>660</ele>
        <time>2020-05-27T11:16:45.000Z</time>
      </trkpt>
      <trkpt lat="43.94558" lon="7.08435">
        <ele>661.20001220703</ele>
        <time>2020-05-27T11:16:51.000Z</time>
      </trkpt>
      <trkpt lat="43.94563" lon="7.0843">
        <ele>662.40002441406</ele>
        <time>2020-05-27T11:16:56.000Z</time>
      </trkpt>
      <trkpt lat="43.94569" lon="7.08426">
        <ele>663.59997558594</ele>
        <time>2020-05-27T11:17:01.000Z</time>
      </trkpt>
      <trkpt lat="43.94572" lon="7.08421">
        <ele>664.59997558594</ele>
        <time>2020-05-27T11:17:05.000Z</time>
      </trkpt>
      <trkpt lat="43.94572" lon="7.0842">
        <ele>664.79998779297</ele>
        <time>2020-05-27T11:17:06.000Z</time>
      </trkpt>
      <trkpt lat="43.94575" lon="7.08416">
        <ele>665.79998779297</ele>
        <time>2020-05-27T11:17:10.000Z</time>
      </trkpt>
      <trkpt lat="43.94579" lon="7.08411">
        <ele>666.59997558594</ele>
        <time>2020-05-27T11:17:14.000Z</time>
      </trkpt>
      <trkpt lat="43.9458" lon="7.0841">
        <ele>666.79998779297</ele>
        <time>2020-05-27T11:17:15.000Z</time>
      </trkpt>
      <trkpt lat="43.94584" lon="7.08409">
        <ele>667.40002441406</ele>
        <time>2020-05-27T11:17:19.000Z</time>
      </trkpt>
      <trkpt lat="43.94585" lon="7.08409">
        <ele>667.59997558594</ele>
        <time>2020-05-27T11:17:20.000Z</time>
      </trkpt>
      <trkpt lat="43.94588" lon="7.08407">
        <ele>668</ele>
        <time>2020-05-27T11:17:23.000Z</time>
      </trkpt>
      <trkpt lat="43.94591" lon="7.08407">
        <ele>668.59997558594</ele>
        <time>2020-05-27T11:17:26.000Z</time>
      </trkpt>
      <trkpt lat="43.94594" lon="7.08406">
        <ele>669</ele>
        <time>2020-05-27T11:17:29.000Z</time>
      </trkpt>
      <trkpt lat="43.94597" lon="7.08406">
        <ele>669.20001220703</ele>
        <time>2020-05-27T11:17:31.000Z</time>
      </trkpt>
      <trkpt lat="43.94597" lon="7.08405">
        <ele>670.20001220703</ele>
        <time>2020-05-27T11:17:35.000Z</time>
      </trkpt>
      <trkpt lat="43.94601" lon="7.08405">
        <ele>670.20001220703</ele>
        <time>2020-05-27T11:17:41.000Z</time>
      </trkpt>
      <trkpt lat="43.94607" lon="7.08404">
        <ele>671</ele>
        <time>2020-05-27T11:17:49.000Z</time>
      </trkpt>
      <trkpt lat="43.94608" lon="7.08404">
        <ele>671.40002441406</ele>
        <time>2020-05-27T11:17:51.000Z</time>
      </trkpt>
      <trkpt lat="43.94614" lon="7.08403">
        <ele>672.40002441406</ele>
        <time>2020-05-27T11:17:58.000Z</time>
      </trkpt>
      <trkpt lat="43.94615" lon="7.08403">
        <ele>672.59997558594</ele>
        <time>2020-05-27T11:17:59.000Z</time>
      </trkpt>
      <trkpt lat="43.94621" lon="7.08402">
        <ele>673.59997558594</ele>
        <time>2020-05-27T11:18:07.000Z</time>
      </trkpt>
      <trkpt lat="43.94623" lon="7.08401">
        <ele>673.79998779297</ele>
        <time>2020-05-27T11:18:09.000Z</time>
      </trkpt>
      <trkpt lat="43.94627" lon="7.08398">
        <ele>674.20001220703</ele>
        <time>2020-05-27T11:18:14.000Z</time>
      </trkpt>
      <trkpt lat="43.9463" lon="7.08395">
        <ele>674.59997558594</ele>
        <time>2020-05-27T11:18:18.000Z</time>
      </trkpt>
      <trkpt lat="43.94633" lon="7.08393">
        <ele>675.40002441406</ele>
        <time>2020-05-27T11:18:22.000Z</time>
      </trkpt>
      <trkpt lat="43.94634" lon="7.08392">
        <ele>675.79998779297</ele>
        <time>2020-05-27T11:18:24.000Z</time>
      </trkpt>
      <trkpt lat="43.94639" lon="7.08386">
        <ele>676.79998779297</ele>
        <time>2020-05-27T11:18:32.000Z</time>
      </trkpt>
      <trkpt lat="43.94645" lon="7.0838">
        <ele>677.79998779297</ele>
        <time>2020-05-27T11:18:40.000Z</time>
      </trkpt>
      <trkpt lat="43.94646" lon="7.08379">
        <ele>678</ele>
        <time>2020-05-27T11:18:41.000Z</time>
      </trkpt>
      <trkpt lat="43.9465" lon="7.08375">
        <ele>679</ele>
        <time>2020-05-27T11:18:47.000Z</time>
      </trkpt>
      <trkpt lat="43.94651" lon="7.08373">
        <ele>679.40002441406</ele>
        <time>2020-05-27T11:18:49.000Z</time>
      </trkpt>
      <trkpt lat="43.94654" lon="7.08369">
        <ele>680</ele>
        <time>2020-05-27T11:18:54.000Z</time>
      </trkpt>
      <trkpt lat="43.94657" lon="7.08365">
        <ele>680.79998779297</ele>
        <time>2020-05-27T11:18:58.000Z</time>
      </trkpt>
      <trkpt lat="43.94658" lon="7.08363">
        <ele>681</ele>
        <time>2020-05-27T11:19:00.000Z</time>
      </trkpt>
      <trkpt lat="43.94663" lon="7.08358">
        <ele>682</ele>
        <time>2020-05-27T11:19:07.000Z</time>
      </trkpt>
      <trkpt lat="43.94664" lon="7.08356">
        <ele>682.20001220703</ele>
        <time>2020-05-27T11:19:09.000Z</time>
      </trkpt>
      <trkpt lat="43.94668" lon="7.08351">
        <ele>683.20001220703</ele>
        <time>2020-05-27T11:19:15.000Z</time>
      </trkpt>
      <trkpt lat="43.94671" lon="7.08345">
        <ele>684.20001220703</ele>
        <time>2020-05-27T11:19:21.000Z</time>
      </trkpt>
      <trkpt lat="43.94672" lon="7.08344">
        <ele>684.59997558594</ele>
        <time>2020-05-27T11:19:23.000Z</time>
      </trkpt>
      <trkpt lat="43.94675" lon="7.0834">
        <ele>685.40002441406</ele>
        <time>2020-05-27T11:19:29.000Z</time>
      </trkpt>
      <trkpt lat="43.94676" lon="7.0834">
        <ele>685.40002441406</ele>
        <time>2020-05-27T11:19:30.000Z</time>
      </trkpt>
      <trkpt lat="43.94681" lon="7.08333">
        <ele>686.40002441406</ele>
        <time>2020-05-27T11:19:38.000Z</time>
      </trkpt>
      <trkpt lat="43.94685" lon="7.08328">
        <ele>687.40002441406</ele>
        <time>2020-05-27T11:19:45.000Z</time>
      </trkpt>
      <trkpt lat="43.94691" lon="7.08322">
        <ele>688.59997558594</ele>
        <time>2020-05-27T11:19:53.000Z</time>
      </trkpt>
      <trkpt lat="43.94692" lon="7.08321">
        <ele>688.59997558594</ele>
        <time>2020-05-27T11:19:54.000Z</time>
      </trkpt>
      <trkpt lat="43.94697" lon="7.08318">
        <ele>689.59997558594</ele>
        <time>2020-05-27T11:20:01.000Z</time>
      </trkpt>
      <trkpt lat="43.94699" lon="7.08316">
        <ele>690.20001220703</ele>
        <time>2020-05-27T11:20:04.000Z</time>
      </trkpt>
      <trkpt lat="43.94702" lon="7.08313">
        <ele>690.59997558594</ele>
        <time>2020-05-27T11:20:08.000Z</time>
      </trkpt>
      <trkpt lat="43.94704" lon="7.08309">
        <ele>691.20001220703</ele>
        <time>2020-05-27T11:20:12.000Z</time>
      </trkpt>
      <trkpt lat="43.94705" lon="7.08307">
        <ele>691.59997558594</ele>
        <time>2020-05-27T11:20:15.000Z</time>
      </trkpt>
      <trkpt lat="43.94706" lon="7.08306">
        <ele>691.59997558594</ele>
        <time>2020-05-27T11:20:16.000Z</time>
      </trkpt>
      <trkpt lat="43.94707" lon="7.08305">
        <ele>692</ele>
        <time>2020-05-27T11:20:18.000Z</time>
      </trkpt>
      <trkpt lat="43.9471" lon="7.083">
        <ele>692.79998779297</ele>
        <time>2020-05-27T11:20:23.000Z</time>
      </trkpt>
      <trkpt lat="43.94711" lon="7.08299">
        <ele>693</ele>
        <time>2020-05-27T11:20:25.000Z</time>
      </trkpt>
      <trkpt lat="43.94712" lon="7.08298">
        <ele>693.20001220703</ele>
        <time>2020-05-27T11:20:26.000Z</time>
      </trkpt>
      <trkpt lat="43.94715" lon="7.08295">
        <ele>694</ele>
        <time>2020-05-27T11:20:30.000Z</time>
      </trkpt>
      <trkpt lat="43.94716" lon="7.08294">
        <ele>694</ele>
        <time>2020-05-27T11:20:32.000Z</time>
      </trkpt>
      <trkpt lat="43.9472" lon="7.08285">
        <ele>695</ele>
        <time>2020-05-27T11:20:39.000Z</time>
      </trkpt>
      <trkpt lat="43.9472" lon="7.08284">
        <ele>695.20001220703</ele>
        <time>2020-05-27T11:20:40.000Z</time>
      </trkpt>
      <trkpt lat="43.94723" lon="7.08276">
        <ele>696.20001220703</ele>
        <time>2020-05-27T11:20:47.000Z</time>
      </trkpt>
      <trkpt lat="43.94724" lon="7.08275">
        <ele>696.20001220703</ele>
        <time>2020-05-27T11:20:48.000Z</time>
      </trkpt>
      <trkpt lat="43.94728" lon="7.0827">
        <ele>697</ele>
        <time>2020-05-27T11:20:55.000Z</time>
      </trkpt>
      <trkpt lat="43.94729" lon="7.08269">
        <ele>697.20001220703</ele>
        <time>2020-05-27T11:20:56.000Z</time>
      </trkpt>
      <trkpt lat="43.94735" lon="7.08264">
        <ele>698</ele>
        <time>2020-05-27T11:21:03.000Z</time>
      </trkpt>
      <trkpt lat="43.94736" lon="7.08262">
        <ele>698.40002441406</ele>
        <time>2020-05-27T11:21:05.000Z</time>
      </trkpt>
      <trkpt lat="43.94739" lon="7.0826">
        <ele>699.20001220703</ele>
        <time>2020-05-27T11:21:09.000Z</time>
      </trkpt>
      <trkpt lat="43.94741" lon="7.08258">
        <ele>699.40002441406</ele>
        <time>2020-05-27T11:21:11.000Z</time>
      </trkpt>
      <trkpt lat="43.94746" lon="7.08254">
        <ele>700.20001220703</ele>
        <time>2020-05-27T11:21:17.000Z</time>
      </trkpt>
      <trkpt lat="43.94749" lon="7.08251">
        <ele>700.59997558594</ele>
        <time>2020-05-27T11:21:21.000Z</time>
      </trkpt>
      <trkpt lat="43.9475" lon="7.08249">
        <ele>700.59997558594</ele>
        <time>2020-05-27T11:21:23.000Z</time>
      </trkpt>
      <trkpt lat="43.94754" lon="7.08244">
        <ele>701.59997558594</ele>
        <time>2020-05-27T11:21:29.000Z</time>
      </trkpt>
      <trkpt lat="43.94755" lon="7.08239">
        <ele>702</ele>
        <time>2020-05-27T11:21:33.000Z</time>
      </trkpt>
      <trkpt lat="43.94757" lon="7.08234">
        <ele>702.79998779297</ele>
        <time>2020-05-27T11:21:38.000Z</time>
      </trkpt>
      <trkpt lat="43.94758" lon="7.0823">
        <ele>703.20001220703</ele>
        <time>2020-05-27T11:21:41.000Z</time>
      </trkpt>
      <trkpt lat="43.9476" lon="7.08226">
        <ele>703.79998779297</ele>
        <time>2020-05-27T11:21:46.000Z</time>
      </trkpt>
      <trkpt lat="43.94762" lon="7.0822">
        <ele>705</ele>
        <time>2020-05-27T11:21:51.000Z</time>
      </trkpt>
      <trkpt lat="43.94766" lon="7.08212">
        <ele>706</ele>
        <time>2020-05-27T11:22:00.000Z</time>
      </trkpt>
      <trkpt lat="43.94771" lon="7.08206">
        <ele>707.20001220703</ele>
        <time>2020-05-27T11:22:07.000Z</time>
      </trkpt>
      <trkpt lat="43.94772" lon="7.08205">
        <ele>708</ele>
        <time>2020-05-27T11:22:10.000Z</time>
      </trkpt>
      <trkpt lat="43.94773" lon="7.08204">
        <ele>708.40002441406</ele>
        <time>2020-05-27T11:22:12.000Z</time>
      </trkpt>
      <trkpt lat="43.94773" lon="7.08204">
        <ele>708.59997558594</ele>
        <time>2020-05-27T11:22:18.000Z</time>
      </trkpt>
      <trkpt lat="43.94772" lon="7.08203">
        <ele>708.40002441406</ele>
        <time>2020-05-27T11:22:24.000Z</time>
      </trkpt>
      <trkpt lat="43.94772" lon="7.08201">
        <ele>708.40002441406</ele>
        <time>2020-05-27T11:22:26.000Z</time>
      </trkpt>
      <trkpt lat="43.94775" lon="7.08199">
        <ele>708.59997558594</ele>
        <time>2020-05-27T11:22:29.000Z</time>
      </trkpt>
      <trkpt lat="43.94779" lon="7.08199">
        <ele>708.79998779297</ele>
        <time>2020-05-27T11:22:32.000Z</time>
      </trkpt>
      <trkpt lat="43.94783" lon="7.08196">
        <ele>709.40002441406</ele>
        <time>2020-05-27T11:22:35.000Z</time>
      </trkpt>
      <trkpt lat="43.94784" lon="7.08195">
        <ele>709.59997558594</ele>
        <time>2020-05-27T11:22:36.000Z</time>
      </trkpt>
      <trkpt lat="43.9479" lon="7.08189">
        <ele>710.40002441406</ele>
        <time>2020-05-27T11:22:41.000Z</time>
      </trkpt>
      <trkpt lat="43.94791" lon="7.08186">
        <ele>710.79998779297</ele>
        <time>2020-05-27T11:22:43.000Z</time>
      </trkpt>
      <trkpt lat="43.94794" lon="7.08181">
        <ele>711.59997558594</ele>
        <time>2020-05-27T11:22:47.000Z</time>
      </trkpt>
      <trkpt lat="43.94798" lon="7.08175">
        <ele>712.40002441406</ele>
        <time>2020-05-27T11:22:51.000Z</time>
      </trkpt>
      <trkpt lat="43.94798" lon="7.08174">
        <ele>712.59997558594</ele>
        <time>2020-05-27T11:22:52.000Z</time>
      </trkpt>
      <trkpt lat="43.94802" lon="7.08167">
        <ele>713.59997558594</ele>
        <time>2020-05-27T11:22:57.000Z</time>
      </trkpt>
      <trkpt lat="43.94802" lon="7.08166">
        <ele>713.79998779297</ele>
        <time>2020-05-27T11:22:58.000Z</time>
      </trkpt>
      <trkpt lat="43.94805" lon="7.08161">
        <ele>714.79998779297</ele>
        <time>2020-05-27T11:23:02.000Z</time>
      </trkpt>
      <trkpt lat="43.94806" lon="7.0816">
        <ele>715</ele>
        <time>2020-05-27T11:23:03.000Z</time>
      </trkpt>
      <trkpt lat="43.94806" lon="7.08161">
        <ele>716</ele>
        <time>2020-05-27T11:23:07.000Z</time>
      </trkpt>
      <trkpt lat="43.94808" lon="7.08157">
        <ele>716</ele>
        <time>2020-05-27T11:23:13.000Z</time>
      </trkpt>
      <trkpt lat="43.94812" lon="7.08151">
        <ele>717.20001220703</ele>
        <time>2020-05-27T11:23:22.000Z</time>
      </trkpt>
      <trkpt lat="43.94813" lon="7.08151">
        <ele>717.20001220703</ele>
        <time>2020-05-27T11:23:23.000Z</time>
      </trkpt>
      <trkpt lat="43.94817" lon="7.08146">
        <ele>718.20001220703</ele>
        <time>2020-05-27T11:23:31.000Z</time>
      </trkpt>
      <trkpt lat="43.9482" lon="7.0814">
        <ele>719.20001220703</ele>
        <time>2020-05-27T11:23:38.000Z</time>
      </trkpt>
      <trkpt lat="43.94821" lon="7.08139">
        <ele>719.20001220703</ele>
        <time>2020-05-27T11:23:39.000Z</time>
      </trkpt>
      <trkpt lat="43.94821" lon="7.08139">
        <ele>719.40002441406</ele>
        <time>2020-05-27T11:23:40.000Z</time>
      </trkpt>
      <trkpt lat="43.94824" lon="7.08131">
        <ele>720.40002441406</ele>
        <time>2020-05-27T11:23:48.000Z</time>
      </trkpt>
      <trkpt lat="43.94826" lon="7.08123">
        <ele>721.40002441406</ele>
        <time>2020-05-27T11:23:56.000Z</time>
      </trkpt>
      <trkpt lat="43.94826" lon="7.0812">
        <ele>721.59997558594</ele>
        <time>2020-05-27T11:23:58.000Z</time>
      </trkpt>
      <trkpt lat="43.94826" lon="7.08119">
        <ele>721.59997558594</ele>
        <time>2020-05-27T11:23:59.000Z</time>
      </trkpt>
      <trkpt lat="43.94827" lon="7.08118">
        <ele>721.59997558594</ele>
        <time>2020-05-27T11:24:00.000Z</time>
      </trkpt>
      <trkpt lat="43.94826" lon="7.08111">
        <ele>722.40002441406</ele>
        <time>2020-05-27T11:24:06.000Z</time>
      </trkpt>
      <trkpt lat="43.94825" lon="7.08109">
        <ele>722.59997558594</ele>
        <time>2020-05-27T11:24:08.000Z</time>
      </trkpt>
      <trkpt lat="43.94824" lon="7.08106">
        <ele>723.59997558594</ele>
        <time>2020-05-27T11:24:13.000Z</time>
      </trkpt>
      <trkpt lat="43.94824" lon="7.08104">
        <ele>723.59997558594</ele>
        <time>2020-05-27T11:24:14.000Z</time>
      </trkpt>
      <trkpt lat="43.94821" lon="7.081">
        <ele>724.40002441406</ele>
        <time>2020-05-27T11:24:20.000Z</time>
      </trkpt>
      <trkpt lat="43.94819" lon="7.08098">
        <ele>724.79998779297</ele>
        <time>2020-05-27T11:24:22.000Z</time>
      </trkpt>
      <trkpt lat="43.94815" lon="7.08091">
        <ele>725.59997558594</ele>
        <time>2020-05-27T11:24:30.000Z</time>
      </trkpt>
      <trkpt lat="43.94814" lon="7.08089">
        <ele>725.79998779297</ele>
        <time>2020-05-27T11:24:32.000Z</time>
      </trkpt>
      <trkpt lat="43.94811" lon="7.08084">
        <ele>726.59997558594</ele>
        <time>2020-05-27T11:24:37.000Z</time>
      </trkpt>
      <trkpt lat="43.9481" lon="7.08082">
        <ele>727</ele>
        <time>2020-05-27T11:24:39.000Z</time>
      </trkpt>
      <trkpt lat="43.94809" lon="7.08074">
        <ele>727.59997558594</ele>
        <time>2020-05-27T11:24:45.000Z</time>
      </trkpt>
      <trkpt lat="43.94808" lon="7.08073">
        <ele>728</ele>
        <time>2020-05-27T11:24:48.000Z</time>
      </trkpt>
      <trkpt lat="43.94808" lon="7.08071">
        <ele>728.59997558594</ele>
        <time>2020-05-27T11:24:51.000Z</time>
      </trkpt>
      <trkpt lat="43.94808" lon="7.08066">
        <ele>728.40002441406</ele>
        <time>2020-05-27T11:24:57.000Z</time>
      </trkpt>
      <trkpt lat="43.94808" lon="7.08051">
        <ele>729.40002441406</ele>
        <time>2020-05-27T11:25:04.000Z</time>
      </trkpt>
      <trkpt lat="43.94809" lon="7.0804">
        <ele>730.59997558594</ele>
        <time>2020-05-27T11:25:09.000Z</time>
      </trkpt>
      <trkpt lat="43.94809" lon="7.08032">
        <ele>731.79998779297</ele>
        <time>2020-05-27T11:25:13.000Z</time>
      </trkpt>
      <trkpt lat="43.94809" lon="7.08028">
        <ele>732.59997558594</ele>
        <time>2020-05-27T11:25:15.000Z</time>
      </trkpt>
      <trkpt lat="43.94809" lon="7.08024">
        <ele>733</ele>
        <time>2020-05-27T11:25:17.000Z</time>
      </trkpt>
      <trkpt lat="43.94809" lon="7.08017">
        <ele>733.20001220703</ele>
        <time>2020-05-27T11:25:21.000Z</time>
      </trkpt>
      <trkpt lat="43.94808" lon="7.08005">
        <ele>734</ele>
        <time>2020-05-27T11:25:28.000Z</time>
      </trkpt>
      <trkpt lat="43.94808" lon="7.08004">
        <ele>734.40002441406</ele>
        <time>2020-05-27T11:25:29.000Z</time>
      </trkpt>
      <trkpt lat="43.94808" lon="7.08003">
        <ele>735</ele>
        <time>2020-05-27T11:25:33.000Z</time>
      </trkpt>
      <trkpt lat="43.94808" lon="7.08002">
        <ele>735.20001220703</ele>
        <time>2020-05-27T11:25:36.000Z</time>
      </trkpt>
      <trkpt lat="43.94807" lon="7.07999">
        <ele>735.40002441406</ele>
        <time>2020-05-27T11:25:39.000Z</time>
      </trkpt>
      <trkpt lat="43.94805" lon="7.07994">
        <ele>736.40002441406</ele>
        <time>2020-05-27T11:25:45.000Z</time>
      </trkpt>
      <trkpt lat="43.94803" lon="7.07991">
        <ele>736.79998779297</ele>
        <time>2020-05-27T11:25:48.000Z</time>
      </trkpt>
      <trkpt lat="43.94801" lon="7.07986">
        <ele>737.40002441406</ele>
        <time>2020-05-27T11:25:54.000Z</time>
      </trkpt>
      <trkpt lat="43.94799" lon="7.07983">
        <ele>738</ele>
        <time>2020-05-27T11:25:58.000Z</time>
      </trkpt>
      <trkpt lat="43.94798" lon="7.07979">
        <ele>738.40002441406</ele>
        <time>2020-05-27T11:26:01.000Z</time>
      </trkpt>
      <trkpt lat="43.94797" lon="7.07978">
        <ele>739.40002441406</ele>
        <time>2020-05-27T11:26:07.000Z</time>
      </trkpt>
      <trkpt lat="43.94797" lon="7.07977">
        <ele>739.40002441406</ele>
        <time>2020-05-27T11:26:14.000Z</time>
      </trkpt>
      <trkpt lat="43.94795" lon="7.07975">
        <ele>739.79998779297</ele>
        <time>2020-05-27T11:26:19.000Z</time>
      </trkpt>
      <trkpt lat="43.94794" lon="7.07973">
        <ele>739.79998779297</ele>
        <time>2020-05-27T11:26:25.000Z</time>
      </trkpt>
      <trkpt lat="43.94792" lon="7.07966">
        <ele>740.59997558594</ele>
        <time>2020-05-27T11:26:30.000Z</time>
      </trkpt>
      <trkpt lat="43.9479" lon="7.07963">
        <ele>741</ele>
        <time>2020-05-27T11:26:32.000Z</time>
      </trkpt>
      <trkpt lat="43.94788" lon="7.07958">
        <ele>741.59997558594</ele>
        <time>2020-05-27T11:26:35.000Z</time>
      </trkpt>
      <trkpt lat="43.94787" lon="7.07956">
        <ele>742.20001220703</ele>
        <time>2020-05-27T11:26:38.000Z</time>
      </trkpt>
      <trkpt lat="43.94786" lon="7.07955">
        <ele>742.79998779297</ele>
        <time>2020-05-27T11:26:41.000Z</time>
      </trkpt>
      <trkpt lat="43.94785" lon="7.07952">
        <ele>743</ele>
        <time>2020-05-27T11:26:44.000Z</time>
      </trkpt>
      <trkpt lat="43.94779" lon="7.07943">
        <ele>743.59997558594</ele>
        <time>2020-05-27T11:26:51.000Z</time>
      </trkpt>
      <trkpt lat="43.94778" lon="7.07942">
        <ele>743.79998779297</ele>
        <time>2020-05-27T11:26:52.000Z</time>
      </trkpt>
      <trkpt lat="43.94774" lon="7.07937">
        <ele>745</ele>
        <time>2020-05-27T11:26:57.000Z</time>
      </trkpt>
      <trkpt lat="43.94771" lon="7.07934">
        <ele>745.20001220703</ele>
        <time>2020-05-27T11:27:00.000Z</time>
      </trkpt>
      <trkpt lat="43.94768" lon="7.07929">
        <ele>746</ele>
        <time>2020-05-27T11:27:03.000Z</time>
      </trkpt>
      <trkpt lat="43.94766" lon="7.07925">
        <ele>747.20001220703</ele>
        <time>2020-05-27T11:27:06.000Z</time>
      </trkpt>
      <trkpt lat="43.94765" lon="7.07918">
        <ele>748.20001220703</ele>
        <time>2020-05-27T11:27:11.000Z</time>
      </trkpt>
      <trkpt lat="43.94766" lon="7.07919">
        <ele>748.40002441406</ele>
        <time>2020-05-27T11:27:12.000Z</time>
      </trkpt>
      <trkpt lat="43.94766" lon="7.07918">
        <ele>748.79998779297</ele>
        <time>2020-05-27T11:27:23.000Z</time>
      </trkpt>
      <trkpt lat="43.94765" lon="7.07918">
        <ele>748.59997558594</ele>
        <time>2020-05-27T11:27:33.000Z</time>
      </trkpt>
      <trkpt lat="43.94765" lon="7.07917">
        <ele>748.79998779297</ele>
        <time>2020-05-27T11:27:49.000Z</time>
      </trkpt>
      <trkpt lat="43.94765" lon="7.07918">
        <ele>748.79998779297</ele>
        <time>2020-05-27T11:27:54.000Z</time>
      </trkpt>
      <trkpt lat="43.94764" lon="7.07918">
        <ele>748.40002441406</ele>
        <time>2020-05-27T11:28:02.000Z</time>
      </trkpt>
      <trkpt lat="43.94765" lon="7.07918">
        <ele>748.40002441406</ele>
        <time>2020-05-27T11:28:23.000Z</time>
      </trkpt>
      <trkpt lat="43.94765" lon="7.07918">
        <ele>748.79998779297</ele>
        <time>2020-05-27T11:28:31.000Z</time>
      </trkpt>
      <trkpt lat="43.94764" lon="7.07918">
        <ele>748.59997558594</ele>
        <time>2020-05-27T11:28:33.000Z</time>
      </trkpt>
      <trkpt lat="43.94764" lon="7.07918">
        <ele>748.59997558594</ele>
        <time>2020-05-27T11:28:35.000Z</time>
      </trkpt>
      <trkpt lat="43.94765" lon="7.07918">
        <ele>748.20001220703</ele>
        <time>2020-05-27T11:28:47.000Z</time>
      </trkpt>
      <trkpt lat="43.94766" lon="7.07919">
        <ele>748.20001220703</ele>
        <time>2020-05-27T11:29:12.000Z</time>
      </trkpt>
      <trkpt lat="43.94766" lon="7.07919">
        <ele>748.40002441406</ele>
        <time>2020-05-27T11:29:29.000Z</time>
      </trkpt>
      <trkpt lat="43.94767" lon="7.07919">
        <ele>748.40002441406</ele>
        <time>2020-05-27T11:29:50.000Z</time>
      </trkpt>
      <trkpt lat="43.94766" lon="7.0792">
        <ele>748.59997558594</ele>
        <time>2020-05-27T11:29:56.000Z</time>
      </trkpt>
      <trkpt lat="43.94767" lon="7.07917">
        <ele>748.79998779297</ele>
        <time>2020-05-27T11:30:04.000Z</time>
      </trkpt>
      <trkpt lat="43.94766" lon="7.07914">
        <ele>748.59997558594</ele>
        <time>2020-05-27T11:30:09.000Z</time>
      </trkpt>
      <trkpt lat="43.94765" lon="7.07908">
        <ele>749</ele>
        <time>2020-05-27T11:30:15.000Z</time>
      </trkpt>
      <trkpt lat="43.94765" lon="7.07905">
        <ele>749.40002441406</ele>
        <time>2020-05-27T11:30:17.000Z</time>
      </trkpt>
      <trkpt lat="43.94764" lon="7.07894">
        <ele>750.20001220703</ele>
        <time>2020-05-27T11:30:22.000Z</time>
      </trkpt>
      <trkpt lat="43.94764" lon="7.07892">
        <ele>750.40002441406</ele>
        <time>2020-05-27T11:30:23.000Z</time>
      </trkpt>
      <trkpt lat="43.94763" lon="7.0788">
        <ele>751.59997558594</ele>
        <time>2020-05-27T11:30:29.000Z</time>
      </trkpt>
      <trkpt lat="43.94763" lon="7.07865">
        <ele>752.79998779297</ele>
        <time>2020-05-27T11:30:36.000Z</time>
      </trkpt>
      <trkpt lat="43.94762" lon="7.07863">
        <ele>753</ele>
        <time>2020-05-27T11:30:37.000Z</time>
      </trkpt>
      <trkpt lat="43.94763" lon="7.07857">
        <ele>753.79998779297</ele>
        <time>2020-05-27T11:30:40.000Z</time>
      </trkpt>
      <trkpt lat="43.94764" lon="7.07852">
        <ele>754.40002441406</ele>
        <time>2020-05-27T11:30:43.000Z</time>
      </trkpt>
      <trkpt lat="43.94765" lon="7.07849">
        <ele>754.79998779297</ele>
        <time>2020-05-27T11:30:45.000Z</time>
      </trkpt>
      <trkpt lat="43.94768" lon="7.07839">
        <ele>755.59997558594</ele>
        <time>2020-05-27T11:30:51.000Z</time>
      </trkpt>
      <trkpt lat="43.94767" lon="7.07837">
        <ele>756</ele>
        <time>2020-05-27T11:30:53.000Z</time>
      </trkpt>
      <trkpt lat="43.94764" lon="7.07831">
        <ele>756.59997558594</ele>
        <time>2020-05-27T11:30:57.000Z</time>
      </trkpt>
      <trkpt lat="43.94761" lon="7.07828">
        <ele>757</ele>
        <time>2020-05-27T11:31:00.000Z</time>
      </trkpt>
      <trkpt lat="43.94757" lon="7.07823">
        <ele>758</ele>
        <time>2020-05-27T11:31:04.000Z</time>
      </trkpt>
      <trkpt lat="43.94756" lon="7.07822">
        <ele>758.20001220703</ele>
        <time>2020-05-27T11:31:05.000Z</time>
      </trkpt>
      <trkpt lat="43.94754" lon="7.07817">
        <ele>759.20001220703</ele>
        <time>2020-05-27T11:31:09.000Z</time>
      </trkpt>
      <trkpt lat="43.94754" lon="7.07816">
        <ele>759.40002441406</ele>
        <time>2020-05-27T11:31:10.000Z</time>
      </trkpt>
      <trkpt lat="43.94756" lon="7.0781">
        <ele>760</ele>
        <time>2020-05-27T11:31:14.000Z</time>
      </trkpt>
      <trkpt lat="43.94758" lon="7.07807">
        <ele>760.20001220703</ele>
        <time>2020-05-27T11:31:16.000Z</time>
      </trkpt>
      <trkpt lat="43.94758" lon="7.07806">
        <ele>760.40002441406</ele>
        <time>2020-05-27T11:31:17.000Z</time>
      </trkpt>
      <trkpt lat="43.94764" lon="7.07799">
        <ele>761.59997558594</ele>
        <time>2020-05-27T11:31:23.000Z</time>
      </trkpt>
      <trkpt lat="43.94767" lon="7.07792">
        <ele>762.59997558594</ele>
        <time>2020-05-27T11:31:29.000Z</time>
      </trkpt>
      <trkpt lat="43.94768" lon="7.07791">
        <ele>763</ele>
        <time>2020-05-27T11:31:30.000Z</time>
      </trkpt>
      <trkpt lat="43.9477" lon="7.07785">
        <ele>763.79998779297</ele>
        <time>2020-05-27T11:31:34.000Z</time>
      </trkpt>
      <trkpt lat="43.94771" lon="7.07779">
        <ele>764.40002441406</ele>
        <time>2020-05-27T11:31:38.000Z</time>
      </trkpt>
      <trkpt lat="43.94772" lon="7.07774">
        <ele>765</ele>
        <time>2020-05-27T11:31:41.000Z</time>
      </trkpt>
      <trkpt lat="43.94773" lon="7.07768">
        <ele>765.59997558594</ele>
        <time>2020-05-27T11:31:45.000Z</time>
      </trkpt>
      <trkpt lat="43.94774" lon="7.07765">
        <ele>766</ele>
        <time>2020-05-27T11:31:47.000Z</time>
      </trkpt>
      <trkpt lat="43.94777" lon="7.07757">
        <ele>767</ele>
        <time>2020-05-27T11:31:53.000Z</time>
      </trkpt>
      <trkpt lat="43.94779" lon="7.07749">
        <ele>768.20001220703</ele>
        <time>2020-05-27T11:31:59.000Z</time>
      </trkpt>
      <trkpt lat="43.94779" lon="7.07748">
        <ele>768.40002441406</ele>
        <time>2020-05-27T11:32:00.000Z</time>
      </trkpt>
      <trkpt lat="43.94779" lon="7.07746">
        <ele>768.79998779297</ele>
        <time>2020-05-27T11:32:05.000Z</time>
      </trkpt>
      <trkpt lat="43.94781" lon="7.07743">
        <ele>769.20001220703</ele>
        <time>2020-05-27T11:32:09.000Z</time>
      </trkpt>
      <trkpt lat="43.94783" lon="7.07738">
        <ele>770.20001220703</ele>
        <time>2020-05-27T11:32:14.000Z</time>
      </trkpt>
      <trkpt lat="43.94783" lon="7.07737">
        <ele>770.40002441406</ele>
        <time>2020-05-27T11:32:15.000Z</time>
      </trkpt>
      <trkpt lat="43.94787" lon="7.07733">
        <ele>771.59997558594</ele>
        <time>2020-05-27T11:32:21.000Z</time>
      </trkpt>
      <trkpt lat="43.94788" lon="7.07732">
        <ele>772</ele>
        <time>2020-05-27T11:32:23.000Z</time>
      </trkpt>
      <trkpt lat="43.94791" lon="7.0773">
        <ele>772.79998779297</ele>
        <time>2020-05-27T11:32:27.000Z</time>
      </trkpt>
      <trkpt lat="43.94792" lon="7.07729">
        <ele>773.40002441406</ele>
        <time>2020-05-27T11:32:31.000Z</time>
      </trkpt>
      <trkpt lat="43.94792" lon="7.07728">
        <ele>773.40002441406</ele>
        <time>2020-05-27T11:32:36.000Z</time>
      </trkpt>
      <trkpt lat="43.94793" lon="7.07726">
        <ele>773.40002441406</ele>
        <time>2020-05-27T11:32:43.000Z</time>
      </trkpt>
      <trkpt lat="43.94798" lon="7.0772">
        <ele>773.59997558594</ele>
        <time>2020-05-27T11:32:48.000Z</time>
      </trkpt>
      <trkpt lat="43.94799" lon="7.0772">
        <ele>773.79998779297</ele>
        <time>2020-05-27T11:32:49.000Z</time>
      </trkpt>
      <trkpt lat="43.94807" lon="7.07713">
        <ele>774.79998779297</ele>
        <time>2020-05-27T11:32:56.000Z</time>
      </trkpt>
      <trkpt lat="43.94808" lon="7.07712">
        <ele>775</ele>
        <time>2020-05-27T11:32:57.000Z</time>
      </trkpt>
      <trkpt lat="43.94813" lon="7.07705">
        <ele>776.20001220703</ele>
        <time>2020-05-27T11:33:02.000Z</time>
      </trkpt>
      <trkpt lat="43.94816" lon="7.07701">
        <ele>777</ele>
        <time>2020-05-27T11:33:05.000Z</time>
      </trkpt>
      <trkpt lat="43.94818" lon="7.07697">
        <ele>777.40002441406</ele>
        <time>2020-05-27T11:33:07.000Z</time>
      </trkpt>
      <trkpt lat="43.94822" lon="7.0769">
        <ele>778.40002441406</ele>
        <time>2020-05-27T11:33:12.000Z</time>
      </trkpt>
      <trkpt lat="43.94823" lon="7.07689">
        <ele>778.79998779297</ele>
        <time>2020-05-27T11:33:13.000Z</time>
      </trkpt>
      <trkpt lat="43.94826" lon="7.07685">
        <ele>779.59997558594</ele>
        <time>2020-05-27T11:33:16.000Z</time>
      </trkpt>
      <trkpt lat="43.9483" lon="7.07681">
        <ele>780.59997558594</ele>
        <time>2020-05-27T11:33:20.000Z</time>
      </trkpt>
      <trkpt lat="43.9483" lon="7.0768">
        <ele>780.79998779297</ele>
        <time>2020-05-27T11:33:21.000Z</time>
      </trkpt>
      <trkpt lat="43.94833" lon="7.07677">
        <ele>781.20001220703</ele>
        <time>2020-05-27T11:33:24.000Z</time>
      </trkpt>
      <trkpt lat="43.94835" lon="7.07676">
        <ele>781.40002441406</ele>
        <time>2020-05-27T11:33:26.000Z</time>
      </trkpt>
      <trkpt lat="43.94838" lon="7.07672">
        <ele>782</ele>
        <time>2020-05-27T11:33:30.000Z</time>
      </trkpt>
      <trkpt lat="43.9484" lon="7.07669">
        <ele>782.40002441406</ele>
        <time>2020-05-27T11:33:32.000Z</time>
      </trkpt>
      <trkpt lat="43.9484" lon="7.07669">
        <ele>782.59997558594</ele>
        <time>2020-05-27T11:33:36.000Z</time>
      </trkpt>
      <trkpt lat="43.9484" lon="7.07667">
        <ele>782.79998779297</ele>
        <time>2020-05-27T11:33:38.000Z</time>
      </trkpt>
      <trkpt lat="43.94841" lon="7.07666">
        <ele>782.79998779297</ele>
        <time>2020-05-27T11:33:40.000Z</time>
      </trkpt>
      <trkpt lat="43.94842" lon="7.07664">
        <ele>783.20001220703</ele>
        <time>2020-05-27T11:33:43.000Z</time>
      </trkpt>
      <trkpt lat="43.94844" lon="7.0766">
        <ele>783.79998779297</ele>
        <time>2020-05-27T11:33:47.000Z</time>
      </trkpt>
      <trkpt lat="43.94845" lon="7.07657">
        <ele>784.20001220703</ele>
        <time>2020-05-27T11:33:50.000Z</time>
      </trkpt>
      <trkpt lat="43.94849" lon="7.07653">
        <ele>785.20001220703</ele>
        <time>2020-05-27T11:33:56.000Z</time>
      </trkpt>
      <trkpt lat="43.94849" lon="7.07652">
        <ele>785.40002441406</ele>
        <time>2020-05-27T11:33:57.000Z</time>
      </trkpt>
      <trkpt lat="43.94852" lon="7.07645">
        <ele>786.40002441406</ele>
        <time>2020-05-27T11:34:03.000Z</time>
      </trkpt>
      <trkpt lat="43.94856" lon="7.07639">
        <ele>787.59997558594</ele>
        <time>2020-05-27T11:34:10.000Z</time>
      </trkpt>
      <trkpt lat="43.94858" lon="7.07635">
        <ele>788</ele>
        <time>2020-05-27T11:34:14.000Z</time>
      </trkpt>
      <trkpt lat="43.94859" lon="7.07634">
        <ele>788.59997558594</ele>
        <time>2020-05-27T11:34:17.000Z</time>
      </trkpt>
      <trkpt lat="43.94859" lon="7.07633">
        <ele>788.79998779297</ele>
        <time>2020-05-27T11:34:20.000Z</time>
      </trkpt>
      <trkpt lat="43.94861" lon="7.07627">
        <ele>789.20001220703</ele>
        <time>2020-05-27T11:34:27.000Z</time>
      </trkpt>
      <trkpt lat="43.94863" lon="7.07622">
        <ele>789.79998779297</ele>
        <time>2020-05-27T11:34:30.000Z</time>
      </trkpt>
      <trkpt lat="43.94865" lon="7.07617">
        <ele>790.40002441406</ele>
        <time>2020-05-27T11:34:33.000Z</time>
      </trkpt>
      <trkpt lat="43.94865" lon="7.07615">
        <ele>790.59997558594</ele>
        <time>2020-05-27T11:34:34.000Z</time>
      </trkpt>
      <trkpt lat="43.94866" lon="7.07614">
        <ele>790.79998779297</ele>
        <time>2020-05-27T11:34:35.000Z</time>
      </trkpt>
      <trkpt lat="43.9487" lon="7.07611">
        <ele>791</ele>
        <time>2020-05-27T11:34:39.000Z</time>
      </trkpt>
      <trkpt lat="43.94871" lon="7.07615">
        <ele>791.79998779297</ele>
        <time>2020-05-27T11:34:42.000Z</time>
      </trkpt>
      <trkpt lat="43.94871" lon="7.07617">
        <ele>792.40002441406</ele>
        <time>2020-05-27T11:34:43.000Z</time>
      </trkpt>
      <trkpt lat="43.94871" lon="7.07618">
        <ele>792.79998779297</ele>
        <time>2020-05-27T11:34:44.000Z</time>
      </trkpt>
      <trkpt lat="43.94871" lon="7.0762">
        <ele>793</ele>
        <time>2020-05-27T11:34:45.000Z</time>
      </trkpt>
      <trkpt lat="43.94871" lon="7.0763">
        <ele>793.79998779297</ele>
        <time>2020-05-27T11:34:51.000Z</time>
      </trkpt>
      <trkpt lat="43.94871" lon="7.07633">
        <ele>794</ele>
        <time>2020-05-27T11:34:53.000Z</time>
      </trkpt>
      <trkpt lat="43.94871" lon="7.07639">
        <ele>794.59997558594</ele>
        <time>2020-05-27T11:34:57.000Z</time>
      </trkpt>
      <trkpt lat="43.94871" lon="7.07646">
        <ele>795.20001220703</ele>
        <time>2020-05-27T11:35:02.000Z</time>
      </trkpt>
      <trkpt lat="43.94872" lon="7.07651">
        <ele>795.79998779297</ele>
        <time>2020-05-27T11:35:05.000Z</time>
      </trkpt>
      <trkpt lat="43.94872" lon="7.07651">
        <ele>796.20001220703</ele>
        <time>2020-05-27T11:35:07.000Z</time>
      </trkpt>
      <trkpt lat="43.94872" lon="7.07652">
        <ele>796.59997558594</ele>
        <time>2020-05-27T11:35:09.000Z</time>
      </trkpt>
      <trkpt lat="43.94873" lon="7.07658">
        <ele>797.20001220703</ele>
        <time>2020-05-27T11:35:15.000Z</time>
      </trkpt>
      <trkpt lat="43.94873" lon="7.0766">
        <ele>797.40002441406</ele>
        <time>2020-05-27T11:35:16.000Z</time>
      </trkpt>
      <trkpt lat="43.94874" lon="7.07666">
        <ele>798</ele>
        <time>2020-05-27T11:35:22.000Z</time>
      </trkpt>
      <trkpt lat="43.94874" lon="7.07668">
        <ele>798.40002441406</ele>
        <time>2020-05-27T11:35:24.000Z</time>
      </trkpt>
      <trkpt lat="43.94875" lon="7.07672">
        <ele>799.40002441406</ele>
        <time>2020-05-27T11:35:28.000Z</time>
      </trkpt>
      <trkpt lat="43.94875" lon="7.07671">
        <ele>799.40002441406</ele>
        <time>2020-05-27T11:35:29.000Z</time>
      </trkpt>
      <trkpt lat="43.94876" lon="7.07673">
        <ele>799.59997558594</ele>
        <time>2020-05-27T11:35:31.000Z</time>
      </trkpt>
      <trkpt lat="43.94877" lon="7.07676">
        <ele>799.59997558594</ele>
        <time>2020-05-27T11:35:33.000Z</time>
      </trkpt>
      <trkpt lat="43.94881" lon="7.07685">
        <ele>800.20001220703</ele>
        <time>2020-05-27T11:35:39.000Z</time>
      </trkpt>
      <trkpt lat="43.94882" lon="7.07689">
        <ele>800.59997558594</ele>
        <time>2020-05-27T11:35:41.000Z</time>
      </trkpt>
      <trkpt lat="43.94883" lon="7.07698">
        <ele>801.59997558594</ele>
        <time>2020-05-27T11:35:46.000Z</time>
      </trkpt>
      <trkpt lat="43.94885" lon="7.07705">
        <ele>802.79998779297</ele>
        <time>2020-05-27T11:35:51.000Z</time>
      </trkpt>
      <trkpt lat="43.94886" lon="7.07708">
        <ele>803.20001220703</ele>
        <time>2020-05-27T11:35:53.000Z</time>
      </trkpt>
      <trkpt lat="43.94887" lon="7.07714">
        <ele>803.79998779297</ele>
        <time>2020-05-27T11:35:57.000Z</time>
      </trkpt>
      <trkpt lat="43.94888" lon="7.07721">
        <ele>804.59997558594</ele>
        <time>2020-05-27T11:36:01.000Z</time>
      </trkpt>
      <trkpt lat="43.94889" lon="7.07724">
        <ele>805</ele>
        <time>2020-05-27T11:36:03.000Z</time>
      </trkpt>
      <trkpt lat="43.94891" lon="7.07731">
        <ele>806.20001220703</ele>
        <time>2020-05-27T11:36:08.000Z</time>
      </trkpt>
      <trkpt lat="43.94893" lon="7.07739">
        <ele>806.79998779297</ele>
        <time>2020-05-27T11:36:14.000Z</time>
      </trkpt>
      <trkpt lat="43.94894" lon="7.07742">
        <ele>807.40002441406</ele>
        <time>2020-05-27T11:36:16.000Z</time>
      </trkpt>
      <trkpt lat="43.94895" lon="7.07747">
        <ele>808.40002441406</ele>
        <time>2020-05-27T11:36:20.000Z</time>
      </trkpt>
      <trkpt lat="43.94895" lon="7.07749">
        <ele>808.59997558594</ele>
        <time>2020-05-27T11:36:21.000Z</time>
      </trkpt>
      <trkpt lat="43.94896" lon="7.07753">
        <ele>808.79998779297</ele>
        <time>2020-05-27T11:36:24.000Z</time>
      </trkpt>
      <trkpt lat="43.94898" lon="7.07758">
        <ele>809.40002441406</ele>
        <time>2020-05-27T11:36:28.000Z</time>
      </trkpt>
      <trkpt lat="43.94902" lon="7.07767">
        <ele>810.59997558594</ele>
        <time>2020-05-27T11:36:35.000Z</time>
      </trkpt>
      <trkpt lat="43.94904" lon="7.0777">
        <ele>811</ele>
        <time>2020-05-27T11:36:37.000Z</time>
      </trkpt>
      <trkpt lat="43.94908" lon="7.07776">
        <ele>811.79998779297</ele>
        <time>2020-05-27T11:36:43.000Z</time>
      </trkpt>
      <trkpt lat="43.94909" lon="7.07779">
        <ele>812.20001220703</ele>
        <time>2020-05-27T11:36:45.000Z</time>
      </trkpt>
      <trkpt lat="43.94912" lon="7.07783">
        <ele>812.79998779297</ele>
        <time>2020-05-27T11:36:49.000Z</time>
      </trkpt>
      <trkpt lat="43.94913" lon="7.07783">
        <ele>813</ele>
        <time>2020-05-27T11:36:50.000Z</time>
      </trkpt>
      <trkpt lat="43.94912" lon="7.07783">
        <ele>813.40002441406</ele>
        <time>2020-05-27T11:36:54.000Z</time>
      </trkpt>
      <trkpt lat="43.94913" lon="7.07784">
        <ele>813.59997558594</ele>
        <time>2020-05-27T11:37:11.000Z</time>
      </trkpt>
      <trkpt lat="43.94915" lon="7.07786">
        <ele>813.79998779297</ele>
        <time>2020-05-27T11:37:16.000Z</time>
      </trkpt>
      <trkpt lat="43.94916" lon="7.07787">
        <ele>813.79998779297</ele>
        <time>2020-05-27T11:37:20.000Z</time>
      </trkpt>
      <trkpt lat="43.94916" lon="7.07786">
        <ele>813.79998779297</ele>
        <time>2020-05-27T11:37:22.000Z</time>
      </trkpt>
      <trkpt lat="43.94917" lon="7.07784">
        <ele>813.20001220703</ele>
        <time>2020-05-27T11:37:29.000Z</time>
      </trkpt>
      <trkpt lat="43.94918" lon="7.07787">
        <ele>814</ele>
        <time>2020-05-27T11:37:35.000Z</time>
      </trkpt>
      <trkpt lat="43.94921" lon="7.07792">
        <ele>814.59997558594</ele>
        <time>2020-05-27T11:37:41.000Z</time>
      </trkpt>
      <trkpt lat="43.94924" lon="7.07798">
        <ele>815</ele>
        <time>2020-05-27T11:37:45.000Z</time>
      </trkpt>
      <trkpt lat="43.94928" lon="7.07804">
        <ele>815.59997558594</ele>
        <time>2020-05-27T11:37:50.000Z</time>
      </trkpt>
      <trkpt lat="43.94931" lon="7.07807">
        <ele>816</ele>
        <time>2020-05-27T11:37:53.000Z</time>
      </trkpt>
      <trkpt lat="43.94934" lon="7.07813">
        <ele>816.40002441406</ele>
        <time>2020-05-27T11:37:56.000Z</time>
      </trkpt>
      <trkpt lat="43.9493" lon="7.07823">
        <ele>816.79998779297</ele>
        <time>2020-05-27T11:38:01.000Z</time>
      </trkpt>
      <trkpt lat="43.94925" lon="7.07825">
        <ele>817.20001220703</ele>
        <time>2020-05-27T11:38:05.000Z</time>
      </trkpt>
      <trkpt lat="43.94922" lon="7.07826">
        <ele>817.59997558594</ele>
        <time>2020-05-27T11:38:07.000Z</time>
      </trkpt>
      <trkpt lat="43.94916" lon="7.07827">
        <ele>818.20001220703</ele>
        <time>2020-05-27T11:38:11.000Z</time>
      </trkpt>
      <trkpt lat="43.94912" lon="7.07829">
        <ele>818.79998779297</ele>
        <time>2020-05-27T11:38:14.000Z</time>
      </trkpt>
      <trkpt lat="43.94907" lon="7.0783">
        <ele>819.40002441406</ele>
        <time>2020-05-27T11:38:17.000Z</time>
      </trkpt>
      <trkpt lat="43.94905" lon="7.07831">
        <ele>819.59997558594</ele>
        <time>2020-05-27T11:38:19.000Z</time>
      </trkpt>
      <trkpt lat="43.94905" lon="7.07832">
        <ele>819.59997558594</ele>
        <time>2020-05-27T11:38:20.000Z</time>
      </trkpt>
      <trkpt lat="43.94906" lon="7.07836">
        <ele>820</ele>
        <time>2020-05-27T11:38:23.000Z</time>
      </trkpt>
      <trkpt lat="43.94907" lon="7.07836">
        <ele>820.20001220703</ele>
        <time>2020-05-27T11:38:24.000Z</time>
      </trkpt>
      <trkpt lat="43.9491" lon="7.07835">
        <ele>820.40002441406</ele>
        <time>2020-05-27T11:38:26.000Z</time>
      </trkpt>
      <trkpt lat="43.94915" lon="7.07834">
        <ele>821.20001220703</ele>
        <time>2020-05-27T11:38:30.000Z</time>
      </trkpt>
      <trkpt lat="43.94918" lon="7.07834">
        <ele>821.40002441406</ele>
        <time>2020-05-27T11:38:32.000Z</time>
      </trkpt>
      <trkpt lat="43.94926" lon="7.07835">
        <ele>822</ele>
        <time>2020-05-27T11:38:38.000Z</time>
      </trkpt>
      <trkpt lat="43.9493" lon="7.07835">
        <ele>822.59997558594</ele>
        <time>2020-05-27T11:38:41.000Z</time>
      </trkpt>
      <trkpt lat="43.94936" lon="7.07836">
        <ele>823.40002441406</ele>
        <time>2020-05-27T11:38:46.000Z</time>
      </trkpt>
      <trkpt lat="43.94937" lon="7.07836">
        <ele>824</ele>
        <time>2020-05-27T11:38:48.000Z</time>
      </trkpt>
      <trkpt lat="43.94937" lon="7.07836">
        <ele>824.20001220703</ele>
        <time>2020-05-27T11:38:50.000Z</time>
      </trkpt>
      <trkpt lat="43.94941" lon="7.07836">
        <ele>824.40002441406</ele>
        <time>2020-05-27T11:39:05.000Z</time>
      </trkpt>
      <trkpt lat="43.94943" lon="7.07836">
        <ele>825</ele>
        <time>2020-05-27T11:39:09.000Z</time>
      </trkpt>
      <trkpt lat="43.94943" lon="7.07836">
        <ele>825</ele>
        <time>2020-05-27T11:39:10.000Z</time>
      </trkpt>
      <trkpt lat="43.94947" lon="7.07831">
        <ele>825.20001220703</ele>
        <time>2020-05-27T11:39:16.000Z</time>
      </trkpt>
      <trkpt lat="43.94948" lon="7.07829">
        <ele>825.40002441406</ele>
        <time>2020-05-27T11:39:18.000Z</time>
      </trkpt>
      <trkpt lat="43.94949" lon="7.07824">
        <ele>826</ele>
        <time>2020-05-27T11:39:21.000Z</time>
      </trkpt>
      <trkpt lat="43.94951" lon="7.07817">
        <ele>827.20001220703</ele>
        <time>2020-05-27T11:39:27.000Z</time>
      </trkpt>
      <trkpt lat="43.94954" lon="7.07812">
        <ele>827.79998779297</ele>
        <time>2020-05-27T11:39:33.000Z</time>
      </trkpt>
      <trkpt lat="43.94955" lon="7.0781">
        <ele>828.20001220703</ele>
        <time>2020-05-27T11:39:35.000Z</time>
      </trkpt>
      <trkpt lat="43.94956" lon="7.07803">
        <ele>829</ele>
        <time>2020-05-27T11:39:42.000Z</time>
      </trkpt>
      <trkpt lat="43.94955" lon="7.078">
        <ele>829.20001220703</ele>
        <time>2020-05-27T11:39:46.000Z</time>
      </trkpt>
      <trkpt lat="43.94954" lon="7.07798">
        <ele>829.59997558594</ele>
        <time>2020-05-27T11:39:49.000Z</time>
      </trkpt>
      <trkpt lat="43.94951" lon="7.07792">
        <ele>830.20001220703</ele>
        <time>2020-05-27T11:39:55.000Z</time>
      </trkpt>
      <trkpt lat="43.94949" lon="7.0779">
        <ele>830.59997558594</ele>
        <time>2020-05-27T11:39:58.000Z</time>
      </trkpt>
      <trkpt lat="43.94947" lon="7.07786">
        <ele>831.20001220703</ele>
        <time>2020-05-27T11:40:01.000Z</time>
      </trkpt>
      <trkpt lat="43.94947" lon="7.07785">
        <ele>831.59997558594</ele>
        <time>2020-05-27T11:40:05.000Z</time>
      </trkpt>
      <trkpt lat="43.94947" lon="7.07782">
        <ele>831.59997558594</ele>
        <time>2020-05-27T11:40:07.000Z</time>
      </trkpt>
      <trkpt lat="43.94945" lon="7.07778">
        <ele>831.79998779297</ele>
        <time>2020-05-27T11:40:10.000Z</time>
      </trkpt>
      <trkpt lat="43.94945" lon="7.07772">
        <ele>832.20001220703</ele>
        <time>2020-05-27T11:40:13.000Z</time>
      </trkpt>
      <trkpt lat="43.94945" lon="7.07772">
        <ele>832.59997558594</ele>
        <time>2020-05-27T11:40:15.000Z</time>
      </trkpt>
      <trkpt lat="43.94944" lon="7.07768">
        <ele>832.79998779297</ele>
        <time>2020-05-27T11:40:20.000Z</time>
      </trkpt>
      <trkpt lat="43.94943" lon="7.07761">
        <ele>833.59997558594</ele>
        <time>2020-05-27T11:40:24.000Z</time>
      </trkpt>
      <trkpt lat="43.94944" lon="7.07753">
        <ele>834.40002441406</ele>
        <time>2020-05-27T11:40:29.000Z</time>
      </trkpt>
      <trkpt lat="43.94945" lon="7.07752">
        <ele>834.59997558594</ele>
        <time>2020-05-27T11:40:30.000Z</time>
      </trkpt>
      <trkpt lat="43.94946" lon="7.07742">
        <ele>835.40002441406</ele>
        <time>2020-05-27T11:40:36.000Z</time>
      </trkpt>
      <trkpt lat="43.94946" lon="7.07738">
        <ele>835.79998779297</ele>
        <time>2020-05-27T11:40:38.000Z</time>
      </trkpt>
      <trkpt lat="43.94949" lon="7.07728">
        <ele>837</ele>
        <time>2020-05-27T11:40:44.000Z</time>
      </trkpt>
      <trkpt lat="43.94951" lon="7.07718">
        <ele>838.20001220703</ele>
        <time>2020-05-27T11:40:50.000Z</time>
      </trkpt>
      <trkpt lat="43.94952" lon="7.07714">
        <ele>838.79998779297</ele>
        <time>2020-05-27T11:40:53.000Z</time>
      </trkpt>
      <trkpt lat="43.94952" lon="7.07714">
        <ele>839</ele>
        <time>2020-05-27T11:40:55.000Z</time>
      </trkpt>
      <trkpt lat="43.94952" lon="7.07713">
        <ele>839.20001220703</ele>
        <time>2020-05-27T11:40:56.000Z</time>
      </trkpt>
      <trkpt lat="43.94952" lon="7.07714">
        <ele>839.59997558594</ele>
        <time>2020-05-27T11:41:02.000Z</time>
      </trkpt>
      <trkpt lat="43.94951" lon="7.07713">
        <ele>839.40002441406</ele>
        <time>2020-05-27T11:41:21.000Z</time>
      </trkpt>
      <trkpt lat="43.94953" lon="7.07706">
        <ele>839.79998779297</ele>
        <time>2020-05-27T11:41:26.000Z</time>
      </trkpt>
      <trkpt lat="43.94954" lon="7.07701">
        <ele>840.40002441406</ele>
        <time>2020-05-27T11:41:29.000Z</time>
      </trkpt>
      <trkpt lat="43.94956" lon="7.07693">
        <ele>841.20001220703</ele>
        <time>2020-05-27T11:41:34.000Z</time>
      </trkpt>
      <trkpt lat="43.94957" lon="7.07692">
        <ele>841.59997558594</ele>
        <time>2020-05-27T11:41:35.000Z</time>
      </trkpt>
      <trkpt lat="43.94957" lon="7.0769">
        <ele>841.79998779297</ele>
        <time>2020-05-27T11:41:36.000Z</time>
      </trkpt>
      <trkpt lat="43.94958" lon="7.07685">
        <ele>842.59997558594</ele>
        <time>2020-05-27T11:41:39.000Z</time>
      </trkpt>
      <trkpt lat="43.94958" lon="7.07684">
        <ele>842.40002441406</ele>
        <time>2020-05-27T11:41:40.000Z</time>
      </trkpt>
      <trkpt lat="43.94961" lon="7.07675">
        <ele>843.40002441406</ele>
        <time>2020-05-27T11:41:46.000Z</time>
      </trkpt>
      <trkpt lat="43.94961" lon="7.07673">
        <ele>843.79998779297</ele>
        <time>2020-05-27T11:41:47.000Z</time>
      </trkpt>
      <trkpt lat="43.94964" lon="7.07665">
        <ele>844.79998779297</ele>
        <time>2020-05-27T11:41:53.000Z</time>
      </trkpt>
      <trkpt lat="43.94964" lon="7.07663">
        <ele>845</ele>
        <time>2020-05-27T11:41:54.000Z</time>
      </trkpt>
      <trkpt lat="43.94967" lon="7.07657">
        <ele>846</ele>
        <time>2020-05-27T11:41:59.000Z</time>
      </trkpt>
      <trkpt lat="43.94967" lon="7.07656">
        <ele>846.20001220703</ele>
        <time>2020-05-27T11:42:00.000Z</time>
      </trkpt>
      <trkpt lat="43.9497" lon="7.0765">
        <ele>847</ele>
        <time>2020-05-27T11:42:05.000Z</time>
      </trkpt>
      <trkpt lat="43.94971" lon="7.07649">
        <ele>847.20001220703</ele>
        <time>2020-05-27T11:42:06.000Z</time>
      </trkpt>
      <trkpt lat="43.94974" lon="7.0764">
        <ele>848.20001220703</ele>
        <time>2020-05-27T11:42:12.000Z</time>
      </trkpt>
      <trkpt lat="43.94978" lon="7.07633">
        <ele>849.40002441406</ele>
        <time>2020-05-27T11:42:18.000Z</time>
      </trkpt>
      <trkpt lat="43.94979" lon="7.07632">
        <ele>849.59997558594</ele>
        <time>2020-05-27T11:42:19.000Z</time>
      </trkpt>
      <trkpt lat="43.94982" lon="7.07626">
        <ele>850.40002441406</ele>
        <time>2020-05-27T11:42:24.000Z</time>
      </trkpt>
      <trkpt lat="43.94984" lon="7.07624">
        <ele>850.59997558594</ele>
        <time>2020-05-27T11:42:26.000Z</time>
      </trkpt>
      <trkpt lat="43.94988" lon="7.07618">
        <ele>851.59997558594</ele>
        <time>2020-05-27T11:42:31.000Z</time>
      </trkpt>
      <trkpt lat="43.94989" lon="7.07616">
        <ele>851.79998779297</ele>
        <time>2020-05-27T11:42:33.000Z</time>
      </trkpt>
      <trkpt lat="43.9499" lon="7.07615">
        <ele>852.59997558594</ele>
        <time>2020-05-27T11:42:37.000Z</time>
      </trkpt>
      <trkpt lat="43.9499" lon="7.07615">
        <ele>852.79998779297</ele>
        <time>2020-05-27T11:42:38.000Z</time>
      </trkpt>
      <trkpt lat="43.94991" lon="7.07613">
        <ele>853</ele>
        <time>2020-05-27T11:42:43.000Z</time>
      </trkpt>
      <trkpt lat="43.94995" lon="7.07608">
        <ele>853.79998779297</ele>
        <time>2020-05-27T11:42:50.000Z</time>
      </trkpt>
      <trkpt lat="43.94995" lon="7.07607">
        <ele>854</ele>
        <time>2020-05-27T11:42:51.000Z</time>
      </trkpt>
      <trkpt lat="43.94998" lon="7.07603">
        <ele>854.79998779297</ele>
        <time>2020-05-27T11:42:56.000Z</time>
      </trkpt>
      <trkpt lat="43.95" lon="7.076">
        <ele>855</ele>
        <time>2020-05-27T11:43:00.000Z</time>
      </trkpt>
      <trkpt lat="43.95003" lon="7.07594">
        <ele>856</ele>
        <time>2020-05-27T11:43:07.000Z</time>
      </trkpt>
      <trkpt lat="43.95004" lon="7.07593">
        <ele>856.20001220703</ele>
        <time>2020-05-27T11:43:09.000Z</time>
      </trkpt>
      <trkpt lat="43.95006" lon="7.07589">
        <ele>857</ele>
        <time>2020-05-27T11:43:15.000Z</time>
      </trkpt>
      <trkpt lat="43.95006" lon="7.07589">
        <ele>857.20001220703</ele>
        <time>2020-05-27T11:43:17.000Z</time>
      </trkpt>
      <trkpt lat="43.95006" lon="7.07589">
        <ele>857.40002441406</ele>
        <time>2020-05-27T11:43:26.000Z</time>
      </trkpt>
      <trkpt lat="43.95009" lon="7.07584">
        <ele>857.40002441406</ele>
        <time>2020-05-27T11:43:33.000Z</time>
      </trkpt>
      <trkpt lat="43.95012" lon="7.07579">
        <ele>858.20001220703</ele>
        <time>2020-05-27T11:43:37.000Z</time>
      </trkpt>
      <trkpt lat="43.95014" lon="7.07576">
        <ele>858.59997558594</ele>
        <time>2020-05-27T11:43:39.000Z</time>
      </trkpt>
      <trkpt lat="43.95017" lon="7.0757">
        <ele>859.40002441406</ele>
        <time>2020-05-27T11:43:43.000Z</time>
      </trkpt>
      <trkpt lat="43.95021" lon="7.07566">
        <ele>860.20001220703</ele>
        <time>2020-05-27T11:43:47.000Z</time>
      </trkpt>
      <trkpt lat="43.95022" lon="7.07565">
        <ele>860.40002441406</ele>
        <time>2020-05-27T11:43:48.000Z</time>
      </trkpt>
      <trkpt lat="43.95029" lon="7.0756">
        <ele>861.40002441406</ele>
        <time>2020-05-27T11:43:54.000Z</time>
      </trkpt>
      <trkpt lat="43.95031" lon="7.07558">
        <ele>862.59997558594</ele>
        <time>2020-05-27T11:44:00.000Z</time>
      </trkpt>
      <trkpt lat="43.95031" lon="7.07558">
        <ele>862.79998779297</ele>
        <time>2020-05-27T11:44:14.000Z</time>
      </trkpt>
      <trkpt lat="43.95032" lon="7.07556">
        <ele>862.59997558594</ele>
        <time>2020-05-27T11:44:20.000Z</time>
      </trkpt>
      <trkpt lat="43.95035" lon="7.07555">
        <ele>863</ele>
        <time>2020-05-27T11:44:28.000Z</time>
      </trkpt>
      <trkpt lat="43.95035" lon="7.07555">
        <ele>863.59997558594</ele>
        <time>2020-05-27T11:44:32.000Z</time>
      </trkpt>
      <trkpt lat="43.95035" lon="7.07555">
        <ele>863.79998779297</ele>
        <time>2020-05-27T11:44:33.000Z</time>
      </trkpt>
      <trkpt lat="43.95037" lon="7.07554">
        <ele>863.59997558594</ele>
        <time>2020-05-27T11:44:37.000Z</time>
      </trkpt>
      <trkpt lat="43.95038" lon="7.07554">
        <ele>863.79998779297</ele>
        <time>2020-05-27T11:44:38.000Z</time>
      </trkpt>
      <trkpt lat="43.95046" lon="7.07549">
        <ele>864.59997558594</ele>
        <time>2020-05-27T11:44:45.000Z</time>
      </trkpt>
      <trkpt lat="43.95049" lon="7.07548">
        <ele>864.79998779297</ele>
        <time>2020-05-27T11:44:47.000Z</time>
      </trkpt>
      <trkpt lat="43.95053" lon="7.07546">
        <ele>866</ele>
        <time>2020-05-27T11:44:51.000Z</time>
      </trkpt>
      <trkpt lat="43.95054" lon="7.07545">
        <ele>866.20001220703</ele>
        <time>2020-05-27T11:44:52.000Z</time>
      </trkpt>
      <trkpt lat="43.95059" lon="7.07541">
        <ele>867</ele>
        <time>2020-05-27T11:44:57.000Z</time>
      </trkpt>
      <trkpt lat="43.95061" lon="7.07539">
        <ele>867.40002441406</ele>
        <time>2020-05-27T11:44:59.000Z</time>
      </trkpt>
      <trkpt lat="43.95066" lon="7.07534">
        <ele>868.20001220703</ele>
        <time>2020-05-27T11:45:04.000Z</time>
      </trkpt>
      <trkpt lat="43.95067" lon="7.07531">
        <ele>868.59997558594</ele>
        <time>2020-05-27T11:45:06.000Z</time>
      </trkpt>
      <trkpt lat="43.95069" lon="7.07526">
        <ele>869.40002441406</ele>
        <time>2020-05-27T11:45:09.000Z</time>
      </trkpt>
      <trkpt lat="43.95072" lon="7.07523">
        <ele>870</ele>
        <time>2020-05-27T11:45:12.000Z</time>
      </trkpt>
      <trkpt lat="43.95075" lon="7.07521">
        <ele>870.59997558594</ele>
        <time>2020-05-27T11:45:15.000Z</time>
      </trkpt>
      <trkpt lat="43.95079" lon="7.07518">
        <ele>871.20001220703</ele>
        <time>2020-05-27T11:45:19.000Z</time>
      </trkpt>
      <trkpt lat="43.95082" lon="7.07516">
        <ele>871.79998779297</ele>
        <time>2020-05-27T11:45:22.000Z</time>
      </trkpt>
      <trkpt lat="43.95086" lon="7.07515">
        <ele>872.79998779297</ele>
        <time>2020-05-27T11:45:26.000Z</time>
      </trkpt>
      <trkpt lat="43.95087" lon="7.07514">
        <ele>873</ele>
        <time>2020-05-27T11:45:27.000Z</time>
      </trkpt>
      <trkpt lat="43.95091" lon="7.07514">
        <ele>873.59997558594</ele>
        <time>2020-05-27T11:45:31.000Z</time>
      </trkpt>
      <trkpt lat="43.95091" lon="7.07514">
        <ele>874</ele>
        <time>2020-05-27T11:45:33.000Z</time>
      </trkpt>
      <trkpt lat="43.95094" lon="7.07514">
        <ele>874</ele>
        <time>2020-05-27T11:45:40.000Z</time>
      </trkpt>
      <trkpt lat="43.95098" lon="7.07516">
        <ele>875</ele>
        <time>2020-05-27T11:45:46.000Z</time>
      </trkpt>
      <trkpt lat="43.95099" lon="7.07516">
        <ele>875.40002441406</ele>
        <time>2020-05-27T11:45:48.000Z</time>
      </trkpt>
      <trkpt lat="43.95099" lon="7.07516">
        <ele>875.40002441406</ele>
        <time>2020-05-27T11:45:52.000Z</time>
      </trkpt>
      <trkpt lat="43.95101" lon="7.07516">
        <ele>875.40002441406</ele>
        <time>2020-05-27T11:45:58.000Z</time>
      </trkpt>
      <trkpt lat="43.951" lon="7.07515">
        <ele>875.40002441406</ele>
        <time>2020-05-27T11:46:04.000Z</time>
      </trkpt>
      <trkpt lat="43.951" lon="7.07515">
        <ele>874.79998779297</ele>
        <time>2020-05-27T11:46:09.000Z</time>
      </trkpt>
      <trkpt lat="43.951" lon="7.07516">
        <ele>875.20001220703</ele>
        <time>2020-05-27T11:46:14.000Z</time>
      </trkpt>
      <trkpt lat="43.951" lon="7.07515">
        <ele>875.40002441406</ele>
        <time>2020-05-27T11:46:15.000Z</time>
      </trkpt>
      <trkpt lat="43.95101" lon="7.07515">
        <ele>875.79998779297</ele>
        <time>2020-05-27T11:46:19.000Z</time>
      </trkpt>
      <trkpt lat="43.95102" lon="7.07515">
        <ele>875.79998779297</ele>
        <time>2020-05-27T11:46:25.000Z</time>
      </trkpt>
      <trkpt lat="43.95104" lon="7.07516">
        <ele>875.79998779297</ele>
        <time>2020-05-27T11:46:27.000Z</time>
      </trkpt>
      <trkpt lat="43.95109" lon="7.07519">
        <ele>876.20001220703</ele>
        <time>2020-05-27T11:46:31.000Z</time>
      </trkpt>
      <trkpt lat="43.95111" lon="7.07521">
        <ele>876.79998779297</ele>
        <time>2020-05-27T11:46:34.000Z</time>
      </trkpt>
      <trkpt lat="43.95116" lon="7.07523">
        <ele>877.20001220703</ele>
        <time>2020-05-27T11:46:38.000Z</time>
      </trkpt>
      <trkpt lat="43.95117" lon="7.07523">
        <ele>877.59997558594</ele>
        <time>2020-05-27T11:46:39.000Z</time>
      </trkpt>
      <trkpt lat="43.95121" lon="7.07523">
        <ele>878.40002441406</ele>
        <time>2020-05-27T11:46:42.000Z</time>
      </trkpt>
      <trkpt lat="43.95126" lon="7.07523">
        <ele>879.20001220703</ele>
        <time>2020-05-27T11:46:46.000Z</time>
      </trkpt>
      <trkpt lat="43.95129" lon="7.07522">
        <ele>879.40002441406</ele>
        <time>2020-05-27T11:46:48.000Z</time>
      </trkpt>
      <trkpt lat="43.95135" lon="7.07522">
        <ele>880.59997558594</ele>
        <time>2020-05-27T11:46:53.000Z</time>
      </trkpt>
      <trkpt lat="43.95141" lon="7.07524">
        <ele>881.59997558594</ele>
        <time>2020-05-27T11:46:58.000Z</time>
      </trkpt>
      <trkpt lat="43.95142" lon="7.07524">
        <ele>881.79998779297</ele>
        <time>2020-05-27T11:46:59.000Z</time>
      </trkpt>
      <trkpt lat="43.95142" lon="7.07524">
        <ele>882.40002441406</ele>
        <time>2020-05-27T11:47:04.000Z</time>
      </trkpt>
      <trkpt lat="43.95142" lon="7.07524">
        <ele>882.79998779297</ele>
        <time>2020-05-27T11:47:09.000Z</time>
      </trkpt>
      <trkpt lat="43.95142" lon="7.07524">
        <ele>882.79998779297</ele>
        <time>2020-05-27T11:47:31.000Z</time>
      </trkpt>
      <trkpt lat="43.95144" lon="7.07524">
        <ele>882.79998779297</ele>
        <time>2020-05-27T11:47:32.000Z</time>
      </trkpt>
      <trkpt lat="43.95148" lon="7.07523">
        <ele>883</ele>
        <time>2020-05-27T11:47:36.000Z</time>
      </trkpt>
      <trkpt lat="43.95155" lon="7.07522">
        <ele>884</ele>
        <time>2020-05-27T11:47:41.000Z</time>
      </trkpt>
      <trkpt lat="43.95159" lon="7.07521">
        <ele>884.79998779297</ele>
        <time>2020-05-27T11:47:45.000Z</time>
      </trkpt>
      <trkpt lat="43.9516" lon="7.07521">
        <ele>885</ele>
        <time>2020-05-27T11:47:46.000Z</time>
      </trkpt>
      <trkpt lat="43.95166" lon="7.0752">
        <ele>886.40002441406</ele>
        <time>2020-05-27T11:47:51.000Z</time>
      </trkpt>
      <trkpt lat="43.95168" lon="7.07519">
        <ele>886.79998779297</ele>
        <time>2020-05-27T11:47:53.000Z</time>
      </trkpt>
      <trkpt lat="43.95171" lon="7.07516">
        <ele>887.40002441406</ele>
        <time>2020-05-27T11:47:56.000Z</time>
      </trkpt>
      <trkpt lat="43.95176" lon="7.07509">
        <ele>888.59997558594</ele>
        <time>2020-05-27T11:48:02.000Z</time>
      </trkpt>
      <trkpt lat="43.95178" lon="7.07501">
        <ele>889.79998779297</ele>
        <time>2020-05-27T11:48:07.000Z</time>
      </trkpt>
      <trkpt lat="43.95179" lon="7.07501">
        <ele>890</ele>
        <time>2020-05-27T11:48:08.000Z</time>
      </trkpt>
      <trkpt lat="43.95179" lon="7.07497">
        <ele>890.40002441406</ele>
        <time>2020-05-27T11:48:10.000Z</time>
      </trkpt>
      <trkpt lat="43.95181" lon="7.07494">
        <ele>890.79998779297</ele>
        <time>2020-05-27T11:48:12.000Z</time>
      </trkpt>
      <trkpt lat="43.95182" lon="7.07488">
        <ele>891.59997558594</ele>
        <time>2020-05-27T11:48:16.000Z</time>
      </trkpt>
      <trkpt lat="43.95184" lon="7.07486">
        <ele>892</ele>
        <time>2020-05-27T11:48:18.000Z</time>
      </trkpt>
      <trkpt lat="43.95188" lon="7.07483">
        <ele>892.79998779297</ele>
        <time>2020-05-27T11:48:22.000Z</time>
      </trkpt>
      <trkpt lat="43.9519" lon="7.07482">
        <ele>893</ele>
        <time>2020-05-27T11:48:24.000Z</time>
      </trkpt>
      <trkpt lat="43.95195" lon="7.07481">
        <ele>894</ele>
        <time>2020-05-27T11:48:29.000Z</time>
      </trkpt>
      <trkpt lat="43.95196" lon="7.0748">
        <ele>894.20001220703</ele>
        <time>2020-05-27T11:48:30.000Z</time>
      </trkpt>
      <trkpt lat="43.95203" lon="7.07478">
        <ele>895.40002441406</ele>
        <time>2020-05-27T11:48:37.000Z</time>
      </trkpt>
      <trkpt lat="43.95206" lon="7.07477">
        <ele>895.79998779297</ele>
        <time>2020-05-27T11:48:40.000Z</time>
      </trkpt>
      <trkpt lat="43.95208" lon="7.07477">
        <ele>896.40002441406</ele>
        <time>2020-05-27T11:48:43.000Z</time>
      </trkpt>
      <trkpt lat="43.95209" lon="7.07477">
        <ele>897</ele>
        <time>2020-05-27T11:48:49.000Z</time>
      </trkpt>
      <trkpt lat="43.95211" lon="7.07477">
        <ele>897.20001220703</ele>
        <time>2020-05-27T11:49:12.000Z</time>
      </trkpt>
      <trkpt lat="43.95215" lon="7.07477">
        <ele>897.59997558594</ele>
        <time>2020-05-27T11:49:17.000Z</time>
      </trkpt>
      <trkpt lat="43.95217" lon="7.07476">
        <ele>898.20001220703</ele>
        <time>2020-05-27T11:49:20.000Z</time>
      </trkpt>
      <trkpt lat="43.95218" lon="7.07477">
        <ele>898.59997558594</ele>
        <time>2020-05-27T11:49:23.000Z</time>
      </trkpt>
      <trkpt lat="43.9522" lon="7.07476">
        <ele>899</ele>
        <time>2020-05-27T11:49:27.000Z</time>
      </trkpt>
      <trkpt lat="43.95221" lon="7.07476">
        <ele>899</ele>
        <time>2020-05-27T11:49:30.000Z</time>
      </trkpt>
      <trkpt lat="43.95225" lon="7.07474">
        <ele>899.20001220703</ele>
        <time>2020-05-27T11:49:33.000Z</time>
      </trkpt>
      <trkpt lat="43.95226" lon="7.07473">
        <ele>899.20001220703</ele>
        <time>2020-05-27T11:49:34.000Z</time>
      </trkpt>
      <trkpt lat="43.95228" lon="7.0747">
        <ele>899.79998779297</ele>
        <time>2020-05-27T11:49:37.000Z</time>
      </trkpt>
      <trkpt lat="43.95229" lon="7.07469">
        <ele>900</ele>
        <time>2020-05-27T11:49:38.000Z</time>
      </trkpt>
      <trkpt lat="43.9523" lon="7.07468">
        <ele>900.20001220703</ele>
        <time>2020-05-27T11:49:39.000Z</time>
      </trkpt>
      <trkpt lat="43.95237" lon="7.07465">
        <ele>901</ele>
        <time>2020-05-27T11:49:45.000Z</time>
      </trkpt>
      <trkpt lat="43.95242" lon="7.07456">
        <ele>901.59997558594</ele>
        <time>2020-05-27T11:49:51.000Z</time>
      </trkpt>
      <trkpt lat="43.95243" lon="7.0745">
        <ele>902</ele>
        <time>2020-05-27T11:49:54.000Z</time>
      </trkpt>
      <trkpt lat="43.95243" lon="7.07447">
        <ele>902.40002441406</ele>
        <time>2020-05-27T11:49:56.000Z</time>
      </trkpt>
      <trkpt lat="43.95244" lon="7.07443">
        <ele>903</ele>
        <time>2020-05-27T11:49:58.000Z</time>
      </trkpt>
      <trkpt lat="43.95245" lon="7.07436">
        <ele>903.40002441406</ele>
        <time>2020-05-27T11:50:02.000Z</time>
      </trkpt>
      <trkpt lat="43.95247" lon="7.0743">
        <ele>904.20001220703</ele>
        <time>2020-05-27T11:50:06.000Z</time>
      </trkpt>
      <trkpt lat="43.9525" lon="7.07423">
        <ele>905.40002441406</ele>
        <time>2020-05-27T11:50:11.000Z</time>
      </trkpt>
      <trkpt lat="43.95253" lon="7.07415">
        <ele>906.40002441406</ele>
        <time>2020-05-27T11:50:17.000Z</time>
      </trkpt>
      <trkpt lat="43.95257" lon="7.07408">
        <ele>907.40002441406</ele>
        <time>2020-05-27T11:50:22.000Z</time>
      </trkpt>
      <trkpt lat="43.95258" lon="7.07407">
        <ele>907.59997558594</ele>
        <time>2020-05-27T11:50:23.000Z</time>
      </trkpt>
      <trkpt lat="43.95262" lon="7.07406">
        <ele>908.20001220703</ele>
        <time>2020-05-27T11:50:26.000Z</time>
      </trkpt>
      <trkpt lat="43.95264" lon="7.07405">
        <ele>908.59997558594</ele>
        <time>2020-05-27T11:50:28.000Z</time>
      </trkpt>
      <trkpt lat="43.95266" lon="7.07405">
        <ele>908.79998779297</ele>
        <time>2020-05-27T11:50:30.000Z</time>
      </trkpt>
      <trkpt lat="43.95276" lon="7.07402">
        <ele>909.79998779297</ele>
        <time>2020-05-27T11:50:39.000Z</time>
      </trkpt>
      <trkpt lat="43.95283" lon="7.07401">
        <ele>910.59997558594</ele>
        <time>2020-05-27T11:50:45.000Z</time>
      </trkpt>
      <trkpt lat="43.95286" lon="7.07401">
        <ele>910.79998779297</ele>
        <time>2020-05-27T11:50:47.000Z</time>
      </trkpt>
      <trkpt lat="43.95292" lon="7.07399">
        <ele>911.79998779297</ele>
        <time>2020-05-27T11:50:53.000Z</time>
      </trkpt>
      <trkpt lat="43.95293" lon="7.07399">
        <ele>912</ele>
        <time>2020-05-27T11:50:54.000Z</time>
      </trkpt>
      <trkpt lat="43.953" lon="7.07394">
        <ele>912.79998779297</ele>
        <time>2020-05-27T11:51:01.000Z</time>
      </trkpt>
      <trkpt lat="43.95301" lon="7.07393">
        <ele>913.20001220703</ele>
        <time>2020-05-27T11:51:02.000Z</time>
      </trkpt>
      <trkpt lat="43.95306" lon="7.0739">
        <ele>914</ele>
        <time>2020-05-27T11:51:07.000Z</time>
      </trkpt>
      <trkpt lat="43.95307" lon="7.07391">
        <ele>914.20001220703</ele>
        <time>2020-05-27T11:51:08.000Z</time>
      </trkpt>
      <trkpt lat="43.95307" lon="7.07397">
        <ele>915.20001220703</ele>
        <time>2020-05-27T11:51:13.000Z</time>
      </trkpt>
      <trkpt lat="43.95305" lon="7.074">
        <ele>915.59997558594</ele>
        <time>2020-05-27T11:51:16.000Z</time>
      </trkpt>
      <trkpt lat="43.95305" lon="7.074">
        <ele>915.59997558594</ele>
        <time>2020-05-27T11:51:26.000Z</time>
      </trkpt>
      <trkpt lat="43.95301" lon="7.07406">
        <ele>915.79998779297</ele>
        <time>2020-05-27T11:51:32.000Z</time>
      </trkpt>
      <trkpt lat="43.95298" lon="7.07409">
        <ele>916.40002441406</ele>
        <time>2020-05-27T11:51:35.000Z</time>
      </trkpt>
      <trkpt lat="43.95293" lon="7.07414">
        <ele>917.20001220703</ele>
        <time>2020-05-27T11:51:40.000Z</time>
      </trkpt>
      <trkpt lat="43.95292" lon="7.07415">
        <ele>917.40002441406</ele>
        <time>2020-05-27T11:51:41.000Z</time>
      </trkpt>
      <trkpt lat="43.95285" lon="7.07422">
        <ele>918</ele>
        <time>2020-05-27T11:51:48.000Z</time>
      </trkpt>
      <trkpt lat="43.95281" lon="7.07425">
        <ele>918.59997558594</ele>
        <time>2020-05-27T11:51:51.000Z</time>
      </trkpt>
      <trkpt lat="43.95277" lon="7.0743">
        <ele>919.20001220703</ele>
        <time>2020-05-27T11:51:55.000Z</time>
      </trkpt>
      <trkpt lat="43.95272" lon="7.07435">
        <ele>919.79998779297</ele>
        <time>2020-05-27T11:52:00.000Z</time>
      </trkpt>
      <trkpt lat="43.95269" lon="7.07438">
        <ele>920.20001220703</ele>
        <time>2020-05-27T11:52:03.000Z</time>
      </trkpt>
      <trkpt lat="43.95269" lon="7.07441">
        <ele>920.40002441406</ele>
        <time>2020-05-27T11:52:05.000Z</time>
      </trkpt>
      <trkpt lat="43.95272" lon="7.07442">
        <ele>920.79998779297</ele>
        <time>2020-05-27T11:52:08.000Z</time>
      </trkpt>
      <trkpt lat="43.95274" lon="7.07442">
        <ele>921</ele>
        <time>2020-05-27T11:52:09.000Z</time>
      </trkpt>
      <trkpt lat="43.95278" lon="7.07439">
        <ele>921.79998779297</ele>
        <time>2020-05-27T11:52:13.000Z</time>
      </trkpt>
      <trkpt lat="43.95278" lon="7.07439">
        <ele>922</ele>
        <time>2020-05-27T11:52:14.000Z</time>
      </trkpt>
      <trkpt lat="43.95284" lon="7.07438">
        <ele>923</ele>
        <time>2020-05-27T11:52:18.000Z</time>
      </trkpt>
      <trkpt lat="43.95286" lon="7.07437">
        <ele>923.40002441406</ele>
        <time>2020-05-27T11:52:20.000Z</time>
      </trkpt>
      <trkpt lat="43.95291" lon="7.07436">
        <ele>924.20001220703</ele>
        <time>2020-05-27T11:52:25.000Z</time>
      </trkpt>
      <trkpt lat="43.95292" lon="7.07435">
        <ele>924.40002441406</ele>
        <time>2020-05-27T11:52:26.000Z</time>
      </trkpt>
      <trkpt lat="43.95297" lon="7.07434">
        <ele>925.20001220703</ele>
        <time>2020-05-27T11:52:31.000Z</time>
      </trkpt>
      <trkpt lat="43.95299" lon="7.07434">
        <ele>925.59997558594</ele>
        <time>2020-05-27T11:52:33.000Z</time>
      </trkpt>
      <trkpt lat="43.95305" lon="7.07433">
        <ele>926.20001220703</ele>
        <time>2020-05-27T11:52:38.000Z</time>
      </trkpt>
      <trkpt lat="43.95305" lon="7.07433">
        <ele>926.40002441406</ele>
        <time>2020-05-27T11:52:39.000Z</time>
      </trkpt>
      <trkpt lat="43.95306" lon="7.07433">
        <ele>927</ele>
        <time>2020-05-27T11:52:44.000Z</time>
      </trkpt>
      <trkpt lat="43.9531" lon="7.07433">
        <ele>927.20001220703</ele>
        <time>2020-05-27T11:52:50.000Z</time>
      </trkpt>
      <trkpt lat="43.9531" lon="7.07432">
        <ele>927.40002441406</ele>
        <time>2020-05-27T11:52:51.000Z</time>
      </trkpt>
      <trkpt lat="43.95315" lon="7.0743">
        <ele>928.20001220703</ele>
        <time>2020-05-27T11:52:58.000Z</time>
      </trkpt>
      <trkpt lat="43.95316" lon="7.07429">
        <ele>928.40002441406</ele>
        <time>2020-05-27T11:53:00.000Z</time>
      </trkpt>
      <trkpt lat="43.95321" lon="7.07425">
        <ele>929.20001220703</ele>
        <time>2020-05-27T11:53:08.000Z</time>
      </trkpt>
      <trkpt lat="43.95322" lon="7.07424">
        <ele>929.40002441406</ele>
        <time>2020-05-27T11:53:09.000Z</time>
      </trkpt>
      <trkpt lat="43.95323" lon="7.07423">
        <ele>929.59997558594</ele>
        <time>2020-05-27T11:53:15.000Z</time>
      </trkpt>
      <trkpt lat="43.95328" lon="7.07417">
        <ele>930</ele>
        <time>2020-05-27T11:53:21.000Z</time>
      </trkpt>
      <trkpt lat="43.9533" lon="7.07415">
        <ele>930.40002441406</ele>
        <time>2020-05-27T11:53:23.000Z</time>
      </trkpt>
      <trkpt lat="43.95334" lon="7.07408">
        <ele>931.20001220703</ele>
        <time>2020-05-27T11:53:28.000Z</time>
      </trkpt>
      <trkpt lat="43.95337" lon="7.07407">
        <ele>931.40002441406</ele>
        <time>2020-05-27T11:53:30.000Z</time>
      </trkpt>
      <trkpt lat="43.9534" lon="7.07402">
        <ele>932</ele>
        <time>2020-05-27T11:53:34.000Z</time>
      </trkpt>
      <trkpt lat="43.95343" lon="7.07399">
        <ele>932.59997558594</ele>
        <time>2020-05-27T11:53:37.000Z</time>
      </trkpt>
      <trkpt lat="43.95347" lon="7.07396">
        <ele>933.40002441406</ele>
        <time>2020-05-27T11:53:41.000Z</time>
      </trkpt>
      <trkpt lat="43.95349" lon="7.07393">
        <ele>933.59997558594</ele>
        <time>2020-05-27T11:53:43.000Z</time>
      </trkpt>
      <trkpt lat="43.95354" lon="7.07389">
        <ele>934.79998779297</ele>
        <time>2020-05-27T11:53:48.000Z</time>
      </trkpt>
      <trkpt lat="43.95354" lon="7.07388">
        <ele>935.20001220703</ele>
        <time>2020-05-27T11:53:49.000Z</time>
      </trkpt>
      <trkpt lat="43.9536" lon="7.07382">
        <ele>936</ele>
        <time>2020-05-27T11:53:55.000Z</time>
      </trkpt>
      <trkpt lat="43.9536" lon="7.07381">
        <ele>936.20001220703</ele>
        <time>2020-05-27T11:53:56.000Z</time>
      </trkpt>
      <trkpt lat="43.95362" lon="7.0738">
        <ele>936.40002441406</ele>
        <time>2020-05-27T11:53:58.000Z</time>
      </trkpt>
      <trkpt lat="43.95363" lon="7.0738">
        <ele>936.79998779297</ele>
        <time>2020-05-27T11:54:01.000Z</time>
      </trkpt>
      <trkpt lat="43.95362" lon="7.0738">
        <ele>937</ele>
        <time>2020-05-27T11:54:02.000Z</time>
      </trkpt>
      <trkpt lat="43.95363" lon="7.07379">
        <ele>937.40002441406</ele>
        <time>2020-05-27T11:54:07.000Z</time>
      </trkpt>
      <trkpt lat="43.95364" lon="7.07379">
        <ele>937.40002441406</ele>
        <time>2020-05-27T11:54:27.000Z</time>
      </trkpt>
      <trkpt lat="43.95364" lon="7.07378">
        <ele>937.59997558594</ele>
        <time>2020-05-27T11:54:46.000Z</time>
      </trkpt>
      <trkpt lat="43.95364" lon="7.07377">
        <ele>937.40002441406</ele>
        <time>2020-05-27T11:54:49.000Z</time>
      </trkpt>
      <trkpt lat="43.95367" lon="7.07373">
        <ele>937.40002441406</ele>
        <time>2020-05-27T11:54:52.000Z</time>
      </trkpt>
      <trkpt lat="43.95368" lon="7.07372">
        <ele>937.59997558594</ele>
        <time>2020-05-27T11:54:53.000Z</time>
      </trkpt>
      <trkpt lat="43.95372" lon="7.07369">
        <ele>938.20001220703</ele>
        <time>2020-05-27T11:54:56.000Z</time>
      </trkpt>
      <trkpt lat="43.95375" lon="7.07365">
        <ele>939</ele>
        <time>2020-05-27T11:54:59.000Z</time>
      </trkpt>
      <trkpt lat="43.95376" lon="7.07364">
        <ele>939.20001220703</ele>
        <time>2020-05-27T11:55:00.000Z</time>
      </trkpt>
      <trkpt lat="43.95381" lon="7.07358">
        <ele>940.20001220703</ele>
        <time>2020-05-27T11:55:05.000Z</time>
      </trkpt>
      <trkpt lat="43.95388" lon="7.07354">
        <ele>941.40002441406</ele>
        <time>2020-05-27T11:55:10.000Z</time>
      </trkpt>
      <trkpt lat="43.9539" lon="7.07352">
        <ele>942.20001220703</ele>
        <time>2020-05-27T11:55:13.000Z</time>
      </trkpt>
      <trkpt lat="43.95391" lon="7.07351">
        <ele>942.40002441406</ele>
        <time>2020-05-27T11:55:14.000Z</time>
      </trkpt>
      <trkpt lat="43.95396" lon="7.07346">
        <ele>943.59997558594</ele>
        <time>2020-05-27T11:55:19.000Z</time>
      </trkpt>
      <trkpt lat="43.95397" lon="7.07345">
        <ele>944.40002441406</ele>
        <time>2020-05-27T11:55:24.000Z</time>
      </trkpt>
      <trkpt lat="43.95399" lon="7.07344">
        <ele>944.59997558594</ele>
        <time>2020-05-27T11:55:26.000Z</time>
      </trkpt>
      <trkpt lat="43.95402" lon="7.07342">
        <ele>945.40002441406</ele>
        <time>2020-05-27T11:55:30.000Z</time>
      </trkpt>
      <trkpt lat="43.95404" lon="7.0734">
        <ele>945.79998779297</ele>
        <time>2020-05-27T11:55:33.000Z</time>
      </trkpt>
      <trkpt lat="43.95409" lon="7.07337">
        <ele>946.79998779297</ele>
        <time>2020-05-27T11:55:40.000Z</time>
      </trkpt>
      <trkpt lat="43.95409" lon="7.07337">
        <ele>946.79998779297</ele>
        <time>2020-05-27T11:55:41.000Z</time>
      </trkpt>
      <trkpt lat="43.95409" lon="7.07337">
        <ele>947.20001220703</ele>
        <time>2020-05-27T11:55:47.000Z</time>
      </trkpt>
      <trkpt lat="43.9541" lon="7.07335">
        <ele>947.20001220703</ele>
        <time>2020-05-27T11:55:56.000Z</time>
      </trkpt>
      <trkpt lat="43.95411" lon="7.07334">
        <ele>947.20001220703</ele>
        <time>2020-05-27T11:55:57.000Z</time>
      </trkpt>
      <trkpt lat="43.95414" lon="7.07331">
        <ele>948</ele>
        <time>2020-05-27T11:56:01.000Z</time>
      </trkpt>
      <trkpt lat="43.9542" lon="7.07326">
        <ele>948.79998779297</ele>
        <time>2020-05-27T11:56:07.000Z</time>
      </trkpt>
      <trkpt lat="43.95421" lon="7.07325">
        <ele>949.20001220703</ele>
        <time>2020-05-27T11:56:08.000Z</time>
      </trkpt>
      <trkpt lat="43.95425" lon="7.07319">
        <ele>949.79998779297</ele>
        <time>2020-05-27T11:56:12.000Z</time>
      </trkpt>
      <trkpt lat="43.95427" lon="7.07317">
        <ele>950.40002441406</ele>
        <time>2020-05-27T11:56:14.000Z</time>
      </trkpt>
      <trkpt lat="43.95431" lon="7.07313">
        <ele>951.40002441406</ele>
        <time>2020-05-27T11:56:18.000Z</time>
      </trkpt>
      <trkpt lat="43.9543" lon="7.07314">
        <ele>951.79998779297</ele>
        <time>2020-05-27T11:56:19.000Z</time>
      </trkpt>
      <trkpt lat="43.95432" lon="7.07312">
        <ele>952</ele>
        <time>2020-05-27T11:56:22.000Z</time>
      </trkpt>
      <trkpt lat="43.95433" lon="7.07311">
        <ele>952.40002441406</ele>
        <time>2020-05-27T11:56:24.000Z</time>
      </trkpt>
      <trkpt lat="43.95435" lon="7.0731">
        <ele>952.59997558594</ele>
        <time>2020-05-27T11:56:26.000Z</time>
      </trkpt>
      <trkpt lat="43.95437" lon="7.07309">
        <ele>953.20001220703</ele>
        <time>2020-05-27T11:56:31.000Z</time>
      </trkpt>
      <trkpt lat="43.95439" lon="7.07306">
        <ele>953.79998779297</ele>
        <time>2020-05-27T11:56:34.000Z</time>
      </trkpt>
      <trkpt lat="43.95441" lon="7.07303">
        <ele>954.40002441406</ele>
        <time>2020-05-27T11:56:38.000Z</time>
      </trkpt>
      <trkpt lat="43.95442" lon="7.07303">
        <ele>954.79998779297</ele>
        <time>2020-05-27T11:56:41.000Z</time>
      </trkpt>
      <trkpt lat="43.95445" lon="7.073">
        <ele>955.59997558594</ele>
        <time>2020-05-27T11:56:45.000Z</time>
      </trkpt>
      <trkpt lat="43.95447" lon="7.07299">
        <ele>955.79998779297</ele>
        <time>2020-05-27T11:56:47.000Z</time>
      </trkpt>
      <trkpt lat="43.95452" lon="7.07295">
        <ele>956.79998779297</ele>
        <time>2020-05-27T11:56:54.000Z</time>
      </trkpt>
      <trkpt lat="43.95453" lon="7.07295">
        <ele>957</ele>
        <time>2020-05-27T11:56:55.000Z</time>
      </trkpt>
      <trkpt lat="43.95457" lon="7.07291">
        <ele>957.79998779297</ele>
        <time>2020-05-27T11:57:01.000Z</time>
      </trkpt>
      <trkpt lat="43.95458" lon="7.0729">
        <ele>958</ele>
        <time>2020-05-27T11:57:03.000Z</time>
      </trkpt>
      <trkpt lat="43.95458" lon="7.0729">
        <ele>958.59997558594</ele>
        <time>2020-05-27T11:57:08.000Z</time>
      </trkpt>
      <trkpt lat="43.95458" lon="7.0729">
        <ele>958.59997558594</ele>
        <time>2020-05-27T11:57:15.000Z</time>
      </trkpt>
      <trkpt lat="43.9546" lon="7.07289">
        <ele>958.40002441406</ele>
        <time>2020-05-27T11:57:25.000Z</time>
      </trkpt>
      <trkpt lat="43.95465" lon="7.07283">
        <ele>959</ele>
        <time>2020-05-27T11:57:30.000Z</time>
      </trkpt>
      <trkpt lat="43.95466" lon="7.07282">
        <ele>959.20001220703</ele>
        <time>2020-05-27T11:57:31.000Z</time>
      </trkpt>
      <trkpt lat="43.95473" lon="7.07276">
        <ele>960.20001220703</ele>
        <time>2020-05-27T11:57:37.000Z</time>
      </trkpt>
      <trkpt lat="43.95474" lon="7.07275">
        <ele>960.40002441406</ele>
        <time>2020-05-27T11:57:38.000Z</time>
      </trkpt>
      <trkpt lat="43.95483" lon="7.07267">
        <ele>961.20001220703</ele>
        <time>2020-05-27T11:57:46.000Z</time>
      </trkpt>
      <trkpt lat="43.95484" lon="7.07266">
        <ele>961.40002441406</ele>
        <time>2020-05-27T11:57:47.000Z</time>
      </trkpt>
      <trkpt lat="43.95492" lon="7.0726">
        <ele>962.59997558594</ele>
        <time>2020-05-27T11:57:53.000Z</time>
      </trkpt>
      <trkpt lat="43.95493" lon="7.07259">
        <ele>962.79998779297</ele>
        <time>2020-05-27T11:57:54.000Z</time>
      </trkpt>
      <trkpt lat="43.95502" lon="7.07254">
        <ele>963.59997558594</ele>
        <time>2020-05-27T11:58:01.000Z</time>
      </trkpt>
      <trkpt lat="43.95505" lon="7.07253">
        <ele>963.79998779297</ele>
        <time>2020-05-27T11:58:03.000Z</time>
      </trkpt>
      <trkpt lat="43.9551" lon="7.07248">
        <ele>964.79998779297</ele>
        <time>2020-05-27T11:58:08.000Z</time>
      </trkpt>
      <trkpt lat="43.95513" lon="7.07247">
        <ele>965.20001220703</ele>
        <time>2020-05-27T11:58:10.000Z</time>
      </trkpt>
      <trkpt lat="43.95518" lon="7.07244">
        <ele>965.79998779297</ele>
        <time>2020-05-27T11:58:14.000Z</time>
      </trkpt>
      <trkpt lat="43.95521" lon="7.07241">
        <ele>966.20001220703</ele>
        <time>2020-05-27T11:58:17.000Z</time>
      </trkpt>
      <trkpt lat="43.95528" lon="7.07236">
        <ele>967</ele>
        <time>2020-05-27T11:58:23.000Z</time>
      </trkpt>
      <trkpt lat="43.9553" lon="7.07235">
        <ele>967.20001220703</ele>
        <time>2020-05-27T11:58:24.000Z</time>
      </trkpt>
      <trkpt lat="43.95535" lon="7.07231">
        <ele>968.20001220703</ele>
        <time>2020-05-27T11:58:29.000Z</time>
      </trkpt>
      <trkpt lat="43.95538" lon="7.0723">
        <ele>968.40002441406</ele>
        <time>2020-05-27T11:58:31.000Z</time>
      </trkpt>
      <trkpt lat="43.95548" lon="7.07224">
        <ele>969</ele>
        <time>2020-05-27T11:58:39.000Z</time>
      </trkpt>
      <trkpt lat="43.95549" lon="7.07223">
        <ele>969.20001220703</ele>
        <time>2020-05-27T11:58:40.000Z</time>
      </trkpt>
      <trkpt lat="43.95554" lon="7.07219">
        <ele>970.40002441406</ele>
        <time>2020-05-27T11:58:45.000Z</time>
      </trkpt>
      <trkpt lat="43.95566" lon="7.07214">
        <ele>971.40002441406</ele>
        <time>2020-05-27T11:58:54.000Z</time>
      </trkpt>
      <trkpt lat="43.95575" lon="7.07211">
        <ele>972.40002441406</ele>
        <time>2020-05-27T11:59:01.000Z</time>
      </trkpt>
      <trkpt lat="43.95576" lon="7.07211">
        <ele>972.59997558594</ele>
        <time>2020-05-27T11:59:02.000Z</time>
      </trkpt>
      <trkpt lat="43.95583" lon="7.07209">
        <ele>973.59997558594</ele>
        <time>2020-05-27T11:59:07.000Z</time>
      </trkpt>
      <trkpt lat="43.95586" lon="7.07208">
        <ele>973.79998779297</ele>
        <time>2020-05-27T11:59:09.000Z</time>
      </trkpt>
      <trkpt lat="43.95588" lon="7.07207">
        <ele>973.79998779297</ele>
        <time>2020-05-27T11:59:11.000Z</time>
      </trkpt>
      <trkpt lat="43.95592" lon="7.07206">
        <ele>974.20001220703</ele>
        <time>2020-05-27T11:59:14.000Z</time>
      </trkpt>
      <trkpt lat="43.95593" lon="7.07206">
        <ele>974.40002441406</ele>
        <time>2020-05-27T11:59:15.000Z</time>
      </trkpt>
      <trkpt lat="43.95594" lon="7.07206">
        <ele>974.59997558594</ele>
        <time>2020-05-27T11:59:16.000Z</time>
      </trkpt>
      <trkpt lat="43.95595" lon="7.07205">
        <ele>974.79998779297</ele>
        <time>2020-05-27T11:59:17.000Z</time>
      </trkpt>
      <trkpt lat="43.95599" lon="7.07205">
        <ele>975.40002441406</ele>
        <time>2020-05-27T11:59:21.000Z</time>
      </trkpt>
      <trkpt lat="43.95602" lon="7.07204">
        <ele>975.79998779297</ele>
        <time>2020-05-27T11:59:23.000Z</time>
      </trkpt>
      <trkpt lat="43.95609" lon="7.07204">
        <ele>976.59997558594</ele>
        <time>2020-05-27T11:59:28.000Z</time>
      </trkpt>
      <trkpt lat="43.95613" lon="7.07203">
        <ele>976.79998779297</ele>
        <time>2020-05-27T11:59:31.000Z</time>
      </trkpt>
      <trkpt lat="43.95618" lon="7.07203">
        <ele>977.59997558594</ele>
        <time>2020-05-27T11:59:35.000Z</time>
      </trkpt>
      <trkpt lat="43.95619" lon="7.07203">
        <ele>977.79998779297</ele>
        <time>2020-05-27T11:59:36.000Z</time>
      </trkpt>
      <trkpt lat="43.95627" lon="7.07204">
        <ele>979</ele>
        <time>2020-05-27T11:59:43.000Z</time>
      </trkpt>
      <trkpt lat="43.95631" lon="7.07204">
        <ele>979.20001220703</ele>
        <time>2020-05-27T11:59:46.000Z</time>
      </trkpt>
      <trkpt lat="43.95639" lon="7.07205">
        <ele>980</ele>
        <time>2020-05-27T11:59:52.000Z</time>
      </trkpt>
      <trkpt lat="43.95641" lon="7.07205">
        <ele>980.20001220703</ele>
        <time>2020-05-27T11:59:53.000Z</time>
      </trkpt>
      <trkpt lat="43.95647" lon="7.07205">
        <ele>981</ele>
        <time>2020-05-27T11:59:58.000Z</time>
      </trkpt>
      <trkpt lat="43.9565" lon="7.07206">
        <ele>981.59997558594</ele>
        <time>2020-05-27T12:00:01.000Z</time>
      </trkpt>
      <trkpt lat="43.95653" lon="7.07206">
        <ele>982</ele>
        <time>2020-05-27T12:00:03.000Z</time>
      </trkpt>
      <trkpt lat="43.95659" lon="7.07207">
        <ele>982.79998779297</ele>
        <time>2020-05-27T12:00:09.000Z</time>
      </trkpt>
      <trkpt lat="43.95659" lon="7.07206">
        <ele>983</ele>
        <time>2020-05-27T12:00:10.000Z</time>
      </trkpt>
      <trkpt lat="43.95661" lon="7.07207">
        <ele>983.20001220703</ele>
        <time>2020-05-27T12:00:11.000Z</time>
      </trkpt>
      <trkpt lat="43.95665" lon="7.07207">
        <ele>984</ele>
        <time>2020-05-27T12:00:15.000Z</time>
      </trkpt>
      <trkpt lat="43.95666" lon="7.07207">
        <ele>984.20001220703</ele>
        <time>2020-05-27T12:00:16.000Z</time>
      </trkpt>
      <trkpt lat="43.95672" lon="7.07208">
        <ele>985</ele>
        <time>2020-05-27T12:00:22.000Z</time>
      </trkpt>
      <trkpt lat="43.95673" lon="7.07209">
        <ele>985.40002441406</ele>
        <time>2020-05-27T12:00:23.000Z</time>
      </trkpt>
      <trkpt lat="43.95676" lon="7.07209">
        <ele>986.20001220703</ele>
        <time>2020-05-27T12:00:28.000Z</time>
      </trkpt>
      <trkpt lat="43.95677" lon="7.0721">
        <ele>986.40002441406</ele>
        <time>2020-05-27T12:00:29.000Z</time>
      </trkpt>
      <trkpt lat="43.95677" lon="7.0721">
        <ele>986.79998779297</ele>
        <time>2020-05-27T12:00:39.000Z</time>
      </trkpt>
      <trkpt lat="43.95677" lon="7.07209">
        <ele>986.79998779297</ele>
        <time>2020-05-27T12:00:49.000Z</time>
      </trkpt>
      <trkpt lat="43.9568" lon="7.07209">
        <ele>987</ele>
        <time>2020-05-27T12:00:56.000Z</time>
      </trkpt>
      <trkpt lat="43.95687" lon="7.07209">
        <ele>987.20001220703</ele>
        <time>2020-05-27T12:01:02.000Z</time>
      </trkpt>
      <trkpt lat="43.95688" lon="7.07208">
        <ele>987.40002441406</ele>
        <time>2020-05-27T12:01:03.000Z</time>
      </trkpt>
      <trkpt lat="43.95694" lon="7.07208">
        <ele>988.40002441406</ele>
        <time>2020-05-27T12:01:08.000Z</time>
      </trkpt>
      <trkpt lat="43.95695" lon="7.07208">
        <ele>988.59997558594</ele>
        <time>2020-05-27T12:01:09.000Z</time>
      </trkpt>
      <trkpt lat="43.95701" lon="7.07207">
        <ele>989.59997558594</ele>
        <time>2020-05-27T12:01:15.000Z</time>
      </trkpt>
      <trkpt lat="43.95703" lon="7.07207">
        <ele>989.79998779297</ele>
        <time>2020-05-27T12:01:16.000Z</time>
      </trkpt>
      <trkpt lat="43.95712" lon="7.07209">
        <ele>990.79998779297</ele>
        <time>2020-05-27T12:01:23.000Z</time>
      </trkpt>
      <trkpt lat="43.95714" lon="7.07208">
        <ele>991.40002441406</ele>
        <time>2020-05-27T12:01:25.000Z</time>
      </trkpt>
      <trkpt lat="43.95718" lon="7.07208">
        <ele>992</ele>
        <time>2020-05-27T12:01:28.000Z</time>
      </trkpt>
      <trkpt lat="43.95723" lon="7.07207">
        <ele>992.79998779297</ele>
        <time>2020-05-27T12:01:32.000Z</time>
      </trkpt>
      <trkpt lat="43.95725" lon="7.07206">
        <ele>993.20001220703</ele>
        <time>2020-05-27T12:01:34.000Z</time>
      </trkpt>
      <trkpt lat="43.95733" lon="7.07203">
        <ele>994.20001220703</ele>
        <time>2020-05-27T12:01:40.000Z</time>
      </trkpt>
      <trkpt lat="43.95739" lon="7.07203">
        <ele>995.40002441406</ele>
        <time>2020-05-27T12:01:47.000Z</time>
      </trkpt>
      <trkpt lat="43.95743" lon="7.072">
        <ele>996</ele>
        <time>2020-05-27T12:01:53.000Z</time>
      </trkpt>
      <trkpt lat="43.95746" lon="7.07198">
        <ele>996.40002441406</ele>
        <time>2020-05-27T12:01:57.000Z</time>
      </trkpt>
      <trkpt lat="43.9575" lon="7.07197">
        <ele>997.20001220703</ele>
        <time>2020-05-27T12:02:02.000Z</time>
      </trkpt>
      <trkpt lat="43.95751" lon="7.07196">
        <ele>997.59997558594</ele>
        <time>2020-05-27T12:02:04.000Z</time>
      </trkpt>
      <trkpt lat="43.95755" lon="7.07194">
        <ele>998.20001220703</ele>
        <time>2020-05-27T12:02:09.000Z</time>
      </trkpt>
      <trkpt lat="43.95758" lon="7.07191">
        <ele>998.59997558594</ele>
        <time>2020-05-27T12:02:14.000Z</time>
      </trkpt>
      <trkpt lat="43.95761" lon="7.0719">
        <ele>999</ele>
        <time>2020-05-27T12:02:17.000Z</time>
      </trkpt>
      <trkpt lat="43.95764" lon="7.07188">
        <ele>999.59997558594</ele>
        <time>2020-05-27T12:02:20.000Z</time>
      </trkpt>
      <trkpt lat="43.95769" lon="7.07184">
        <ele>1000.4000244141</ele>
        <time>2020-05-27T12:02:27.000Z</time>
      </trkpt>
      <trkpt lat="43.95771" lon="7.07183">
        <ele>1000.799987793</ele>
        <time>2020-05-27T12:02:30.000Z</time>
      </trkpt>
      <trkpt lat="43.95775" lon="7.0718">
        <ele>1001.4000244141</ele>
        <time>2020-05-27T12:02:34.000Z</time>
      </trkpt>
      <trkpt lat="43.95776" lon="7.0718">
        <ele>1001.799987793</ele>
        <time>2020-05-27T12:02:36.000Z</time>
      </trkpt>
      <trkpt lat="43.9578" lon="7.07179">
        <ele>1002.5999755859</ele>
        <time>2020-05-27T12:02:42.000Z</time>
      </trkpt>
      <trkpt lat="43.95784" lon="7.0718">
        <ele>1003</ele>
        <time>2020-05-27T12:02:48.000Z</time>
      </trkpt>
      <trkpt lat="43.95788" lon="7.07183">
        <ele>1004</ele>
        <time>2020-05-27T12:02:54.000Z</time>
      </trkpt>
      <trkpt lat="43.95788" lon="7.07184">
        <ele>1004</ele>
        <time>2020-05-27T12:02:55.000Z</time>
      </trkpt>
      <trkpt lat="43.95791" lon="7.07186">
        <ele>1004.200012207</ele>
        <time>2020-05-27T12:03:04.000Z</time>
      </trkpt>
      <trkpt lat="43.95795" lon="7.07191">
        <ele>1004.799987793</ele>
        <time>2020-05-27T12:03:09.000Z</time>
      </trkpt>
      <trkpt lat="43.95796" lon="7.07192">
        <ele>1004.799987793</ele>
        <time>2020-05-27T12:03:10.000Z</time>
      </trkpt>
      <trkpt lat="43.95798" lon="7.07192">
        <ele>1005</ele>
        <time>2020-05-27T12:03:11.000Z</time>
      </trkpt>
      <trkpt lat="43.95804" lon="7.07189">
        <ele>1005.799987793</ele>
        <time>2020-05-27T12:03:16.000Z</time>
      </trkpt>
      <trkpt lat="43.95806" lon="7.07186">
        <ele>1006.200012207</ele>
        <time>2020-05-27T12:03:18.000Z</time>
      </trkpt>
      <trkpt lat="43.95812" lon="7.0718">
        <ele>1007.4000244141</ele>
        <time>2020-05-27T12:03:23.000Z</time>
      </trkpt>
      <trkpt lat="43.95813" lon="7.07179">
        <ele>1007.799987793</ele>
        <time>2020-05-27T12:03:24.000Z</time>
      </trkpt>
      <trkpt lat="43.95816" lon="7.07176">
        <ele>1008.5999755859</ele>
        <time>2020-05-27T12:03:26.000Z</time>
      </trkpt>
      <trkpt lat="43.9582" lon="7.07171">
        <ele>1009.5999755859</ele>
        <time>2020-05-27T12:03:30.000Z</time>
      </trkpt>
      <trkpt lat="43.95822" lon="7.07169">
        <ele>1010.200012207</ele>
        <time>2020-05-27T12:03:32.000Z</time>
      </trkpt>
      <trkpt lat="43.95823" lon="7.07167">
        <ele>1010.799987793</ele>
        <time>2020-05-27T12:03:34.000Z</time>
      </trkpt>
      <trkpt lat="43.95824" lon="7.07166">
        <ele>1010.799987793</ele>
        <time>2020-05-27T12:03:35.000Z</time>
      </trkpt>
      <trkpt lat="43.95827" lon="7.07164">
        <ele>1011.4000244141</ele>
        <time>2020-05-27T12:03:38.000Z</time>
      </trkpt>
      <trkpt lat="43.95832" lon="7.07162">
        <ele>1011.799987793</ele>
        <time>2020-05-27T12:03:42.000Z</time>
      </trkpt>
      <trkpt lat="43.95837" lon="7.07159">
        <ele>1012.799987793</ele>
        <time>2020-05-27T12:03:47.000Z</time>
      </trkpt>
      <trkpt lat="43.95838" lon="7.07158">
        <ele>1013</ele>
        <time>2020-05-27T12:03:48.000Z</time>
      </trkpt>
      <trkpt lat="43.95844" lon="7.07155">
        <ele>1014</ele>
        <time>2020-05-27T12:03:54.000Z</time>
      </trkpt>
      <trkpt lat="43.95845" lon="7.07154">
        <ele>1014</ele>
        <time>2020-05-27T12:03:55.000Z</time>
      </trkpt>
      <trkpt lat="43.95852" lon="7.0715">
        <ele>1015.4000244141</ele>
        <time>2020-05-27T12:04:01.000Z</time>
      </trkpt>
      <trkpt lat="43.95857" lon="7.07145">
        <ele>1016.200012207</ele>
        <time>2020-05-27T12:04:06.000Z</time>
      </trkpt>
      <trkpt lat="43.9586" lon="7.07142">
        <ele>1016.5999755859</ele>
        <time>2020-05-27T12:04:09.000Z</time>
      </trkpt>
      <trkpt lat="43.95864" lon="7.07138">
        <ele>1016.799987793</ele>
        <time>2020-05-27T12:04:13.000Z</time>
      </trkpt>
      <trkpt lat="43.9587" lon="7.07132">
        <ele>1017.5999755859</ele>
        <time>2020-05-27T12:04:19.000Z</time>
      </trkpt>
      <trkpt lat="43.95872" lon="7.07131">
        <ele>1017.799987793</ele>
        <time>2020-05-27T12:04:21.000Z</time>
      </trkpt>
      <trkpt lat="43.95877" lon="7.07125">
        <ele>1018.5999755859</ele>
        <time>2020-05-27T12:04:26.000Z</time>
      </trkpt>
      <trkpt lat="43.9588" lon="7.07122">
        <ele>1019</ele>
        <time>2020-05-27T12:04:29.000Z</time>
      </trkpt>
      <trkpt lat="43.95891" lon="7.07114">
        <ele>1019.5999755859</ele>
        <time>2020-05-27T12:04:38.000Z</time>
      </trkpt>
      <trkpt lat="43.95901" lon="7.07109">
        <ele>1020.4000244141</ele>
        <time>2020-05-27T12:04:46.000Z</time>
      </trkpt>
      <trkpt lat="43.95906" lon="7.07108">
        <ele>1020.5999755859</ele>
        <time>2020-05-27T12:04:49.000Z</time>
      </trkpt>
      <trkpt lat="43.95911" lon="7.07108">
        <ele>1020.799987793</ele>
        <time>2020-05-27T12:04:53.000Z</time>
      </trkpt>
      <trkpt lat="43.95919" lon="7.07111">
        <ele>1021.799987793</ele>
        <time>2020-05-27T12:04:59.000Z</time>
      </trkpt>
      <trkpt lat="43.95931" lon="7.07119">
        <ele>1022.5999755859</ele>
        <time>2020-05-27T12:05:07.000Z</time>
      </trkpt>
      <trkpt lat="43.95935" lon="7.07123">
        <ele>1023</ele>
        <time>2020-05-27T12:05:10.000Z</time>
      </trkpt>
      <trkpt lat="43.9594" lon="7.07126">
        <ele>1023.4000244141</ele>
        <time>2020-05-27T12:05:13.000Z</time>
      </trkpt>
      <trkpt lat="43.95946" lon="7.07131">
        <ele>1024</ele>
        <time>2020-05-27T12:05:17.000Z</time>
      </trkpt>
      <trkpt lat="43.9595" lon="7.07133">
        <ele>1024.4000244141</ele>
        <time>2020-05-27T12:05:20.000Z</time>
      </trkpt>
      <trkpt lat="43.95956" lon="7.07135">
        <ele>1025.1999511719</ele>
        <time>2020-05-27T12:05:24.000Z</time>
      </trkpt>
      <trkpt lat="43.95962" lon="7.07136">
        <ele>1025.4000244141</ele>
        <time>2020-05-27T12:05:28.000Z</time>
      </trkpt>
      <trkpt lat="43.95972" lon="7.07135">
        <ele>1026.1999511719</ele>
        <time>2020-05-27T12:05:34.000Z</time>
      </trkpt>
      <trkpt lat="43.95977" lon="7.07135">
        <ele>1026.5999755859</ele>
        <time>2020-05-27T12:05:37.000Z</time>
      </trkpt>
      <trkpt lat="43.95982" lon="7.07134">
        <ele>1027.1999511719</ele>
        <time>2020-05-27T12:05:40.000Z</time>
      </trkpt>
      <trkpt lat="43.9599" lon="7.07134">
        <ele>1027.5999755859</ele>
        <time>2020-05-27T12:05:45.000Z</time>
      </trkpt>
      <trkpt lat="43.95996" lon="7.07135">
        <ele>1028.1999511719</ele>
        <time>2020-05-27T12:05:49.000Z</time>
      </trkpt>
      <trkpt lat="43.96003" lon="7.07136">
        <ele>1028.8000488281</ele>
        <time>2020-05-27T12:05:53.000Z</time>
      </trkpt>
      <trkpt lat="43.96016" lon="7.07146">
        <ele>1028.8000488281</ele>
        <time>2020-05-27T12:06:00.000Z</time>
      </trkpt>
      <trkpt lat="43.96024" lon="7.07159">
        <ele>1029</ele>
        <time>2020-05-27T12:06:06.000Z</time>
      </trkpt>
      <trkpt lat="43.96028" lon="7.07169">
        <ele>1029.4000244141</ele>
        <time>2020-05-27T12:06:10.000Z</time>
      </trkpt>
      <trkpt lat="43.96029" lon="7.07173">
        <ele>1029.4000244141</ele>
        <time>2020-05-27T12:06:12.000Z</time>
      </trkpt>
      <trkpt lat="43.96031" lon="7.07174">
        <ele>1029.5999755859</ele>
        <time>2020-05-27T12:06:13.000Z</time>
      </trkpt>
      <trkpt lat="43.96033" lon="7.07179">
        <ele>1029.8000488281</ele>
        <time>2020-05-27T12:06:16.000Z</time>
      </trkpt>
      <trkpt lat="43.96036" lon="7.07185">
        <ele>1030</ele>
        <time>2020-05-27T12:06:21.000Z</time>
      </trkpt>
      <trkpt lat="43.96037" lon="7.07187">
        <ele>1030.4000244141</ele>
        <time>2020-05-27T12:06:22.000Z</time>
      </trkpt>
      <trkpt lat="43.96038" lon="7.07188">
        <ele>1030.5999755859</ele>
        <time>2020-05-27T12:06:23.000Z</time>
      </trkpt>
      <trkpt lat="43.96042" lon="7.07193">
        <ele>1031.1999511719</ele>
        <time>2020-05-27T12:06:28.000Z</time>
      </trkpt>
      <trkpt lat="43.96042" lon="7.07193">
        <ele>1031.5999755859</ele>
        <time>2020-05-27T12:06:31.000Z</time>
      </trkpt>
      <trkpt lat="43.96043" lon="7.07195">
        <ele>1031.8000488281</ele>
        <time>2020-05-27T12:06:33.000Z</time>
      </trkpt>
      <trkpt lat="43.96048" lon="7.072">
        <ele>1032.8000488281</ele>
        <time>2020-05-27T12:06:41.000Z</time>
      </trkpt>
      <trkpt lat="43.96053" lon="7.07207">
        <ele>1033.5999755859</ele>
        <time>2020-05-27T12:06:49.000Z</time>
      </trkpt>
      <trkpt lat="43.96053" lon="7.07208">
        <ele>1033.8000488281</ele>
        <time>2020-05-27T12:06:50.000Z</time>
      </trkpt>
      <trkpt lat="43.96058" lon="7.07215">
        <ele>1035</ele>
        <time>2020-05-27T12:06:58.000Z</time>
      </trkpt>
      <trkpt lat="43.96059" lon="7.07218">
        <ele>1036</ele>
        <time>2020-05-27T12:07:04.000Z</time>
      </trkpt>
      <trkpt lat="43.96059" lon="7.07218">
        <ele>1036</ele>
        <time>2020-05-27T12:07:05.000Z</time>
      </trkpt>
      <trkpt lat="43.96059" lon="7.07218">
        <ele>1036</ele>
        <time>2020-05-27T12:07:10.000Z</time>
      </trkpt>
      <trkpt lat="43.96064" lon="7.07224">
        <ele>1036.4000244141</ele>
        <time>2020-05-27T12:07:16.000Z</time>
      </trkpt>
      <trkpt lat="43.96067" lon="7.07229">
        <ele>1037</ele>
        <time>2020-05-27T12:07:20.000Z</time>
      </trkpt>
      <trkpt lat="43.96068" lon="7.07232">
        <ele>1037.4000244141</ele>
        <time>2020-05-27T12:07:22.000Z</time>
      </trkpt>
      <trkpt lat="43.9607" lon="7.07235">
        <ele>1038</ele>
        <time>2020-05-27T12:07:25.000Z</time>
      </trkpt>
      <trkpt lat="43.96072" lon="7.07238">
        <ele>1038.5999755859</ele>
        <time>2020-05-27T12:07:28.000Z</time>
      </trkpt>
      <trkpt lat="43.96074" lon="7.07239">
        <ele>1039.1999511719</ele>
        <time>2020-05-27T12:07:32.000Z</time>
      </trkpt>
      <trkpt lat="43.96075" lon="7.0724">
        <ele>1039.1999511719</ele>
        <time>2020-05-27T12:07:33.000Z</time>
      </trkpt>
      <trkpt lat="43.96079" lon="7.07244">
        <ele>1040.1999511719</ele>
        <time>2020-05-27T12:07:40.000Z</time>
      </trkpt>
      <trkpt lat="43.96084" lon="7.0725">
        <ele>1041</ele>
        <time>2020-05-27T12:07:48.000Z</time>
      </trkpt>
      <trkpt lat="43.96086" lon="7.07253">
        <ele>1041.1999511719</ele>
        <time>2020-05-27T12:07:51.000Z</time>
      </trkpt>
      <trkpt lat="43.96088" lon="7.07256">
        <ele>1041.8000488281</ele>
        <time>2020-05-27T12:07:55.000Z</time>
      </trkpt>
      <trkpt lat="43.96089" lon="7.07257">
        <ele>1041.8000488281</ele>
        <time>2020-05-27T12:07:56.000Z</time>
      </trkpt>
      <trkpt lat="43.96092" lon="7.07259">
        <ele>1042</ele>
        <time>2020-05-27T12:08:00.000Z</time>
      </trkpt>
      <trkpt lat="43.96093" lon="7.07261">
        <ele>1042.1999511719</ele>
        <time>2020-05-27T12:08:02.000Z</time>
      </trkpt>
      <trkpt lat="43.96098" lon="7.07267">
        <ele>1042.8000488281</ele>
        <time>2020-05-27T12:08:09.000Z</time>
      </trkpt>
      <trkpt lat="43.96101" lon="7.0727">
        <ele>1043.4000244141</ele>
        <time>2020-05-27T12:08:13.000Z</time>
      </trkpt>
      <trkpt lat="43.96103" lon="7.07272">
        <ele>1043.8000488281</ele>
        <time>2020-05-27T12:08:16.000Z</time>
      </trkpt>
      <trkpt lat="43.96107" lon="7.07275">
        <ele>1044.4000244141</ele>
        <time>2020-05-27T12:08:21.000Z</time>
      </trkpt>
      <trkpt lat="43.96109" lon="7.07278">
        <ele>1044.8000488281</ele>
        <time>2020-05-27T12:08:24.000Z</time>
      </trkpt>
      <trkpt lat="43.96112" lon="7.07281">
        <ele>1045.4000244141</ele>
        <time>2020-05-27T12:08:28.000Z</time>
      </trkpt>
      <trkpt lat="43.96113" lon="7.0728">
        <ele>1045.5999755859</ele>
        <time>2020-05-27T12:08:31.000Z</time>
      </trkpt>
      <trkpt lat="43.96117" lon="7.07279">
        <ele>1045.5999755859</ele>
        <time>2020-05-27T12:08:37.000Z</time>
      </trkpt>
      <trkpt lat="43.96121" lon="7.07279">
        <ele>1046</ele>
        <time>2020-05-27T12:08:43.000Z</time>
      </trkpt>
      <trkpt lat="43.96123" lon="7.07278">
        <ele>1046.4000244141</ele>
        <time>2020-05-27T12:08:46.000Z</time>
      </trkpt>
      <trkpt lat="43.96123" lon="7.07278">
        <ele>1046.4000244141</ele>
        <time>2020-05-27T12:08:47.000Z</time>
      </trkpt>
      <trkpt lat="43.96127" lon="7.07275">
        <ele>1046.5999755859</ele>
        <time>2020-05-27T12:08:50.000Z</time>
      </trkpt>
      <trkpt lat="43.9613" lon="7.07273">
        <ele>1046.5999755859</ele>
        <time>2020-05-27T12:08:52.000Z</time>
      </trkpt>
      <trkpt lat="43.96147" lon="7.07266">
        <ele>1047.1999511719</ele>
        <time>2020-05-27T12:09:02.000Z</time>
      </trkpt>
      <trkpt lat="43.96161" lon="7.07264">
        <ele>1047.5999755859</ele>
        <time>2020-05-27T12:09:09.000Z</time>
      </trkpt>
      <trkpt lat="43.96166" lon="7.07265">
        <ele>1048.1999511719</ele>
        <time>2020-05-27T12:09:12.000Z</time>
      </trkpt>
      <trkpt lat="43.96173" lon="7.07269">
        <ele>1048.8000488281</ele>
        <time>2020-05-27T12:09:17.000Z</time>
      </trkpt>
      <trkpt lat="43.96175" lon="7.0727">
        <ele>1049.4000244141</ele>
        <time>2020-05-27T12:09:19.000Z</time>
      </trkpt>
      <trkpt lat="43.96178" lon="7.07272">
        <ele>1049.8000488281</ele>
        <time>2020-05-27T12:09:22.000Z</time>
      </trkpt>
      <trkpt lat="43.96182" lon="7.07274">
        <ele>1050.4000244141</ele>
        <time>2020-05-27T12:09:25.000Z</time>
      </trkpt>
      <trkpt lat="43.96184" lon="7.07275">
        <ele>1051</ele>
        <time>2020-05-27T12:09:28.000Z</time>
      </trkpt>
      <trkpt lat="43.96187" lon="7.07276">
        <ele>1051.1999511719</ele>
        <time>2020-05-27T12:09:30.000Z</time>
      </trkpt>
      <trkpt lat="43.96192" lon="7.07278">
        <ele>1052</ele>
        <time>2020-05-27T12:09:35.000Z</time>
      </trkpt>
      <trkpt lat="43.96194" lon="7.0728">
        <ele>1052.4000244141</ele>
        <time>2020-05-27T12:09:37.000Z</time>
      </trkpt>
      <trkpt lat="43.96201" lon="7.07279">
        <ele>1053.1999511719</ele>
        <time>2020-05-27T12:09:43.000Z</time>
      </trkpt>
      <trkpt lat="43.96209" lon="7.07276">
        <ele>1054.1999511719</ele>
        <time>2020-05-27T12:09:50.000Z</time>
      </trkpt>
      <trkpt lat="43.96218" lon="7.07273">
        <ele>1055.4000244141</ele>
        <time>2020-05-27T12:09:58.000Z</time>
      </trkpt>
      <trkpt lat="43.96219" lon="7.07273">
        <ele>1055.4000244141</ele>
        <time>2020-05-27T12:09:59.000Z</time>
      </trkpt>
      <trkpt lat="43.96226" lon="7.0727">
        <ele>1056.4000244141</ele>
        <time>2020-05-27T12:10:06.000Z</time>
      </trkpt>
      <trkpt lat="43.96232" lon="7.07269">
        <ele>1057.4000244141</ele>
        <time>2020-05-27T12:10:12.000Z</time>
      </trkpt>
      <trkpt lat="43.96231" lon="7.07269">
        <ele>1057.5999755859</ele>
        <time>2020-05-27T12:10:13.000Z</time>
      </trkpt>
      <trkpt lat="43.96236" lon="7.07267">
        <ele>1058.1999511719</ele>
        <time>2020-05-27T12:10:21.000Z</time>
      </trkpt>
      <trkpt lat="43.96238" lon="7.07266">
        <ele>1058.5999755859</ele>
        <time>2020-05-27T12:10:24.000Z</time>
      </trkpt>
      <trkpt lat="43.96239" lon="7.07266">
        <ele>1059</ele>
        <time>2020-05-27T12:10:27.000Z</time>
      </trkpt>
      <trkpt lat="43.96243" lon="7.07265">
        <ele>1059.8000488281</ele>
        <time>2020-05-27T12:10:32.000Z</time>
      </trkpt>
      <trkpt lat="43.96245" lon="7.07264">
        <ele>1060.1999511719</ele>
        <time>2020-05-27T12:10:35.000Z</time>
      </trkpt>
      <trkpt lat="43.96249" lon="7.07264">
        <ele>1060.8000488281</ele>
        <time>2020-05-27T12:10:39.000Z</time>
      </trkpt>
      <trkpt lat="43.96252" lon="7.07263">
        <ele>1061.4000244141</ele>
        <time>2020-05-27T12:10:43.000Z</time>
      </trkpt>
      <trkpt lat="43.96253" lon="7.07263">
        <ele>1061.8000488281</ele>
        <time>2020-05-27T12:10:45.000Z</time>
      </trkpt>
      <trkpt lat="43.96257" lon="7.07263">
        <ele>1062.5999755859</ele>
        <time>2020-05-27T12:10:51.000Z</time>
      </trkpt>
      <trkpt lat="43.9626" lon="7.07263">
        <ele>1063</ele>
        <time>2020-05-27T12:10:54.000Z</time>
      </trkpt>
      <trkpt lat="43.96263" lon="7.07264">
        <ele>1063.8000488281</ele>
        <time>2020-05-27T12:11:00.000Z</time>
      </trkpt>
      <trkpt lat="43.96265" lon="7.07264">
        <ele>1064</ele>
        <time>2020-05-27T12:11:02.000Z</time>
      </trkpt>
      <trkpt lat="43.96269" lon="7.07264">
        <ele>1065.1999511719</ele>
        <time>2020-05-27T12:11:08.000Z</time>
      </trkpt>
      <trkpt lat="43.9627" lon="7.07265">
        <ele>1065.1999511719</ele>
        <time>2020-05-27T12:11:09.000Z</time>
      </trkpt>
      <trkpt lat="43.96275" lon="7.07266">
        <ele>1066.1999511719</ele>
        <time>2020-05-27T12:11:16.000Z</time>
      </trkpt>
      <trkpt lat="43.96276" lon="7.07266">
        <ele>1066.5999755859</ele>
        <time>2020-05-27T12:11:17.000Z</time>
      </trkpt>
      <trkpt lat="43.96279" lon="7.07268">
        <ele>1067.4000244141</ele>
        <time>2020-05-27T12:11:22.000Z</time>
      </trkpt>
      <trkpt lat="43.96281" lon="7.07268">
        <ele>1068</ele>
        <time>2020-05-27T12:11:25.000Z</time>
      </trkpt>
      <trkpt lat="43.96283" lon="7.07269">
        <ele>1068.4000244141</ele>
        <time>2020-05-27T12:11:27.000Z</time>
      </trkpt>
      <trkpt lat="43.96287" lon="7.0727">
        <ele>1069.1999511719</ele>
        <time>2020-05-27T12:11:33.000Z</time>
      </trkpt>
      <trkpt lat="43.96288" lon="7.07271">
        <ele>1069.4000244141</ele>
        <time>2020-05-27T12:11:35.000Z</time>
      </trkpt>
      <trkpt lat="43.96291" lon="7.07271">
        <ele>1070.1999511719</ele>
        <time>2020-05-27T12:11:41.000Z</time>
      </trkpt>
      <trkpt lat="43.96292" lon="7.07272">
        <ele>1070.5999755859</ele>
        <time>2020-05-27T12:11:43.000Z</time>
      </trkpt>
      <trkpt lat="43.96297" lon="7.07272">
        <ele>1071.8000488281</ele>
        <time>2020-05-27T12:11:50.000Z</time>
      </trkpt>
      <trkpt lat="43.96301" lon="7.07272">
        <ele>1072.8000488281</ele>
        <time>2020-05-27T12:11:56.000Z</time>
      </trkpt>
      <trkpt lat="43.96303" lon="7.07272">
        <ele>1073.4000244141</ele>
        <time>2020-05-27T12:11:59.000Z</time>
      </trkpt>
      <trkpt lat="43.96305" lon="7.07271">
        <ele>1073.8000488281</ele>
        <time>2020-05-27T12:12:02.000Z</time>
      </trkpt>
      <trkpt lat="43.96308" lon="7.07271">
        <ele>1075</ele>
        <time>2020-05-27T12:12:09.000Z</time>
      </trkpt>
      <trkpt lat="43.96313" lon="7.0727">
        <ele>1076</ele>
        <time>2020-05-27T12:12:16.000Z</time>
      </trkpt>
      <trkpt lat="43.96314" lon="7.07269">
        <ele>1076.4000244141</ele>
        <time>2020-05-27T12:12:18.000Z</time>
      </trkpt>
      <trkpt lat="43.96317" lon="7.07269">
        <ele>1077</ele>
        <time>2020-05-27T12:12:22.000Z</time>
      </trkpt>
      <trkpt lat="43.9632" lon="7.0727">
        <ele>1077.8000488281</ele>
        <time>2020-05-27T12:12:26.000Z</time>
      </trkpt>
      <trkpt lat="43.96322" lon="7.07269">
        <ele>1078.1999511719</ele>
        <time>2020-05-27T12:12:29.000Z</time>
      </trkpt>
      <trkpt lat="43.96325" lon="7.07268">
        <ele>1079</ele>
        <time>2020-05-27T12:12:34.000Z</time>
      </trkpt>
      <trkpt lat="43.96326" lon="7.07268">
        <ele>1079.1999511719</ele>
        <time>2020-05-27T12:12:35.000Z</time>
      </trkpt>
      <trkpt lat="43.96331" lon="7.07267">
        <ele>1080.4000244141</ele>
        <time>2020-05-27T12:12:42.000Z</time>
      </trkpt>
      <trkpt lat="43.96333" lon="7.07266">
        <ele>1080.8000488281</ele>
        <time>2020-05-27T12:12:45.000Z</time>
      </trkpt>
      <trkpt lat="43.96336" lon="7.07264">
        <ele>1081.4000244141</ele>
        <time>2020-05-27T12:12:49.000Z</time>
      </trkpt>
      <trkpt lat="43.9634" lon="7.07261">
        <ele>1082.4000244141</ele>
        <time>2020-05-27T12:12:54.000Z</time>
      </trkpt>
      <trkpt lat="43.96341" lon="7.0726">
        <ele>1082.5999755859</ele>
        <time>2020-05-27T12:12:55.000Z</time>
      </trkpt>
      <trkpt lat="43.96343" lon="7.07259">
        <ele>1083.4000244141</ele>
        <time>2020-05-27T12:13:01.000Z</time>
      </trkpt>
      <trkpt lat="43.96345" lon="7.07257">
        <ele>1083.4000244141</ele>
        <time>2020-05-27T12:13:09.000Z</time>
      </trkpt>
      <trkpt lat="43.96344" lon="7.07255">
        <ele>1083.4000244141</ele>
        <time>2020-05-27T12:13:22.000Z</time>
      </trkpt>
      <trkpt lat="43.96344" lon="7.07255">
        <ele>1082.8000488281</ele>
        <time>2020-05-27T12:13:30.000Z</time>
      </trkpt>
      <trkpt lat="43.96344" lon="7.07256">
        <ele>1083</ele>
        <time>2020-05-27T12:13:36.000Z</time>
      </trkpt>
      <trkpt lat="43.96348" lon="7.07254">
        <ele>1083.1999511719</ele>
        <time>2020-05-27T12:13:42.000Z</time>
      </trkpt>
      <trkpt lat="43.96351" lon="7.07251">
        <ele>1083.5999755859</ele>
        <time>2020-05-27T12:13:45.000Z</time>
      </trkpt>
      <trkpt lat="43.96356" lon="7.07247">
        <ele>1084</ele>
        <time>2020-05-27T12:13:49.000Z</time>
      </trkpt>
      <trkpt lat="43.96366" lon="7.07236">
        <ele>1084.5999755859</ele>
        <time>2020-05-27T12:13:57.000Z</time>
      </trkpt>
      <trkpt lat="43.96367" lon="7.07235">
        <ele>1084.5999755859</ele>
        <time>2020-05-27T12:13:58.000Z</time>
      </trkpt>
      <trkpt lat="43.96374" lon="7.07228">
        <ele>1085.1999511719</ele>
        <time>2020-05-27T12:14:04.000Z</time>
      </trkpt>
      <trkpt lat="43.96377" lon="7.07226">
        <ele>1085.5999755859</ele>
        <time>2020-05-27T12:14:06.000Z</time>
      </trkpt>
      <trkpt lat="43.96384" lon="7.07224">
        <ele>1086.8000488281</ele>
        <time>2020-05-27T12:14:11.000Z</time>
      </trkpt>
      <trkpt lat="43.96391" lon="7.07224">
        <ele>1087.8000488281</ele>
        <time>2020-05-27T12:14:16.000Z</time>
      </trkpt>
      <trkpt lat="43.96395" lon="7.07224">
        <ele>1088.1999511719</ele>
        <time>2020-05-27T12:14:19.000Z</time>
      </trkpt>
      <trkpt lat="43.96402" lon="7.07225">
        <ele>1088.8000488281</ele>
        <time>2020-05-27T12:14:24.000Z</time>
      </trkpt>
      <trkpt lat="43.96407" lon="7.07226">
        <ele>1089.1999511719</ele>
        <time>2020-05-27T12:14:28.000Z</time>
      </trkpt>
      <trkpt lat="43.96417" lon="7.07229">
        <ele>1090</ele>
        <time>2020-05-27T12:14:34.000Z</time>
      </trkpt>
      <trkpt lat="43.96422" lon="7.0723">
        <ele>1090.4000244141</ele>
        <time>2020-05-27T12:14:37.000Z</time>
      </trkpt>
      <trkpt lat="43.96426" lon="7.0723">
        <ele>1091</ele>
        <time>2020-05-27T12:14:40.000Z</time>
      </trkpt>
      <trkpt lat="43.96433" lon="7.07232">
        <ele>1091.8000488281</ele>
        <time>2020-05-27T12:14:45.000Z</time>
      </trkpt>
      <trkpt lat="43.96435" lon="7.07232">
        <ele>1092.1999511719</ele>
        <time>2020-05-27T12:14:47.000Z</time>
      </trkpt>
      <trkpt lat="43.96445" lon="7.07231">
        <ele>1093.4000244141</ele>
        <time>2020-05-27T12:14:54.000Z</time>
      </trkpt>
      <trkpt lat="43.96446" lon="7.07231">
        <ele>1093.5999755859</ele>
        <time>2020-05-27T12:14:55.000Z</time>
      </trkpt>
      <trkpt lat="43.96457" lon="7.07228">
        <ele>1094.4000244141</ele>
        <time>2020-05-27T12:15:03.000Z</time>
      </trkpt>
      <trkpt lat="43.96459" lon="7.07227">
        <ele>1094.5999755859</ele>
        <time>2020-05-27T12:15:05.000Z</time>
      </trkpt>
      <trkpt lat="43.96475" lon="7.07223">
        <ele>1095.1999511719</ele>
        <time>2020-05-27T12:15:13.000Z</time>
      </trkpt>
      <trkpt lat="43.96489" lon="7.07214">
        <ele>1095</ele>
        <time>2020-05-27T12:15:20.000Z</time>
      </trkpt>
      <trkpt lat="43.96495" lon="7.0721">
        <ele>1095.4000244141</ele>
        <time>2020-05-27T12:15:23.000Z</time>
      </trkpt>
      <trkpt lat="43.96497" lon="7.07211">
        <ele>1095.5999755859</ele>
        <time>2020-05-27T12:15:24.000Z</time>
      </trkpt>
      <trkpt lat="43.96503" lon="7.07208">
        <ele>1095.5999755859</ele>
        <time>2020-05-27T12:15:27.000Z</time>
      </trkpt>
      <trkpt lat="43.96519" lon="7.07201">
        <ele>1096.4000244141</ele>
        <time>2020-05-27T12:15:35.000Z</time>
      </trkpt>
      <trkpt lat="43.96536" lon="7.07194">
        <ele>1096.4000244141</ele>
        <time>2020-05-27T12:15:42.000Z</time>
      </trkpt>
      <trkpt lat="43.9654" lon="7.07191">
        <ele>1096.1999511719</ele>
        <time>2020-05-27T12:15:44.000Z</time>
      </trkpt>
      <trkpt lat="43.96548" lon="7.07186">
        <ele>1096.1999511719</ele>
        <time>2020-05-27T12:15:47.000Z</time>
      </trkpt>
      <trkpt lat="43.96555" lon="7.07182">
        <ele>1096.4000244141</ele>
        <time>2020-05-27T12:15:50.000Z</time>
      </trkpt>
      <trkpt lat="43.9656" lon="7.07179">
        <ele>1096.4000244141</ele>
        <time>2020-05-27T12:15:52.000Z</time>
      </trkpt>
      <trkpt lat="43.96564" lon="7.07174">
        <ele>1096.5999755859</ele>
        <time>2020-05-27T12:15:54.000Z</time>
      </trkpt>
      <trkpt lat="43.96574" lon="7.07168">
        <ele>1097.1999511719</ele>
        <time>2020-05-27T12:15:58.000Z</time>
      </trkpt>
      <trkpt lat="43.96576" lon="7.07166">
        <ele>1097.4000244141</ele>
        <time>2020-05-27T12:15:59.000Z</time>
      </trkpt>
      <trkpt lat="43.96586" lon="7.07164">
        <ele>1098.4000244141</ele>
        <time>2020-05-27T12:16:04.000Z</time>
      </trkpt>
      <trkpt lat="43.96587" lon="7.07164">
        <ele>1098.5999755859</ele>
        <time>2020-05-27T12:16:05.000Z</time>
      </trkpt>
      <trkpt lat="43.96598" lon="7.07162">
        <ele>1099.5999755859</ele>
        <time>2020-05-27T12:16:11.000Z</time>
      </trkpt>
      <trkpt lat="43.966" lon="7.07162">
        <ele>1099.8000488281</ele>
        <time>2020-05-27T12:16:12.000Z</time>
      </trkpt>
      <trkpt lat="43.96609" lon="7.07164">
        <ele>1099.8000488281</ele>
        <time>2020-05-27T12:16:16.000Z</time>
      </trkpt>
      <trkpt lat="43.96611" lon="7.07164">
        <ele>1099.8000488281</ele>
        <time>2020-05-27T12:16:17.000Z</time>
      </trkpt>
      <trkpt lat="43.96628" lon="7.07169">
        <ele>1099.4000244141</ele>
        <time>2020-05-27T12:16:22.000Z</time>
      </trkpt>
      <trkpt lat="43.96638" lon="7.07171">
        <ele>1098.8000488281</ele>
        <time>2020-05-27T12:16:24.000Z</time>
      </trkpt>
      <trkpt lat="43.96641" lon="7.07172">
        <ele>1098.4000244141</ele>
        <time>2020-05-27T12:16:25.000Z</time>
      </trkpt>
      <trkpt lat="43.96649" lon="7.07177">
        <ele>1097.5999755859</ele>
        <time>2020-05-27T12:16:27.000Z</time>
      </trkpt>
      <trkpt lat="43.96652" lon="7.07178">
        <ele>1097.4000244141</ele>
        <time>2020-05-27T12:16:28.000Z</time>
      </trkpt>
      <trkpt lat="43.96658" lon="7.0718">
        <ele>1096.8000488281</ele>
        <time>2020-05-27T12:16:31.000Z</time>
      </trkpt>
      <trkpt lat="43.96666" lon="7.07181">
        <ele>1096.8000488281</ele>
        <time>2020-05-27T12:16:35.000Z</time>
      </trkpt>
      <trkpt lat="43.96679" lon="7.07181">
        <ele>1096.1999511719</ele>
        <time>2020-05-27T12:16:39.000Z</time>
      </trkpt>
      <trkpt lat="43.96682" lon="7.07182">
        <ele>1096</ele>
        <time>2020-05-27T12:16:40.000Z</time>
      </trkpt>
      <trkpt lat="43.9669" lon="7.07184">
        <ele>1095.1999511719</ele>
        <time>2020-05-27T12:16:42.000Z</time>
      </trkpt>
      <trkpt lat="43.96698" lon="7.07186">
        <ele>1094.8000488281</ele>
        <time>2020-05-27T12:16:44.000Z</time>
      </trkpt>
      <trkpt lat="43.96722" lon="7.07193">
        <ele>1094.4000244141</ele>
        <time>2020-05-27T12:16:51.000Z</time>
      </trkpt>
      <trkpt lat="43.96739" lon="7.07197">
        <ele>1094.5999755859</ele>
        <time>2020-05-27T12:16:57.000Z</time>
      </trkpt>
      <trkpt lat="43.96755" lon="7.072">
        <ele>1094.5999755859</ele>
        <time>2020-05-27T12:17:03.000Z</time>
      </trkpt>
      <trkpt lat="43.9676" lon="7.07202">
        <ele>1094.1999511719</ele>
        <time>2020-05-27T12:17:05.000Z</time>
      </trkpt>
      <trkpt lat="43.96771" lon="7.07207">
        <ele>1093.8000488281</ele>
        <time>2020-05-27T12:17:09.000Z</time>
      </trkpt>
      <trkpt lat="43.96791" lon="7.07216">
        <ele>1093.4000244141</ele>
        <time>2020-05-27T12:17:15.000Z</time>
      </trkpt>
      <trkpt lat="43.96807" lon="7.0722">
        <ele>1093</ele>
        <time>2020-05-27T12:17:19.000Z</time>
      </trkpt>
      <trkpt lat="43.96811" lon="7.07221">
        <ele>1093</ele>
        <time>2020-05-27T12:17:20.000Z</time>
      </trkpt>
      <trkpt lat="43.96834" lon="7.07226">
        <ele>1092</ele>
        <time>2020-05-27T12:17:25.000Z</time>
      </trkpt>
      <trkpt lat="43.96839" lon="7.07227">
        <ele>1092</ele>
        <time>2020-05-27T12:17:26.000Z</time>
      </trkpt>
      <trkpt lat="43.96849" lon="7.07229">
        <ele>1091</ele>
        <time>2020-05-27T12:17:28.000Z</time>
      </trkpt>
      <trkpt lat="43.96873" lon="7.07231">
        <ele>1090.4000244141</ele>
        <time>2020-05-27T12:17:33.000Z</time>
      </trkpt>
      <trkpt lat="43.96893" lon="7.07234">
        <ele>1089.8000488281</ele>
        <time>2020-05-27T12:17:37.000Z</time>
      </trkpt>
      <trkpt lat="43.96903" lon="7.07235">
        <ele>1089.5999755859</ele>
        <time>2020-05-27T12:17:39.000Z</time>
      </trkpt>
      <trkpt lat="43.96928" lon="7.07241">
        <ele>1089</ele>
        <time>2020-05-27T12:17:45.000Z</time>
      </trkpt>
      <trkpt lat="43.96953" lon="7.0725">
        <ele>1089.4000244141</ele>
        <time>2020-05-27T12:17:51.000Z</time>
      </trkpt>
      <trkpt lat="43.96966" lon="7.07254">
        <ele>1088.8000488281</ele>
        <time>2020-05-27T12:17:54.000Z</time>
      </trkpt>
      <trkpt lat="43.96977" lon="7.07258">
        <ele>1088.8000488281</ele>
        <time>2020-05-27T12:17:57.000Z</time>
      </trkpt>
      <trkpt lat="43.97003" lon="7.07266">
        <ele>1089.5999755859</ele>
        <time>2020-05-27T12:18:05.000Z</time>
      </trkpt>
      <trkpt lat="43.97006" lon="7.07268">
        <ele>1089.8000488281</ele>
        <time>2020-05-27T12:18:06.000Z</time>
      </trkpt>
      <trkpt lat="43.97024" lon="7.07277">
        <ele>1089.8000488281</ele>
        <time>2020-05-27T12:18:10.000Z</time>
      </trkpt>
      <trkpt lat="43.97044" lon="7.07287">
        <ele>1088.8000488281</ele>
        <time>2020-05-27T12:18:14.000Z</time>
      </trkpt>
      <trkpt lat="43.97054" lon="7.07289">
        <ele>1088.1999511719</ele>
        <time>2020-05-27T12:18:16.000Z</time>
      </trkpt>
      <trkpt lat="43.97072" lon="7.07288">
        <ele>1088.5999755859</ele>
        <time>2020-05-27T12:18:21.000Z</time>
      </trkpt>
      <trkpt lat="43.97096" lon="7.07287">
        <ele>1088</ele>
        <time>2020-05-27T12:18:27.000Z</time>
      </trkpt>
      <trkpt lat="43.97101" lon="7.07287">
        <ele>1087.5999755859</ele>
        <time>2020-05-27T12:18:28.000Z</time>
      </trkpt>
      <trkpt lat="43.97106" lon="7.07288">
        <ele>1087.1999511719</ele>
        <time>2020-05-27T12:18:29.000Z</time>
      </trkpt>
      <trkpt lat="43.97117" lon="7.07292">
        <ele>1086.8000488281</ele>
        <time>2020-05-27T12:18:31.000Z</time>
      </trkpt>
      <trkpt lat="43.97122" lon="7.07295">
        <ele>1085.8000488281</ele>
        <time>2020-05-27T12:18:32.000Z</time>
      </trkpt>
      <trkpt lat="43.97128" lon="7.07297">
        <ele>1085</ele>
        <time>2020-05-27T12:18:33.000Z</time>
      </trkpt>
      <trkpt lat="43.97132" lon="7.07297">
        <ele>1084.8000488281</ele>
        <time>2020-05-27T12:18:34.000Z</time>
      </trkpt>
      <trkpt lat="43.97144" lon="7.07296">
        <ele>1084.1999511719</ele>
        <time>2020-05-27T12:18:36.000Z</time>
      </trkpt>
      <trkpt lat="43.97162" lon="7.07295">
        <ele>1083.4000244141</ele>
        <time>2020-05-27T12:18:40.000Z</time>
      </trkpt>
      <trkpt lat="43.97166" lon="7.07295">
        <ele>1083.5999755859</ele>
        <time>2020-05-27T12:18:41.000Z</time>
      </trkpt>
      <trkpt lat="43.97179" lon="7.07296">
        <ele>1083.5999755859</ele>
        <time>2020-05-27T12:18:46.000Z</time>
      </trkpt>
      <trkpt lat="43.97181" lon="7.07297">
        <ele>1083.8000488281</ele>
        <time>2020-05-27T12:18:50.000Z</time>
      </trkpt>
      <trkpt lat="43.97185" lon="7.07297">
        <ele>1083.8000488281</ele>
        <time>2020-05-27T12:18:53.000Z</time>
      </trkpt>
      <trkpt lat="43.97194" lon="7.073">
        <ele>1084.4000244141</ele>
        <time>2020-05-27T12:18:59.000Z</time>
      </trkpt>
      <trkpt lat="43.97197" lon="7.07301">
        <ele>1084.5999755859</ele>
        <time>2020-05-27T12:19:01.000Z</time>
      </trkpt>
      <trkpt lat="43.97207" lon="7.07304">
        <ele>1085.5999755859</ele>
        <time>2020-05-27T12:19:06.000Z</time>
      </trkpt>
      <trkpt lat="43.97224" lon="7.07307">
        <ele>1086.4000244141</ele>
        <time>2020-05-27T12:19:13.000Z</time>
      </trkpt>
      <trkpt lat="43.97226" lon="7.07307">
        <ele>1086.5999755859</ele>
        <time>2020-05-27T12:19:14.000Z</time>
      </trkpt>
      <trkpt lat="43.97235" lon="7.07307">
        <ele>1088</ele>
        <time>2020-05-27T12:19:18.000Z</time>
      </trkpt>
      <trkpt lat="43.97241" lon="7.07307">
        <ele>1089</ele>
        <time>2020-05-27T12:19:21.000Z</time>
      </trkpt>
      <trkpt lat="43.97252" lon="7.07308">
        <ele>1090.1999511719</ele>
        <time>2020-05-27T12:19:27.000Z</time>
      </trkpt>
      <trkpt lat="43.97258" lon="7.0731">
        <ele>1090.5999755859</ele>
        <time>2020-05-27T12:19:30.000Z</time>
      </trkpt>
      <trkpt lat="43.97269" lon="7.07313">
        <ele>1091.1999511719</ele>
        <time>2020-05-27T12:19:35.000Z</time>
      </trkpt>
      <trkpt lat="43.97279" lon="7.07315">
        <ele>1091.4000244141</ele>
        <time>2020-05-27T12:19:39.000Z</time>
      </trkpt>
      <trkpt lat="43.97296" lon="7.07313">
        <ele>1092.1999511719</ele>
        <time>2020-05-27T12:19:46.000Z</time>
      </trkpt>
      <trkpt lat="43.97298" lon="7.07312">
        <ele>1092.4000244141</ele>
        <time>2020-05-27T12:19:47.000Z</time>
      </trkpt>
      <trkpt lat="43.97312" lon="7.07304">
        <ele>1093.4000244141</ele>
        <time>2020-05-27T12:19:53.000Z</time>
      </trkpt>
      <trkpt lat="43.97318" lon="7.073">
        <ele>1094</ele>
        <time>2020-05-27T12:19:56.000Z</time>
      </trkpt>
      <trkpt lat="43.97324" lon="7.07297">
        <ele>1094.5999755859</ele>
        <time>2020-05-27T12:19:59.000Z</time>
      </trkpt>
      <trkpt lat="43.97334" lon="7.07293">
        <ele>1095.1999511719</ele>
        <time>2020-05-27T12:20:03.000Z</time>
      </trkpt>
      <trkpt lat="43.97345" lon="7.07289">
        <ele>1095.8000488281</ele>
        <time>2020-05-27T12:20:08.000Z</time>
      </trkpt>
      <trkpt lat="43.97352" lon="7.07288">
        <ele>1096.1999511719</ele>
        <time>2020-05-27T12:20:11.000Z</time>
      </trkpt>
      <trkpt lat="43.97365" lon="7.07289">
        <ele>1096.8000488281</ele>
        <time>2020-05-27T12:20:16.000Z</time>
      </trkpt>
      <trkpt lat="43.97373" lon="7.07291">
        <ele>1097.4000244141</ele>
        <time>2020-05-27T12:20:19.000Z</time>
      </trkpt>
      <trkpt lat="43.97378" lon="7.07292">
        <ele>1097.8000488281</ele>
        <time>2020-05-27T12:20:21.000Z</time>
      </trkpt>
      <trkpt lat="43.97394" lon="7.07298">
        <ele>1098.5999755859</ele>
        <time>2020-05-27T12:20:27.000Z</time>
      </trkpt>
      <trkpt lat="43.97398" lon="7.07301">
        <ele>1098.8000488281</ele>
        <time>2020-05-27T12:20:29.000Z</time>
      </trkpt>
      <trkpt lat="43.97409" lon="7.07302">
        <ele>1099.4000244141</ele>
        <time>2020-05-27T12:20:33.000Z</time>
      </trkpt>
      <trkpt lat="43.97425" lon="7.07293">
        <ele>1099.4000244141</ele>
        <time>2020-05-27T12:20:38.000Z</time>
      </trkpt>
      <trkpt lat="43.97435" lon="7.07284">
        <ele>1099.1999511719</ele>
        <time>2020-05-27T12:20:41.000Z</time>
      </trkpt>
      <trkpt lat="43.97443" lon="7.07276">
        <ele>1098.8000488281</ele>
        <time>2020-05-27T12:20:43.000Z</time>
      </trkpt>
      <trkpt lat="43.97464" lon="7.07267">
        <ele>1098.1999511719</ele>
        <time>2020-05-27T12:20:48.000Z</time>
      </trkpt>
      <trkpt lat="43.97478" lon="7.07267">
        <ele>1098</ele>
        <time>2020-05-27T12:20:51.000Z</time>
      </trkpt>
      <trkpt lat="43.97487" lon="7.07266">
        <ele>1098.1999511719</ele>
        <time>2020-05-27T12:20:53.000Z</time>
      </trkpt>
      <trkpt lat="43.97511" lon="7.07264">
        <ele>1097.8000488281</ele>
        <time>2020-05-27T12:20:58.000Z</time>
      </trkpt>
      <trkpt lat="43.97521" lon="7.07262">
        <ele>1097.4000244141</ele>
        <time>2020-05-27T12:21:00.000Z</time>
      </trkpt>
      <trkpt lat="43.97526" lon="7.07262">
        <ele>1097.4000244141</ele>
        <time>2020-05-27T12:21:01.000Z</time>
      </trkpt>
      <trkpt lat="43.9754" lon="7.07269">
        <ele>1097.4000244141</ele>
        <time>2020-05-27T12:21:04.000Z</time>
      </trkpt>
      <trkpt lat="43.97553" lon="7.07284">
        <ele>1097</ele>
        <time>2020-05-27T12:21:07.000Z</time>
      </trkpt>
      <trkpt lat="43.97557" lon="7.0729">
        <ele>1096.8000488281</ele>
        <time>2020-05-27T12:21:08.000Z</time>
      </trkpt>
      <trkpt lat="43.97561" lon="7.07295">
        <ele>1096.4000244141</ele>
        <time>2020-05-27T12:21:09.000Z</time>
      </trkpt>
      <trkpt lat="43.97568" lon="7.07306">
        <ele>1096</ele>
        <time>2020-05-27T12:21:11.000Z</time>
      </trkpt>
      <trkpt lat="43.97573" lon="7.07316">
        <ele>1096</ele>
        <time>2020-05-27T12:21:13.000Z</time>
      </trkpt>
      <trkpt lat="43.97583" lon="7.07327">
        <ele>1097</ele>
        <time>2020-05-27T12:21:17.000Z</time>
      </trkpt>
      <trkpt lat="43.97593" lon="7.07335">
        <ele>1097.5999755859</ele>
        <time>2020-05-27T12:21:20.000Z</time>
      </trkpt>
      <trkpt lat="43.97597" lon="7.07339">
        <ele>1097.4000244141</ele>
        <time>2020-05-27T12:21:21.000Z</time>
      </trkpt>
      <trkpt lat="43.976" lon="7.07344">
        <ele>1097.4000244141</ele>
        <time>2020-05-27T12:21:22.000Z</time>
      </trkpt>
      <trkpt lat="43.97606" lon="7.07353">
        <ele>1096.5999755859</ele>
        <time>2020-05-27T12:21:26.000Z</time>
      </trkpt>
      <trkpt lat="43.97606" lon="7.07352">
        <ele>1096.4000244141</ele>
        <time>2020-05-27T12:21:28.000Z</time>
      </trkpt>
      <trkpt lat="43.97609" lon="7.07355">
        <ele>1096.1999511719</ele>
        <time>2020-05-27T12:21:31.000Z</time>
      </trkpt>
      <trkpt lat="43.97609" lon="7.07357">
        <ele>1095.8000488281</ele>
        <time>2020-05-27T12:21:36.000Z</time>
      </trkpt>
      <trkpt lat="43.97612" lon="7.07361">
        <ele>1096</ele>
        <time>2020-05-27T12:21:42.000Z</time>
      </trkpt>
      <trkpt lat="43.97618" lon="7.07369">
        <ele>1096</ele>
        <time>2020-05-27T12:21:46.000Z</time>
      </trkpt>
      <trkpt lat="43.97628" lon="7.07379">
        <ele>1096.4000244141</ele>
        <time>2020-05-27T12:21:51.000Z</time>
      </trkpt>
      <trkpt lat="43.97638" lon="7.07389">
        <ele>1096</ele>
        <time>2020-05-27T12:21:55.000Z</time>
      </trkpt>
      <trkpt lat="43.97652" lon="7.07402">
        <ele>1097.4000244141</ele>
        <time>2020-05-27T12:22:00.000Z</time>
      </trkpt>
      <trkpt lat="43.97658" lon="7.07406">
        <ele>1097.8000488281</ele>
        <time>2020-05-27T12:22:02.000Z</time>
      </trkpt>
      <trkpt lat="43.97678" lon="7.0742">
        <ele>1098.5999755859</ele>
        <time>2020-05-27T12:22:10.000Z</time>
      </trkpt>
      <trkpt lat="43.97686" lon="7.07432">
        <ele>1099.8000488281</ele>
        <time>2020-05-27T12:22:14.000Z</time>
      </trkpt>
      <trkpt lat="43.9769" lon="7.07437">
        <ele>1100.4000244141</ele>
        <time>2020-05-27T12:22:16.000Z</time>
      </trkpt>
      <trkpt lat="43.97695" lon="7.07446">
        <ele>1101</ele>
        <time>2020-05-27T12:22:19.000Z</time>
      </trkpt>
      <trkpt lat="43.97698" lon="7.07447">
        <ele>1101.1999511719</ele>
        <time>2020-05-27T12:22:20.000Z</time>
      </trkpt>
      <trkpt lat="43.97699" lon="7.07451">
        <ele>1101.4000244141</ele>
        <time>2020-05-27T12:22:21.000Z</time>
      </trkpt>
      <trkpt lat="43.97702" lon="7.07455">
        <ele>1102</ele>
        <time>2020-05-27T12:22:23.000Z</time>
      </trkpt>
      <trkpt lat="43.97704" lon="7.07458">
        <ele>1102.1999511719</ele>
        <time>2020-05-27T12:22:24.000Z</time>
      </trkpt>
      <trkpt lat="43.9771" lon="7.07466">
        <ele>1102.5999755859</ele>
        <time>2020-05-27T12:22:27.000Z</time>
      </trkpt>
      <trkpt lat="43.97726" lon="7.07482">
        <ele>1102.4000244141</ele>
        <time>2020-05-27T12:22:32.000Z</time>
      </trkpt>
      <trkpt lat="43.97751" lon="7.07499">
        <ele>1102.4000244141</ele>
        <time>2020-05-27T12:22:39.000Z</time>
      </trkpt>
      <trkpt lat="43.9776" lon="7.07507">
        <ele>1102.1999511719</ele>
        <time>2020-05-27T12:22:41.000Z</time>
      </trkpt>
      <trkpt lat="43.9777" lon="7.07517">
        <ele>1101.5999755859</ele>
        <time>2020-05-27T12:22:43.000Z</time>
      </trkpt>
      <trkpt lat="43.97775" lon="7.07522">
        <ele>1101</ele>
        <time>2020-05-27T12:22:44.000Z</time>
      </trkpt>
      <trkpt lat="43.97785" lon="7.07532">
        <ele>1099.8000488281</ele>
        <time>2020-05-27T12:22:46.000Z</time>
      </trkpt>
      <trkpt lat="43.97795" lon="7.0754">
        <ele>1099.1999511719</ele>
        <time>2020-05-27T12:22:48.000Z</time>
      </trkpt>
      <trkpt lat="43.97799" lon="7.07543">
        <ele>1098.8000488281</ele>
        <time>2020-05-27T12:22:49.000Z</time>
      </trkpt>
      <trkpt lat="43.97802" lon="7.07545">
        <ele>1098.4000244141</ele>
        <time>2020-05-27T12:22:50.000Z</time>
      </trkpt>
      <trkpt lat="43.97815" lon="7.07553">
        <ele>1097.5999755859</ele>
        <time>2020-05-27T12:22:54.000Z</time>
      </trkpt>
      <trkpt lat="43.97817" lon="7.07554">
        <ele>1097.5999755859</ele>
        <time>2020-05-27T12:22:55.000Z</time>
      </trkpt>
      <trkpt lat="43.97821" lon="7.07555">
        <ele>1097</ele>
        <time>2020-05-27T12:22:57.000Z</time>
      </trkpt>
      <trkpt lat="43.97826" lon="7.07558">
        <ele>1096.5999755859</ele>
        <time>2020-05-27T12:22:59.000Z</time>
      </trkpt>
      <trkpt lat="43.97834" lon="7.07565">
        <ele>1096.1999511719</ele>
        <time>2020-05-27T12:23:03.000Z</time>
      </trkpt>
      <trkpt lat="43.97835" lon="7.07565">
        <ele>1096.1999511719</ele>
        <time>2020-05-27T12:23:04.000Z</time>
      </trkpt>
      <trkpt lat="43.97835" lon="7.07564">
        <ele>1095.5999755859</ele>
        <time>2020-05-27T12:23:09.000Z</time>
      </trkpt>
      <trkpt lat="43.97838" lon="7.0756">
        <ele>1095.8000488281</ele>
        <time>2020-05-27T12:23:14.000Z</time>
      </trkpt>
      <trkpt lat="43.97839" lon="7.07561">
        <ele>1095.4000244141</ele>
        <time>2020-05-27T12:23:17.000Z</time>
      </trkpt>
      <trkpt lat="43.97839" lon="7.07561">
        <ele>1095.4000244141</ele>
        <time>2020-05-27T12:23:18.000Z</time>
      </trkpt>
      <trkpt lat="43.97841" lon="7.07561">
        <ele>1095</ele>
        <time>2020-05-27T12:23:23.000Z</time>
      </trkpt>
      <trkpt lat="43.97844" lon="7.07563">
        <ele>1095</ele>
        <time>2020-05-27T12:23:25.000Z</time>
      </trkpt>
      <trkpt lat="43.97856" lon="7.07568">
        <ele>1095.1999511719</ele>
        <time>2020-05-27T12:23:30.000Z</time>
      </trkpt>
      <trkpt lat="43.97868" lon="7.07573">
        <ele>1096</ele>
        <time>2020-05-27T12:23:36.000Z</time>
      </trkpt>
      <trkpt lat="43.97876" lon="7.07574">
        <ele>1096.5999755859</ele>
        <time>2020-05-27T12:23:40.000Z</time>
      </trkpt>
      <trkpt lat="43.97882" lon="7.07573">
        <ele>1096.8000488281</ele>
        <time>2020-05-27T12:23:42.000Z</time>
      </trkpt>
      <trkpt lat="43.97899" lon="7.07575">
        <ele>1097</ele>
        <time>2020-05-27T12:23:47.000Z</time>
      </trkpt>
      <trkpt lat="43.97912" lon="7.07581">
        <ele>1097.5999755859</ele>
        <time>2020-05-27T12:23:53.000Z</time>
      </trkpt>
      <trkpt lat="43.97913" lon="7.07582">
        <ele>1098</ele>
        <time>2020-05-27T12:23:54.000Z</time>
      </trkpt>
      <trkpt lat="43.97921" lon="7.07585">
        <ele>1098.8000488281</ele>
        <time>2020-05-27T12:23:58.000Z</time>
      </trkpt>
      <trkpt lat="43.97927" lon="7.07586">
        <ele>1099.1999511719</ele>
        <time>2020-05-27T12:24:01.000Z</time>
      </trkpt>
      <trkpt lat="43.97928" lon="7.07587">
        <ele>1099.4000244141</ele>
        <time>2020-05-27T12:24:05.000Z</time>
      </trkpt>
      <trkpt lat="43.97928" lon="7.07585">
        <ele>1099.5999755859</ele>
        <time>2020-05-27T12:24:09.000Z</time>
      </trkpt>
      <trkpt lat="43.9793" lon="7.07586">
        <ele>1099.5999755859</ele>
        <time>2020-05-27T12:24:15.000Z</time>
      </trkpt>
      <trkpt lat="43.97931" lon="7.07585">
        <ele>1099.5999755859</ele>
        <time>2020-05-27T12:24:19.000Z</time>
      </trkpt>
      <trkpt lat="43.97932" lon="7.07585">
        <ele>1099.5999755859</ele>
        <time>2020-05-27T12:24:20.000Z</time>
      </trkpt>
      <trkpt lat="43.97931" lon="7.07585">
        <ele>1099.8000488281</ele>
        <time>2020-05-27T12:24:21.000Z</time>
      </trkpt>
      <trkpt lat="43.97931" lon="7.07585">
        <ele>1100</ele>
        <time>2020-05-27T12:24:24.000Z</time>
      </trkpt>
      <trkpt lat="43.97933" lon="7.07584">
        <ele>1099.8000488281</ele>
        <time>2020-05-27T12:24:35.000Z</time>
      </trkpt>
      <trkpt lat="43.97931" lon="7.07582">
        <ele>1099.8000488281</ele>
        <time>2020-05-27T12:24:42.000Z</time>
      </trkpt>
      <trkpt lat="43.97931" lon="7.07582">
        <ele>1100</ele>
        <time>2020-05-27T12:24:49.000Z</time>
      </trkpt>
      <trkpt lat="43.97931" lon="7.07582">
        <ele>1100</ele>
        <time>2020-05-27T12:25:10.000Z</time>
      </trkpt>
      <trkpt lat="43.97933" lon="7.07585">
        <ele>1100.4000244141</ele>
        <time>2020-05-27T12:25:14.000Z</time>
      </trkpt>
      <trkpt lat="43.97934" lon="7.07586">
        <ele>1100.4000244141</ele>
        <time>2020-05-27T12:25:16.000Z</time>
      </trkpt>
      <trkpt lat="43.97935" lon="7.07589">
        <ele>1099.4000244141</ele>
        <time>2020-05-27T12:25:21.000Z</time>
      </trkpt>
      <trkpt lat="43.97936" lon="7.0759">
        <ele>1099.5999755859</ele>
        <time>2020-05-27T12:25:28.000Z</time>
      </trkpt>
      <trkpt lat="43.97935" lon="7.07592">
        <ele>1099.5999755859</ele>
        <time>2020-05-27T12:25:37.000Z</time>
      </trkpt>
      <trkpt lat="43.97935" lon="7.07591">
        <ele>1099.4000244141</ele>
        <time>2020-05-27T12:25:48.000Z</time>
      </trkpt>
      <trkpt lat="43.97934" lon="7.07591">
        <ele>1099.1999511719</ele>
        <time>2020-05-27T12:26:06.000Z</time>
      </trkpt>
      <trkpt lat="43.97934" lon="7.07591">
        <ele>1099.4000244141</ele>
        <time>2020-05-27T12:26:20.000Z</time>
      </trkpt>
      <trkpt lat="43.97934" lon="7.07591">
        <ele>1099.5999755859</ele>
        <time>2020-05-27T12:26:28.000Z</time>
      </trkpt>
      <trkpt lat="43.97934" lon="7.07589">
        <ele>1099.4000244141</ele>
        <time>2020-05-27T12:26:43.000Z</time>
      </trkpt>
      <trkpt lat="43.97934" lon="7.0759">
        <ele>1099.4000244141</ele>
        <time>2020-05-27T12:26:52.000Z</time>
      </trkpt>
      <trkpt lat="43.97935" lon="7.0759">
        <ele>1099.4000244141</ele>
        <time>2020-05-27T12:27:01.000Z</time>
      </trkpt>
      <trkpt lat="43.97935" lon="7.07591">
        <ele>1099.5999755859</ele>
        <time>2020-05-27T12:27:11.000Z</time>
      </trkpt>
      <trkpt lat="43.97934" lon="7.07591">
        <ele>1099.5999755859</ele>
        <time>2020-05-27T12:27:31.000Z</time>
      </trkpt>
      <trkpt lat="43.97934" lon="7.07592">
        <ele>1099.8000488281</ele>
        <time>2020-05-27T12:27:40.000Z</time>
      </trkpt>
      <trkpt lat="43.97935" lon="7.07591">
        <ele>1099.5999755859</ele>
        <time>2020-05-27T12:27:50.000Z</time>
      </trkpt>
      <trkpt lat="43.97935" lon="7.07591">
        <ele>1099.8000488281</ele>
        <time>2020-05-27T12:28:00.000Z</time>
      </trkpt>
      <trkpt lat="43.97936" lon="7.07591">
        <ele>1099.5999755859</ele>
        <time>2020-05-27T12:28:16.000Z</time>
      </trkpt>
      <trkpt lat="43.97936" lon="7.07591">
        <ele>1099.8000488281</ele>
        <time>2020-05-27T12:28:25.000Z</time>
      </trkpt>
      <trkpt lat="43.97931" lon="7.07586">
        <ele>1099.1999511719</ele>
        <time>2020-05-27T12:28:32.000Z</time>
      </trkpt>
      <trkpt lat="43.97931" lon="7.07585">
        <ele>1099.1999511719</ele>
        <time>2020-05-27T12:28:33.000Z</time>
      </trkpt>
      <trkpt lat="43.97931" lon="7.07584">
        <ele>1099.1999511719</ele>
        <time>2020-05-27T12:28:36.000Z</time>
      </trkpt>
      <trkpt lat="43.9793" lon="7.07584">
        <ele>1099.1999511719</ele>
        <time>2020-05-27T12:28:43.000Z</time>
      </trkpt>
      <trkpt lat="43.9793" lon="7.07584">
        <ele>1099.4000244141</ele>
        <time>2020-05-27T12:28:54.000Z</time>
      </trkpt>
      <trkpt lat="43.9793" lon="7.07583">
        <ele>1099.4000244141</ele>
        <time>2020-05-27T12:28:59.000Z</time>
      </trkpt>
      <trkpt lat="43.9793" lon="7.07584">
        <ele>1099.8000488281</ele>
        <time>2020-05-27T12:29:09.000Z</time>
      </trkpt>
      <trkpt lat="43.97932" lon="7.07587">
        <ele>1099.5999755859</ele>
        <time>2020-05-27T12:29:13.000Z</time>
      </trkpt>
      <trkpt lat="43.97942" lon="7.07591">
        <ele>1099.5999755859</ele>
        <time>2020-05-27T12:29:19.000Z</time>
      </trkpt>
      <trkpt lat="43.97954" lon="7.07596">
        <ele>1100.8000488281</ele>
        <time>2020-05-27T12:29:25.000Z</time>
      </trkpt>
      <trkpt lat="43.97956" lon="7.07597">
        <ele>1101.1999511719</ele>
        <time>2020-05-27T12:29:26.000Z</time>
      </trkpt>
      <trkpt lat="43.97965" lon="7.07603">
        <ele>1102</ele>
        <time>2020-05-27T12:29:30.000Z</time>
      </trkpt>
      <trkpt lat="43.97974" lon="7.0761">
        <ele>1103</ele>
        <time>2020-05-27T12:29:34.000Z</time>
      </trkpt>
      <trkpt lat="43.97989" lon="7.07623">
        <ele>1104.1999511719</ele>
        <time>2020-05-27T12:29:41.000Z</time>
      </trkpt>
      <trkpt lat="43.97998" lon="7.07628">
        <ele>1105.4000244141</ele>
        <time>2020-05-27T12:29:45.000Z</time>
      </trkpt>
      <trkpt lat="43.98007" lon="7.07632">
        <ele>1106.4000244141</ele>
        <time>2020-05-27T12:29:49.000Z</time>
      </trkpt>
      <trkpt lat="43.98009" lon="7.07633">
        <ele>1106.5999755859</ele>
        <time>2020-05-27T12:29:50.000Z</time>
      </trkpt>
      <trkpt lat="43.98017" lon="7.07644">
        <ele>1107.8000488281</ele>
        <time>2020-05-27T12:29:55.000Z</time>
      </trkpt>
      <trkpt lat="43.98022" lon="7.07657">
        <ele>1109</ele>
        <time>2020-05-27T12:30:00.000Z</time>
      </trkpt>
      <trkpt lat="43.98023" lon="7.07659">
        <ele>1109.1999511719</ele>
        <time>2020-05-27T12:30:01.000Z</time>
      </trkpt>
      <trkpt lat="43.9803" lon="7.07678">
        <ele>1110</ele>
        <time>2020-05-27T12:30:07.000Z</time>
      </trkpt>
      <trkpt lat="43.98033" lon="7.07687">
        <ele>1110.4000244141</ele>
        <time>2020-05-27T12:30:10.000Z</time>
      </trkpt>
      <trkpt lat="43.9804" lon="7.0771">
        <ele>1111.1999511719</ele>
        <time>2020-05-27T12:30:17.000Z</time>
      </trkpt>
      <trkpt lat="43.98041" lon="7.07714">
        <ele>1111.1999511719</ele>
        <time>2020-05-27T12:30:18.000Z</time>
      </trkpt>
      <trkpt lat="43.98047" lon="7.07733">
        <ele>1112.1999511719</ele>
        <time>2020-05-27T12:30:24.000Z</time>
      </trkpt>
      <trkpt lat="43.98049" lon="7.07743">
        <ele>1112.5999755859</ele>
        <time>2020-05-27T12:30:27.000Z</time>
      </trkpt>
      <trkpt lat="43.98052" lon="7.07756">
        <ele>1113.4000244141</ele>
        <time>2020-05-27T12:30:31.000Z</time>
      </trkpt>
      <trkpt lat="43.98056" lon="7.07773">
        <ele>1114.1999511719</ele>
        <time>2020-05-27T12:30:36.000Z</time>
      </trkpt>
      <trkpt lat="43.98057" lon="7.0778">
        <ele>1114.4000244141</ele>
        <time>2020-05-27T12:30:38.000Z</time>
      </trkpt>
      <trkpt lat="43.98061" lon="7.07799">
        <ele>1115</ele>
        <time>2020-05-27T12:30:43.000Z</time>
      </trkpt>
      <trkpt lat="43.98066" lon="7.07818">
        <ele>1115.5999755859</ele>
        <time>2020-05-27T12:30:48.000Z</time>
      </trkpt>
      <trkpt lat="43.98068" lon="7.07829">
        <ele>1115.8000488281</ele>
        <time>2020-05-27T12:30:51.000Z</time>
      </trkpt>
      <trkpt lat="43.98071" lon="7.07844">
        <ele>1116.5999755859</ele>
        <time>2020-05-27T12:30:55.000Z</time>
      </trkpt>
      <trkpt lat="43.98072" lon="7.07855">
        <ele>1117</ele>
        <time>2020-05-27T12:30:58.000Z</time>
      </trkpt>
      <trkpt lat="43.98078" lon="7.07887">
        <ele>1117.5999755859</ele>
        <time>2020-05-27T12:31:06.000Z</time>
      </trkpt>
      <trkpt lat="43.98079" lon="7.07896">
        <ele>1117.5999755859</ele>
        <time>2020-05-27T12:31:08.000Z</time>
      </trkpt>
      <trkpt lat="43.9808" lon="7.0792">
        <ele>1118.8000488281</ele>
        <time>2020-05-27T12:31:14.000Z</time>
      </trkpt>
      <trkpt lat="43.9808" lon="7.07925">
        <ele>1119</ele>
        <time>2020-05-27T12:31:15.000Z</time>
      </trkpt>
      <trkpt lat="43.98077" lon="7.07959">
        <ele>1119.1999511719</ele>
        <time>2020-05-27T12:31:23.000Z</time>
      </trkpt>
      <trkpt lat="43.98076" lon="7.08">
        <ele>1119.8000488281</ele>
        <time>2020-05-27T12:31:32.000Z</time>
      </trkpt>
      <trkpt lat="43.98075" lon="7.08009">
        <ele>1120</ele>
        <time>2020-05-27T12:31:34.000Z</time>
      </trkpt>
      <trkpt lat="43.9807" lon="7.08038">
        <ele>1120.4000244141</ele>
        <time>2020-05-27T12:31:41.000Z</time>
      </trkpt>
      <trkpt lat="43.98067" lon="7.08065">
        <ele>1121</ele>
        <time>2020-05-27T12:31:48.000Z</time>
      </trkpt>
      <trkpt lat="43.98072" lon="7.08079">
        <ele>1121.5999755859</ele>
        <time>2020-05-27T12:31:53.000Z</time>
      </trkpt>
      <trkpt lat="43.98075" lon="7.08084">
        <ele>1122.1999511719</ele>
        <time>2020-05-27T12:31:55.000Z</time>
      </trkpt>
      <trkpt lat="43.98079" lon="7.08097">
        <ele>1123.4000244141</ele>
        <time>2020-05-27T12:32:00.000Z</time>
      </trkpt>
      <trkpt lat="43.98085" lon="7.08114">
        <ele>1124.4000244141</ele>
        <time>2020-05-27T12:32:06.000Z</time>
      </trkpt>
      <trkpt lat="43.98089" lon="7.08123">
        <ele>1124.8000488281</ele>
        <time>2020-05-27T12:32:09.000Z</time>
      </trkpt>
      <trkpt lat="43.98095" lon="7.08138">
        <ele>1125.5999755859</ele>
        <time>2020-05-27T12:32:14.000Z</time>
      </trkpt>
      <trkpt lat="43.98099" lon="7.08152">
        <ele>1126.4000244141</ele>
        <time>2020-05-27T12:32:18.000Z</time>
      </trkpt>
      <trkpt lat="43.98101" lon="7.08157">
        <ele>1126.8000488281</ele>
        <time>2020-05-27T12:32:20.000Z</time>
      </trkpt>
      <trkpt lat="43.98104" lon="7.0817">
        <ele>1128</ele>
        <time>2020-05-27T12:32:24.000Z</time>
      </trkpt>
      <trkpt lat="43.98104" lon="7.08173">
        <ele>1128.1999511719</ele>
        <time>2020-05-27T12:32:25.000Z</time>
      </trkpt>
      <trkpt lat="43.98106" lon="7.08194">
        <ele>1129</ele>
        <time>2020-05-27T12:32:31.000Z</time>
      </trkpt>
      <trkpt lat="43.98106" lon="7.08204">
        <ele>1129.1999511719</ele>
        <time>2020-05-27T12:32:34.000Z</time>
      </trkpt>
      <trkpt lat="43.98106" lon="7.08221">
        <ele>1130</ele>
        <time>2020-05-27T12:32:39.000Z</time>
      </trkpt>
      <trkpt lat="43.98106" lon="7.08235">
        <ele>1131</ele>
        <time>2020-05-27T12:32:43.000Z</time>
      </trkpt>
      <trkpt lat="43.98105" lon="7.08254">
        <ele>1132.1999511719</ele>
        <time>2020-05-27T12:32:49.000Z</time>
      </trkpt>
      <trkpt lat="43.98104" lon="7.08274">
        <ele>1133</ele>
        <time>2020-05-27T12:32:55.000Z</time>
      </trkpt>
      <trkpt lat="43.98105" lon="7.08281">
        <ele>1133.4000244141</ele>
        <time>2020-05-27T12:32:57.000Z</time>
      </trkpt>
      <trkpt lat="43.98111" lon="7.08293">
        <ele>1133.8000488281</ele>
        <time>2020-05-27T12:33:01.000Z</time>
      </trkpt>
      <trkpt lat="43.98116" lon="7.08301">
        <ele>1134.4000244141</ele>
        <time>2020-05-27T12:33:04.000Z</time>
      </trkpt>
      <trkpt lat="43.98126" lon="7.08313">
        <ele>1135.1999511719</ele>
        <time>2020-05-27T12:33:09.000Z</time>
      </trkpt>
      <trkpt lat="43.98133" lon="7.0832">
        <ele>1135.5999755859</ele>
        <time>2020-05-27T12:33:13.000Z</time>
      </trkpt>
      <trkpt lat="43.98138" lon="7.08326">
        <ele>1136.1999511719</ele>
        <time>2020-05-27T12:33:16.000Z</time>
      </trkpt>
      <trkpt lat="43.98141" lon="7.08328">
        <ele>1136.8000488281</ele>
        <time>2020-05-27T12:33:18.000Z</time>
      </trkpt>
      <trkpt lat="43.98147" lon="7.08333">
        <ele>1137.5999755859</ele>
        <time>2020-05-27T12:33:22.000Z</time>
      </trkpt>
      <trkpt lat="43.98151" lon="7.08335">
        <ele>1138</ele>
        <time>2020-05-27T12:33:24.000Z</time>
      </trkpt>
      <trkpt lat="43.98151" lon="7.08337">
        <ele>1138.1999511719</ele>
        <time>2020-05-27T12:33:25.000Z</time>
      </trkpt>
      <trkpt lat="43.98153" lon="7.0834">
        <ele>1138.8000488281</ele>
        <time>2020-05-27T12:33:27.000Z</time>
      </trkpt>
      <trkpt lat="43.98156" lon="7.08342">
        <ele>1139.1999511719</ele>
        <time>2020-05-27T12:33:29.000Z</time>
      </trkpt>
      <trkpt lat="43.98159" lon="7.08348">
        <ele>1139.5999755859</ele>
        <time>2020-05-27T12:33:32.000Z</time>
      </trkpt>
      <trkpt lat="43.98162" lon="7.08351">
        <ele>1140.1999511719</ele>
        <time>2020-05-27T12:33:34.000Z</time>
      </trkpt>
      <trkpt lat="43.98168" lon="7.08357">
        <ele>1140.8000488281</ele>
        <time>2020-05-27T12:33:38.000Z</time>
      </trkpt>
      <trkpt lat="43.98174" lon="7.0836">
        <ele>1141.1999511719</ele>
        <time>2020-05-27T12:33:41.000Z</time>
      </trkpt>
      <trkpt lat="43.9818" lon="7.08364">
        <ele>1141.5999755859</ele>
        <time>2020-05-27T12:33:44.000Z</time>
      </trkpt>
      <trkpt lat="43.98192" lon="7.08374">
        <ele>1142.1999511719</ele>
        <time>2020-05-27T12:33:50.000Z</time>
      </trkpt>
      <trkpt lat="43.98195" lon="7.08377">
        <ele>1142.5999755859</ele>
        <time>2020-05-27T12:33:52.000Z</time>
      </trkpt>
      <trkpt lat="43.98205" lon="7.08381">
        <ele>1143</ele>
        <time>2020-05-27T12:33:57.000Z</time>
      </trkpt>
      <trkpt lat="43.98206" lon="7.08383">
        <ele>1143</ele>
        <time>2020-05-27T12:33:58.000Z</time>
      </trkpt>
      <trkpt lat="43.98211" lon="7.0839">
        <ele>1143.4000244141</ele>
        <time>2020-05-27T12:34:01.000Z</time>
      </trkpt>
      <trkpt lat="43.98213" lon="7.08392">
        <ele>1143.5999755859</ele>
        <time>2020-05-27T12:34:02.000Z</time>
      </trkpt>
      <trkpt lat="43.98217" lon="7.084">
        <ele>1144.4000244141</ele>
        <time>2020-05-27T12:34:08.000Z</time>
      </trkpt>
      <trkpt lat="43.98218" lon="7.08401">
        <ele>1144.5999755859</ele>
        <time>2020-05-27T12:34:09.000Z</time>
      </trkpt>
      <trkpt lat="43.98218" lon="7.08407">
        <ele>1144.5999755859</ele>
        <time>2020-05-27T12:34:13.000Z</time>
      </trkpt>
      <trkpt lat="43.98217" lon="7.0841">
        <ele>1145.4000244141</ele>
        <time>2020-05-27T12:34:18.000Z</time>
      </trkpt>
      <trkpt lat="43.98216" lon="7.08411">
        <ele>1145.4000244141</ele>
        <time>2020-05-27T12:34:22.000Z</time>
      </trkpt>
      <trkpt lat="43.98214" lon="7.08414">
        <ele>1145.5999755859</ele>
        <time>2020-05-27T12:34:24.000Z</time>
      </trkpt>
      <trkpt lat="43.98213" lon="7.08415">
        <ele>1145.5999755859</ele>
        <time>2020-05-27T12:34:25.000Z</time>
      </trkpt>
      <trkpt lat="43.98212" lon="7.08415">
        <ele>1145.5999755859</ele>
        <time>2020-05-27T12:34:26.000Z</time>
      </trkpt>
      <trkpt lat="43.98206" lon="7.08421">
        <ele>1146.1999511719</ele>
        <time>2020-05-27T12:34:30.000Z</time>
      </trkpt>
      <trkpt lat="43.98201" lon="7.08424">
        <ele>1146.8000488281</ele>
        <time>2020-05-27T12:34:33.000Z</time>
      </trkpt>
      <trkpt lat="43.98197" lon="7.08426">
        <ele>1147</ele>
        <time>2020-05-27T12:34:35.000Z</time>
      </trkpt>
      <trkpt lat="43.98181" lon="7.08437">
        <ele>1146.8000488281</ele>
        <time>2020-05-27T12:34:41.000Z</time>
      </trkpt>
      <trkpt lat="43.98164" lon="7.08446">
        <ele>1146.8000488281</ele>
        <time>2020-05-27T12:34:47.000Z</time>
      </trkpt>
      <trkpt lat="43.98161" lon="7.0845">
        <ele>1146.8000488281</ele>
        <time>2020-05-27T12:34:49.000Z</time>
      </trkpt>
      <trkpt lat="43.9816" lon="7.08454">
        <ele>1147.1999511719</ele>
        <time>2020-05-27T12:34:51.000Z</time>
      </trkpt>
      <trkpt lat="43.98162" lon="7.08468">
        <ele>1147.5999755859</ele>
        <time>2020-05-27T12:34:55.000Z</time>
      </trkpt>
      <trkpt lat="43.9817" lon="7.08488">
        <ele>1146.1999511719</ele>
        <time>2020-05-27T12:34:59.000Z</time>
      </trkpt>
      <trkpt lat="43.98174" lon="7.08495">
        <ele>1145.5999755859</ele>
        <time>2020-05-27T12:35:01.000Z</time>
      </trkpt>
      <trkpt lat="43.98179" lon="7.08501">
        <ele>1145.1999511719</ele>
        <time>2020-05-27T12:35:03.000Z</time>
      </trkpt>
      <trkpt lat="43.98185" lon="7.08512">
        <ele>1145.8000488281</ele>
        <time>2020-05-27T12:35:08.000Z</time>
      </trkpt>
      <trkpt lat="43.98184" lon="7.08513">
        <ele>1146.4000244141</ele>
        <time>2020-05-27T12:35:12.000Z</time>
      </trkpt>
      <trkpt lat="43.98184" lon="7.08516">
        <ele>1146.5999755859</ele>
        <time>2020-05-27T12:35:14.000Z</time>
      </trkpt>
      <trkpt lat="43.98184" lon="7.08521">
        <ele>1146.8000488281</ele>
        <time>2020-05-27T12:35:17.000Z</time>
      </trkpt>
      <trkpt lat="43.98184" lon="7.08522">
        <ele>1147</ele>
        <time>2020-05-27T12:35:18.000Z</time>
      </trkpt>
      <trkpt lat="43.98182" lon="7.08529">
        <ele>1147.5999755859</ele>
        <time>2020-05-27T12:35:22.000Z</time>
      </trkpt>
      <trkpt lat="43.98181" lon="7.08532">
        <ele>1147.8000488281</ele>
        <time>2020-05-27T12:35:24.000Z</time>
      </trkpt>
      <trkpt lat="43.98177" lon="7.08539">
        <ele>1148.5999755859</ele>
        <time>2020-05-27T12:35:31.000Z</time>
      </trkpt>
      <trkpt lat="43.98176" lon="7.0854">
        <ele>1148.8000488281</ele>
        <time>2020-05-27T12:35:32.000Z</time>
      </trkpt>
      <trkpt lat="43.98172" lon="7.08543">
        <ele>1149.1999511719</ele>
        <time>2020-05-27T12:35:36.000Z</time>
      </trkpt>
      <trkpt lat="43.98171" lon="7.08545">
        <ele>1150</ele>
        <time>2020-05-27T12:35:40.000Z</time>
      </trkpt>
      <trkpt lat="43.98171" lon="7.08544">
        <ele>1150</ele>
        <time>2020-05-27T12:35:42.000Z</time>
      </trkpt>
      <trkpt lat="43.98169" lon="7.08547">
        <ele>1150.1999511719</ele>
        <time>2020-05-27T12:35:45.000Z</time>
      </trkpt>
      <trkpt lat="43.98167" lon="7.08549">
        <ele>1150.5999755859</ele>
        <time>2020-05-27T12:35:48.000Z</time>
      </trkpt>
      <trkpt lat="43.98167" lon="7.0855">
        <ele>1151</ele>
        <time>2020-05-27T12:35:49.000Z</time>
      </trkpt>
      <trkpt lat="43.98166" lon="7.08554">
        <ele>1151.8000488281</ele>
        <time>2020-05-27T12:35:55.000Z</time>
      </trkpt>
      <trkpt lat="43.98166" lon="7.08554">
        <ele>1152</ele>
        <time>2020-05-27T12:35:56.000Z</time>
      </trkpt>
      <trkpt lat="43.98163" lon="7.08556">
        <ele>1152.8000488281</ele>
        <time>2020-05-27T12:36:01.000Z</time>
      </trkpt>
      <trkpt lat="43.98162" lon="7.08556">
        <ele>1153</ele>
        <time>2020-05-27T12:36:02.000Z</time>
      </trkpt>
      <trkpt lat="43.98159" lon="7.08559">
        <ele>1154</ele>
        <time>2020-05-27T12:36:07.000Z</time>
      </trkpt>
      <trkpt lat="43.98158" lon="7.0856">
        <ele>1154.1999511719</ele>
        <time>2020-05-27T12:36:08.000Z</time>
      </trkpt>
      <trkpt lat="43.98156" lon="7.08564">
        <ele>1155</ele>
        <time>2020-05-27T12:36:14.000Z</time>
      </trkpt>
      <trkpt lat="43.98155" lon="7.08566">
        <ele>1156</ele>
        <time>2020-05-27T12:36:20.000Z</time>
      </trkpt>
      <trkpt lat="43.98156" lon="7.08569">
        <ele>1156.4000244141</ele>
        <time>2020-05-27T12:36:29.000Z</time>
      </trkpt>
      <trkpt lat="43.98156" lon="7.08571">
        <ele>1156.4000244141</ele>
        <time>2020-05-27T12:36:32.000Z</time>
      </trkpt>
      <trkpt lat="43.98156" lon="7.08572">
        <ele>1156.4000244141</ele>
        <time>2020-05-27T12:36:33.000Z</time>
      </trkpt>
      <trkpt lat="43.98157" lon="7.08577">
        <ele>1157.1999511719</ele>
        <time>2020-05-27T12:36:38.000Z</time>
      </trkpt>
      <trkpt lat="43.98156" lon="7.08581">
        <ele>1158.1999511719</ele>
        <time>2020-05-27T12:36:43.000Z</time>
      </trkpt>
      <trkpt lat="43.98156" lon="7.08582">
        <ele>1158.4000244141</ele>
        <time>2020-05-27T12:36:44.000Z</time>
      </trkpt>
      <trkpt lat="43.98157" lon="7.08586">
        <ele>1159.4000244141</ele>
        <time>2020-05-27T12:36:49.000Z</time>
      </trkpt>
      <trkpt lat="43.98157" lon="7.08587">
        <ele>1159.5999755859</ele>
        <time>2020-05-27T12:36:50.000Z</time>
      </trkpt>
      <trkpt lat="43.98158" lon="7.0859">
        <ele>1160.5999755859</ele>
        <time>2020-05-27T12:36:54.000Z</time>
      </trkpt>
      <trkpt lat="43.98158" lon="7.08591">
        <ele>1161</ele>
        <time>2020-05-27T12:36:56.000Z</time>
      </trkpt>
      <trkpt lat="43.98159" lon="7.08594">
        <ele>1161.5999755859</ele>
        <time>2020-05-27T12:36:59.000Z</time>
      </trkpt>
      <trkpt lat="43.98159" lon="7.08597">
        <ele>1162.1999511719</ele>
        <time>2020-05-27T12:37:03.000Z</time>
      </trkpt>
      <trkpt lat="43.98159" lon="7.08599">
        <ele>1162.5999755859</ele>
        <time>2020-05-27T12:37:05.000Z</time>
      </trkpt>
      <trkpt lat="43.98161" lon="7.08602">
        <ele>1163.8000488281</ele>
        <time>2020-05-27T12:37:10.000Z</time>
      </trkpt>
      <trkpt lat="43.98161" lon="7.08602">
        <ele>1164.1999511719</ele>
        <time>2020-05-27T12:37:12.000Z</time>
      </trkpt>
      <trkpt lat="43.98162" lon="7.08606">
        <ele>1164.8000488281</ele>
        <time>2020-05-27T12:37:15.000Z</time>
      </trkpt>
      <trkpt lat="43.98164" lon="7.08609">
        <ele>1165.4000244141</ele>
        <time>2020-05-27T12:37:19.000Z</time>
      </trkpt>
      <trkpt lat="43.98164" lon="7.08611">
        <ele>1166</ele>
        <time>2020-05-27T12:37:22.000Z</time>
      </trkpt>
      <trkpt lat="43.98165" lon="7.08614">
        <ele>1166.4000244141</ele>
        <time>2020-05-27T12:37:25.000Z</time>
      </trkpt>
      <trkpt lat="43.98166" lon="7.08617">
        <ele>1167</ele>
        <time>2020-05-27T12:37:28.000Z</time>
      </trkpt>
      <trkpt lat="43.98166" lon="7.08619">
        <ele>1167.8000488281</ele>
        <time>2020-05-27T12:37:31.000Z</time>
      </trkpt>
      <trkpt lat="43.98167" lon="7.08621">
        <ele>1168</ele>
        <time>2020-05-27T12:37:32.000Z</time>
      </trkpt>
      <trkpt lat="43.98167" lon="7.08625">
        <ele>1169</ele>
        <time>2020-05-27T12:37:37.000Z</time>
      </trkpt>
      <trkpt lat="43.98167" lon="7.08624">
        <ele>1169.1999511719</ele>
        <time>2020-05-27T12:37:38.000Z</time>
      </trkpt>
      <trkpt lat="43.98167" lon="7.08627">
        <ele>1169.5999755859</ele>
        <time>2020-05-27T12:37:40.000Z</time>
      </trkpt>
      <trkpt lat="43.98167" lon="7.0863">
        <ele>1170</ele>
        <time>2020-05-27T12:37:43.000Z</time>
      </trkpt>
      <trkpt lat="43.98167" lon="7.08629">
        <ele>1170.1999511719</ele>
        <time>2020-05-27T12:37:44.000Z</time>
      </trkpt>
      <trkpt lat="43.98167" lon="7.08634">
        <ele>1171.1999511719</ele>
        <time>2020-05-27T12:37:49.000Z</time>
      </trkpt>
      <trkpt lat="43.98167" lon="7.08641">
        <ele>1172.5999755859</ele>
        <time>2020-05-27T12:37:55.000Z</time>
      </trkpt>
      <trkpt lat="43.98165" lon="7.08646">
        <ele>1173.5999755859</ele>
        <time>2020-05-27T12:37:59.000Z</time>
      </trkpt>
      <trkpt lat="43.98165" lon="7.08647">
        <ele>1173.8000488281</ele>
        <time>2020-05-27T12:38:01.000Z</time>
      </trkpt>
      <trkpt lat="43.98164" lon="7.08647">
        <ele>1174.1999511719</ele>
        <time>2020-05-27T12:38:07.000Z</time>
      </trkpt>
      <trkpt lat="43.98159" lon="7.08652">
        <ele>1174</ele>
        <time>2020-05-27T12:38:13.000Z</time>
      </trkpt>
      <trkpt lat="43.98151" lon="7.0866">
        <ele>1174.8000488281</ele>
        <time>2020-05-27T12:38:19.000Z</time>
      </trkpt>
      <trkpt lat="43.9815" lon="7.08662">
        <ele>1175</ele>
        <time>2020-05-27T12:38:20.000Z</time>
      </trkpt>
      <trkpt lat="43.98141" lon="7.08671">
        <ele>1175.8000488281</ele>
        <time>2020-05-27T12:38:26.000Z</time>
      </trkpt>
      <trkpt lat="43.98134" lon="7.08675">
        <ele>1177</ele>
        <time>2020-05-27T12:38:31.000Z</time>
      </trkpt>
      <trkpt lat="43.98131" lon="7.08679">
        <ele>1177.4000244141</ele>
        <time>2020-05-27T12:38:34.000Z</time>
      </trkpt>
      <trkpt lat="43.98125" lon="7.08687">
        <ele>1178.1999511719</ele>
        <time>2020-05-27T12:38:39.000Z</time>
      </trkpt>
      <trkpt lat="43.98123" lon="7.08689">
        <ele>1178.5999755859</ele>
        <time>2020-05-27T12:38:41.000Z</time>
      </trkpt>
      <trkpt lat="43.98116" lon="7.08695">
        <ele>1179.1999511719</ele>
        <time>2020-05-27T12:38:46.000Z</time>
      </trkpt>
      <trkpt lat="43.98111" lon="7.08696">
        <ele>1179.5999755859</ele>
        <time>2020-05-27T12:38:49.000Z</time>
      </trkpt>
      <trkpt lat="43.98104" lon="7.08703">
        <ele>1180.4000244141</ele>
        <time>2020-05-27T12:38:54.000Z</time>
      </trkpt>
      <trkpt lat="43.98102" lon="7.08707">
        <ele>1180.5999755859</ele>
        <time>2020-05-27T12:38:56.000Z</time>
      </trkpt>
      <trkpt lat="43.98091" lon="7.08728">
        <ele>1180.5999755859</ele>
        <time>2020-05-27T12:39:03.000Z</time>
      </trkpt>
      <trkpt lat="43.9808" lon="7.08747">
        <ele>1180.4000244141</ele>
        <time>2020-05-27T12:39:09.000Z</time>
      </trkpt>
      <trkpt lat="43.98067" lon="7.08767">
        <ele>1180</ele>
        <time>2020-05-27T12:39:15.000Z</time>
      </trkpt>
      <trkpt lat="43.98064" lon="7.08771">
        <ele>1180.1999511719</ele>
        <time>2020-05-27T12:39:17.000Z</time>
      </trkpt>
      <trkpt lat="43.9806" lon="7.08774">
        <ele>1180.5999755859</ele>
        <time>2020-05-27T12:39:19.000Z</time>
      </trkpt>
      <trkpt lat="43.9806" lon="7.08776">
        <ele>1181</ele>
        <time>2020-05-27T12:39:20.000Z</time>
      </trkpt>
      <trkpt lat="43.98059" lon="7.08783">
        <ele>1181.1999511719</ele>
        <time>2020-05-27T12:39:23.000Z</time>
      </trkpt>
      <trkpt lat="43.98058" lon="7.08787">
        <ele>1181.4000244141</ele>
        <time>2020-05-27T12:39:24.000Z</time>
      </trkpt>
      <trkpt lat="43.98057" lon="7.088">
        <ele>1181.4000244141</ele>
        <time>2020-05-27T12:39:27.000Z</time>
      </trkpt>
      <trkpt lat="43.98061" lon="7.08821">
        <ele>1180.4000244141</ele>
        <time>2020-05-27T12:39:31.000Z</time>
      </trkpt>
      <trkpt lat="43.98063" lon="7.08828">
        <ele>1179.5999755859</ele>
        <time>2020-05-27T12:39:32.000Z</time>
      </trkpt>
      <trkpt lat="43.98064" lon="7.08832">
        <ele>1179.4000244141</ele>
        <time>2020-05-27T12:39:33.000Z</time>
      </trkpt>
      <trkpt lat="43.98064" lon="7.08837">
        <ele>1178.8000488281</ele>
        <time>2020-05-27T12:39:35.000Z</time>
      </trkpt>
      <trkpt lat="43.98064" lon="7.0884">
        <ele>1179.8000488281</ele>
        <time>2020-05-27T12:39:38.000Z</time>
      </trkpt>
      <trkpt lat="43.98064" lon="7.08841">
        <ele>1180.1999511719</ele>
        <time>2020-05-27T12:39:39.000Z</time>
      </trkpt>
      <trkpt lat="43.98064" lon="7.08843">
        <ele>1180.4000244141</ele>
        <time>2020-05-27T12:39:40.000Z</time>
      </trkpt>
      <trkpt lat="43.98065" lon="7.08851">
        <ele>1181.4000244141</ele>
        <time>2020-05-27T12:39:47.000Z</time>
      </trkpt>
      <trkpt lat="43.98065" lon="7.08853">
        <ele>1182</ele>
        <time>2020-05-27T12:39:49.000Z</time>
      </trkpt>
      <trkpt lat="43.98065" lon="7.08856">
        <ele>1182.4000244141</ele>
        <time>2020-05-27T12:39:52.000Z</time>
      </trkpt>
      <trkpt lat="43.98065" lon="7.0886">
        <ele>1183</ele>
        <time>2020-05-27T12:39:55.000Z</time>
      </trkpt>
      <trkpt lat="43.98065" lon="7.08862">
        <ele>1183.5999755859</ele>
        <time>2020-05-27T12:39:59.000Z</time>
      </trkpt>
      <trkpt lat="43.98065" lon="7.08864">
        <ele>1183.8000488281</ele>
        <time>2020-05-27T12:40:01.000Z</time>
      </trkpt>
      <trkpt lat="43.98065" lon="7.08865">
        <ele>1184.5999755859</ele>
        <time>2020-05-27T12:40:04.000Z</time>
      </trkpt>
      <trkpt lat="43.98067" lon="7.0887">
        <ele>1185.4000244141</ele>
        <time>2020-05-27T12:40:09.000Z</time>
      </trkpt>
      <trkpt lat="43.98068" lon="7.08871">
        <ele>1185.8000488281</ele>
        <time>2020-05-27T12:40:11.000Z</time>
      </trkpt>
      <trkpt lat="43.98069" lon="7.08874">
        <ele>1186.5999755859</ele>
        <time>2020-05-27T12:40:15.000Z</time>
      </trkpt>
      <trkpt lat="43.9807" lon="7.08875">
        <ele>1187</ele>
        <time>2020-05-27T12:40:17.000Z</time>
      </trkpt>
      <trkpt lat="43.9807" lon="7.08879">
        <ele>1187.5999755859</ele>
        <time>2020-05-27T12:40:21.000Z</time>
      </trkpt>
      <trkpt lat="43.9807" lon="7.0888">
        <ele>1188</ele>
        <time>2020-05-27T12:40:23.000Z</time>
      </trkpt>
      <trkpt lat="43.98071" lon="7.08883">
        <ele>1188.4000244141</ele>
        <time>2020-05-27T12:40:26.000Z</time>
      </trkpt>
      <trkpt lat="43.98071" lon="7.08884">
        <ele>1188.5999755859</ele>
        <time>2020-05-27T12:40:27.000Z</time>
      </trkpt>
      <trkpt lat="43.98071" lon="7.08886">
        <ele>1189</ele>
        <time>2020-05-27T12:40:29.000Z</time>
      </trkpt>
      <trkpt lat="43.98072" lon="7.08886">
        <ele>1189.1999511719</ele>
        <time>2020-05-27T12:40:30.000Z</time>
      </trkpt>
      <trkpt lat="43.98073" lon="7.0889">
        <ele>1189.5999755859</ele>
        <time>2020-05-27T12:40:34.000Z</time>
      </trkpt>
      <trkpt lat="43.98074" lon="7.08893">
        <ele>1190</ele>
        <time>2020-05-27T12:40:37.000Z</time>
      </trkpt>
      <trkpt lat="43.98075" lon="7.08895">
        <ele>1190.5999755859</ele>
        <time>2020-05-27T12:40:40.000Z</time>
      </trkpt>
      <trkpt lat="43.98076" lon="7.08898">
        <ele>1191.1999511719</ele>
        <time>2020-05-27T12:40:43.000Z</time>
      </trkpt>
      <trkpt lat="43.98076" lon="7.08899">
        <ele>1191.4000244141</ele>
        <time>2020-05-27T12:40:44.000Z</time>
      </trkpt>
      <trkpt lat="43.98076" lon="7.08903">
        <ele>1191.8000488281</ele>
        <time>2020-05-27T12:40:48.000Z</time>
      </trkpt>
      <trkpt lat="43.98076" lon="7.08905">
        <ele>1192.1999511719</ele>
        <time>2020-05-27T12:40:50.000Z</time>
      </trkpt>
      <trkpt lat="43.98077" lon="7.08908">
        <ele>1192.8000488281</ele>
        <time>2020-05-27T12:40:55.000Z</time>
      </trkpt>
      <trkpt lat="43.98077" lon="7.08914">
        <ele>1192.8000488281</ele>
        <time>2020-05-27T12:41:01.000Z</time>
      </trkpt>
      <trkpt lat="43.98076" lon="7.08919">
        <ele>1193.4000244141</ele>
        <time>2020-05-27T12:41:04.000Z</time>
      </trkpt>
      <trkpt lat="43.98076" lon="7.08923">
        <ele>1193.5999755859</ele>
        <time>2020-05-27T12:41:06.000Z</time>
      </trkpt>
      <trkpt lat="43.98076" lon="7.08926">
        <ele>1193.8000488281</ele>
        <time>2020-05-27T12:41:08.000Z</time>
      </trkpt>
      <trkpt lat="43.98076" lon="7.08932">
        <ele>1194.1999511719</ele>
        <time>2020-05-27T12:41:11.000Z</time>
      </trkpt>
      <trkpt lat="43.98076" lon="7.08934">
        <ele>1194.4000244141</ele>
        <time>2020-05-27T12:41:12.000Z</time>
      </trkpt>
      <trkpt lat="43.98076" lon="7.08944">
        <ele>1195.1999511719</ele>
        <time>2020-05-27T12:41:17.000Z</time>
      </trkpt>
      <trkpt lat="43.98076" lon="7.08946">
        <ele>1195.4000244141</ele>
        <time>2020-05-27T12:41:18.000Z</time>
      </trkpt>
      <trkpt lat="43.98072" lon="7.08962">
        <ele>1195.8000488281</ele>
        <time>2020-05-27T12:41:24.000Z</time>
      </trkpt>
      <trkpt lat="43.98069" lon="7.08974">
        <ele>1194.8000488281</ele>
        <time>2020-05-27T12:41:29.000Z</time>
      </trkpt>
      <trkpt lat="43.98067" lon="7.08981">
        <ele>1194.4000244141</ele>
        <time>2020-05-27T12:41:31.000Z</time>
      </trkpt>
      <trkpt lat="43.98063" lon="7.08985">
        <ele>1194</ele>
        <time>2020-05-27T12:41:34.000Z</time>
      </trkpt>
      <trkpt lat="43.98063" lon="7.08985">
        <ele>1194.8000488281</ele>
        <time>2020-05-27T12:41:38.000Z</time>
      </trkpt>
      <trkpt lat="43.9806" lon="7.08991">
        <ele>1195.1999511719</ele>
        <time>2020-05-27T12:41:44.000Z</time>
      </trkpt>
      <trkpt lat="43.98059" lon="7.08993">
        <ele>1195.4000244141</ele>
        <time>2020-05-27T12:41:46.000Z</time>
      </trkpt>
      <trkpt lat="43.98057" lon="7.08997">
        <ele>1196.4000244141</ele>
        <time>2020-05-27T12:41:50.000Z</time>
      </trkpt>
      <trkpt lat="43.98057" lon="7.08998">
        <ele>1196.5999755859</ele>
        <time>2020-05-27T12:41:51.000Z</time>
      </trkpt>
      <trkpt lat="43.98053" lon="7.09002">
        <ele>1197.1999511719</ele>
        <time>2020-05-27T12:41:55.000Z</time>
      </trkpt>
      <trkpt lat="43.98053" lon="7.09004">
        <ele>1197.4000244141</ele>
        <time>2020-05-27T12:41:56.000Z</time>
      </trkpt>
      <trkpt lat="43.9805" lon="7.09005">
        <ele>1197.5999755859</ele>
        <time>2020-05-27T12:41:59.000Z</time>
      </trkpt>
      <trkpt lat="43.98047" lon="7.09008">
        <ele>1198.4000244141</ele>
        <time>2020-05-27T12:42:05.000Z</time>
      </trkpt>
      <trkpt lat="43.98046" lon="7.09009">
        <ele>1198.8000488281</ele>
        <time>2020-05-27T12:42:07.000Z</time>
      </trkpt>
      <trkpt lat="43.98044" lon="7.09013">
        <ele>1199.8000488281</ele>
        <time>2020-05-27T12:42:12.000Z</time>
      </trkpt>
      <trkpt lat="43.98042" lon="7.09016">
        <ele>1201</ele>
        <time>2020-05-27T12:42:17.000Z</time>
      </trkpt>
      <trkpt lat="43.98042" lon="7.09017">
        <ele>1201.1999511719</ele>
        <time>2020-05-27T12:42:18.000Z</time>
      </trkpt>
      <trkpt lat="43.98038" lon="7.09022">
        <ele>1202</ele>
        <time>2020-05-27T12:42:23.000Z</time>
      </trkpt>
      <trkpt lat="43.98036" lon="7.09024">
        <ele>1202.4000244141</ele>
        <time>2020-05-27T12:42:25.000Z</time>
      </trkpt>
      <trkpt lat="43.98034" lon="7.09026">
        <ele>1203</ele>
        <time>2020-05-27T12:42:28.000Z</time>
      </trkpt>
      <trkpt lat="43.98034" lon="7.09027">
        <ele>1203.1999511719</ele>
        <time>2020-05-27T12:42:29.000Z</time>
      </trkpt>
      <trkpt lat="43.98033" lon="7.0903">
        <ele>1203.4000244141</ele>
        <time>2020-05-27T12:42:31.000Z</time>
      </trkpt>
      <trkpt lat="43.98032" lon="7.09033">
        <ele>1204.1999511719</ele>
        <time>2020-05-27T12:42:35.000Z</time>
      </trkpt>
      <trkpt lat="43.98031" lon="7.09036">
        <ele>1205</ele>
        <time>2020-05-27T12:42:38.000Z</time>
      </trkpt>
      <trkpt lat="43.98031" lon="7.09037">
        <ele>1205.4000244141</ele>
        <time>2020-05-27T12:42:40.000Z</time>
      </trkpt>
      <trkpt lat="43.98028" lon="7.09042">
        <ele>1206.4000244141</ele>
        <time>2020-05-27T12:42:45.000Z</time>
      </trkpt>
      <trkpt lat="43.98028" lon="7.09043">
        <ele>1206.5999755859</ele>
        <time>2020-05-27T12:42:46.000Z</time>
      </trkpt>
      <trkpt lat="43.98027" lon="7.09044">
        <ele>1207</ele>
        <time>2020-05-27T12:42:52.000Z</time>
      </trkpt>
      <trkpt lat="43.98024" lon="7.09048">
        <ele>1207</ele>
        <time>2020-05-27T12:43:06.000Z</time>
      </trkpt>
      <trkpt lat="43.98021" lon="7.09057">
        <ele>1207.4000244141</ele>
        <time>2020-05-27T12:43:11.000Z</time>
      </trkpt>
      <trkpt lat="43.98021" lon="7.09058">
        <ele>1207.5999755859</ele>
        <time>2020-05-27T12:43:12.000Z</time>
      </trkpt>
      <trkpt lat="43.98019" lon="7.09059">
        <ele>1207.8000488281</ele>
        <time>2020-05-27T12:43:13.000Z</time>
      </trkpt>
      <trkpt lat="43.98015" lon="7.09062">
        <ele>1208.1999511719</ele>
        <time>2020-05-27T12:43:16.000Z</time>
      </trkpt>
      <trkpt lat="43.98011" lon="7.09068">
        <ele>1208.5999755859</ele>
        <time>2020-05-27T12:43:20.000Z</time>
      </trkpt>
      <trkpt lat="43.9801" lon="7.09071">
        <ele>1208.8000488281</ele>
        <time>2020-05-27T12:43:22.000Z</time>
      </trkpt>
      <trkpt lat="43.98008" lon="7.09071">
        <ele>1209</ele>
        <time>2020-05-27T12:43:23.000Z</time>
      </trkpt>
      <trkpt lat="43.98005" lon="7.09074">
        <ele>1209.8000488281</ele>
        <time>2020-05-27T12:43:26.000Z</time>
      </trkpt>
      <trkpt lat="43.98004" lon="7.09075">
        <ele>1210</ele>
        <time>2020-05-27T12:43:27.000Z</time>
      </trkpt>
      <trkpt lat="43.98002" lon="7.09076">
        <ele>1210.8000488281</ele>
        <time>2020-05-27T12:43:32.000Z</time>
      </trkpt>
      <trkpt lat="43.98002" lon="7.09076">
        <ele>1210.8000488281</ele>
        <time>2020-05-27T12:43:33.000Z</time>
      </trkpt>
      <trkpt lat="43.98" lon="7.0908">
        <ele>1211.4000244141</ele>
        <time>2020-05-27T12:43:39.000Z</time>
      </trkpt>
      <trkpt lat="43.97998" lon="7.09085">
        <ele>1211.5999755859</ele>
        <time>2020-05-27T12:43:44.000Z</time>
      </trkpt>
      <trkpt lat="43.97998" lon="7.09086">
        <ele>1212</ele>
        <time>2020-05-27T12:43:45.000Z</time>
      </trkpt>
      <trkpt lat="43.97998" lon="7.0909">
        <ele>1212.5999755859</ele>
        <time>2020-05-27T12:43:50.000Z</time>
      </trkpt>
      <trkpt lat="43.97999" lon="7.09091">
        <ele>1213</ele>
        <time>2020-05-27T12:43:52.000Z</time>
      </trkpt>
      <trkpt lat="43.98001" lon="7.09095">
        <ele>1213.8000488281</ele>
        <time>2020-05-27T12:43:56.000Z</time>
      </trkpt>
      <trkpt lat="43.98001" lon="7.09095">
        <ele>1214</ele>
        <time>2020-05-27T12:43:57.000Z</time>
      </trkpt>
      <trkpt lat="43.98003" lon="7.09095">
        <ele>1215.1999511719</ele>
        <time>2020-05-27T12:44:01.000Z</time>
      </trkpt>
      <trkpt lat="43.98006" lon="7.09096">
        <ele>1216</ele>
        <time>2020-05-27T12:44:06.000Z</time>
      </trkpt>
      <trkpt lat="43.98008" lon="7.09095">
        <ele>1216.4000244141</ele>
        <time>2020-05-27T12:44:09.000Z</time>
      </trkpt>
      <trkpt lat="43.98009" lon="7.09095">
        <ele>1217</ele>
        <time>2020-05-27T12:44:11.000Z</time>
      </trkpt>
      <trkpt lat="43.98009" lon="7.09095">
        <ele>1217.5999755859</ele>
        <time>2020-05-27T12:44:13.000Z</time>
      </trkpt>
      <trkpt lat="43.98012" lon="7.09096">
        <ele>1218</ele>
        <time>2020-05-27T12:44:16.000Z</time>
      </trkpt>
      <trkpt lat="43.98016" lon="7.09097">
        <ele>1218.8000488281</ele>
        <time>2020-05-27T12:44:23.000Z</time>
      </trkpt>
      <trkpt lat="43.9802" lon="7.09096">
        <ele>1219.8000488281</ele>
        <time>2020-05-27T12:44:30.000Z</time>
      </trkpt>
      <trkpt lat="43.98023" lon="7.09096">
        <ele>1221</ele>
        <time>2020-05-27T12:44:36.000Z</time>
      </trkpt>
      <trkpt lat="43.98023" lon="7.09099">
        <ele>1222</ele>
        <time>2020-05-27T12:44:42.000Z</time>
      </trkpt>
      <trkpt lat="43.98022" lon="7.09102">
        <ele>1223.1999511719</ele>
        <time>2020-05-27T12:44:48.000Z</time>
      </trkpt>
      <trkpt lat="43.98022" lon="7.09103">
        <ele>1223.4000244141</ele>
        <time>2020-05-27T12:44:49.000Z</time>
      </trkpt>
      <trkpt lat="43.98022" lon="7.09106">
        <ele>1224.1999511719</ele>
        <time>2020-05-27T12:44:52.000Z</time>
      </trkpt>
      <trkpt lat="43.98022" lon="7.09108">
        <ele>1224.8000488281</ele>
        <time>2020-05-27T12:44:55.000Z</time>
      </trkpt>
      <trkpt lat="43.98021" lon="7.09111">
        <ele>1225.1999511719</ele>
        <time>2020-05-27T12:44:59.000Z</time>
      </trkpt>
      <trkpt lat="43.98021" lon="7.09112">
        <ele>1225.5999755859</ele>
        <time>2020-05-27T12:45:01.000Z</time>
      </trkpt>
      <trkpt lat="43.9802" lon="7.09114">
        <ele>1226.4000244141</ele>
        <time>2020-05-27T12:45:04.000Z</time>
      </trkpt>
      <trkpt lat="43.9802" lon="7.09115">
        <ele>1226.5999755859</ele>
        <time>2020-05-27T12:45:06.000Z</time>
      </trkpt>
      <trkpt lat="43.98019" lon="7.09118">
        <ele>1227.4000244141</ele>
        <time>2020-05-27T12:45:10.000Z</time>
      </trkpt>
      <trkpt lat="43.98019" lon="7.09118">
        <ele>1227.8000488281</ele>
        <time>2020-05-27T12:45:12.000Z</time>
      </trkpt>
      <trkpt lat="43.98016" lon="7.0912">
        <ele>1228.4000244141</ele>
        <time>2020-05-27T12:45:14.000Z</time>
      </trkpt>
      <trkpt lat="43.98016" lon="7.0912">
        <ele>1228.5999755859</ele>
        <time>2020-05-27T12:45:15.000Z</time>
      </trkpt>
      <trkpt lat="43.98016" lon="7.09121">
        <ele>1229</ele>
        <time>2020-05-27T12:45:16.000Z</time>
      </trkpt>
      <trkpt lat="43.98015" lon="7.09126">
        <ele>1229.8000488281</ele>
        <time>2020-05-27T12:45:22.000Z</time>
      </trkpt>
      <trkpt lat="43.98015" lon="7.09127">
        <ele>1230</ele>
        <time>2020-05-27T12:45:23.000Z</time>
      </trkpt>
      <trkpt lat="43.98013" lon="7.09129">
        <ele>1230.5999755859</ele>
        <time>2020-05-27T12:45:26.000Z</time>
      </trkpt>
      <trkpt lat="43.98013" lon="7.09129">
        <ele>1230.8000488281</ele>
        <time>2020-05-27T12:45:27.000Z</time>
      </trkpt>
      <trkpt lat="43.98013" lon="7.0913">
        <ele>1231.1999511719</ele>
        <time>2020-05-27T12:45:28.000Z</time>
      </trkpt>
      <trkpt lat="43.98011" lon="7.09133">
        <ele>1232</ele>
        <time>2020-05-27T12:45:32.000Z</time>
      </trkpt>
      <trkpt lat="43.9801" lon="7.09134">
        <ele>1232.1999511719</ele>
        <time>2020-05-27T12:45:34.000Z</time>
      </trkpt>
      <trkpt lat="43.9801" lon="7.09135">
        <ele>1232.4000244141</ele>
        <time>2020-05-27T12:45:35.000Z</time>
      </trkpt>
      <trkpt lat="43.98009" lon="7.09137">
        <ele>1233</ele>
        <time>2020-05-27T12:45:38.000Z</time>
      </trkpt>
      <trkpt lat="43.98008" lon="7.09141">
        <ele>1233.8000488281</ele>
        <time>2020-05-27T12:45:45.000Z</time>
      </trkpt>
      <trkpt lat="43.98008" lon="7.09143">
        <ele>1234</ele>
        <time>2020-05-27T12:45:46.000Z</time>
      </trkpt>
      <trkpt lat="43.98007" lon="7.09145">
        <ele>1234.8000488281</ele>
        <time>2020-05-27T12:45:50.000Z</time>
      </trkpt>
      <trkpt lat="43.98007" lon="7.09147">
        <ele>1235</ele>
        <time>2020-05-27T12:45:51.000Z</time>
      </trkpt>
      <trkpt lat="43.98007" lon="7.09146">
        <ele>1235</ele>
        <time>2020-05-27T12:45:52.000Z</time>
      </trkpt>
      <trkpt lat="43.98007" lon="7.0915">
        <ele>1235.8000488281</ele>
        <time>2020-05-27T12:45:55.000Z</time>
      </trkpt>
      <trkpt lat="43.98007" lon="7.09153">
        <ele>1236.4000244141</ele>
        <time>2020-05-27T12:45:58.000Z</time>
      </trkpt>
      <trkpt lat="43.98007" lon="7.09155">
        <ele>1237</ele>
        <time>2020-05-27T12:46:01.000Z</time>
      </trkpt>
      <trkpt lat="43.98007" lon="7.09157">
        <ele>1237.4000244141</ele>
        <time>2020-05-27T12:46:03.000Z</time>
      </trkpt>
      <trkpt lat="43.98007" lon="7.09159">
        <ele>1238</ele>
        <time>2020-05-27T12:46:06.000Z</time>
      </trkpt>
      <trkpt lat="43.98007" lon="7.09162">
        <ele>1238.5999755859</ele>
        <time>2020-05-27T12:46:09.000Z</time>
      </trkpt>
      <trkpt lat="43.98006" lon="7.09164">
        <ele>1239</ele>
        <time>2020-05-27T12:46:12.000Z</time>
      </trkpt>
      <trkpt lat="43.98006" lon="7.09166">
        <ele>1239.5999755859</ele>
        <time>2020-05-27T12:46:15.000Z</time>
      </trkpt>
      <trkpt lat="43.98005" lon="7.0917">
        <ele>1240.5999755859</ele>
        <time>2020-05-27T12:46:19.000Z</time>
      </trkpt>
      <trkpt lat="43.98005" lon="7.09171">
        <ele>1240.5999755859</ele>
        <time>2020-05-27T12:46:20.000Z</time>
      </trkpt>
      <trkpt lat="43.98004" lon="7.09176">
        <ele>1241.1999511719</ele>
        <time>2020-05-27T12:46:25.000Z</time>
      </trkpt>
      <trkpt lat="43.98004" lon="7.09181">
        <ele>1241.5999755859</ele>
        <time>2020-05-27T12:46:30.000Z</time>
      </trkpt>
      <trkpt lat="43.98004" lon="7.09182">
        <ele>1241.8000488281</ele>
        <time>2020-05-27T12:46:31.000Z</time>
      </trkpt>
      <trkpt lat="43.98004" lon="7.09186">
        <ele>1242.5999755859</ele>
        <time>2020-05-27T12:46:37.000Z</time>
      </trkpt>
      <trkpt lat="43.98004" lon="7.09187">
        <ele>1242.8000488281</ele>
        <time>2020-05-27T12:46:38.000Z</time>
      </trkpt>
      <trkpt lat="43.98004" lon="7.09189">
        <ele>1243.8000488281</ele>
        <time>2020-05-27T12:46:42.000Z</time>
      </trkpt>
      <trkpt lat="43.98004" lon="7.0919">
        <ele>1244</ele>
        <time>2020-05-27T12:46:43.000Z</time>
      </trkpt>
      <trkpt lat="43.98006" lon="7.09196">
        <ele>1244.8000488281</ele>
        <time>2020-05-27T12:46:50.000Z</time>
      </trkpt>
      <trkpt lat="43.98006" lon="7.09197">
        <ele>1245</ele>
        <time>2020-05-27T12:46:51.000Z</time>
      </trkpt>
      <trkpt lat="43.98005" lon="7.09198">
        <ele>1245.1999511719</ele>
        <time>2020-05-27T12:46:52.000Z</time>
      </trkpt>
      <trkpt lat="43.98004" lon="7.09201">
        <ele>1246</ele>
        <time>2020-05-27T12:46:55.000Z</time>
      </trkpt>
      <trkpt lat="43.98004" lon="7.09202">
        <ele>1246.1999511719</ele>
        <time>2020-05-27T12:46:57.000Z</time>
      </trkpt>
      <trkpt lat="43.98003" lon="7.09205">
        <ele>1247</ele>
        <time>2020-05-27T12:47:02.000Z</time>
      </trkpt>
      <trkpt lat="43.98004" lon="7.09208">
        <ele>1247.1999511719</ele>
        <time>2020-05-27T12:47:04.000Z</time>
      </trkpt>
      <trkpt lat="43.98004" lon="7.09211">
        <ele>1248</ele>
        <time>2020-05-27T12:47:08.000Z</time>
      </trkpt>
      <trkpt lat="43.98004" lon="7.09213">
        <ele>1248.5999755859</ele>
        <time>2020-05-27T12:47:12.000Z</time>
      </trkpt>
      <trkpt lat="43.98005" lon="7.09214">
        <ele>1249</ele>
        <time>2020-05-27T12:47:14.000Z</time>
      </trkpt>
      <trkpt lat="43.98005" lon="7.09219">
        <ele>1249.8000488281</ele>
        <time>2020-05-27T12:47:19.000Z</time>
      </trkpt>
      <trkpt lat="43.98005" lon="7.09219">
        <ele>1250</ele>
        <time>2020-05-27T12:47:20.000Z</time>
      </trkpt>
      <trkpt lat="43.98006" lon="7.09223">
        <ele>1251</ele>
        <time>2020-05-27T12:47:25.000Z</time>
      </trkpt>
      <trkpt lat="43.98006" lon="7.09225">
        <ele>1251.1999511719</ele>
        <time>2020-05-27T12:47:27.000Z</time>
      </trkpt>
      <trkpt lat="43.98007" lon="7.09229">
        <ele>1252.4000244141</ele>
        <time>2020-05-27T12:47:32.000Z</time>
      </trkpt>
      <trkpt lat="43.98006" lon="7.0923">
        <ele>1252.4000244141</ele>
        <time>2020-05-27T12:47:33.000Z</time>
      </trkpt>
      <trkpt lat="43.98005" lon="7.09233">
        <ele>1253.4000244141</ele>
        <time>2020-05-27T12:47:38.000Z</time>
      </trkpt>
      <trkpt lat="43.98005" lon="7.09235">
        <ele>1253.5999755859</ele>
        <time>2020-05-27T12:47:40.000Z</time>
      </trkpt>
      <trkpt lat="43.98005" lon="7.09239">
        <ele>1254.4000244141</ele>
        <time>2020-05-27T12:47:46.000Z</time>
      </trkpt>
      <trkpt lat="43.98005" lon="7.0924">
        <ele>1254.5999755859</ele>
        <time>2020-05-27T12:47:47.000Z</time>
      </trkpt>
      <trkpt lat="43.98005" lon="7.09244">
        <ele>1255.5999755859</ele>
        <time>2020-05-27T12:47:52.000Z</time>
      </trkpt>
      <trkpt lat="43.98005" lon="7.09244">
        <ele>1255.8000488281</ele>
        <time>2020-05-27T12:47:53.000Z</time>
      </trkpt>
      <trkpt lat="43.98005" lon="7.09249">
        <ele>1256.5999755859</ele>
        <time>2020-05-27T12:47:59.000Z</time>
      </trkpt>
      <trkpt lat="43.98005" lon="7.09255">
        <ele>1257.5999755859</ele>
        <time>2020-05-27T12:48:06.000Z</time>
      </trkpt>
      <trkpt lat="43.98005" lon="7.09256">
        <ele>1257.8000488281</ele>
        <time>2020-05-27T12:48:07.000Z</time>
      </trkpt>
      <trkpt lat="43.98004" lon="7.09262">
        <ele>1258.8000488281</ele>
        <time>2020-05-27T12:48:12.000Z</time>
      </trkpt>
      <trkpt lat="43.98004" lon="7.09262">
        <ele>1259</ele>
        <time>2020-05-27T12:48:13.000Z</time>
      </trkpt>
      <trkpt lat="43.98004" lon="7.09267">
        <ele>1260</ele>
        <time>2020-05-27T12:48:18.000Z</time>
      </trkpt>
      <trkpt lat="43.98005" lon="7.09269">
        <ele>1260.4000244141</ele>
        <time>2020-05-27T12:48:24.000Z</time>
      </trkpt>
      <trkpt lat="43.98005" lon="7.0927">
        <ele>1260.1999511719</ele>
        <time>2020-05-27T12:48:33.000Z</time>
      </trkpt>
      <trkpt lat="43.98004" lon="7.09273">
        <ele>1260</ele>
        <time>2020-05-27T12:48:34.000Z</time>
      </trkpt>
      <trkpt lat="43.98008" lon="7.09285">
        <ele>1259.8000488281</ele>
        <time>2020-05-27T12:48:39.000Z</time>
      </trkpt>
      <trkpt lat="43.98008" lon="7.09287">
        <ele>1259.8000488281</ele>
        <time>2020-05-27T12:48:40.000Z</time>
      </trkpt>
      <trkpt lat="43.98009" lon="7.09297">
        <ele>1261.1999511719</ele>
        <time>2020-05-27T12:48:45.000Z</time>
      </trkpt>
      <trkpt lat="43.98007" lon="7.09303">
        <ele>1262.4000244141</ele>
        <time>2020-05-27T12:48:51.000Z</time>
      </trkpt>
      <trkpt lat="43.98007" lon="7.09311">
        <ele>1262.5999755859</ele>
        <time>2020-05-27T12:48:59.000Z</time>
      </trkpt>
      <trkpt lat="43.98007" lon="7.09313">
        <ele>1263</ele>
        <time>2020-05-27T12:49:04.000Z</time>
      </trkpt>
      <trkpt lat="43.98008" lon="7.09316">
        <ele>1263.4000244141</ele>
        <time>2020-05-27T12:49:06.000Z</time>
      </trkpt>
      <trkpt lat="43.98008" lon="7.0932">
        <ele>1264.1999511719</ele>
        <time>2020-05-27T12:49:11.000Z</time>
      </trkpt>
      <trkpt lat="43.98007" lon="7.09321">
        <ele>1264.4000244141</ele>
        <time>2020-05-27T12:49:12.000Z</time>
      </trkpt>
      <trkpt lat="43.98005" lon="7.09326">
        <ele>1265.5999755859</ele>
        <time>2020-05-27T12:49:19.000Z</time>
      </trkpt>
      <trkpt lat="43.98002" lon="7.09329">
        <ele>1266.8000488281</ele>
        <time>2020-05-27T12:49:24.000Z</time>
      </trkpt>
      <trkpt lat="43.98" lon="7.09331">
        <ele>1267.4000244141</ele>
        <time>2020-05-27T12:49:27.000Z</time>
      </trkpt>
      <trkpt lat="43.97998" lon="7.09332">
        <ele>1267.8000488281</ele>
        <time>2020-05-27T12:49:29.000Z</time>
      </trkpt>
      <trkpt lat="43.97996" lon="7.09334">
        <ele>1268.5999755859</ele>
        <time>2020-05-27T12:49:34.000Z</time>
      </trkpt>
      <trkpt lat="43.97995" lon="7.09334">
        <ele>1269</ele>
        <time>2020-05-27T12:49:36.000Z</time>
      </trkpt>
      <trkpt lat="43.97994" lon="7.09335">
        <ele>1269.8000488281</ele>
        <time>2020-05-27T12:49:41.000Z</time>
      </trkpt>
      <trkpt lat="43.97993" lon="7.09335">
        <ele>1270</ele>
        <time>2020-05-27T12:49:43.000Z</time>
      </trkpt>
      <trkpt lat="43.97992" lon="7.09337">
        <ele>1270.1999511719</ele>
        <time>2020-05-27T12:49:47.000Z</time>
      </trkpt>
      <trkpt lat="43.9799" lon="7.0934">
        <ele>1270.1999511719</ele>
        <time>2020-05-27T12:49:53.000Z</time>
      </trkpt>
      <trkpt lat="43.97992" lon="7.09341">
        <ele>1271</ele>
        <time>2020-05-27T12:49:57.000Z</time>
      </trkpt>
      <trkpt lat="43.97992" lon="7.09342">
        <ele>1271.4000244141</ele>
        <time>2020-05-27T12:49:59.000Z</time>
      </trkpt>
      <trkpt lat="43.97995" lon="7.09341">
        <ele>1272.1999511719</ele>
        <time>2020-05-27T12:50:03.000Z</time>
      </trkpt>
      <trkpt lat="43.97996" lon="7.09342">
        <ele>1272.8000488281</ele>
        <time>2020-05-27T12:50:06.000Z</time>
      </trkpt>
      <trkpt lat="43.97998" lon="7.09342">
        <ele>1273.1999511719</ele>
        <time>2020-05-27T12:50:09.000Z</time>
      </trkpt>
      <trkpt lat="43.97999" lon="7.09342">
        <ele>1273.5999755859</ele>
        <time>2020-05-27T12:50:12.000Z</time>
      </trkpt>
      <trkpt lat="43.98001" lon="7.09344">
        <ele>1274.4000244141</ele>
        <time>2020-05-27T12:50:16.000Z</time>
      </trkpt>
      <trkpt lat="43.98001" lon="7.09344">
        <ele>1274.5999755859</ele>
        <time>2020-05-27T12:50:18.000Z</time>
      </trkpt>
      <trkpt lat="43.98002" lon="7.09344">
        <ele>1275.4000244141</ele>
        <time>2020-05-27T12:50:22.000Z</time>
      </trkpt>
      <trkpt lat="43.98002" lon="7.09344">
        <ele>1275.8000488281</ele>
        <time>2020-05-27T12:50:24.000Z</time>
      </trkpt>
      <trkpt lat="43.98005" lon="7.09346">
        <ele>1276.5999755859</ele>
        <time>2020-05-27T12:50:28.000Z</time>
      </trkpt>
      <trkpt lat="43.98005" lon="7.09346">
        <ele>1276.8000488281</ele>
        <time>2020-05-27T12:50:29.000Z</time>
      </trkpt>
      <trkpt lat="43.98004" lon="7.09348">
        <ele>1277.5999755859</ele>
        <time>2020-05-27T12:50:33.000Z</time>
      </trkpt>
      <trkpt lat="43.98004" lon="7.09348">
        <ele>1278</ele>
        <time>2020-05-27T12:50:35.000Z</time>
      </trkpt>
      <trkpt lat="43.98002" lon="7.09349">
        <ele>1278.8000488281</ele>
        <time>2020-05-27T12:50:40.000Z</time>
      </trkpt>
      <trkpt lat="43.98002" lon="7.09349">
        <ele>1279</ele>
        <time>2020-05-27T12:50:41.000Z</time>
      </trkpt>
      <trkpt lat="43.98" lon="7.09351">
        <ele>1280</ele>
        <time>2020-05-27T12:50:47.000Z</time>
      </trkpt>
      <trkpt lat="43.98" lon="7.09351">
        <ele>1280.1999511719</ele>
        <time>2020-05-27T12:50:48.000Z</time>
      </trkpt>
      <trkpt lat="43.97998" lon="7.09354">
        <ele>1281</ele>
        <time>2020-05-27T12:50:53.000Z</time>
      </trkpt>
      <trkpt lat="43.97997" lon="7.09355">
        <ele>1281.8000488281</ele>
        <time>2020-05-27T12:50:56.000Z</time>
      </trkpt>
      <trkpt lat="43.97997" lon="7.09356">
        <ele>1282.1999511719</ele>
        <time>2020-05-27T12:50:58.000Z</time>
      </trkpt>
      <trkpt lat="43.97996" lon="7.09357">
        <ele>1282.5999755859</ele>
        <time>2020-05-27T12:51:03.000Z</time>
      </trkpt>
      <trkpt lat="43.97994" lon="7.0936">
        <ele>1283.4000244141</ele>
        <time>2020-05-27T12:51:07.000Z</time>
      </trkpt>
      <trkpt lat="43.97992" lon="7.09363">
        <ele>1284.1999511719</ele>
        <time>2020-05-27T12:51:11.000Z</time>
      </trkpt>
      <trkpt lat="43.9799" lon="7.09364">
        <ele>1284.5999755859</ele>
        <time>2020-05-27T12:51:13.000Z</time>
      </trkpt>
      <trkpt lat="43.97988" lon="7.09367">
        <ele>1285.4000244141</ele>
        <time>2020-05-27T12:51:18.000Z</time>
      </trkpt>
      <trkpt lat="43.97988" lon="7.09367">
        <ele>1285.5999755859</ele>
        <time>2020-05-27T12:51:20.000Z</time>
      </trkpt>
      <trkpt lat="43.97985" lon="7.0937">
        <ele>1286.4000244141</ele>
        <time>2020-05-27T12:51:24.000Z</time>
      </trkpt>
      <trkpt lat="43.97985" lon="7.09371">
        <ele>1286.5999755859</ele>
        <time>2020-05-27T12:51:25.000Z</time>
      </trkpt>
      <trkpt lat="43.97982" lon="7.09373">
        <ele>1287.8000488281</ele>
        <time>2020-05-27T12:51:31.000Z</time>
      </trkpt>
      <trkpt lat="43.97982" lon="7.09373">
        <ele>1288.1999511719</ele>
        <time>2020-05-27T12:51:32.000Z</time>
      </trkpt>
      <trkpt lat="43.97977" lon="7.09378">
        <ele>1289</ele>
        <time>2020-05-27T12:51:39.000Z</time>
      </trkpt>
      <trkpt lat="43.97975" lon="7.09381">
        <ele>1290.1999511719</ele>
        <time>2020-05-27T12:51:44.000Z</time>
      </trkpt>
      <trkpt lat="43.97975" lon="7.09382">
        <ele>1290.1999511719</ele>
        <time>2020-05-27T12:51:45.000Z</time>
      </trkpt>
      <trkpt lat="43.97972" lon="7.09386">
        <ele>1291.1999511719</ele>
        <time>2020-05-27T12:51:51.000Z</time>
      </trkpt>
      <trkpt lat="43.97969" lon="7.09389">
        <ele>1292.1999511719</ele>
        <time>2020-05-27T12:51:55.000Z</time>
      </trkpt>
      <trkpt lat="43.97968" lon="7.0939">
        <ele>1293.4000244141</ele>
        <time>2020-05-27T12:51:57.000Z</time>
      </trkpt>
      <trkpt lat="43.97967" lon="7.09391">
        <ele>1293.5999755859</ele>
        <time>2020-05-27T12:51:58.000Z</time>
      </trkpt>
      <trkpt lat="43.9796" lon="7.09396">
        <ele>1293.4000244141</ele>
        <time>2020-05-27T12:52:05.000Z</time>
      </trkpt>
      <trkpt lat="43.97953" lon="7.09403">
        <ele>1293.8000488281</ele>
        <time>2020-05-27T12:52:13.000Z</time>
      </trkpt>
      <trkpt lat="43.97949" lon="7.09405">
        <ele>1294.4000244141</ele>
        <time>2020-05-27T12:52:17.000Z</time>
      </trkpt>
      <trkpt lat="43.97947" lon="7.09406">
        <ele>1295.1999511719</ele>
        <time>2020-05-27T12:52:21.000Z</time>
      </trkpt>
      <trkpt lat="43.97941" lon="7.09409">
        <ele>1295.4000244141</ele>
        <time>2020-05-27T12:52:27.000Z</time>
      </trkpt>
      <trkpt lat="43.97931" lon="7.09417">
        <ele>1295.5999755859</ele>
        <time>2020-05-27T12:52:33.000Z</time>
      </trkpt>
      <trkpt lat="43.9793" lon="7.09418">
        <ele>1295.8000488281</ele>
        <time>2020-05-27T12:52:34.000Z</time>
      </trkpt>
      <trkpt lat="43.97925" lon="7.09421">
        <ele>1296.8000488281</ele>
        <time>2020-05-27T12:52:37.000Z</time>
      </trkpt>
      <trkpt lat="43.9792" lon="7.09425">
        <ele>1296.5999755859</ele>
        <time>2020-05-27T12:52:40.000Z</time>
      </trkpt>
      <trkpt lat="43.97911" lon="7.09429">
        <ele>1296.8000488281</ele>
        <time>2020-05-27T12:52:46.000Z</time>
      </trkpt>
      <trkpt lat="43.97904" lon="7.09435">
        <ele>1296.8000488281</ele>
        <time>2020-05-27T12:52:51.000Z</time>
      </trkpt>
      <trkpt lat="43.97897" lon="7.0944">
        <ele>1297</ele>
        <time>2020-05-27T12:52:56.000Z</time>
      </trkpt>
      <trkpt lat="43.97889" lon="7.09444">
        <ele>1297.8000488281</ele>
        <time>2020-05-27T12:53:01.000Z</time>
      </trkpt>
      <trkpt lat="43.97887" lon="7.09445">
        <ele>1297.8000488281</ele>
        <time>2020-05-27T12:53:02.000Z</time>
      </trkpt>
      <trkpt lat="43.97876" lon="7.09448">
        <ele>1297.8000488281</ele>
        <time>2020-05-27T12:53:07.000Z</time>
      </trkpt>
      <trkpt lat="43.97862" lon="7.09449">
        <ele>1298.1999511719</ele>
        <time>2020-05-27T12:53:13.000Z</time>
      </trkpt>
      <trkpt lat="43.97849" lon="7.0945">
        <ele>1297.5999755859</ele>
        <time>2020-05-27T12:53:18.000Z</time>
      </trkpt>
      <trkpt lat="43.97838" lon="7.0945">
        <ele>1297.4000244141</ele>
        <time>2020-05-27T12:53:23.000Z</time>
      </trkpt>
      <trkpt lat="43.97823" lon="7.09452">
        <ele>1297.4000244141</ele>
        <time>2020-05-27T12:53:28.000Z</time>
      </trkpt>
      <trkpt lat="43.97815" lon="7.09453">
        <ele>1296.5999755859</ele>
        <time>2020-05-27T12:53:32.000Z</time>
      </trkpt>
      <trkpt lat="43.97812" lon="7.09453">
        <ele>1296.5999755859</ele>
        <time>2020-05-27T12:53:33.000Z</time>
      </trkpt>
      <trkpt lat="43.97801" lon="7.09452">
        <ele>1295.5999755859</ele>
        <time>2020-05-27T12:53:38.000Z</time>
      </trkpt>
      <trkpt lat="43.97793" lon="7.09452">
        <ele>1295.1999511719</ele>
        <time>2020-05-27T12:53:43.000Z</time>
      </trkpt>
      <trkpt lat="43.97791" lon="7.09452">
        <ele>1294.8000488281</ele>
        <time>2020-05-27T12:53:45.000Z</time>
      </trkpt>
      <trkpt lat="43.97788" lon="7.09452">
        <ele>1294.1999511719</ele>
        <time>2020-05-27T12:53:46.000Z</time>
      </trkpt>
      <trkpt lat="43.97783" lon="7.09453">
        <ele>1294</ele>
        <time>2020-05-27T12:53:48.000Z</time>
      </trkpt>
      <trkpt lat="43.97769" lon="7.09454">
        <ele>1293</ele>
        <time>2020-05-27T12:53:52.000Z</time>
      </trkpt>
      <trkpt lat="43.97747" lon="7.09456">
        <ele>1292.4000244141</ele>
        <time>2020-05-27T12:53:59.000Z</time>
      </trkpt>
      <trkpt lat="43.97736" lon="7.09458">
        <ele>1292.1999511719</ele>
        <time>2020-05-27T12:54:03.000Z</time>
      </trkpt>
      <trkpt lat="43.97721" lon="7.0946">
        <ele>1292.8000488281</ele>
        <time>2020-05-27T12:54:09.000Z</time>
      </trkpt>
      <trkpt lat="43.97713" lon="7.09462">
        <ele>1294.1999511719</ele>
        <time>2020-05-27T12:54:13.000Z</time>
      </trkpt>
      <trkpt lat="43.97706" lon="7.09463">
        <ele>1294.5999755859</ele>
        <time>2020-05-27T12:54:16.000Z</time>
      </trkpt>
      <trkpt lat="43.97698" lon="7.09464">
        <ele>1295.4000244141</ele>
        <time>2020-05-27T12:54:20.000Z</time>
      </trkpt>
      <trkpt lat="43.97696" lon="7.09464">
        <ele>1295.8000488281</ele>
        <time>2020-05-27T12:54:21.000Z</time>
      </trkpt>
      <trkpt lat="43.97686" lon="7.09465">
        <ele>1296.4000244141</ele>
        <time>2020-05-27T12:54:26.000Z</time>
      </trkpt>
      <trkpt lat="43.97681" lon="7.09465">
        <ele>1296.5999755859</ele>
        <time>2020-05-27T12:54:28.000Z</time>
      </trkpt>
      <trkpt lat="43.9767" lon="7.09463">
        <ele>1296.5999755859</ele>
        <time>2020-05-27T12:54:33.000Z</time>
      </trkpt>
      <trkpt lat="43.97659" lon="7.09456">
        <ele>1296</ele>
        <time>2020-05-27T12:54:37.000Z</time>
      </trkpt>
      <trkpt lat="43.97655" lon="7.09455">
        <ele>1295.1999511719</ele>
        <time>2020-05-27T12:54:38.000Z</time>
      </trkpt>
      <trkpt lat="43.97647" lon="7.09454">
        <ele>1293.8000488281</ele>
        <time>2020-05-27T12:54:40.000Z</time>
      </trkpt>
      <trkpt lat="43.97643" lon="7.09454">
        <ele>1293</ele>
        <time>2020-05-27T12:54:41.000Z</time>
      </trkpt>
      <trkpt lat="43.97639" lon="7.09453">
        <ele>1292.1999511719</ele>
        <time>2020-05-27T12:54:42.000Z</time>
      </trkpt>
      <trkpt lat="43.97625" lon="7.09449">
        <ele>1291.1999511719</ele>
        <time>2020-05-27T12:54:45.000Z</time>
      </trkpt>
      <trkpt lat="43.97621" lon="7.09447">
        <ele>1291</ele>
        <time>2020-05-27T12:54:46.000Z</time>
      </trkpt>
      <trkpt lat="43.97615" lon="7.09448">
        <ele>1289</ele>
        <time>2020-05-27T12:54:48.000Z</time>
      </trkpt>
      <trkpt lat="43.97613" lon="7.09448">
        <ele>1288.1999511719</ele>
        <time>2020-05-27T12:54:49.000Z</time>
      </trkpt>
      <trkpt lat="43.97611" lon="7.09449">
        <ele>1287.5999755859</ele>
        <time>2020-05-27T12:54:50.000Z</time>
      </trkpt>
      <trkpt lat="43.97605" lon="7.09448">
        <ele>1287.5999755859</ele>
        <time>2020-05-27T12:54:54.000Z</time>
      </trkpt>
      <trkpt lat="43.97604" lon="7.09447">
        <ele>1288.4000244141</ele>
        <time>2020-05-27T12:54:58.000Z</time>
      </trkpt>
      <trkpt lat="43.97598" lon="7.09448">
        <ele>1288.1999511719</ele>
        <time>2020-05-27T12:55:04.000Z</time>
      </trkpt>
      <trkpt lat="43.97583" lon="7.09446">
        <ele>1288.1999511719</ele>
        <time>2020-05-27T12:55:09.000Z</time>
      </trkpt>
      <trkpt lat="43.97567" lon="7.09444">
        <ele>1287.1999511719</ele>
        <time>2020-05-27T12:55:14.000Z</time>
      </trkpt>
      <trkpt lat="43.97556" lon="7.09446">
        <ele>1288.1999511719</ele>
        <time>2020-05-27T12:55:19.000Z</time>
      </trkpt>
      <trkpt lat="43.97553" lon="7.0945">
        <ele>1288.4000244141</ele>
        <time>2020-05-27T12:55:20.000Z</time>
      </trkpt>
      <trkpt lat="43.97545" lon="7.09471">
        <ele>1287.5999755859</ele>
        <time>2020-05-27T12:55:24.000Z</time>
      </trkpt>
      <trkpt lat="43.97544" lon="7.09493">
        <ele>1286.4000244141</ele>
        <time>2020-05-27T12:55:27.000Z</time>
      </trkpt>
      <trkpt lat="43.9754" lon="7.09497">
        <ele>1285.8000488281</ele>
        <time>2020-05-27T12:55:28.000Z</time>
      </trkpt>
      <trkpt lat="43.97537" lon="7.095">
        <ele>1285.1999511719</ele>
        <time>2020-05-27T12:55:29.000Z</time>
      </trkpt>
      <trkpt lat="43.97526" lon="7.09515">
        <ele>1283.8000488281</ele>
        <time>2020-05-27T12:55:32.000Z</time>
      </trkpt>
      <trkpt lat="43.97521" lon="7.09519">
        <ele>1283.4000244141</ele>
        <time>2020-05-27T12:55:33.000Z</time>
      </trkpt>
      <trkpt lat="43.97512" lon="7.09529">
        <ele>1282.5999755859</ele>
        <time>2020-05-27T12:55:35.000Z</time>
      </trkpt>
      <trkpt lat="43.97508" lon="7.09531">
        <ele>1281.5999755859</ele>
        <time>2020-05-27T12:55:36.000Z</time>
      </trkpt>
      <trkpt lat="43.97506" lon="7.09532">
        <ele>1280.5999755859</ele>
        <time>2020-05-27T12:55:37.000Z</time>
      </trkpt>
      <trkpt lat="43.97504" lon="7.09533">
        <ele>1279.8000488281</ele>
        <time>2020-05-27T12:55:38.000Z</time>
      </trkpt>
      <trkpt lat="43.97501" lon="7.09532">
        <ele>1279</ele>
        <time>2020-05-27T12:55:39.000Z</time>
      </trkpt>
      <trkpt lat="43.97498" lon="7.09531">
        <ele>1278</ele>
        <time>2020-05-27T12:55:40.000Z</time>
      </trkpt>
      <trkpt lat="43.97496" lon="7.09531">
        <ele>1277.8000488281</ele>
        <time>2020-05-27T12:55:41.000Z</time>
      </trkpt>
      <trkpt lat="43.97489" lon="7.09534">
        <ele>1276.5999755859</ele>
        <time>2020-05-27T12:55:43.000Z</time>
      </trkpt>
      <trkpt lat="43.97485" lon="7.09534">
        <ele>1274.8000488281</ele>
        <time>2020-05-27T12:55:45.000Z</time>
      </trkpt>
      <trkpt lat="43.97481" lon="7.09535">
        <ele>1273.4000244141</ele>
        <time>2020-05-27T12:55:47.000Z</time>
      </trkpt>
      <trkpt lat="43.97479" lon="7.09536">
        <ele>1272.4000244141</ele>
        <time>2020-05-27T12:55:49.000Z</time>
      </trkpt>
      <trkpt lat="43.97477" lon="7.09538">
        <ele>1272</ele>
        <time>2020-05-27T12:55:50.000Z</time>
      </trkpt>
      <trkpt lat="43.97466" lon="7.09547">
        <ele>1271.4000244141</ele>
        <time>2020-05-27T12:55:54.000Z</time>
      </trkpt>
      <trkpt lat="43.97456" lon="7.09558">
        <ele>1271</ele>
        <time>2020-05-27T12:55:57.000Z</time>
      </trkpt>
      <trkpt lat="43.97455" lon="7.09563">
        <ele>1270.5999755859</ele>
        <time>2020-05-27T12:55:58.000Z</time>
      </trkpt>
      <trkpt lat="43.9745" lon="7.09586">
        <ele>1269.4000244141</ele>
        <time>2020-05-27T12:56:01.000Z</time>
      </trkpt>
      <trkpt lat="43.97448" lon="7.09595">
        <ele>1269</ele>
        <time>2020-05-27T12:56:02.000Z</time>
      </trkpt>
      <trkpt lat="43.97443" lon="7.09609">
        <ele>1268</ele>
        <time>2020-05-27T12:56:04.000Z</time>
      </trkpt>
      <trkpt lat="43.9744" lon="7.09616">
        <ele>1267.4000244141</ele>
        <time>2020-05-27T12:56:05.000Z</time>
      </trkpt>
      <trkpt lat="43.97435" lon="7.09622">
        <ele>1267</ele>
        <time>2020-05-27T12:56:06.000Z</time>
      </trkpt>
      <trkpt lat="43.9743" lon="7.09629">
        <ele>1266.1999511719</ele>
        <time>2020-05-27T12:56:07.000Z</time>
      </trkpt>
      <trkpt lat="43.97427" lon="7.09634">
        <ele>1265.8000488281</ele>
        <time>2020-05-27T12:56:08.000Z</time>
      </trkpt>
      <trkpt lat="43.97415" lon="7.0964">
        <ele>1264.8000488281</ele>
        <time>2020-05-27T12:56:11.000Z</time>
      </trkpt>
      <trkpt lat="43.97407" lon="7.09653">
        <ele>1264.1999511719</ele>
        <time>2020-05-27T12:56:14.000Z</time>
      </trkpt>
      <trkpt lat="43.97397" lon="7.09661">
        <ele>1264.5999755859</ele>
        <time>2020-05-27T12:56:18.000Z</time>
      </trkpt>
      <trkpt lat="43.97392" lon="7.09675">
        <ele>1265.8000488281</ele>
        <time>2020-05-27T12:56:23.000Z</time>
      </trkpt>
      <trkpt lat="43.97386" lon="7.0968">
        <ele>1266</ele>
        <time>2020-05-27T12:56:26.000Z</time>
      </trkpt>
      <trkpt lat="43.97382" lon="7.09679">
        <ele>1266</ele>
        <time>2020-05-27T12:56:28.000Z</time>
      </trkpt>
      <trkpt lat="43.97375" lon="7.09677">
        <ele>1266.5999755859</ele>
        <time>2020-05-27T12:56:32.000Z</time>
      </trkpt>
      <trkpt lat="43.97374" lon="7.09676">
        <ele>1267</ele>
        <time>2020-05-27T12:56:33.000Z</time>
      </trkpt>
      <trkpt lat="43.97373" lon="7.09674">
        <ele>1267.5999755859</ele>
        <time>2020-05-27T12:56:34.000Z</time>
      </trkpt>
      <trkpt lat="43.9737" lon="7.09673">
        <ele>1268.1999511719</ele>
        <time>2020-05-27T12:56:36.000Z</time>
      </trkpt>
      <trkpt lat="43.97363" lon="7.09669">
        <ele>1269.4000244141</ele>
        <time>2020-05-27T12:56:40.000Z</time>
      </trkpt>
      <trkpt lat="43.97348" lon="7.09663">
        <ele>1269.8000488281</ele>
        <time>2020-05-27T12:56:47.000Z</time>
      </trkpt>
      <trkpt lat="43.97338" lon="7.09663">
        <ele>1270.4000244141</ele>
        <time>2020-05-27T12:56:51.000Z</time>
      </trkpt>
      <trkpt lat="43.97334" lon="7.09664">
        <ele>1271.4000244141</ele>
        <time>2020-05-27T12:56:54.000Z</time>
      </trkpt>
      <trkpt lat="43.97332" lon="7.09665">
        <ele>1271.5999755859</ele>
        <time>2020-05-27T12:56:55.000Z</time>
      </trkpt>
      <trkpt lat="43.97328" lon="7.09666">
        <ele>1272.8000488281</ele>
        <time>2020-05-27T12:56:59.000Z</time>
      </trkpt>
      <trkpt lat="43.97322" lon="7.09669">
        <ele>1273.8000488281</ele>
        <time>2020-05-27T12:57:02.000Z</time>
      </trkpt>
      <trkpt lat="43.97321" lon="7.09669">
        <ele>1274</ele>
        <time>2020-05-27T12:57:03.000Z</time>
      </trkpt>
      <trkpt lat="43.97316" lon="7.09671">
        <ele>1275</ele>
        <time>2020-05-27T12:57:07.000Z</time>
      </trkpt>
      <trkpt lat="43.97313" lon="7.09672">
        <ele>1275.5999755859</ele>
        <time>2020-05-27T12:57:09.000Z</time>
      </trkpt>
      <trkpt lat="43.97309" lon="7.09672">
        <ele>1276.1999511719</ele>
        <time>2020-05-27T12:57:12.000Z</time>
      </trkpt>
      <trkpt lat="43.97303" lon="7.09672">
        <ele>1277</ele>
        <time>2020-05-27T12:57:16.000Z</time>
      </trkpt>
      <trkpt lat="43.97301" lon="7.09672">
        <ele>1277.1999511719</ele>
        <time>2020-05-27T12:57:17.000Z</time>
      </trkpt>
      <trkpt lat="43.97292" lon="7.09676">
        <ele>1278.4000244141</ele>
        <time>2020-05-27T12:57:23.000Z</time>
      </trkpt>
      <trkpt lat="43.97285" lon="7.09678">
        <ele>1279.5999755859</ele>
        <time>2020-05-27T12:57:27.000Z</time>
      </trkpt>
      <trkpt lat="43.97282" lon="7.09679">
        <ele>1279.8000488281</ele>
        <time>2020-05-27T12:57:29.000Z</time>
      </trkpt>
      <trkpt lat="43.97272" lon="7.0968">
        <ele>1280.4000244141</ele>
        <time>2020-05-27T12:57:35.000Z</time>
      </trkpt>
      <trkpt lat="43.9727" lon="7.0968">
        <ele>1280.5999755859</ele>
        <time>2020-05-27T12:57:36.000Z</time>
      </trkpt>
      <trkpt lat="43.97262" lon="7.09683">
        <ele>1281.5999755859</ele>
        <time>2020-05-27T12:57:41.000Z</time>
      </trkpt>
      <trkpt lat="43.97258" lon="7.09685">
        <ele>1281.8000488281</ele>
        <time>2020-05-27T12:57:43.000Z</time>
      </trkpt>
      <trkpt lat="43.97247" lon="7.09687">
        <ele>1282.1999511719</ele>
        <time>2020-05-27T12:57:49.000Z</time>
      </trkpt>
      <trkpt lat="43.97237" lon="7.09688">
        <ele>1282.8000488281</ele>
        <time>2020-05-27T12:57:54.000Z</time>
      </trkpt>
      <trkpt lat="43.97234" lon="7.09689">
        <ele>1283.1999511719</ele>
        <time>2020-05-27T12:57:56.000Z</time>
      </trkpt>
      <trkpt lat="43.97226" lon="7.0969">
        <ele>1284</ele>
        <time>2020-05-27T12:58:00.000Z</time>
      </trkpt>
      <trkpt lat="43.97222" lon="7.09692">
        <ele>1285</ele>
        <time>2020-05-27T12:58:03.000Z</time>
      </trkpt>
      <trkpt lat="43.97217" lon="7.09695">
        <ele>1286</ele>
        <time>2020-05-27T12:58:07.000Z</time>
      </trkpt>
      <trkpt lat="43.97209" lon="7.09698">
        <ele>1286.8000488281</ele>
        <time>2020-05-27T12:58:12.000Z</time>
      </trkpt>
      <trkpt lat="43.97207" lon="7.09699">
        <ele>1287</ele>
        <time>2020-05-27T12:58:13.000Z</time>
      </trkpt>
      <trkpt lat="43.97196" lon="7.09705">
        <ele>1287.5999755859</ele>
        <time>2020-05-27T12:58:20.000Z</time>
      </trkpt>
      <trkpt lat="43.97193" lon="7.09708">
        <ele>1288</ele>
        <time>2020-05-27T12:58:23.000Z</time>
      </trkpt>
      <trkpt lat="43.97192" lon="7.09716">
        <ele>1288.5999755859</ele>
        <time>2020-05-27T12:58:27.000Z</time>
      </trkpt>
      <trkpt lat="43.97194" lon="7.09721">
        <ele>1289</ele>
        <time>2020-05-27T12:58:30.000Z</time>
      </trkpt>
      <trkpt lat="43.97196" lon="7.09722">
        <ele>1289.1999511719</ele>
        <time>2020-05-27T12:58:32.000Z</time>
      </trkpt>
      <trkpt lat="43.97199" lon="7.09731">
        <ele>1289.5999755859</ele>
        <time>2020-05-27T12:58:36.000Z</time>
      </trkpt>
      <trkpt lat="43.97199" lon="7.09734">
        <ele>1289.8000488281</ele>
        <time>2020-05-27T12:58:38.000Z</time>
      </trkpt>
      <trkpt lat="43.97202" lon="7.09748">
        <ele>1290.1999511719</ele>
        <time>2020-05-27T12:58:44.000Z</time>
      </trkpt>
      <trkpt lat="43.97201" lon="7.09758">
        <ele>1291.4000244141</ele>
        <time>2020-05-27T12:58:49.000Z</time>
      </trkpt>
      <trkpt lat="43.97201" lon="7.0976">
        <ele>1291.8000488281</ele>
        <time>2020-05-27T12:58:50.000Z</time>
      </trkpt>
      <trkpt lat="43.97201" lon="7.09763">
        <ele>1292.5999755859</ele>
        <time>2020-05-27T12:58:52.000Z</time>
      </trkpt>
      <trkpt lat="43.97201" lon="7.09765">
        <ele>1293</ele>
        <time>2020-05-27T12:58:53.000Z</time>
      </trkpt>
      <trkpt lat="43.97203" lon="7.0977">
        <ele>1293.4000244141</ele>
        <time>2020-05-27T12:58:56.000Z</time>
      </trkpt>
      <trkpt lat="43.97204" lon="7.09773">
        <ele>1293.8000488281</ele>
        <time>2020-05-27T12:58:58.000Z</time>
      </trkpt>
      <trkpt lat="43.97209" lon="7.09783">
        <ele>1294.5999755859</ele>
        <time>2020-05-27T12:59:05.000Z</time>
      </trkpt>
      <trkpt lat="43.97211" lon="7.09785">
        <ele>1295</ele>
        <time>2020-05-27T12:59:07.000Z</time>
      </trkpt>
      <trkpt lat="43.97216" lon="7.09789">
        <ele>1295.5999755859</ele>
        <time>2020-05-27T12:59:12.000Z</time>
      </trkpt>
      <trkpt lat="43.97222" lon="7.09797">
        <ele>1294.5999755859</ele>
        <time>2020-05-27T12:59:17.000Z</time>
      </trkpt>
      <trkpt lat="43.97224" lon="7.09799">
        <ele>1294.5999755859</ele>
        <time>2020-05-27T12:59:18.000Z</time>
      </trkpt>
      <trkpt lat="43.97225" lon="7.09801">
        <ele>1296.1999511719</ele>
        <time>2020-05-27T12:59:19.000Z</time>
      </trkpt>
      <trkpt lat="43.97234" lon="7.09812">
        <ele>1295.8000488281</ele>
        <time>2020-05-27T12:59:23.000Z</time>
      </trkpt>
      <trkpt lat="43.97238" lon="7.09815">
        <ele>1295.5999755859</ele>
        <time>2020-05-27T12:59:24.000Z</time>
      </trkpt>
      <trkpt lat="43.97246" lon="7.09819">
        <ele>1295</ele>
        <time>2020-05-27T12:59:26.000Z</time>
      </trkpt>
      <trkpt lat="43.97251" lon="7.09822">
        <ele>1294.8000488281</ele>
        <time>2020-05-27T12:59:27.000Z</time>
      </trkpt>
      <trkpt lat="43.9727" lon="7.09834">
        <ele>1294</ele>
        <time>2020-05-27T12:59:31.000Z</time>
      </trkpt>
      <trkpt lat="43.97275" lon="7.09837">
        <ele>1293.5999755859</ele>
        <time>2020-05-27T12:59:32.000Z</time>
      </trkpt>
      <trkpt lat="43.97281" lon="7.0984">
        <ele>1293</ele>
        <time>2020-05-27T12:59:33.000Z</time>
      </trkpt>
      <trkpt lat="43.97291" lon="7.09849">
        <ele>1292.1999511719</ele>
        <time>2020-05-27T12:59:35.000Z</time>
      </trkpt>
      <trkpt lat="43.97297" lon="7.09852">
        <ele>1291.8000488281</ele>
        <time>2020-05-27T12:59:36.000Z</time>
      </trkpt>
      <trkpt lat="43.97303" lon="7.09856">
        <ele>1291.4000244141</ele>
        <time>2020-05-27T12:59:37.000Z</time>
      </trkpt>
      <trkpt lat="43.9732" lon="7.09869">
        <ele>1290.1999511719</ele>
        <time>2020-05-27T12:59:40.000Z</time>
      </trkpt>
      <trkpt lat="43.97326" lon="7.09871">
        <ele>1289.8000488281</ele>
        <time>2020-05-27T12:59:41.000Z</time>
      </trkpt>
      <trkpt lat="43.97332" lon="7.09873">
        <ele>1289.1999511719</ele>
        <time>2020-05-27T12:59:42.000Z</time>
      </trkpt>
      <trkpt lat="43.97338" lon="7.09874">
        <ele>1288.8000488281</ele>
        <time>2020-05-27T12:59:43.000Z</time>
      </trkpt>
      <trkpt lat="43.97347" lon="7.09879">
        <ele>1289.1999511719</ele>
        <time>2020-05-27T12:59:46.000Z</time>
      </trkpt>
      <trkpt lat="43.97351" lon="7.09882">
        <ele>1290</ele>
        <time>2020-05-27T12:59:48.000Z</time>
      </trkpt>
      <trkpt lat="43.97365" lon="7.0989">
        <ele>1290.5999755859</ele>
        <time>2020-05-27T12:59:53.000Z</time>
      </trkpt>
      <trkpt lat="43.97371" lon="7.0989">
        <ele>1291</ele>
        <time>2020-05-27T12:59:55.000Z</time>
      </trkpt>
      <trkpt lat="43.97376" lon="7.09894">
        <ele>1291.5999755859</ele>
        <time>2020-05-27T12:59:58.000Z</time>
      </trkpt>
      <trkpt lat="43.97378" lon="7.09895">
        <ele>1292</ele>
        <time>2020-05-27T12:59:59.000Z</time>
      </trkpt>
      <trkpt lat="43.97388" lon="7.09904">
        <ele>1293.1999511719</ele>
        <time>2020-05-27T13:00:03.000Z</time>
      </trkpt>
      <trkpt lat="43.97398" lon="7.09912">
        <ele>1292.5999755859</ele>
        <time>2020-05-27T13:00:07.000Z</time>
      </trkpt>
      <trkpt lat="43.97399" lon="7.09911">
        <ele>1292</ele>
        <time>2020-05-27T13:00:08.000Z</time>
      </trkpt>
      <trkpt lat="43.97399" lon="7.09912">
        <ele>1291.4000244141</ele>
        <time>2020-05-27T13:00:11.000Z</time>
      </trkpt>
      <trkpt lat="43.97403" lon="7.09917">
        <ele>1291.8000488281</ele>
        <time>2020-05-27T13:00:18.000Z</time>
      </trkpt>
      <trkpt lat="43.97406" lon="7.09918">
        <ele>1291.4000244141</ele>
        <time>2020-05-27T13:00:22.000Z</time>
      </trkpt>
      <trkpt lat="43.97408" lon="7.0992">
        <ele>1291.1999511719</ele>
        <time>2020-05-27T13:00:23.000Z</time>
      </trkpt>
      <trkpt lat="43.97423" lon="7.09922">
        <ele>1290.8000488281</ele>
        <time>2020-05-27T13:00:28.000Z</time>
      </trkpt>
      <trkpt lat="43.97432" lon="7.09921">
        <ele>1291.4000244141</ele>
        <time>2020-05-27T13:00:33.000Z</time>
      </trkpt>
      <trkpt lat="43.97433" lon="7.09921">
        <ele>1291.5999755859</ele>
        <time>2020-05-27T13:00:34.000Z</time>
      </trkpt>
      <trkpt lat="43.97434" lon="7.09921">
        <ele>1292</ele>
        <time>2020-05-27T13:00:36.000Z</time>
      </trkpt>
      <trkpt lat="43.97435" lon="7.09921">
        <ele>1292</ele>
        <time>2020-05-27T13:00:37.000Z</time>
      </trkpt>
      <trkpt lat="43.9744" lon="7.09921">
        <ele>1292.4000244141</ele>
        <time>2020-05-27T13:00:42.000Z</time>
      </trkpt>
      <trkpt lat="43.97442" lon="7.09922">
        <ele>1292.5999755859</ele>
        <time>2020-05-27T13:00:43.000Z</time>
      </trkpt>
      <trkpt lat="43.97449" lon="7.09927">
        <ele>1293</ele>
        <time>2020-05-27T13:00:48.000Z</time>
      </trkpt>
      <trkpt lat="43.9745" lon="7.09928">
        <ele>1293</ele>
        <time>2020-05-27T13:00:49.000Z</time>
      </trkpt>
      <trkpt lat="43.97457" lon="7.09936">
        <ele>1293.1999511719</ele>
        <time>2020-05-27T13:00:55.000Z</time>
      </trkpt>
      <trkpt lat="43.97459" lon="7.09939">
        <ele>1293.8000488281</ele>
        <time>2020-05-27T13:00:58.000Z</time>
      </trkpt>
      <trkpt lat="43.97459" lon="7.09938">
        <ele>1294</ele>
        <time>2020-05-27T13:00:59.000Z</time>
      </trkpt>
      <trkpt lat="43.9746" lon="7.09939">
        <ele>1294.1999511719</ele>
        <time>2020-05-27T13:01:01.000Z</time>
      </trkpt>
      <trkpt lat="43.97462" lon="7.09941">
        <ele>1294.1999511719</ele>
        <time>2020-05-27T13:01:03.000Z</time>
      </trkpt>
      <trkpt lat="43.97464" lon="7.09942">
        <ele>1294.1999511719</ele>
        <time>2020-05-27T13:01:04.000Z</time>
      </trkpt>
      <trkpt lat="43.97465" lon="7.09943">
        <ele>1294</ele>
        <time>2020-05-27T13:01:05.000Z</time>
      </trkpt>
      <trkpt lat="43.97467" lon="7.09945">
        <ele>1294.4000244141</ele>
        <time>2020-05-27T13:01:10.000Z</time>
      </trkpt>
      <trkpt lat="43.97475" lon="7.09948">
        <ele>1294.5999755859</ele>
        <time>2020-05-27T13:01:15.000Z</time>
      </trkpt>
      <trkpt lat="43.97476" lon="7.09948">
        <ele>1294.5999755859</ele>
        <time>2020-05-27T13:01:16.000Z</time>
      </trkpt>
      <trkpt lat="43.97484" lon="7.09951">
        <ele>1295</ele>
        <time>2020-05-27T13:01:21.000Z</time>
      </trkpt>
      <trkpt lat="43.97484" lon="7.09951">
        <ele>1295</ele>
        <time>2020-05-27T13:01:22.000Z</time>
      </trkpt>
      <trkpt lat="43.97486" lon="7.09951">
        <ele>1295</ele>
        <time>2020-05-27T13:01:25.000Z</time>
      </trkpt>
      <trkpt lat="43.9749" lon="7.09952">
        <ele>1295.5999755859</ele>
        <time>2020-05-27T13:01:30.000Z</time>
      </trkpt>
      <trkpt lat="43.97492" lon="7.09953">
        <ele>1296</ele>
        <time>2020-05-27T13:01:33.000Z</time>
      </trkpt>
      <trkpt lat="43.97493" lon="7.09954">
        <ele>1296</ele>
        <time>2020-05-27T13:01:34.000Z</time>
      </trkpt>
      <trkpt lat="43.97494" lon="7.09955">
        <ele>1296</ele>
        <time>2020-05-27T13:01:35.000Z</time>
      </trkpt>
      <trkpt lat="43.975" lon="7.09958">
        <ele>1296.4000244141</ele>
        <time>2020-05-27T13:01:42.000Z</time>
      </trkpt>
      <trkpt lat="43.97504" lon="7.0996">
        <ele>1297</ele>
        <time>2020-05-27T13:01:45.000Z</time>
      </trkpt>
      <trkpt lat="43.97506" lon="7.09961">
        <ele>1297.8000488281</ele>
        <time>2020-05-27T13:01:49.000Z</time>
      </trkpt>
      <trkpt lat="43.97507" lon="7.09962">
        <ele>1298</ele>
        <time>2020-05-27T13:01:51.000Z</time>
      </trkpt>
      <trkpt lat="43.97511" lon="7.09966">
        <ele>1298</ele>
        <time>2020-05-27T13:01:54.000Z</time>
      </trkpt>
      <trkpt lat="43.97517" lon="7.0997">
        <ele>1297.5999755859</ele>
        <time>2020-05-27T13:01:59.000Z</time>
      </trkpt>
      <trkpt lat="43.9752" lon="7.0997">
        <ele>1297.5999755859</ele>
        <time>2020-05-27T13:02:00.000Z</time>
      </trkpt>
      <trkpt lat="43.97529" lon="7.0998">
        <ele>1297.5999755859</ele>
        <time>2020-05-27T13:02:05.000Z</time>
      </trkpt>
      <trkpt lat="43.97539" lon="7.09991">
        <ele>1297</ele>
        <time>2020-05-27T13:02:10.000Z</time>
      </trkpt>
      <trkpt lat="43.97541" lon="7.09993">
        <ele>1297</ele>
        <time>2020-05-27T13:02:11.000Z</time>
      </trkpt>
      <trkpt lat="43.97549" lon="7.10007">
        <ele>1296.5999755859</ele>
        <time>2020-05-27T13:02:15.000Z</time>
      </trkpt>
      <trkpt lat="43.97556" lon="7.10014">
        <ele>1295.8000488281</ele>
        <time>2020-05-27T13:02:17.000Z</time>
      </trkpt>
      <trkpt lat="43.97559" lon="7.10016">
        <ele>1295</ele>
        <time>2020-05-27T13:02:18.000Z</time>
      </trkpt>
      <trkpt lat="43.97561" lon="7.10017">
        <ele>1294.4000244141</ele>
        <time>2020-05-27T13:02:19.000Z</time>
      </trkpt>
      <trkpt lat="43.97563" lon="7.10017">
        <ele>1292.1999511719</ele>
        <time>2020-05-27T13:02:20.000Z</time>
      </trkpt>
      <trkpt lat="43.97565" lon="7.10018">
        <ele>1291.4000244141</ele>
        <time>2020-05-27T13:02:21.000Z</time>
      </trkpt>
      <trkpt lat="43.97565" lon="7.10019">
        <ele>1291</ele>
        <time>2020-05-27T13:02:22.000Z</time>
      </trkpt>
      <trkpt lat="43.97566" lon="7.10019">
        <ele>1289.8000488281</ele>
        <time>2020-05-27T13:02:24.000Z</time>
      </trkpt>
      <trkpt lat="43.97567" lon="7.10019">
        <ele>1290.1999511719</ele>
        <time>2020-05-27T13:02:25.000Z</time>
      </trkpt>
      <trkpt lat="43.97567" lon="7.10018">
        <ele>1290</ele>
        <time>2020-05-27T13:02:32.000Z</time>
      </trkpt>
      <trkpt lat="43.9757" lon="7.10019">
        <ele>1291</ele>
        <time>2020-05-27T13:02:38.000Z</time>
      </trkpt>
      <trkpt lat="43.97571" lon="7.1002">
        <ele>1291</ele>
        <time>2020-05-27T13:02:39.000Z</time>
      </trkpt>
      <trkpt lat="43.97574" lon="7.10021">
        <ele>1291.5999755859</ele>
        <time>2020-05-27T13:02:44.000Z</time>
      </trkpt>
      <trkpt lat="43.97577" lon="7.10024">
        <ele>1291.1999511719</ele>
        <time>2020-05-27T13:02:50.000Z</time>
      </trkpt>
      <trkpt lat="43.97579" lon="7.10028">
        <ele>1290</ele>
        <time>2020-05-27T13:02:55.000Z</time>
      </trkpt>
      <trkpt lat="43.97579" lon="7.10028">
        <ele>1289.5999755859</ele>
        <time>2020-05-27T13:02:56.000Z</time>
      </trkpt>
      <trkpt lat="43.9758" lon="7.10031">
        <ele>1288.8000488281</ele>
        <time>2020-05-27T13:03:02.000Z</time>
      </trkpt>
      <trkpt lat="43.9758" lon="7.10031">
        <ele>1288.5999755859</ele>
        <time>2020-05-27T13:03:03.000Z</time>
      </trkpt>
      <trkpt lat="43.97581" lon="7.10033">
        <ele>1288.1999511719</ele>
        <time>2020-05-27T13:03:09.000Z</time>
      </trkpt>
      <trkpt lat="43.97585" lon="7.10036">
        <ele>1287.4000244141</ele>
        <time>2020-05-27T13:03:15.000Z</time>
      </trkpt>
      <trkpt lat="43.97586" lon="7.10036">
        <ele>1287.4000244141</ele>
        <time>2020-05-27T13:03:17.000Z</time>
      </trkpt>
      <trkpt lat="43.97589" lon="7.10039">
        <ele>1287</ele>
        <time>2020-05-27T13:03:24.000Z</time>
      </trkpt>
      <trkpt lat="43.97592" lon="7.10043">
        <ele>1286.4000244141</ele>
        <time>2020-05-27T13:03:30.000Z</time>
      </trkpt>
      <trkpt lat="43.97597" lon="7.10049">
        <ele>1286.1999511719</ele>
        <time>2020-05-27T13:03:36.000Z</time>
      </trkpt>
      <trkpt lat="43.97603" lon="7.10055">
        <ele>1285.5999755859</ele>
        <time>2020-05-27T13:03:43.000Z</time>
      </trkpt>
      <trkpt lat="43.97609" lon="7.1006">
        <ele>1285.5999755859</ele>
        <time>2020-05-27T13:03:48.000Z</time>
      </trkpt>
      <trkpt lat="43.97611" lon="7.10061">
        <ele>1285.4000244141</ele>
        <time>2020-05-27T13:03:49.000Z</time>
      </trkpt>
      <trkpt lat="43.9762" lon="7.10071">
        <ele>1284.4000244141</ele>
        <time>2020-05-27T13:03:53.000Z</time>
      </trkpt>
      <trkpt lat="43.97622" lon="7.10074">
        <ele>1284</ele>
        <time>2020-05-27T13:03:54.000Z</time>
      </trkpt>
      <trkpt lat="43.97629" lon="7.10085">
        <ele>1282.8000488281</ele>
        <time>2020-05-27T13:03:57.000Z</time>
      </trkpt>
      <trkpt lat="43.97632" lon="7.1009">
        <ele>1282.5999755859</ele>
        <time>2020-05-27T13:03:58.000Z</time>
      </trkpt>
      <trkpt lat="43.97639" lon="7.10103">
        <ele>1281.8000488281</ele>
        <time>2020-05-27T13:04:01.000Z</time>
      </trkpt>
      <trkpt lat="43.97643" lon="7.10107">
        <ele>1281.1999511719</ele>
        <time>2020-05-27T13:04:02.000Z</time>
      </trkpt>
      <trkpt lat="43.97647" lon="7.10112">
        <ele>1280.4000244141</ele>
        <time>2020-05-27T13:04:04.000Z</time>
      </trkpt>
      <trkpt lat="43.9765" lon="7.10117">
        <ele>1279.5999755859</ele>
        <time>2020-05-27T13:04:06.000Z</time>
      </trkpt>
      <trkpt lat="43.97652" lon="7.1012">
        <ele>1279.1999511719</ele>
        <time>2020-05-27T13:04:07.000Z</time>
      </trkpt>
      <trkpt lat="43.97658" lon="7.10128">
        <ele>1278</ele>
        <time>2020-05-27T13:04:10.000Z</time>
      </trkpt>
      <trkpt lat="43.9766" lon="7.1013">
        <ele>1277.5999755859</ele>
        <time>2020-05-27T13:04:11.000Z</time>
      </trkpt>
      <trkpt lat="43.97662" lon="7.10134">
        <ele>1277.5999755859</ele>
        <time>2020-05-27T13:04:12.000Z</time>
      </trkpt>
      <trkpt lat="43.97666" lon="7.10142">
        <ele>1277</ele>
        <time>2020-05-27T13:04:14.000Z</time>
      </trkpt>
      <trkpt lat="43.97667" lon="7.10147">
        <ele>1276.4000244141</ele>
        <time>2020-05-27T13:04:15.000Z</time>
      </trkpt>
      <trkpt lat="43.97669" lon="7.1015">
        <ele>1276.1999511719</ele>
        <time>2020-05-27T13:04:16.000Z</time>
      </trkpt>
      <trkpt lat="43.97671" lon="7.10155">
        <ele>1275.8000488281</ele>
        <time>2020-05-27T13:04:17.000Z</time>
      </trkpt>
      <trkpt lat="43.97674" lon="7.10159">
        <ele>1275.5999755859</ele>
        <time>2020-05-27T13:04:18.000Z</time>
      </trkpt>
      <trkpt lat="43.97678" lon="7.10162">
        <ele>1275.4000244141</ele>
        <time>2020-05-27T13:04:20.000Z</time>
      </trkpt>
      <trkpt lat="43.97682" lon="7.10166">
        <ele>1274.5999755859</ele>
        <time>2020-05-27T13:04:22.000Z</time>
      </trkpt>
      <trkpt lat="43.97686" lon="7.10168">
        <ele>1273.8000488281</ele>
        <time>2020-05-27T13:04:24.000Z</time>
      </trkpt>
      <trkpt lat="43.97691" lon="7.10173">
        <ele>1273.4000244141</ele>
        <time>2020-05-27T13:04:26.000Z</time>
      </trkpt>
      <trkpt lat="43.97701" lon="7.10179">
        <ele>1272.8000488281</ele>
        <time>2020-05-27T13:04:29.000Z</time>
      </trkpt>
      <trkpt lat="43.97709" lon="7.10185">
        <ele>1272.1999511719</ele>
        <time>2020-05-27T13:04:31.000Z</time>
      </trkpt>
      <trkpt lat="43.97717" lon="7.10193">
        <ele>1271.4000244141</ele>
        <time>2020-05-27T13:04:33.000Z</time>
      </trkpt>
      <trkpt lat="43.9772" lon="7.10197">
        <ele>1271</ele>
        <time>2020-05-27T13:04:34.000Z</time>
      </trkpt>
      <trkpt lat="43.97729" lon="7.10205">
        <ele>1270.1999511719</ele>
        <time>2020-05-27T13:04:36.000Z</time>
      </trkpt>
      <trkpt lat="43.97733" lon="7.10208">
        <ele>1269.5999755859</ele>
        <time>2020-05-27T13:04:37.000Z</time>
      </trkpt>
      <trkpt lat="43.97741" lon="7.10216">
        <ele>1269</ele>
        <time>2020-05-27T13:04:39.000Z</time>
      </trkpt>
      <trkpt lat="43.97744" lon="7.10221">
        <ele>1267.5999755859</ele>
        <time>2020-05-27T13:04:40.000Z</time>
      </trkpt>
      <trkpt lat="43.97755" lon="7.10229">
        <ele>1265.5999755859</ele>
        <time>2020-05-27T13:04:43.000Z</time>
      </trkpt>
      <trkpt lat="43.97762" lon="7.1023">
        <ele>1264.4000244141</ele>
        <time>2020-05-27T13:04:45.000Z</time>
      </trkpt>
      <trkpt lat="43.9777" lon="7.10234">
        <ele>1263.5999755859</ele>
        <time>2020-05-27T13:04:47.000Z</time>
      </trkpt>
      <trkpt lat="43.97775" lon="7.10236">
        <ele>1263.1999511719</ele>
        <time>2020-05-27T13:04:48.000Z</time>
      </trkpt>
      <trkpt lat="43.97779" lon="7.10239">
        <ele>1262.8000488281</ele>
        <time>2020-05-27T13:04:49.000Z</time>
      </trkpt>
      <trkpt lat="43.97783" lon="7.10246">
        <ele>1262.1999511719</ele>
        <time>2020-05-27T13:04:51.000Z</time>
      </trkpt>
      <trkpt lat="43.97791" lon="7.10254">
        <ele>1261.4000244141</ele>
        <time>2020-05-27T13:04:53.000Z</time>
      </trkpt>
      <trkpt lat="43.97795" lon="7.10255">
        <ele>1260.1999511719</ele>
        <time>2020-05-27T13:04:54.000Z</time>
      </trkpt>
      <trkpt lat="43.97799" lon="7.10255">
        <ele>1259</ele>
        <time>2020-05-27T13:04:55.000Z</time>
      </trkpt>
      <trkpt lat="43.97803" lon="7.10254">
        <ele>1258</ele>
        <time>2020-05-27T13:04:56.000Z</time>
      </trkpt>
      <trkpt lat="43.97805" lon="7.10254">
        <ele>1257.1999511719</ele>
        <time>2020-05-27T13:04:57.000Z</time>
      </trkpt>
      <trkpt lat="43.97805" lon="7.10256">
        <ele>1256.1999511719</ele>
        <time>2020-05-27T13:04:58.000Z</time>
      </trkpt>
      <trkpt lat="43.97802" lon="7.10264">
        <ele>1254.8000488281</ele>
        <time>2020-05-27T13:05:02.000Z</time>
      </trkpt>
      <trkpt lat="43.97803" lon="7.10266">
        <ele>1254.4000244141</ele>
        <time>2020-05-27T13:05:03.000Z</time>
      </trkpt>
      <trkpt lat="43.9781" lon="7.10267">
        <ele>1253.4000244141</ele>
        <time>2020-05-27T13:05:05.000Z</time>
      </trkpt>
      <trkpt lat="43.9782" lon="7.10272">
        <ele>1252.1999511719</ele>
        <time>2020-05-27T13:05:07.000Z</time>
      </trkpt>
      <trkpt lat="43.97825" lon="7.10273">
        <ele>1250.8000488281</ele>
        <time>2020-05-27T13:05:08.000Z</time>
      </trkpt>
      <trkpt lat="43.97833" lon="7.10275">
        <ele>1249.4000244141</ele>
        <time>2020-05-27T13:05:10.000Z</time>
      </trkpt>
      <trkpt lat="43.97835" lon="7.10276">
        <ele>1248.8000488281</ele>
        <time>2020-05-27T13:05:11.000Z</time>
      </trkpt>
      <trkpt lat="43.97838" lon="7.1028">
        <ele>1247.8000488281</ele>
        <time>2020-05-27T13:05:12.000Z</time>
      </trkpt>
      <trkpt lat="43.97847" lon="7.10293">
        <ele>1246.1999511719</ele>
        <time>2020-05-27T13:05:15.000Z</time>
      </trkpt>
      <trkpt lat="43.97856" lon="7.10295">
        <ele>1244.8000488281</ele>
        <time>2020-05-27T13:05:17.000Z</time>
      </trkpt>
      <trkpt lat="43.97859" lon="7.10298">
        <ele>1244</ele>
        <time>2020-05-27T13:05:18.000Z</time>
      </trkpt>
      <trkpt lat="43.9786" lon="7.10298">
        <ele>1243.1999511719</ele>
        <time>2020-05-27T13:05:19.000Z</time>
      </trkpt>
      <trkpt lat="43.97872" lon="7.10299">
        <ele>1241.8000488281</ele>
        <time>2020-05-27T13:05:21.000Z</time>
      </trkpt>
      <trkpt lat="43.97881" lon="7.10302">
        <ele>1240.4000244141</ele>
        <time>2020-05-27T13:05:23.000Z</time>
      </trkpt>
      <trkpt lat="43.97885" lon="7.10304">
        <ele>1239.4000244141</ele>
        <time>2020-05-27T13:05:24.000Z</time>
      </trkpt>
      <trkpt lat="43.9789" lon="7.10306">
        <ele>1239.1999511719</ele>
        <time>2020-05-27T13:05:25.000Z</time>
      </trkpt>
      <trkpt lat="43.97894" lon="7.10311">
        <ele>1238.4000244141</ele>
        <time>2020-05-27T13:05:26.000Z</time>
      </trkpt>
      <trkpt lat="43.97898" lon="7.10314">
        <ele>1238</ele>
        <time>2020-05-27T13:05:27.000Z</time>
      </trkpt>
      <trkpt lat="43.97903" lon="7.10315">
        <ele>1237.1999511719</ele>
        <time>2020-05-27T13:05:28.000Z</time>
      </trkpt>
      <trkpt lat="43.97908" lon="7.10315">
        <ele>1236.4000244141</ele>
        <time>2020-05-27T13:05:29.000Z</time>
      </trkpt>
      <trkpt lat="43.97913" lon="7.10316">
        <ele>1235.1999511719</ele>
        <time>2020-05-27T13:05:30.000Z</time>
      </trkpt>
      <trkpt lat="43.97925" lon="7.10315">
        <ele>1233.4000244141</ele>
        <time>2020-05-27T13:05:32.000Z</time>
      </trkpt>
      <trkpt lat="43.9793" lon="7.10316">
        <ele>1232.5999755859</ele>
        <time>2020-05-27T13:05:33.000Z</time>
      </trkpt>
      <trkpt lat="43.97935" lon="7.10317">
        <ele>1232.1999511719</ele>
        <time>2020-05-27T13:05:34.000Z</time>
      </trkpt>
      <trkpt lat="43.97945" lon="7.10316">
        <ele>1230.8000488281</ele>
        <time>2020-05-27T13:05:37.000Z</time>
      </trkpt>
      <trkpt lat="43.97945" lon="7.10316">
        <ele>1229.5999755859</ele>
        <time>2020-05-27T13:05:39.000Z</time>
      </trkpt>
      <trkpt lat="43.97946" lon="7.10317">
        <ele>1228.5999755859</ele>
        <time>2020-05-27T13:05:40.000Z</time>
      </trkpt>
      <trkpt lat="43.97947" lon="7.10318">
        <ele>1228.4000244141</ele>
        <time>2020-05-27T13:05:41.000Z</time>
      </trkpt>
      <trkpt lat="43.9795" lon="7.1032">
        <ele>1227.8000488281</ele>
        <time>2020-05-27T13:05:47.000Z</time>
      </trkpt>
      <trkpt lat="43.97952" lon="7.10326">
        <ele>1228</ele>
        <time>2020-05-27T13:05:52.000Z</time>
      </trkpt>
      <trkpt lat="43.97951" lon="7.10328">
        <ele>1228.1999511719</ele>
        <time>2020-05-27T13:05:57.000Z</time>
      </trkpt>
      <trkpt lat="43.97949" lon="7.10333">
        <ele>1229.5999755859</ele>
        <time>2020-05-27T13:06:02.000Z</time>
      </trkpt>
      <trkpt lat="43.97946" lon="7.10336">
        <ele>1229.8000488281</ele>
        <time>2020-05-27T13:06:04.000Z</time>
      </trkpt>
      <trkpt lat="43.97939" lon="7.10345">
        <ele>1229.4000244141</ele>
        <time>2020-05-27T13:06:11.000Z</time>
      </trkpt>
      <trkpt lat="43.97937" lon="7.10349">
        <ele>1229.4000244141</ele>
        <time>2020-05-27T13:06:17.000Z</time>
      </trkpt>
      <trkpt lat="43.97932" lon="7.10358">
        <ele>1229.1999511719</ele>
        <time>2020-05-27T13:06:21.000Z</time>
      </trkpt>
      <trkpt lat="43.9792" lon="7.10368">
        <ele>1228.8000488281</ele>
        <time>2020-05-27T13:06:26.000Z</time>
      </trkpt>
      <trkpt lat="43.97905" lon="7.10384">
        <ele>1228.5999755859</ele>
        <time>2020-05-27T13:06:31.000Z</time>
      </trkpt>
      <trkpt lat="43.97902" lon="7.10388">
        <ele>1228.5999755859</ele>
        <time>2020-05-27T13:06:32.000Z</time>
      </trkpt>
      <trkpt lat="43.97886" lon="7.10415">
        <ele>1227.5999755859</ele>
        <time>2020-05-27T13:06:37.000Z</time>
      </trkpt>
      <trkpt lat="43.97883" lon="7.1042">
        <ele>1227.1999511719</ele>
        <time>2020-05-27T13:06:38.000Z</time>
      </trkpt>
      <trkpt lat="43.9788" lon="7.10427">
        <ele>1226.4000244141</ele>
        <time>2020-05-27T13:06:39.000Z</time>
      </trkpt>
      <trkpt lat="43.97879" lon="7.10434">
        <ele>1225.8000488281</ele>
        <time>2020-05-27T13:06:40.000Z</time>
      </trkpt>
      <trkpt lat="43.97879" lon="7.10439">
        <ele>1225</ele>
        <time>2020-05-27T13:06:41.000Z</time>
      </trkpt>
      <trkpt lat="43.97878" lon="7.10444">
        <ele>1224.4000244141</ele>
        <time>2020-05-27T13:06:42.000Z</time>
      </trkpt>
      <trkpt lat="43.97875" lon="7.10454">
        <ele>1224.4000244141</ele>
        <time>2020-05-27T13:06:44.000Z</time>
      </trkpt>
      <trkpt lat="43.97873" lon="7.1046">
        <ele>1224.4000244141</ele>
        <time>2020-05-27T13:06:45.000Z</time>
      </trkpt>
      <trkpt lat="43.97859" lon="7.10496">
        <ele>1224.5999755859</ele>
        <time>2020-05-27T13:06:51.000Z</time>
      </trkpt>
      <trkpt lat="43.97854" lon="7.10517">
        <ele>1223.8000488281</ele>
        <time>2020-05-27T13:06:54.000Z</time>
      </trkpt>
      <trkpt lat="43.97846" lon="7.10528">
        <ele>1223</ele>
        <time>2020-05-27T13:06:56.000Z</time>
      </trkpt>
      <trkpt lat="43.97839" lon="7.10539">
        <ele>1222.8000488281</ele>
        <time>2020-05-27T13:06:58.000Z</time>
      </trkpt>
      <trkpt lat="43.97824" lon="7.10559">
        <ele>1222.5999755859</ele>
        <time>2020-05-27T13:07:02.000Z</time>
      </trkpt>
      <trkpt lat="43.97816" lon="7.10569">
        <ele>1221.8000488281</ele>
        <time>2020-05-27T13:07:04.000Z</time>
      </trkpt>
      <trkpt lat="43.97812" lon="7.10571">
        <ele>1221.4000244141</ele>
        <time>2020-05-27T13:07:05.000Z</time>
      </trkpt>
      <trkpt lat="43.97807" lon="7.10571">
        <ele>1221</ele>
        <time>2020-05-27T13:07:06.000Z</time>
      </trkpt>
      <trkpt lat="43.97802" lon="7.1057">
        <ele>1220.4000244141</ele>
        <time>2020-05-27T13:07:07.000Z</time>
      </trkpt>
      <trkpt lat="43.97788" lon="7.10576">
        <ele>1218.8000488281</ele>
        <time>2020-05-27T13:07:10.000Z</time>
      </trkpt>
      <trkpt lat="43.97784" lon="7.10579">
        <ele>1217.8000488281</ele>
        <time>2020-05-27T13:07:11.000Z</time>
      </trkpt>
      <trkpt lat="43.9777" lon="7.10583">
        <ele>1217</ele>
        <time>2020-05-27T13:07:14.000Z</time>
      </trkpt>
      <trkpt lat="43.97765" lon="7.10585">
        <ele>1216.5999755859</ele>
        <time>2020-05-27T13:07:15.000Z</time>
      </trkpt>
      <trkpt lat="43.97755" lon="7.10594">
        <ele>1216</ele>
        <time>2020-05-27T13:07:18.000Z</time>
      </trkpt>
      <trkpt lat="43.9775" lon="7.10608">
        <ele>1215.5999755859</ele>
        <time>2020-05-27T13:07:20.000Z</time>
      </trkpt>
      <trkpt lat="43.97744" lon="7.10612">
        <ele>1215.1999511719</ele>
        <time>2020-05-27T13:07:21.000Z</time>
      </trkpt>
      <trkpt lat="43.97738" lon="7.1061">
        <ele>1214.1999511719</ele>
        <time>2020-05-27T13:07:22.000Z</time>
      </trkpt>
      <trkpt lat="43.97737" lon="7.10609">
        <ele>1214.1999511719</ele>
        <time>2020-05-27T13:07:23.000Z</time>
      </trkpt>
      <trkpt lat="43.97727" lon="7.10606">
        <ele>1213</ele>
        <time>2020-05-27T13:07:25.000Z</time>
      </trkpt>
      <trkpt lat="43.9772" lon="7.10607">
        <ele>1212.4000244141</ele>
        <time>2020-05-27T13:07:26.000Z</time>
      </trkpt>
      <trkpt lat="43.97719" lon="7.10608">
        <ele>1212.1999511719</ele>
        <time>2020-05-27T13:07:27.000Z</time>
      </trkpt>
      <trkpt lat="43.97713" lon="7.1062">
        <ele>1212.8000488281</ele>
        <time>2020-05-27T13:07:30.000Z</time>
      </trkpt>
      <trkpt lat="43.97706" lon="7.10632">
        <ele>1214.1999511719</ele>
        <time>2020-05-27T13:07:33.000Z</time>
      </trkpt>
      <trkpt lat="43.97702" lon="7.10633">
        <ele>1214</ele>
        <time>2020-05-27T13:07:34.000Z</time>
      </trkpt>
      <trkpt lat="43.9769" lon="7.10634">
        <ele>1214</ele>
        <time>2020-05-27T13:07:37.000Z</time>
      </trkpt>
      <trkpt lat="43.9768" lon="7.10637">
        <ele>1214.4000244141</ele>
        <time>2020-05-27T13:07:40.000Z</time>
      </trkpt>
      <trkpt lat="43.97671" lon="7.1064">
        <ele>1215.4000244141</ele>
        <time>2020-05-27T13:07:44.000Z</time>
      </trkpt>
      <trkpt lat="43.97667" lon="7.10641">
        <ele>1215.8000488281</ele>
        <time>2020-05-27T13:07:46.000Z</time>
      </trkpt>
      <trkpt lat="43.97661" lon="7.10642">
        <ele>1216.5999755859</ele>
        <time>2020-05-27T13:07:49.000Z</time>
      </trkpt>
      <trkpt lat="43.97655" lon="7.10645">
        <ele>1217.5999755859</ele>
        <time>2020-05-27T13:07:52.000Z</time>
      </trkpt>
      <trkpt lat="43.97652" lon="7.10647">
        <ele>1217.8000488281</ele>
        <time>2020-05-27T13:07:54.000Z</time>
      </trkpt>
      <trkpt lat="43.97637" lon="7.10655">
        <ele>1218.4000244141</ele>
        <time>2020-05-27T13:08:01.000Z</time>
      </trkpt>
      <trkpt lat="43.97618" lon="7.10667">
        <ele>1218</ele>
        <time>2020-05-27T13:08:07.000Z</time>
      </trkpt>
      <trkpt lat="43.97602" lon="7.10688">
        <ele>1218.1999511719</ele>
        <time>2020-05-27T13:08:13.000Z</time>
      </trkpt>
      <trkpt lat="43.97594" lon="7.107">
        <ele>1218.5999755859</ele>
        <time>2020-05-27T13:08:17.000Z</time>
      </trkpt>
      <trkpt lat="43.97589" lon="7.10708">
        <ele>1218.8000488281</ele>
        <time>2020-05-27T13:08:19.000Z</time>
      </trkpt>
      <trkpt lat="43.9758" lon="7.10723">
        <ele>1219.1999511719</ele>
        <time>2020-05-27T13:08:23.000Z</time>
      </trkpt>
      <trkpt lat="43.9757" lon="7.10733">
        <ele>1219.8000488281</ele>
        <time>2020-05-27T13:08:27.000Z</time>
      </trkpt>
      <trkpt lat="43.97567" lon="7.10735">
        <ele>1220</ele>
        <time>2020-05-27T13:08:28.000Z</time>
      </trkpt>
      <trkpt lat="43.97554" lon="7.10735">
        <ele>1220.4000244141</ele>
        <time>2020-05-27T13:08:32.000Z</time>
      </trkpt>
      <trkpt lat="43.97542" lon="7.10737">
        <ele>1221</ele>
        <time>2020-05-27T13:08:36.000Z</time>
      </trkpt>
      <trkpt lat="43.97537" lon="7.10739">
        <ele>1221.4000244141</ele>
        <time>2020-05-27T13:08:38.000Z</time>
      </trkpt>
      <trkpt lat="43.97529" lon="7.10738">
        <ele>1222</ele>
        <time>2020-05-27T13:08:41.000Z</time>
      </trkpt>
      <trkpt lat="43.97521" lon="7.10738">
        <ele>1222.8000488281</ele>
        <time>2020-05-27T13:08:44.000Z</time>
      </trkpt>
      <trkpt lat="43.97516" lon="7.10739">
        <ele>1223</ele>
        <time>2020-05-27T13:08:46.000Z</time>
      </trkpt>
      <trkpt lat="43.97506" lon="7.10742">
        <ele>1223.5999755859</ele>
        <time>2020-05-27T13:08:51.000Z</time>
      </trkpt>
      <trkpt lat="43.97502" lon="7.10743">
        <ele>1224</ele>
        <time>2020-05-27T13:08:53.000Z</time>
      </trkpt>
      <trkpt lat="43.97489" lon="7.10749">
        <ele>1225.1999511719</ele>
        <time>2020-05-27T13:08:59.000Z</time>
      </trkpt>
      <trkpt lat="43.97481" lon="7.10754">
        <ele>1226.1999511719</ele>
        <time>2020-05-27T13:09:04.000Z</time>
      </trkpt>
      <trkpt lat="43.97479" lon="7.10756">
        <ele>1226.8000488281</ele>
        <time>2020-05-27T13:09:06.000Z</time>
      </trkpt>
      <trkpt lat="43.97476" lon="7.10758">
        <ele>1227.4000244141</ele>
        <time>2020-05-27T13:09:08.000Z</time>
      </trkpt>
      <trkpt lat="43.97466" lon="7.10764">
        <ele>1228</ele>
        <time>2020-05-27T13:09:14.000Z</time>
      </trkpt>
      <trkpt lat="43.97461" lon="7.10766">
        <ele>1228.5999755859</ele>
        <time>2020-05-27T13:09:17.000Z</time>
      </trkpt>
      <trkpt lat="43.97454" lon="7.1077">
        <ele>1228.8000488281</ele>
        <time>2020-05-27T13:09:21.000Z</time>
      </trkpt>
      <trkpt lat="43.97436" lon="7.10777">
        <ele>1229</ele>
        <time>2020-05-27T13:09:28.000Z</time>
      </trkpt>
      <trkpt lat="43.97415" lon="7.10791">
        <ele>1227.8000488281</ele>
        <time>2020-05-27T13:09:34.000Z</time>
      </trkpt>
      <trkpt lat="43.97412" lon="7.10792">
        <ele>1227.4000244141</ele>
        <time>2020-05-27T13:09:36.000Z</time>
      </trkpt>
      <trkpt lat="43.97413" lon="7.10792">
        <ele>1227.1999511719</ele>
        <time>2020-05-27T13:09:37.000Z</time>
      </trkpt>
      <trkpt lat="43.97412" lon="7.10793">
        <ele>1227.4000244141</ele>
        <time>2020-05-27T13:09:43.000Z</time>
      </trkpt>
      <trkpt lat="43.97411" lon="7.10794">
        <ele>1227.1999511719</ele>
        <time>2020-05-27T13:09:48.000Z</time>
      </trkpt>
      <trkpt lat="43.97409" lon="7.10796">
        <ele>1227</ele>
        <time>2020-05-27T13:09:51.000Z</time>
      </trkpt>
      <trkpt lat="43.97406" lon="7.10799">
        <ele>1227</ele>
        <time>2020-05-27T13:09:53.000Z</time>
      </trkpt>
      <trkpt lat="43.97393" lon="7.10811">
        <ele>1226.4000244141</ele>
        <time>2020-05-27T13:09:58.000Z</time>
      </trkpt>
      <trkpt lat="43.97391" lon="7.10815">
        <ele>1226.4000244141</ele>
        <time>2020-05-27T13:09:59.000Z</time>
      </trkpt>
      <trkpt lat="43.97388" lon="7.10826">
        <ele>1225.4000244141</ele>
        <time>2020-05-27T13:10:02.000Z</time>
      </trkpt>
      <trkpt lat="43.97389" lon="7.10828">
        <ele>1225</ele>
        <time>2020-05-27T13:10:03.000Z</time>
      </trkpt>
      <trkpt lat="43.97392" lon="7.10839">
        <ele>1224.4000244141</ele>
        <time>2020-05-27T13:10:06.000Z</time>
      </trkpt>
      <trkpt lat="43.97393" lon="7.10844">
        <ele>1224.4000244141</ele>
        <time>2020-05-27T13:10:07.000Z</time>
      </trkpt>
      <trkpt lat="43.97396" lon="7.10863">
        <ele>1223.8000488281</ele>
        <time>2020-05-27T13:10:10.000Z</time>
      </trkpt>
      <trkpt lat="43.97396" lon="7.1087">
        <ele>1223.4000244141</ele>
        <time>2020-05-27T13:10:11.000Z</time>
      </trkpt>
      <trkpt lat="43.97396" lon="7.10878">
        <ele>1222.5999755859</ele>
        <time>2020-05-27T13:10:12.000Z</time>
      </trkpt>
      <trkpt lat="43.97396" lon="7.10894">
        <ele>1221.4000244141</ele>
        <time>2020-05-27T13:10:14.000Z</time>
      </trkpt>
      <trkpt lat="43.97397" lon="7.10901">
        <ele>1220.5999755859</ele>
        <time>2020-05-27T13:10:15.000Z</time>
      </trkpt>
      <trkpt lat="43.974" lon="7.10907">
        <ele>1220.1999511719</ele>
        <time>2020-05-27T13:10:16.000Z</time>
      </trkpt>
      <trkpt lat="43.97401" lon="7.10931">
        <ele>1219.1999511719</ele>
        <time>2020-05-27T13:10:19.000Z</time>
      </trkpt>
      <trkpt lat="43.97397" lon="7.10936">
        <ele>1219</ele>
        <time>2020-05-27T13:10:20.000Z</time>
      </trkpt>
      <trkpt lat="43.97392" lon="7.10938">
        <ele>1218.8000488281</ele>
        <time>2020-05-27T13:10:21.000Z</time>
      </trkpt>
      <trkpt lat="43.97388" lon="7.10942">
        <ele>1218.8000488281</ele>
        <time>2020-05-27T13:10:22.000Z</time>
      </trkpt>
      <trkpt lat="43.97384" lon="7.10947">
        <ele>1218.5999755859</ele>
        <time>2020-05-27T13:10:23.000Z</time>
      </trkpt>
      <trkpt lat="43.97374" lon="7.10961">
        <ele>1218</ele>
        <time>2020-05-27T13:10:26.000Z</time>
      </trkpt>
      <trkpt lat="43.97375" lon="7.10978">
        <ele>1217.1999511719</ele>
        <time>2020-05-27T13:10:29.000Z</time>
      </trkpt>
      <trkpt lat="43.97377" lon="7.10985">
        <ele>1216.8000488281</ele>
        <time>2020-05-27T13:10:30.000Z</time>
      </trkpt>
      <trkpt lat="43.97382" lon="7.11008">
        <ele>1216</ele>
        <time>2020-05-27T13:10:33.000Z</time>
      </trkpt>
      <trkpt lat="43.97382" lon="7.11016">
        <ele>1215.1999511719</ele>
        <time>2020-05-27T13:10:34.000Z</time>
      </trkpt>
      <trkpt lat="43.97382" lon="7.11037">
        <ele>1214</ele>
        <time>2020-05-27T13:10:38.000Z</time>
      </trkpt>
      <trkpt lat="43.97383" lon="7.11055">
        <ele>1212.8000488281</ele>
        <time>2020-05-27T13:10:42.000Z</time>
      </trkpt>
      <trkpt lat="43.97387" lon="7.11063">
        <ele>1212.4000244141</ele>
        <time>2020-05-27T13:10:44.000Z</time>
      </trkpt>
      <trkpt lat="43.97395" lon="7.11069">
        <ele>1211.4000244141</ele>
        <time>2020-05-27T13:10:46.000Z</time>
      </trkpt>
      <trkpt lat="43.97399" lon="7.11072">
        <ele>1210.5999755859</ele>
        <time>2020-05-27T13:10:47.000Z</time>
      </trkpt>
      <trkpt lat="43.97401" lon="7.11076">
        <ele>1210.4000244141</ele>
        <time>2020-05-27T13:10:48.000Z</time>
      </trkpt>
      <trkpt lat="43.97399" lon="7.11082">
        <ele>1208.5999755859</ele>
        <time>2020-05-27T13:10:50.000Z</time>
      </trkpt>
      <trkpt lat="43.97387" lon="7.1109">
        <ele>1206.5999755859</ele>
        <time>2020-05-27T13:10:53.000Z</time>
      </trkpt>
      <trkpt lat="43.97376" lon="7.11099">
        <ele>1205.5999755859</ele>
        <time>2020-05-27T13:10:55.000Z</time>
      </trkpt>
      <trkpt lat="43.97365" lon="7.11111">
        <ele>1204</ele>
        <time>2020-05-27T13:10:57.000Z</time>
      </trkpt>
      <trkpt lat="43.9736" lon="7.11117">
        <ele>1203</ele>
        <time>2020-05-27T13:10:58.000Z</time>
      </trkpt>
      <trkpt lat="43.97348" lon="7.11127">
        <ele>1202.5999755859</ele>
        <time>2020-05-27T13:11:00.000Z</time>
      </trkpt>
      <trkpt lat="43.97334" lon="7.11136">
        <ele>1200.8000488281</ele>
        <time>2020-05-27T13:11:02.000Z</time>
      </trkpt>
      <trkpt lat="43.97328" lon="7.11143">
        <ele>1199.8000488281</ele>
        <time>2020-05-27T13:11:03.000Z</time>
      </trkpt>
      <trkpt lat="43.97321" lon="7.11149">
        <ele>1197.8000488281</ele>
        <time>2020-05-27T13:11:04.000Z</time>
      </trkpt>
      <trkpt lat="43.97314" lon="7.11154">
        <ele>1196.1999511719</ele>
        <time>2020-05-27T13:11:05.000Z</time>
      </trkpt>
      <trkpt lat="43.97307" lon="7.11158">
        <ele>1195</ele>
        <time>2020-05-27T13:11:06.000Z</time>
      </trkpt>
      <trkpt lat="43.97279" lon="7.11174">
        <ele>1193.4000244141</ele>
        <time>2020-05-27T13:11:10.000Z</time>
      </trkpt>
      <trkpt lat="43.97265" lon="7.11177">
        <ele>1193.1999511719</ele>
        <time>2020-05-27T13:11:12.000Z</time>
      </trkpt>
      <trkpt lat="43.97244" lon="7.11179">
        <ele>1192.4000244141</ele>
        <time>2020-05-27T13:11:15.000Z</time>
      </trkpt>
      <trkpt lat="43.97238" lon="7.11178">
        <ele>1191.8000488281</ele>
        <time>2020-05-27T13:11:16.000Z</time>
      </trkpt>
      <trkpt lat="43.97232" lon="7.11178">
        <ele>1191.5999755859</ele>
        <time>2020-05-27T13:11:17.000Z</time>
      </trkpt>
      <trkpt lat="43.9722" lon="7.11179">
        <ele>1192</ele>
        <time>2020-05-27T13:11:19.000Z</time>
      </trkpt>
      <trkpt lat="43.97206" lon="7.11184">
        <ele>1192.5999755859</ele>
        <time>2020-05-27T13:11:22.000Z</time>
      </trkpt>
      <trkpt lat="43.97186" lon="7.11182">
        <ele>1192.5999755859</ele>
        <time>2020-05-27T13:11:27.000Z</time>
      </trkpt>
      <trkpt lat="43.97182" lon="7.11181">
        <ele>1193</ele>
        <time>2020-05-27T13:11:28.000Z</time>
      </trkpt>
      <trkpt lat="43.97166" lon="7.11178">
        <ele>1193.4000244141</ele>
        <time>2020-05-27T13:11:33.000Z</time>
      </trkpt>
      <trkpt lat="43.97143" lon="7.11171">
        <ele>1193.5999755859</ele>
        <time>2020-05-27T13:11:39.000Z</time>
      </trkpt>
      <trkpt lat="43.97137" lon="7.11169">
        <ele>1193.8000488281</ele>
        <time>2020-05-27T13:11:42.000Z</time>
      </trkpt>
      <trkpt lat="43.97138" lon="7.11168">
        <ele>1193.5999755859</ele>
        <time>2020-05-27T13:11:43.000Z</time>
      </trkpt>
      <trkpt lat="43.97136" lon="7.11169">
        <ele>1192.5999755859</ele>
        <time>2020-05-27T13:11:48.000Z</time>
      </trkpt>
      <trkpt lat="43.97136" lon="7.11169">
        <ele>1193</ele>
        <time>2020-05-27T13:11:54.000Z</time>
      </trkpt>
      <trkpt lat="43.97137" lon="7.11169">
        <ele>1192.8000488281</ele>
        <time>2020-05-27T13:11:59.000Z</time>
      </trkpt>
      <trkpt lat="43.97136" lon="7.1117">
        <ele>1193</ele>
        <time>2020-05-27T13:12:00.000Z</time>
      </trkpt>
      <trkpt lat="43.97137" lon="7.11171">
        <ele>1192.8000488281</ele>
        <time>2020-05-27T13:12:06.000Z</time>
      </trkpt>
      <trkpt lat="43.97137" lon="7.1117">
        <ele>1192.5999755859</ele>
        <time>2020-05-27T13:12:13.000Z</time>
      </trkpt>
      <trkpt lat="43.97137" lon="7.1117">
        <ele>1193.1999511719</ele>
        <time>2020-05-27T13:12:25.000Z</time>
      </trkpt>
      <trkpt lat="43.97137" lon="7.11169">
        <ele>1192.8000488281</ele>
        <time>2020-05-27T13:12:36.000Z</time>
      </trkpt>
      <trkpt lat="43.97137" lon="7.11169">
        <ele>1193.1999511719</ele>
        <time>2020-05-27T13:12:48.000Z</time>
      </trkpt>
      <trkpt lat="43.97137" lon="7.11167">
        <ele>1192.5999755859</ele>
        <time>2020-05-27T13:12:59.000Z</time>
      </trkpt>
      <trkpt lat="43.97136" lon="7.11166">
        <ele>1192.5999755859</ele>
        <time>2020-05-27T13:13:06.000Z</time>
      </trkpt>
      <trkpt lat="43.97136" lon="7.11164">
        <ele>1192.8000488281</ele>
        <time>2020-05-27T13:13:14.000Z</time>
      </trkpt>
      <trkpt lat="43.97136" lon="7.11161">
        <ele>1192.4000244141</ele>
        <time>2020-05-27T13:13:20.000Z</time>
      </trkpt>
      <trkpt lat="43.97137" lon="7.11161">
        <ele>1192.5999755859</ele>
        <time>2020-05-27T13:13:31.000Z</time>
      </trkpt>
      <trkpt lat="43.97137" lon="7.11161">
        <ele>1192.4000244141</ele>
        <time>2020-05-27T13:13:41.000Z</time>
      </trkpt>
      <trkpt lat="43.97137" lon="7.11161">
        <ele>1192.4000244141</ele>
        <time>2020-05-27T13:13:54.000Z</time>
      </trkpt>
      <trkpt lat="43.97137" lon="7.11161">
        <ele>1192.4000244141</ele>
        <time>2020-05-27T13:14:09.000Z</time>
      </trkpt>
      <trkpt lat="43.97138" lon="7.11161">
        <ele>1192.1999511719</ele>
        <time>2020-05-27T13:14:23.000Z</time>
      </trkpt>
      <trkpt lat="43.97138" lon="7.11162">
        <ele>1192</ele>
        <time>2020-05-27T13:14:56.000Z</time>
      </trkpt>
      <trkpt lat="43.97138" lon="7.11162">
        <ele>1192</ele>
        <time>2020-05-27T13:14:57.000Z</time>
      </trkpt>
      <trkpt lat="43.97138" lon="7.11161">
        <ele>1192</ele>
        <time>2020-05-27T13:15:08.000Z</time>
      </trkpt>
      <trkpt lat="43.97138" lon="7.11161">
        <ele>1191.8000488281</ele>
        <time>2020-05-27T13:15:25.000Z</time>
      </trkpt>
      <trkpt lat="43.97138" lon="7.1116">
        <ele>1191.8000488281</ele>
        <time>2020-05-27T13:15:34.000Z</time>
      </trkpt>
      <trkpt lat="43.97139" lon="7.1116">
        <ele>1191.4000244141</ele>
        <time>2020-05-27T13:15:40.000Z</time>
      </trkpt>
      <trkpt lat="43.97138" lon="7.11159">
        <ele>1191.8000488281</ele>
        <time>2020-05-27T13:15:52.000Z</time>
      </trkpt>
      <trkpt lat="43.97137" lon="7.11159">
        <ele>1191.1999511719</ele>
        <time>2020-05-27T13:15:59.000Z</time>
      </trkpt>
      <trkpt lat="43.97138" lon="7.11159">
        <ele>1191.4000244141</ele>
        <time>2020-05-27T13:16:06.000Z</time>
      </trkpt>
      <trkpt lat="43.97138" lon="7.1116">
        <ele>1191.4000244141</ele>
        <time>2020-05-27T13:16:12.000Z</time>
      </trkpt>
      <trkpt lat="43.97138" lon="7.1116">
        <ele>1191.8000488281</ele>
        <time>2020-05-27T13:16:27.000Z</time>
      </trkpt>
      <trkpt lat="43.97138" lon="7.1116">
        <ele>1191.1999511719</ele>
        <time>2020-05-27T13:16:37.000Z</time>
      </trkpt>
      <trkpt lat="43.97137" lon="7.1116">
        <ele>1191</ele>
        <time>2020-05-27T13:16:45.000Z</time>
      </trkpt>
      <trkpt lat="43.97137" lon="7.1116">
        <ele>1191</ele>
        <time>2020-05-27T13:16:55.000Z</time>
      </trkpt>
      <trkpt lat="43.97137" lon="7.11163">
        <ele>1191</ele>
        <time>2020-05-27T13:17:06.000Z</time>
      </trkpt>
      <trkpt lat="43.97138" lon="7.11165">
        <ele>1191.8000488281</ele>
        <time>2020-05-27T13:17:12.000Z</time>
      </trkpt>
      <trkpt lat="43.97138" lon="7.11165">
        <ele>1191.5999755859</ele>
        <time>2020-05-27T13:17:20.000Z</time>
      </trkpt>
      <trkpt lat="43.97138" lon="7.11165">
        <ele>1190.8000488281</ele>
        <time>2020-05-27T13:17:28.000Z</time>
      </trkpt>
      <trkpt lat="43.97138" lon="7.11165">
        <ele>1190.8000488281</ele>
        <time>2020-05-27T13:17:29.000Z</time>
      </trkpt>
      <trkpt lat="43.97139" lon="7.11165">
        <ele>1191.1999511719</ele>
        <time>2020-05-27T13:17:34.000Z</time>
      </trkpt>
      <trkpt lat="43.97137" lon="7.11167">
        <ele>1191.4000244141</ele>
        <time>2020-05-27T13:17:41.000Z</time>
      </trkpt>
      <trkpt lat="43.97137" lon="7.11168">
        <ele>1191.4000244141</ele>
        <time>2020-05-27T13:17:57.000Z</time>
      </trkpt>
      <trkpt lat="43.97137" lon="7.11168">
        <ele>1191.8000488281</ele>
        <time>2020-05-27T13:18:05.000Z</time>
      </trkpt>
      <trkpt lat="43.97136" lon="7.11169">
        <ele>1191.8000488281</ele>
        <time>2020-05-27T13:18:07.000Z</time>
      </trkpt>
      <trkpt lat="43.97128" lon="7.11178">
        <ele>1191.4000244141</ele>
        <time>2020-05-27T13:18:12.000Z</time>
      </trkpt>
      <trkpt lat="43.97115" lon="7.11195">
        <ele>1191.1999511719</ele>
        <time>2020-05-27T13:18:19.000Z</time>
      </trkpt>
      <trkpt lat="43.97102" lon="7.11202">
        <ele>1190.8000488281</ele>
        <time>2020-05-27T13:18:25.000Z</time>
      </trkpt>
      <trkpt lat="43.97086" lon="7.11203">
        <ele>1190.4000244141</ele>
        <time>2020-05-27T13:18:32.000Z</time>
      </trkpt>
      <trkpt lat="43.97073" lon="7.1121">
        <ele>1190.5999755859</ele>
        <time>2020-05-27T13:18:38.000Z</time>
      </trkpt>
      <trkpt lat="43.9706" lon="7.11217">
        <ele>1190.8000488281</ele>
        <time>2020-05-27T13:18:45.000Z</time>
      </trkpt>
      <trkpt lat="43.97051" lon="7.11223">
        <ele>1191.1999511719</ele>
        <time>2020-05-27T13:18:50.000Z</time>
      </trkpt>
      <trkpt lat="43.97042" lon="7.11231">
        <ele>1191.8000488281</ele>
        <time>2020-05-27T13:18:55.000Z</time>
      </trkpt>
      <trkpt lat="43.97031" lon="7.11244">
        <ele>1192.1999511719</ele>
        <time>2020-05-27T13:19:01.000Z</time>
      </trkpt>
      <trkpt lat="43.97013" lon="7.11264">
        <ele>1191.5999755859</ele>
        <time>2020-05-27T13:19:08.000Z</time>
      </trkpt>
      <trkpt lat="43.97007" lon="7.11268">
        <ele>1190.8000488281</ele>
        <time>2020-05-27T13:19:10.000Z</time>
      </trkpt>
      <trkpt lat="43.96998" lon="7.11273">
        <ele>1189.8000488281</ele>
        <time>2020-05-27T13:19:13.000Z</time>
      </trkpt>
      <trkpt lat="43.9699" lon="7.11278">
        <ele>1188.8000488281</ele>
        <time>2020-05-27T13:19:17.000Z</time>
      </trkpt>
      <trkpt lat="43.9699" lon="7.11278">
        <ele>1188.4000244141</ele>
        <time>2020-05-27T13:19:18.000Z</time>
      </trkpt>
      <trkpt lat="43.9699" lon="7.11277">
        <ele>1187.8000488281</ele>
        <time>2020-05-27T13:19:24.000Z</time>
      </trkpt>
      <trkpt lat="43.9699" lon="7.11277">
        <ele>1187.5999755859</ele>
        <time>2020-05-27T13:19:26.000Z</time>
      </trkpt>
      <trkpt lat="43.9699" lon="7.11278">
        <ele>1188</ele>
        <time>2020-05-27T13:19:31.000Z</time>
      </trkpt>
      <trkpt lat="43.96989" lon="7.11279">
        <ele>1188</ele>
        <time>2020-05-27T13:19:41.000Z</time>
      </trkpt>
      <trkpt lat="43.96989" lon="7.11279">
        <ele>1187.8000488281</ele>
        <time>2020-05-27T13:19:47.000Z</time>
      </trkpt>
      <trkpt lat="43.96988" lon="7.11279">
        <ele>1187.8000488281</ele>
        <time>2020-05-27T13:19:54.000Z</time>
      </trkpt>
      <trkpt lat="43.96988" lon="7.11279">
        <ele>1188.1999511719</ele>
        <time>2020-05-27T13:20:00.000Z</time>
      </trkpt>
      <trkpt lat="43.96989" lon="7.11279">
        <ele>1188.4000244141</ele>
        <time>2020-05-27T13:20:05.000Z</time>
      </trkpt>
      <trkpt lat="43.96989" lon="7.1128">
        <ele>1188</ele>
        <time>2020-05-27T13:20:10.000Z</time>
      </trkpt>
      <trkpt lat="43.96988" lon="7.11281">
        <ele>1188.1999511719</ele>
        <time>2020-05-27T13:20:15.000Z</time>
      </trkpt>
      <trkpt lat="43.96988" lon="7.11281">
        <ele>1188</ele>
        <time>2020-05-27T13:20:23.000Z</time>
      </trkpt>
      <trkpt lat="43.96986" lon="7.11283">
        <ele>1187.8000488281</ele>
        <time>2020-05-27T13:20:29.000Z</time>
      </trkpt>
      <trkpt lat="43.96975" lon="7.11286">
        <ele>1187.8000488281</ele>
        <time>2020-05-27T13:20:32.000Z</time>
      </trkpt>
      <trkpt lat="43.96954" lon="7.11297">
        <ele>1186.4000244141</ele>
        <time>2020-05-27T13:20:36.000Z</time>
      </trkpt>
      <trkpt lat="43.96941" lon="7.11306">
        <ele>1185.1999511719</ele>
        <time>2020-05-27T13:20:38.000Z</time>
      </trkpt>
      <trkpt lat="43.96921" lon="7.11314">
        <ele>1183.8000488281</ele>
        <time>2020-05-27T13:20:41.000Z</time>
      </trkpt>
      <trkpt lat="43.96906" lon="7.11322">
        <ele>1182.5999755859</ele>
        <time>2020-05-27T13:20:43.000Z</time>
      </trkpt>
      <trkpt lat="43.96892" lon="7.11326">
        <ele>1181.5999755859</ele>
        <time>2020-05-27T13:20:45.000Z</time>
      </trkpt>
      <trkpt lat="43.96885" lon="7.11328">
        <ele>1181.4000244141</ele>
        <time>2020-05-27T13:20:46.000Z</time>
      </trkpt>
      <trkpt lat="43.96847" lon="7.11336">
        <ele>1180.1999511719</ele>
        <time>2020-05-27T13:20:51.000Z</time>
      </trkpt>
      <trkpt lat="43.9684" lon="7.1134">
        <ele>1180</ele>
        <time>2020-05-27T13:20:52.000Z</time>
      </trkpt>
      <trkpt lat="43.9682" lon="7.11358">
        <ele>1179.1999511719</ele>
        <time>2020-05-27T13:20:55.000Z</time>
      </trkpt>
      <trkpt lat="43.96805" lon="7.1137">
        <ele>1178.4000244141</ele>
        <time>2020-05-27T13:20:57.000Z</time>
      </trkpt>
      <trkpt lat="43.96796" lon="7.11375">
        <ele>1177.8000488281</ele>
        <time>2020-05-27T13:20:58.000Z</time>
      </trkpt>
      <trkpt lat="43.96789" lon="7.11381">
        <ele>1177.1999511719</ele>
        <time>2020-05-27T13:20:59.000Z</time>
      </trkpt>
      <trkpt lat="43.9678" lon="7.11388">
        <ele>1176.4000244141</ele>
        <time>2020-05-27T13:21:00.000Z</time>
      </trkpt>
      <trkpt lat="43.96765" lon="7.11398">
        <ele>1175.1999511719</ele>
        <time>2020-05-27T13:21:02.000Z</time>
      </trkpt>
      <trkpt lat="43.96751" lon="7.11411">
        <ele>1174.1999511719</ele>
        <time>2020-05-27T13:21:04.000Z</time>
      </trkpt>
      <trkpt lat="43.96745" lon="7.11418">
        <ele>1173.8000488281</ele>
        <time>2020-05-27T13:21:05.000Z</time>
      </trkpt>
      <trkpt lat="43.96719" lon="7.11446">
        <ele>1172.1999511719</ele>
        <time>2020-05-27T13:21:09.000Z</time>
      </trkpt>
      <trkpt lat="43.96715" lon="7.11453">
        <ele>1171.8000488281</ele>
        <time>2020-05-27T13:21:10.000Z</time>
      </trkpt>
      <trkpt lat="43.96707" lon="7.11462">
        <ele>1170.8000488281</ele>
        <time>2020-05-27T13:21:12.000Z</time>
      </trkpt>
      <trkpt lat="43.96698" lon="7.11465">
        <ele>1170.1999511719</ele>
        <time>2020-05-27T13:21:14.000Z</time>
      </trkpt>
      <trkpt lat="43.96686" lon="7.11485">
        <ele>1170.1999511719</ele>
        <time>2020-05-27T13:21:18.000Z</time>
      </trkpt>
      <trkpt lat="43.96693" lon="7.11504">
        <ele>1169.4000244141</ele>
        <time>2020-05-27T13:21:21.000Z</time>
      </trkpt>
      <trkpt lat="43.96697" lon="7.11533">
        <ele>1168</ele>
        <time>2020-05-27T13:21:24.000Z</time>
      </trkpt>
      <trkpt lat="43.96688" lon="7.11557">
        <ele>1167.1999511719</ele>
        <time>2020-05-27T13:21:27.000Z</time>
      </trkpt>
      <trkpt lat="43.96684" lon="7.11564">
        <ele>1166.1999511719</ele>
        <time>2020-05-27T13:21:28.000Z</time>
      </trkpt>
      <trkpt lat="43.9668" lon="7.11571">
        <ele>1165.4000244141</ele>
        <time>2020-05-27T13:21:29.000Z</time>
      </trkpt>
      <trkpt lat="43.96675" lon="7.11579">
        <ele>1165</ele>
        <time>2020-05-27T13:21:30.000Z</time>
      </trkpt>
      <trkpt lat="43.96671" lon="7.11586">
        <ele>1163.8000488281</ele>
        <time>2020-05-27T13:21:31.000Z</time>
      </trkpt>
      <trkpt lat="43.96669" lon="7.11595">
        <ele>1163</ele>
        <time>2020-05-27T13:21:32.000Z</time>
      </trkpt>
      <trkpt lat="43.96668" lon="7.11603">
        <ele>1162</ele>
        <time>2020-05-27T13:21:33.000Z</time>
      </trkpt>
      <trkpt lat="43.96672" lon="7.11619">
        <ele>1160</ele>
        <time>2020-05-27T13:21:35.000Z</time>
      </trkpt>
      <trkpt lat="43.96674" lon="7.11626">
        <ele>1158.4000244141</ele>
        <time>2020-05-27T13:21:36.000Z</time>
      </trkpt>
      <trkpt lat="43.96675" lon="7.11644">
        <ele>1157.5999755859</ele>
        <time>2020-05-27T13:21:38.000Z</time>
      </trkpt>
      <trkpt lat="43.96672" lon="7.1166">
        <ele>1157.4000244141</ele>
        <time>2020-05-27T13:21:40.000Z</time>
      </trkpt>
      <trkpt lat="43.96666" lon="7.11677">
        <ele>1156.4000244141</ele>
        <time>2020-05-27T13:21:43.000Z</time>
      </trkpt>
      <trkpt lat="43.96667" lon="7.11682">
        <ele>1156</ele>
        <time>2020-05-27T13:21:44.000Z</time>
      </trkpt>
      <trkpt lat="43.96662" lon="7.11706">
        <ele>1155.1999511719</ele>
        <time>2020-05-27T13:21:49.000Z</time>
      </trkpt>
      <trkpt lat="43.96659" lon="7.11716">
        <ele>1155</ele>
        <time>2020-05-27T13:21:51.000Z</time>
      </trkpt>
      <trkpt lat="43.96649" lon="7.11742">
        <ele>1153.8000488281</ele>
        <time>2020-05-27T13:21:55.000Z</time>
      </trkpt>
      <trkpt lat="43.96644" lon="7.11754">
        <ele>1153.5999755859</ele>
        <time>2020-05-27T13:21:57.000Z</time>
      </trkpt>
      <trkpt lat="43.96638" lon="7.11774">
        <ele>1153.5999755859</ele>
        <time>2020-05-27T13:21:59.000Z</time>
      </trkpt>
      <trkpt lat="43.96627" lon="7.118">
        <ele>1152.5999755859</ele>
        <time>2020-05-27T13:22:02.000Z</time>
      </trkpt>
      <trkpt lat="43.96617" lon="7.11826">
        <ele>1151.4000244141</ele>
        <time>2020-05-27T13:22:05.000Z</time>
      </trkpt>
      <trkpt lat="43.96607" lon="7.11855">
        <ele>1150</ele>
        <time>2020-05-27T13:22:08.000Z</time>
      </trkpt>
      <trkpt lat="43.966" lon="7.11873">
        <ele>1149.1999511719</ele>
        <time>2020-05-27T13:22:10.000Z</time>
      </trkpt>
      <trkpt lat="43.96595" lon="7.11881">
        <ele>1148.4000244141</ele>
        <time>2020-05-27T13:22:11.000Z</time>
      </trkpt>
      <trkpt lat="43.96589" lon="7.11901">
        <ele>1147</ele>
        <time>2020-05-27T13:22:13.000Z</time>
      </trkpt>
      <trkpt lat="43.96586" lon="7.1191">
        <ele>1146.5999755859</ele>
        <time>2020-05-27T13:22:14.000Z</time>
      </trkpt>
      <trkpt lat="43.96583" lon="7.1192">
        <ele>1145.5999755859</ele>
        <time>2020-05-27T13:22:15.000Z</time>
      </trkpt>
      <trkpt lat="43.9658" lon="7.11936">
        <ele>1144.4000244141</ele>
        <time>2020-05-27T13:22:17.000Z</time>
      </trkpt>
      <trkpt lat="43.9658" lon="7.11948">
        <ele>1143.5999755859</ele>
        <time>2020-05-27T13:22:18.000Z</time>
      </trkpt>
      <trkpt lat="43.96581" lon="7.11958">
        <ele>1143</ele>
        <time>2020-05-27T13:22:19.000Z</time>
      </trkpt>
      <trkpt lat="43.96583" lon="7.11976">
        <ele>1141.8000488281</ele>
        <time>2020-05-27T13:22:21.000Z</time>
      </trkpt>
      <trkpt lat="43.96584" lon="7.11984">
        <ele>1140.5999755859</ele>
        <time>2020-05-27T13:22:22.000Z</time>
      </trkpt>
      <trkpt lat="43.96584" lon="7.1199">
        <ele>1139.4000244141</ele>
        <time>2020-05-27T13:22:23.000Z</time>
      </trkpt>
      <trkpt lat="43.96583" lon="7.11996">
        <ele>1138.1999511719</ele>
        <time>2020-05-27T13:22:24.000Z</time>
      </trkpt>
      <trkpt lat="43.96581" lon="7.12001">
        <ele>1136.4000244141</ele>
        <time>2020-05-27T13:22:25.000Z</time>
      </trkpt>
      <trkpt lat="43.96578" lon="7.12007">
        <ele>1135</ele>
        <time>2020-05-27T13:22:26.000Z</time>
      </trkpt>
      <trkpt lat="43.96575" lon="7.12012">
        <ele>1133.8000488281</ele>
        <time>2020-05-27T13:22:27.000Z</time>
      </trkpt>
      <trkpt lat="43.96572" lon="7.12018">
        <ele>1132.4000244141</ele>
        <time>2020-05-27T13:22:28.000Z</time>
      </trkpt>
      <trkpt lat="43.9657" lon="7.12024">
        <ele>1131.8000488281</ele>
        <time>2020-05-27T13:22:29.000Z</time>
      </trkpt>
      <trkpt lat="43.96567" lon="7.12031">
        <ele>1131</ele>
        <time>2020-05-27T13:22:30.000Z</time>
      </trkpt>
      <trkpt lat="43.9656" lon="7.12044">
        <ele>1129</ele>
        <time>2020-05-27T13:22:32.000Z</time>
      </trkpt>
      <trkpt lat="43.96555" lon="7.1205">
        <ele>1128</ele>
        <time>2020-05-27T13:22:33.000Z</time>
      </trkpt>
      <trkpt lat="43.96546" lon="7.12062">
        <ele>1125.8000488281</ele>
        <time>2020-05-27T13:22:35.000Z</time>
      </trkpt>
      <trkpt lat="43.96543" lon="7.12068">
        <ele>1124.5999755859</ele>
        <time>2020-05-27T13:22:36.000Z</time>
      </trkpt>
      <trkpt lat="43.9654" lon="7.12077">
        <ele>1123.8000488281</ele>
        <time>2020-05-27T13:22:37.000Z</time>
      </trkpt>
      <trkpt lat="43.96537" lon="7.12084">
        <ele>1123.4000244141</ele>
        <time>2020-05-27T13:22:38.000Z</time>
      </trkpt>
      <trkpt lat="43.96532" lon="7.12103">
        <ele>1122</ele>
        <time>2020-05-27T13:22:40.000Z</time>
      </trkpt>
      <trkpt lat="43.9653" lon="7.12113">
        <ele>1120.8000488281</ele>
        <time>2020-05-27T13:22:41.000Z</time>
      </trkpt>
      <trkpt lat="43.96529" lon="7.12126">
        <ele>1120</ele>
        <time>2020-05-27T13:22:42.000Z</time>
      </trkpt>
      <trkpt lat="43.96529" lon="7.12136">
        <ele>1118.8000488281</ele>
        <time>2020-05-27T13:22:43.000Z</time>
      </trkpt>
      <trkpt lat="43.96526" lon="7.12157">
        <ele>1116.8000488281</ele>
        <time>2020-05-27T13:22:45.000Z</time>
      </trkpt>
      <trkpt lat="43.96523" lon="7.12178">
        <ele>1114.4000244141</ele>
        <time>2020-05-27T13:22:47.000Z</time>
      </trkpt>
      <trkpt lat="43.96522" lon="7.1219">
        <ele>1113</ele>
        <time>2020-05-27T13:22:48.000Z</time>
      </trkpt>
      <trkpt lat="43.9652" lon="7.12198">
        <ele>1111.5999755859</ele>
        <time>2020-05-27T13:22:49.000Z</time>
      </trkpt>
      <trkpt lat="43.96521" lon="7.12207">
        <ele>1110</ele>
        <time>2020-05-27T13:22:50.000Z</time>
      </trkpt>
      <trkpt lat="43.96523" lon="7.12215">
        <ele>1108.5999755859</ele>
        <time>2020-05-27T13:22:51.000Z</time>
      </trkpt>
      <trkpt lat="43.96524" lon="7.12225">
        <ele>1107.4000244141</ele>
        <time>2020-05-27T13:22:52.000Z</time>
      </trkpt>
      <trkpt lat="43.96527" lon="7.12234">
        <ele>1106.1999511719</ele>
        <time>2020-05-27T13:22:53.000Z</time>
      </trkpt>
      <trkpt lat="43.96535" lon="7.12253">
        <ele>1104.4000244141</ele>
        <time>2020-05-27T13:22:55.000Z</time>
      </trkpt>
      <trkpt lat="43.96536" lon="7.1226">
        <ele>1103.1999511719</ele>
        <time>2020-05-27T13:22:56.000Z</time>
      </trkpt>
      <trkpt lat="43.96536" lon="7.12268">
        <ele>1102</ele>
        <time>2020-05-27T13:22:57.000Z</time>
      </trkpt>
      <trkpt lat="43.96535" lon="7.12276">
        <ele>1099.5999755859</ele>
        <time>2020-05-27T13:22:58.000Z</time>
      </trkpt>
      <trkpt lat="43.96536" lon="7.12295">
        <ele>1097.4000244141</ele>
        <time>2020-05-27T13:23:00.000Z</time>
      </trkpt>
      <trkpt lat="43.96536" lon="7.12304">
        <ele>1095.1999511719</ele>
        <time>2020-05-27T13:23:01.000Z</time>
      </trkpt>
      <trkpt lat="43.96536" lon="7.12314">
        <ele>1091.4000244141</ele>
        <time>2020-05-27T13:23:02.000Z</time>
      </trkpt>
      <trkpt lat="43.96535" lon="7.12323">
        <ele>1089.1999511719</ele>
        <time>2020-05-27T13:23:03.000Z</time>
      </trkpt>
      <trkpt lat="43.96533" lon="7.12333">
        <ele>1087.1999511719</ele>
        <time>2020-05-27T13:23:04.000Z</time>
      </trkpt>
      <trkpt lat="43.96531" lon="7.1234">
        <ele>1085.5999755859</ele>
        <time>2020-05-27T13:23:05.000Z</time>
      </trkpt>
      <trkpt lat="43.96528" lon="7.12349">
        <ele>1083.8000488281</ele>
        <time>2020-05-27T13:23:06.000Z</time>
      </trkpt>
      <trkpt lat="43.96525" lon="7.1236">
        <ele>1081.8000488281</ele>
        <time>2020-05-27T13:23:07.000Z</time>
      </trkpt>
      <trkpt lat="43.96522" lon="7.12371">
        <ele>1079.5999755859</ele>
        <time>2020-05-27T13:23:08.000Z</time>
      </trkpt>
      <trkpt lat="43.96519" lon="7.12381">
        <ele>1077.5999755859</ele>
        <time>2020-05-27T13:23:09.000Z</time>
      </trkpt>
      <trkpt lat="43.96516" lon="7.12392">
        <ele>1076</ele>
        <time>2020-05-27T13:23:10.000Z</time>
      </trkpt>
      <trkpt lat="43.96513" lon="7.12403">
        <ele>1074.5999755859</ele>
        <time>2020-05-27T13:23:11.000Z</time>
      </trkpt>
      <trkpt lat="43.96509" lon="7.12415">
        <ele>1073.5999755859</ele>
        <time>2020-05-27T13:23:12.000Z</time>
      </trkpt>
      <trkpt lat="43.96508" lon="7.12427">
        <ele>1072.5999755859</ele>
        <time>2020-05-27T13:23:13.000Z</time>
      </trkpt>
      <trkpt lat="43.96506" lon="7.12447">
        <ele>1070.4000244141</ele>
        <time>2020-05-27T13:23:15.000Z</time>
      </trkpt>
      <trkpt lat="43.96503" lon="7.12465">
        <ele>1069.1999511719</ele>
        <time>2020-05-27T13:23:17.000Z</time>
      </trkpt>
      <trkpt lat="43.96505" lon="7.12474">
        <ele>1067.8000488281</ele>
        <time>2020-05-27T13:23:18.000Z</time>
      </trkpt>
      <trkpt lat="43.9651" lon="7.12482">
        <ele>1066.5999755859</ele>
        <time>2020-05-27T13:23:19.000Z</time>
      </trkpt>
      <trkpt lat="43.96514" lon="7.12489">
        <ele>1065.1999511719</ele>
        <time>2020-05-27T13:23:20.000Z</time>
      </trkpt>
      <trkpt lat="43.96517" lon="7.12497">
        <ele>1063.4000244141</ele>
        <time>2020-05-27T13:23:21.000Z</time>
      </trkpt>
      <trkpt lat="43.96519" lon="7.12517">
        <ele>1061</ele>
        <time>2020-05-27T13:23:23.000Z</time>
      </trkpt>
      <trkpt lat="43.96521" lon="7.12527">
        <ele>1060.1999511719</ele>
        <time>2020-05-27T13:23:24.000Z</time>
      </trkpt>
      <trkpt lat="43.96525" lon="7.12535">
        <ele>1059</ele>
        <time>2020-05-27T13:23:25.000Z</time>
      </trkpt>
      <trkpt lat="43.96531" lon="7.12556">
        <ele>1057.4000244141</ele>
        <time>2020-05-27T13:23:27.000Z</time>
      </trkpt>
      <trkpt lat="43.96534" lon="7.12564">
        <ele>1056.1999511719</ele>
        <time>2020-05-27T13:23:28.000Z</time>
      </trkpt>
      <trkpt lat="43.96536" lon="7.1257">
        <ele>1054.8000488281</ele>
        <time>2020-05-27T13:23:29.000Z</time>
      </trkpt>
      <trkpt lat="43.96539" lon="7.12582">
        <ele>1052.5999755859</ele>
        <time>2020-05-27T13:23:31.000Z</time>
      </trkpt>
      <trkpt lat="43.96541" lon="7.12588">
        <ele>1051.5999755859</ele>
        <time>2020-05-27T13:23:32.000Z</time>
      </trkpt>
      <trkpt lat="43.96545" lon="7.12605">
        <ele>1049.5999755859</ele>
        <time>2020-05-27T13:23:35.000Z</time>
      </trkpt>
      <trkpt lat="43.96549" lon="7.12617">
        <ele>1048.5999755859</ele>
        <time>2020-05-27T13:23:37.000Z</time>
      </trkpt>
      <trkpt lat="43.96551" lon="7.12622">
        <ele>1048</ele>
        <time>2020-05-27T13:23:38.000Z</time>
      </trkpt>
      <trkpt lat="43.96555" lon="7.12633">
        <ele>1047.1999511719</ele>
        <time>2020-05-27T13:23:40.000Z</time>
      </trkpt>
      <trkpt lat="43.96559" lon="7.12644">
        <ele>1046</ele>
        <time>2020-05-27T13:23:42.000Z</time>
      </trkpt>
      <trkpt lat="43.96561" lon="7.1265">
        <ele>1045.4000244141</ele>
        <time>2020-05-27T13:23:43.000Z</time>
      </trkpt>
      <trkpt lat="43.96563" lon="7.12657">
        <ele>1044.4000244141</ele>
        <time>2020-05-27T13:23:44.000Z</time>
      </trkpt>
      <trkpt lat="43.96565" lon="7.12663">
        <ele>1042.8000488281</ele>
        <time>2020-05-27T13:23:45.000Z</time>
      </trkpt>
      <trkpt lat="43.96566" lon="7.12669">
        <ele>1041.1999511719</ele>
        <time>2020-05-27T13:23:46.000Z</time>
      </trkpt>
      <trkpt lat="43.9657" lon="7.1268">
        <ele>1039</ele>
        <time>2020-05-27T13:23:48.000Z</time>
      </trkpt>
      <trkpt lat="43.96571" lon="7.12686">
        <ele>1037.8000488281</ele>
        <time>2020-05-27T13:23:49.000Z</time>
      </trkpt>
      <trkpt lat="43.96574" lon="7.12694">
        <ele>1037.1999511719</ele>
        <time>2020-05-27T13:23:50.000Z</time>
      </trkpt>
      <trkpt lat="43.96577" lon="7.127">
        <ele>1036.1999511719</ele>
        <time>2020-05-27T13:23:51.000Z</time>
      </trkpt>
      <trkpt lat="43.96578" lon="7.12707">
        <ele>1035.1999511719</ele>
        <time>2020-05-27T13:23:52.000Z</time>
      </trkpt>
      <trkpt lat="43.96579" lon="7.12713">
        <ele>1034</ele>
        <time>2020-05-27T13:23:53.000Z</time>
      </trkpt>
      <trkpt lat="43.96581" lon="7.1272">
        <ele>1033</ele>
        <time>2020-05-27T13:23:54.000Z</time>
      </trkpt>
      <trkpt lat="43.96583" lon="7.12725">
        <ele>1031.8000488281</ele>
        <time>2020-05-27T13:23:55.000Z</time>
      </trkpt>
      <trkpt lat="43.96584" lon="7.12729">
        <ele>1030.8000488281</ele>
        <time>2020-05-27T13:23:56.000Z</time>
      </trkpt>
      <trkpt lat="43.96586" lon="7.12735">
        <ele>1029.8000488281</ele>
        <time>2020-05-27T13:23:57.000Z</time>
      </trkpt>
      <trkpt lat="43.96589" lon="7.12744">
        <ele>1028.1999511719</ele>
        <time>2020-05-27T13:23:59.000Z</time>
      </trkpt>
      <trkpt lat="43.96592" lon="7.12758">
        <ele>1027</ele>
        <time>2020-05-27T13:24:02.000Z</time>
      </trkpt>
      <trkpt lat="43.96588" lon="7.12773">
        <ele>1026</ele>
        <time>2020-05-27T13:24:05.000Z</time>
      </trkpt>
      <trkpt lat="43.96586" lon="7.12777">
        <ele>1025.5999755859</ele>
        <time>2020-05-27T13:24:06.000Z</time>
      </trkpt>
      <trkpt lat="43.96583" lon="7.12782">
        <ele>1025</ele>
        <time>2020-05-27T13:24:07.000Z</time>
      </trkpt>
      <trkpt lat="43.96577" lon="7.12792">
        <ele>1024</ele>
        <time>2020-05-27T13:24:09.000Z</time>
      </trkpt>
      <trkpt lat="43.96574" lon="7.12797">
        <ele>1023.200012207</ele>
        <time>2020-05-27T13:24:10.000Z</time>
      </trkpt>
      <trkpt lat="43.96571" lon="7.12801">
        <ele>1022.200012207</ele>
        <time>2020-05-27T13:24:11.000Z</time>
      </trkpt>
      <trkpt lat="43.96564" lon="7.12812">
        <ele>1020.5999755859</ele>
        <time>2020-05-27T13:24:13.000Z</time>
      </trkpt>
      <trkpt lat="43.96562" lon="7.12822">
        <ele>1018.5999755859</ele>
        <time>2020-05-27T13:24:15.000Z</time>
      </trkpt>
      <trkpt lat="43.96561" lon="7.12828">
        <ele>1017.799987793</ele>
        <time>2020-05-27T13:24:16.000Z</time>
      </trkpt>
      <trkpt lat="43.96561" lon="7.12835">
        <ele>1016.799987793</ele>
        <time>2020-05-27T13:24:17.000Z</time>
      </trkpt>
      <trkpt lat="43.96559" lon="7.12841">
        <ele>1016.200012207</ele>
        <time>2020-05-27T13:24:18.000Z</time>
      </trkpt>
      <trkpt lat="43.96556" lon="7.12847">
        <ele>1015.4000244141</ele>
        <time>2020-05-27T13:24:19.000Z</time>
      </trkpt>
      <trkpt lat="43.96553" lon="7.12852">
        <ele>1015.200012207</ele>
        <time>2020-05-27T13:24:20.000Z</time>
      </trkpt>
      <trkpt lat="43.96545" lon="7.12858">
        <ele>1014</ele>
        <time>2020-05-27T13:24:22.000Z</time>
      </trkpt>
      <trkpt lat="43.9654" lon="7.12861">
        <ele>1013</ele>
        <time>2020-05-27T13:24:23.000Z</time>
      </trkpt>
      <trkpt lat="43.96536" lon="7.12866">
        <ele>1012.200012207</ele>
        <time>2020-05-27T13:24:24.000Z</time>
      </trkpt>
      <trkpt lat="43.96533" lon="7.12882">
        <ele>1010.4000244141</ele>
        <time>2020-05-27T13:24:26.000Z</time>
      </trkpt>
      <trkpt lat="43.96532" lon="7.12892">
        <ele>1009.4000244141</ele>
        <time>2020-05-27T13:24:27.000Z</time>
      </trkpt>
      <trkpt lat="43.96531" lon="7.12902">
        <ele>1008.4000244141</ele>
        <time>2020-05-27T13:24:28.000Z</time>
      </trkpt>
      <trkpt lat="43.9653" lon="7.12911">
        <ele>1007.200012207</ele>
        <time>2020-05-27T13:24:29.000Z</time>
      </trkpt>
      <trkpt lat="43.96528" lon="7.12928">
        <ele>1005.200012207</ele>
        <time>2020-05-27T13:24:31.000Z</time>
      </trkpt>
      <trkpt lat="43.96526" lon="7.12935">
        <ele>1004</ele>
        <time>2020-05-27T13:24:32.000Z</time>
      </trkpt>
      <trkpt lat="43.96524" lon="7.12942">
        <ele>1003.5999755859</ele>
        <time>2020-05-27T13:24:33.000Z</time>
      </trkpt>
      <trkpt lat="43.96518" lon="7.12957">
        <ele>1001.5999755859</ele>
        <time>2020-05-27T13:24:35.000Z</time>
      </trkpt>
      <trkpt lat="43.96515" lon="7.12974">
        <ele>1000</ele>
        <time>2020-05-27T13:24:37.000Z</time>
      </trkpt>
      <trkpt lat="43.96515" lon="7.12982">
        <ele>998.40002441406</ele>
        <time>2020-05-27T13:24:38.000Z</time>
      </trkpt>
      <trkpt lat="43.96515" lon="7.12988">
        <ele>996.59997558594</ele>
        <time>2020-05-27T13:24:39.000Z</time>
      </trkpt>
      <trkpt lat="43.96514" lon="7.12993">
        <ele>995.20001220703</ele>
        <time>2020-05-27T13:24:40.000Z</time>
      </trkpt>
      <trkpt lat="43.9651" lon="7.12998">
        <ele>994.20001220703</ele>
        <time>2020-05-27T13:24:41.000Z</time>
      </trkpt>
      <trkpt lat="43.96505" lon="7.13003">
        <ele>992.59997558594</ele>
        <time>2020-05-27T13:24:42.000Z</time>
      </trkpt>
      <trkpt lat="43.965" lon="7.13008">
        <ele>991.59997558594</ele>
        <time>2020-05-27T13:24:43.000Z</time>
      </trkpt>
      <trkpt lat="43.96496" lon="7.13016">
        <ele>990.40002441406</ele>
        <time>2020-05-27T13:24:44.000Z</time>
      </trkpt>
      <trkpt lat="43.9649" lon="7.13034">
        <ele>987.79998779297</ele>
        <time>2020-05-27T13:24:46.000Z</time>
      </trkpt>
      <trkpt lat="43.96486" lon="7.13042">
        <ele>986.79998779297</ele>
        <time>2020-05-27T13:24:47.000Z</time>
      </trkpt>
      <trkpt lat="43.96483" lon="7.13049">
        <ele>985.59997558594</ele>
        <time>2020-05-27T13:24:48.000Z</time>
      </trkpt>
      <trkpt lat="43.96482" lon="7.13056">
        <ele>984.40002441406</ele>
        <time>2020-05-27T13:24:49.000Z</time>
      </trkpt>
      <trkpt lat="43.96482" lon="7.13061">
        <ele>982.79998779297</ele>
        <time>2020-05-27T13:24:50.000Z</time>
      </trkpt>
      <trkpt lat="43.96481" lon="7.13074">
        <ele>980.59997558594</ele>
        <time>2020-05-27T13:24:52.000Z</time>
      </trkpt>
      <trkpt lat="43.96481" lon="7.13079">
        <ele>979.40002441406</ele>
        <time>2020-05-27T13:24:53.000Z</time>
      </trkpt>
      <trkpt lat="43.96482" lon="7.13085">
        <ele>978.40002441406</ele>
        <time>2020-05-27T13:24:54.000Z</time>
      </trkpt>
      <trkpt lat="43.96481" lon="7.13092">
        <ele>977.59997558594</ele>
        <time>2020-05-27T13:24:55.000Z</time>
      </trkpt>
      <trkpt lat="43.96482" lon="7.13106">
        <ele>975.59997558594</ele>
        <time>2020-05-27T13:24:57.000Z</time>
      </trkpt>
      <trkpt lat="43.96483" lon="7.13115">
        <ele>974.20001220703</ele>
        <time>2020-05-27T13:24:58.000Z</time>
      </trkpt>
      <trkpt lat="43.96483" lon="7.13123">
        <ele>973.20001220703</ele>
        <time>2020-05-27T13:24:59.000Z</time>
      </trkpt>
      <trkpt lat="43.96485" lon="7.13131">
        <ele>972</ele>
        <time>2020-05-27T13:25:00.000Z</time>
      </trkpt>
      <trkpt lat="43.96485" lon="7.13139">
        <ele>970.59997558594</ele>
        <time>2020-05-27T13:25:01.000Z</time>
      </trkpt>
      <trkpt lat="43.96488" lon="7.13157">
        <ele>968.40002441406</ele>
        <time>2020-05-27T13:25:03.000Z</time>
      </trkpt>
      <trkpt lat="43.96489" lon="7.13168">
        <ele>967.20001220703</ele>
        <time>2020-05-27T13:25:04.000Z</time>
      </trkpt>
      <trkpt lat="43.96491" lon="7.13177">
        <ele>965.79998779297</ele>
        <time>2020-05-27T13:25:05.000Z</time>
      </trkpt>
      <trkpt lat="43.96493" lon="7.13185">
        <ele>964.40002441406</ele>
        <time>2020-05-27T13:25:06.000Z</time>
      </trkpt>
      <trkpt lat="43.96493" lon="7.13192">
        <ele>963.20001220703</ele>
        <time>2020-05-27T13:25:07.000Z</time>
      </trkpt>
      <trkpt lat="43.96492" lon="7.13197">
        <ele>961.59997558594</ele>
        <time>2020-05-27T13:25:08.000Z</time>
      </trkpt>
      <trkpt lat="43.96489" lon="7.13201">
        <ele>959.59997558594</ele>
        <time>2020-05-27T13:25:09.000Z</time>
      </trkpt>
      <trkpt lat="43.96486" lon="7.13205">
        <ele>958.59997558594</ele>
        <time>2020-05-27T13:25:10.000Z</time>
      </trkpt>
      <trkpt lat="43.96487" lon="7.13209">
        <ele>956.40002441406</ele>
        <time>2020-05-27T13:25:12.000Z</time>
      </trkpt>
      <trkpt lat="43.96487" lon="7.13208">
        <ele>955.40002441406</ele>
        <time>2020-05-27T13:25:13.000Z</time>
      </trkpt>
      <trkpt lat="43.96488" lon="7.13208">
        <ele>954.20001220703</ele>
        <time>2020-05-27T13:25:15.000Z</time>
      </trkpt>
      <trkpt lat="43.96489" lon="7.13207">
        <ele>953</ele>
        <time>2020-05-27T13:25:17.000Z</time>
      </trkpt>
      <trkpt lat="43.9649" lon="7.13206">
        <ele>953</ele>
        <time>2020-05-27T13:25:18.000Z</time>
      </trkpt>
      <trkpt lat="43.96499" lon="7.13195">
        <ele>952.59997558594</ele>
        <time>2020-05-27T13:25:23.000Z</time>
      </trkpt>
      <trkpt lat="43.96502" lon="7.13189">
        <ele>952.40002441406</ele>
        <time>2020-05-27T13:25:24.000Z</time>
      </trkpt>
      <trkpt lat="43.96505" lon="7.13176">
        <ele>951.59997558594</ele>
        <time>2020-05-27T13:25:26.000Z</time>
      </trkpt>
      <trkpt lat="43.96507" lon="7.13168">
        <ele>951</ele>
        <time>2020-05-27T13:25:27.000Z</time>
      </trkpt>
      <trkpt lat="43.96509" lon="7.13159">
        <ele>950</ele>
        <time>2020-05-27T13:25:28.000Z</time>
      </trkpt>
      <trkpt lat="43.96514" lon="7.1314">
        <ele>947.79998779297</ele>
        <time>2020-05-27T13:25:30.000Z</time>
      </trkpt>
      <trkpt lat="43.96515" lon="7.13131">
        <ele>947.20001220703</ele>
        <time>2020-05-27T13:25:31.000Z</time>
      </trkpt>
      <trkpt lat="43.96516" lon="7.13123">
        <ele>945.79998779297</ele>
        <time>2020-05-27T13:25:32.000Z</time>
      </trkpt>
      <trkpt lat="43.96517" lon="7.13118">
        <ele>944.59997558594</ele>
        <time>2020-05-27T13:25:33.000Z</time>
      </trkpt>
      <trkpt lat="43.96519" lon="7.13115">
        <ele>943.79998779297</ele>
        <time>2020-05-27T13:25:34.000Z</time>
      </trkpt>
      <trkpt lat="43.96522" lon="7.13114">
        <ele>942.40002441406</ele>
        <time>2020-05-27T13:25:35.000Z</time>
      </trkpt>
      <trkpt lat="43.96522" lon="7.13122">
        <ele>940.79998779297</ele>
        <time>2020-05-27T13:25:37.000Z</time>
      </trkpt>
      <trkpt lat="43.96521" lon="7.13132">
        <ele>939.59997558594</ele>
        <time>2020-05-27T13:25:39.000Z</time>
      </trkpt>
      <trkpt lat="43.96522" lon="7.13145">
        <ele>938.59997558594</ele>
        <time>2020-05-27T13:25:41.000Z</time>
      </trkpt>
      <trkpt lat="43.96525" lon="7.13172">
        <ele>937</ele>
        <time>2020-05-27T13:25:44.000Z</time>
      </trkpt>
      <trkpt lat="43.96526" lon="7.13181">
        <ele>936.20001220703</ele>
        <time>2020-05-27T13:25:45.000Z</time>
      </trkpt>
      <trkpt lat="43.96527" lon="7.13188">
        <ele>935.20001220703</ele>
        <time>2020-05-27T13:25:46.000Z</time>
      </trkpt>
      <trkpt lat="43.96527" lon="7.13195">
        <ele>933.59997558594</ele>
        <time>2020-05-27T13:25:47.000Z</time>
      </trkpt>
      <trkpt lat="43.96527" lon="7.13202">
        <ele>932.20001220703</ele>
        <time>2020-05-27T13:25:48.000Z</time>
      </trkpt>
      <trkpt lat="43.96528" lon="7.1321">
        <ele>931.59997558594</ele>
        <time>2020-05-27T13:25:49.000Z</time>
      </trkpt>
      <trkpt lat="43.96528" lon="7.13218">
        <ele>930.20001220703</ele>
        <time>2020-05-27T13:25:50.000Z</time>
      </trkpt>
      <trkpt lat="43.96528" lon="7.13224">
        <ele>929.40002441406</ele>
        <time>2020-05-27T13:25:51.000Z</time>
      </trkpt>
      <trkpt lat="43.96526" lon="7.13231">
        <ele>928.40002441406</ele>
        <time>2020-05-27T13:25:52.000Z</time>
      </trkpt>
      <trkpt lat="43.96523" lon="7.13237">
        <ele>927.20001220703</ele>
        <time>2020-05-27T13:25:53.000Z</time>
      </trkpt>
      <trkpt lat="43.96519" lon="7.13241">
        <ele>926</ele>
        <time>2020-05-27T13:25:54.000Z</time>
      </trkpt>
      <trkpt lat="43.96516" lon="7.13245">
        <ele>925.20001220703</ele>
        <time>2020-05-27T13:25:55.000Z</time>
      </trkpt>
      <trkpt lat="43.96513" lon="7.13248">
        <ele>924.20001220703</ele>
        <time>2020-05-27T13:25:56.000Z</time>
      </trkpt>
      <trkpt lat="43.9651" lon="7.13252">
        <ele>923.20001220703</ele>
        <time>2020-05-27T13:25:57.000Z</time>
      </trkpt>
      <trkpt lat="43.96506" lon="7.13257">
        <ele>921.59997558594</ele>
        <time>2020-05-27T13:25:59.000Z</time>
      </trkpt>
      <trkpt lat="43.96502" lon="7.13259">
        <ele>921</ele>
        <time>2020-05-27T13:26:00.000Z</time>
      </trkpt>
      <trkpt lat="43.96499" lon="7.13263">
        <ele>920.20001220703</ele>
        <time>2020-05-27T13:26:01.000Z</time>
      </trkpt>
      <trkpt lat="43.96495" lon="7.13269">
        <ele>919</ele>
        <time>2020-05-27T13:26:03.000Z</time>
      </trkpt>
      <trkpt lat="43.96494" lon="7.13272">
        <ele>918.20001220703</ele>
        <time>2020-05-27T13:26:04.000Z</time>
      </trkpt>
      <trkpt lat="43.96493" lon="7.13275">
        <ele>917.59997558594</ele>
        <time>2020-05-27T13:26:05.000Z</time>
      </trkpt>
      <trkpt lat="43.96493" lon="7.1328">
        <ele>917.20001220703</ele>
        <time>2020-05-27T13:26:06.000Z</time>
      </trkpt>
      <trkpt lat="43.96493" lon="7.13288">
        <ele>916.20001220703</ele>
        <time>2020-05-27T13:26:07.000Z</time>
      </trkpt>
      <trkpt lat="43.96493" lon="7.13296">
        <ele>915.20001220703</ele>
        <time>2020-05-27T13:26:08.000Z</time>
      </trkpt>
      <trkpt lat="43.96494" lon="7.1331">
        <ele>913.20001220703</ele>
        <time>2020-05-27T13:26:10.000Z</time>
      </trkpt>
      <trkpt lat="43.96493" lon="7.13316">
        <ele>912.20001220703</ele>
        <time>2020-05-27T13:26:11.000Z</time>
      </trkpt>
      <trkpt lat="43.96492" lon="7.13324">
        <ele>911.59997558594</ele>
        <time>2020-05-27T13:26:12.000Z</time>
      </trkpt>
      <trkpt lat="43.9649" lon="7.13332">
        <ele>910.40002441406</ele>
        <time>2020-05-27T13:26:13.000Z</time>
      </trkpt>
      <trkpt lat="43.9649" lon="7.13346">
        <ele>908.59997558594</ele>
        <time>2020-05-27T13:26:15.000Z</time>
      </trkpt>
      <trkpt lat="43.96489" lon="7.1336">
        <ele>906.40002441406</ele>
        <time>2020-05-27T13:26:17.000Z</time>
      </trkpt>
      <trkpt lat="43.96487" lon="7.13368">
        <ele>905.59997558594</ele>
        <time>2020-05-27T13:26:18.000Z</time>
      </trkpt>
      <trkpt lat="43.96484" lon="7.13376">
        <ele>905</ele>
        <time>2020-05-27T13:26:19.000Z</time>
      </trkpt>
      <trkpt lat="43.96479" lon="7.13393">
        <ele>902.79998779297</ele>
        <time>2020-05-27T13:26:21.000Z</time>
      </trkpt>
      <trkpt lat="43.96476" lon="7.13401">
        <ele>901.20001220703</ele>
        <time>2020-05-27T13:26:22.000Z</time>
      </trkpt>
      <trkpt lat="43.96471" lon="7.13417">
        <ele>898.40002441406</ele>
        <time>2020-05-27T13:26:24.000Z</time>
      </trkpt>
      <trkpt lat="43.96469" lon="7.13424">
        <ele>896.20001220703</ele>
        <time>2020-05-27T13:26:25.000Z</time>
      </trkpt>
      <trkpt lat="43.96466" lon="7.13431">
        <ele>894</ele>
        <time>2020-05-27T13:26:26.000Z</time>
      </trkpt>
      <trkpt lat="43.96463" lon="7.13436">
        <ele>895.79998779297</ele>
        <time>2020-05-27T13:26:27.000Z</time>
      </trkpt>
      <trkpt lat="43.9646" lon="7.1344">
        <ele>894.20001220703</ele>
        <time>2020-05-27T13:26:28.000Z</time>
      </trkpt>
      <trkpt lat="43.96456" lon="7.13444">
        <ele>893</ele>
        <time>2020-05-27T13:26:29.000Z</time>
      </trkpt>
      <trkpt lat="43.96451" lon="7.13448">
        <ele>892</ele>
        <time>2020-05-27T13:26:30.000Z</time>
      </trkpt>
      <trkpt lat="43.96447" lon="7.13452">
        <ele>890.79998779297</ele>
        <time>2020-05-27T13:26:31.000Z</time>
      </trkpt>
      <trkpt lat="43.96442" lon="7.13455">
        <ele>889.59997558594</ele>
        <time>2020-05-27T13:26:32.000Z</time>
      </trkpt>
      <trkpt lat="43.96436" lon="7.13457">
        <ele>888.20001220703</ele>
        <time>2020-05-27T13:26:33.000Z</time>
      </trkpt>
      <trkpt lat="43.96431" lon="7.1346">
        <ele>887</ele>
        <time>2020-05-27T13:26:34.000Z</time>
      </trkpt>
      <trkpt lat="43.96431" lon="7.13462">
        <ele>886.59997558594</ele>
        <time>2020-05-27T13:26:35.000Z</time>
      </trkpt>
      <trkpt lat="43.9643" lon="7.1347">
        <ele>884.59997558594</ele>
        <time>2020-05-27T13:26:36.000Z</time>
      </trkpt>
      <trkpt lat="43.96432" lon="7.13483">
        <ele>883.20001220703</ele>
        <time>2020-05-27T13:26:38.000Z</time>
      </trkpt>
      <trkpt lat="43.96431" lon="7.13486">
        <ele>883.20001220703</ele>
        <time>2020-05-27T13:26:39.000Z</time>
      </trkpt>
      <trkpt lat="43.96433" lon="7.13497">
        <ele>881.59997558594</ele>
        <time>2020-05-27T13:26:40.000Z</time>
      </trkpt>
      <trkpt lat="43.96435" lon="7.13509">
        <ele>879.20001220703</ele>
        <time>2020-05-27T13:26:42.000Z</time>
      </trkpt>
      <trkpt lat="43.96433" lon="7.13524">
        <ele>877.20001220703</ele>
        <time>2020-05-27T13:26:44.000Z</time>
      </trkpt>
      <trkpt lat="43.96432" lon="7.13532">
        <ele>876</ele>
        <time>2020-05-27T13:26:45.000Z</time>
      </trkpt>
      <trkpt lat="43.96431" lon="7.13538">
        <ele>874.40002441406</ele>
        <time>2020-05-27T13:26:46.000Z</time>
      </trkpt>
      <trkpt lat="43.9643" lon="7.13545">
        <ele>873.20001220703</ele>
        <time>2020-05-27T13:26:47.000Z</time>
      </trkpt>
      <trkpt lat="43.96427" lon="7.13553">
        <ele>871.59997558594</ele>
        <time>2020-05-27T13:26:48.000Z</time>
      </trkpt>
      <trkpt lat="43.96425" lon="7.13558">
        <ele>870.40002441406</ele>
        <time>2020-05-27T13:26:49.000Z</time>
      </trkpt>
      <trkpt lat="43.96423" lon="7.13562">
        <ele>869.20001220703</ele>
        <time>2020-05-27T13:26:50.000Z</time>
      </trkpt>
      <trkpt lat="43.96423" lon="7.13564">
        <ele>868.20001220703</ele>
        <time>2020-05-27T13:26:51.000Z</time>
      </trkpt>
      <trkpt lat="43.96424" lon="7.13564">
        <ele>867.40002441406</ele>
        <time>2020-05-27T13:26:52.000Z</time>
      </trkpt>
      <trkpt lat="43.96426" lon="7.13563">
        <ele>866.79998779297</ele>
        <time>2020-05-27T13:26:53.000Z</time>
      </trkpt>
      <trkpt lat="43.96427" lon="7.1356">
        <ele>866.20001220703</ele>
        <time>2020-05-27T13:26:54.000Z</time>
      </trkpt>
      <trkpt lat="43.9643" lon="7.13557">
        <ele>865.79998779297</ele>
        <time>2020-05-27T13:26:55.000Z</time>
      </trkpt>
      <trkpt lat="43.96435" lon="7.13551">
        <ele>864.59997558594</ele>
        <time>2020-05-27T13:26:57.000Z</time>
      </trkpt>
      <trkpt lat="43.96438" lon="7.13546">
        <ele>864.20001220703</ele>
        <time>2020-05-27T13:26:58.000Z</time>
      </trkpt>
      <trkpt lat="43.96442" lon="7.13541">
        <ele>863.59997558594</ele>
        <time>2020-05-27T13:26:59.000Z</time>
      </trkpt>
      <trkpt lat="43.96451" lon="7.13528">
        <ele>861</ele>
        <time>2020-05-27T13:27:02.000Z</time>
      </trkpt>
      <trkpt lat="43.96454" lon="7.13528">
        <ele>859.40002441406</ele>
        <time>2020-05-27T13:27:04.000Z</time>
      </trkpt>
      <trkpt lat="43.96454" lon="7.13531">
        <ele>859</ele>
        <time>2020-05-27T13:27:05.000Z</time>
      </trkpt>
      <trkpt lat="43.96452" lon="7.13538">
        <ele>858.20001220703</ele>
        <time>2020-05-27T13:27:07.000Z</time>
      </trkpt>
      <trkpt lat="43.9645" lon="7.1355">
        <ele>857.20001220703</ele>
        <time>2020-05-27T13:27:09.000Z</time>
      </trkpt>
      <trkpt lat="43.96449" lon="7.13557">
        <ele>856.40002441406</ele>
        <time>2020-05-27T13:27:10.000Z</time>
      </trkpt>
      <trkpt lat="43.96448" lon="7.13568">
        <ele>854.59997558594</ele>
        <time>2020-05-27T13:27:12.000Z</time>
      </trkpt>
      <trkpt lat="43.96446" lon="7.13573">
        <ele>853.20001220703</ele>
        <time>2020-05-27T13:27:13.000Z</time>
      </trkpt>
      <trkpt lat="43.96446" lon="7.13575">
        <ele>851.20001220703</ele>
        <time>2020-05-27T13:27:15.000Z</time>
      </trkpt>
      <trkpt lat="43.96446" lon="7.13575">
        <ele>849.59997558594</ele>
        <time>2020-05-27T13:27:16.000Z</time>
      </trkpt>
      <trkpt lat="43.96448" lon="7.13573">
        <ele>848.79998779297</ele>
        <time>2020-05-27T13:27:17.000Z</time>
      </trkpt>
      <trkpt lat="43.9645" lon="7.13571">
        <ele>848.20001220703</ele>
        <time>2020-05-27T13:27:18.000Z</time>
      </trkpt>
      <trkpt lat="43.96452" lon="7.13568">
        <ele>847</ele>
        <time>2020-05-27T13:27:19.000Z</time>
      </trkpt>
      <trkpt lat="43.96455" lon="7.13564">
        <ele>846.59997558594</ele>
        <time>2020-05-27T13:27:20.000Z</time>
      </trkpt>
      <trkpt lat="43.96462" lon="7.13556">
        <ele>845.40002441406</ele>
        <time>2020-05-27T13:27:22.000Z</time>
      </trkpt>
      <trkpt lat="43.96466" lon="7.13549">
        <ele>844.20001220703</ele>
        <time>2020-05-27T13:27:24.000Z</time>
      </trkpt>
      <trkpt lat="43.96466" lon="7.13547">
        <ele>843.20001220703</ele>
        <time>2020-05-27T13:27:25.000Z</time>
      </trkpt>
      <trkpt lat="43.96466" lon="7.13547">
        <ele>842.20001220703</ele>
        <time>2020-05-27T13:27:26.000Z</time>
      </trkpt>
      <trkpt lat="43.96466" lon="7.13547">
        <ele>840.40002441406</ele>
        <time>2020-05-27T13:27:28.000Z</time>
      </trkpt>
      <trkpt lat="43.96466" lon="7.13547">
        <ele>839.59997558594</ele>
        <time>2020-05-27T13:27:29.000Z</time>
      </trkpt>
      <trkpt lat="43.96466" lon="7.13547">
        <ele>839</ele>
        <time>2020-05-27T13:27:30.000Z</time>
      </trkpt>
      <trkpt lat="43.96466" lon="7.13546">
        <ele>838.79998779297</ele>
        <time>2020-05-27T13:27:34.000Z</time>
      </trkpt>
      <trkpt lat="43.96466" lon="7.13545">
        <ele>839</ele>
        <time>2020-05-27T13:27:44.000Z</time>
      </trkpt>
      <trkpt lat="43.96466" lon="7.13544">
        <ele>839.20001220703</ele>
        <time>2020-05-27T13:27:55.000Z</time>
      </trkpt>
      <trkpt lat="43.96466" lon="7.13543">
        <ele>838.59997558594</ele>
        <time>2020-05-27T13:28:09.000Z</time>
      </trkpt>
      <trkpt lat="43.96468" lon="7.1354">
        <ele>838.59997558594</ele>
        <time>2020-05-27T13:28:15.000Z</time>
      </trkpt>
      <trkpt lat="43.96469" lon="7.13541">
        <ele>838.59997558594</ele>
        <time>2020-05-27T13:28:16.000Z</time>
      </trkpt>
      <trkpt lat="43.96469" lon="7.1355">
        <ele>838.20001220703</ele>
        <time>2020-05-27T13:28:20.000Z</time>
      </trkpt>
      <trkpt lat="43.96468" lon="7.13553">
        <ele>838.20001220703</ele>
        <time>2020-05-27T13:28:21.000Z</time>
      </trkpt>
      <trkpt lat="43.96468" lon="7.13558">
        <ele>837.79998779297</ele>
        <time>2020-05-27T13:28:22.000Z</time>
      </trkpt>
      <trkpt lat="43.96462" lon="7.13573">
        <ele>837.40002441406</ele>
        <time>2020-05-27T13:28:26.000Z</time>
      </trkpt>
      <trkpt lat="43.96451" lon="7.13591">
        <ele>837.20001220703</ele>
        <time>2020-05-27T13:28:30.000Z</time>
      </trkpt>
      <trkpt lat="43.96449" lon="7.13597">
        <ele>836.79998779297</ele>
        <time>2020-05-27T13:28:31.000Z</time>
      </trkpt>
      <trkpt lat="43.96449" lon="7.1361">
        <ele>835.20001220703</ele>
        <time>2020-05-27T13:28:33.000Z</time>
      </trkpt>
      <trkpt lat="43.96447" lon="7.13617">
        <ele>834.40002441406</ele>
        <time>2020-05-27T13:28:34.000Z</time>
      </trkpt>
      <trkpt lat="43.96445" lon="7.13623">
        <ele>833.79998779297</ele>
        <time>2020-05-27T13:28:35.000Z</time>
      </trkpt>
      <trkpt lat="43.96437" lon="7.13638">
        <ele>832.79998779297</ele>
        <time>2020-05-27T13:28:38.000Z</time>
      </trkpt>
      <trkpt lat="43.96435" lon="7.1365">
        <ele>832.40002441406</ele>
        <time>2020-05-27T13:28:40.000Z</time>
      </trkpt>
      <trkpt lat="43.96432" lon="7.13655">
        <ele>832</ele>
        <time>2020-05-27T13:28:41.000Z</time>
      </trkpt>
      <trkpt lat="43.96428" lon="7.1366">
        <ele>831.40002441406</ele>
        <time>2020-05-27T13:28:42.000Z</time>
      </trkpt>
      <trkpt lat="43.96419" lon="7.13673">
        <ele>829.79998779297</ele>
        <time>2020-05-27T13:28:44.000Z</time>
      </trkpt>
      <trkpt lat="43.96415" lon="7.1368">
        <ele>828.59997558594</ele>
        <time>2020-05-27T13:28:45.000Z</time>
      </trkpt>
      <trkpt lat="43.9641" lon="7.13686">
        <ele>827.20001220703</ele>
        <time>2020-05-27T13:28:46.000Z</time>
      </trkpt>
      <trkpt lat="43.96406" lon="7.1369">
        <ele>826</ele>
        <time>2020-05-27T13:28:47.000Z</time>
      </trkpt>
      <trkpt lat="43.96402" lon="7.13692">
        <ele>824.79998779297</ele>
        <time>2020-05-27T13:28:48.000Z</time>
      </trkpt>
      <trkpt lat="43.96399" lon="7.13695">
        <ele>823.40002441406</ele>
        <time>2020-05-27T13:28:49.000Z</time>
      </trkpt>
      <trkpt lat="43.96397" lon="7.13698">
        <ele>823</ele>
        <time>2020-05-27T13:28:50.000Z</time>
      </trkpt>
      <trkpt lat="43.96394" lon="7.137">
        <ele>822.59997558594</ele>
        <time>2020-05-27T13:28:51.000Z</time>
      </trkpt>
      <trkpt lat="43.96391" lon="7.13702">
        <ele>822.20001220703</ele>
        <time>2020-05-27T13:28:52.000Z</time>
      </trkpt>
      <trkpt lat="43.96387" lon="7.13703">
        <ele>822</ele>
        <time>2020-05-27T13:28:53.000Z</time>
      </trkpt>
      <trkpt lat="43.96379" lon="7.13702">
        <ele>819.79998779297</ele>
        <time>2020-05-27T13:28:55.000Z</time>
      </trkpt>
      <trkpt lat="43.96374" lon="7.13703">
        <ele>818</ele>
        <time>2020-05-27T13:28:57.000Z</time>
      </trkpt>
      <trkpt lat="43.96371" lon="7.13705">
        <ele>816.79998779297</ele>
        <time>2020-05-27T13:28:59.000Z</time>
      </trkpt>
      <trkpt lat="43.96361" lon="7.13704">
        <ele>816.79998779297</ele>
        <time>2020-05-27T13:29:04.000Z</time>
      </trkpt>
      <trkpt lat="43.96357" lon="7.13702">
        <ele>817.20001220703</ele>
        <time>2020-05-27T13:29:09.000Z</time>
      </trkpt>
      <trkpt lat="43.96356" lon="7.13701">
        <ele>817.20001220703</ele>
        <time>2020-05-27T13:29:10.000Z</time>
      </trkpt>
      <trkpt lat="43.96351" lon="7.13702">
        <ele>817.79998779297</ele>
        <time>2020-05-27T13:29:16.000Z</time>
      </trkpt>
      <trkpt lat="43.9635" lon="7.13704">
        <ele>818</ele>
        <time>2020-05-27T13:29:18.000Z</time>
      </trkpt>
      <trkpt lat="43.96348" lon="7.13706">
        <ele>818.40002441406</ele>
        <time>2020-05-27T13:29:23.000Z</time>
      </trkpt>
      <trkpt lat="43.96346" lon="7.13711">
        <ele>818.40002441406</ele>
        <time>2020-05-27T13:29:29.000Z</time>
      </trkpt>
      <trkpt lat="43.96346" lon="7.13712">
        <ele>818.20001220703</ele>
        <time>2020-05-27T13:29:30.000Z</time>
      </trkpt>
      <trkpt lat="43.96344" lon="7.13715">
        <ele>817.59997558594</ele>
        <time>2020-05-27T13:29:38.000Z</time>
      </trkpt>
      <trkpt lat="43.9634" lon="7.13721">
        <ele>817</ele>
        <time>2020-05-27T13:29:44.000Z</time>
      </trkpt>
      <trkpt lat="43.9634" lon="7.13722">
        <ele>816.79998779297</ele>
        <time>2020-05-27T13:29:45.000Z</time>
      </trkpt>
      <trkpt lat="43.9634" lon="7.13728">
        <ele>816.59997558594</ele>
        <time>2020-05-27T13:29:51.000Z</time>
      </trkpt>
      <trkpt lat="43.9634" lon="7.13733">
        <ele>816.20001220703</ele>
        <time>2020-05-27T13:29:59.000Z</time>
      </trkpt>
      <trkpt lat="43.9634" lon="7.13736">
        <ele>815.79998779297</ele>
        <time>2020-05-27T13:30:03.000Z</time>
      </trkpt>
      <trkpt lat="43.9634" lon="7.13736">
        <ele>815.40002441406</ele>
        <time>2020-05-27T13:30:04.000Z</time>
      </trkpt>
      <trkpt lat="43.9634" lon="7.13738">
        <ele>814.79998779297</ele>
        <time>2020-05-27T13:30:08.000Z</time>
      </trkpt>
      <trkpt lat="43.96341" lon="7.1374">
        <ele>814.79998779297</ele>
        <time>2020-05-27T13:30:09.000Z</time>
      </trkpt>
      <trkpt lat="43.96343" lon="7.13752">
        <ele>814.59997558594</ele>
        <time>2020-05-27T13:30:13.000Z</time>
      </trkpt>
      <trkpt lat="43.96342" lon="7.13756">
        <ele>814</ele>
        <time>2020-05-27T13:30:15.000Z</time>
      </trkpt>
      <trkpt lat="43.96341" lon="7.13757">
        <ele>813.40002441406</ele>
        <time>2020-05-27T13:30:16.000Z</time>
      </trkpt>
      <trkpt lat="43.96341" lon="7.13756">
        <ele>812</ele>
        <time>2020-05-27T13:30:19.000Z</time>
      </trkpt>
      <trkpt lat="43.9634" lon="7.13759">
        <ele>811</ele>
        <time>2020-05-27T13:30:23.000Z</time>
      </trkpt>
      <trkpt lat="43.9634" lon="7.1376">
        <ele>810.59997558594</ele>
        <time>2020-05-27T13:30:24.000Z</time>
      </trkpt>
      <trkpt lat="43.96344" lon="7.13758">
        <ele>810</ele>
        <time>2020-05-27T13:30:29.000Z</time>
      </trkpt>
      <trkpt lat="43.96345" lon="7.13758">
        <ele>809.79998779297</ele>
        <time>2020-05-27T13:30:30.000Z</time>
      </trkpt>
      <trkpt lat="43.9635" lon="7.13756">
        <ele>808.79998779297</ele>
        <time>2020-05-27T13:30:34.000Z</time>
      </trkpt>
      <trkpt lat="43.96353" lon="7.13754">
        <ele>807.79998779297</ele>
        <time>2020-05-27T13:30:37.000Z</time>
      </trkpt>
      <trkpt lat="43.96354" lon="7.13754">
        <ele>807.20001220703</ele>
        <time>2020-05-27T13:30:38.000Z</time>
      </trkpt>
      <trkpt lat="43.96355" lon="7.13754">
        <ele>806.59997558594</ele>
        <time>2020-05-27T13:30:40.000Z</time>
      </trkpt>
      <trkpt lat="43.96355" lon="7.13755">
        <ele>805</ele>
        <time>2020-05-27T13:30:42.000Z</time>
      </trkpt>
      <trkpt lat="43.96355" lon="7.13758">
        <ele>804.40002441406</ele>
        <time>2020-05-27T13:30:48.000Z</time>
      </trkpt>
      <trkpt lat="43.9635" lon="7.13771">
        <ele>803.59997558594</ele>
        <time>2020-05-27T13:30:53.000Z</time>
      </trkpt>
      <trkpt lat="43.96349" lon="7.13774">
        <ele>803</ele>
        <time>2020-05-27T13:30:54.000Z</time>
      </trkpt>
      <trkpt lat="43.96345" lon="7.1378">
        <ele>802</ele>
        <time>2020-05-27T13:30:56.000Z</time>
      </trkpt>
      <trkpt lat="43.9634" lon="7.13786">
        <ele>800.79998779297</ele>
        <time>2020-05-27T13:30:58.000Z</time>
      </trkpt>
      <trkpt lat="43.96335" lon="7.13791">
        <ele>799</ele>
        <time>2020-05-27T13:31:00.000Z</time>
      </trkpt>
      <trkpt lat="43.96333" lon="7.13791">
        <ele>797.59997558594</ele>
        <time>2020-05-27T13:31:02.000Z</time>
      </trkpt>
      <trkpt lat="43.96332" lon="7.13791">
        <ele>797</ele>
        <time>2020-05-27T13:31:03.000Z</time>
      </trkpt>
      <trkpt lat="43.96332" lon="7.13791">
        <ele>796.40002441406</ele>
        <time>2020-05-27T13:31:04.000Z</time>
      </trkpt>
      <trkpt lat="43.9633" lon="7.13792">
        <ele>795.40002441406</ele>
        <time>2020-05-27T13:31:08.000Z</time>
      </trkpt>
      <trkpt lat="43.96329" lon="7.13793">
        <ele>795</ele>
        <time>2020-05-27T13:31:10.000Z</time>
      </trkpt>
      <trkpt lat="43.96327" lon="7.13793">
        <ele>794.20001220703</ele>
        <time>2020-05-27T13:31:13.000Z</time>
      </trkpt>
      <trkpt lat="43.96325" lon="7.13795">
        <ele>794</ele>
        <time>2020-05-27T13:31:15.000Z</time>
      </trkpt>
      <trkpt lat="43.96324" lon="7.13797">
        <ele>793.79998779297</ele>
        <time>2020-05-27T13:31:18.000Z</time>
      </trkpt>
      <trkpt lat="43.96322" lon="7.138">
        <ele>793.59997558594</ele>
        <time>2020-05-27T13:31:20.000Z</time>
      </trkpt>
      <trkpt lat="43.96317" lon="7.13809">
        <ele>793.20001220703</ele>
        <time>2020-05-27T13:31:23.000Z</time>
      </trkpt>
      <trkpt lat="43.96315" lon="7.13812">
        <ele>792.79998779297</ele>
        <time>2020-05-27T13:31:24.000Z</time>
      </trkpt>
      <trkpt lat="43.96311" lon="7.13818">
        <ele>791.59997558594</ele>
        <time>2020-05-27T13:31:26.000Z</time>
      </trkpt>
      <trkpt lat="43.96307" lon="7.13825">
        <ele>789.79998779297</ele>
        <time>2020-05-27T13:31:28.000Z</time>
      </trkpt>
      <trkpt lat="43.96302" lon="7.13833">
        <ele>788</ele>
        <time>2020-05-27T13:31:30.000Z</time>
      </trkpt>
      <trkpt lat="43.963" lon="7.13836">
        <ele>786.79998779297</ele>
        <time>2020-05-27T13:31:31.000Z</time>
      </trkpt>
      <trkpt lat="43.96299" lon="7.13837">
        <ele>787.20001220703</ele>
        <time>2020-05-27T13:31:33.000Z</time>
      </trkpt>
      <trkpt lat="43.96298" lon="7.1384">
        <ele>786.20001220703</ele>
        <time>2020-05-27T13:31:39.000Z</time>
      </trkpt>
      <trkpt lat="43.96296" lon="7.13842">
        <ele>785.79998779297</ele>
        <time>2020-05-27T13:31:41.000Z</time>
      </trkpt>
      <trkpt lat="43.96291" lon="7.13846">
        <ele>784.79998779297</ele>
        <time>2020-05-27T13:31:45.000Z</time>
      </trkpt>
      <trkpt lat="43.96289" lon="7.13848">
        <ele>784.20001220703</ele>
        <time>2020-05-27T13:31:47.000Z</time>
      </trkpt>
      <trkpt lat="43.96285" lon="7.1385">
        <ele>783.79998779297</ele>
        <time>2020-05-27T13:31:50.000Z</time>
      </trkpt>
      <trkpt lat="43.96283" lon="7.13853">
        <ele>783</ele>
        <time>2020-05-27T13:31:53.000Z</time>
      </trkpt>
      <trkpt lat="43.96283" lon="7.13854">
        <ele>782.79998779297</ele>
        <time>2020-05-27T13:31:54.000Z</time>
      </trkpt>
      <trkpt lat="43.9628" lon="7.13858">
        <ele>782</ele>
        <time>2020-05-27T13:32:01.000Z</time>
      </trkpt>
      <trkpt lat="43.96277" lon="7.13862">
        <ele>781.59997558594</ele>
        <time>2020-05-27T13:32:06.000Z</time>
      </trkpt>
      <trkpt lat="43.96276" lon="7.13864">
        <ele>781.59997558594</ele>
        <time>2020-05-27T13:32:08.000Z</time>
      </trkpt>
      <trkpt lat="43.96269" lon="7.1387">
        <ele>780.40002441406</ele>
        <time>2020-05-27T13:32:16.000Z</time>
      </trkpt>
      <trkpt lat="43.96268" lon="7.13871">
        <ele>780.20001220703</ele>
        <time>2020-05-27T13:32:17.000Z</time>
      </trkpt>
      <trkpt lat="43.96266" lon="7.13873">
        <ele>779.40002441406</ele>
        <time>2020-05-27T13:32:21.000Z</time>
      </trkpt>
      <trkpt lat="43.96265" lon="7.13874">
        <ele>778.79998779297</ele>
        <time>2020-05-27T13:32:24.000Z</time>
      </trkpt>
      <trkpt lat="43.96266" lon="7.13875">
        <ele>778.59997558594</ele>
        <time>2020-05-27T13:32:25.000Z</time>
      </trkpt>
      <trkpt lat="43.96266" lon="7.13875">
        <ele>778.20001220703</ele>
        <time>2020-05-27T13:32:26.000Z</time>
      </trkpt>
      <trkpt lat="43.96266" lon="7.13877">
        <ele>778</ele>
        <time>2020-05-27T13:32:27.000Z</time>
      </trkpt>
      <trkpt lat="43.9626" lon="7.13882">
        <ele>778.20001220703</ele>
        <time>2020-05-27T13:32:32.000Z</time>
      </trkpt>
      <trkpt lat="43.96253" lon="7.13895">
        <ele>777.20001220703</ele>
        <time>2020-05-27T13:32:38.000Z</time>
      </trkpt>
      <trkpt lat="43.9625" lon="7.139">
        <ele>776.40002441406</ele>
        <time>2020-05-27T13:32:40.000Z</time>
      </trkpt>
      <trkpt lat="43.96249" lon="7.13903">
        <ele>775.79998779297</ele>
        <time>2020-05-27T13:32:41.000Z</time>
      </trkpt>
      <trkpt lat="43.96247" lon="7.1391">
        <ele>774.59997558594</ele>
        <time>2020-05-27T13:32:43.000Z</time>
      </trkpt>
      <trkpt lat="43.96244" lon="7.13915">
        <ele>773.79998779297</ele>
        <time>2020-05-27T13:32:45.000Z</time>
      </trkpt>
      <trkpt lat="43.96244" lon="7.13918">
        <ele>773.59997558594</ele>
        <time>2020-05-27T13:32:46.000Z</time>
      </trkpt>
      <trkpt lat="43.96244" lon="7.13931">
        <ele>771.59997558594</ele>
        <time>2020-05-27T13:32:50.000Z</time>
      </trkpt>
      <trkpt lat="43.96245" lon="7.13939">
        <ele>770.20001220703</ele>
        <time>2020-05-27T13:32:52.000Z</time>
      </trkpt>
      <trkpt lat="43.96245" lon="7.13943">
        <ele>769.20001220703</ele>
        <time>2020-05-27T13:32:53.000Z</time>
      </trkpt>
      <trkpt lat="43.96243" lon="7.13946">
        <ele>768.20001220703</ele>
        <time>2020-05-27T13:32:54.000Z</time>
      </trkpt>
      <trkpt lat="43.96241" lon="7.13949">
        <ele>767.59997558594</ele>
        <time>2020-05-27T13:32:55.000Z</time>
      </trkpt>
      <trkpt lat="43.96236" lon="7.13957">
        <ele>765.79998779297</ele>
        <time>2020-05-27T13:32:57.000Z</time>
      </trkpt>
      <trkpt lat="43.9623" lon="7.13965">
        <ele>765</ele>
        <time>2020-05-27T13:32:59.000Z</time>
      </trkpt>
      <trkpt lat="43.96227" lon="7.1397">
        <ele>764.40002441406</ele>
        <time>2020-05-27T13:33:00.000Z</time>
      </trkpt>
      <trkpt lat="43.96223" lon="7.13974">
        <ele>764</ele>
        <time>2020-05-27T13:33:01.000Z</time>
      </trkpt>
      <trkpt lat="43.96219" lon="7.13978">
        <ele>763.20001220703</ele>
        <time>2020-05-27T13:33:02.000Z</time>
      </trkpt>
      <trkpt lat="43.96215" lon="7.13982">
        <ele>761.79998779297</ele>
        <time>2020-05-27T13:33:04.000Z</time>
      </trkpt>
      <trkpt lat="43.96216" lon="7.13983">
        <ele>760.79998779297</ele>
        <time>2020-05-27T13:33:06.000Z</time>
      </trkpt>
      <trkpt lat="43.96219" lon="7.13982">
        <ele>760.20001220703</ele>
        <time>2020-05-27T13:33:07.000Z</time>
      </trkpt>
      <trkpt lat="43.96222" lon="7.13982">
        <ele>759.40002441406</ele>
        <time>2020-05-27T13:33:08.000Z</time>
      </trkpt>
      <trkpt lat="43.96232" lon="7.13979">
        <ele>757.79998779297</ele>
        <time>2020-05-27T13:33:11.000Z</time>
      </trkpt>
      <trkpt lat="43.96233" lon="7.1398">
        <ele>757</ele>
        <time>2020-05-27T13:33:12.000Z</time>
      </trkpt>
      <trkpt lat="43.96233" lon="7.13981">
        <ele>756.20001220703</ele>
        <time>2020-05-27T13:33:13.000Z</time>
      </trkpt>
      <trkpt lat="43.96232" lon="7.13984">
        <ele>755</ele>
        <time>2020-05-27T13:33:14.000Z</time>
      </trkpt>
      <trkpt lat="43.96227" lon="7.13993">
        <ele>753.79998779297</ele>
        <time>2020-05-27T13:33:16.000Z</time>
      </trkpt>
      <trkpt lat="43.96224" lon="7.13999">
        <ele>753</ele>
        <time>2020-05-27T13:33:17.000Z</time>
      </trkpt>
      <trkpt lat="43.9622" lon="7.14005">
        <ele>752.40002441406</ele>
        <time>2020-05-27T13:33:18.000Z</time>
      </trkpt>
      <trkpt lat="43.96215" lon="7.14011">
        <ele>751.20001220703</ele>
        <time>2020-05-27T13:33:19.000Z</time>
      </trkpt>
      <trkpt lat="43.96206" lon="7.14022">
        <ele>749.20001220703</ele>
        <time>2020-05-27T13:33:21.000Z</time>
      </trkpt>
      <trkpt lat="43.96203" lon="7.14028">
        <ele>748.20001220703</ele>
        <time>2020-05-27T13:33:22.000Z</time>
      </trkpt>
      <trkpt lat="43.96197" lon="7.14043">
        <ele>746.59997558594</ele>
        <time>2020-05-27T13:33:24.000Z</time>
      </trkpt>
      <trkpt lat="43.96193" lon="7.14048">
        <ele>745.40002441406</ele>
        <time>2020-05-27T13:33:25.000Z</time>
      </trkpt>
      <trkpt lat="43.9619" lon="7.14053">
        <ele>744.20001220703</ele>
        <time>2020-05-27T13:33:26.000Z</time>
      </trkpt>
      <trkpt lat="43.96184" lon="7.14065">
        <ele>742</ele>
        <time>2020-05-27T13:33:28.000Z</time>
      </trkpt>
      <trkpt lat="43.96181" lon="7.14072">
        <ele>741</ele>
        <time>2020-05-27T13:33:29.000Z</time>
      </trkpt>
      <trkpt lat="43.96179" lon="7.14078">
        <ele>739.79998779297</ele>
        <time>2020-05-27T13:33:30.000Z</time>
      </trkpt>
      <trkpt lat="43.96175" lon="7.14084">
        <ele>738.20001220703</ele>
        <time>2020-05-27T13:33:31.000Z</time>
      </trkpt>
      <trkpt lat="43.96172" lon="7.1409">
        <ele>736.59997558594</ele>
        <time>2020-05-27T13:33:32.000Z</time>
      </trkpt>
      <trkpt lat="43.9617" lon="7.14095">
        <ele>735</ele>
        <time>2020-05-27T13:33:33.000Z</time>
      </trkpt>
      <trkpt lat="43.96168" lon="7.14099">
        <ele>733.59997558594</ele>
        <time>2020-05-27T13:33:34.000Z</time>
      </trkpt>
      <trkpt lat="43.96166" lon="7.14103">
        <ele>732.59997558594</ele>
        <time>2020-05-27T13:33:35.000Z</time>
      </trkpt>
      <trkpt lat="43.96162" lon="7.14105">
        <ele>731.40002441406</ele>
        <time>2020-05-27T13:33:36.000Z</time>
      </trkpt>
      <trkpt lat="43.96159" lon="7.14104">
        <ele>730.40002441406</ele>
        <time>2020-05-27T13:33:37.000Z</time>
      </trkpt>
      <trkpt lat="43.96156" lon="7.14102">
        <ele>729.59997558594</ele>
        <time>2020-05-27T13:33:38.000Z</time>
      </trkpt>
      <trkpt lat="43.9615" lon="7.14097">
        <ele>728.20001220703</ele>
        <time>2020-05-27T13:33:40.000Z</time>
      </trkpt>
      <trkpt lat="43.96147" lon="7.14093">
        <ele>727</ele>
        <time>2020-05-27T13:33:41.000Z</time>
      </trkpt>
      <trkpt lat="43.96144" lon="7.14088">
        <ele>726.20001220703</ele>
        <time>2020-05-27T13:33:42.000Z</time>
      </trkpt>
      <trkpt lat="43.9614" lon="7.14083">
        <ele>724.79998779297</ele>
        <time>2020-05-27T13:33:43.000Z</time>
      </trkpt>
      <trkpt lat="43.96137" lon="7.1408">
        <ele>723.40002441406</ele>
        <time>2020-05-27T13:33:44.000Z</time>
      </trkpt>
      <trkpt lat="43.96133" lon="7.14076">
        <ele>722.40002441406</ele>
        <time>2020-05-27T13:33:45.000Z</time>
      </trkpt>
      <trkpt lat="43.96129" lon="7.14072">
        <ele>721.40002441406</ele>
        <time>2020-05-27T13:33:46.000Z</time>
      </trkpt>
      <trkpt lat="43.96127" lon="7.14067">
        <ele>720</ele>
        <time>2020-05-27T13:33:47.000Z</time>
      </trkpt>
      <trkpt lat="43.96125" lon="7.14062">
        <ele>719</ele>
        <time>2020-05-27T13:33:48.000Z</time>
      </trkpt>
      <trkpt lat="43.96122" lon="7.14057">
        <ele>718</ele>
        <time>2020-05-27T13:33:49.000Z</time>
      </trkpt>
      <trkpt lat="43.9612" lon="7.14053">
        <ele>717.40002441406</ele>
        <time>2020-05-27T13:33:50.000Z</time>
      </trkpt>
      <trkpt lat="43.96117" lon="7.14048">
        <ele>716.20001220703</ele>
        <time>2020-05-27T13:33:51.000Z</time>
      </trkpt>
      <trkpt lat="43.96114" lon="7.14043">
        <ele>714.79998779297</ele>
        <time>2020-05-27T13:33:52.000Z</time>
      </trkpt>
      <trkpt lat="43.96111" lon="7.14039">
        <ele>714</ele>
        <time>2020-05-27T13:33:53.000Z</time>
      </trkpt>
      <trkpt lat="43.96109" lon="7.14035">
        <ele>712.40002441406</ele>
        <time>2020-05-27T13:33:54.000Z</time>
      </trkpt>
      <trkpt lat="43.96104" lon="7.14023">
        <ele>710.59997558594</ele>
        <time>2020-05-27T13:33:56.000Z</time>
      </trkpt>
      <trkpt lat="43.96098" lon="7.14019">
        <ele>709.20001220703</ele>
        <time>2020-05-27T13:33:58.000Z</time>
      </trkpt>
      <trkpt lat="43.96094" lon="7.14018">
        <ele>708.20001220703</ele>
        <time>2020-05-27T13:33:59.000Z</time>
      </trkpt>
      <trkpt lat="43.96086" lon="7.14019">
        <ele>706.79998779297</ele>
        <time>2020-05-27T13:34:01.000Z</time>
      </trkpt>
      <trkpt lat="43.96083" lon="7.1402">
        <ele>706.59997558594</ele>
        <time>2020-05-27T13:34:02.000Z</time>
      </trkpt>
      <trkpt lat="43.96079" lon="7.1402">
        <ele>706.40002441406</ele>
        <time>2020-05-27T13:34:03.000Z</time>
      </trkpt>
      <trkpt lat="43.9607" lon="7.14018">
        <ele>706.59997558594</ele>
        <time>2020-05-27T13:34:05.000Z</time>
      </trkpt>
      <trkpt lat="43.96059" lon="7.1401">
        <ele>705.40002441406</ele>
        <time>2020-05-27T13:34:08.000Z</time>
      </trkpt>
      <trkpt lat="43.96055" lon="7.1401">
        <ele>704.59997558594</ele>
        <time>2020-05-27T13:34:09.000Z</time>
      </trkpt>
      <trkpt lat="43.96051" lon="7.14009">
        <ele>704</ele>
        <time>2020-05-27T13:34:10.000Z</time>
      </trkpt>
      <trkpt lat="43.96048" lon="7.14006">
        <ele>703</ele>
        <time>2020-05-27T13:34:11.000Z</time>
      </trkpt>
      <trkpt lat="43.96046" lon="7.14003">
        <ele>702.40002441406</ele>
        <time>2020-05-27T13:34:12.000Z</time>
      </trkpt>
      <trkpt lat="43.96042" lon="7.13989">
        <ele>703.59997558594</ele>
        <time>2020-05-27T13:34:16.000Z</time>
      </trkpt>
      <trkpt lat="43.9604" lon="7.13982">
        <ele>704</ele>
        <time>2020-05-27T13:34:18.000Z</time>
      </trkpt>
      <trkpt lat="43.96038" lon="7.13981">
        <ele>703.79998779297</ele>
        <time>2020-05-27T13:34:19.000Z</time>
      </trkpt>
      <trkpt lat="43.9603" lon="7.13979">
        <ele>702</ele>
        <time>2020-05-27T13:34:22.000Z</time>
      </trkpt>
      <trkpt lat="43.96027" lon="7.13978">
        <ele>700.79998779297</ele>
        <time>2020-05-27T13:34:23.000Z</time>
      </trkpt>
      <trkpt lat="43.96023" lon="7.13978">
        <ele>699</ele>
        <time>2020-05-27T13:34:25.000Z</time>
      </trkpt>
      <trkpt lat="43.9602" lon="7.13978">
        <ele>698</ele>
        <time>2020-05-27T13:34:26.000Z</time>
      </trkpt>
      <trkpt lat="43.96018" lon="7.13978">
        <ele>698</ele>
        <time>2020-05-27T13:34:27.000Z</time>
      </trkpt>
      <trkpt lat="43.96011" lon="7.13977">
        <ele>696.79998779297</ele>
        <time>2020-05-27T13:34:29.000Z</time>
      </trkpt>
      <trkpt lat="43.96009" lon="7.1398">
        <ele>696.59997558594</ele>
        <time>2020-05-27T13:34:30.000Z</time>
      </trkpt>
      <trkpt lat="43.96002" lon="7.13985">
        <ele>695.20001220703</ele>
        <time>2020-05-27T13:34:32.000Z</time>
      </trkpt>
      <trkpt lat="43.95995" lon="7.13987">
        <ele>694.40002441406</ele>
        <time>2020-05-27T13:34:34.000Z</time>
      </trkpt>
      <trkpt lat="43.95993" lon="7.13988">
        <ele>694.20001220703</ele>
        <time>2020-05-27T13:34:35.000Z</time>
      </trkpt>
      <trkpt lat="43.9599" lon="7.13993">
        <ele>694.40002441406</ele>
        <time>2020-05-27T13:34:37.000Z</time>
      </trkpt>
      <trkpt lat="43.95985" lon="7.13998">
        <ele>694.79998779297</ele>
        <time>2020-05-27T13:34:41.000Z</time>
      </trkpt>
      <trkpt lat="43.95978" lon="7.14">
        <ele>695.20001220703</ele>
        <time>2020-05-27T13:34:45.000Z</time>
      </trkpt>
      <trkpt lat="43.95977" lon="7.14001">
        <ele>695.40002441406</ele>
        <time>2020-05-27T13:34:46.000Z</time>
      </trkpt>
      <trkpt lat="43.95976" lon="7.14003">
        <ele>696.20001220703</ele>
        <time>2020-05-27T13:34:48.000Z</time>
      </trkpt>
      <trkpt lat="43.95973" lon="7.14006">
        <ele>697</ele>
        <time>2020-05-27T13:34:51.000Z</time>
      </trkpt>
      <trkpt lat="43.95971" lon="7.14007">
        <ele>697.20001220703</ele>
        <time>2020-05-27T13:34:52.000Z</time>
      </trkpt>
      <trkpt lat="43.95965" lon="7.14012">
        <ele>698.20001220703</ele>
        <time>2020-05-27T13:34:56.000Z</time>
      </trkpt>
      <trkpt lat="43.95962" lon="7.14015">
        <ele>698.59997558594</ele>
        <time>2020-05-27T13:34:58.000Z</time>
      </trkpt>
      <trkpt lat="43.95951" lon="7.14022">
        <ele>699.20001220703</ele>
        <time>2020-05-27T13:35:04.000Z</time>
      </trkpt>
      <trkpt lat="43.9595" lon="7.14024">
        <ele>699.20001220703</ele>
        <time>2020-05-27T13:35:05.000Z</time>
      </trkpt>
      <trkpt lat="43.95943" lon="7.1403">
        <ele>698.79998779297</ele>
        <time>2020-05-27T13:35:08.000Z</time>
      </trkpt>
      <trkpt lat="43.95937" lon="7.14036">
        <ele>697.79998779297</ele>
        <time>2020-05-27T13:35:11.000Z</time>
      </trkpt>
      <trkpt lat="43.95937" lon="7.14039">
        <ele>697.59997558594</ele>
        <time>2020-05-27T13:35:12.000Z</time>
      </trkpt>
      <trkpt lat="43.95933" lon="7.14049">
        <ele>696.40002441406</ele>
        <time>2020-05-27T13:35:15.000Z</time>
      </trkpt>
      <trkpt lat="43.95929" lon="7.14053">
        <ele>696</ele>
        <time>2020-05-27T13:35:16.000Z</time>
      </trkpt>
      <trkpt lat="43.95925" lon="7.14058">
        <ele>695.20001220703</ele>
        <time>2020-05-27T13:35:17.000Z</time>
      </trkpt>
      <trkpt lat="43.95921" lon="7.14061">
        <ele>694</ele>
        <time>2020-05-27T13:35:18.000Z</time>
      </trkpt>
      <trkpt lat="43.95917" lon="7.14064">
        <ele>692.59997558594</ele>
        <time>2020-05-27T13:35:19.000Z</time>
      </trkpt>
      <trkpt lat="43.95912" lon="7.14066">
        <ele>691.59997558594</ele>
        <time>2020-05-27T13:35:20.000Z</time>
      </trkpt>
      <trkpt lat="43.95907" lon="7.14069">
        <ele>690.40002441406</ele>
        <time>2020-05-27T13:35:21.000Z</time>
      </trkpt>
      <trkpt lat="43.95903" lon="7.14071">
        <ele>689.40002441406</ele>
        <time>2020-05-27T13:35:22.000Z</time>
      </trkpt>
      <trkpt lat="43.95899" lon="7.14074">
        <ele>688.79998779297</ele>
        <time>2020-05-27T13:35:23.000Z</time>
      </trkpt>
      <trkpt lat="43.95891" lon="7.14081">
        <ele>688.20001220703</ele>
        <time>2020-05-27T13:35:25.000Z</time>
      </trkpt>
      <trkpt lat="43.95887" lon="7.14084">
        <ele>688.20001220703</ele>
        <time>2020-05-27T13:35:26.000Z</time>
      </trkpt>
      <trkpt lat="43.95882" lon="7.14088">
        <ele>687.40002441406</ele>
        <time>2020-05-27T13:35:28.000Z</time>
      </trkpt>
      <trkpt lat="43.95881" lon="7.1409">
        <ele>687.20001220703</ele>
        <time>2020-05-27T13:35:29.000Z</time>
      </trkpt>
      <trkpt lat="43.95873" lon="7.14104">
        <ele>688.59997558594</ele>
        <time>2020-05-27T13:35:34.000Z</time>
      </trkpt>
      <trkpt lat="43.95871" lon="7.14115">
        <ele>688.59997558594</ele>
        <time>2020-05-27T13:35:36.000Z</time>
      </trkpt>
      <trkpt lat="43.9587" lon="7.14121">
        <ele>688.20001220703</ele>
        <time>2020-05-27T13:35:37.000Z</time>
      </trkpt>
      <trkpt lat="43.95869" lon="7.14133">
        <ele>687</ele>
        <time>2020-05-27T13:35:39.000Z</time>
      </trkpt>
      <trkpt lat="43.95868" lon="7.1414">
        <ele>686.59997558594</ele>
        <time>2020-05-27T13:35:40.000Z</time>
      </trkpt>
      <trkpt lat="43.95866" lon="7.14148">
        <ele>685.20001220703</ele>
        <time>2020-05-27T13:35:41.000Z</time>
      </trkpt>
      <trkpt lat="43.95864" lon="7.14156">
        <ele>683.79998779297</ele>
        <time>2020-05-27T13:35:42.000Z</time>
      </trkpt>
      <trkpt lat="43.95862" lon="7.14165">
        <ele>681.79998779297</ele>
        <time>2020-05-27T13:35:43.000Z</time>
      </trkpt>
      <trkpt lat="43.95859" lon="7.14173">
        <ele>679.79998779297</ele>
        <time>2020-05-27T13:35:44.000Z</time>
      </trkpt>
      <trkpt lat="43.95856" lon="7.1418">
        <ele>678</ele>
        <time>2020-05-27T13:35:45.000Z</time>
      </trkpt>
      <trkpt lat="43.95852" lon="7.14188">
        <ele>676.59997558594</ele>
        <time>2020-05-27T13:35:46.000Z</time>
      </trkpt>
      <trkpt lat="43.95847" lon="7.14196">
        <ele>675.40002441406</ele>
        <time>2020-05-27T13:35:47.000Z</time>
      </trkpt>
      <trkpt lat="43.95836" lon="7.14209">
        <ele>673.79998779297</ele>
        <time>2020-05-27T13:35:49.000Z</time>
      </trkpt>
      <trkpt lat="43.95823" lon="7.14219">
        <ele>672.79998779297</ele>
        <time>2020-05-27T13:35:51.000Z</time>
      </trkpt>
      <trkpt lat="43.95817" lon="7.14222">
        <ele>672</ele>
        <time>2020-05-27T13:35:52.000Z</time>
      </trkpt>
      <trkpt lat="43.95811" lon="7.14224">
        <ele>671.59997558594</ele>
        <time>2020-05-27T13:35:53.000Z</time>
      </trkpt>
      <trkpt lat="43.95799" lon="7.1422">
        <ele>671.40002441406</ele>
        <time>2020-05-27T13:35:56.000Z</time>
      </trkpt>
      <trkpt lat="43.95795" lon="7.14219">
        <ele>671.59997558594</ele>
        <time>2020-05-27T13:35:57.000Z</time>
      </trkpt>
      <trkpt lat="43.9579" lon="7.14225">
        <ele>671.79998779297</ele>
        <time>2020-05-27T13:35:59.000Z</time>
      </trkpt>
      <trkpt lat="43.95788" lon="7.14234">
        <ele>671.79998779297</ele>
        <time>2020-05-27T13:36:01.000Z</time>
      </trkpt>
      <trkpt lat="43.95781" lon="7.14241">
        <ele>671.20001220703</ele>
        <time>2020-05-27T13:36:03.000Z</time>
      </trkpt>
      <trkpt lat="43.95774" lon="7.14251">
        <ele>670</ele>
        <time>2020-05-27T13:36:05.000Z</time>
      </trkpt>
      <trkpt lat="43.95762" lon="7.14263">
        <ele>667.79998779297</ele>
        <time>2020-05-27T13:36:07.000Z</time>
      </trkpt>
      <trkpt lat="43.95755" lon="7.14268">
        <ele>666.40002441406</ele>
        <time>2020-05-27T13:36:08.000Z</time>
      </trkpt>
      <trkpt lat="43.95749" lon="7.14273">
        <ele>664.59997558594</ele>
        <time>2020-05-27T13:36:09.000Z</time>
      </trkpt>
      <trkpt lat="43.95737" lon="7.14283">
        <ele>662.40002441406</ele>
        <time>2020-05-27T13:36:11.000Z</time>
      </trkpt>
      <trkpt lat="43.95731" lon="7.14288">
        <ele>661.40002441406</ele>
        <time>2020-05-27T13:36:12.000Z</time>
      </trkpt>
      <trkpt lat="43.95727" lon="7.14292">
        <ele>660.20001220703</ele>
        <time>2020-05-27T13:36:13.000Z</time>
      </trkpt>
      <trkpt lat="43.95723" lon="7.14296">
        <ele>659.79998779297</ele>
        <time>2020-05-27T13:36:14.000Z</time>
      </trkpt>
      <trkpt lat="43.95719" lon="7.14298">
        <ele>658.40002441406</ele>
        <time>2020-05-27T13:36:15.000Z</time>
      </trkpt>
      <trkpt lat="43.95714" lon="7.14297">
        <ele>657.40002441406</ele>
        <time>2020-05-27T13:36:16.000Z</time>
      </trkpt>
      <trkpt lat="43.9571" lon="7.14297">
        <ele>656</ele>
        <time>2020-05-27T13:36:17.000Z</time>
      </trkpt>
      <trkpt lat="43.95707" lon="7.14299">
        <ele>654.79998779297</ele>
        <time>2020-05-27T13:36:18.000Z</time>
      </trkpt>
      <trkpt lat="43.95704" lon="7.14302">
        <ele>653.59997558594</ele>
        <time>2020-05-27T13:36:19.000Z</time>
      </trkpt>
      <trkpt lat="43.95701" lon="7.14306">
        <ele>652.40002441406</ele>
        <time>2020-05-27T13:36:20.000Z</time>
      </trkpt>
      <trkpt lat="43.95698" lon="7.1431">
        <ele>651.20001220703</ele>
        <time>2020-05-27T13:36:21.000Z</time>
      </trkpt>
      <trkpt lat="43.95695" lon="7.14314">
        <ele>650.59997558594</ele>
        <time>2020-05-27T13:36:22.000Z</time>
      </trkpt>
      <trkpt lat="43.95691" lon="7.14317">
        <ele>650</ele>
        <time>2020-05-27T13:36:23.000Z</time>
      </trkpt>
      <trkpt lat="43.9568" lon="7.14322">
        <ele>648.59997558594</ele>
        <time>2020-05-27T13:36:25.000Z</time>
      </trkpt>
      <trkpt lat="43.95674" lon="7.14322">
        <ele>647.59997558594</ele>
        <time>2020-05-27T13:36:26.000Z</time>
      </trkpt>
      <trkpt lat="43.95667" lon="7.14321">
        <ele>646.59997558594</ele>
        <time>2020-05-27T13:36:27.000Z</time>
      </trkpt>
      <trkpt lat="43.95661" lon="7.1432">
        <ele>645</ele>
        <time>2020-05-27T13:36:28.000Z</time>
      </trkpt>
      <trkpt lat="43.95652" lon="7.14321">
        <ele>643.40002441406</ele>
        <time>2020-05-27T13:36:30.000Z</time>
      </trkpt>
      <trkpt lat="43.95648" lon="7.14322">
        <ele>642.79998779297</ele>
        <time>2020-05-27T13:36:31.000Z</time>
      </trkpt>
      <trkpt lat="43.95645" lon="7.14323">
        <ele>641.59997558594</ele>
        <time>2020-05-27T13:36:32.000Z</time>
      </trkpt>
      <trkpt lat="43.95642" lon="7.14324">
        <ele>640.20001220703</ele>
        <time>2020-05-27T13:36:33.000Z</time>
      </trkpt>
      <trkpt lat="43.95639" lon="7.14326">
        <ele>638.79998779297</ele>
        <time>2020-05-27T13:36:34.000Z</time>
      </trkpt>
      <trkpt lat="43.95632" lon="7.14329">
        <ele>636.79998779297</ele>
        <time>2020-05-27T13:36:36.000Z</time>
      </trkpt>
      <trkpt lat="43.95628" lon="7.14329">
        <ele>635.59997558594</ele>
        <time>2020-05-27T13:36:37.000Z</time>
      </trkpt>
      <trkpt lat="43.95624" lon="7.14328">
        <ele>634.20001220703</ele>
        <time>2020-05-27T13:36:38.000Z</time>
      </trkpt>
      <trkpt lat="43.95617" lon="7.14328">
        <ele>632.20001220703</ele>
        <time>2020-05-27T13:36:40.000Z</time>
      </trkpt>
      <trkpt lat="43.95612" lon="7.14328">
        <ele>630.20001220703</ele>
        <time>2020-05-27T13:36:41.000Z</time>
      </trkpt>
      <trkpt lat="43.95608" lon="7.14327">
        <ele>629</ele>
        <time>2020-05-27T13:36:42.000Z</time>
      </trkpt>
      <trkpt lat="43.95599" lon="7.14327">
        <ele>627</ele>
        <time>2020-05-27T13:36:44.000Z</time>
      </trkpt>
      <trkpt lat="43.95596" lon="7.14327">
        <ele>626.40002441406</ele>
        <time>2020-05-27T13:36:45.000Z</time>
      </trkpt>
      <trkpt lat="43.95592" lon="7.14328">
        <ele>625.59997558594</ele>
        <time>2020-05-27T13:36:46.000Z</time>
      </trkpt>
      <trkpt lat="43.95587" lon="7.14329">
        <ele>625.20001220703</ele>
        <time>2020-05-27T13:36:47.000Z</time>
      </trkpt>
      <trkpt lat="43.95576" lon="7.14332">
        <ele>624</ele>
        <time>2020-05-27T13:36:49.000Z</time>
      </trkpt>
      <trkpt lat="43.95571" lon="7.14333">
        <ele>622.79998779297</ele>
        <time>2020-05-27T13:36:50.000Z</time>
      </trkpt>
      <trkpt lat="43.95561" lon="7.14334">
        <ele>621</ele>
        <time>2020-05-27T13:36:52.000Z</time>
      </trkpt>
      <trkpt lat="43.95549" lon="7.1434">
        <ele>620</ele>
        <time>2020-05-27T13:36:54.000Z</time>
      </trkpt>
      <trkpt lat="43.95539" lon="7.14349">
        <ele>618.59997558594</ele>
        <time>2020-05-27T13:36:56.000Z</time>
      </trkpt>
      <trkpt lat="43.95534" lon="7.14353">
        <ele>618.40002441406</ele>
        <time>2020-05-27T13:36:57.000Z</time>
      </trkpt>
      <trkpt lat="43.95522" lon="7.14359">
        <ele>617.79998779297</ele>
        <time>2020-05-27T13:36:59.000Z</time>
      </trkpt>
      <trkpt lat="43.95517" lon="7.1436">
        <ele>617.40002441406</ele>
        <time>2020-05-27T13:37:00.000Z</time>
      </trkpt>
      <trkpt lat="43.95494" lon="7.14368">
        <ele>615.79998779297</ele>
        <time>2020-05-27T13:37:04.000Z</time>
      </trkpt>
      <trkpt lat="43.95487" lon="7.1438">
        <ele>614.40002441406</ele>
        <time>2020-05-27T13:37:06.000Z</time>
      </trkpt>
      <trkpt lat="43.95478" lon="7.14389">
        <ele>613</ele>
        <time>2020-05-27T13:37:08.000Z</time>
      </trkpt>
      <trkpt lat="43.95472" lon="7.14392">
        <ele>610.79998779297</ele>
        <time>2020-05-27T13:37:09.000Z</time>
      </trkpt>
      <trkpt lat="43.95467" lon="7.14395">
        <ele>610.20001220703</ele>
        <time>2020-05-27T13:37:10.000Z</time>
      </trkpt>
      <trkpt lat="43.95464" lon="7.14393">
        <ele>609</ele>
        <time>2020-05-27T13:37:11.000Z</time>
      </trkpt>
      <trkpt lat="43.95461" lon="7.14392">
        <ele>607.59997558594</ele>
        <time>2020-05-27T13:37:12.000Z</time>
      </trkpt>
      <trkpt lat="43.95459" lon="7.14391">
        <ele>606.40002441406</ele>
        <time>2020-05-27T13:37:13.000Z</time>
      </trkpt>
      <trkpt lat="43.95459" lon="7.14389">
        <ele>606</ele>
        <time>2020-05-27T13:37:15.000Z</time>
      </trkpt>
      <trkpt lat="43.9546" lon="7.14388">
        <ele>606</ele>
        <time>2020-05-27T13:37:20.000Z</time>
      </trkpt>
      <trkpt lat="43.9546" lon="7.14388">
        <ele>605.79998779297</ele>
        <time>2020-05-27T13:37:26.000Z</time>
      </trkpt>
      <trkpt lat="43.9546" lon="7.14389">
        <ele>605.79998779297</ele>
        <time>2020-05-27T13:37:39.000Z</time>
      </trkpt>
      <trkpt lat="43.95461" lon="7.14389">
        <ele>605.20001220703</ele>
        <time>2020-05-27T13:37:49.000Z</time>
      </trkpt>
      <trkpt lat="43.95461" lon="7.14389">
        <ele>605</ele>
        <time>2020-05-27T13:37:50.000Z</time>
      </trkpt>
      <trkpt lat="43.95461" lon="7.14392">
        <ele>604.59997558594</ele>
        <time>2020-05-27T13:38:02.000Z</time>
      </trkpt>
      <trkpt lat="43.95461" lon="7.14393">
        <ele>604.79998779297</ele>
        <time>2020-05-27T13:38:15.000Z</time>
      </trkpt>
      <trkpt lat="43.95461" lon="7.14395">
        <ele>604.79998779297</ele>
        <time>2020-05-27T13:38:31.000Z</time>
      </trkpt>
      <trkpt lat="43.95461" lon="7.14395">
        <ele>604.59997558594</ele>
        <time>2020-05-27T13:38:50.000Z</time>
      </trkpt>
      <trkpt lat="43.95462" lon="7.14395">
        <ele>604.59997558594</ele>
        <time>2020-05-27T13:39:08.000Z</time>
      </trkpt>
      <trkpt lat="43.95462" lon="7.14395">
        <ele>604.40002441406</ele>
        <time>2020-05-27T13:39:23.000Z</time>
      </trkpt>
      <trkpt lat="43.95462" lon="7.14394">
        <ele>605.40002441406</ele>
        <time>2020-05-27T13:39:32.000Z</time>
      </trkpt>
      <trkpt lat="43.95462" lon="7.14393">
        <ele>605.40002441406</ele>
        <time>2020-05-27T13:39:44.000Z</time>
      </trkpt>
      <trkpt lat="43.95462" lon="7.14392">
        <ele>605.20001220703</ele>
        <time>2020-05-27T13:39:54.000Z</time>
      </trkpt>
      <trkpt lat="43.95462" lon="7.14392">
        <ele>605.20001220703</ele>
        <time>2020-05-27T13:40:02.000Z</time>
      </trkpt>
      <trkpt lat="43.95462" lon="7.14392">
        <ele>605.40002441406</ele>
        <time>2020-05-27T13:40:14.000Z</time>
      </trkpt>
      <trkpt lat="43.95462" lon="7.14392">
        <ele>605.40002441406</ele>
        <time>2020-05-27T13:40:21.000Z</time>
      </trkpt>
      <trkpt lat="43.95462" lon="7.14392">
        <ele>605.59997558594</ele>
        <time>2020-05-27T13:40:33.000Z</time>
      </trkpt>
      <trkpt lat="43.95463" lon="7.14392">
        <ele>604.79998779297</ele>
        <time>2020-05-27T13:40:44.000Z</time>
      </trkpt>
      <trkpt lat="43.95462" lon="7.14391">
        <ele>605.20001220703</ele>
        <time>2020-05-27T13:41:00.000Z</time>
      </trkpt>
      <trkpt lat="43.95461" lon="7.14391">
        <ele>605</ele>
        <time>2020-05-27T13:41:16.000Z</time>
      </trkpt>
      <trkpt lat="43.95461" lon="7.14392">
        <ele>604.79998779297</ele>
        <time>2020-05-27T13:41:22.000Z</time>
      </trkpt>
      <trkpt lat="43.95458" lon="7.14393">
        <ele>604.79998779297</ele>
        <time>2020-05-27T13:41:26.000Z</time>
      </trkpt>
      <trkpt lat="43.95456" lon="7.14396">
        <ele>604.79998779297</ele>
        <time>2020-05-27T13:41:27.000Z</time>
      </trkpt>
      <trkpt lat="43.95443" lon="7.14405">
        <ele>604</ele>
        <time>2020-05-27T13:41:30.000Z</time>
      </trkpt>
      <trkpt lat="43.95438" lon="7.14407">
        <ele>603.20001220703</ele>
        <time>2020-05-27T13:41:31.000Z</time>
      </trkpt>
      <trkpt lat="43.95433" lon="7.14409">
        <ele>601.79998779297</ele>
        <time>2020-05-27T13:41:32.000Z</time>
      </trkpt>
      <trkpt lat="43.95429" lon="7.14413">
        <ele>600.20001220703</ele>
        <time>2020-05-27T13:41:33.000Z</time>
      </trkpt>
      <trkpt lat="43.95425" lon="7.14418">
        <ele>598.40002441406</ele>
        <time>2020-05-27T13:41:34.000Z</time>
      </trkpt>
      <trkpt lat="43.95421" lon="7.14421">
        <ele>595.59997558594</ele>
        <time>2020-05-27T13:41:35.000Z</time>
      </trkpt>
      <trkpt lat="43.95416" lon="7.14424">
        <ele>595</ele>
        <time>2020-05-27T13:41:36.000Z</time>
      </trkpt>
      <trkpt lat="43.95411" lon="7.14425">
        <ele>593</ele>
        <time>2020-05-27T13:41:37.000Z</time>
      </trkpt>
      <trkpt lat="43.95406" lon="7.14429">
        <ele>591.59997558594</ele>
        <time>2020-05-27T13:41:38.000Z</time>
      </trkpt>
      <trkpt lat="43.95402" lon="7.14435">
        <ele>590</ele>
        <time>2020-05-27T13:41:39.000Z</time>
      </trkpt>
      <trkpt lat="43.95397" lon="7.14443">
        <ele>588.40002441406</ele>
        <time>2020-05-27T13:41:40.000Z</time>
      </trkpt>
      <trkpt lat="43.95393" lon="7.14452">
        <ele>587.20001220703</ele>
        <time>2020-05-27T13:41:41.000Z</time>
      </trkpt>
      <trkpt lat="43.9539" lon="7.14461">
        <ele>585.59997558594</ele>
        <time>2020-05-27T13:41:42.000Z</time>
      </trkpt>
      <trkpt lat="43.95388" lon="7.14469">
        <ele>583.79998779297</ele>
        <time>2020-05-27T13:41:43.000Z</time>
      </trkpt>
      <trkpt lat="43.95384" lon="7.14474">
        <ele>582</ele>
        <time>2020-05-27T13:41:44.000Z</time>
      </trkpt>
      <trkpt lat="43.95378" lon="7.14477">
        <ele>580.40002441406</ele>
        <time>2020-05-27T13:41:45.000Z</time>
      </trkpt>
      <trkpt lat="43.95372" lon="7.1448">
        <ele>579.20001220703</ele>
        <time>2020-05-27T13:41:46.000Z</time>
      </trkpt>
      <trkpt lat="43.95366" lon="7.14482">
        <ele>578.20001220703</ele>
        <time>2020-05-27T13:41:47.000Z</time>
      </trkpt>
      <trkpt lat="43.9536" lon="7.14484">
        <ele>577.20001220703</ele>
        <time>2020-05-27T13:41:48.000Z</time>
      </trkpt>
      <trkpt lat="43.95353" lon="7.14485">
        <ele>576.59997558594</ele>
        <time>2020-05-27T13:41:49.000Z</time>
      </trkpt>
      <trkpt lat="43.95341" lon="7.14482">
        <ele>575.20001220703</ele>
        <time>2020-05-27T13:41:51.000Z</time>
      </trkpt>
      <trkpt lat="43.9533" lon="7.14476">
        <ele>574.20001220703</ele>
        <time>2020-05-27T13:41:53.000Z</time>
      </trkpt>
      <trkpt lat="43.95319" lon="7.1447">
        <ele>573.40002441406</ele>
        <time>2020-05-27T13:41:56.000Z</time>
      </trkpt>
      <trkpt lat="43.95304" lon="7.14469">
        <ele>573.79998779297</ele>
        <time>2020-05-27T13:42:01.000Z</time>
      </trkpt>
      <trkpt lat="43.95294" lon="7.14473">
        <ele>573</ele>
        <time>2020-05-27T13:42:04.000Z</time>
      </trkpt>
      <trkpt lat="43.9529" lon="7.14474">
        <ele>572.59997558594</ele>
        <time>2020-05-27T13:42:05.000Z</time>
      </trkpt>
      <trkpt lat="43.95276" lon="7.14478">
        <ele>572.20001220703</ele>
        <time>2020-05-27T13:42:09.000Z</time>
      </trkpt>
      <trkpt lat="43.95269" lon="7.14483">
        <ele>572</ele>
        <time>2020-05-27T13:42:11.000Z</time>
      </trkpt>
      <trkpt lat="43.9526" lon="7.14492">
        <ele>571.79998779297</ele>
        <time>2020-05-27T13:42:14.000Z</time>
      </trkpt>
      <trkpt lat="43.95259" lon="7.14495">
        <ele>571.79998779297</ele>
        <time>2020-05-27T13:42:15.000Z</time>
      </trkpt>
      <trkpt lat="43.95254" lon="7.14517">
        <ele>572</ele>
        <time>2020-05-27T13:42:21.000Z</time>
      </trkpt>
      <trkpt lat="43.95251" lon="7.14545">
        <ele>571.79998779297</ele>
        <time>2020-05-27T13:42:27.000Z</time>
      </trkpt>
      <trkpt lat="43.95249" lon="7.1455">
        <ele>571.59997558594</ele>
        <time>2020-05-27T13:42:28.000Z</time>
      </trkpt>
      <trkpt lat="43.95237" lon="7.14575">
        <ele>571</ele>
        <time>2020-05-27T13:42:33.000Z</time>
      </trkpt>
      <trkpt lat="43.95228" lon="7.14588">
        <ele>570.79998779297</ele>
        <time>2020-05-27T13:42:36.000Z</time>
      </trkpt>
      <trkpt lat="43.95226" lon="7.146">
        <ele>570.79998779297</ele>
        <time>2020-05-27T13:42:38.000Z</time>
      </trkpt>
      <trkpt lat="43.9522" lon="7.14609">
        <ele>570.59997558594</ele>
        <time>2020-05-27T13:42:40.000Z</time>
      </trkpt>
      <trkpt lat="43.95211" lon="7.14616">
        <ele>569.79998779297</ele>
        <time>2020-05-27T13:42:42.000Z</time>
      </trkpt>
      <trkpt lat="43.95203" lon="7.14622">
        <ele>569.59997558594</ele>
        <time>2020-05-27T13:42:44.000Z</time>
      </trkpt>
      <trkpt lat="43.952" lon="7.14624">
        <ele>569.40002441406</ele>
        <time>2020-05-27T13:42:45.000Z</time>
      </trkpt>
      <trkpt lat="43.95196" lon="7.14627">
        <ele>568.59997558594</ele>
        <time>2020-05-27T13:42:46.000Z</time>
      </trkpt>
      <trkpt lat="43.95192" lon="7.1463">
        <ele>568.20001220703</ele>
        <time>2020-05-27T13:42:47.000Z</time>
      </trkpt>
      <trkpt lat="43.95188" lon="7.14633">
        <ele>567</ele>
        <time>2020-05-27T13:42:48.000Z</time>
      </trkpt>
      <trkpt lat="43.95184" lon="7.14634">
        <ele>566.40002441406</ele>
        <time>2020-05-27T13:42:49.000Z</time>
      </trkpt>
      <trkpt lat="43.95181" lon="7.14636">
        <ele>565.79998779297</ele>
        <time>2020-05-27T13:42:50.000Z</time>
      </trkpt>
      <trkpt lat="43.95179" lon="7.14639">
        <ele>565.20001220703</ele>
        <time>2020-05-27T13:42:51.000Z</time>
      </trkpt>
      <trkpt lat="43.95178" lon="7.14641">
        <ele>564.79998779297</ele>
        <time>2020-05-27T13:42:52.000Z</time>
      </trkpt>
      <trkpt lat="43.95176" lon="7.14644">
        <ele>564.40002441406</ele>
        <time>2020-05-27T13:42:56.000Z</time>
      </trkpt>
      <trkpt lat="43.9517" lon="7.14649">
        <ele>564.20001220703</ele>
        <time>2020-05-27T13:43:02.000Z</time>
      </trkpt>
      <trkpt lat="43.95161" lon="7.14653">
        <ele>563.79998779297</ele>
        <time>2020-05-27T13:43:05.000Z</time>
      </trkpt>
      <trkpt lat="43.95156" lon="7.14654">
        <ele>563.79998779297</ele>
        <time>2020-05-27T13:43:06.000Z</time>
      </trkpt>
      <trkpt lat="43.9514" lon="7.14654">
        <ele>563.20001220703</ele>
        <time>2020-05-27T13:43:10.000Z</time>
      </trkpt>
      <trkpt lat="43.95129" lon="7.14658">
        <ele>562.79998779297</ele>
        <time>2020-05-27T13:43:13.000Z</time>
      </trkpt>
      <trkpt lat="43.95126" lon="7.1466">
        <ele>562.79998779297</ele>
        <time>2020-05-27T13:43:14.000Z</time>
      </trkpt>
      <trkpt lat="43.95112" lon="7.14672">
        <ele>563</ele>
        <time>2020-05-27T13:43:19.000Z</time>
      </trkpt>
      <trkpt lat="43.95092" lon="7.14676">
        <ele>562.79998779297</ele>
        <time>2020-05-27T13:43:25.000Z</time>
      </trkpt>
      <trkpt lat="43.95079" lon="7.14686">
        <ele>563</ele>
        <time>2020-05-27T13:43:29.000Z</time>
      </trkpt>
      <trkpt lat="43.95076" lon="7.14689">
        <ele>562.79998779297</ele>
        <time>2020-05-27T13:43:30.000Z</time>
      </trkpt>
      <trkpt lat="43.95072" lon="7.14692">
        <ele>562.79998779297</ele>
        <time>2020-05-27T13:43:31.000Z</time>
      </trkpt>
      <trkpt lat="43.95064" lon="7.14698">
        <ele>562.40002441406</ele>
        <time>2020-05-27T13:43:33.000Z</time>
      </trkpt>
      <trkpt lat="43.95058" lon="7.14703">
        <ele>562.40002441406</ele>
        <time>2020-05-27T13:43:35.000Z</time>
      </trkpt>
      <trkpt lat="43.95054" lon="7.14712">
        <ele>562.40002441406</ele>
        <time>2020-05-27T13:43:37.000Z</time>
      </trkpt>
      <trkpt lat="43.95048" lon="7.14721">
        <ele>562.40002441406</ele>
        <time>2020-05-27T13:43:39.000Z</time>
      </trkpt>
      <trkpt lat="43.95036" lon="7.14736">
        <ele>562.20001220703</ele>
        <time>2020-05-27T13:43:43.000Z</time>
      </trkpt>
      <trkpt lat="43.9503" lon="7.14742">
        <ele>561.59997558594</ele>
        <time>2020-05-27T13:43:45.000Z</time>
      </trkpt>
      <trkpt lat="43.95024" lon="7.14752">
        <ele>561.40002441406</ele>
        <time>2020-05-27T13:43:47.000Z</time>
      </trkpt>
      <trkpt lat="43.9502" lon="7.14758">
        <ele>561.20001220703</ele>
        <time>2020-05-27T13:43:48.000Z</time>
      </trkpt>
      <trkpt lat="43.95013" lon="7.14769">
        <ele>560.20001220703</ele>
        <time>2020-05-27T13:43:50.000Z</time>
      </trkpt>
      <trkpt lat="43.95005" lon="7.14778">
        <ele>559</ele>
        <time>2020-05-27T13:43:52.000Z</time>
      </trkpt>
      <trkpt lat="43.95001" lon="7.14781">
        <ele>558.20001220703</ele>
        <time>2020-05-27T13:43:53.000Z</time>
      </trkpt>
      <trkpt lat="43.94997" lon="7.14784">
        <ele>557.59997558594</ele>
        <time>2020-05-27T13:43:54.000Z</time>
      </trkpt>
      <trkpt lat="43.94983" lon="7.14791">
        <ele>556.20001220703</ele>
        <time>2020-05-27T13:43:57.000Z</time>
      </trkpt>
      <trkpt lat="43.94978" lon="7.14793">
        <ele>555.59997558594</ele>
        <time>2020-05-27T13:43:58.000Z</time>
      </trkpt>
      <trkpt lat="43.94973" lon="7.14796">
        <ele>555</ele>
        <time>2020-05-27T13:43:59.000Z</time>
      </trkpt>
      <trkpt lat="43.94961" lon="7.14804">
        <ele>553.59997558594</ele>
        <time>2020-05-27T13:44:02.000Z</time>
      </trkpt>
      <trkpt lat="43.94953" lon="7.14811">
        <ele>553</ele>
        <time>2020-05-27T13:44:04.000Z</time>
      </trkpt>
      <trkpt lat="43.94949" lon="7.14816">
        <ele>552.59997558594</ele>
        <time>2020-05-27T13:44:05.000Z</time>
      </trkpt>
      <trkpt lat="43.94932" lon="7.14832">
        <ele>551</ele>
        <time>2020-05-27T13:44:08.000Z</time>
      </trkpt>
      <trkpt lat="43.94922" lon="7.14841">
        <ele>549.79998779297</ele>
        <time>2020-05-27T13:44:10.000Z</time>
      </trkpt>
      <trkpt lat="43.94913" lon="7.1485">
        <ele>548.79998779297</ele>
        <time>2020-05-27T13:44:12.000Z</time>
      </trkpt>
      <trkpt lat="43.9491" lon="7.14853">
        <ele>548.20001220703</ele>
        <time>2020-05-27T13:44:13.000Z</time>
      </trkpt>
      <trkpt lat="43.94907" lon="7.14857">
        <ele>548</ele>
        <time>2020-05-27T13:44:14.000Z</time>
      </trkpt>
      <trkpt lat="43.94904" lon="7.14861">
        <ele>547.59997558594</ele>
        <time>2020-05-27T13:44:15.000Z</time>
      </trkpt>
      <trkpt lat="43.949" lon="7.14873">
        <ele>547.20001220703</ele>
        <time>2020-05-27T13:44:17.000Z</time>
      </trkpt>
      <trkpt lat="43.94889" lon="7.14903">
        <ele>546.79998779297</ele>
        <time>2020-05-27T13:44:22.000Z</time>
      </trkpt>
      <trkpt lat="43.94888" lon="7.1491">
        <ele>546.59997558594</ele>
        <time>2020-05-27T13:44:23.000Z</time>
      </trkpt>
      <trkpt lat="43.94887" lon="7.14916">
        <ele>546.59997558594</ele>
        <time>2020-05-27T13:44:24.000Z</time>
      </trkpt>
      <trkpt lat="43.94884" lon="7.14929">
        <ele>546.40002441406</ele>
        <time>2020-05-27T13:44:26.000Z</time>
      </trkpt>
      <trkpt lat="43.94877" lon="7.14952">
        <ele>546.40002441406</ele>
        <time>2020-05-27T13:44:30.000Z</time>
      </trkpt>
      <trkpt lat="43.94869" lon="7.14973">
        <ele>546</ele>
        <time>2020-05-27T13:44:34.000Z</time>
      </trkpt>
      <trkpt lat="43.94867" lon="7.1498">
        <ele>545.79998779297</ele>
        <time>2020-05-27T13:44:35.000Z</time>
      </trkpt>
      <trkpt lat="43.94861" lon="7.14995">
        <ele>545.59997558594</ele>
        <time>2020-05-27T13:44:37.000Z</time>
      </trkpt>
      <trkpt lat="43.94849" lon="7.15012">
        <ele>544.40002441406</ele>
        <time>2020-05-27T13:44:40.000Z</time>
      </trkpt>
      <trkpt lat="43.9484" lon="7.15023">
        <ele>543</ele>
        <time>2020-05-27T13:44:42.000Z</time>
      </trkpt>
      <trkpt lat="43.94836" lon="7.15028">
        <ele>542.20001220703</ele>
        <time>2020-05-27T13:44:43.000Z</time>
      </trkpt>
      <trkpt lat="43.94832" lon="7.15031">
        <ele>541.59997558594</ele>
        <time>2020-05-27T13:44:44.000Z</time>
      </trkpt>
      <trkpt lat="43.94825" lon="7.15034">
        <ele>540.40002441406</ele>
        <time>2020-05-27T13:44:46.000Z</time>
      </trkpt>
      <trkpt lat="43.94818" lon="7.15033">
        <ele>539.40002441406</ele>
        <time>2020-05-27T13:44:48.000Z</time>
      </trkpt>
      <trkpt lat="43.94814" lon="7.15032">
        <ele>539</ele>
        <time>2020-05-27T13:44:49.000Z</time>
      </trkpt>
      <trkpt lat="43.94806" lon="7.1503">
        <ele>537.79998779297</ele>
        <time>2020-05-27T13:44:51.000Z</time>
      </trkpt>
      <trkpt lat="43.94797" lon="7.15031">
        <ele>536.40002441406</ele>
        <time>2020-05-27T13:44:53.000Z</time>
      </trkpt>
      <trkpt lat="43.94788" lon="7.15035">
        <ele>534.79998779297</ele>
        <time>2020-05-27T13:44:55.000Z</time>
      </trkpt>
      <trkpt lat="43.9478" lon="7.15043">
        <ele>533</ele>
        <time>2020-05-27T13:44:57.000Z</time>
      </trkpt>
      <trkpt lat="43.94774" lon="7.15055">
        <ele>531.59997558594</ele>
        <time>2020-05-27T13:44:59.000Z</time>
      </trkpt>
      <trkpt lat="43.94771" lon="7.15066">
        <ele>530.40002441406</ele>
        <time>2020-05-27T13:45:01.000Z</time>
      </trkpt>
      <trkpt lat="43.94765" lon="7.15073">
        <ele>529.40002441406</ele>
        <time>2020-05-27T13:45:03.000Z</time>
      </trkpt>
      <trkpt lat="43.94758" lon="7.15081">
        <ele>528.79998779297</ele>
        <time>2020-05-27T13:45:05.000Z</time>
      </trkpt>
      <trkpt lat="43.94753" lon="7.15086">
        <ele>528.40002441406</ele>
        <time>2020-05-27T13:45:06.000Z</time>
      </trkpt>
      <trkpt lat="43.94749" lon="7.15091">
        <ele>528.20001220703</ele>
        <time>2020-05-27T13:45:07.000Z</time>
      </trkpt>
      <trkpt lat="43.94744" lon="7.15095">
        <ele>527.79998779297</ele>
        <time>2020-05-27T13:45:08.000Z</time>
      </trkpt>
      <trkpt lat="43.94734" lon="7.151">
        <ele>527</ele>
        <time>2020-05-27T13:45:10.000Z</time>
      </trkpt>
      <trkpt lat="43.94723" lon="7.15101">
        <ele>526.59997558594</ele>
        <time>2020-05-27T13:45:12.000Z</time>
      </trkpt>
      <trkpt lat="43.94718" lon="7.15102">
        <ele>526.40002441406</ele>
        <time>2020-05-27T13:45:13.000Z</time>
      </trkpt>
      <trkpt lat="43.94714" lon="7.15104">
        <ele>526.20001220703</ele>
        <time>2020-05-27T13:45:14.000Z</time>
      </trkpt>
      <trkpt lat="43.94706" lon="7.15109">
        <ele>525.79998779297</ele>
        <time>2020-05-27T13:45:16.000Z</time>
      </trkpt>
      <trkpt lat="43.94694" lon="7.15117">
        <ele>524.79998779297</ele>
        <time>2020-05-27T13:45:19.000Z</time>
      </trkpt>
      <trkpt lat="43.94691" lon="7.15118">
        <ele>524.40002441406</ele>
        <time>2020-05-27T13:45:20.000Z</time>
      </trkpt>
      <trkpt lat="43.94679" lon="7.15126">
        <ele>524</ele>
        <time>2020-05-27T13:45:25.000Z</time>
      </trkpt>
      <trkpt lat="43.94673" lon="7.15133">
        <ele>524.59997558594</ele>
        <time>2020-05-27T13:45:31.000Z</time>
      </trkpt>
      <trkpt lat="43.94672" lon="7.15132">
        <ele>525</ele>
        <time>2020-05-27T13:45:37.000Z</time>
      </trkpt>
      <trkpt lat="43.94671" lon="7.15132">
        <ele>525</ele>
        <time>2020-05-27T13:45:39.000Z</time>
      </trkpt>
      <trkpt lat="43.94672" lon="7.15132">
        <ele>524.79998779297</ele>
        <time>2020-05-27T13:45:54.000Z</time>
      </trkpt>
      <trkpt lat="43.94671" lon="7.15132">
        <ele>524.79998779297</ele>
        <time>2020-05-27T13:46:10.000Z</time>
      </trkpt>
      <trkpt lat="43.9467" lon="7.15132">
        <ele>524.79998779297</ele>
        <time>2020-05-27T13:46:24.000Z</time>
      </trkpt>
      <trkpt lat="43.9467" lon="7.15132">
        <ele>524.79998779297</ele>
        <time>2020-05-27T13:46:46.000Z</time>
      </trkpt>
      <trkpt lat="43.94671" lon="7.15132">
        <ele>524.79998779297</ele>
        <time>2020-05-27T13:47:09.000Z</time>
      </trkpt>
      <trkpt lat="43.94671" lon="7.15132">
        <ele>524.79998779297</ele>
        <time>2020-05-27T13:47:23.000Z</time>
      </trkpt>
      <trkpt lat="43.94673" lon="7.15135">
        <ele>524.79998779297</ele>
        <time>2020-05-27T13:47:36.000Z</time>
      </trkpt>
      <trkpt lat="43.94681" lon="7.1515">
        <ele>524.79998779297</ele>
        <time>2020-05-27T13:47:43.000Z</time>
      </trkpt>
      <trkpt lat="43.94692" lon="7.15161">
        <ele>525</ele>
        <time>2020-05-27T13:47:49.000Z</time>
      </trkpt>
      <trkpt lat="43.94707" lon="7.15171">
        <ele>524.59997558594</ele>
        <time>2020-05-27T13:47:55.000Z</time>
      </trkpt>
      <trkpt lat="43.94723" lon="7.15164">
        <ele>524.40002441406</ele>
        <time>2020-05-27T13:47:59.000Z</time>
      </trkpt>
      <trkpt lat="43.94737" lon="7.15156">
        <ele>523.59997558594</ele>
        <time>2020-05-27T13:48:02.000Z</time>
      </trkpt>
      <trkpt lat="43.94756" lon="7.15144">
        <ele>522.59997558594</ele>
        <time>2020-05-27T13:48:06.000Z</time>
      </trkpt>
      <trkpt lat="43.9476" lon="7.1514">
        <ele>522.20001220703</ele>
        <time>2020-05-27T13:48:07.000Z</time>
      </trkpt>
      <trkpt lat="43.94772" lon="7.15123">
        <ele>521.59997558594</ele>
        <time>2020-05-27T13:48:10.000Z</time>
      </trkpt>
      <trkpt lat="43.94776" lon="7.15117">
        <ele>521.20001220703</ele>
        <time>2020-05-27T13:48:11.000Z</time>
      </trkpt>
      <trkpt lat="43.94783" lon="7.15106">
        <ele>520.40002441406</ele>
        <time>2020-05-27T13:48:13.000Z</time>
      </trkpt>
      <trkpt lat="43.9479" lon="7.15097">
        <ele>520</ele>
        <time>2020-05-27T13:48:15.000Z</time>
      </trkpt>
      <trkpt lat="43.94805" lon="7.15084">
        <ele>519</ele>
        <time>2020-05-27T13:48:19.000Z</time>
      </trkpt>
      <trkpt lat="43.94809" lon="7.15082">
        <ele>518.79998779297</ele>
        <time>2020-05-27T13:48:20.000Z</time>
      </trkpt>
      <trkpt lat="43.94835" lon="7.15075">
        <ele>518</ele>
        <time>2020-05-27T13:48:26.000Z</time>
      </trkpt>
      <trkpt lat="43.94838" lon="7.15075">
        <ele>517.79998779297</ele>
        <time>2020-05-27T13:48:27.000Z</time>
      </trkpt>
      <trkpt lat="43.94844" lon="7.15076">
        <ele>517</ele>
        <time>2020-05-27T13:48:30.000Z</time>
      </trkpt>
      <trkpt lat="43.94852" lon="7.15078">
        <ele>516.79998779297</ele>
        <time>2020-05-27T13:48:34.000Z</time>
      </trkpt>
      <trkpt lat="43.94853" lon="7.15078">
        <ele>516.40002441406</ele>
        <time>2020-05-27T13:48:36.000Z</time>
      </trkpt>
      <trkpt lat="43.94855" lon="7.1508">
        <ele>516</ele>
        <time>2020-05-27T13:48:44.000Z</time>
      </trkpt>
      <trkpt lat="43.94855" lon="7.1508">
        <ele>515.59997558594</ele>
        <time>2020-05-27T13:48:49.000Z</time>
      </trkpt>
      <trkpt lat="43.94856" lon="7.1508">
        <ele>515.59997558594</ele>
        <time>2020-05-27T13:48:53.000Z</time>
      </trkpt>
      <trkpt lat="43.9486" lon="7.1508">
        <ele>515.40002441406</ele>
        <time>2020-05-27T13:49:00.000Z</time>
      </trkpt>
      <trkpt lat="43.94866" lon="7.15083">
        <ele>514.59997558594</ele>
        <time>2020-05-27T13:49:04.000Z</time>
      </trkpt>
      <trkpt lat="43.94868" lon="7.15083">
        <ele>514.40002441406</ele>
        <time>2020-05-27T13:49:05.000Z</time>
      </trkpt>
      <trkpt lat="43.94876" lon="7.15083">
        <ele>513.40002441406</ele>
        <time>2020-05-27T13:49:07.000Z</time>
      </trkpt>
      <trkpt lat="43.9488" lon="7.15083">
        <ele>512.40002441406</ele>
        <time>2020-05-27T13:49:08.000Z</time>
      </trkpt>
      <trkpt lat="43.94885" lon="7.15082">
        <ele>511.20001220703</ele>
        <time>2020-05-27T13:49:09.000Z</time>
      </trkpt>
      <trkpt lat="43.94889" lon="7.15081">
        <ele>510</ele>
        <time>2020-05-27T13:49:10.000Z</time>
      </trkpt>
      <trkpt lat="43.94895" lon="7.1508">
        <ele>508.39999389648</ele>
        <time>2020-05-27T13:49:11.000Z</time>
      </trkpt>
      <trkpt lat="43.94901" lon="7.15079">
        <ele>507.20001220703</ele>
        <time>2020-05-27T13:49:12.000Z</time>
      </trkpt>
      <trkpt lat="43.94905" lon="7.15076">
        <ele>506</ele>
        <time>2020-05-27T13:49:13.000Z</time>
      </trkpt>
      <trkpt lat="43.94908" lon="7.15071">
        <ele>504.79998779297</ele>
        <time>2020-05-27T13:49:14.000Z</time>
      </trkpt>
      <trkpt lat="43.94911" lon="7.15066">
        <ele>503.79998779297</ele>
        <time>2020-05-27T13:49:15.000Z</time>
      </trkpt>
      <trkpt lat="43.94913" lon="7.1506">
        <ele>502.79998779297</ele>
        <time>2020-05-27T13:49:16.000Z</time>
      </trkpt>
      <trkpt lat="43.94915" lon="7.15052">
        <ele>502.20001220703</ele>
        <time>2020-05-27T13:49:17.000Z</time>
      </trkpt>
      <trkpt lat="43.94917" lon="7.15047">
        <ele>501.39999389648</ele>
        <time>2020-05-27T13:49:18.000Z</time>
      </trkpt>
      <trkpt lat="43.9492" lon="7.15043">
        <ele>501</ele>
        <time>2020-05-27T13:49:19.000Z</time>
      </trkpt>
      <trkpt lat="43.94924" lon="7.15041">
        <ele>500.60000610352</ele>
        <time>2020-05-27T13:49:20.000Z</time>
      </trkpt>
      <trkpt lat="43.94931" lon="7.1504">
        <ele>499.60000610352</ele>
        <time>2020-05-27T13:49:22.000Z</time>
      </trkpt>
      <trkpt lat="43.94934" lon="7.15041">
        <ele>499.20001220703</ele>
        <time>2020-05-27T13:49:23.000Z</time>
      </trkpt>
      <trkpt lat="43.94935" lon="7.15042">
        <ele>498.60000610352</ele>
        <time>2020-05-27T13:49:24.000Z</time>
      </trkpt>
      <trkpt lat="43.94936" lon="7.15043">
        <ele>498.39999389648</ele>
        <time>2020-05-27T13:49:25.000Z</time>
      </trkpt>
      <trkpt lat="43.94939" lon="7.15044">
        <ele>497.79998779297</ele>
        <time>2020-05-27T13:49:27.000Z</time>
      </trkpt>
      <trkpt lat="43.94948" lon="7.15053">
        <ele>497.20001220703</ele>
        <time>2020-05-27T13:49:30.000Z</time>
      </trkpt>
      <trkpt lat="43.94955" lon="7.1506">
        <ele>496.20001220703</ele>
        <time>2020-05-27T13:49:32.000Z</time>
      </trkpt>
      <trkpt lat="43.94959" lon="7.15064">
        <ele>495.39999389648</ele>
        <time>2020-05-27T13:49:33.000Z</time>
      </trkpt>
      <trkpt lat="43.94969" lon="7.15067">
        <ele>493.79998779297</ele>
        <time>2020-05-27T13:49:35.000Z</time>
      </trkpt>
      <trkpt lat="43.94975" lon="7.15066">
        <ele>492.60000610352</ele>
        <time>2020-05-27T13:49:36.000Z</time>
      </trkpt>
      <trkpt lat="43.94987" lon="7.1506">
        <ele>490.60000610352</ele>
        <time>2020-05-27T13:49:38.000Z</time>
      </trkpt>
      <trkpt lat="43.94993" lon="7.15057">
        <ele>489.39999389648</ele>
        <time>2020-05-27T13:49:39.000Z</time>
      </trkpt>
      <trkpt lat="43.94998" lon="7.15055">
        <ele>488.60000610352</ele>
        <time>2020-05-27T13:49:40.000Z</time>
      </trkpt>
      <trkpt lat="43.95003" lon="7.15053">
        <ele>486.79998779297</ele>
        <time>2020-05-27T13:49:41.000Z</time>
      </trkpt>
      <trkpt lat="43.95007" lon="7.15051">
        <ele>485.79998779297</ele>
        <time>2020-05-27T13:49:42.000Z</time>
      </trkpt>
      <trkpt lat="43.95011" lon="7.1505">
        <ele>484.60000610352</ele>
        <time>2020-05-27T13:49:43.000Z</time>
      </trkpt>
      <trkpt lat="43.95015" lon="7.15047">
        <ele>483.79998779297</ele>
        <time>2020-05-27T13:49:44.000Z</time>
      </trkpt>
      <trkpt lat="43.95019" lon="7.15044">
        <ele>483</ele>
        <time>2020-05-27T13:49:45.000Z</time>
      </trkpt>
      <trkpt lat="43.9503" lon="7.15036">
        <ele>481.39999389648</ele>
        <time>2020-05-27T13:49:47.000Z</time>
      </trkpt>
      <trkpt lat="43.95036" lon="7.15035">
        <ele>480.60000610352</ele>
        <time>2020-05-27T13:49:48.000Z</time>
      </trkpt>
      <trkpt lat="43.95042" lon="7.15037">
        <ele>479.39999389648</ele>
        <time>2020-05-27T13:49:49.000Z</time>
      </trkpt>
      <trkpt lat="43.95048" lon="7.1504">
        <ele>478</ele>
        <time>2020-05-27T13:49:50.000Z</time>
      </trkpt>
      <trkpt lat="43.95054" lon="7.15045">
        <ele>476.79998779297</ele>
        <time>2020-05-27T13:49:51.000Z</time>
      </trkpt>
      <trkpt lat="43.95059" lon="7.15049">
        <ele>475.39999389648</ele>
        <time>2020-05-27T13:49:52.000Z</time>
      </trkpt>
      <trkpt lat="43.95064" lon="7.15053">
        <ele>474</ele>
        <time>2020-05-27T13:49:53.000Z</time>
      </trkpt>
      <trkpt lat="43.9507" lon="7.15055">
        <ele>472</ele>
        <time>2020-05-27T13:49:54.000Z</time>
      </trkpt>
      <trkpt lat="43.95075" lon="7.15056">
        <ele>470.20001220703</ele>
        <time>2020-05-27T13:49:55.000Z</time>
      </trkpt>
      <trkpt lat="43.95082" lon="7.15056">
        <ele>468.39999389648</ele>
        <time>2020-05-27T13:49:56.000Z</time>
      </trkpt>
      <trkpt lat="43.95089" lon="7.15056">
        <ele>467</ele>
        <time>2020-05-27T13:49:57.000Z</time>
      </trkpt>
      <trkpt lat="43.95095" lon="7.15056">
        <ele>465.79998779297</ele>
        <time>2020-05-27T13:49:58.000Z</time>
      </trkpt>
      <trkpt lat="43.95103" lon="7.15056">
        <ele>464.60000610352</ele>
        <time>2020-05-27T13:49:59.000Z</time>
      </trkpt>
      <trkpt lat="43.95115" lon="7.15053">
        <ele>463.20001220703</ele>
        <time>2020-05-27T13:50:01.000Z</time>
      </trkpt>
      <trkpt lat="43.95127" lon="7.15052">
        <ele>462.20001220703</ele>
        <time>2020-05-27T13:50:03.000Z</time>
      </trkpt>
      <trkpt lat="43.95136" lon="7.15055">
        <ele>461</ele>
        <time>2020-05-27T13:50:05.000Z</time>
      </trkpt>
      <trkpt lat="43.95144" lon="7.1506">
        <ele>460</ele>
        <time>2020-05-27T13:50:07.000Z</time>
      </trkpt>
      <trkpt lat="43.95149" lon="7.15063">
        <ele>458.79998779297</ele>
        <time>2020-05-27T13:50:09.000Z</time>
      </trkpt>
      <trkpt lat="43.95153" lon="7.15066">
        <ele>457.39999389648</ele>
        <time>2020-05-27T13:50:12.000Z</time>
      </trkpt>
      <trkpt lat="43.95153" lon="7.15067">
        <ele>457.39999389648</ele>
        <time>2020-05-27T13:50:13.000Z</time>
      </trkpt>
      <trkpt lat="43.95148" lon="7.15073">
        <ele>457.20001220703</ele>
        <time>2020-05-27T13:50:16.000Z</time>
      </trkpt>
      <trkpt lat="43.95143" lon="7.15074">
        <ele>456.79998779297</ele>
        <time>2020-05-27T13:50:18.000Z</time>
      </trkpt>
      <trkpt lat="43.95139" lon="7.15076">
        <ele>456.20001220703</ele>
        <time>2020-05-27T13:50:20.000Z</time>
      </trkpt>
      <trkpt lat="43.95138" lon="7.15076">
        <ele>456</ele>
        <time>2020-05-27T13:50:21.000Z</time>
      </trkpt>
      <trkpt lat="43.95138" lon="7.15078">
        <ele>455.20001220703</ele>
        <time>2020-05-27T13:50:24.000Z</time>
      </trkpt>
      <trkpt lat="43.95138" lon="7.15078">
        <ele>454.79998779297</ele>
        <time>2020-05-27T13:50:25.000Z</time>
      </trkpt>
      <trkpt lat="43.95138" lon="7.1508">
        <ele>454.60000610352</ele>
        <time>2020-05-27T13:50:33.000Z</time>
      </trkpt>
      <trkpt lat="43.95139" lon="7.1508">
        <ele>454.20001220703</ele>
        <time>2020-05-27T13:50:37.000Z</time>
      </trkpt>
      <trkpt lat="43.9514" lon="7.15082">
        <ele>453.79998779297</ele>
        <time>2020-05-27T13:50:39.000Z</time>
      </trkpt>
      <trkpt lat="43.95142" lon="7.15083">
        <ele>453.39999389648</ele>
        <time>2020-05-27T13:50:41.000Z</time>
      </trkpt>
      <trkpt lat="43.95145" lon="7.15084">
        <ele>453.20001220703</ele>
        <time>2020-05-27T13:50:42.000Z</time>
      </trkpt>
      <trkpt lat="43.95148" lon="7.15084">
        <ele>452.79998779297</ele>
        <time>2020-05-27T13:50:43.000Z</time>
      </trkpt>
      <trkpt lat="43.95155" lon="7.15083">
        <ele>451.60000610352</ele>
        <time>2020-05-27T13:50:46.000Z</time>
      </trkpt>
      <trkpt lat="43.95158" lon="7.15083">
        <ele>450.79998779297</ele>
        <time>2020-05-27T13:50:47.000Z</time>
      </trkpt>
      <trkpt lat="43.95157" lon="7.15088">
        <ele>450.20001220703</ele>
        <time>2020-05-27T13:50:49.000Z</time>
      </trkpt>
      <trkpt lat="43.95155" lon="7.1509">
        <ele>450</ele>
        <time>2020-05-27T13:50:50.000Z</time>
      </trkpt>
      <trkpt lat="43.95156" lon="7.15095">
        <ele>449.39999389648</ele>
        <time>2020-05-27T13:50:53.000Z</time>
      </trkpt>
      <trkpt lat="43.95159" lon="7.15096">
        <ele>448.79998779297</ele>
        <time>2020-05-27T13:50:54.000Z</time>
      </trkpt>
      <trkpt lat="43.95163" lon="7.15097">
        <ele>448.20001220703</ele>
        <time>2020-05-27T13:50:55.000Z</time>
      </trkpt>
      <trkpt lat="43.95166" lon="7.15099">
        <ele>447.79998779297</ele>
        <time>2020-05-27T13:50:56.000Z</time>
      </trkpt>
      <trkpt lat="43.95169" lon="7.15099">
        <ele>447</ele>
        <time>2020-05-27T13:50:57.000Z</time>
      </trkpt>
      <trkpt lat="43.95171" lon="7.15099">
        <ele>446.39999389648</ele>
        <time>2020-05-27T13:50:58.000Z</time>
      </trkpt>
      <trkpt lat="43.95172" lon="7.15097">
        <ele>445.20001220703</ele>
        <time>2020-05-27T13:51:01.000Z</time>
      </trkpt>
      <trkpt lat="43.95175" lon="7.15097">
        <ele>444.60000610352</ele>
        <time>2020-05-27T13:51:08.000Z</time>
      </trkpt>
      <trkpt lat="43.95178" lon="7.15094">
        <ele>444</ele>
        <time>2020-05-27T13:51:12.000Z</time>
      </trkpt>
      <trkpt lat="43.95178" lon="7.15094">
        <ele>443.79998779297</ele>
        <time>2020-05-27T13:51:13.000Z</time>
      </trkpt>
      <trkpt lat="43.9518" lon="7.15093">
        <ele>443.60000610352</ele>
        <time>2020-05-27T13:51:15.000Z</time>
      </trkpt>
      <trkpt lat="43.95182" lon="7.15096">
        <ele>443.60000610352</ele>
        <time>2020-05-27T13:51:17.000Z</time>
      </trkpt>
      <trkpt lat="43.95174" lon="7.15106">
        <ele>442.79998779297</ele>
        <time>2020-05-27T13:51:21.000Z</time>
      </trkpt>
      <trkpt lat="43.95165" lon="7.15111">
        <ele>441.20001220703</ele>
        <time>2020-05-27T13:51:24.000Z</time>
      </trkpt>
      <trkpt lat="43.95163" lon="7.15114">
        <ele>440.79998779297</ele>
        <time>2020-05-27T13:51:25.000Z</time>
      </trkpt>
      <trkpt lat="43.95163" lon="7.15117">
        <ele>440</ele>
        <time>2020-05-27T13:51:26.000Z</time>
      </trkpt>
      <trkpt lat="43.95165" lon="7.15119">
        <ele>438.79998779297</ele>
        <time>2020-05-27T13:51:27.000Z</time>
      </trkpt>
      <trkpt lat="43.95167" lon="7.1512">
        <ele>438.39999389648</ele>
        <time>2020-05-27T13:51:28.000Z</time>
      </trkpt>
      <trkpt lat="43.95174" lon="7.15119">
        <ele>436.79998779297</ele>
        <time>2020-05-27T13:51:30.000Z</time>
      </trkpt>
      <trkpt lat="43.9518" lon="7.15115">
        <ele>436.20001220703</ele>
        <time>2020-05-27T13:51:32.000Z</time>
      </trkpt>
      <trkpt lat="43.95182" lon="7.15115">
        <ele>435.39999389648</ele>
        <time>2020-05-27T13:51:33.000Z</time>
      </trkpt>
      <trkpt lat="43.95184" lon="7.15117">
        <ele>435</ele>
        <time>2020-05-27T13:51:34.000Z</time>
      </trkpt>
      <trkpt lat="43.95182" lon="7.15124">
        <ele>433.60000610352</ele>
        <time>2020-05-27T13:51:36.000Z</time>
      </trkpt>
      <trkpt lat="43.9518" lon="7.15127">
        <ele>433.20001220703</ele>
        <time>2020-05-27T13:51:37.000Z</time>
      </trkpt>
      <trkpt lat="43.9518" lon="7.1513">
        <ele>432.39999389648</ele>
        <time>2020-05-27T13:51:39.000Z</time>
      </trkpt>
      <trkpt lat="43.9518" lon="7.15131">
        <ele>432</ele>
        <time>2020-05-27T13:51:40.000Z</time>
      </trkpt>
      <trkpt lat="43.9518" lon="7.15134">
        <ele>431.39999389648</ele>
        <time>2020-05-27T13:51:41.000Z</time>
      </trkpt>
      <trkpt lat="43.95178" lon="7.15137">
        <ele>431</ele>
        <time>2020-05-27T13:51:42.000Z</time>
      </trkpt>
      <trkpt lat="43.95176" lon="7.1514">
        <ele>430.39999389648</ele>
        <time>2020-05-27T13:51:43.000Z</time>
      </trkpt>
      <trkpt lat="43.95173" lon="7.15142">
        <ele>429.39999389648</ele>
        <time>2020-05-27T13:51:44.000Z</time>
      </trkpt>
      <trkpt lat="43.95166" lon="7.15144">
        <ele>428.20001220703</ele>
        <time>2020-05-27T13:51:46.000Z</time>
      </trkpt>
      <trkpt lat="43.95163" lon="7.15145">
        <ele>427.60000610352</ele>
        <time>2020-05-27T13:51:47.000Z</time>
      </trkpt>
      <trkpt lat="43.9516" lon="7.15147">
        <ele>426.79998779297</ele>
        <time>2020-05-27T13:51:48.000Z</time>
      </trkpt>
      <trkpt lat="43.95154" lon="7.1515">
        <ele>425.79998779297</ele>
        <time>2020-05-27T13:51:50.000Z</time>
      </trkpt>
      <trkpt lat="43.95149" lon="7.15151">
        <ele>425.20001220703</ele>
        <time>2020-05-27T13:51:51.000Z</time>
      </trkpt>
      <trkpt lat="43.95145" lon="7.15153">
        <ele>424.60000610352</ele>
        <time>2020-05-27T13:51:52.000Z</time>
      </trkpt>
      <trkpt lat="43.95134" lon="7.15162">
        <ele>423</ele>
        <time>2020-05-27T13:51:55.000Z</time>
      </trkpt>
      <trkpt lat="43.95132" lon="7.15167">
        <ele>422.39999389648</ele>
        <time>2020-05-27T13:51:56.000Z</time>
      </trkpt>
      <trkpt lat="43.95132" lon="7.15173">
        <ele>421.79998779297</ele>
        <time>2020-05-27T13:51:57.000Z</time>
      </trkpt>
      <trkpt lat="43.95131" lon="7.15179">
        <ele>421.20001220703</ele>
        <time>2020-05-27T13:51:58.000Z</time>
      </trkpt>
      <trkpt lat="43.95132" lon="7.15188">
        <ele>420.20001220703</ele>
        <time>2020-05-27T13:52:00.000Z</time>
      </trkpt>
      <trkpt lat="43.95131" lon="7.15195">
        <ele>419</ele>
        <time>2020-05-27T13:52:02.000Z</time>
      </trkpt>
      <trkpt lat="43.95131" lon="7.15197">
        <ele>417.79998779297</ele>
        <time>2020-05-27T13:52:03.000Z</time>
      </trkpt>
      <trkpt lat="43.95132" lon="7.15198">
        <ele>416.79998779297</ele>
        <time>2020-05-27T13:52:04.000Z</time>
      </trkpt>
      <trkpt lat="43.95133" lon="7.15198">
        <ele>416</ele>
        <time>2020-05-27T13:52:05.000Z</time>
      </trkpt>
      <trkpt lat="43.95137" lon="7.15197">
        <ele>415</ele>
        <time>2020-05-27T13:52:07.000Z</time>
      </trkpt>
      <trkpt lat="43.95137" lon="7.15202">
        <ele>413.79998779297</ele>
        <time>2020-05-27T13:52:09.000Z</time>
      </trkpt>
      <trkpt lat="43.95133" lon="7.15207">
        <ele>413</ele>
        <time>2020-05-27T13:52:11.000Z</time>
      </trkpt>
      <trkpt lat="43.95132" lon="7.15209">
        <ele>412.79998779297</ele>
        <time>2020-05-27T13:52:12.000Z</time>
      </trkpt>
      <trkpt lat="43.95132" lon="7.15211">
        <ele>412.39999389648</ele>
        <time>2020-05-27T13:52:13.000Z</time>
      </trkpt>
      <trkpt lat="43.95134" lon="7.15214">
        <ele>411.60000610352</ele>
        <time>2020-05-27T13:52:14.000Z</time>
      </trkpt>
      <trkpt lat="43.95139" lon="7.1522">
        <ele>410</ele>
        <time>2020-05-27T13:52:16.000Z</time>
      </trkpt>
      <trkpt lat="43.95145" lon="7.15222">
        <ele>408.60000610352</ele>
        <time>2020-05-27T13:52:18.000Z</time>
      </trkpt>
      <trkpt lat="43.95151" lon="7.15225">
        <ele>406.79998779297</ele>
        <time>2020-05-27T13:52:20.000Z</time>
      </trkpt>
      <trkpt lat="43.9515" lon="7.15233">
        <ele>405</ele>
        <time>2020-05-27T13:52:23.000Z</time>
      </trkpt>
      <trkpt lat="43.95147" lon="7.1524">
        <ele>403.79998779297</ele>
        <time>2020-05-27T13:52:26.000Z</time>
      </trkpt>
      <trkpt lat="43.9515" lon="7.15243">
        <ele>403</ele>
        <time>2020-05-27T13:52:27.000Z</time>
      </trkpt>
      <trkpt lat="43.95152" lon="7.15246">
        <ele>402.60000610352</ele>
        <time>2020-05-27T13:52:28.000Z</time>
      </trkpt>
      <trkpt lat="43.95158" lon="7.15254">
        <ele>401.20001220703</ele>
        <time>2020-05-27T13:52:30.000Z</time>
      </trkpt>
      <trkpt lat="43.95159" lon="7.15259">
        <ele>400.39999389648</ele>
        <time>2020-05-27T13:52:31.000Z</time>
      </trkpt>
      <trkpt lat="43.95161" lon="7.15262">
        <ele>399.79998779297</ele>
        <time>2020-05-27T13:52:32.000Z</time>
      </trkpt>
      <trkpt lat="43.95166" lon="7.15269">
        <ele>398.39999389648</ele>
        <time>2020-05-27T13:52:35.000Z</time>
      </trkpt>
      <trkpt lat="43.95172" lon="7.15274">
        <ele>397.60000610352</ele>
        <time>2020-05-27T13:52:37.000Z</time>
      </trkpt>
      <trkpt lat="43.95175" lon="7.15276">
        <ele>397.20001220703</ele>
        <time>2020-05-27T13:52:38.000Z</time>
      </trkpt>
      <trkpt lat="43.95178" lon="7.1528">
        <ele>396</ele>
        <time>2020-05-27T13:52:40.000Z</time>
      </trkpt>
      <trkpt lat="43.95179" lon="7.15283">
        <ele>394.79998779297</ele>
        <time>2020-05-27T13:52:41.000Z</time>
      </trkpt>
      <trkpt lat="43.95177" lon="7.15288">
        <ele>393.39999389648</ele>
        <time>2020-05-27T13:52:43.000Z</time>
      </trkpt>
      <trkpt lat="43.95178" lon="7.15292">
        <ele>392.20001220703</ele>
        <time>2020-05-27T13:52:45.000Z</time>
      </trkpt>
      <trkpt lat="43.95183" lon="7.15293">
        <ele>391.20001220703</ele>
        <time>2020-05-27T13:52:47.000Z</time>
      </trkpt>
      <trkpt lat="43.95187" lon="7.15293">
        <ele>390.60000610352</ele>
        <time>2020-05-27T13:52:48.000Z</time>
      </trkpt>
      <trkpt lat="43.95191" lon="7.15294">
        <ele>390.20001220703</ele>
        <time>2020-05-27T13:52:49.000Z</time>
      </trkpt>
      <trkpt lat="43.95196" lon="7.15299">
        <ele>389.20001220703</ele>
        <time>2020-05-27T13:52:51.000Z</time>
      </trkpt>
      <trkpt lat="43.952" lon="7.15307">
        <ele>387.39999389648</ele>
        <time>2020-05-27T13:52:53.000Z</time>
      </trkpt>
      <trkpt lat="43.95203" lon="7.15314">
        <ele>386.20001220703</ele>
        <time>2020-05-27T13:52:55.000Z</time>
      </trkpt>
      <trkpt lat="43.95205" lon="7.15317">
        <ele>385.79998779297</ele>
        <time>2020-05-27T13:52:56.000Z</time>
      </trkpt>
      <trkpt lat="43.95206" lon="7.15321">
        <ele>385.20001220703</ele>
        <time>2020-05-27T13:52:57.000Z</time>
      </trkpt>
      <trkpt lat="43.9521" lon="7.15328">
        <ele>384</ele>
        <time>2020-05-27T13:52:59.000Z</time>
      </trkpt>
      <trkpt lat="43.95212" lon="7.15331">
        <ele>383.20001220703</ele>
        <time>2020-05-27T13:53:00.000Z</time>
      </trkpt>
      <trkpt lat="43.95215" lon="7.15334">
        <ele>382.60000610352</ele>
        <time>2020-05-27T13:53:01.000Z</time>
      </trkpt>
      <trkpt lat="43.95218" lon="7.15339">
        <ele>381.20001220703</ele>
        <time>2020-05-27T13:53:03.000Z</time>
      </trkpt>
      <trkpt lat="43.95216" lon="7.15342">
        <ele>380.20001220703</ele>
        <time>2020-05-27T13:53:04.000Z</time>
      </trkpt>
      <trkpt lat="43.95212" lon="7.15347">
        <ele>378.39999389648</ele>
        <time>2020-05-27T13:53:06.000Z</time>
      </trkpt>
      <trkpt lat="43.95213" lon="7.15361">
        <ele>377</ele>
        <time>2020-05-27T13:53:09.000Z</time>
      </trkpt>
      <trkpt lat="43.95216" lon="7.15364">
        <ele>376.60000610352</ele>
        <time>2020-05-27T13:53:10.000Z</time>
      </trkpt>
      <trkpt lat="43.95219" lon="7.15366">
        <ele>375.79998779297</ele>
        <time>2020-05-27T13:53:11.000Z</time>
      </trkpt>
      <trkpt lat="43.95224" lon="7.15366">
        <ele>375</ele>
        <time>2020-05-27T13:53:12.000Z</time>
      </trkpt>
      <trkpt lat="43.95228" lon="7.15365">
        <ele>374</ele>
        <time>2020-05-27T13:53:13.000Z</time>
      </trkpt>
      <trkpt lat="43.95234" lon="7.15359">
        <ele>372.60000610352</ele>
        <time>2020-05-27T13:53:15.000Z</time>
      </trkpt>
      <trkpt lat="43.95238" lon="7.15351">
        <ele>371.20001220703</ele>
        <time>2020-05-27T13:53:17.000Z</time>
      </trkpt>
      <trkpt lat="43.95241" lon="7.15351">
        <ele>369.79998779297</ele>
        <time>2020-05-27T13:53:19.000Z</time>
      </trkpt>
      <trkpt lat="43.95243" lon="7.15357">
        <ele>368.60000610352</ele>
        <time>2020-05-27T13:53:21.000Z</time>
      </trkpt>
      <trkpt lat="43.95243" lon="7.1536">
        <ele>368.20001220703</ele>
        <time>2020-05-27T13:53:22.000Z</time>
      </trkpt>
      <trkpt lat="43.95243" lon="7.15365">
        <ele>367.79998779297</ele>
        <time>2020-05-27T13:53:23.000Z</time>
      </trkpt>
      <trkpt lat="43.95242" lon="7.15371">
        <ele>367.20001220703</ele>
        <time>2020-05-27T13:53:24.000Z</time>
      </trkpt>
      <trkpt lat="43.95242" lon="7.15377">
        <ele>366.79998779297</ele>
        <time>2020-05-27T13:53:25.000Z</time>
      </trkpt>
      <trkpt lat="43.9524" lon="7.15386">
        <ele>365.39999389648</ele>
        <time>2020-05-27T13:53:27.000Z</time>
      </trkpt>
      <trkpt lat="43.9524" lon="7.15388">
        <ele>364.39999389648</ele>
        <time>2020-05-27T13:53:28.000Z</time>
      </trkpt>
      <trkpt lat="43.95241" lon="7.15389">
        <ele>363.79998779297</ele>
        <time>2020-05-27T13:53:29.000Z</time>
      </trkpt>
      <trkpt lat="43.95243" lon="7.15388">
        <ele>363.20001220703</ele>
        <time>2020-05-27T13:53:30.000Z</time>
      </trkpt>
      <trkpt lat="43.95246" lon="7.15381">
        <ele>362.39999389648</ele>
        <time>2020-05-27T13:53:32.000Z</time>
      </trkpt>
      <trkpt lat="43.95248" lon="7.15378">
        <ele>362</ele>
        <time>2020-05-27T13:53:33.000Z</time>
      </trkpt>
      <trkpt lat="43.95251" lon="7.15374">
        <ele>360.60000610352</ele>
        <time>2020-05-27T13:53:35.000Z</time>
      </trkpt>
      <trkpt lat="43.95252" lon="7.15375">
        <ele>360</ele>
        <time>2020-05-27T13:53:36.000Z</time>
      </trkpt>
      <trkpt lat="43.95253" lon="7.15376">
        <ele>359.20001220703</ele>
        <time>2020-05-27T13:53:37.000Z</time>
      </trkpt>
      <trkpt lat="43.95252" lon="7.15381">
        <ele>358.20001220703</ele>
        <time>2020-05-27T13:53:39.000Z</time>
      </trkpt>
      <trkpt lat="43.95252" lon="7.15385">
        <ele>358</ele>
        <time>2020-05-27T13:53:40.000Z</time>
      </trkpt>
      <trkpt lat="43.9525" lon="7.15398">
        <ele>357.20001220703</ele>
        <time>2020-05-27T13:53:43.000Z</time>
      </trkpt>
      <trkpt lat="43.9525" lon="7.15401">
        <ele>356.60000610352</ele>
        <time>2020-05-27T13:53:44.000Z</time>
      </trkpt>
      <trkpt lat="43.9525" lon="7.15402">
        <ele>356</ele>
        <time>2020-05-27T13:53:45.000Z</time>
      </trkpt>
      <trkpt lat="43.95253" lon="7.15402">
        <ele>355</ele>
        <time>2020-05-27T13:53:47.000Z</time>
      </trkpt>
      <trkpt lat="43.95255" lon="7.154">
        <ele>354.39999389648</ele>
        <time>2020-05-27T13:53:48.000Z</time>
      </trkpt>
      <trkpt lat="43.95259" lon="7.15395">
        <ele>353.39999389648</ele>
        <time>2020-05-27T13:53:50.000Z</time>
      </trkpt>
      <trkpt lat="43.95261" lon="7.15397">
        <ele>352.20001220703</ele>
        <time>2020-05-27T13:53:52.000Z</time>
      </trkpt>
      <trkpt lat="43.95261" lon="7.154">
        <ele>351.60000610352</ele>
        <time>2020-05-27T13:53:53.000Z</time>
      </trkpt>
      <trkpt lat="43.95259" lon="7.15407">
        <ele>350.79998779297</ele>
        <time>2020-05-27T13:53:55.000Z</time>
      </trkpt>
      <trkpt lat="43.95263" lon="7.15407">
        <ele>350.20001220703</ele>
        <time>2020-05-27T13:53:57.000Z</time>
      </trkpt>
      <trkpt lat="43.95266" lon="7.15406">
        <ele>349.79998779297</ele>
        <time>2020-05-27T13:53:58.000Z</time>
      </trkpt>
      <trkpt lat="43.95271" lon="7.15409">
        <ele>348.60000610352</ele>
        <time>2020-05-27T13:54:00.000Z</time>
      </trkpt>
      <trkpt lat="43.95268" lon="7.15415">
        <ele>347.39999389648</ele>
        <time>2020-05-27T13:54:02.000Z</time>
      </trkpt>
      <trkpt lat="43.95266" lon="7.15418">
        <ele>346.39999389648</ele>
        <time>2020-05-27T13:54:03.000Z</time>
      </trkpt>
      <trkpt lat="43.95266" lon="7.1542">
        <ele>345.79998779297</ele>
        <time>2020-05-27T13:54:04.000Z</time>
      </trkpt>
      <trkpt lat="43.9527" lon="7.1542">
        <ele>345.20001220703</ele>
        <time>2020-05-27T13:54:06.000Z</time>
      </trkpt>
      <trkpt lat="43.95273" lon="7.15418">
        <ele>344.39999389648</ele>
        <time>2020-05-27T13:54:07.000Z</time>
      </trkpt>
      <trkpt lat="43.95278" lon="7.15415">
        <ele>343.20001220703</ele>
        <time>2020-05-27T13:54:09.000Z</time>
      </trkpt>
      <trkpt lat="43.9528" lon="7.15419">
        <ele>341.60000610352</ele>
        <time>2020-05-27T13:54:11.000Z</time>
      </trkpt>
      <trkpt lat="43.95279" lon="7.15422">
        <ele>340.79998779297</ele>
        <time>2020-05-27T13:54:12.000Z</time>
      </trkpt>
      <trkpt lat="43.95277" lon="7.15426">
        <ele>340.20001220703</ele>
        <time>2020-05-27T13:54:13.000Z</time>
      </trkpt>
      <trkpt lat="43.95275" lon="7.1543">
        <ele>339.39999389648</ele>
        <time>2020-05-27T13:54:14.000Z</time>
      </trkpt>
      <trkpt lat="43.95273" lon="7.15434">
        <ele>338.60000610352</ele>
        <time>2020-05-27T13:54:15.000Z</time>
      </trkpt>
      <trkpt lat="43.95272" lon="7.15436">
        <ele>338.20001220703</ele>
        <time>2020-05-27T13:54:16.000Z</time>
      </trkpt>
      <trkpt lat="43.95275" lon="7.15441">
        <ele>337.39999389648</ele>
        <time>2020-05-27T13:54:18.000Z</time>
      </trkpt>
      <trkpt lat="43.95276" lon="7.15443">
        <ele>337</ele>
        <time>2020-05-27T13:54:19.000Z</time>
      </trkpt>
      <trkpt lat="43.95273" lon="7.15448">
        <ele>335.79998779297</ele>
        <time>2020-05-27T13:54:21.000Z</time>
      </trkpt>
      <trkpt lat="43.9527" lon="7.1545">
        <ele>335</ele>
        <time>2020-05-27T13:54:22.000Z</time>
      </trkpt>
      <trkpt lat="43.95264" lon="7.15455">
        <ele>334.20001220703</ele>
        <time>2020-05-27T13:54:24.000Z</time>
      </trkpt>
      <trkpt lat="43.95261" lon="7.15456">
        <ele>333.60000610352</ele>
        <time>2020-05-27T13:54:25.000Z</time>
      </trkpt>
      <trkpt lat="43.95258" lon="7.15455">
        <ele>332.60000610352</ele>
        <time>2020-05-27T13:54:26.000Z</time>
      </trkpt>
      <trkpt lat="43.95253" lon="7.15454">
        <ele>331.39999389648</ele>
        <time>2020-05-27T13:54:28.000Z</time>
      </trkpt>
      <trkpt lat="43.95251" lon="7.15456">
        <ele>330.79998779297</ele>
        <time>2020-05-27T13:54:29.000Z</time>
      </trkpt>
      <trkpt lat="43.95253" lon="7.15463">
        <ele>330.20001220703</ele>
        <time>2020-05-27T13:54:31.000Z</time>
      </trkpt>
      <trkpt lat="43.95255" lon="7.15467">
        <ele>329.20001220703</ele>
        <time>2020-05-27T13:54:32.000Z</time>
      </trkpt>
      <trkpt lat="43.95258" lon="7.15469">
        <ele>328.60000610352</ele>
        <time>2020-05-27T13:54:33.000Z</time>
      </trkpt>
      <trkpt lat="43.95263" lon="7.15475">
        <ele>327</ele>
        <time>2020-05-27T13:54:35.000Z</time>
      </trkpt>
      <trkpt lat="43.95261" lon="7.15479">
        <ele>325.79998779297</ele>
        <time>2020-05-27T13:54:36.000Z</time>
      </trkpt>
      <trkpt lat="43.95258" lon="7.15482">
        <ele>325.39999389648</ele>
        <time>2020-05-27T13:54:37.000Z</time>
      </trkpt>
      <trkpt lat="43.95251" lon="7.15485">
        <ele>324.60000610352</ele>
        <time>2020-05-27T13:54:39.000Z</time>
      </trkpt>
      <trkpt lat="43.95247" lon="7.15485">
        <ele>323.39999389648</ele>
        <time>2020-05-27T13:54:41.000Z</time>
      </trkpt>
      <trkpt lat="43.95245" lon="7.15484">
        <ele>321.79998779297</ele>
        <time>2020-05-27T13:54:42.000Z</time>
      </trkpt>
      <trkpt lat="43.9524" lon="7.15482">
        <ele>320</ele>
        <time>2020-05-27T13:54:44.000Z</time>
      </trkpt>
      <trkpt lat="43.95234" lon="7.15485">
        <ele>319.20001220703</ele>
        <time>2020-05-27T13:54:46.000Z</time>
      </trkpt>
      <trkpt lat="43.95231" lon="7.15489">
        <ele>318.79998779297</ele>
        <time>2020-05-27T13:54:47.000Z</time>
      </trkpt>
      <trkpt lat="43.95225" lon="7.15499">
        <ele>317.60000610352</ele>
        <time>2020-05-27T13:54:49.000Z</time>
      </trkpt>
      <trkpt lat="43.95223" lon="7.15507">
        <ele>316.39999389648</ele>
        <time>2020-05-27T13:54:51.000Z</time>
      </trkpt>
      <trkpt lat="43.95224" lon="7.15512">
        <ele>315.60000610352</ele>
        <time>2020-05-27T13:54:52.000Z</time>
      </trkpt>
      <trkpt lat="43.95226" lon="7.15516">
        <ele>315</ele>
        <time>2020-05-27T13:54:53.000Z</time>
      </trkpt>
      <trkpt lat="43.9523" lon="7.15527">
        <ele>313.60000610352</ele>
        <time>2020-05-27T13:54:55.000Z</time>
      </trkpt>
      <trkpt lat="43.95234" lon="7.15534">
        <ele>312.79998779297</ele>
        <time>2020-05-27T13:54:56.000Z</time>
      </trkpt>
      <trkpt lat="43.95237" lon="7.15541">
        <ele>312</ele>
        <time>2020-05-27T13:54:57.000Z</time>
      </trkpt>
      <trkpt lat="43.9524" lon="7.15547">
        <ele>311.20001220703</ele>
        <time>2020-05-27T13:54:58.000Z</time>
      </trkpt>
      <trkpt lat="43.95244" lon="7.15552">
        <ele>310.39999389648</ele>
        <time>2020-05-27T13:54:59.000Z</time>
      </trkpt>
      <trkpt lat="43.95247" lon="7.15553">
        <ele>309.60000610352</ele>
        <time>2020-05-27T13:55:00.000Z</time>
      </trkpt>
      <trkpt lat="43.95253" lon="7.15552">
        <ele>308.60000610352</ele>
        <time>2020-05-27T13:55:01.000Z</time>
      </trkpt>
      <trkpt lat="43.95263" lon="7.1555">
        <ele>307</ele>
        <time>2020-05-27T13:55:03.000Z</time>
      </trkpt>
      <trkpt lat="43.95267" lon="7.15546">
        <ele>305.79998779297</ele>
        <time>2020-05-27T13:55:04.000Z</time>
      </trkpt>
      <trkpt lat="43.95274" lon="7.15534">
        <ele>304.79998779297</ele>
        <time>2020-05-27T13:55:06.000Z</time>
      </trkpt>
      <trkpt lat="43.95277" lon="7.15532">
        <ele>303.60000610352</ele>
        <time>2020-05-27T13:55:07.000Z</time>
      </trkpt>
      <trkpt lat="43.9528" lon="7.15531">
        <ele>303</ele>
        <time>2020-05-27T13:55:08.000Z</time>
      </trkpt>
      <trkpt lat="43.95281" lon="7.15535">
        <ele>302.39999389648</ele>
        <time>2020-05-27T13:55:10.000Z</time>
      </trkpt>
      <trkpt lat="43.95277" lon="7.15548">
        <ele>301</ele>
        <time>2020-05-27T13:55:13.000Z</time>
      </trkpt>
      <trkpt lat="43.95275" lon="7.15554">
        <ele>300.20001220703</ele>
        <time>2020-05-27T13:55:14.000Z</time>
      </trkpt>
      <trkpt lat="43.95273" lon="7.15559">
        <ele>299.39999389648</ele>
        <time>2020-05-27T13:55:15.000Z</time>
      </trkpt>
      <trkpt lat="43.95266" lon="7.15567">
        <ele>298.39999389648</ele>
        <time>2020-05-27T13:55:17.000Z</time>
      </trkpt>
      <trkpt lat="43.95261" lon="7.1557">
        <ele>297.20001220703</ele>
        <time>2020-05-27T13:55:18.000Z</time>
      </trkpt>
      <trkpt lat="43.95256" lon="7.15573">
        <ele>296.60000610352</ele>
        <time>2020-05-27T13:55:19.000Z</time>
      </trkpt>
      <trkpt lat="43.95251" lon="7.15576">
        <ele>296</ele>
        <time>2020-05-27T13:55:20.000Z</time>
      </trkpt>
      <trkpt lat="43.9524" lon="7.15581">
        <ele>294.20001220703</ele>
        <time>2020-05-27T13:55:22.000Z</time>
      </trkpt>
      <trkpt lat="43.9523" lon="7.15586">
        <ele>292.20001220703</ele>
        <time>2020-05-27T13:55:24.000Z</time>
      </trkpt>
      <trkpt lat="43.95221" lon="7.1559">
        <ele>290.79998779297</ele>
        <time>2020-05-27T13:55:26.000Z</time>
      </trkpt>
      <trkpt lat="43.95216" lon="7.15593">
        <ele>289.79998779297</ele>
        <time>2020-05-27T13:55:27.000Z</time>
      </trkpt>
      <trkpt lat="43.95208" lon="7.15598">
        <ele>288.79998779297</ele>
        <time>2020-05-27T13:55:29.000Z</time>
      </trkpt>
      <trkpt lat="43.95204" lon="7.15602">
        <ele>288.20001220703</ele>
        <time>2020-05-27T13:55:30.000Z</time>
      </trkpt>
      <trkpt lat="43.95199" lon="7.15604">
        <ele>287.60000610352</ele>
        <time>2020-05-27T13:55:31.000Z</time>
      </trkpt>
      <trkpt lat="43.95194" lon="7.15607">
        <ele>286.79998779297</ele>
        <time>2020-05-27T13:55:32.000Z</time>
      </trkpt>
      <trkpt lat="43.95189" lon="7.15608">
        <ele>285.60000610352</ele>
        <time>2020-05-27T13:55:33.000Z</time>
      </trkpt>
      <trkpt lat="43.95185" lon="7.15611">
        <ele>284.79998779297</ele>
        <time>2020-05-27T13:55:34.000Z</time>
      </trkpt>
      <trkpt lat="43.95182" lon="7.15613">
        <ele>283.60000610352</ele>
        <time>2020-05-27T13:55:35.000Z</time>
      </trkpt>
      <trkpt lat="43.95179" lon="7.15615">
        <ele>283</ele>
        <time>2020-05-27T13:55:36.000Z</time>
      </trkpt>
      <trkpt lat="43.95176" lon="7.15615">
        <ele>282.20001220703</ele>
        <time>2020-05-27T13:55:37.000Z</time>
      </trkpt>
      <trkpt lat="43.95173" lon="7.15613">
        <ele>281.39999389648</ele>
        <time>2020-05-27T13:55:39.000Z</time>
      </trkpt>
      <trkpt lat="43.95172" lon="7.15612">
        <ele>280.79998779297</ele>
        <time>2020-05-27T13:55:40.000Z</time>
      </trkpt>
      <trkpt lat="43.95171" lon="7.1561">
        <ele>279</ele>
        <time>2020-05-27T13:55:43.000Z</time>
      </trkpt>
      <trkpt lat="43.95171" lon="7.1561">
        <ele>279</ele>
        <time>2020-05-27T13:55:44.000Z</time>
      </trkpt>
      <trkpt lat="43.95169" lon="7.15611">
        <ele>278.20001220703</ele>
        <time>2020-05-27T13:55:51.000Z</time>
      </trkpt>
      <trkpt lat="43.95169" lon="7.15614">
        <ele>278.60000610352</ele>
        <time>2020-05-27T13:55:59.000Z</time>
      </trkpt>
      <trkpt lat="43.95169" lon="7.15616">
        <ele>278.60000610352</ele>
        <time>2020-05-27T13:56:03.000Z</time>
      </trkpt>
      <trkpt lat="43.95169" lon="7.15619">
        <ele>278.20001220703</ele>
        <time>2020-05-27T13:56:06.000Z</time>
      </trkpt>
      <trkpt lat="43.95168" lon="7.1562">
        <ele>278.39999389648</ele>
        <time>2020-05-27T13:56:07.000Z</time>
      </trkpt>
      <trkpt lat="43.95168" lon="7.15623">
        <ele>279.20001220703</ele>
        <time>2020-05-27T13:56:12.000Z</time>
      </trkpt>
      <trkpt lat="43.95169" lon="7.15629">
        <ele>280.20001220703</ele>
        <time>2020-05-27T13:56:17.000Z</time>
      </trkpt>
      <trkpt lat="43.95169" lon="7.15631">
        <ele>280.39999389648</ele>
        <time>2020-05-27T13:56:19.000Z</time>
      </trkpt>
      <trkpt lat="43.95168" lon="7.15632">
        <ele>280.60000610352</ele>
        <time>2020-05-27T13:56:20.000Z</time>
      </trkpt>
      <trkpt lat="43.95168" lon="7.15633">
        <ele>280.60000610352</ele>
        <time>2020-05-27T13:56:21.000Z</time>
      </trkpt>
      <trkpt lat="43.95168" lon="7.15634">
        <ele>280.60000610352</ele>
        <time>2020-05-27T13:56:25.000Z</time>
      </trkpt>
      <trkpt lat="43.95168" lon="7.15635">
        <ele>280.60000610352</ele>
        <time>2020-05-27T13:56:31.000Z</time>
      </trkpt>
      <trkpt lat="43.95167" lon="7.15637">
        <ele>280.60000610352</ele>
        <time>2020-05-27T13:56:32.000Z</time>
      </trkpt>
      <trkpt lat="43.95163" lon="7.15641">
        <ele>280.79998779297</ele>
        <time>2020-05-27T13:56:35.000Z</time>
      </trkpt>
      <trkpt lat="43.95152" lon="7.1565">
        <ele>280.39999389648</ele>
        <time>2020-05-27T13:56:39.000Z</time>
      </trkpt>
      <trkpt lat="43.95149" lon="7.15655">
        <ele>280.20001220703</ele>
        <time>2020-05-27T13:56:42.000Z</time>
      </trkpt>
      <trkpt lat="43.95148" lon="7.15657">
        <ele>279.60000610352</ele>
        <time>2020-05-27T13:56:46.000Z</time>
      </trkpt>
      <trkpt lat="43.95146" lon="7.15662">
        <ele>279.39999389648</ele>
        <time>2020-05-27T13:56:50.000Z</time>
      </trkpt>
      <trkpt lat="43.95143" lon="7.15667">
        <ele>279.20001220703</ele>
        <time>2020-05-27T13:56:52.000Z</time>
      </trkpt>
      <trkpt lat="43.95141" lon="7.15675">
        <ele>278.79998779297</ele>
        <time>2020-05-27T13:56:54.000Z</time>
      </trkpt>
      <trkpt lat="43.95137" lon="7.15689">
        <ele>277.79998779297</ele>
        <time>2020-05-27T13:56:57.000Z</time>
      </trkpt>
      <trkpt lat="43.95131" lon="7.15696">
        <ele>276.79998779297</ele>
        <time>2020-05-27T13:56:59.000Z</time>
      </trkpt>
      <trkpt lat="43.95123" lon="7.15701">
        <ele>275.39999389648</ele>
        <time>2020-05-27T13:57:01.000Z</time>
      </trkpt>
      <trkpt lat="43.95108" lon="7.15714">
        <ele>274.39999389648</ele>
        <time>2020-05-27T13:57:05.000Z</time>
      </trkpt>
      <trkpt lat="43.95093" lon="7.1573">
        <ele>273.79998779297</ele>
        <time>2020-05-27T13:57:09.000Z</time>
      </trkpt>
      <trkpt lat="43.9509" lon="7.15734">
        <ele>273.39999389648</ele>
        <time>2020-05-27T13:57:10.000Z</time>
      </trkpt>
      <trkpt lat="43.95086" lon="7.15738">
        <ele>273.20001220703</ele>
        <time>2020-05-27T13:57:11.000Z</time>
      </trkpt>
      <trkpt lat="43.9506" lon="7.15761">
        <ele>272.60000610352</ele>
        <time>2020-05-27T13:57:18.000Z</time>
      </trkpt>
      <trkpt lat="43.95056" lon="7.15763">
        <ele>272.60000610352</ele>
        <time>2020-05-27T13:57:19.000Z</time>
      </trkpt>
      <trkpt lat="43.95052" lon="7.15765">
        <ele>272.39999389648</ele>
        <time>2020-05-27T13:57:20.000Z</time>
      </trkpt>
      <trkpt lat="43.95044" lon="7.15768">
        <ele>272.39999389648</ele>
        <time>2020-05-27T13:57:22.000Z</time>
      </trkpt>
      <trkpt lat="43.95032" lon="7.15771">
        <ele>272.39999389648</ele>
        <time>2020-05-27T13:57:25.000Z</time>
      </trkpt>
      <trkpt lat="43.95005" lon="7.1578">
        <ele>273</ele>
        <time>2020-05-27T13:57:33.000Z</time>
      </trkpt>
      <trkpt lat="43.94994" lon="7.15791">
        <ele>273</ele>
        <time>2020-05-27T13:57:37.000Z</time>
      </trkpt>
      <trkpt lat="43.9499" lon="7.15796">
        <ele>273</ele>
        <time>2020-05-27T13:57:38.000Z</time>
      </trkpt>
      <trkpt lat="43.94987" lon="7.15803">
        <ele>272.79998779297</ele>
        <time>2020-05-27T13:57:39.000Z</time>
      </trkpt>
      <trkpt lat="43.94982" lon="7.1582">
        <ele>271.60000610352</ele>
        <time>2020-05-27T13:57:41.000Z</time>
      </trkpt>
      <trkpt lat="43.94978" lon="7.15828">
        <ele>271</ele>
        <time>2020-05-27T13:57:42.000Z</time>
      </trkpt>
      <trkpt lat="43.94966" lon="7.15839">
        <ele>269.20001220703</ele>
        <time>2020-05-27T13:57:44.000Z</time>
      </trkpt>
      <trkpt lat="43.9496" lon="7.15842">
        <ele>268</ele>
        <time>2020-05-27T13:57:45.000Z</time>
      </trkpt>
      <trkpt lat="43.94948" lon="7.15841">
        <ele>265.60000610352</ele>
        <time>2020-05-27T13:57:47.000Z</time>
      </trkpt>
      <trkpt lat="43.94941" lon="7.15831">
        <ele>264.60000610352</ele>
        <time>2020-05-27T13:57:49.000Z</time>
      </trkpt>
      <trkpt lat="43.94939" lon="7.15825">
        <ele>264.60000610352</ele>
        <time>2020-05-27T13:57:50.000Z</time>
      </trkpt>
      <trkpt lat="43.94935" lon="7.15822">
        <ele>264.60000610352</ele>
        <time>2020-05-27T13:57:51.000Z</time>
      </trkpt>
      <trkpt lat="43.94932" lon="7.15822">
        <ele>264.39999389648</ele>
        <time>2020-05-27T13:57:52.000Z</time>
      </trkpt>
      <trkpt lat="43.94927" lon="7.15828">
        <ele>263.60000610352</ele>
        <time>2020-05-27T13:57:54.000Z</time>
      </trkpt>
      <trkpt lat="43.94926" lon="7.15831">
        <ele>263.39999389648</ele>
        <time>2020-05-27T13:57:55.000Z</time>
      </trkpt>
      <trkpt lat="43.94925" lon="7.15834">
        <ele>263.20001220703</ele>
        <time>2020-05-27T13:57:56.000Z</time>
      </trkpt>
      <trkpt lat="43.9492" lon="7.15845">
        <ele>264.60000610352</ele>
        <time>2020-05-27T13:58:00.000Z</time>
      </trkpt>
      <trkpt lat="43.94916" lon="7.15854">
        <ele>265</ele>
        <time>2020-05-27T13:58:02.000Z</time>
      </trkpt>
      <trkpt lat="43.94912" lon="7.15859">
        <ele>264.79998779297</ele>
        <time>2020-05-27T13:58:03.000Z</time>
      </trkpt>
      <trkpt lat="43.94905" lon="7.15869">
        <ele>264.39999389648</ele>
        <time>2020-05-27T13:58:05.000Z</time>
      </trkpt>
      <trkpt lat="43.949" lon="7.15874">
        <ele>264.20001220703</ele>
        <time>2020-05-27T13:58:06.000Z</time>
      </trkpt>
      <trkpt lat="43.94885" lon="7.15884">
        <ele>263.60000610352</ele>
        <time>2020-05-27T13:58:09.000Z</time>
      </trkpt>
      <trkpt lat="43.9487" lon="7.15894">
        <ele>262.79998779297</ele>
        <time>2020-05-27T13:58:12.000Z</time>
      </trkpt>
      <trkpt lat="43.94865" lon="7.15897">
        <ele>262.60000610352</ele>
        <time>2020-05-27T13:58:13.000Z</time>
      </trkpt>
      <trkpt lat="43.94855" lon="7.15901">
        <ele>262.20001220703</ele>
        <time>2020-05-27T13:58:15.000Z</time>
      </trkpt>
      <trkpt lat="43.9485" lon="7.15901">
        <ele>262.20001220703</ele>
        <time>2020-05-27T13:58:16.000Z</time>
      </trkpt>
      <trkpt lat="43.94832" lon="7.15907">
        <ele>262.20001220703</ele>
        <time>2020-05-27T13:58:19.000Z</time>
      </trkpt>
      <trkpt lat="43.94818" lon="7.15913">
        <ele>261.39999389648</ele>
        <time>2020-05-27T13:58:21.000Z</time>
      </trkpt>
      <trkpt lat="43.94812" lon="7.15916">
        <ele>260.20001220703</ele>
        <time>2020-05-27T13:58:22.000Z</time>
      </trkpt>
      <trkpt lat="43.94806" lon="7.15919">
        <ele>259.39999389648</ele>
        <time>2020-05-27T13:58:23.000Z</time>
      </trkpt>
      <trkpt lat="43.94802" lon="7.15923">
        <ele>258</ele>
        <time>2020-05-27T13:58:24.000Z</time>
      </trkpt>
      <trkpt lat="43.94799" lon="7.15926">
        <ele>256.79998779297</ele>
        <time>2020-05-27T13:58:25.000Z</time>
      </trkpt>
      <trkpt lat="43.94799" lon="7.15927">
        <ele>255.39999389648</ele>
        <time>2020-05-27T13:58:26.000Z</time>
      </trkpt>
      <trkpt lat="43.948" lon="7.1593">
        <ele>254.19999694824</ele>
        <time>2020-05-27T13:58:27.000Z</time>
      </trkpt>
      <trkpt lat="43.94798" lon="7.15936">
        <ele>253.19999694824</ele>
        <time>2020-05-27T13:58:30.000Z</time>
      </trkpt>
      <trkpt lat="43.94797" lon="7.15941">
        <ele>253</ele>
        <time>2020-05-27T13:58:34.000Z</time>
      </trkpt>
      <trkpt lat="43.94797" lon="7.15941">
        <ele>252.60000610352</ele>
        <time>2020-05-27T13:58:39.000Z</time>
      </trkpt>
      <trkpt lat="43.94798" lon="7.15944">
        <ele>252.60000610352</ele>
        <time>2020-05-27T13:58:41.000Z</time>
      </trkpt>
      <trkpt lat="43.94797" lon="7.15947">
        <ele>252.80000305176</ele>
        <time>2020-05-27T13:58:44.000Z</time>
      </trkpt>
      <trkpt lat="43.94798" lon="7.15952">
        <ele>252.60000610352</ele>
        <time>2020-05-27T13:58:48.000Z</time>
      </trkpt>
      <trkpt lat="43.94798" lon="7.15956">
        <ele>253.19999694824</ele>
        <time>2020-05-27T13:58:52.000Z</time>
      </trkpt>
      <trkpt lat="43.94798" lon="7.15956">
        <ele>253.19999694824</ele>
        <time>2020-05-27T13:58:55.000Z</time>
      </trkpt>
      <trkpt lat="43.94799" lon="7.15959">
        <ele>253.39999389648</ele>
        <time>2020-05-27T13:59:06.000Z</time>
      </trkpt>
      <trkpt lat="43.948" lon="7.15961">
        <ele>253.80000305176</ele>
        <time>2020-05-27T13:59:09.000Z</time>
      </trkpt>
      <trkpt lat="43.94801" lon="7.15965">
        <ele>253.80000305176</ele>
        <time>2020-05-27T13:59:11.000Z</time>
      </trkpt>
      <trkpt lat="43.94803" lon="7.15984">
        <ele>253.39999389648</ele>
        <time>2020-05-27T13:59:15.000Z</time>
      </trkpt>
      <trkpt lat="43.94801" lon="7.15989">
        <ele>253.19999694824</ele>
        <time>2020-05-27T13:59:16.000Z</time>
      </trkpt>
      <trkpt lat="43.94797" lon="7.15993">
        <ele>253</ele>
        <time>2020-05-27T13:59:18.000Z</time>
      </trkpt>
      <trkpt lat="43.94791" lon="7.15994">
        <ele>254.19999694824</ele>
        <time>2020-05-27T13:59:23.000Z</time>
      </trkpt>
      <trkpt lat="43.9479" lon="7.15996">
        <ele>255.19999694824</ele>
        <time>2020-05-27T13:59:27.000Z</time>
      </trkpt>
      <trkpt lat="43.9479" lon="7.15996">
        <ele>255.19999694824</ele>
        <time>2020-05-27T13:59:28.000Z</time>
      </trkpt>
      <trkpt lat="43.94792" lon="7.15996">
        <ele>255.39999389648</ele>
        <time>2020-05-27T13:59:32.000Z</time>
      </trkpt>
      <trkpt lat="43.94792" lon="7.15995">
        <ele>255.39999389648</ele>
        <time>2020-05-27T13:59:37.000Z</time>
      </trkpt>
      <trkpt lat="43.94793" lon="7.16001">
        <ele>255.19999694824</ele>
        <time>2020-05-27T13:59:42.000Z</time>
      </trkpt>
      <trkpt lat="43.94795" lon="7.16001">
        <ele>256</ele>
        <time>2020-05-27T13:59:46.000Z</time>
      </trkpt>
      <trkpt lat="43.94797" lon="7.16001">
        <ele>256.20001220703</ele>
        <time>2020-05-27T13:59:47.000Z</time>
      </trkpt>
      <trkpt lat="43.94804" lon="7.16001">
        <ele>257</ele>
        <time>2020-05-27T13:59:53.000Z</time>
      </trkpt>
      <trkpt lat="43.94803" lon="7.16003">
        <ele>257.20001220703</ele>
        <time>2020-05-27T13:59:54.000Z</time>
      </trkpt>
      <trkpt lat="43.94799" lon="7.16006">
        <ele>258</ele>
        <time>2020-05-27T13:59:57.000Z</time>
      </trkpt>
      <trkpt lat="43.94798" lon="7.16006">
        <ele>258.20001220703</ele>
        <time>2020-05-27T13:59:58.000Z</time>
      </trkpt>
      <trkpt lat="43.94791" lon="7.16006">
        <ele>259.20001220703</ele>
        <time>2020-05-27T14:00:03.000Z</time>
      </trkpt>
      <trkpt lat="43.94788" lon="7.16006">
        <ele>259.39999389648</ele>
        <time>2020-05-27T14:00:05.000Z</time>
      </trkpt>
      <trkpt lat="43.94781" lon="7.16007">
        <ele>260</ele>
        <time>2020-05-27T14:00:10.000Z</time>
      </trkpt>
      <trkpt lat="43.94772" lon="7.16011">
        <ele>260.60000610352</ele>
        <time>2020-05-27T14:00:15.000Z</time>
      </trkpt>
      <trkpt lat="43.94767" lon="7.16015">
        <ele>261</ele>
        <time>2020-05-27T14:00:17.000Z</time>
      </trkpt>
      <trkpt lat="43.94746" lon="7.16027">
        <ele>260.79998779297</ele>
        <time>2020-05-27T14:00:24.000Z</time>
      </trkpt>
      <trkpt lat="43.94712" lon="7.16046">
        <ele>260.20001220703</ele>
        <time>2020-05-27T14:00:33.000Z</time>
      </trkpt>
      <trkpt lat="43.94696" lon="7.16058">
        <ele>260</ele>
        <time>2020-05-27T14:00:37.000Z</time>
      </trkpt>
      <trkpt lat="43.94685" lon="7.1607">
        <ele>259.79998779297</ele>
        <time>2020-05-27T14:00:40.000Z</time>
      </trkpt>
      <trkpt lat="43.94677" lon="7.16079">
        <ele>259.60000610352</ele>
        <time>2020-05-27T14:00:42.000Z</time>
      </trkpt>
      <trkpt lat="43.94653" lon="7.16112">
        <ele>258.79998779297</ele>
        <time>2020-05-27T14:00:48.000Z</time>
      </trkpt>
      <trkpt lat="43.94641" lon="7.16129">
        <ele>258.39999389648</ele>
        <time>2020-05-27T14:00:51.000Z</time>
      </trkpt>
      <trkpt lat="43.94626" lon="7.16152">
        <ele>257</ele>
        <time>2020-05-27T14:00:55.000Z</time>
      </trkpt>
      <trkpt lat="43.94622" lon="7.16159">
        <ele>256.20001220703</ele>
        <time>2020-05-27T14:00:56.000Z</time>
      </trkpt>
      <trkpt lat="43.94617" lon="7.16164">
        <ele>256</ele>
        <time>2020-05-27T14:00:57.000Z</time>
      </trkpt>
      <trkpt lat="43.94587" lon="7.16208">
        <ele>255.39999389648</ele>
        <time>2020-05-27T14:01:04.000Z</time>
      </trkpt>
      <trkpt lat="43.94546" lon="7.16269">
        <ele>254.60000610352</ele>
        <time>2020-05-27T14:01:13.000Z</time>
      </trkpt>
      <trkpt lat="43.94535" lon="7.16281">
        <ele>254.19999694824</ele>
        <time>2020-05-27T14:01:15.000Z</time>
      </trkpt>
      <trkpt lat="43.94521" lon="7.1629">
        <ele>253.60000610352</ele>
        <time>2020-05-27T14:01:17.000Z</time>
      </trkpt>
      <trkpt lat="43.94485" lon="7.16304">
        <ele>252.60000610352</ele>
        <time>2020-05-27T14:01:22.000Z</time>
      </trkpt>
      <trkpt lat="43.94477" lon="7.16304">
        <ele>252.60000610352</ele>
        <time>2020-05-27T14:01:23.000Z</time>
      </trkpt>
      <trkpt lat="43.94442" lon="7.16303">
        <ele>252.39999389648</ele>
        <time>2020-05-27T14:01:28.000Z</time>
      </trkpt>
      <trkpt lat="43.94428" lon="7.16302">
        <ele>251.39999389648</ele>
        <time>2020-05-27T14:01:30.000Z</time>
      </trkpt>
      <trkpt lat="43.94403" lon="7.16297">
        <ele>250.39999389648</ele>
        <time>2020-05-27T14:01:34.000Z</time>
      </trkpt>
      <trkpt lat="43.94395" lon="7.16295">
        <ele>250.39999389648</ele>
        <time>2020-05-27T14:01:35.000Z</time>
      </trkpt>
      <trkpt lat="43.94347" lon="7.16277">
        <ele>249.80000305176</ele>
        <time>2020-05-27T14:01:43.000Z</time>
      </trkpt>
      <trkpt lat="43.94301" lon="7.16261">
        <ele>249.39999389648</ele>
        <time>2020-05-27T14:01:51.000Z</time>
      </trkpt>
      <trkpt lat="43.94249" lon="7.1624">
        <ele>249.39999389648</ele>
        <time>2020-05-27T14:02:00.000Z</time>
      </trkpt>
      <trkpt lat="43.94243" lon="7.16235">
        <ele>249.19999694824</ele>
        <time>2020-05-27T14:02:01.000Z</time>
      </trkpt>
      <trkpt lat="43.94208" lon="7.16202">
        <ele>249</ele>
        <time>2020-05-27T14:02:08.000Z</time>
      </trkpt>
      <trkpt lat="43.94177" lon="7.1617">
        <ele>248.60000610352</ele>
        <time>2020-05-27T14:02:14.000Z</time>
      </trkpt>
      <trkpt lat="43.94161" lon="7.16156">
        <ele>248.39999389648</ele>
        <time>2020-05-27T14:02:17.000Z</time>
      </trkpt>
      <trkpt lat="43.94145" lon="7.16147">
        <ele>248.39999389648</ele>
        <time>2020-05-27T14:02:20.000Z</time>
      </trkpt>
      <trkpt lat="43.9414" lon="7.16145">
        <ele>248.39999389648</ele>
        <time>2020-05-27T14:02:21.000Z</time>
      </trkpt>
      <trkpt lat="43.94119" lon="7.16142">
        <ele>248</ele>
        <time>2020-05-27T14:02:25.000Z</time>
      </trkpt>
      <trkpt lat="43.94073" lon="7.16133">
        <ele>248</ele>
        <time>2020-05-27T14:02:34.000Z</time>
      </trkpt>
      <trkpt lat="43.9403" lon="7.16123">
        <ele>247.39999389648</ele>
        <time>2020-05-27T14:02:42.000Z</time>
      </trkpt>
      <trkpt lat="43.93986" lon="7.16111">
        <ele>247</ele>
        <time>2020-05-27T14:02:50.000Z</time>
      </trkpt>
      <trkpt lat="43.93945" lon="7.16105">
        <ele>246.60000610352</ele>
        <time>2020-05-27T14:02:57.000Z</time>
      </trkpt>
      <trkpt lat="43.93933" lon="7.16107">
        <ele>246.39999389648</ele>
        <time>2020-05-27T14:02:59.000Z</time>
      </trkpt>
      <trkpt lat="43.93921" lon="7.16111">
        <ele>246.39999389648</ele>
        <time>2020-05-27T14:03:01.000Z</time>
      </trkpt>
      <trkpt lat="43.93916" lon="7.16115">
        <ele>246.19999694824</ele>
        <time>2020-05-27T14:03:02.000Z</time>
      </trkpt>
      <trkpt lat="43.93901" lon="7.16127">
        <ele>246.19999694824</ele>
        <time>2020-05-27T14:03:05.000Z</time>
      </trkpt>
      <trkpt lat="43.93896" lon="7.16132">
        <ele>246.19999694824</ele>
        <time>2020-05-27T14:03:06.000Z</time>
      </trkpt>
      <trkpt lat="43.93891" lon="7.16138">
        <ele>246.19999694824</ele>
        <time>2020-05-27T14:03:07.000Z</time>
      </trkpt>
      <trkpt lat="43.93887" lon="7.16145">
        <ele>246</ele>
        <time>2020-05-27T14:03:08.000Z</time>
      </trkpt>
      <trkpt lat="43.9387" lon="7.16172">
        <ele>245.19999694824</ele>
        <time>2020-05-27T14:03:12.000Z</time>
      </trkpt>
      <trkpt lat="43.93865" lon="7.16179">
        <ele>245</ele>
        <time>2020-05-27T14:03:13.000Z</time>
      </trkpt>
      <trkpt lat="43.93845" lon="7.16215">
        <ele>244.19999694824</ele>
        <time>2020-05-27T14:03:18.000Z</time>
      </trkpt>
      <trkpt lat="43.9384" lon="7.16231">
        <ele>244.19999694824</ele>
        <time>2020-05-27T14:03:20.000Z</time>
      </trkpt>
      <trkpt lat="43.93838" lon="7.1624">
        <ele>244.19999694824</ele>
        <time>2020-05-27T14:03:21.000Z</time>
      </trkpt>
      <trkpt lat="43.93833" lon="7.16267">
        <ele>243.60000610352</ele>
        <time>2020-05-27T14:03:24.000Z</time>
      </trkpt>
      <trkpt lat="43.93833" lon="7.16276">
        <ele>243.39999389648</ele>
        <time>2020-05-27T14:03:25.000Z</time>
      </trkpt>
      <trkpt lat="43.93833" lon="7.16285">
        <ele>243</ele>
        <time>2020-05-27T14:03:26.000Z</time>
      </trkpt>
      <trkpt lat="43.93835" lon="7.16303">
        <ele>242.60000610352</ele>
        <time>2020-05-27T14:03:28.000Z</time>
      </trkpt>
      <trkpt lat="43.93837" lon="7.16321">
        <ele>242.19999694824</ele>
        <time>2020-05-27T14:03:30.000Z</time>
      </trkpt>
      <trkpt lat="43.93839" lon="7.16339">
        <ele>242.19999694824</ele>
        <time>2020-05-27T14:03:32.000Z</time>
      </trkpt>
      <trkpt lat="43.93841" lon="7.16349">
        <ele>242</ele>
        <time>2020-05-27T14:03:33.000Z</time>
      </trkpt>
      <trkpt lat="43.93843" lon="7.16367">
        <ele>242.39999389648</ele>
        <time>2020-05-27T14:03:35.000Z</time>
      </trkpt>
      <trkpt lat="43.9385" lon="7.16423">
        <ele>240.80000305176</ele>
        <time>2020-05-27T14:03:41.000Z</time>
      </trkpt>
      <trkpt lat="43.93852" lon="7.16441">
        <ele>240.39999389648</ele>
        <time>2020-05-27T14:03:43.000Z</time>
      </trkpt>
      <trkpt lat="43.93853" lon="7.16477">
        <ele>240</ele>
        <time>2020-05-27T14:03:47.000Z</time>
      </trkpt>
      <trkpt lat="43.93849" lon="7.16494">
        <ele>239.80000305176</ele>
        <time>2020-05-27T14:03:49.000Z</time>
      </trkpt>
      <trkpt lat="43.93842" lon="7.16509">
        <ele>239.80000305176</ele>
        <time>2020-05-27T14:03:51.000Z</time>
      </trkpt>
      <trkpt lat="43.93838" lon="7.16514">
        <ele>239.60000610352</ele>
        <time>2020-05-27T14:03:52.000Z</time>
      </trkpt>
      <trkpt lat="43.93815" lon="7.16529">
        <ele>239.80000305176</ele>
        <time>2020-05-27T14:03:56.000Z</time>
      </trkpt>
      <trkpt lat="43.93809" lon="7.1653">
        <ele>239.80000305176</ele>
        <time>2020-05-27T14:03:57.000Z</time>
      </trkpt>
      <trkpt lat="43.93781" lon="7.16539">
        <ele>239.60000610352</ele>
        <time>2020-05-27T14:04:02.000Z</time>
      </trkpt>
      <trkpt lat="43.93776" lon="7.16543">
        <ele>239.60000610352</ele>
        <time>2020-05-27T14:04:03.000Z</time>
      </trkpt>
      <trkpt lat="43.93762" lon="7.16569">
        <ele>239.80000305176</ele>
        <time>2020-05-27T14:04:07.000Z</time>
      </trkpt>
      <trkpt lat="43.93757" lon="7.16592">
        <ele>239.60000610352</ele>
        <time>2020-05-27T14:04:10.000Z</time>
      </trkpt>
      <trkpt lat="43.93754" lon="7.1661">
        <ele>239.60000610352</ele>
        <time>2020-05-27T14:04:12.000Z</time>
      </trkpt>
      <trkpt lat="43.93746" lon="7.16655">
        <ele>238.80000305176</ele>
        <time>2020-05-27T14:04:17.000Z</time>
      </trkpt>
      <trkpt lat="43.93743" lon="7.16672">
        <ele>238.39999389648</ele>
        <time>2020-05-27T14:04:19.000Z</time>
      </trkpt>
      <trkpt lat="43.93735" lon="7.16702">
        <ele>237.80000305176</ele>
        <time>2020-05-27T14:04:23.000Z</time>
      </trkpt>
      <trkpt lat="43.93731" lon="7.16709">
        <ele>237.60000610352</ele>
        <time>2020-05-27T14:04:24.000Z</time>
      </trkpt>
      <trkpt lat="43.93713" lon="7.16755">
        <ele>237.19999694824</ele>
        <time>2020-05-27T14:04:31.000Z</time>
      </trkpt>
      <trkpt lat="43.93712" lon="7.16762">
        <ele>237.39999389648</ele>
        <time>2020-05-27T14:04:32.000Z</time>
      </trkpt>
      <trkpt lat="43.93711" lon="7.16776">
        <ele>237.39999389648</ele>
        <time>2020-05-27T14:04:34.000Z</time>
      </trkpt>
      <trkpt lat="43.93711" lon="7.16782">
        <ele>237.39999389648</ele>
        <time>2020-05-27T14:04:35.000Z</time>
      </trkpt>
      <trkpt lat="43.9371" lon="7.16797">
        <ele>237.39999389648</ele>
        <time>2020-05-27T14:04:37.000Z</time>
      </trkpt>
      <trkpt lat="43.93711" lon="7.16814">
        <ele>237.39999389648</ele>
        <time>2020-05-27T14:04:39.000Z</time>
      </trkpt>
      <trkpt lat="43.93716" lon="7.16878">
        <ele>236.80000305176</ele>
        <time>2020-05-27T14:04:47.000Z</time>
      </trkpt>
      <trkpt lat="43.93719" lon="7.16907">
        <ele>236.39999389648</ele>
        <time>2020-05-27T14:04:51.000Z</time>
      </trkpt>
      <trkpt lat="43.93722" lon="7.16935">
        <ele>236.80000305176</ele>
        <time>2020-05-27T14:04:55.000Z</time>
      </trkpt>
      <trkpt lat="43.93723" lon="7.1695">
        <ele>237.60000610352</ele>
        <time>2020-05-27T14:04:57.000Z</time>
      </trkpt>
      <trkpt lat="43.93728" lon="7.1697">
        <ele>237.19999694824</ele>
        <time>2020-05-27T14:05:00.000Z</time>
      </trkpt>
      <trkpt lat="43.93731" lon="7.16977">
        <ele>237</ele>
        <time>2020-05-27T14:05:01.000Z</time>
      </trkpt>
      <trkpt lat="43.93745" lon="7.17">
        <ele>236.39999389648</ele>
        <time>2020-05-27T14:05:05.000Z</time>
      </trkpt>
      <trkpt lat="43.93749" lon="7.17006">
        <ele>236.39999389648</ele>
        <time>2020-05-27T14:05:06.000Z</time>
      </trkpt>
      <trkpt lat="43.93767" lon="7.17048">
        <ele>236.19999694824</ele>
        <time>2020-05-27T14:05:12.000Z</time>
      </trkpt>
      <trkpt lat="43.93771" lon="7.17062">
        <ele>236.19999694824</ele>
        <time>2020-05-27T14:05:14.000Z</time>
      </trkpt>
      <trkpt lat="43.93773" lon="7.17084">
        <ele>236</ele>
        <time>2020-05-27T14:05:17.000Z</time>
      </trkpt>
      <trkpt lat="43.9377" lon="7.171">
        <ele>236</ele>
        <time>2020-05-27T14:05:20.000Z</time>
      </trkpt>
      <trkpt lat="43.93768" lon="7.17108">
        <ele>236</ele>
        <time>2020-05-27T14:05:22.000Z</time>
      </trkpt>
      <trkpt lat="43.93748" lon="7.17128">
        <ele>236</ele>
        <time>2020-05-27T14:05:27.000Z</time>
      </trkpt>
      <trkpt lat="43.937" lon="7.17161">
        <ele>236.19999694824</ele>
        <time>2020-05-27T14:05:36.000Z</time>
      </trkpt>
      <trkpt lat="43.93658" lon="7.1717">
        <ele>236</ele>
        <time>2020-05-27T14:05:43.000Z</time>
      </trkpt>
      <trkpt lat="43.93602" lon="7.17175">
        <ele>236</ele>
        <time>2020-05-27T14:05:52.000Z</time>
      </trkpt>
      <trkpt lat="43.93565" lon="7.17183">
        <ele>236</ele>
        <time>2020-05-27T14:05:58.000Z</time>
      </trkpt>
      <trkpt lat="43.93518" lon="7.17177">
        <ele>235.60000610352</ele>
        <time>2020-05-27T14:06:06.000Z</time>
      </trkpt>
      <trkpt lat="43.93483" lon="7.17182">
        <ele>236.19999694824</ele>
        <time>2020-05-27T14:06:12.000Z</time>
      </trkpt>
      <trkpt lat="43.9344" lon="7.17202">
        <ele>236.19999694824</ele>
        <time>2020-05-27T14:06:20.000Z</time>
      </trkpt>
      <trkpt lat="43.93414" lon="7.17232">
        <ele>236</ele>
        <time>2020-05-27T14:06:26.000Z</time>
      </trkpt>
      <trkpt lat="43.93394" lon="7.17267">
        <ele>236.39999389648</ele>
        <time>2020-05-27T14:06:32.000Z</time>
      </trkpt>
      <trkpt lat="43.93392" lon="7.17273">
        <ele>236.39999389648</ele>
        <time>2020-05-27T14:06:33.000Z</time>
      </trkpt>
      <trkpt lat="43.9338" lon="7.17305">
        <ele>236.39999389648</ele>
        <time>2020-05-27T14:06:38.000Z</time>
      </trkpt>
      <trkpt lat="43.93376" lon="7.17311">
        <ele>236.39999389648</ele>
        <time>2020-05-27T14:06:39.000Z</time>
      </trkpt>
      <trkpt lat="43.93359" lon="7.17329">
        <ele>236.60000610352</ele>
        <time>2020-05-27T14:06:43.000Z</time>
      </trkpt>
      <trkpt lat="43.93354" lon="7.17332">
        <ele>236.39999389648</ele>
        <time>2020-05-27T14:06:44.000Z</time>
      </trkpt>
      <trkpt lat="43.93325" lon="7.17353">
        <ele>236.39999389648</ele>
        <time>2020-05-27T14:06:50.000Z</time>
      </trkpt>
      <trkpt lat="43.93279" lon="7.17388">
        <ele>236.80000305176</ele>
        <time>2020-05-27T14:07:00.000Z</time>
      </trkpt>
      <trkpt lat="43.93238" lon="7.17426">
        <ele>237</ele>
        <time>2020-05-27T14:07:09.000Z</time>
      </trkpt>
      <trkpt lat="43.93219" lon="7.17462">
        <ele>237.19999694824</ele>
        <time>2020-05-27T14:07:15.000Z</time>
      </trkpt>
      <trkpt lat="43.9321" lon="7.17493">
        <ele>237</ele>
        <time>2020-05-27T14:07:20.000Z</time>
      </trkpt>
      <trkpt lat="43.93209" lon="7.17499">
        <ele>237</ele>
        <time>2020-05-27T14:07:21.000Z</time>
      </trkpt>
      <trkpt lat="43.93197" lon="7.17552">
        <ele>237.39999389648</ele>
        <time>2020-05-27T14:07:30.000Z</time>
      </trkpt>
      <trkpt lat="43.93186" lon="7.17572">
        <ele>237.39999389648</ele>
        <time>2020-05-27T14:07:34.000Z</time>
      </trkpt>
      <trkpt lat="43.93179" lon="7.1758">
        <ele>237.39999389648</ele>
        <time>2020-05-27T14:07:36.000Z</time>
      </trkpt>
      <trkpt lat="43.93176" lon="7.17585">
        <ele>237.39999389648</ele>
        <time>2020-05-27T14:07:37.000Z</time>
      </trkpt>
      <trkpt lat="43.93163" lon="7.17603">
        <ele>237.80000305176</ele>
        <time>2020-05-27T14:07:41.000Z</time>
      </trkpt>
      <trkpt lat="43.93157" lon="7.17615">
        <ele>237.60000610352</ele>
        <time>2020-05-27T14:07:43.000Z</time>
      </trkpt>
      <trkpt lat="43.93146" lon="7.17652">
        <ele>237.39999389648</ele>
        <time>2020-05-27T14:07:48.000Z</time>
      </trkpt>
      <trkpt lat="43.93138" lon="7.17682">
        <ele>237.60000610352</ele>
        <time>2020-05-27T14:07:52.000Z</time>
      </trkpt>
      <trkpt lat="43.93134" lon="7.17706">
        <ele>237.60000610352</ele>
        <time>2020-05-27T14:07:55.000Z</time>
      </trkpt>
      <trkpt lat="43.93122" lon="7.17743">
        <ele>236.60000610352</ele>
        <time>2020-05-27T14:08:00.000Z</time>
      </trkpt>
      <trkpt lat="43.93093" lon="7.17807">
        <ele>236.60000610352</ele>
        <time>2020-05-27T14:08:09.000Z</time>
      </trkpt>
      <trkpt lat="43.9309" lon="7.17813">
        <ele>236.39999389648</ele>
        <time>2020-05-27T14:08:10.000Z</time>
      </trkpt>
      <trkpt lat="43.93087" lon="7.17821">
        <ele>236.19999694824</ele>
        <time>2020-05-27T14:08:11.000Z</time>
      </trkpt>
      <trkpt lat="43.93058" lon="7.17891">
        <ele>236.60000610352</ele>
        <time>2020-05-27T14:08:21.000Z</time>
      </trkpt>
      <trkpt lat="43.93052" lon="7.17905">
        <ele>236.39999389648</ele>
        <time>2020-05-27T14:08:23.000Z</time>
      </trkpt>
      <trkpt lat="43.93025" lon="7.17978">
        <ele>236</ele>
        <time>2020-05-27T14:08:33.000Z</time>
      </trkpt>
      <trkpt lat="43.93017" lon="7.17999">
        <ele>235.80000305176</ele>
        <time>2020-05-27T14:08:36.000Z</time>
      </trkpt>
      <trkpt lat="43.92997" lon="7.18041">
        <ele>235.80000305176</ele>
        <time>2020-05-27T14:08:42.000Z</time>
      </trkpt>
      <trkpt lat="43.92992" lon="7.18046">
        <ele>235.80000305176</ele>
        <time>2020-05-27T14:08:43.000Z</time>
      </trkpt>
      <trkpt lat="43.92977" lon="7.18058">
        <ele>235.39999389648</ele>
        <time>2020-05-27T14:08:46.000Z</time>
      </trkpt>
      <trkpt lat="43.92944" lon="7.18073">
        <ele>235.19999694824</ele>
        <time>2020-05-27T14:08:52.000Z</time>
      </trkpt>
      <trkpt lat="43.92905" lon="7.18077">
        <ele>235</ele>
        <time>2020-05-27T14:08:59.000Z</time>
      </trkpt>
      <trkpt lat="43.92872" lon="7.18086">
        <ele>235.19999694824</ele>
        <time>2020-05-27T14:09:05.000Z</time>
      </trkpt>
      <trkpt lat="43.92861" lon="7.18092">
        <ele>235</ele>
        <time>2020-05-27T14:09:07.000Z</time>
      </trkpt>
      <trkpt lat="43.92809" lon="7.18121">
        <ele>234.60000610352</ele>
        <time>2020-05-27T14:09:17.000Z</time>
      </trkpt>
      <trkpt lat="43.92799" lon="7.18126">
        <ele>234.60000610352</ele>
        <time>2020-05-27T14:09:19.000Z</time>
      </trkpt>
      <trkpt lat="43.92778" lon="7.18138">
        <ele>234.39999389648</ele>
        <time>2020-05-27T14:09:23.000Z</time>
      </trkpt>
      <trkpt lat="43.92747" lon="7.18158">
        <ele>234.39999389648</ele>
        <time>2020-05-27T14:09:29.000Z</time>
      </trkpt>
      <trkpt lat="43.92712" lon="7.18182">
        <ele>234.19999694824</ele>
        <time>2020-05-27T14:09:36.000Z</time>
      </trkpt>
      <trkpt lat="43.92708" lon="7.18187">
        <ele>234.39999389648</ele>
        <time>2020-05-27T14:09:37.000Z</time>
      </trkpt>
      <trkpt lat="43.92671" lon="7.18229">
        <ele>234.39999389648</ele>
        <time>2020-05-27T14:09:45.000Z</time>
      </trkpt>
      <trkpt lat="43.92636" lon="7.18275">
        <ele>234</ele>
        <time>2020-05-27T14:09:53.000Z</time>
      </trkpt>
      <trkpt lat="43.92613" lon="7.18313">
        <ele>233.80000305176</ele>
        <time>2020-05-27T14:09:59.000Z</time>
      </trkpt>
      <trkpt lat="43.92601" lon="7.18359">
        <ele>233.60000610352</ele>
        <time>2020-05-27T14:10:05.000Z</time>
      </trkpt>
      <trkpt lat="43.92596" lon="7.18383">
        <ele>233.39999389648</ele>
        <time>2020-05-27T14:10:08.000Z</time>
      </trkpt>
      <trkpt lat="43.92583" lon="7.18437">
        <ele>233</ele>
        <time>2020-05-27T14:10:15.000Z</time>
      </trkpt>
      <trkpt lat="43.9258" lon="7.18444">
        <ele>233</ele>
        <time>2020-05-27T14:10:16.000Z</time>
      </trkpt>
      <trkpt lat="43.92564" lon="7.18478">
        <ele>232.80000305176</ele>
        <time>2020-05-27T14:10:21.000Z</time>
      </trkpt>
      <trkpt lat="43.9255" lon="7.1852">
        <ele>232.60000610352</ele>
        <time>2020-05-27T14:10:27.000Z</time>
      </trkpt>
      <trkpt lat="43.92547" lon="7.18542">
        <ele>232.39999389648</ele>
        <time>2020-05-27T14:10:30.000Z</time>
      </trkpt>
      <trkpt lat="43.92544" lon="7.18564">
        <ele>232.60000610352</ele>
        <time>2020-05-27T14:10:33.000Z</time>
      </trkpt>
      <trkpt lat="43.92548" lon="7.18581">
        <ele>232.80000305176</ele>
        <time>2020-05-27T14:10:36.000Z</time>
      </trkpt>
      <trkpt lat="43.9255" lon="7.18586">
        <ele>232.60000610352</ele>
        <time>2020-05-27T14:10:37.000Z</time>
      </trkpt>
      <trkpt lat="43.92554" lon="7.18601">
        <ele>231.80000305176</ele>
        <time>2020-05-27T14:10:41.000Z</time>
      </trkpt>
      <trkpt lat="43.92556" lon="7.18604">
        <ele>231.19999694824</ele>
        <time>2020-05-27T14:10:45.000Z</time>
      </trkpt>
      <trkpt lat="43.92556" lon="7.18603">
        <ele>230.80000305176</ele>
        <time>2020-05-27T14:10:50.000Z</time>
      </trkpt>
      <trkpt lat="43.92555" lon="7.18602">
        <ele>231</ele>
        <time>2020-05-27T14:10:55.000Z</time>
      </trkpt>
      <trkpt lat="43.92555" lon="7.186">
        <ele>231</ele>
        <time>2020-05-27T14:11:03.000Z</time>
      </trkpt>
      <trkpt lat="43.92556" lon="7.18598">
        <ele>231</ele>
        <time>2020-05-27T14:11:10.000Z</time>
      </trkpt>
      <trkpt lat="43.92556" lon="7.18598">
        <ele>231</ele>
        <time>2020-05-27T14:11:11.000Z</time>
      </trkpt>
      <trkpt lat="43.92554" lon="7.18599">
        <ele>230.39999389648</ele>
        <time>2020-05-27T14:15:46.000Z</time>
      </trkpt>
      <trkpt lat="43.92554" lon="7.18599">
        <ele>230.60000610352</ele>
        <time>2020-05-27T14:15:48.000Z</time>
      </trkpt>
    </trkseg>
  </trk>
</gpx>